<?xml version="1.0" encoding="UTF-8" standalone="no" ?>
<gpx xmlns="http://www.topografix.com/GPX/1/1" xmlns:xsi="http://www.w3.org/2001/XMLSchema-instance" xsi:schemaLocation="http://www.topografix.com/GPX/1/1 http://www.topografix.com/GPX/1/1/gpx.xsd" version="1.1" creator="VisuGPX - https://www.visugpx.com">
  <metadata>
    <name>La Tournette</name>
  </metadata>
  <trk>
    <name><![CDATA[La Tournette_1]]></name>
    <trkseg>
      <trkpt lat="45.84646" lon="6.31461">
        <ele>955.1</ele>
        <time>2022-01-06T07:44:31Z</time>
      </trkpt>
      <trkpt lat="45.84647" lon="6.31462">
        <ele>955.1</ele>
        <time>2022-01-06T07:44:32Z</time>
      </trkpt>
      <trkpt lat="45.84647" lon="6.31461">
        <ele>955.1</ele>
        <time>2022-01-06T07:44:33Z</time>
      </trkpt>
      <trkpt lat="45.84648" lon="6.31461">
        <ele>955.1</ele>
        <time>2022-01-06T07:44:34Z</time>
      </trkpt>
      <trkpt lat="45.84648" lon="6.31461">
        <ele>955.1</ele>
        <time>2022-01-06T07:44:35Z</time>
      </trkpt>
      <trkpt lat="45.84647" lon="6.3146">
        <ele>955.1</ele>
        <time>2022-01-06T07:44:36Z</time>
      </trkpt>
      <trkpt lat="45.84646" lon="6.3146">
        <ele>955.1</ele>
        <time>2022-01-06T07:44:37Z</time>
      </trkpt>
      <trkpt lat="45.84645" lon="6.3146">
        <ele>955.1</ele>
        <time>2022-01-06T07:44:38Z</time>
      </trkpt>
      <trkpt lat="45.84644" lon="6.3146">
        <ele>955.1</ele>
        <time>2022-01-06T07:44:39Z</time>
      </trkpt>
      <trkpt lat="45.84643" lon="6.31459">
        <ele>955.1</ele>
        <time>2022-01-06T07:44:40Z</time>
      </trkpt>
      <trkpt lat="45.84642" lon="6.31459">
        <ele>955.1</ele>
        <time>2022-01-06T07:44:41Z</time>
      </trkpt>
      <trkpt lat="45.84641" lon="6.31458">
        <ele>955.1</ele>
        <time>2022-01-06T07:44:42Z</time>
      </trkpt>
      <trkpt lat="45.8464" lon="6.31458">
        <ele>956</ele>
        <time>2022-01-06T07:44:43Z</time>
      </trkpt>
      <trkpt lat="45.84639" lon="6.31457">
        <ele>956</ele>
        <time>2022-01-06T07:44:44Z</time>
      </trkpt>
      <trkpt lat="45.84639" lon="6.31457">
        <ele>956</ele>
        <time>2022-01-06T07:44:45Z</time>
      </trkpt>
      <trkpt lat="45.84638" lon="6.31456">
        <ele>956</ele>
        <time>2022-01-06T07:44:46Z</time>
      </trkpt>
      <trkpt lat="45.84638" lon="6.31455">
        <ele>956</ele>
        <time>2022-01-06T07:44:47Z</time>
      </trkpt>
      <trkpt lat="45.84637" lon="6.31453">
        <ele>956</ele>
        <time>2022-01-06T07:44:48Z</time>
      </trkpt>
      <trkpt lat="45.84637" lon="6.31453">
        <ele>957.1</ele>
        <time>2022-01-06T07:44:49Z</time>
      </trkpt>
      <trkpt lat="45.84636" lon="6.31452">
        <ele>957.1</ele>
        <time>2022-01-06T07:44:50Z</time>
      </trkpt>
      <trkpt lat="45.84636" lon="6.31451">
        <ele>957.1</ele>
        <time>2022-01-06T07:44:51Z</time>
      </trkpt>
      <trkpt lat="45.84636" lon="6.31451">
        <ele>957.1</ele>
        <time>2022-01-06T07:44:52Z</time>
      </trkpt>
      <trkpt lat="45.84635" lon="6.3145">
        <ele>958.2</ele>
        <time>2022-01-06T07:44:53Z</time>
      </trkpt>
      <trkpt lat="45.84635" lon="6.31449">
        <ele>958.2</ele>
        <time>2022-01-06T07:44:54Z</time>
      </trkpt>
      <trkpt lat="45.84635" lon="6.31448">
        <ele>958.2</ele>
        <time>2022-01-06T07:44:55Z</time>
      </trkpt>
      <trkpt lat="45.84634" lon="6.31447">
        <ele>958.2</ele>
        <time>2022-01-06T07:44:56Z</time>
      </trkpt>
      <trkpt lat="45.84634" lon="6.31446">
        <ele>959.1</ele>
        <time>2022-01-06T07:44:57Z</time>
      </trkpt>
      <trkpt lat="45.84633" lon="6.31445">
        <ele>959.1</ele>
        <time>2022-01-06T07:44:58Z</time>
      </trkpt>
      <trkpt lat="45.84633" lon="6.31445">
        <ele>959.1</ele>
        <time>2022-01-06T07:44:59Z</time>
      </trkpt>
      <trkpt lat="45.84631" lon="6.31446">
        <ele>959.1</ele>
        <time>2022-01-06T07:45:00Z</time>
      </trkpt>
      <trkpt lat="45.8463" lon="6.31447">
        <ele>960.1</ele>
        <time>2022-01-06T07:45:01Z</time>
      </trkpt>
      <trkpt lat="45.8463" lon="6.31446">
        <ele>960.1</ele>
        <time>2022-01-06T07:45:02Z</time>
      </trkpt>
      <trkpt lat="45.8463" lon="6.31446">
        <ele>960.1</ele>
        <time>2022-01-06T07:45:03Z</time>
      </trkpt>
      <trkpt lat="45.84629" lon="6.31444">
        <ele>960.1</ele>
        <time>2022-01-06T07:45:04Z</time>
      </trkpt>
      <trkpt lat="45.84629" lon="6.31442">
        <ele>960.1</ele>
        <time>2022-01-06T07:45:05Z</time>
      </trkpt>
      <trkpt lat="45.84629" lon="6.31441">
        <ele>960.1</ele>
        <time>2022-01-06T07:45:06Z</time>
      </trkpt>
      <trkpt lat="45.84628" lon="6.3144">
        <ele>961</ele>
        <time>2022-01-06T07:45:07Z</time>
      </trkpt>
      <trkpt lat="45.84628" lon="6.31439">
        <ele>961</ele>
        <time>2022-01-06T07:45:08Z</time>
      </trkpt>
      <trkpt lat="45.84628" lon="6.31438">
        <ele>961</ele>
        <time>2022-01-06T07:45:09Z</time>
      </trkpt>
      <trkpt lat="45.84627" lon="6.31438">
        <ele>961</ele>
        <time>2022-01-06T07:45:10Z</time>
      </trkpt>
      <trkpt lat="45.84626" lon="6.31437">
        <ele>962.1</ele>
        <time>2022-01-06T07:45:11Z</time>
      </trkpt>
      <trkpt lat="45.84626" lon="6.31436">
        <ele>962.1</ele>
        <time>2022-01-06T07:45:12Z</time>
      </trkpt>
      <trkpt lat="45.84626" lon="6.31435">
        <ele>962.1</ele>
        <time>2022-01-06T07:45:13Z</time>
      </trkpt>
      <trkpt lat="45.84625" lon="6.31435">
        <ele>962.1</ele>
        <time>2022-01-06T07:45:14Z</time>
      </trkpt>
      <trkpt lat="45.84625" lon="6.31434">
        <ele>962.1</ele>
        <time>2022-01-06T07:45:15Z</time>
      </trkpt>
      <trkpt lat="45.84624" lon="6.31433">
        <ele>962.1</ele>
        <time>2022-01-06T07:45:16Z</time>
      </trkpt>
      <trkpt lat="45.84623" lon="6.31432">
        <ele>963</ele>
        <time>2022-01-06T07:45:17Z</time>
      </trkpt>
      <trkpt lat="45.84623" lon="6.31432">
        <ele>963</ele>
        <time>2022-01-06T07:45:18Z</time>
      </trkpt>
      <trkpt lat="45.84622" lon="6.31431">
        <ele>963</ele>
        <time>2022-01-06T07:45:19Z</time>
      </trkpt>
      <trkpt lat="45.84622" lon="6.3143">
        <ele>963</ele>
        <time>2022-01-06T07:45:20Z</time>
      </trkpt>
      <trkpt lat="45.84621" lon="6.31429">
        <ele>964.1</ele>
        <time>2022-01-06T07:45:21Z</time>
      </trkpt>
      <trkpt lat="45.84621" lon="6.31428">
        <ele>964.1</ele>
        <time>2022-01-06T07:45:22Z</time>
      </trkpt>
      <trkpt lat="45.84621" lon="6.31428">
        <ele>964.1</ele>
        <time>2022-01-06T07:45:23Z</time>
      </trkpt>
      <trkpt lat="45.84621" lon="6.31427">
        <ele>964.1</ele>
        <time>2022-01-06T07:45:24Z</time>
      </trkpt>
      <trkpt lat="45.84621" lon="6.31426">
        <ele>964.1</ele>
        <time>2022-01-06T07:45:25Z</time>
      </trkpt>
      <trkpt lat="45.84621" lon="6.31425">
        <ele>964.1</ele>
        <time>2022-01-06T07:45:26Z</time>
      </trkpt>
      <trkpt lat="45.8462" lon="6.31423">
        <ele>964.1</ele>
        <time>2022-01-06T07:45:27Z</time>
      </trkpt>
      <trkpt lat="45.84619" lon="6.31422">
        <ele>964.1</ele>
        <time>2022-01-06T07:45:28Z</time>
      </trkpt>
      <trkpt lat="45.84619" lon="6.31421">
        <ele>964.1</ele>
        <time>2022-01-06T07:45:29Z</time>
      </trkpt>
      <trkpt lat="45.84619" lon="6.3142">
        <ele>964.1</ele>
        <time>2022-01-06T07:45:30Z</time>
      </trkpt>
      <trkpt lat="45.84618" lon="6.31419">
        <ele>964.1</ele>
        <time>2022-01-06T07:45:31Z</time>
      </trkpt>
      <trkpt lat="45.84618" lon="6.31418">
        <ele>964.1</ele>
        <time>2022-01-06T07:45:32Z</time>
      </trkpt>
      <trkpt lat="45.84618" lon="6.31416">
        <ele>964.1</ele>
        <time>2022-01-06T07:45:33Z</time>
      </trkpt>
      <trkpt lat="45.84618" lon="6.31415">
        <ele>964.1</ele>
        <time>2022-01-06T07:45:34Z</time>
      </trkpt>
      <trkpt lat="45.84618" lon="6.31414">
        <ele>965</ele>
        <time>2022-01-06T07:45:35Z</time>
      </trkpt>
      <trkpt lat="45.84618" lon="6.31412">
        <ele>965</ele>
        <time>2022-01-06T07:45:36Z</time>
      </trkpt>
      <trkpt lat="45.84618" lon="6.31411">
        <ele>965</ele>
        <time>2022-01-06T07:45:37Z</time>
      </trkpt>
      <trkpt lat="45.84618" lon="6.31409">
        <ele>965</ele>
        <time>2022-01-06T07:45:38Z</time>
      </trkpt>
      <trkpt lat="45.84617" lon="6.31408">
        <ele>966.1</ele>
        <time>2022-01-06T07:45:39Z</time>
      </trkpt>
      <trkpt lat="45.84617" lon="6.31407">
        <ele>966.1</ele>
        <time>2022-01-06T07:45:40Z</time>
      </trkpt>
      <trkpt lat="45.84617" lon="6.31406">
        <ele>967.1</ele>
        <time>2022-01-06T07:45:41Z</time>
      </trkpt>
      <trkpt lat="45.84617" lon="6.31405">
        <ele>967.1</ele>
        <time>2022-01-06T07:45:42Z</time>
      </trkpt>
      <trkpt lat="45.84617" lon="6.31404">
        <ele>967.1</ele>
        <time>2022-01-06T07:45:43Z</time>
      </trkpt>
      <trkpt lat="45.84617" lon="6.31403">
        <ele>967.1</ele>
        <time>2022-01-06T07:45:44Z</time>
      </trkpt>
      <trkpt lat="45.84617" lon="6.31401">
        <ele>968.1</ele>
        <time>2022-01-06T07:45:45Z</time>
      </trkpt>
      <trkpt lat="45.84617" lon="6.314">
        <ele>968.1</ele>
        <time>2022-01-06T07:45:46Z</time>
      </trkpt>
      <trkpt lat="45.84617" lon="6.31399">
        <ele>968.1</ele>
        <time>2022-01-06T07:45:47Z</time>
      </trkpt>
      <trkpt lat="45.84617" lon="6.31398">
        <ele>968.1</ele>
        <time>2022-01-06T07:45:48Z</time>
      </trkpt>
      <trkpt lat="45.84616" lon="6.31396">
        <ele>969.1</ele>
        <time>2022-01-06T07:45:49Z</time>
      </trkpt>
      <trkpt lat="45.84616" lon="6.31395">
        <ele>969.1</ele>
        <time>2022-01-06T07:45:50Z</time>
      </trkpt>
      <trkpt lat="45.84616" lon="6.31393">
        <ele>970</ele>
        <time>2022-01-06T07:45:51Z</time>
      </trkpt>
      <trkpt lat="45.84616" lon="6.31392">
        <ele>970</ele>
        <time>2022-01-06T07:45:52Z</time>
      </trkpt>
      <trkpt lat="45.84616" lon="6.3139">
        <ele>970</ele>
        <time>2022-01-06T07:45:53Z</time>
      </trkpt>
      <trkpt lat="45.84616" lon="6.31389">
        <ele>970</ele>
        <time>2022-01-06T07:45:54Z</time>
      </trkpt>
      <trkpt lat="45.84616" lon="6.31388">
        <ele>971.1</ele>
        <time>2022-01-06T07:45:55Z</time>
      </trkpt>
      <trkpt lat="45.84617" lon="6.31386">
        <ele>971.1</ele>
        <time>2022-01-06T07:45:56Z</time>
      </trkpt>
      <trkpt lat="45.84617" lon="6.31385">
        <ele>971.1</ele>
        <time>2022-01-06T07:45:57Z</time>
      </trkpt>
      <trkpt lat="45.84617" lon="6.31383">
        <ele>971.1</ele>
        <time>2022-01-06T07:45:58Z</time>
      </trkpt>
      <trkpt lat="45.84618" lon="6.31381">
        <ele>972</ele>
        <time>2022-01-06T07:45:59Z</time>
      </trkpt>
      <trkpt lat="45.84618" lon="6.3138">
        <ele>972</ele>
        <time>2022-01-06T07:46:00Z</time>
      </trkpt>
      <trkpt lat="45.84618" lon="6.31379">
        <ele>972</ele>
        <time>2022-01-06T07:46:01Z</time>
      </trkpt>
      <trkpt lat="45.84618" lon="6.31377">
        <ele>972</ele>
        <time>2022-01-06T07:46:02Z</time>
      </trkpt>
      <trkpt lat="45.84619" lon="6.31376">
        <ele>973.1</ele>
        <time>2022-01-06T07:46:03Z</time>
      </trkpt>
      <trkpt lat="45.84619" lon="6.31375">
        <ele>973.1</ele>
        <time>2022-01-06T07:46:04Z</time>
      </trkpt>
      <trkpt lat="45.8462" lon="6.31374">
        <ele>974.2</ele>
        <time>2022-01-06T07:46:05Z</time>
      </trkpt>
      <trkpt lat="45.8462" lon="6.31373">
        <ele>974.2</ele>
        <time>2022-01-06T07:46:06Z</time>
      </trkpt>
      <trkpt lat="45.8462" lon="6.31372">
        <ele>974.2</ele>
        <time>2022-01-06T07:46:07Z</time>
      </trkpt>
      <trkpt lat="45.8462" lon="6.31371">
        <ele>974.2</ele>
        <time>2022-01-06T07:46:08Z</time>
      </trkpt>
      <trkpt lat="45.8462" lon="6.31369">
        <ele>975.1</ele>
        <time>2022-01-06T07:46:09Z</time>
      </trkpt>
      <trkpt lat="45.8462" lon="6.31367">
        <ele>975.1</ele>
        <time>2022-01-06T07:46:10Z</time>
      </trkpt>
      <trkpt lat="45.8462" lon="6.31366">
        <ele>975.1</ele>
        <time>2022-01-06T07:46:11Z</time>
      </trkpt>
      <trkpt lat="45.8462" lon="6.31364">
        <ele>975.1</ele>
        <time>2022-01-06T07:46:12Z</time>
      </trkpt>
      <trkpt lat="45.84621" lon="6.31363">
        <ele>975.1</ele>
        <time>2022-01-06T07:46:13Z</time>
      </trkpt>
      <trkpt lat="45.84621" lon="6.31362">
        <ele>975.1</ele>
        <time>2022-01-06T07:46:14Z</time>
      </trkpt>
      <trkpt lat="45.84621" lon="6.3136">
        <ele>976.1</ele>
        <time>2022-01-06T07:46:15Z</time>
      </trkpt>
      <trkpt lat="45.84621" lon="6.31359">
        <ele>976.1</ele>
        <time>2022-01-06T07:46:16Z</time>
      </trkpt>
      <trkpt lat="45.84621" lon="6.31357">
        <ele>976.1</ele>
        <time>2022-01-06T07:46:17Z</time>
      </trkpt>
      <trkpt lat="45.84621" lon="6.31356">
        <ele>976.1</ele>
        <time>2022-01-06T07:46:18Z</time>
      </trkpt>
      <trkpt lat="45.84621" lon="6.31356">
        <ele>977</ele>
        <time>2022-01-06T07:46:19Z</time>
      </trkpt>
      <trkpt lat="45.84622" lon="6.31355">
        <ele>977</ele>
        <time>2022-01-06T07:46:20Z</time>
      </trkpt>
      <trkpt lat="45.84622" lon="6.31353">
        <ele>977</ele>
        <time>2022-01-06T07:46:21Z</time>
      </trkpt>
      <trkpt lat="45.84622" lon="6.31353">
        <ele>977</ele>
        <time>2022-01-06T07:46:22Z</time>
      </trkpt>
      <trkpt lat="45.84623" lon="6.31352">
        <ele>978.1</ele>
        <time>2022-01-06T07:46:23Z</time>
      </trkpt>
      <trkpt lat="45.84623" lon="6.31351">
        <ele>978.1</ele>
        <time>2022-01-06T07:46:24Z</time>
      </trkpt>
      <trkpt lat="45.84624" lon="6.31351">
        <ele>979</ele>
        <time>2022-01-06T07:46:25Z</time>
      </trkpt>
      <trkpt lat="45.84624" lon="6.3135">
        <ele>979</ele>
        <time>2022-01-06T07:46:26Z</time>
      </trkpt>
      <trkpt lat="45.84625" lon="6.31349">
        <ele>979</ele>
        <time>2022-01-06T07:46:27Z</time>
      </trkpt>
      <trkpt lat="45.84626" lon="6.31349">
        <ele>979</ele>
        <time>2022-01-06T07:46:28Z</time>
      </trkpt>
      <trkpt lat="45.84626" lon="6.31348">
        <ele>980.1</ele>
        <time>2022-01-06T07:46:29Z</time>
      </trkpt>
      <trkpt lat="45.84627" lon="6.31347">
        <ele>980.1</ele>
        <time>2022-01-06T07:46:30Z</time>
      </trkpt>
      <trkpt lat="45.84627" lon="6.31347">
        <ele>980.1</ele>
        <time>2022-01-06T07:46:31Z</time>
      </trkpt>
      <trkpt lat="45.84627" lon="6.31346">
        <ele>980.1</ele>
        <time>2022-01-06T07:46:32Z</time>
      </trkpt>
      <trkpt lat="45.84628" lon="6.31346">
        <ele>981</ele>
        <time>2022-01-06T07:46:33Z</time>
      </trkpt>
      <trkpt lat="45.84629" lon="6.31345">
        <ele>981</ele>
        <time>2022-01-06T07:46:34Z</time>
      </trkpt>
      <trkpt lat="45.8463" lon="6.31345">
        <ele>982.1</ele>
        <time>2022-01-06T07:46:35Z</time>
      </trkpt>
      <trkpt lat="45.84631" lon="6.31346">
        <ele>982.1</ele>
        <time>2022-01-06T07:46:36Z</time>
      </trkpt>
      <trkpt lat="45.84631" lon="6.31346">
        <ele>982.1</ele>
        <time>2022-01-06T07:46:37Z</time>
      </trkpt>
      <trkpt lat="45.84632" lon="6.31346">
        <ele>982.1</ele>
        <time>2022-01-06T07:46:38Z</time>
      </trkpt>
      <trkpt lat="45.84632" lon="6.31345">
        <ele>983.1</ele>
        <time>2022-01-06T07:46:39Z</time>
      </trkpt>
      <trkpt lat="45.84633" lon="6.31345">
        <ele>983.1</ele>
        <time>2022-01-06T07:46:40Z</time>
      </trkpt>
      <trkpt lat="45.84633" lon="6.31344">
        <ele>983.1</ele>
        <time>2022-01-06T07:46:41Z</time>
      </trkpt>
      <trkpt lat="45.84633" lon="6.31343">
        <ele>983.1</ele>
        <time>2022-01-06T07:46:42Z</time>
      </trkpt>
      <trkpt lat="45.84633" lon="6.31342">
        <ele>984.1</ele>
        <time>2022-01-06T07:46:43Z</time>
      </trkpt>
      <trkpt lat="45.84633" lon="6.31341">
        <ele>984.1</ele>
        <time>2022-01-06T07:46:44Z</time>
      </trkpt>
      <trkpt lat="45.84633" lon="6.3134">
        <ele>984.1</ele>
        <time>2022-01-06T07:46:45Z</time>
      </trkpt>
      <trkpt lat="45.84633" lon="6.31339">
        <ele>984.1</ele>
        <time>2022-01-06T07:46:46Z</time>
      </trkpt>
      <trkpt lat="45.84633" lon="6.31338">
        <ele>984.1</ele>
        <time>2022-01-06T07:46:47Z</time>
      </trkpt>
      <trkpt lat="45.84633" lon="6.31337">
        <ele>984.1</ele>
        <time>2022-01-06T07:46:48Z</time>
      </trkpt>
      <trkpt lat="45.84633" lon="6.31336">
        <ele>985.1</ele>
        <time>2022-01-06T07:46:49Z</time>
      </trkpt>
      <trkpt lat="45.84632" lon="6.31335">
        <ele>985.1</ele>
        <time>2022-01-06T07:46:50Z</time>
      </trkpt>
      <trkpt lat="45.84632" lon="6.31333">
        <ele>985.1</ele>
        <time>2022-01-06T07:46:51Z</time>
      </trkpt>
      <trkpt lat="45.84632" lon="6.31332">
        <ele>985.1</ele>
        <time>2022-01-06T07:46:52Z</time>
      </trkpt>
      <trkpt lat="45.84632" lon="6.31331">
        <ele>986</ele>
        <time>2022-01-06T07:46:53Z</time>
      </trkpt>
      <trkpt lat="45.84632" lon="6.3133">
        <ele>986</ele>
        <time>2022-01-06T07:46:54Z</time>
      </trkpt>
      <trkpt lat="45.84632" lon="6.31329">
        <ele>986</ele>
        <time>2022-01-06T07:46:55Z</time>
      </trkpt>
      <trkpt lat="45.84632" lon="6.31328">
        <ele>986</ele>
        <time>2022-01-06T07:46:56Z</time>
      </trkpt>
      <trkpt lat="45.84632" lon="6.31328">
        <ele>987.1</ele>
        <time>2022-01-06T07:46:57Z</time>
      </trkpt>
      <trkpt lat="45.84631" lon="6.31328">
        <ele>987.1</ele>
        <time>2022-01-06T07:46:58Z</time>
      </trkpt>
      <trkpt lat="45.84631" lon="6.31327">
        <ele>987.1</ele>
        <time>2022-01-06T07:46:59Z</time>
      </trkpt>
      <trkpt lat="45.84631" lon="6.31327">
        <ele>987.1</ele>
        <time>2022-01-06T07:47:00Z</time>
      </trkpt>
      <trkpt lat="45.84631" lon="6.31328">
        <ele>987.1</ele>
        <time>2022-01-06T07:47:01Z</time>
      </trkpt>
      <trkpt lat="45.84631" lon="6.31327">
        <ele>987.1</ele>
        <time>2022-01-06T07:47:02Z</time>
      </trkpt>
      <trkpt lat="45.84631" lon="6.31326">
        <ele>987.1</ele>
        <time>2022-01-06T07:47:03Z</time>
      </trkpt>
      <trkpt lat="45.84631" lon="6.31325">
        <ele>987.1</ele>
        <time>2022-01-06T07:47:04Z</time>
      </trkpt>
      <trkpt lat="45.84631" lon="6.31323">
        <ele>988</ele>
        <time>2022-01-06T07:47:05Z</time>
      </trkpt>
      <trkpt lat="45.84631" lon="6.31322">
        <ele>988</ele>
        <time>2022-01-06T07:47:06Z</time>
      </trkpt>
      <trkpt lat="45.84631" lon="6.31321">
        <ele>988</ele>
        <time>2022-01-06T07:47:07Z</time>
      </trkpt>
      <trkpt lat="45.84631" lon="6.31319">
        <ele>988</ele>
        <time>2022-01-06T07:47:08Z</time>
      </trkpt>
      <trkpt lat="45.84631" lon="6.31318">
        <ele>988</ele>
        <time>2022-01-06T07:47:09Z</time>
      </trkpt>
      <trkpt lat="45.84631" lon="6.31316">
        <ele>988</ele>
        <time>2022-01-06T07:47:10Z</time>
      </trkpt>
      <trkpt lat="45.84631" lon="6.31315">
        <ele>989.1</ele>
        <time>2022-01-06T07:47:11Z</time>
      </trkpt>
      <trkpt lat="45.84631" lon="6.31314">
        <ele>989.1</ele>
        <time>2022-01-06T07:47:12Z</time>
      </trkpt>
      <trkpt lat="45.8463" lon="6.31312">
        <ele>989.1</ele>
        <time>2022-01-06T07:47:13Z</time>
      </trkpt>
      <trkpt lat="45.8463" lon="6.31311">
        <ele>989.1</ele>
        <time>2022-01-06T07:47:14Z</time>
      </trkpt>
      <trkpt lat="45.8463" lon="6.31309">
        <ele>989.1</ele>
        <time>2022-01-06T07:47:15Z</time>
      </trkpt>
      <trkpt lat="45.8463" lon="6.31309">
        <ele>989.1</ele>
        <time>2022-01-06T07:47:16Z</time>
      </trkpt>
      <trkpt lat="45.84629" lon="6.31308">
        <ele>990.2</ele>
        <time>2022-01-06T07:47:17Z</time>
      </trkpt>
      <trkpt lat="45.84629" lon="6.31307">
        <ele>990.2</ele>
        <time>2022-01-06T07:47:18Z</time>
      </trkpt>
      <trkpt lat="45.84629" lon="6.31306">
        <ele>990.2</ele>
        <time>2022-01-06T07:47:19Z</time>
      </trkpt>
      <trkpt lat="45.84629" lon="6.31305">
        <ele>990.2</ele>
        <time>2022-01-06T07:47:20Z</time>
      </trkpt>
      <trkpt lat="45.84629" lon="6.31304">
        <ele>991.1</ele>
        <time>2022-01-06T07:47:21Z</time>
      </trkpt>
      <trkpt lat="45.84629" lon="6.31302">
        <ele>991.1</ele>
        <time>2022-01-06T07:47:22Z</time>
      </trkpt>
      <trkpt lat="45.84629" lon="6.31301">
        <ele>991.1</ele>
        <time>2022-01-06T07:47:23Z</time>
      </trkpt>
      <trkpt lat="45.84629" lon="6.31299">
        <ele>991.1</ele>
        <time>2022-01-06T07:47:24Z</time>
      </trkpt>
      <trkpt lat="45.84629" lon="6.31298">
        <ele>992.1</ele>
        <time>2022-01-06T07:47:25Z</time>
      </trkpt>
      <trkpt lat="45.84628" lon="6.31297">
        <ele>992.1</ele>
        <time>2022-01-06T07:47:26Z</time>
      </trkpt>
      <trkpt lat="45.84628" lon="6.31296">
        <ele>992.1</ele>
        <time>2022-01-06T07:47:27Z</time>
      </trkpt>
      <trkpt lat="45.84628" lon="6.31295">
        <ele>992.1</ele>
        <time>2022-01-06T07:47:28Z</time>
      </trkpt>
      <trkpt lat="45.84627" lon="6.31293">
        <ele>993.1</ele>
        <time>2022-01-06T07:47:29Z</time>
      </trkpt>
      <trkpt lat="45.84627" lon="6.31292">
        <ele>993.1</ele>
        <time>2022-01-06T07:47:30Z</time>
      </trkpt>
      <trkpt lat="45.84626" lon="6.31291">
        <ele>993.1</ele>
        <time>2022-01-06T07:47:31Z</time>
      </trkpt>
      <trkpt lat="45.84626" lon="6.3129">
        <ele>993.1</ele>
        <time>2022-01-06T07:47:32Z</time>
      </trkpt>
      <trkpt lat="45.84625" lon="6.31289">
        <ele>994.1</ele>
        <time>2022-01-06T07:47:33Z</time>
      </trkpt>
      <trkpt lat="45.84624" lon="6.31288">
        <ele>994.1</ele>
        <time>2022-01-06T07:47:34Z</time>
      </trkpt>
      <trkpt lat="45.84624" lon="6.31286">
        <ele>994.1</ele>
        <time>2022-01-06T07:47:35Z</time>
      </trkpt>
      <trkpt lat="45.84624" lon="6.31284">
        <ele>994.1</ele>
        <time>2022-01-06T07:47:36Z</time>
      </trkpt>
      <trkpt lat="45.84623" lon="6.31283">
        <ele>995</ele>
        <time>2022-01-06T07:47:37Z</time>
      </trkpt>
      <trkpt lat="45.84623" lon="6.31282">
        <ele>995</ele>
        <time>2022-01-06T07:47:38Z</time>
      </trkpt>
      <trkpt lat="45.84622" lon="6.31281">
        <ele>995</ele>
        <time>2022-01-06T07:47:39Z</time>
      </trkpt>
      <trkpt lat="45.84622" lon="6.31279">
        <ele>995</ele>
        <time>2022-01-06T07:47:40Z</time>
      </trkpt>
      <trkpt lat="45.84621" lon="6.31278">
        <ele>995</ele>
        <time>2022-01-06T07:47:41Z</time>
      </trkpt>
      <trkpt lat="45.84621" lon="6.31276">
        <ele>995</ele>
        <time>2022-01-06T07:47:42Z</time>
      </trkpt>
      <trkpt lat="45.8462" lon="6.31275">
        <ele>996.1</ele>
        <time>2022-01-06T07:47:43Z</time>
      </trkpt>
      <trkpt lat="45.8462" lon="6.31274">
        <ele>996.1</ele>
        <time>2022-01-06T07:47:44Z</time>
      </trkpt>
      <trkpt lat="45.84619" lon="6.31273">
        <ele>996.1</ele>
        <time>2022-01-06T07:47:45Z</time>
      </trkpt>
      <trkpt lat="45.84619" lon="6.31272">
        <ele>996.1</ele>
        <time>2022-01-06T07:47:46Z</time>
      </trkpt>
      <trkpt lat="45.84618" lon="6.3127">
        <ele>997</ele>
        <time>2022-01-06T07:47:47Z</time>
      </trkpt>
      <trkpt lat="45.84618" lon="6.31269">
        <ele>997</ele>
        <time>2022-01-06T07:47:48Z</time>
      </trkpt>
      <trkpt lat="45.84617" lon="6.31267">
        <ele>997</ele>
        <time>2022-01-06T07:47:49Z</time>
      </trkpt>
      <trkpt lat="45.84616" lon="6.31266">
        <ele>997</ele>
        <time>2022-01-06T07:47:50Z</time>
      </trkpt>
      <trkpt lat="45.84616" lon="6.31265">
        <ele>997</ele>
        <time>2022-01-06T07:47:51Z</time>
      </trkpt>
      <trkpt lat="45.84616" lon="6.31263">
        <ele>997</ele>
        <time>2022-01-06T07:47:52Z</time>
      </trkpt>
      <trkpt lat="45.84616" lon="6.31262">
        <ele>998.1</ele>
        <time>2022-01-06T07:47:53Z</time>
      </trkpt>
      <trkpt lat="45.84616" lon="6.31261">
        <ele>998.1</ele>
        <time>2022-01-06T07:47:54Z</time>
      </trkpt>
      <trkpt lat="45.84616" lon="6.3126">
        <ele>998.1</ele>
        <time>2022-01-06T07:47:55Z</time>
      </trkpt>
      <trkpt lat="45.84615" lon="6.31258">
        <ele>998.1</ele>
        <time>2022-01-06T07:47:56Z</time>
      </trkpt>
      <trkpt lat="45.84615" lon="6.31257">
        <ele>999.1</ele>
        <time>2022-01-06T07:47:57Z</time>
      </trkpt>
      <trkpt lat="45.84615" lon="6.31255">
        <ele>999.1</ele>
        <time>2022-01-06T07:47:58Z</time>
      </trkpt>
      <trkpt lat="45.84615" lon="6.31254">
        <ele>999.1</ele>
        <time>2022-01-06T07:47:59Z</time>
      </trkpt>
      <trkpt lat="45.84615" lon="6.31253">
        <ele>999.1</ele>
        <time>2022-01-06T07:48:00Z</time>
      </trkpt>
      <trkpt lat="45.84615" lon="6.31251">
        <ele>999.1</ele>
        <time>2022-01-06T07:48:01Z</time>
      </trkpt>
      <trkpt lat="45.84614" lon="6.3125">
        <ele>999.1</ele>
        <time>2022-01-06T07:48:02Z</time>
      </trkpt>
      <trkpt lat="45.84614" lon="6.31248">
        <ele>999.1</ele>
        <time>2022-01-06T07:48:03Z</time>
      </trkpt>
      <trkpt lat="45.84614" lon="6.31247">
        <ele>999.1</ele>
        <time>2022-01-06T07:48:04Z</time>
      </trkpt>
      <trkpt lat="45.84613" lon="6.31246">
        <ele>1000.1</ele>
        <time>2022-01-06T07:48:05Z</time>
      </trkpt>
      <trkpt lat="45.84613" lon="6.31245">
        <ele>1000.1</ele>
        <time>2022-01-06T07:48:06Z</time>
      </trkpt>
      <trkpt lat="45.84612" lon="6.31244">
        <ele>1000.1</ele>
        <time>2022-01-06T07:48:07Z</time>
      </trkpt>
      <trkpt lat="45.84612" lon="6.31243">
        <ele>1000.1</ele>
        <time>2022-01-06T07:48:08Z</time>
      </trkpt>
      <trkpt lat="45.84612" lon="6.31241">
        <ele>1001.1</ele>
        <time>2022-01-06T07:48:09Z</time>
      </trkpt>
      <trkpt lat="45.84611" lon="6.3124">
        <ele>1001.1</ele>
        <time>2022-01-06T07:48:10Z</time>
      </trkpt>
      <trkpt lat="45.84611" lon="6.31239">
        <ele>1001.1</ele>
        <time>2022-01-06T07:48:11Z</time>
      </trkpt>
      <trkpt lat="45.8461" lon="6.31238">
        <ele>1001.1</ele>
        <time>2022-01-06T07:48:12Z</time>
      </trkpt>
      <trkpt lat="45.8461" lon="6.31237">
        <ele>1002</ele>
        <time>2022-01-06T07:48:13Z</time>
      </trkpt>
      <trkpt lat="45.84609" lon="6.31236">
        <ele>1002</ele>
        <time>2022-01-06T07:48:14Z</time>
      </trkpt>
      <trkpt lat="45.84609" lon="6.31234">
        <ele>1002</ele>
        <time>2022-01-06T07:48:15Z</time>
      </trkpt>
      <trkpt lat="45.84609" lon="6.31234">
        <ele>1002</ele>
        <time>2022-01-06T07:48:16Z</time>
      </trkpt>
      <trkpt lat="45.84608" lon="6.31232">
        <ele>1002</ele>
        <time>2022-01-06T07:48:17Z</time>
      </trkpt>
      <trkpt lat="45.84608" lon="6.31232">
        <ele>1002</ele>
        <time>2022-01-06T07:48:18Z</time>
      </trkpt>
      <trkpt lat="45.84607" lon="6.31231">
        <ele>1003.1</ele>
        <time>2022-01-06T07:48:19Z</time>
      </trkpt>
      <trkpt lat="45.84607" lon="6.3123">
        <ele>1003.1</ele>
        <time>2022-01-06T07:48:20Z</time>
      </trkpt>
      <trkpt lat="45.84607" lon="6.31229">
        <ele>1003.1</ele>
        <time>2022-01-06T07:48:21Z</time>
      </trkpt>
      <trkpt lat="45.84606" lon="6.31228">
        <ele>1003.1</ele>
        <time>2022-01-06T07:48:22Z</time>
      </trkpt>
      <trkpt lat="45.84606" lon="6.31227">
        <ele>1004</ele>
        <time>2022-01-06T07:48:23Z</time>
      </trkpt>
      <trkpt lat="45.84606" lon="6.31225">
        <ele>1004</ele>
        <time>2022-01-06T07:48:24Z</time>
      </trkpt>
      <trkpt lat="45.84605" lon="6.31225">
        <ele>1005.1</ele>
        <time>2022-01-06T07:48:25Z</time>
      </trkpt>
      <trkpt lat="45.84605" lon="6.31224">
        <ele>1005.1</ele>
        <time>2022-01-06T07:48:26Z</time>
      </trkpt>
      <trkpt lat="45.84604" lon="6.31223">
        <ele>1005.1</ele>
        <time>2022-01-06T07:48:27Z</time>
      </trkpt>
      <trkpt lat="45.84604" lon="6.31221">
        <ele>1005.1</ele>
        <time>2022-01-06T07:48:28Z</time>
      </trkpt>
      <trkpt lat="45.84604" lon="6.3122">
        <ele>1006</ele>
        <time>2022-01-06T07:48:29Z</time>
      </trkpt>
      <trkpt lat="45.84603" lon="6.31219">
        <ele>1006</ele>
        <time>2022-01-06T07:48:30Z</time>
      </trkpt>
      <trkpt lat="45.84603" lon="6.31218">
        <ele>1006</ele>
        <time>2022-01-06T07:48:31Z</time>
      </trkpt>
      <trkpt lat="45.84603" lon="6.31217">
        <ele>1006</ele>
        <time>2022-01-06T07:48:32Z</time>
      </trkpt>
      <trkpt lat="45.84602" lon="6.31215">
        <ele>1007.1</ele>
        <time>2022-01-06T07:48:33Z</time>
      </trkpt>
      <trkpt lat="45.84602" lon="6.31214">
        <ele>1007.1</ele>
        <time>2022-01-06T07:48:34Z</time>
      </trkpt>
      <trkpt lat="45.84601" lon="6.31214">
        <ele>1007.1</ele>
        <time>2022-01-06T07:48:35Z</time>
      </trkpt>
      <trkpt lat="45.84601" lon="6.31213">
        <ele>1007.1</ele>
        <time>2022-01-06T07:48:36Z</time>
      </trkpt>
      <trkpt lat="45.84601" lon="6.31211">
        <ele>1008.1</ele>
        <time>2022-01-06T07:48:37Z</time>
      </trkpt>
      <trkpt lat="45.846" lon="6.3121">
        <ele>1008.1</ele>
        <time>2022-01-06T07:48:38Z</time>
      </trkpt>
      <trkpt lat="45.846" lon="6.31209">
        <ele>1008.1</ele>
        <time>2022-01-06T07:48:39Z</time>
      </trkpt>
      <trkpt lat="45.846" lon="6.31208">
        <ele>1008.1</ele>
        <time>2022-01-06T07:48:40Z</time>
      </trkpt>
      <trkpt lat="45.84599" lon="6.31207">
        <ele>1009.1</ele>
        <time>2022-01-06T07:48:41Z</time>
      </trkpt>
      <trkpt lat="45.84599" lon="6.31206">
        <ele>1009.1</ele>
        <time>2022-01-06T07:48:42Z</time>
      </trkpt>
      <trkpt lat="45.84599" lon="6.31205">
        <ele>1009.1</ele>
        <time>2022-01-06T07:48:43Z</time>
      </trkpt>
      <trkpt lat="45.84599" lon="6.31204">
        <ele>1009.1</ele>
        <time>2022-01-06T07:48:44Z</time>
      </trkpt>
      <trkpt lat="45.84598" lon="6.31202">
        <ele>1010.1</ele>
        <time>2022-01-06T07:48:45Z</time>
      </trkpt>
      <trkpt lat="45.84598" lon="6.31201">
        <ele>1010.1</ele>
        <time>2022-01-06T07:48:46Z</time>
      </trkpt>
      <trkpt lat="45.84598" lon="6.312">
        <ele>1010.1</ele>
        <time>2022-01-06T07:48:47Z</time>
      </trkpt>
      <trkpt lat="45.84598" lon="6.31199">
        <ele>1010.1</ele>
        <time>2022-01-06T07:48:48Z</time>
      </trkpt>
      <trkpt lat="45.84598" lon="6.31198">
        <ele>1011</ele>
        <time>2022-01-06T07:48:49Z</time>
      </trkpt>
      <trkpt lat="45.84598" lon="6.31197">
        <ele>1011</ele>
        <time>2022-01-06T07:48:50Z</time>
      </trkpt>
      <trkpt lat="45.84598" lon="6.31196">
        <ele>1012.1</ele>
        <time>2022-01-06T07:48:51Z</time>
      </trkpt>
      <trkpt lat="45.84598" lon="6.31194">
        <ele>1012.1</ele>
        <time>2022-01-06T07:48:52Z</time>
      </trkpt>
      <trkpt lat="45.84598" lon="6.31193">
        <ele>1012.1</ele>
        <time>2022-01-06T07:48:53Z</time>
      </trkpt>
      <trkpt lat="45.84597" lon="6.31192">
        <ele>1012.1</ele>
        <time>2022-01-06T07:48:54Z</time>
      </trkpt>
      <trkpt lat="45.84596" lon="6.31191">
        <ele>1013</ele>
        <time>2022-01-06T07:48:55Z</time>
      </trkpt>
      <trkpt lat="45.84595" lon="6.3119">
        <ele>1013</ele>
        <time>2022-01-06T07:48:56Z</time>
      </trkpt>
      <trkpt lat="45.84595" lon="6.31189">
        <ele>1013</ele>
        <time>2022-01-06T07:48:57Z</time>
      </trkpt>
      <trkpt lat="45.84594" lon="6.31188">
        <ele>1013</ele>
        <time>2022-01-06T07:48:58Z</time>
      </trkpt>
      <trkpt lat="45.84593" lon="6.31187">
        <ele>1014.1</ele>
        <time>2022-01-06T07:48:59Z</time>
      </trkpt>
      <trkpt lat="45.84592" lon="6.31186">
        <ele>1014.1</ele>
        <time>2022-01-06T07:49:00Z</time>
      </trkpt>
      <trkpt lat="45.84591" lon="6.31186">
        <ele>1014.1</ele>
        <time>2022-01-06T07:49:01Z</time>
      </trkpt>
      <trkpt lat="45.8459" lon="6.31185">
        <ele>1014.1</ele>
        <time>2022-01-06T07:49:02Z</time>
      </trkpt>
      <trkpt lat="45.84589" lon="6.31184">
        <ele>1014.1</ele>
        <time>2022-01-06T07:49:03Z</time>
      </trkpt>
      <trkpt lat="45.84589" lon="6.31182">
        <ele>1014.1</ele>
        <time>2022-01-06T07:49:04Z</time>
      </trkpt>
      <trkpt lat="45.84589" lon="6.3118">
        <ele>1015.1</ele>
        <time>2022-01-06T07:49:05Z</time>
      </trkpt>
      <trkpt lat="45.84589" lon="6.31179">
        <ele>1015.1</ele>
        <time>2022-01-06T07:49:06Z</time>
      </trkpt>
      <trkpt lat="45.84588" lon="6.31177">
        <ele>1015.1</ele>
        <time>2022-01-06T07:49:07Z</time>
      </trkpt>
      <trkpt lat="45.84588" lon="6.31176">
        <ele>1015.1</ele>
        <time>2022-01-06T07:49:08Z</time>
      </trkpt>
      <trkpt lat="45.84587" lon="6.31175">
        <ele>1016.1</ele>
        <time>2022-01-06T07:49:09Z</time>
      </trkpt>
      <trkpt lat="45.84587" lon="6.31174">
        <ele>1016.1</ele>
        <time>2022-01-06T07:49:10Z</time>
      </trkpt>
      <trkpt lat="45.84586" lon="6.31173">
        <ele>1016.1</ele>
        <time>2022-01-06T07:49:11Z</time>
      </trkpt>
      <trkpt lat="45.84585" lon="6.31173">
        <ele>1016.1</ele>
        <time>2022-01-06T07:49:12Z</time>
      </trkpt>
      <trkpt lat="45.84584" lon="6.31172">
        <ele>1017.1</ele>
        <time>2022-01-06T07:49:13Z</time>
      </trkpt>
      <trkpt lat="45.84583" lon="6.31171">
        <ele>1017.1</ele>
        <time>2022-01-06T07:49:14Z</time>
      </trkpt>
      <trkpt lat="45.84583" lon="6.3117">
        <ele>1017.1</ele>
        <time>2022-01-06T07:49:15Z</time>
      </trkpt>
      <trkpt lat="45.84582" lon="6.3117">
        <ele>1017.1</ele>
        <time>2022-01-06T07:49:16Z</time>
      </trkpt>
      <trkpt lat="45.84581" lon="6.31169">
        <ele>1018</ele>
        <time>2022-01-06T07:49:17Z</time>
      </trkpt>
      <trkpt lat="45.8458" lon="6.31169">
        <ele>1018</ele>
        <time>2022-01-06T07:49:18Z</time>
      </trkpt>
      <trkpt lat="45.8458" lon="6.31168">
        <ele>1018</ele>
        <time>2022-01-06T07:49:19Z</time>
      </trkpt>
      <trkpt lat="45.84579" lon="6.31168">
        <ele>1018</ele>
        <time>2022-01-06T07:49:20Z</time>
      </trkpt>
      <trkpt lat="45.84577" lon="6.31167">
        <ele>1018</ele>
        <time>2022-01-06T07:49:21Z</time>
      </trkpt>
      <trkpt lat="45.84576" lon="6.31167">
        <ele>1018</ele>
        <time>2022-01-06T07:49:22Z</time>
      </trkpt>
      <trkpt lat="45.84576" lon="6.31165">
        <ele>1019.1</ele>
        <time>2022-01-06T07:49:23Z</time>
      </trkpt>
      <trkpt lat="45.84575" lon="6.31165">
        <ele>1019.1</ele>
        <time>2022-01-06T07:49:24Z</time>
      </trkpt>
      <trkpt lat="45.84575" lon="6.31164">
        <ele>1019.1</ele>
        <time>2022-01-06T07:49:25Z</time>
      </trkpt>
      <trkpt lat="45.84575" lon="6.31163">
        <ele>1019.1</ele>
        <time>2022-01-06T07:49:26Z</time>
      </trkpt>
      <trkpt lat="45.84575" lon="6.31162">
        <ele>1019.1</ele>
        <time>2022-01-06T07:49:27Z</time>
      </trkpt>
      <trkpt lat="45.84576" lon="6.31161">
        <ele>1019.1</ele>
        <time>2022-01-06T07:49:28Z</time>
      </trkpt>
      <trkpt lat="45.84576" lon="6.31159">
        <ele>1019.1</ele>
        <time>2022-01-06T07:49:29Z</time>
      </trkpt>
      <trkpt lat="45.84576" lon="6.31159">
        <ele>1019.1</ele>
        <time>2022-01-06T07:49:30Z</time>
      </trkpt>
      <trkpt lat="45.84576" lon="6.31159">
        <ele>1019.1</ele>
        <time>2022-01-06T07:49:31Z</time>
      </trkpt>
      <trkpt lat="45.84575" lon="6.31159">
        <ele>1019.1</ele>
        <time>2022-01-06T07:49:32Z</time>
      </trkpt>
      <trkpt lat="45.84574" lon="6.31158">
        <ele>1022</ele>
        <time>2022-01-06T07:49:33Z</time>
      </trkpt>
      <trkpt lat="45.84573" lon="6.31158">
        <ele>1022</ele>
        <time>2022-01-06T07:49:34Z</time>
      </trkpt>
      <trkpt lat="45.84572" lon="6.31158">
        <ele>1022</ele>
        <time>2022-01-06T07:49:35Z</time>
      </trkpt>
      <trkpt lat="45.84571" lon="6.31159">
        <ele>1022</ele>
        <time>2022-01-06T07:49:36Z</time>
      </trkpt>
      <trkpt lat="45.8457" lon="6.3116">
        <ele>1023.1</ele>
        <time>2022-01-06T07:49:37Z</time>
      </trkpt>
      <trkpt lat="45.8457" lon="6.31161">
        <ele>1023.1</ele>
        <time>2022-01-06T07:49:38Z</time>
      </trkpt>
      <trkpt lat="45.84569" lon="6.31161">
        <ele>1023.1</ele>
        <time>2022-01-06T07:49:39Z</time>
      </trkpt>
      <trkpt lat="45.84568" lon="6.31161">
        <ele>1023.1</ele>
        <time>2022-01-06T07:49:40Z</time>
      </trkpt>
      <trkpt lat="45.84567" lon="6.31161">
        <ele>1024.1</ele>
        <time>2022-01-06T07:49:41Z</time>
      </trkpt>
      <trkpt lat="45.84566" lon="6.31161">
        <ele>1024.1</ele>
        <time>2022-01-06T07:49:42Z</time>
      </trkpt>
      <trkpt lat="45.84565" lon="6.31161">
        <ele>1024.1</ele>
        <time>2022-01-06T07:49:43Z</time>
      </trkpt>
      <trkpt lat="45.84565" lon="6.3116">
        <ele>1024.1</ele>
        <time>2022-01-06T07:49:44Z</time>
      </trkpt>
      <trkpt lat="45.84564" lon="6.3116">
        <ele>1024.1</ele>
        <time>2022-01-06T07:49:45Z</time>
      </trkpt>
      <trkpt lat="45.84563" lon="6.3116">
        <ele>1024.1</ele>
        <time>2022-01-06T07:49:46Z</time>
      </trkpt>
      <trkpt lat="45.84562" lon="6.31159">
        <ele>1024.1</ele>
        <time>2022-01-06T07:49:47Z</time>
      </trkpt>
      <trkpt lat="45.84561" lon="6.31158">
        <ele>1024.1</ele>
        <time>2022-01-06T07:49:48Z</time>
      </trkpt>
      <trkpt lat="45.84561" lon="6.31158">
        <ele>1024.1</ele>
        <time>2022-01-06T07:49:49Z</time>
      </trkpt>
      <trkpt lat="45.8456" lon="6.31157">
        <ele>1024.1</ele>
        <time>2022-01-06T07:49:50Z</time>
      </trkpt>
      <trkpt lat="45.8456" lon="6.31157">
        <ele>1026.1</ele>
        <time>2022-01-06T07:49:51Z</time>
      </trkpt>
      <trkpt lat="45.84559" lon="6.31158">
        <ele>1026.1</ele>
        <time>2022-01-06T07:49:52Z</time>
      </trkpt>
      <trkpt lat="45.84557" lon="6.31158">
        <ele>1026.1</ele>
        <time>2022-01-06T07:49:53Z</time>
      </trkpt>
      <trkpt lat="45.84557" lon="6.31158">
        <ele>1026.1</ele>
        <time>2022-01-06T07:49:54Z</time>
      </trkpt>
      <trkpt lat="45.84556" lon="6.31159">
        <ele>1027</ele>
        <time>2022-01-06T07:49:55Z</time>
      </trkpt>
      <trkpt lat="45.84556" lon="6.31158">
        <ele>1027</ele>
        <time>2022-01-06T07:49:56Z</time>
      </trkpt>
      <trkpt lat="45.84555" lon="6.31158">
        <ele>1027</ele>
        <time>2022-01-06T07:49:57Z</time>
      </trkpt>
      <trkpt lat="45.84554" lon="6.31158">
        <ele>1027</ele>
        <time>2022-01-06T07:49:58Z</time>
      </trkpt>
      <trkpt lat="45.84554" lon="6.31157">
        <ele>1028.1</ele>
        <time>2022-01-06T07:49:59Z</time>
      </trkpt>
      <trkpt lat="45.84554" lon="6.31157">
        <ele>1028.1</ele>
        <time>2022-01-06T07:50:00Z</time>
      </trkpt>
      <trkpt lat="45.84555" lon="6.31156">
        <ele>1028.1</ele>
        <time>2022-01-06T07:50:01Z</time>
      </trkpt>
      <trkpt lat="45.84555" lon="6.31154">
        <ele>1028.1</ele>
        <time>2022-01-06T07:50:02Z</time>
      </trkpt>
      <trkpt lat="45.84556" lon="6.31152">
        <ele>1029</ele>
        <time>2022-01-06T07:50:03Z</time>
      </trkpt>
      <trkpt lat="45.84557" lon="6.3115">
        <ele>1029</ele>
        <time>2022-01-06T07:50:04Z</time>
      </trkpt>
      <trkpt lat="45.84556" lon="6.31149">
        <ele>1029</ele>
        <time>2022-01-06T07:50:05Z</time>
      </trkpt>
      <trkpt lat="45.84556" lon="6.31149">
        <ele>1029</ele>
        <time>2022-01-06T07:50:06Z</time>
      </trkpt>
      <trkpt lat="45.84556" lon="6.31149">
        <ele>1031.2</ele>
        <time>2022-01-06T07:50:07Z</time>
      </trkpt>
      <trkpt lat="45.84556" lon="6.31148">
        <ele>1031.2</ele>
        <time>2022-01-06T07:50:08Z</time>
      </trkpt>
      <trkpt lat="45.84557" lon="6.31147">
        <ele>1032.1</ele>
        <time>2022-01-06T07:50:09Z</time>
      </trkpt>
      <trkpt lat="45.84557" lon="6.31147">
        <ele>1032.1</ele>
        <time>2022-01-06T07:50:10Z</time>
      </trkpt>
      <trkpt lat="45.84558" lon="6.31146">
        <ele>1032.1</ele>
        <time>2022-01-06T07:50:11Z</time>
      </trkpt>
      <trkpt lat="45.84558" lon="6.31145">
        <ele>1032.1</ele>
        <time>2022-01-06T07:50:12Z</time>
      </trkpt>
      <trkpt lat="45.84558" lon="6.31144">
        <ele>1032.1</ele>
        <time>2022-01-06T07:50:13Z</time>
      </trkpt>
      <trkpt lat="45.84558" lon="6.31144">
        <ele>1032.1</ele>
        <time>2022-01-06T07:50:14Z</time>
      </trkpt>
      <trkpt lat="45.84557" lon="6.31144">
        <ele>1033.1</ele>
        <time>2022-01-06T07:50:15Z</time>
      </trkpt>
      <trkpt lat="45.84557" lon="6.31144">
        <ele>1033.1</ele>
        <time>2022-01-06T07:50:16Z</time>
      </trkpt>
      <trkpt lat="45.84556" lon="6.31144">
        <ele>1033.1</ele>
        <time>2022-01-06T07:50:17Z</time>
      </trkpt>
      <trkpt lat="45.84555" lon="6.31145">
        <ele>1033.1</ele>
        <time>2022-01-06T07:50:18Z</time>
      </trkpt>
      <trkpt lat="45.84555" lon="6.31146">
        <ele>1033.1</ele>
        <time>2022-01-06T07:50:19Z</time>
      </trkpt>
      <trkpt lat="45.84554" lon="6.31146">
        <ele>1033.1</ele>
        <time>2022-01-06T07:50:20Z</time>
      </trkpt>
      <trkpt lat="45.84553" lon="6.31146">
        <ele>1033.1</ele>
        <time>2022-01-06T07:50:21Z</time>
      </trkpt>
      <trkpt lat="45.84552" lon="6.31147">
        <ele>1033.1</ele>
        <time>2022-01-06T07:50:22Z</time>
      </trkpt>
      <trkpt lat="45.84551" lon="6.31147">
        <ele>1033.1</ele>
        <time>2022-01-06T07:50:23Z</time>
      </trkpt>
      <trkpt lat="45.8455" lon="6.31147">
        <ele>1033.1</ele>
        <time>2022-01-06T07:50:24Z</time>
      </trkpt>
      <trkpt lat="45.84548" lon="6.31148">
        <ele>1034</ele>
        <time>2022-01-06T07:50:25Z</time>
      </trkpt>
      <trkpt lat="45.84548" lon="6.31148">
        <ele>1034</ele>
        <time>2022-01-06T07:50:26Z</time>
      </trkpt>
      <trkpt lat="45.84547" lon="6.31149">
        <ele>1034</ele>
        <time>2022-01-06T07:50:27Z</time>
      </trkpt>
      <trkpt lat="45.84546" lon="6.3115">
        <ele>1034</ele>
        <time>2022-01-06T07:50:28Z</time>
      </trkpt>
      <trkpt lat="45.84545" lon="6.31151">
        <ele>1034</ele>
        <time>2022-01-06T07:50:29Z</time>
      </trkpt>
      <trkpt lat="45.84545" lon="6.3115">
        <ele>1034</ele>
        <time>2022-01-06T07:50:30Z</time>
      </trkpt>
      <trkpt lat="45.84545" lon="6.3115">
        <ele>1034</ele>
        <time>2022-01-06T07:50:31Z</time>
      </trkpt>
      <trkpt lat="45.84544" lon="6.3115">
        <ele>1034</ele>
        <time>2022-01-06T07:50:32Z</time>
      </trkpt>
      <trkpt lat="45.84543" lon="6.31151">
        <ele>1034</ele>
        <time>2022-01-06T07:50:33Z</time>
      </trkpt>
      <trkpt lat="45.84542" lon="6.31152">
        <ele>1034</ele>
        <time>2022-01-06T07:50:34Z</time>
      </trkpt>
      <trkpt lat="45.84542" lon="6.31153">
        <ele>1035.1</ele>
        <time>2022-01-06T07:50:35Z</time>
      </trkpt>
      <trkpt lat="45.84541" lon="6.31154">
        <ele>1035.1</ele>
        <time>2022-01-06T07:50:36Z</time>
      </trkpt>
      <trkpt lat="45.8454" lon="6.31155">
        <ele>1035.1</ele>
        <time>2022-01-06T07:50:37Z</time>
      </trkpt>
      <trkpt lat="45.84539" lon="6.31156">
        <ele>1035.1</ele>
        <time>2022-01-06T07:50:38Z</time>
      </trkpt>
      <trkpt lat="45.84538" lon="6.31157">
        <ele>1035.1</ele>
        <time>2022-01-06T07:50:39Z</time>
      </trkpt>
      <trkpt lat="45.84537" lon="6.31157">
        <ele>1035.1</ele>
        <time>2022-01-06T07:50:40Z</time>
      </trkpt>
      <trkpt lat="45.84536" lon="6.31158">
        <ele>1036</ele>
        <time>2022-01-06T07:50:41Z</time>
      </trkpt>
      <trkpt lat="45.84536" lon="6.31158">
        <ele>1036</ele>
        <time>2022-01-06T07:50:42Z</time>
      </trkpt>
      <trkpt lat="45.84535" lon="6.31158">
        <ele>1036</ele>
        <time>2022-01-06T07:50:43Z</time>
      </trkpt>
      <trkpt lat="45.84534" lon="6.31159">
        <ele>1036</ele>
        <time>2022-01-06T07:50:44Z</time>
      </trkpt>
      <trkpt lat="45.84533" lon="6.3116">
        <ele>1037.1</ele>
        <time>2022-01-06T07:50:45Z</time>
      </trkpt>
      <trkpt lat="45.84532" lon="6.31161">
        <ele>1037.1</ele>
        <time>2022-01-06T07:50:46Z</time>
      </trkpt>
      <trkpt lat="45.8453" lon="6.31163">
        <ele>1037.1</ele>
        <time>2022-01-06T07:50:47Z</time>
      </trkpt>
      <trkpt lat="45.84529" lon="6.31164">
        <ele>1037.1</ele>
        <time>2022-01-06T07:50:48Z</time>
      </trkpt>
      <trkpt lat="45.84527" lon="6.31166">
        <ele>1037.1</ele>
        <time>2022-01-06T07:50:49Z</time>
      </trkpt>
      <trkpt lat="45.84525" lon="6.31167">
        <ele>1037.1</ele>
        <time>2022-01-06T07:50:50Z</time>
      </trkpt>
      <trkpt lat="45.84525" lon="6.31167">
        <ele>1037.1</ele>
        <time>2022-01-06T07:50:51Z</time>
      </trkpt>
      <trkpt lat="45.84523" lon="6.31168">
        <ele>1037.1</ele>
        <time>2022-01-06T07:50:52Z</time>
      </trkpt>
      <trkpt lat="45.84522" lon="6.3117">
        <ele>1038</ele>
        <time>2022-01-06T07:50:53Z</time>
      </trkpt>
      <trkpt lat="45.84521" lon="6.3117">
        <ele>1038</ele>
        <time>2022-01-06T07:50:54Z</time>
      </trkpt>
      <trkpt lat="45.8452" lon="6.3117">
        <ele>1038</ele>
        <time>2022-01-06T07:50:55Z</time>
      </trkpt>
      <trkpt lat="45.84519" lon="6.31169">
        <ele>1038</ele>
        <time>2022-01-06T07:50:56Z</time>
      </trkpt>
      <trkpt lat="45.84518" lon="6.31169">
        <ele>1038</ele>
        <time>2022-01-06T07:50:57Z</time>
      </trkpt>
      <trkpt lat="45.84517" lon="6.31168">
        <ele>1038</ele>
        <time>2022-01-06T07:50:58Z</time>
      </trkpt>
      <trkpt lat="45.84516" lon="6.31167">
        <ele>1038</ele>
        <time>2022-01-06T07:50:59Z</time>
      </trkpt>
      <trkpt lat="45.84515" lon="6.31167">
        <ele>1038</ele>
        <time>2022-01-06T07:51:00Z</time>
      </trkpt>
      <trkpt lat="45.84514" lon="6.31166">
        <ele>1039.1</ele>
        <time>2022-01-06T07:51:01Z</time>
      </trkpt>
      <trkpt lat="45.84513" lon="6.31165">
        <ele>1039.1</ele>
        <time>2022-01-06T07:51:02Z</time>
      </trkpt>
      <trkpt lat="45.84513" lon="6.31165">
        <ele>1039.1</ele>
        <time>2022-01-06T07:51:03Z</time>
      </trkpt>
      <trkpt lat="45.84512" lon="6.31164">
        <ele>1039.1</ele>
        <time>2022-01-06T07:51:04Z</time>
      </trkpt>
      <trkpt lat="45.84511" lon="6.31164">
        <ele>1039.1</ele>
        <time>2022-01-06T07:51:05Z</time>
      </trkpt>
      <trkpt lat="45.8451" lon="6.31164">
        <ele>1039.1</ele>
        <time>2022-01-06T07:51:06Z</time>
      </trkpt>
      <trkpt lat="45.84508" lon="6.31163">
        <ele>1039.1</ele>
        <time>2022-01-06T07:51:07Z</time>
      </trkpt>
      <trkpt lat="45.84507" lon="6.31162">
        <ele>1039.1</ele>
        <time>2022-01-06T07:51:08Z</time>
      </trkpt>
      <trkpt lat="45.84507" lon="6.31162">
        <ele>1039.1</ele>
        <time>2022-01-06T07:51:09Z</time>
      </trkpt>
      <trkpt lat="45.84505" lon="6.31162">
        <ele>1039.1</ele>
        <time>2022-01-06T07:51:10Z</time>
      </trkpt>
      <trkpt lat="45.84504" lon="6.31161">
        <ele>1039.1</ele>
        <time>2022-01-06T07:51:11Z</time>
      </trkpt>
      <trkpt lat="45.84503" lon="6.31161">
        <ele>1039.1</ele>
        <time>2022-01-06T07:51:12Z</time>
      </trkpt>
      <trkpt lat="45.84503" lon="6.3116">
        <ele>1040.1</ele>
        <time>2022-01-06T07:51:13Z</time>
      </trkpt>
      <trkpt lat="45.84502" lon="6.31159">
        <ele>1040.1</ele>
        <time>2022-01-06T07:51:14Z</time>
      </trkpt>
      <trkpt lat="45.84501" lon="6.31158">
        <ele>1040.1</ele>
        <time>2022-01-06T07:51:15Z</time>
      </trkpt>
      <trkpt lat="45.845" lon="6.31158">
        <ele>1040.1</ele>
        <time>2022-01-06T07:51:16Z</time>
      </trkpt>
      <trkpt lat="45.84499" lon="6.31157">
        <ele>1040.1</ele>
        <time>2022-01-06T07:51:17Z</time>
      </trkpt>
      <trkpt lat="45.84498" lon="6.31156">
        <ele>1040.1</ele>
        <time>2022-01-06T07:51:18Z</time>
      </trkpt>
      <trkpt lat="45.84497" lon="6.31155">
        <ele>1041.1</ele>
        <time>2022-01-06T07:51:19Z</time>
      </trkpt>
      <trkpt lat="45.84496" lon="6.31154">
        <ele>1041.1</ele>
        <time>2022-01-06T07:51:20Z</time>
      </trkpt>
      <trkpt lat="45.84495" lon="6.31153">
        <ele>1041.1</ele>
        <time>2022-01-06T07:51:21Z</time>
      </trkpt>
      <trkpt lat="45.84494" lon="6.31152">
        <ele>1041.1</ele>
        <time>2022-01-06T07:51:22Z</time>
      </trkpt>
      <trkpt lat="45.84494" lon="6.31151">
        <ele>1041.1</ele>
        <time>2022-01-06T07:51:23Z</time>
      </trkpt>
      <trkpt lat="45.84493" lon="6.31151">
        <ele>1041.1</ele>
        <time>2022-01-06T07:51:24Z</time>
      </trkpt>
      <trkpt lat="45.84492" lon="6.3115">
        <ele>1042.1</ele>
        <time>2022-01-06T07:51:25Z</time>
      </trkpt>
      <trkpt lat="45.84491" lon="6.31149">
        <ele>1042.1</ele>
        <time>2022-01-06T07:51:26Z</time>
      </trkpt>
      <trkpt lat="45.8449" lon="6.31148">
        <ele>1042.1</ele>
        <time>2022-01-06T07:51:27Z</time>
      </trkpt>
      <trkpt lat="45.8449" lon="6.31146">
        <ele>1042.1</ele>
        <time>2022-01-06T07:51:28Z</time>
      </trkpt>
      <trkpt lat="45.84489" lon="6.31145">
        <ele>1042.1</ele>
        <time>2022-01-06T07:51:29Z</time>
      </trkpt>
      <trkpt lat="45.84488" lon="6.31144">
        <ele>1042.1</ele>
        <time>2022-01-06T07:51:30Z</time>
      </trkpt>
      <trkpt lat="45.84488" lon="6.31143">
        <ele>1042.1</ele>
        <time>2022-01-06T07:51:31Z</time>
      </trkpt>
      <trkpt lat="45.84487" lon="6.31142">
        <ele>1042.1</ele>
        <time>2022-01-06T07:51:32Z</time>
      </trkpt>
      <trkpt lat="45.84487" lon="6.31141">
        <ele>1042.1</ele>
        <time>2022-01-06T07:51:33Z</time>
      </trkpt>
      <trkpt lat="45.84486" lon="6.3114">
        <ele>1042.1</ele>
        <time>2022-01-06T07:51:34Z</time>
      </trkpt>
      <trkpt lat="45.84485" lon="6.31139">
        <ele>1043</ele>
        <time>2022-01-06T07:51:35Z</time>
      </trkpt>
      <trkpt lat="45.84484" lon="6.31138">
        <ele>1043</ele>
        <time>2022-01-06T07:51:36Z</time>
      </trkpt>
      <trkpt lat="45.84484" lon="6.31138">
        <ele>1043</ele>
        <time>2022-01-06T07:51:37Z</time>
      </trkpt>
      <trkpt lat="45.84483" lon="6.31137">
        <ele>1043</ele>
        <time>2022-01-06T07:51:38Z</time>
      </trkpt>
      <trkpt lat="45.84482" lon="6.31136">
        <ele>1043</ele>
        <time>2022-01-06T07:51:39Z</time>
      </trkpt>
      <trkpt lat="45.84481" lon="6.31135">
        <ele>1043</ele>
        <time>2022-01-06T07:51:40Z</time>
      </trkpt>
      <trkpt lat="45.8448" lon="6.31134">
        <ele>1043</ele>
        <time>2022-01-06T07:51:41Z</time>
      </trkpt>
      <trkpt lat="45.84479" lon="6.31132">
        <ele>1043</ele>
        <time>2022-01-06T07:51:42Z</time>
      </trkpt>
      <trkpt lat="45.84478" lon="6.3113">
        <ele>1043</ele>
        <time>2022-01-06T07:51:43Z</time>
      </trkpt>
      <trkpt lat="45.84477" lon="6.31129">
        <ele>1043</ele>
        <time>2022-01-06T07:51:44Z</time>
      </trkpt>
      <trkpt lat="45.84476" lon="6.31128">
        <ele>1043</ele>
        <time>2022-01-06T07:51:45Z</time>
      </trkpt>
      <trkpt lat="45.84476" lon="6.31127">
        <ele>1043</ele>
        <time>2022-01-06T07:51:46Z</time>
      </trkpt>
      <trkpt lat="45.84474" lon="6.31126">
        <ele>1043</ele>
        <time>2022-01-06T07:51:47Z</time>
      </trkpt>
      <trkpt lat="45.84474" lon="6.31126">
        <ele>1043</ele>
        <time>2022-01-06T07:51:48Z</time>
      </trkpt>
      <trkpt lat="45.84473" lon="6.31125">
        <ele>1043</ele>
        <time>2022-01-06T07:51:49Z</time>
      </trkpt>
      <trkpt lat="45.84472" lon="6.31125">
        <ele>1043</ele>
        <time>2022-01-06T07:51:50Z</time>
      </trkpt>
      <trkpt lat="45.84471" lon="6.31125">
        <ele>1044.1</ele>
        <time>2022-01-06T07:51:51Z</time>
      </trkpt>
      <trkpt lat="45.8447" lon="6.31124">
        <ele>1044.1</ele>
        <time>2022-01-06T07:51:52Z</time>
      </trkpt>
      <trkpt lat="45.8447" lon="6.31123">
        <ele>1044.1</ele>
        <time>2022-01-06T07:51:53Z</time>
      </trkpt>
      <trkpt lat="45.84469" lon="6.31122">
        <ele>1044.1</ele>
        <time>2022-01-06T07:51:54Z</time>
      </trkpt>
      <trkpt lat="45.84468" lon="6.31121">
        <ele>1044.1</ele>
        <time>2022-01-06T07:51:55Z</time>
      </trkpt>
      <trkpt lat="45.84467" lon="6.3112">
        <ele>1044.1</ele>
        <time>2022-01-06T07:51:56Z</time>
      </trkpt>
      <trkpt lat="45.84467" lon="6.31119">
        <ele>1044.1</ele>
        <time>2022-01-06T07:51:57Z</time>
      </trkpt>
      <trkpt lat="45.84466" lon="6.31118">
        <ele>1044.1</ele>
        <time>2022-01-06T07:51:58Z</time>
      </trkpt>
      <trkpt lat="45.84465" lon="6.31117">
        <ele>1045</ele>
        <time>2022-01-06T07:51:59Z</time>
      </trkpt>
      <trkpt lat="45.84464" lon="6.31116">
        <ele>1045</ele>
        <time>2022-01-06T07:52:00Z</time>
      </trkpt>
      <trkpt lat="45.84463" lon="6.31115">
        <ele>1045</ele>
        <time>2022-01-06T07:52:01Z</time>
      </trkpt>
      <trkpt lat="45.84463" lon="6.31114">
        <ele>1045</ele>
        <time>2022-01-06T07:52:02Z</time>
      </trkpt>
      <trkpt lat="45.84462" lon="6.31113">
        <ele>1045</ele>
        <time>2022-01-06T07:52:03Z</time>
      </trkpt>
      <trkpt lat="45.84461" lon="6.31112">
        <ele>1045</ele>
        <time>2022-01-06T07:52:04Z</time>
      </trkpt>
      <trkpt lat="45.8446" lon="6.31111">
        <ele>1045</ele>
        <time>2022-01-06T07:52:05Z</time>
      </trkpt>
      <trkpt lat="45.8446" lon="6.3111">
        <ele>1045</ele>
        <time>2022-01-06T07:52:06Z</time>
      </trkpt>
      <trkpt lat="45.84459" lon="6.31108">
        <ele>1045</ele>
        <time>2022-01-06T07:52:07Z</time>
      </trkpt>
      <trkpt lat="45.84458" lon="6.31107">
        <ele>1045</ele>
        <time>2022-01-06T07:52:08Z</time>
      </trkpt>
      <trkpt lat="45.84457" lon="6.31107">
        <ele>1046.1</ele>
        <time>2022-01-06T07:52:09Z</time>
      </trkpt>
      <trkpt lat="45.84456" lon="6.31107">
        <ele>1046.1</ele>
        <time>2022-01-06T07:52:10Z</time>
      </trkpt>
      <trkpt lat="45.84455" lon="6.31106">
        <ele>1046.1</ele>
        <time>2022-01-06T07:52:11Z</time>
      </trkpt>
      <trkpt lat="45.84454" lon="6.31106">
        <ele>1046.1</ele>
        <time>2022-01-06T07:52:12Z</time>
      </trkpt>
      <trkpt lat="45.84454" lon="6.31105">
        <ele>1046.1</ele>
        <time>2022-01-06T07:52:13Z</time>
      </trkpt>
      <trkpt lat="45.84453" lon="6.31104">
        <ele>1046.1</ele>
        <time>2022-01-06T07:52:14Z</time>
      </trkpt>
      <trkpt lat="45.84452" lon="6.31104">
        <ele>1047.2</ele>
        <time>2022-01-06T07:52:15Z</time>
      </trkpt>
      <trkpt lat="45.84451" lon="6.31104">
        <ele>1047.2</ele>
        <time>2022-01-06T07:52:16Z</time>
      </trkpt>
      <trkpt lat="45.8445" lon="6.31104">
        <ele>1047.2</ele>
        <time>2022-01-06T07:52:17Z</time>
      </trkpt>
      <trkpt lat="45.84449" lon="6.31103">
        <ele>1047.2</ele>
        <time>2022-01-06T07:52:18Z</time>
      </trkpt>
      <trkpt lat="45.84448" lon="6.31103">
        <ele>1047.2</ele>
        <time>2022-01-06T07:52:19Z</time>
      </trkpt>
      <trkpt lat="45.84448" lon="6.31103">
        <ele>1047.2</ele>
        <time>2022-01-06T07:52:20Z</time>
      </trkpt>
      <trkpt lat="45.84446" lon="6.31103">
        <ele>1048.1</ele>
        <time>2022-01-06T07:52:21Z</time>
      </trkpt>
      <trkpt lat="45.84445" lon="6.31104">
        <ele>1048.1</ele>
        <time>2022-01-06T07:52:22Z</time>
      </trkpt>
      <trkpt lat="45.84444" lon="6.31104">
        <ele>1048.1</ele>
        <time>2022-01-06T07:52:23Z</time>
      </trkpt>
      <trkpt lat="45.84443" lon="6.31105">
        <ele>1048.1</ele>
        <time>2022-01-06T07:52:24Z</time>
      </trkpt>
      <trkpt lat="45.84442" lon="6.31104">
        <ele>1048.1</ele>
        <time>2022-01-06T07:52:25Z</time>
      </trkpt>
      <trkpt lat="45.84441" lon="6.31104">
        <ele>1048.1</ele>
        <time>2022-01-06T07:52:26Z</time>
      </trkpt>
      <trkpt lat="45.84439" lon="6.31104">
        <ele>1049.1</ele>
        <time>2022-01-06T07:52:27Z</time>
      </trkpt>
      <trkpt lat="45.84438" lon="6.31104">
        <ele>1049.1</ele>
        <time>2022-01-06T07:52:28Z</time>
      </trkpt>
      <trkpt lat="45.84437" lon="6.31105">
        <ele>1049.1</ele>
        <time>2022-01-06T07:52:29Z</time>
      </trkpt>
      <trkpt lat="45.84436" lon="6.31105">
        <ele>1049.1</ele>
        <time>2022-01-06T07:52:30Z</time>
      </trkpt>
      <trkpt lat="45.84435" lon="6.31106">
        <ele>1050</ele>
        <time>2022-01-06T07:52:31Z</time>
      </trkpt>
      <trkpt lat="45.84434" lon="6.31105">
        <ele>1050</ele>
        <time>2022-01-06T07:52:32Z</time>
      </trkpt>
      <trkpt lat="45.84433" lon="6.31105">
        <ele>1050</ele>
        <time>2022-01-06T07:52:33Z</time>
      </trkpt>
      <trkpt lat="45.84432" lon="6.31105">
        <ele>1050</ele>
        <time>2022-01-06T07:52:34Z</time>
      </trkpt>
      <trkpt lat="45.8443" lon="6.31104">
        <ele>1050</ele>
        <time>2022-01-06T07:52:35Z</time>
      </trkpt>
      <trkpt lat="45.84429" lon="6.31105">
        <ele>1050</ele>
        <time>2022-01-06T07:52:36Z</time>
      </trkpt>
      <trkpt lat="45.84428" lon="6.31105">
        <ele>1051.1</ele>
        <time>2022-01-06T07:52:37Z</time>
      </trkpt>
      <trkpt lat="45.84427" lon="6.31105">
        <ele>1051.1</ele>
        <time>2022-01-06T07:52:38Z</time>
      </trkpt>
      <trkpt lat="45.84426" lon="6.31105">
        <ele>1051.1</ele>
        <time>2022-01-06T07:52:39Z</time>
      </trkpt>
      <trkpt lat="45.84426" lon="6.31105">
        <ele>1051.1</ele>
        <time>2022-01-06T07:52:40Z</time>
      </trkpt>
      <trkpt lat="45.84425" lon="6.31105">
        <ele>1051.1</ele>
        <time>2022-01-06T07:52:41Z</time>
      </trkpt>
      <trkpt lat="45.84424" lon="6.31105">
        <ele>1051.1</ele>
        <time>2022-01-06T07:52:42Z</time>
      </trkpt>
      <trkpt lat="45.84423" lon="6.31105">
        <ele>1051.1</ele>
        <time>2022-01-06T07:52:43Z</time>
      </trkpt>
      <trkpt lat="45.84422" lon="6.31104">
        <ele>1051.1</ele>
        <time>2022-01-06T07:52:44Z</time>
      </trkpt>
      <trkpt lat="45.84421" lon="6.31103">
        <ele>1051.1</ele>
        <time>2022-01-06T07:52:45Z</time>
      </trkpt>
      <trkpt lat="45.8442" lon="6.31102">
        <ele>1051.1</ele>
        <time>2022-01-06T07:52:46Z</time>
      </trkpt>
      <trkpt lat="45.84419" lon="6.31101">
        <ele>1052</ele>
        <time>2022-01-06T07:52:47Z</time>
      </trkpt>
      <trkpt lat="45.84417" lon="6.31101">
        <ele>1052</ele>
        <time>2022-01-06T07:52:48Z</time>
      </trkpt>
      <trkpt lat="45.84416" lon="6.31101">
        <ele>1052</ele>
        <time>2022-01-06T07:52:49Z</time>
      </trkpt>
      <trkpt lat="45.84415" lon="6.31101">
        <ele>1052</ele>
        <time>2022-01-06T07:52:50Z</time>
      </trkpt>
      <trkpt lat="45.84413" lon="6.31101">
        <ele>1052</ele>
        <time>2022-01-06T07:52:51Z</time>
      </trkpt>
      <trkpt lat="45.84413" lon="6.31101">
        <ele>1052</ele>
        <time>2022-01-06T07:52:52Z</time>
      </trkpt>
      <trkpt lat="45.84412" lon="6.31102">
        <ele>1053.1</ele>
        <time>2022-01-06T07:52:53Z</time>
      </trkpt>
      <trkpt lat="45.84412" lon="6.31102">
        <ele>1053.1</ele>
        <time>2022-01-06T07:52:54Z</time>
      </trkpt>
      <trkpt lat="45.84411" lon="6.31102">
        <ele>1053.1</ele>
        <time>2022-01-06T07:52:55Z</time>
      </trkpt>
      <trkpt lat="45.8441" lon="6.31102">
        <ele>1053.1</ele>
        <time>2022-01-06T07:52:56Z</time>
      </trkpt>
      <trkpt lat="45.84409" lon="6.31102">
        <ele>1053.1</ele>
        <time>2022-01-06T07:52:57Z</time>
      </trkpt>
      <trkpt lat="45.84408" lon="6.31102">
        <ele>1053.1</ele>
        <time>2022-01-06T07:52:58Z</time>
      </trkpt>
      <trkpt lat="45.84406" lon="6.31102">
        <ele>1054</ele>
        <time>2022-01-06T07:52:59Z</time>
      </trkpt>
      <trkpt lat="45.84406" lon="6.31103">
        <ele>1054</ele>
        <time>2022-01-06T07:53:00Z</time>
      </trkpt>
      <trkpt lat="45.84405" lon="6.31103">
        <ele>1054</ele>
        <time>2022-01-06T07:53:01Z</time>
      </trkpt>
      <trkpt lat="45.84404" lon="6.31104">
        <ele>1054</ele>
        <time>2022-01-06T07:53:02Z</time>
      </trkpt>
      <trkpt lat="45.84402" lon="6.31106">
        <ele>1054</ele>
        <time>2022-01-06T07:53:03Z</time>
      </trkpt>
      <trkpt lat="45.84401" lon="6.31107">
        <ele>1054</ele>
        <time>2022-01-06T07:53:04Z</time>
      </trkpt>
      <trkpt lat="45.844" lon="6.31107">
        <ele>1054</ele>
        <time>2022-01-06T07:53:05Z</time>
      </trkpt>
      <trkpt lat="45.84399" lon="6.31109">
        <ele>1054</ele>
        <time>2022-01-06T07:53:06Z</time>
      </trkpt>
      <trkpt lat="45.84398" lon="6.3111">
        <ele>1055.1</ele>
        <time>2022-01-06T07:53:07Z</time>
      </trkpt>
      <trkpt lat="45.84397" lon="6.3111">
        <ele>1055.1</ele>
        <time>2022-01-06T07:53:08Z</time>
      </trkpt>
      <trkpt lat="45.84397" lon="6.31109">
        <ele>1055.1</ele>
        <time>2022-01-06T07:53:09Z</time>
      </trkpt>
      <trkpt lat="45.84397" lon="6.31109">
        <ele>1055.1</ele>
        <time>2022-01-06T07:53:10Z</time>
      </trkpt>
      <trkpt lat="45.84397" lon="6.31109">
        <ele>1056.1</ele>
        <time>2022-01-06T07:53:11Z</time>
      </trkpt>
      <trkpt lat="45.84397" lon="6.31109">
        <ele>1056.1</ele>
        <time>2022-01-06T07:53:12Z</time>
      </trkpt>
      <trkpt lat="45.84397" lon="6.3111">
        <ele>1056.1</ele>
        <time>2022-01-06T07:53:13Z</time>
      </trkpt>
      <trkpt lat="45.84396" lon="6.31111">
        <ele>1056.1</ele>
        <time>2022-01-06T07:53:14Z</time>
      </trkpt>
      <trkpt lat="45.84396" lon="6.31111">
        <ele>1056.1</ele>
        <time>2022-01-06T07:53:15Z</time>
      </trkpt>
      <trkpt lat="45.84395" lon="6.31112">
        <ele>1056.1</ele>
        <time>2022-01-06T07:53:16Z</time>
      </trkpt>
      <trkpt lat="45.84394" lon="6.31112">
        <ele>1057.1</ele>
        <time>2022-01-06T07:53:17Z</time>
      </trkpt>
      <trkpt lat="45.84393" lon="6.31113">
        <ele>1057.1</ele>
        <time>2022-01-06T07:53:18Z</time>
      </trkpt>
      <trkpt lat="45.84393" lon="6.31114">
        <ele>1057.1</ele>
        <time>2022-01-06T07:53:19Z</time>
      </trkpt>
      <trkpt lat="45.84392" lon="6.31114">
        <ele>1057.1</ele>
        <time>2022-01-06T07:53:20Z</time>
      </trkpt>
      <trkpt lat="45.84391" lon="6.31115">
        <ele>1057.1</ele>
        <time>2022-01-06T07:53:21Z</time>
      </trkpt>
      <trkpt lat="45.8439" lon="6.31116">
        <ele>1057.1</ele>
        <time>2022-01-06T07:53:22Z</time>
      </trkpt>
      <trkpt lat="45.84389" lon="6.31118">
        <ele>1058.1</ele>
        <time>2022-01-06T07:53:23Z</time>
      </trkpt>
      <trkpt lat="45.84388" lon="6.31119">
        <ele>1058.1</ele>
        <time>2022-01-06T07:53:24Z</time>
      </trkpt>
      <trkpt lat="45.84389" lon="6.3112">
        <ele>1058.1</ele>
        <time>2022-01-06T07:53:25Z</time>
      </trkpt>
      <trkpt lat="45.84388" lon="6.31121">
        <ele>1058.1</ele>
        <time>2022-01-06T07:53:26Z</time>
      </trkpt>
      <trkpt lat="45.84387" lon="6.31122">
        <ele>1059</ele>
        <time>2022-01-06T07:53:27Z</time>
      </trkpt>
      <trkpt lat="45.84387" lon="6.31123">
        <ele>1059</ele>
        <time>2022-01-06T07:53:28Z</time>
      </trkpt>
      <trkpt lat="45.84386" lon="6.31123">
        <ele>1059</ele>
        <time>2022-01-06T07:53:29Z</time>
      </trkpt>
      <trkpt lat="45.84386" lon="6.31124">
        <ele>1059</ele>
        <time>2022-01-06T07:53:30Z</time>
      </trkpt>
      <trkpt lat="45.84385" lon="6.31124">
        <ele>1059</ele>
        <time>2022-01-06T07:53:31Z</time>
      </trkpt>
      <trkpt lat="45.84385" lon="6.31124">
        <ele>1059</ele>
        <time>2022-01-06T07:53:32Z</time>
      </trkpt>
      <trkpt lat="45.84385" lon="6.31125">
        <ele>1060.1</ele>
        <time>2022-01-06T07:53:33Z</time>
      </trkpt>
      <trkpt lat="45.84384" lon="6.31125">
        <ele>1060.1</ele>
        <time>2022-01-06T07:53:34Z</time>
      </trkpt>
      <trkpt lat="45.84383" lon="6.31126">
        <ele>1060.1</ele>
        <time>2022-01-06T07:53:35Z</time>
      </trkpt>
      <trkpt lat="45.84382" lon="6.31128">
        <ele>1060.1</ele>
        <time>2022-01-06T07:53:36Z</time>
      </trkpt>
      <trkpt lat="45.84381" lon="6.31129">
        <ele>1060.1</ele>
        <time>2022-01-06T07:53:37Z</time>
      </trkpt>
      <trkpt lat="45.8438" lon="6.31129">
        <ele>1060.1</ele>
        <time>2022-01-06T07:53:38Z</time>
      </trkpt>
      <trkpt lat="45.84379" lon="6.3113">
        <ele>1061</ele>
        <time>2022-01-06T07:53:39Z</time>
      </trkpt>
      <trkpt lat="45.84378" lon="6.31131">
        <ele>1061</ele>
        <time>2022-01-06T07:53:40Z</time>
      </trkpt>
      <trkpt lat="45.84377" lon="6.31132">
        <ele>1061</ele>
        <time>2022-01-06T07:53:41Z</time>
      </trkpt>
      <trkpt lat="45.84376" lon="6.31132">
        <ele>1061</ele>
        <time>2022-01-06T07:53:42Z</time>
      </trkpt>
      <trkpt lat="45.84374" lon="6.31133">
        <ele>1061</ele>
        <time>2022-01-06T07:53:43Z</time>
      </trkpt>
      <trkpt lat="45.84372" lon="6.31133">
        <ele>1061</ele>
        <time>2022-01-06T07:53:44Z</time>
      </trkpt>
      <trkpt lat="45.8437" lon="6.31134">
        <ele>1062.1</ele>
        <time>2022-01-06T07:53:45Z</time>
      </trkpt>
      <trkpt lat="45.84369" lon="6.31134">
        <ele>1062.1</ele>
        <time>2022-01-06T07:53:46Z</time>
      </trkpt>
      <trkpt lat="45.84367" lon="6.31135">
        <ele>1062.1</ele>
        <time>2022-01-06T07:53:47Z</time>
      </trkpt>
      <trkpt lat="45.84366" lon="6.31135">
        <ele>1062.1</ele>
        <time>2022-01-06T07:53:48Z</time>
      </trkpt>
      <trkpt lat="45.84364" lon="6.31135">
        <ele>1063.2</ele>
        <time>2022-01-06T07:53:49Z</time>
      </trkpt>
      <trkpt lat="45.84363" lon="6.31135">
        <ele>1063.2</ele>
        <time>2022-01-06T07:53:50Z</time>
      </trkpt>
      <trkpt lat="45.84362" lon="6.31134">
        <ele>1063.2</ele>
        <time>2022-01-06T07:53:51Z</time>
      </trkpt>
      <trkpt lat="45.84361" lon="6.31134">
        <ele>1063.2</ele>
        <time>2022-01-06T07:53:52Z</time>
      </trkpt>
      <trkpt lat="45.8436" lon="6.31132">
        <ele>1063.2</ele>
        <time>2022-01-06T07:53:53Z</time>
      </trkpt>
      <trkpt lat="45.8436" lon="6.31131">
        <ele>1063.2</ele>
        <time>2022-01-06T07:53:54Z</time>
      </trkpt>
      <trkpt lat="45.84359" lon="6.3113">
        <ele>1064.1</ele>
        <time>2022-01-06T07:53:55Z</time>
      </trkpt>
      <trkpt lat="45.84358" lon="6.31128">
        <ele>1064.1</ele>
        <time>2022-01-06T07:53:56Z</time>
      </trkpt>
      <trkpt lat="45.84357" lon="6.31127">
        <ele>1064.1</ele>
        <time>2022-01-06T07:53:57Z</time>
      </trkpt>
      <trkpt lat="45.84356" lon="6.31126">
        <ele>1064.1</ele>
        <time>2022-01-06T07:53:58Z</time>
      </trkpt>
      <trkpt lat="45.84356" lon="6.31124">
        <ele>1064.1</ele>
        <time>2022-01-06T07:53:59Z</time>
      </trkpt>
      <trkpt lat="45.84355" lon="6.31123">
        <ele>1064.1</ele>
        <time>2022-01-06T07:54:00Z</time>
      </trkpt>
      <trkpt lat="45.84355" lon="6.3112">
        <ele>1065.1</ele>
        <time>2022-01-06T07:54:01Z</time>
      </trkpt>
      <trkpt lat="45.84354" lon="6.31119">
        <ele>1065.1</ele>
        <time>2022-01-06T07:54:02Z</time>
      </trkpt>
      <trkpt lat="45.84353" lon="6.31117">
        <ele>1065.1</ele>
        <time>2022-01-06T07:54:03Z</time>
      </trkpt>
      <trkpt lat="45.84353" lon="6.31116">
        <ele>1065.1</ele>
        <time>2022-01-06T07:54:04Z</time>
      </trkpt>
      <trkpt lat="45.84352" lon="6.31115">
        <ele>1066.1</ele>
        <time>2022-01-06T07:54:05Z</time>
      </trkpt>
      <trkpt lat="45.84351" lon="6.31114">
        <ele>1066.1</ele>
        <time>2022-01-06T07:54:06Z</time>
      </trkpt>
      <trkpt lat="45.84351" lon="6.31113">
        <ele>1066.1</ele>
        <time>2022-01-06T07:54:07Z</time>
      </trkpt>
      <trkpt lat="45.84351" lon="6.31112">
        <ele>1066.1</ele>
        <time>2022-01-06T07:54:08Z</time>
      </trkpt>
      <trkpt lat="45.8435" lon="6.31111">
        <ele>1066.1</ele>
        <time>2022-01-06T07:54:09Z</time>
      </trkpt>
      <trkpt lat="45.84349" lon="6.31109">
        <ele>1066.1</ele>
        <time>2022-01-06T07:54:10Z</time>
      </trkpt>
      <trkpt lat="45.84349" lon="6.31108">
        <ele>1066.1</ele>
        <time>2022-01-06T07:54:11Z</time>
      </trkpt>
      <trkpt lat="45.84349" lon="6.31106">
        <ele>1066.1</ele>
        <time>2022-01-06T07:54:12Z</time>
      </trkpt>
      <trkpt lat="45.84348" lon="6.31105">
        <ele>1066.1</ele>
        <time>2022-01-06T07:54:13Z</time>
      </trkpt>
      <trkpt lat="45.84348" lon="6.31103">
        <ele>1066.1</ele>
        <time>2022-01-06T07:54:14Z</time>
      </trkpt>
      <trkpt lat="45.84348" lon="6.311">
        <ele>1066.1</ele>
        <time>2022-01-06T07:54:15Z</time>
      </trkpt>
      <trkpt lat="45.84347" lon="6.31098">
        <ele>1066.1</ele>
        <time>2022-01-06T07:54:16Z</time>
      </trkpt>
      <trkpt lat="45.84346" lon="6.31097">
        <ele>1067.1</ele>
        <time>2022-01-06T07:54:17Z</time>
      </trkpt>
      <trkpt lat="45.84345" lon="6.31096">
        <ele>1067.1</ele>
        <time>2022-01-06T07:54:18Z</time>
      </trkpt>
      <trkpt lat="45.84345" lon="6.31095">
        <ele>1067.1</ele>
        <time>2022-01-06T07:54:19Z</time>
      </trkpt>
      <trkpt lat="45.84344" lon="6.31094">
        <ele>1067.1</ele>
        <time>2022-01-06T07:54:20Z</time>
      </trkpt>
      <trkpt lat="45.84343" lon="6.31093">
        <ele>1067.1</ele>
        <time>2022-01-06T07:54:21Z</time>
      </trkpt>
      <trkpt lat="45.84343" lon="6.31091">
        <ele>1067.1</ele>
        <time>2022-01-06T07:54:22Z</time>
      </trkpt>
      <trkpt lat="45.84343" lon="6.3109">
        <ele>1067.1</ele>
        <time>2022-01-06T07:54:23Z</time>
      </trkpt>
      <trkpt lat="45.84342" lon="6.31089">
        <ele>1067.1</ele>
        <time>2022-01-06T07:54:24Z</time>
      </trkpt>
      <trkpt lat="45.84341" lon="6.31089">
        <ele>1067.1</ele>
        <time>2022-01-06T07:54:25Z</time>
      </trkpt>
      <trkpt lat="45.8434" lon="6.31088">
        <ele>1067.1</ele>
        <time>2022-01-06T07:54:26Z</time>
      </trkpt>
      <trkpt lat="45.8434" lon="6.31087">
        <ele>1067.1</ele>
        <time>2022-01-06T07:54:27Z</time>
      </trkpt>
      <trkpt lat="45.8434" lon="6.31085">
        <ele>1067.1</ele>
        <time>2022-01-06T07:54:28Z</time>
      </trkpt>
      <trkpt lat="45.84339" lon="6.31084">
        <ele>1068</ele>
        <time>2022-01-06T07:54:29Z</time>
      </trkpt>
      <trkpt lat="45.84339" lon="6.31082">
        <ele>1068</ele>
        <time>2022-01-06T07:54:30Z</time>
      </trkpt>
      <trkpt lat="45.84338" lon="6.31081">
        <ele>1068</ele>
        <time>2022-01-06T07:54:31Z</time>
      </trkpt>
      <trkpt lat="45.84337" lon="6.3108">
        <ele>1068</ele>
        <time>2022-01-06T07:54:32Z</time>
      </trkpt>
      <trkpt lat="45.84337" lon="6.31079">
        <ele>1068</ele>
        <time>2022-01-06T07:54:33Z</time>
      </trkpt>
      <trkpt lat="45.84336" lon="6.31078">
        <ele>1068</ele>
        <time>2022-01-06T07:54:34Z</time>
      </trkpt>
      <trkpt lat="45.84335" lon="6.31077">
        <ele>1068</ele>
        <time>2022-01-06T07:54:35Z</time>
      </trkpt>
      <trkpt lat="45.84335" lon="6.31076">
        <ele>1068</ele>
        <time>2022-01-06T07:54:36Z</time>
      </trkpt>
      <trkpt lat="45.84335" lon="6.31076">
        <ele>1069.1</ele>
        <time>2022-01-06T07:54:37Z</time>
      </trkpt>
      <trkpt lat="45.84334" lon="6.31075">
        <ele>1069.1</ele>
        <time>2022-01-06T07:54:38Z</time>
      </trkpt>
      <trkpt lat="45.84333" lon="6.31074">
        <ele>1069.1</ele>
        <time>2022-01-06T07:54:39Z</time>
      </trkpt>
      <trkpt lat="45.84333" lon="6.31073">
        <ele>1069.1</ele>
        <time>2022-01-06T07:54:40Z</time>
      </trkpt>
      <trkpt lat="45.84333" lon="6.31072">
        <ele>1069.1</ele>
        <time>2022-01-06T07:54:41Z</time>
      </trkpt>
      <trkpt lat="45.84332" lon="6.31071">
        <ele>1069.1</ele>
        <time>2022-01-06T07:54:42Z</time>
      </trkpt>
      <trkpt lat="45.84332" lon="6.3107">
        <ele>1069.1</ele>
        <time>2022-01-06T07:54:43Z</time>
      </trkpt>
      <trkpt lat="45.84331" lon="6.3107">
        <ele>1069.1</ele>
        <time>2022-01-06T07:54:44Z</time>
      </trkpt>
      <trkpt lat="45.8433" lon="6.31069">
        <ele>1070</ele>
        <time>2022-01-06T07:54:45Z</time>
      </trkpt>
      <trkpt lat="45.84329" lon="6.31068">
        <ele>1070</ele>
        <time>2022-01-06T07:54:46Z</time>
      </trkpt>
      <trkpt lat="45.84328" lon="6.31068">
        <ele>1070</ele>
        <time>2022-01-06T07:54:47Z</time>
      </trkpt>
      <trkpt lat="45.84328" lon="6.31067">
        <ele>1070</ele>
        <time>2022-01-06T07:54:48Z</time>
      </trkpt>
      <trkpt lat="45.84327" lon="6.31066">
        <ele>1071.1</ele>
        <time>2022-01-06T07:54:49Z</time>
      </trkpt>
      <trkpt lat="45.84327" lon="6.31065">
        <ele>1071.1</ele>
        <time>2022-01-06T07:54:50Z</time>
      </trkpt>
      <trkpt lat="45.84326" lon="6.31064">
        <ele>1071.1</ele>
        <time>2022-01-06T07:54:51Z</time>
      </trkpt>
      <trkpt lat="45.84326" lon="6.31063">
        <ele>1071.1</ele>
        <time>2022-01-06T07:54:52Z</time>
      </trkpt>
      <trkpt lat="45.84325" lon="6.31062">
        <ele>1072.1</ele>
        <time>2022-01-06T07:54:53Z</time>
      </trkpt>
      <trkpt lat="45.84324" lon="6.31061">
        <ele>1072.1</ele>
        <time>2022-01-06T07:54:54Z</time>
      </trkpt>
      <trkpt lat="45.84323" lon="6.3106">
        <ele>1072.1</ele>
        <time>2022-01-06T07:54:55Z</time>
      </trkpt>
      <trkpt lat="45.84322" lon="6.31059">
        <ele>1072.1</ele>
        <time>2022-01-06T07:54:56Z</time>
      </trkpt>
      <trkpt lat="45.84321" lon="6.31057">
        <ele>1072.1</ele>
        <time>2022-01-06T07:54:57Z</time>
      </trkpt>
      <trkpt lat="45.84321" lon="6.31056">
        <ele>1072.1</ele>
        <time>2022-01-06T07:54:58Z</time>
      </trkpt>
      <trkpt lat="45.8432" lon="6.31055">
        <ele>1073.1</ele>
        <time>2022-01-06T07:54:59Z</time>
      </trkpt>
      <trkpt lat="45.84319" lon="6.31053">
        <ele>1073.1</ele>
        <time>2022-01-06T07:55:00Z</time>
      </trkpt>
      <trkpt lat="45.84319" lon="6.31051">
        <ele>1073.1</ele>
        <time>2022-01-06T07:55:01Z</time>
      </trkpt>
      <trkpt lat="45.84318" lon="6.3105">
        <ele>1073.1</ele>
        <time>2022-01-06T07:55:02Z</time>
      </trkpt>
      <trkpt lat="45.84318" lon="6.31049">
        <ele>1073.1</ele>
        <time>2022-01-06T07:55:03Z</time>
      </trkpt>
      <trkpt lat="45.84317" lon="6.31048">
        <ele>1073.1</ele>
        <time>2022-01-06T07:55:04Z</time>
      </trkpt>
      <trkpt lat="45.84317" lon="6.31047">
        <ele>1074.1</ele>
        <time>2022-01-06T07:55:05Z</time>
      </trkpt>
      <trkpt lat="45.84316" lon="6.31046">
        <ele>1074.1</ele>
        <time>2022-01-06T07:55:06Z</time>
      </trkpt>
      <trkpt lat="45.84316" lon="6.31045">
        <ele>1074.1</ele>
        <time>2022-01-06T07:55:07Z</time>
      </trkpt>
      <trkpt lat="45.84315" lon="6.31044">
        <ele>1074.1</ele>
        <time>2022-01-06T07:55:08Z</time>
      </trkpt>
      <trkpt lat="45.84314" lon="6.31043">
        <ele>1075</ele>
        <time>2022-01-06T07:55:09Z</time>
      </trkpt>
      <trkpt lat="45.84313" lon="6.31043">
        <ele>1075</ele>
        <time>2022-01-06T07:55:10Z</time>
      </trkpt>
      <trkpt lat="45.84312" lon="6.31041">
        <ele>1075</ele>
        <time>2022-01-06T07:55:11Z</time>
      </trkpt>
      <trkpt lat="45.84312" lon="6.3104">
        <ele>1075</ele>
        <time>2022-01-06T07:55:12Z</time>
      </trkpt>
      <trkpt lat="45.84312" lon="6.31038">
        <ele>1075</ele>
        <time>2022-01-06T07:55:13Z</time>
      </trkpt>
      <trkpt lat="45.84312" lon="6.31035">
        <ele>1075</ele>
        <time>2022-01-06T07:55:14Z</time>
      </trkpt>
      <trkpt lat="45.84312" lon="6.31032">
        <ele>1075</ele>
        <time>2022-01-06T07:55:15Z</time>
      </trkpt>
      <trkpt lat="45.84312" lon="6.3103">
        <ele>1075</ele>
        <time>2022-01-06T07:55:16Z</time>
      </trkpt>
      <trkpt lat="45.84311" lon="6.31029">
        <ele>1075</ele>
        <time>2022-01-06T07:55:17Z</time>
      </trkpt>
      <trkpt lat="45.84311" lon="6.31026">
        <ele>1075</ele>
        <time>2022-01-06T07:55:18Z</time>
      </trkpt>
      <trkpt lat="45.84311" lon="6.31024">
        <ele>1076.1</ele>
        <time>2022-01-06T07:55:19Z</time>
      </trkpt>
      <trkpt lat="45.84311" lon="6.31021">
        <ele>1076.1</ele>
        <time>2022-01-06T07:55:20Z</time>
      </trkpt>
      <trkpt lat="45.84311" lon="6.31019">
        <ele>1076.1</ele>
        <time>2022-01-06T07:55:21Z</time>
      </trkpt>
      <trkpt lat="45.84311" lon="6.31017">
        <ele>1076.1</ele>
        <time>2022-01-06T07:55:22Z</time>
      </trkpt>
      <trkpt lat="45.84311" lon="6.31015">
        <ele>1077</ele>
        <time>2022-01-06T07:55:23Z</time>
      </trkpt>
      <trkpt lat="45.84311" lon="6.31013">
        <ele>1077</ele>
        <time>2022-01-06T07:55:24Z</time>
      </trkpt>
      <trkpt lat="45.8431" lon="6.31011">
        <ele>1077</ele>
        <time>2022-01-06T07:55:25Z</time>
      </trkpt>
      <trkpt lat="45.8431" lon="6.31009">
        <ele>1077</ele>
        <time>2022-01-06T07:55:26Z</time>
      </trkpt>
      <trkpt lat="45.84311" lon="6.31007">
        <ele>1078.1</ele>
        <time>2022-01-06T07:55:27Z</time>
      </trkpt>
      <trkpt lat="45.84311" lon="6.31006">
        <ele>1078.1</ele>
        <time>2022-01-06T07:55:28Z</time>
      </trkpt>
      <trkpt lat="45.84311" lon="6.31005">
        <ele>1078.1</ele>
        <time>2022-01-06T07:55:29Z</time>
      </trkpt>
      <trkpt lat="45.84312" lon="6.31003">
        <ele>1078.1</ele>
        <time>2022-01-06T07:55:30Z</time>
      </trkpt>
      <trkpt lat="45.84313" lon="6.31001">
        <ele>1078.1</ele>
        <time>2022-01-06T07:55:31Z</time>
      </trkpt>
      <trkpt lat="45.84313" lon="6.31">
        <ele>1078.1</ele>
        <time>2022-01-06T07:55:32Z</time>
      </trkpt>
      <trkpt lat="45.84314" lon="6.30998">
        <ele>1078.1</ele>
        <time>2022-01-06T07:55:33Z</time>
      </trkpt>
      <trkpt lat="45.84314" lon="6.30997">
        <ele>1078.1</ele>
        <time>2022-01-06T07:55:34Z</time>
      </trkpt>
      <trkpt lat="45.84314" lon="6.30996">
        <ele>1078.1</ele>
        <time>2022-01-06T07:55:35Z</time>
      </trkpt>
      <trkpt lat="45.84315" lon="6.30995">
        <ele>1078.1</ele>
        <time>2022-01-06T07:55:36Z</time>
      </trkpt>
      <trkpt lat="45.84317" lon="6.30995">
        <ele>1078.1</ele>
        <time>2022-01-06T07:55:37Z</time>
      </trkpt>
      <trkpt lat="45.84318" lon="6.30995">
        <ele>1078.1</ele>
        <time>2022-01-06T07:55:38Z</time>
      </trkpt>
      <trkpt lat="45.84319" lon="6.30994">
        <ele>1078.1</ele>
        <time>2022-01-06T07:55:39Z</time>
      </trkpt>
      <trkpt lat="45.8432" lon="6.30994">
        <ele>1078.1</ele>
        <time>2022-01-06T07:55:40Z</time>
      </trkpt>
      <trkpt lat="45.84321" lon="6.30993">
        <ele>1080.1</ele>
        <time>2022-01-06T07:55:41Z</time>
      </trkpt>
      <trkpt lat="45.84322" lon="6.30992">
        <ele>1080.1</ele>
        <time>2022-01-06T07:55:42Z</time>
      </trkpt>
      <trkpt lat="45.84322" lon="6.30992">
        <ele>1081.1</ele>
        <time>2022-01-06T07:55:43Z</time>
      </trkpt>
      <trkpt lat="45.84323" lon="6.30991">
        <ele>1081.1</ele>
        <time>2022-01-06T07:55:44Z</time>
      </trkpt>
      <trkpt lat="45.84324" lon="6.3099">
        <ele>1081.1</ele>
        <time>2022-01-06T07:55:45Z</time>
      </trkpt>
      <trkpt lat="45.84325" lon="6.30988">
        <ele>1081.1</ele>
        <time>2022-01-06T07:55:46Z</time>
      </trkpt>
      <trkpt lat="45.84326" lon="6.30987">
        <ele>1082.1</ele>
        <time>2022-01-06T07:55:47Z</time>
      </trkpt>
      <trkpt lat="45.84327" lon="6.30986">
        <ele>1082.1</ele>
        <time>2022-01-06T07:55:48Z</time>
      </trkpt>
      <trkpt lat="45.84328" lon="6.30984">
        <ele>1082.1</ele>
        <time>2022-01-06T07:55:49Z</time>
      </trkpt>
      <trkpt lat="45.84328" lon="6.30983">
        <ele>1082.1</ele>
        <time>2022-01-06T07:55:50Z</time>
      </trkpt>
      <trkpt lat="45.84328" lon="6.30982">
        <ele>1082.1</ele>
        <time>2022-01-06T07:55:51Z</time>
      </trkpt>
      <trkpt lat="45.84329" lon="6.30981">
        <ele>1082.1</ele>
        <time>2022-01-06T07:55:52Z</time>
      </trkpt>
      <trkpt lat="45.8433" lon="6.3098">
        <ele>1082.1</ele>
        <time>2022-01-06T07:55:53Z</time>
      </trkpt>
      <trkpt lat="45.84331" lon="6.30979">
        <ele>1082.1</ele>
        <time>2022-01-06T07:55:54Z</time>
      </trkpt>
      <trkpt lat="45.84332" lon="6.30978">
        <ele>1082.1</ele>
        <time>2022-01-06T07:55:55Z</time>
      </trkpt>
      <trkpt lat="45.84333" lon="6.30977">
        <ele>1082.1</ele>
        <time>2022-01-06T07:55:56Z</time>
      </trkpt>
      <trkpt lat="45.84333" lon="6.30976">
        <ele>1082.1</ele>
        <time>2022-01-06T07:55:57Z</time>
      </trkpt>
      <trkpt lat="45.84334" lon="6.30975">
        <ele>1082.1</ele>
        <time>2022-01-06T07:55:58Z</time>
      </trkpt>
      <trkpt lat="45.84335" lon="6.30974">
        <ele>1083.1</ele>
        <time>2022-01-06T07:55:59Z</time>
      </trkpt>
      <trkpt lat="45.84335" lon="6.30973">
        <ele>1083.1</ele>
        <time>2022-01-06T07:56:00Z</time>
      </trkpt>
      <trkpt lat="45.84335" lon="6.30972">
        <ele>1083.1</ele>
        <time>2022-01-06T07:56:01Z</time>
      </trkpt>
      <trkpt lat="45.84336" lon="6.30971">
        <ele>1083.1</ele>
        <time>2022-01-06T07:56:02Z</time>
      </trkpt>
      <trkpt lat="45.84336" lon="6.30968">
        <ele>1083.1</ele>
        <time>2022-01-06T07:56:03Z</time>
      </trkpt>
      <trkpt lat="45.84336" lon="6.30966">
        <ele>1083.1</ele>
        <time>2022-01-06T07:56:04Z</time>
      </trkpt>
      <trkpt lat="45.84336" lon="6.30965">
        <ele>1084</ele>
        <time>2022-01-06T07:56:05Z</time>
      </trkpt>
      <trkpt lat="45.84337" lon="6.30963">
        <ele>1084</ele>
        <time>2022-01-06T07:56:06Z</time>
      </trkpt>
      <trkpt lat="45.84337" lon="6.30962">
        <ele>1084</ele>
        <time>2022-01-06T07:56:07Z</time>
      </trkpt>
      <trkpt lat="45.84337" lon="6.3096">
        <ele>1084</ele>
        <time>2022-01-06T07:56:08Z</time>
      </trkpt>
      <trkpt lat="45.84336" lon="6.30958">
        <ele>1085.1</ele>
        <time>2022-01-06T07:56:09Z</time>
      </trkpt>
      <trkpt lat="45.84336" lon="6.30957">
        <ele>1085.1</ele>
        <time>2022-01-06T07:56:10Z</time>
      </trkpt>
      <trkpt lat="45.84336" lon="6.30957">
        <ele>1085.1</ele>
        <time>2022-01-06T07:56:11Z</time>
      </trkpt>
      <trkpt lat="45.84335" lon="6.30956">
        <ele>1085.1</ele>
        <time>2022-01-06T07:56:12Z</time>
      </trkpt>
      <trkpt lat="45.84335" lon="6.30955">
        <ele>1085.1</ele>
        <time>2022-01-06T07:56:13Z</time>
      </trkpt>
      <trkpt lat="45.84334" lon="6.30954">
        <ele>1085.1</ele>
        <time>2022-01-06T07:56:14Z</time>
      </trkpt>
      <trkpt lat="45.84335" lon="6.30954">
        <ele>1085.1</ele>
        <time>2022-01-06T07:56:15Z</time>
      </trkpt>
      <trkpt lat="45.84334" lon="6.30953">
        <ele>1085.1</ele>
        <time>2022-01-06T07:56:16Z</time>
      </trkpt>
      <trkpt lat="45.84334" lon="6.30953">
        <ele>1085.1</ele>
        <time>2022-01-06T07:56:17Z</time>
      </trkpt>
      <trkpt lat="45.84333" lon="6.30953">
        <ele>1085.1</ele>
        <time>2022-01-06T07:56:18Z</time>
      </trkpt>
      <trkpt lat="45.84333" lon="6.30953">
        <ele>1085.1</ele>
        <time>2022-01-06T07:56:19Z</time>
      </trkpt>
      <trkpt lat="45.84333" lon="6.30952">
        <ele>1085.1</ele>
        <time>2022-01-06T07:56:20Z</time>
      </trkpt>
      <trkpt lat="45.84333" lon="6.30951">
        <ele>1088.1</ele>
        <time>2022-01-06T07:56:21Z</time>
      </trkpt>
      <trkpt lat="45.84333" lon="6.3095">
        <ele>1088.1</ele>
        <time>2022-01-06T07:56:22Z</time>
      </trkpt>
      <trkpt lat="45.84333" lon="6.30949">
        <ele>1088.1</ele>
        <time>2022-01-06T07:56:23Z</time>
      </trkpt>
      <trkpt lat="45.84333" lon="6.30949">
        <ele>1088.1</ele>
        <time>2022-01-06T07:56:24Z</time>
      </trkpt>
      <trkpt lat="45.84333" lon="6.30948">
        <ele>1089.1</ele>
        <time>2022-01-06T07:56:25Z</time>
      </trkpt>
      <trkpt lat="45.84332" lon="6.30947">
        <ele>1089.1</ele>
        <time>2022-01-06T07:56:26Z</time>
      </trkpt>
      <trkpt lat="45.84332" lon="6.30947">
        <ele>1089.1</ele>
        <time>2022-01-06T07:56:27Z</time>
      </trkpt>
      <trkpt lat="45.84332" lon="6.30946">
        <ele>1089.1</ele>
        <time>2022-01-06T07:56:28Z</time>
      </trkpt>
      <trkpt lat="45.84331" lon="6.30946">
        <ele>1090.1</ele>
        <time>2022-01-06T07:56:29Z</time>
      </trkpt>
      <trkpt lat="45.8433" lon="6.30946">
        <ele>1090.1</ele>
        <time>2022-01-06T07:56:30Z</time>
      </trkpt>
      <trkpt lat="45.8433" lon="6.30945">
        <ele>1090.1</ele>
        <time>2022-01-06T07:56:31Z</time>
      </trkpt>
      <trkpt lat="45.84329" lon="6.30945">
        <ele>1090.1</ele>
        <time>2022-01-06T07:56:32Z</time>
      </trkpt>
      <trkpt lat="45.84328" lon="6.30945">
        <ele>1090.1</ele>
        <time>2022-01-06T07:56:33Z</time>
      </trkpt>
      <trkpt lat="45.84327" lon="6.30945">
        <ele>1090.1</ele>
        <time>2022-01-06T07:56:34Z</time>
      </trkpt>
      <trkpt lat="45.84326" lon="6.30944">
        <ele>1091</ele>
        <time>2022-01-06T07:56:35Z</time>
      </trkpt>
      <trkpt lat="45.84326" lon="6.30943">
        <ele>1091</ele>
        <time>2022-01-06T07:56:36Z</time>
      </trkpt>
      <trkpt lat="45.84326" lon="6.30942">
        <ele>1091</ele>
        <time>2022-01-06T07:56:37Z</time>
      </trkpt>
      <trkpt lat="45.84326" lon="6.30941">
        <ele>1091</ele>
        <time>2022-01-06T07:56:38Z</time>
      </trkpt>
      <trkpt lat="45.84326" lon="6.3094">
        <ele>1092.1</ele>
        <time>2022-01-06T07:56:39Z</time>
      </trkpt>
      <trkpt lat="45.84325" lon="6.3094">
        <ele>1092.1</ele>
        <time>2022-01-06T07:56:40Z</time>
      </trkpt>
      <trkpt lat="45.84325" lon="6.3094">
        <ele>1092.1</ele>
        <time>2022-01-06T07:56:41Z</time>
      </trkpt>
      <trkpt lat="45.84324" lon="6.30939">
        <ele>1092.1</ele>
        <time>2022-01-06T07:56:42Z</time>
      </trkpt>
      <trkpt lat="45.84323" lon="6.3094">
        <ele>1093</ele>
        <time>2022-01-06T07:56:43Z</time>
      </trkpt>
      <trkpt lat="45.84321" lon="6.3094">
        <ele>1093</ele>
        <time>2022-01-06T07:56:44Z</time>
      </trkpt>
      <trkpt lat="45.84321" lon="6.3094">
        <ele>1093</ele>
        <time>2022-01-06T07:56:45Z</time>
      </trkpt>
      <trkpt lat="45.84321" lon="6.3094">
        <ele>1093</ele>
        <time>2022-01-06T07:56:46Z</time>
      </trkpt>
      <trkpt lat="45.84319" lon="6.3094">
        <ele>1093</ele>
        <time>2022-01-06T07:56:47Z</time>
      </trkpt>
      <trkpt lat="45.84318" lon="6.3094">
        <ele>1093</ele>
        <time>2022-01-06T07:56:48Z</time>
      </trkpt>
      <trkpt lat="45.84317" lon="6.30939">
        <ele>1093</ele>
        <time>2022-01-06T07:56:49Z</time>
      </trkpt>
      <trkpt lat="45.84316" lon="6.30938">
        <ele>1093</ele>
        <time>2022-01-06T07:56:50Z</time>
      </trkpt>
      <trkpt lat="45.84316" lon="6.30937">
        <ele>1095</ele>
        <time>2022-01-06T07:56:51Z</time>
      </trkpt>
      <trkpt lat="45.84316" lon="6.30936">
        <ele>1095</ele>
        <time>2022-01-06T07:56:52Z</time>
      </trkpt>
      <trkpt lat="45.84315" lon="6.30935">
        <ele>1095</ele>
        <time>2022-01-06T07:56:53Z</time>
      </trkpt>
      <trkpt lat="45.84315" lon="6.30935">
        <ele>1095</ele>
        <time>2022-01-06T07:56:54Z</time>
      </trkpt>
      <trkpt lat="45.84315" lon="6.30934">
        <ele>1097.1</ele>
        <time>2022-01-06T07:56:55Z</time>
      </trkpt>
      <trkpt lat="45.84314" lon="6.30934">
        <ele>1097.1</ele>
        <time>2022-01-06T07:56:56Z</time>
      </trkpt>
      <trkpt lat="45.84313" lon="6.30934">
        <ele>1097.1</ele>
        <time>2022-01-06T07:56:57Z</time>
      </trkpt>
      <trkpt lat="45.84311" lon="6.30934">
        <ele>1097.1</ele>
        <time>2022-01-06T07:56:58Z</time>
      </trkpt>
      <trkpt lat="45.84311" lon="6.30933">
        <ele>1098.1</ele>
        <time>2022-01-06T07:56:59Z</time>
      </trkpt>
      <trkpt lat="45.8431" lon="6.30932">
        <ele>1098.1</ele>
        <time>2022-01-06T07:57:00Z</time>
      </trkpt>
      <trkpt lat="45.8431" lon="6.30929">
        <ele>1098.1</ele>
        <time>2022-01-06T07:57:01Z</time>
      </trkpt>
      <trkpt lat="45.8431" lon="6.30928">
        <ele>1098.1</ele>
        <time>2022-01-06T07:57:02Z</time>
      </trkpt>
      <trkpt lat="45.84311" lon="6.30926">
        <ele>1099.1</ele>
        <time>2022-01-06T07:57:03Z</time>
      </trkpt>
      <trkpt lat="45.84311" lon="6.30925">
        <ele>1099.1</ele>
        <time>2022-01-06T07:57:04Z</time>
      </trkpt>
      <trkpt lat="45.84311" lon="6.30925">
        <ele>1100</ele>
        <time>2022-01-06T07:57:05Z</time>
      </trkpt>
      <trkpt lat="45.84311" lon="6.30924">
        <ele>1100</ele>
        <time>2022-01-06T07:57:06Z</time>
      </trkpt>
      <trkpt lat="45.8431" lon="6.30924">
        <ele>1100</ele>
        <time>2022-01-06T07:57:07Z</time>
      </trkpt>
      <trkpt lat="45.8431" lon="6.30923">
        <ele>1100</ele>
        <time>2022-01-06T07:57:08Z</time>
      </trkpt>
      <trkpt lat="45.8431" lon="6.30923">
        <ele>1100</ele>
        <time>2022-01-06T07:57:09Z</time>
      </trkpt>
      <trkpt lat="45.84309" lon="6.30923">
        <ele>1100</ele>
        <time>2022-01-06T07:57:10Z</time>
      </trkpt>
      <trkpt lat="45.84309" lon="6.30922">
        <ele>1100</ele>
        <time>2022-01-06T07:57:11Z</time>
      </trkpt>
      <trkpt lat="45.84308" lon="6.30922">
        <ele>1100</ele>
        <time>2022-01-06T07:57:12Z</time>
      </trkpt>
      <trkpt lat="45.84307" lon="6.30922">
        <ele>1101.1</ele>
        <time>2022-01-06T07:57:13Z</time>
      </trkpt>
      <trkpt lat="45.84306" lon="6.30922">
        <ele>1101.1</ele>
        <time>2022-01-06T07:57:14Z</time>
      </trkpt>
      <trkpt lat="45.84306" lon="6.30921">
        <ele>1102</ele>
        <time>2022-01-06T07:57:15Z</time>
      </trkpt>
      <trkpt lat="45.84305" lon="6.30921">
        <ele>1102</ele>
        <time>2022-01-06T07:57:16Z</time>
      </trkpt>
      <trkpt lat="45.84305" lon="6.3092">
        <ele>1102</ele>
        <time>2022-01-06T07:57:17Z</time>
      </trkpt>
      <trkpt lat="45.84304" lon="6.30919">
        <ele>1102</ele>
        <time>2022-01-06T07:57:18Z</time>
      </trkpt>
      <trkpt lat="45.84303" lon="6.30918">
        <ele>1103.1</ele>
        <time>2022-01-06T07:57:19Z</time>
      </trkpt>
      <trkpt lat="45.84301" lon="6.30918">
        <ele>1103.1</ele>
        <time>2022-01-06T07:57:20Z</time>
      </trkpt>
      <trkpt lat="45.84301" lon="6.30918">
        <ele>1103.1</ele>
        <time>2022-01-06T07:57:21Z</time>
      </trkpt>
      <trkpt lat="45.843" lon="6.30917">
        <ele>1103.1</ele>
        <time>2022-01-06T07:57:22Z</time>
      </trkpt>
      <trkpt lat="45.84299" lon="6.30917">
        <ele>1104.2</ele>
        <time>2022-01-06T07:57:23Z</time>
      </trkpt>
      <trkpt lat="45.84298" lon="6.30918">
        <ele>1104.2</ele>
        <time>2022-01-06T07:57:24Z</time>
      </trkpt>
      <trkpt lat="45.84298" lon="6.30918">
        <ele>1104.2</ele>
        <time>2022-01-06T07:57:25Z</time>
      </trkpt>
      <trkpt lat="45.84296" lon="6.30918">
        <ele>1104.2</ele>
        <time>2022-01-06T07:57:26Z</time>
      </trkpt>
      <trkpt lat="45.84295" lon="6.30917">
        <ele>1105.1</ele>
        <time>2022-01-06T07:57:27Z</time>
      </trkpt>
      <trkpt lat="45.84295" lon="6.30916">
        <ele>1105.1</ele>
        <time>2022-01-06T07:57:28Z</time>
      </trkpt>
      <trkpt lat="45.84294" lon="6.30916">
        <ele>1105.1</ele>
        <time>2022-01-06T07:57:29Z</time>
      </trkpt>
      <trkpt lat="45.84293" lon="6.30916">
        <ele>1105.1</ele>
        <time>2022-01-06T07:57:30Z</time>
      </trkpt>
      <trkpt lat="45.84292" lon="6.30916">
        <ele>1106.1</ele>
        <time>2022-01-06T07:57:31Z</time>
      </trkpt>
      <trkpt lat="45.84291" lon="6.30917">
        <ele>1106.1</ele>
        <time>2022-01-06T07:57:32Z</time>
      </trkpt>
      <trkpt lat="45.8429" lon="6.30917">
        <ele>1106.1</ele>
        <time>2022-01-06T07:57:33Z</time>
      </trkpt>
      <trkpt lat="45.84289" lon="6.30917">
        <ele>1106.1</ele>
        <time>2022-01-06T07:57:34Z</time>
      </trkpt>
      <trkpt lat="45.84289" lon="6.30917">
        <ele>1107</ele>
        <time>2022-01-06T07:57:35Z</time>
      </trkpt>
      <trkpt lat="45.84288" lon="6.30917">
        <ele>1107</ele>
        <time>2022-01-06T07:57:36Z</time>
      </trkpt>
      <trkpt lat="45.84287" lon="6.30917">
        <ele>1107</ele>
        <time>2022-01-06T07:57:37Z</time>
      </trkpt>
      <trkpt lat="45.84286" lon="6.30917">
        <ele>1107</ele>
        <time>2022-01-06T07:57:38Z</time>
      </trkpt>
      <trkpt lat="45.84286" lon="6.30917">
        <ele>1107</ele>
        <time>2022-01-06T07:57:39Z</time>
      </trkpt>
      <trkpt lat="45.84286" lon="6.30916">
        <ele>1107</ele>
        <time>2022-01-06T07:57:40Z</time>
      </trkpt>
      <trkpt lat="45.84286" lon="6.30916">
        <ele>1108.1</ele>
        <time>2022-01-06T07:57:41Z</time>
      </trkpt>
      <trkpt lat="45.84285" lon="6.30916">
        <ele>1108.1</ele>
        <time>2022-01-06T07:57:42Z</time>
      </trkpt>
      <trkpt lat="45.84285" lon="6.30915">
        <ele>1108.1</ele>
        <time>2022-01-06T07:57:43Z</time>
      </trkpt>
      <trkpt lat="45.84284" lon="6.30916">
        <ele>1108.1</ele>
        <time>2022-01-06T07:57:44Z</time>
      </trkpt>
      <trkpt lat="45.84283" lon="6.30916">
        <ele>1109</ele>
        <time>2022-01-06T07:57:45Z</time>
      </trkpt>
      <trkpt lat="45.84282" lon="6.30915">
        <ele>1109</ele>
        <time>2022-01-06T07:57:46Z</time>
      </trkpt>
      <trkpt lat="45.84281" lon="6.30915">
        <ele>1109</ele>
        <time>2022-01-06T07:57:47Z</time>
      </trkpt>
      <trkpt lat="45.8428" lon="6.30915">
        <ele>1109</ele>
        <time>2022-01-06T07:57:48Z</time>
      </trkpt>
      <trkpt lat="45.84279" lon="6.30914">
        <ele>1109</ele>
        <time>2022-01-06T07:57:49Z</time>
      </trkpt>
      <trkpt lat="45.84278" lon="6.30914">
        <ele>1109</ele>
        <time>2022-01-06T07:57:50Z</time>
      </trkpt>
      <trkpt lat="45.84277" lon="6.30914">
        <ele>1109</ele>
        <time>2022-01-06T07:57:51Z</time>
      </trkpt>
      <trkpt lat="45.84276" lon="6.30913">
        <ele>1109</ele>
        <time>2022-01-06T07:57:52Z</time>
      </trkpt>
      <trkpt lat="45.84276" lon="6.30913">
        <ele>1111</ele>
        <time>2022-01-06T07:57:53Z</time>
      </trkpt>
      <trkpt lat="45.84275" lon="6.30913">
        <ele>1111</ele>
        <time>2022-01-06T07:57:54Z</time>
      </trkpt>
      <trkpt lat="45.84275" lon="6.30913">
        <ele>1112.1</ele>
        <time>2022-01-06T07:57:55Z</time>
      </trkpt>
      <trkpt lat="45.84274" lon="6.30912">
        <ele>1112.1</ele>
        <time>2022-01-06T07:57:56Z</time>
      </trkpt>
      <trkpt lat="45.84273" lon="6.30912">
        <ele>1113.1</ele>
        <time>2022-01-06T07:57:57Z</time>
      </trkpt>
      <trkpt lat="45.84272" lon="6.30912">
        <ele>1113.1</ele>
        <time>2022-01-06T07:57:58Z</time>
      </trkpt>
      <trkpt lat="45.84271" lon="6.30912">
        <ele>1113.1</ele>
        <time>2022-01-06T07:57:59Z</time>
      </trkpt>
      <trkpt lat="45.8427" lon="6.30912">
        <ele>1113.1</ele>
        <time>2022-01-06T07:58:00Z</time>
      </trkpt>
      <trkpt lat="45.8427" lon="6.30911">
        <ele>1114.1</ele>
        <time>2022-01-06T07:58:01Z</time>
      </trkpt>
      <trkpt lat="45.84269" lon="6.30911">
        <ele>1114.1</ele>
        <time>2022-01-06T07:58:02Z</time>
      </trkpt>
      <trkpt lat="45.84268" lon="6.30911">
        <ele>1114.1</ele>
        <time>2022-01-06T07:58:03Z</time>
      </trkpt>
      <trkpt lat="45.84268" lon="6.3091">
        <ele>1114.1</ele>
        <time>2022-01-06T07:58:04Z</time>
      </trkpt>
      <trkpt lat="45.84267" lon="6.3091">
        <ele>1115.1</ele>
        <time>2022-01-06T07:58:05Z</time>
      </trkpt>
      <trkpt lat="45.84266" lon="6.30908">
        <ele>1115.1</ele>
        <time>2022-01-06T07:58:06Z</time>
      </trkpt>
      <trkpt lat="45.84266" lon="6.30907">
        <ele>1116</ele>
        <time>2022-01-06T07:58:07Z</time>
      </trkpt>
      <trkpt lat="45.84265" lon="6.30906">
        <ele>1116</ele>
        <time>2022-01-06T07:58:08Z</time>
      </trkpt>
      <trkpt lat="45.84265" lon="6.30904">
        <ele>1116</ele>
        <time>2022-01-06T07:58:09Z</time>
      </trkpt>
      <trkpt lat="45.84264" lon="6.30902">
        <ele>1116</ele>
        <time>2022-01-06T07:58:10Z</time>
      </trkpt>
      <trkpt lat="45.84263" lon="6.30901">
        <ele>1117.1</ele>
        <time>2022-01-06T07:58:11Z</time>
      </trkpt>
      <trkpt lat="45.84263" lon="6.309">
        <ele>1117.1</ele>
        <time>2022-01-06T07:58:12Z</time>
      </trkpt>
      <trkpt lat="45.84263" lon="6.30899">
        <ele>1117.1</ele>
        <time>2022-01-06T07:58:13Z</time>
      </trkpt>
      <trkpt lat="45.84262" lon="6.30899">
        <ele>1117.1</ele>
        <time>2022-01-06T07:58:14Z</time>
      </trkpt>
      <trkpt lat="45.84261" lon="6.309">
        <ele>1117.1</ele>
        <time>2022-01-06T07:58:15Z</time>
      </trkpt>
      <trkpt lat="45.8426" lon="6.30899">
        <ele>1117.1</ele>
        <time>2022-01-06T07:58:16Z</time>
      </trkpt>
      <trkpt lat="45.8426" lon="6.30899">
        <ele>1117.1</ele>
        <time>2022-01-06T07:58:17Z</time>
      </trkpt>
      <trkpt lat="45.84259" lon="6.30899">
        <ele>1117.1</ele>
        <time>2022-01-06T07:58:18Z</time>
      </trkpt>
      <trkpt lat="45.84259" lon="6.30899">
        <ele>1120.2</ele>
        <time>2022-01-06T07:58:19Z</time>
      </trkpt>
      <trkpt lat="45.84259" lon="6.30898">
        <ele>1120.2</ele>
        <time>2022-01-06T07:58:20Z</time>
      </trkpt>
      <trkpt lat="45.84259" lon="6.30898">
        <ele>1120.2</ele>
        <time>2022-01-06T07:58:21Z</time>
      </trkpt>
      <trkpt lat="45.84258" lon="6.30897">
        <ele>1120.2</ele>
        <time>2022-01-06T07:58:22Z</time>
      </trkpt>
      <trkpt lat="45.84257" lon="6.30897">
        <ele>1121.1</ele>
        <time>2022-01-06T07:58:23Z</time>
      </trkpt>
      <trkpt lat="45.84256" lon="6.30896">
        <ele>1121.1</ele>
        <time>2022-01-06T07:58:24Z</time>
      </trkpt>
      <trkpt lat="45.84255" lon="6.30895">
        <ele>1122.1</ele>
        <time>2022-01-06T07:58:25Z</time>
      </trkpt>
      <trkpt lat="45.84255" lon="6.30893">
        <ele>1122.1</ele>
        <time>2022-01-06T07:58:26Z</time>
      </trkpt>
      <trkpt lat="45.84255" lon="6.30891">
        <ele>1122.1</ele>
        <time>2022-01-06T07:58:27Z</time>
      </trkpt>
      <trkpt lat="45.84254" lon="6.30891">
        <ele>1122.1</ele>
        <time>2022-01-06T07:58:28Z</time>
      </trkpt>
      <trkpt lat="45.84253" lon="6.30891">
        <ele>1123</ele>
        <time>2022-01-06T07:58:29Z</time>
      </trkpt>
      <trkpt lat="45.84252" lon="6.30891">
        <ele>1123</ele>
        <time>2022-01-06T07:58:30Z</time>
      </trkpt>
      <trkpt lat="45.84251" lon="6.30891">
        <ele>1123</ele>
        <time>2022-01-06T07:58:31Z</time>
      </trkpt>
      <trkpt lat="45.84249" lon="6.3089">
        <ele>1123</ele>
        <time>2022-01-06T07:58:32Z</time>
      </trkpt>
      <trkpt lat="45.84247" lon="6.30889">
        <ele>1123</ele>
        <time>2022-01-06T07:58:33Z</time>
      </trkpt>
      <trkpt lat="45.84246" lon="6.30889">
        <ele>1123</ele>
        <time>2022-01-06T07:58:34Z</time>
      </trkpt>
      <trkpt lat="45.84245" lon="6.30889">
        <ele>1124.1</ele>
        <time>2022-01-06T07:58:35Z</time>
      </trkpt>
      <trkpt lat="45.84245" lon="6.30888">
        <ele>1124.1</ele>
        <time>2022-01-06T07:58:36Z</time>
      </trkpt>
      <trkpt lat="45.84244" lon="6.30888">
        <ele>1125</ele>
        <time>2022-01-06T07:58:37Z</time>
      </trkpt>
      <trkpt lat="45.84244" lon="6.30888">
        <ele>1125</ele>
        <time>2022-01-06T07:58:38Z</time>
      </trkpt>
      <trkpt lat="45.84243" lon="6.30887">
        <ele>1125</ele>
        <time>2022-01-06T07:58:39Z</time>
      </trkpt>
      <trkpt lat="45.84243" lon="6.30887">
        <ele>1125</ele>
        <time>2022-01-06T07:58:40Z</time>
      </trkpt>
      <trkpt lat="45.84242" lon="6.30887">
        <ele>1126.1</ele>
        <time>2022-01-06T07:58:41Z</time>
      </trkpt>
      <trkpt lat="45.84241" lon="6.30886">
        <ele>1126.1</ele>
        <time>2022-01-06T07:58:42Z</time>
      </trkpt>
      <trkpt lat="45.8424" lon="6.30886">
        <ele>1127</ele>
        <time>2022-01-06T07:58:43Z</time>
      </trkpt>
      <trkpt lat="45.84239" lon="6.30885">
        <ele>1127</ele>
        <time>2022-01-06T07:58:44Z</time>
      </trkpt>
      <trkpt lat="45.84238" lon="6.30885">
        <ele>1128.1</ele>
        <time>2022-01-06T07:58:45Z</time>
      </trkpt>
      <trkpt lat="45.84238" lon="6.30885">
        <ele>1128.1</ele>
        <time>2022-01-06T07:58:46Z</time>
      </trkpt>
      <trkpt lat="45.84237" lon="6.30885">
        <ele>1128.1</ele>
        <time>2022-01-06T07:58:47Z</time>
      </trkpt>
      <trkpt lat="45.84236" lon="6.30885">
        <ele>1128.1</ele>
        <time>2022-01-06T07:58:48Z</time>
      </trkpt>
      <trkpt lat="45.84236" lon="6.30885">
        <ele>1129.1</ele>
        <time>2022-01-06T07:58:49Z</time>
      </trkpt>
      <trkpt lat="45.84235" lon="6.30884">
        <ele>1129.1</ele>
        <time>2022-01-06T07:58:50Z</time>
      </trkpt>
      <trkpt lat="45.84234" lon="6.30884">
        <ele>1129.1</ele>
        <time>2022-01-06T07:58:51Z</time>
      </trkpt>
      <trkpt lat="45.84233" lon="6.30884">
        <ele>1129.1</ele>
        <time>2022-01-06T07:58:52Z</time>
      </trkpt>
      <trkpt lat="45.84233" lon="6.30884">
        <ele>1130.1</ele>
        <time>2022-01-06T07:58:53Z</time>
      </trkpt>
      <trkpt lat="45.84232" lon="6.30883">
        <ele>1130.1</ele>
        <time>2022-01-06T07:58:54Z</time>
      </trkpt>
      <trkpt lat="45.84232" lon="6.30882">
        <ele>1130.1</ele>
        <time>2022-01-06T07:58:55Z</time>
      </trkpt>
      <trkpt lat="45.84231" lon="6.30882">
        <ele>1130.1</ele>
        <time>2022-01-06T07:58:56Z</time>
      </trkpt>
      <trkpt lat="45.84231" lon="6.30882">
        <ele>1131.1</ele>
        <time>2022-01-06T07:58:57Z</time>
      </trkpt>
      <trkpt lat="45.8423" lon="6.30882">
        <ele>1131.1</ele>
        <time>2022-01-06T07:58:58Z</time>
      </trkpt>
      <trkpt lat="45.84229" lon="6.30882">
        <ele>1131.1</ele>
        <time>2022-01-06T07:58:59Z</time>
      </trkpt>
      <trkpt lat="45.84228" lon="6.30882">
        <ele>1131.1</ele>
        <time>2022-01-06T07:59:00Z</time>
      </trkpt>
      <trkpt lat="45.84227" lon="6.30882">
        <ele>1132</ele>
        <time>2022-01-06T07:59:01Z</time>
      </trkpt>
      <trkpt lat="45.84227" lon="6.30883">
        <ele>1132</ele>
        <time>2022-01-06T07:59:02Z</time>
      </trkpt>
      <trkpt lat="45.84226" lon="6.30882">
        <ele>1132</ele>
        <time>2022-01-06T07:59:03Z</time>
      </trkpt>
      <trkpt lat="45.84225" lon="6.30882">
        <ele>1132</ele>
        <time>2022-01-06T07:59:04Z</time>
      </trkpt>
      <trkpt lat="45.84225" lon="6.30881">
        <ele>1132</ele>
        <time>2022-01-06T07:59:05Z</time>
      </trkpt>
      <trkpt lat="45.84225" lon="6.3088">
        <ele>1132</ele>
        <time>2022-01-06T07:59:06Z</time>
      </trkpt>
      <trkpt lat="45.84225" lon="6.30879">
        <ele>1132</ele>
        <time>2022-01-06T07:59:07Z</time>
      </trkpt>
      <trkpt lat="45.84224" lon="6.30878">
        <ele>1132</ele>
        <time>2022-01-06T07:59:08Z</time>
      </trkpt>
      <trkpt lat="45.84224" lon="6.30877">
        <ele>1134</ele>
        <time>2022-01-06T07:59:09Z</time>
      </trkpt>
      <trkpt lat="45.84223" lon="6.30876">
        <ele>1134</ele>
        <time>2022-01-06T07:59:10Z</time>
      </trkpt>
      <trkpt lat="45.84222" lon="6.30875">
        <ele>1135.1</ele>
        <time>2022-01-06T07:59:11Z</time>
      </trkpt>
      <trkpt lat="45.84221" lon="6.30875">
        <ele>1135.1</ele>
        <time>2022-01-06T07:59:12Z</time>
      </trkpt>
      <trkpt lat="45.8422" lon="6.30874">
        <ele>1135.1</ele>
        <time>2022-01-06T07:59:13Z</time>
      </trkpt>
      <trkpt lat="45.84219" lon="6.30873">
        <ele>1135.1</ele>
        <time>2022-01-06T07:59:14Z</time>
      </trkpt>
      <trkpt lat="45.84219" lon="6.30873">
        <ele>1136.2</ele>
        <time>2022-01-06T07:59:15Z</time>
      </trkpt>
      <trkpt lat="45.84218" lon="6.30873">
        <ele>1136.2</ele>
        <time>2022-01-06T07:59:16Z</time>
      </trkpt>
      <trkpt lat="45.84218" lon="6.30872">
        <ele>1136.2</ele>
        <time>2022-01-06T07:59:17Z</time>
      </trkpt>
      <trkpt lat="45.84217" lon="6.30872">
        <ele>1136.2</ele>
        <time>2022-01-06T07:59:18Z</time>
      </trkpt>
      <trkpt lat="45.84217" lon="6.30872">
        <ele>1137.1</ele>
        <time>2022-01-06T07:59:19Z</time>
      </trkpt>
      <trkpt lat="45.84216" lon="6.30872">
        <ele>1137.1</ele>
        <time>2022-01-06T07:59:20Z</time>
      </trkpt>
      <trkpt lat="45.84215" lon="6.30872">
        <ele>1137.1</ele>
        <time>2022-01-06T07:59:21Z</time>
      </trkpt>
      <trkpt lat="45.84214" lon="6.30872">
        <ele>1137.1</ele>
        <time>2022-01-06T07:59:22Z</time>
      </trkpt>
      <trkpt lat="45.84214" lon="6.30871">
        <ele>1137.1</ele>
        <time>2022-01-06T07:59:23Z</time>
      </trkpt>
      <trkpt lat="45.84213" lon="6.3087">
        <ele>1137.1</ele>
        <time>2022-01-06T07:59:24Z</time>
      </trkpt>
      <trkpt lat="45.84213" lon="6.30869">
        <ele>1138.1</ele>
        <time>2022-01-06T07:59:25Z</time>
      </trkpt>
      <trkpt lat="45.84212" lon="6.30868">
        <ele>1138.1</ele>
        <time>2022-01-06T07:59:26Z</time>
      </trkpt>
      <trkpt lat="45.84212" lon="6.30868">
        <ele>1139.1</ele>
        <time>2022-01-06T07:59:27Z</time>
      </trkpt>
      <trkpt lat="45.84211" lon="6.30869">
        <ele>1139.1</ele>
        <time>2022-01-06T07:59:28Z</time>
      </trkpt>
      <trkpt lat="45.8421" lon="6.30869">
        <ele>1139.1</ele>
        <time>2022-01-06T07:59:29Z</time>
      </trkpt>
      <trkpt lat="45.84209" lon="6.30869">
        <ele>1139.1</ele>
        <time>2022-01-06T07:59:30Z</time>
      </trkpt>
      <trkpt lat="45.84208" lon="6.30869">
        <ele>1139.1</ele>
        <time>2022-01-06T07:59:31Z</time>
      </trkpt>
      <trkpt lat="45.84207" lon="6.30869">
        <ele>1139.1</ele>
        <time>2022-01-06T07:59:32Z</time>
      </trkpt>
      <trkpt lat="45.84207" lon="6.30868">
        <ele>1140.1</ele>
        <time>2022-01-06T07:59:33Z</time>
      </trkpt>
      <trkpt lat="45.84206" lon="6.30867">
        <ele>1140.1</ele>
        <time>2022-01-06T07:59:34Z</time>
      </trkpt>
      <trkpt lat="45.84206" lon="6.30866">
        <ele>1140.1</ele>
        <time>2022-01-06T07:59:35Z</time>
      </trkpt>
      <trkpt lat="45.84205" lon="6.30866">
        <ele>1140.1</ele>
        <time>2022-01-06T07:59:36Z</time>
      </trkpt>
      <trkpt lat="45.84204" lon="6.30865">
        <ele>1140.1</ele>
        <time>2022-01-06T07:59:37Z</time>
      </trkpt>
      <trkpt lat="45.84203" lon="6.30864">
        <ele>1140.1</ele>
        <time>2022-01-06T07:59:38Z</time>
      </trkpt>
      <trkpt lat="45.84203" lon="6.30864">
        <ele>1141</ele>
        <time>2022-01-06T07:59:39Z</time>
      </trkpt>
      <trkpt lat="45.84202" lon="6.30863">
        <ele>1141</ele>
        <time>2022-01-06T07:59:40Z</time>
      </trkpt>
      <trkpt lat="45.84201" lon="6.30863">
        <ele>1141</ele>
        <time>2022-01-06T07:59:41Z</time>
      </trkpt>
      <trkpt lat="45.84201" lon="6.30863">
        <ele>1141</ele>
        <time>2022-01-06T07:59:42Z</time>
      </trkpt>
      <trkpt lat="45.842" lon="6.30863">
        <ele>1141</ele>
        <time>2022-01-06T07:59:43Z</time>
      </trkpt>
      <trkpt lat="45.842" lon="6.30862">
        <ele>1141</ele>
        <time>2022-01-06T07:59:44Z</time>
      </trkpt>
      <trkpt lat="45.84199" lon="6.30861">
        <ele>1142.1</ele>
        <time>2022-01-06T07:59:45Z</time>
      </trkpt>
      <trkpt lat="45.84198" lon="6.3086">
        <ele>1142.1</ele>
        <time>2022-01-06T07:59:46Z</time>
      </trkpt>
      <trkpt lat="45.84197" lon="6.30859">
        <ele>1142.1</ele>
        <time>2022-01-06T07:59:47Z</time>
      </trkpt>
      <trkpt lat="45.84197" lon="6.30857">
        <ele>1142.1</ele>
        <time>2022-01-06T07:59:48Z</time>
      </trkpt>
      <trkpt lat="45.84196" lon="6.30857">
        <ele>1143</ele>
        <time>2022-01-06T07:59:49Z</time>
      </trkpt>
      <trkpt lat="45.84195" lon="6.30857">
        <ele>1143</ele>
        <time>2022-01-06T07:59:50Z</time>
      </trkpt>
      <trkpt lat="45.84195" lon="6.30857">
        <ele>1143</ele>
        <time>2022-01-06T07:59:51Z</time>
      </trkpt>
      <trkpt lat="45.84194" lon="6.30857">
        <ele>1143</ele>
        <time>2022-01-06T07:59:52Z</time>
      </trkpt>
      <trkpt lat="45.84194" lon="6.30856">
        <ele>1144.1</ele>
        <time>2022-01-06T07:59:53Z</time>
      </trkpt>
      <trkpt lat="45.84194" lon="6.30856">
        <ele>1144.1</ele>
        <time>2022-01-06T07:59:54Z</time>
      </trkpt>
      <trkpt lat="45.84193" lon="6.30856">
        <ele>1144.1</ele>
        <time>2022-01-06T07:59:55Z</time>
      </trkpt>
      <trkpt lat="45.84192" lon="6.30856">
        <ele>1144.1</ele>
        <time>2022-01-06T07:59:56Z</time>
      </trkpt>
      <trkpt lat="45.84191" lon="6.30857">
        <ele>1145.1</ele>
        <time>2022-01-06T07:59:57Z</time>
      </trkpt>
      <trkpt lat="45.8419" lon="6.30857">
        <ele>1145.1</ele>
        <time>2022-01-06T07:59:58Z</time>
      </trkpt>
      <trkpt lat="45.84188" lon="6.30858">
        <ele>1145.1</ele>
        <time>2022-01-06T07:59:59Z</time>
      </trkpt>
      <trkpt lat="45.84187" lon="6.30858">
        <ele>1145.1</ele>
        <time>2022-01-06T08:00:00Z</time>
      </trkpt>
      <trkpt lat="45.84186" lon="6.30858">
        <ele>1146.1</ele>
        <time>2022-01-06T08:00:01Z</time>
      </trkpt>
      <trkpt lat="45.84186" lon="6.30857">
        <ele>1146.1</ele>
        <time>2022-01-06T08:00:02Z</time>
      </trkpt>
      <trkpt lat="45.84185" lon="6.30856">
        <ele>1147.1</ele>
        <time>2022-01-06T08:00:03Z</time>
      </trkpt>
      <trkpt lat="45.84185" lon="6.30856">
        <ele>1147.1</ele>
        <time>2022-01-06T08:00:04Z</time>
      </trkpt>
      <trkpt lat="45.84184" lon="6.30856">
        <ele>1147.1</ele>
        <time>2022-01-06T08:00:05Z</time>
      </trkpt>
      <trkpt lat="45.84184" lon="6.30855">
        <ele>1147.1</ele>
        <time>2022-01-06T08:00:06Z</time>
      </trkpt>
      <trkpt lat="45.84183" lon="6.30855">
        <ele>1148</ele>
        <time>2022-01-06T08:00:07Z</time>
      </trkpt>
      <trkpt lat="45.84183" lon="6.30854">
        <ele>1148</ele>
        <time>2022-01-06T08:00:08Z</time>
      </trkpt>
      <trkpt lat="45.84183" lon="6.30854">
        <ele>1148</ele>
        <time>2022-01-06T08:00:09Z</time>
      </trkpt>
      <trkpt lat="45.84182" lon="6.30853">
        <ele>1148</ele>
        <time>2022-01-06T08:00:10Z</time>
      </trkpt>
      <trkpt lat="45.84181" lon="6.30852">
        <ele>1149.1</ele>
        <time>2022-01-06T08:00:11Z</time>
      </trkpt>
      <trkpt lat="45.84181" lon="6.30851">
        <ele>1149.1</ele>
        <time>2022-01-06T08:00:12Z</time>
      </trkpt>
      <trkpt lat="45.8418" lon="6.30851">
        <ele>1149.1</ele>
        <time>2022-01-06T08:00:13Z</time>
      </trkpt>
      <trkpt lat="45.8418" lon="6.3085">
        <ele>1149.1</ele>
        <time>2022-01-06T08:00:14Z</time>
      </trkpt>
      <trkpt lat="45.84179" lon="6.3085">
        <ele>1150</ele>
        <time>2022-01-06T08:00:15Z</time>
      </trkpt>
      <trkpt lat="45.84178" lon="6.3085">
        <ele>1150</ele>
        <time>2022-01-06T08:00:16Z</time>
      </trkpt>
      <trkpt lat="45.84177" lon="6.3085">
        <ele>1150</ele>
        <time>2022-01-06T08:00:17Z</time>
      </trkpt>
      <trkpt lat="45.84176" lon="6.30849">
        <ele>1150</ele>
        <time>2022-01-06T08:00:18Z</time>
      </trkpt>
      <trkpt lat="45.84176" lon="6.30848">
        <ele>1151.1</ele>
        <time>2022-01-06T08:00:19Z</time>
      </trkpt>
      <trkpt lat="45.84175" lon="6.30848">
        <ele>1151.1</ele>
        <time>2022-01-06T08:00:20Z</time>
      </trkpt>
      <trkpt lat="45.84175" lon="6.30848">
        <ele>1152.2</ele>
        <time>2022-01-06T08:00:21Z</time>
      </trkpt>
      <trkpt lat="45.84174" lon="6.30847">
        <ele>1152.2</ele>
        <time>2022-01-06T08:00:22Z</time>
      </trkpt>
      <trkpt lat="45.84173" lon="6.30847">
        <ele>1152.2</ele>
        <time>2022-01-06T08:00:23Z</time>
      </trkpt>
      <trkpt lat="45.84173" lon="6.30847">
        <ele>1152.2</ele>
        <time>2022-01-06T08:00:24Z</time>
      </trkpt>
      <trkpt lat="45.84173" lon="6.30848">
        <ele>1153.1</ele>
        <time>2022-01-06T08:00:25Z</time>
      </trkpt>
      <trkpt lat="45.84172" lon="6.30848">
        <ele>1153.1</ele>
        <time>2022-01-06T08:00:26Z</time>
      </trkpt>
      <trkpt lat="45.84171" lon="6.30848">
        <ele>1153.1</ele>
        <time>2022-01-06T08:00:27Z</time>
      </trkpt>
      <trkpt lat="45.84171" lon="6.30848">
        <ele>1153.1</ele>
        <time>2022-01-06T08:00:28Z</time>
      </trkpt>
      <trkpt lat="45.8417" lon="6.30847">
        <ele>1154.1</ele>
        <time>2022-01-06T08:00:29Z</time>
      </trkpt>
      <trkpt lat="45.8417" lon="6.30846">
        <ele>1154.1</ele>
        <time>2022-01-06T08:00:30Z</time>
      </trkpt>
      <trkpt lat="45.8417" lon="6.30846">
        <ele>1154.1</ele>
        <time>2022-01-06T08:00:31Z</time>
      </trkpt>
      <trkpt lat="45.84169" lon="6.30846">
        <ele>1154.1</ele>
        <time>2022-01-06T08:00:32Z</time>
      </trkpt>
      <trkpt lat="45.84168" lon="6.30847">
        <ele>1155.1</ele>
        <time>2022-01-06T08:00:33Z</time>
      </trkpt>
      <trkpt lat="45.84167" lon="6.30847">
        <ele>1155.1</ele>
        <time>2022-01-06T08:00:34Z</time>
      </trkpt>
      <trkpt lat="45.84166" lon="6.30847">
        <ele>1155.1</ele>
        <time>2022-01-06T08:00:35Z</time>
      </trkpt>
      <trkpt lat="45.84165" lon="6.30848">
        <ele>1155.1</ele>
        <time>2022-01-06T08:00:36Z</time>
      </trkpt>
      <trkpt lat="45.84165" lon="6.30848">
        <ele>1156.1</ele>
        <time>2022-01-06T08:00:37Z</time>
      </trkpt>
      <trkpt lat="45.84165" lon="6.30848">
        <ele>1156.1</ele>
        <time>2022-01-06T08:00:38Z</time>
      </trkpt>
      <trkpt lat="45.84164" lon="6.30848">
        <ele>1156.1</ele>
        <time>2022-01-06T08:00:39Z</time>
      </trkpt>
      <trkpt lat="45.84164" lon="6.30848">
        <ele>1156.1</ele>
        <time>2022-01-06T08:00:40Z</time>
      </trkpt>
      <trkpt lat="45.84164" lon="6.30848">
        <ele>1157</ele>
        <time>2022-01-06T08:00:41Z</time>
      </trkpt>
      <trkpt lat="45.84164" lon="6.30848">
        <ele>1157</ele>
        <time>2022-01-06T08:00:42Z</time>
      </trkpt>
      <trkpt lat="45.84164" lon="6.30848">
        <ele>1157</ele>
        <time>2022-01-06T08:00:43Z</time>
      </trkpt>
      <trkpt lat="45.84164" lon="6.30848">
        <ele>1157</ele>
        <time>2022-01-06T08:00:44Z</time>
      </trkpt>
      <trkpt lat="45.84163" lon="6.30848">
        <ele>1158.1</ele>
        <time>2022-01-06T08:00:45Z</time>
      </trkpt>
      <trkpt lat="45.84162" lon="6.30848">
        <ele>1158.1</ele>
        <time>2022-01-06T08:00:46Z</time>
      </trkpt>
      <trkpt lat="45.84162" lon="6.30847">
        <ele>1159</ele>
        <time>2022-01-06T08:00:47Z</time>
      </trkpt>
      <trkpt lat="45.84161" lon="6.30847">
        <ele>1159</ele>
        <time>2022-01-06T08:00:48Z</time>
      </trkpt>
      <trkpt lat="45.84161" lon="6.30847">
        <ele>1159</ele>
        <time>2022-01-06T08:00:49Z</time>
      </trkpt>
      <trkpt lat="45.8416" lon="6.30846">
        <ele>1159</ele>
        <time>2022-01-06T08:00:50Z</time>
      </trkpt>
      <trkpt lat="45.84159" lon="6.30846">
        <ele>1160.1</ele>
        <time>2022-01-06T08:00:51Z</time>
      </trkpt>
      <trkpt lat="45.84159" lon="6.30846">
        <ele>1160.1</ele>
        <time>2022-01-06T08:00:52Z</time>
      </trkpt>
      <trkpt lat="45.84159" lon="6.30845">
        <ele>1160.1</ele>
        <time>2022-01-06T08:00:53Z</time>
      </trkpt>
      <trkpt lat="45.84159" lon="6.30845">
        <ele>1160.1</ele>
        <time>2022-01-06T08:00:54Z</time>
      </trkpt>
      <trkpt lat="45.84159" lon="6.30844">
        <ele>1160.1</ele>
        <time>2022-01-06T08:00:55Z</time>
      </trkpt>
      <trkpt lat="45.84158" lon="6.30844">
        <ele>1160.1</ele>
        <time>2022-01-06T08:00:56Z</time>
      </trkpt>
      <trkpt lat="45.84158" lon="6.30845">
        <ele>1160.1</ele>
        <time>2022-01-06T08:00:57Z</time>
      </trkpt>
      <trkpt lat="45.84157" lon="6.30845">
        <ele>1160.1</ele>
        <time>2022-01-06T08:00:58Z</time>
      </trkpt>
      <trkpt lat="45.84156" lon="6.30847">
        <ele>1162.1</ele>
        <time>2022-01-06T08:00:59Z</time>
      </trkpt>
      <trkpt lat="45.84155" lon="6.30848">
        <ele>1162.1</ele>
        <time>2022-01-06T08:01:00Z</time>
      </trkpt>
      <trkpt lat="45.84153" lon="6.30849">
        <ele>1163.1</ele>
        <time>2022-01-06T08:01:01Z</time>
      </trkpt>
      <trkpt lat="45.84152" lon="6.30849">
        <ele>1163.1</ele>
        <time>2022-01-06T08:01:02Z</time>
      </trkpt>
      <trkpt lat="45.84151" lon="6.30849">
        <ele>1164</ele>
        <time>2022-01-06T08:01:03Z</time>
      </trkpt>
      <trkpt lat="45.84151" lon="6.30849">
        <ele>1164</ele>
        <time>2022-01-06T08:01:04Z</time>
      </trkpt>
      <trkpt lat="45.8415" lon="6.30848">
        <ele>1165.1</ele>
        <time>2022-01-06T08:01:05Z</time>
      </trkpt>
      <trkpt lat="45.8415" lon="6.30848">
        <ele>1165.1</ele>
        <time>2022-01-06T08:01:06Z</time>
      </trkpt>
      <trkpt lat="45.8415" lon="6.30847">
        <ele>1165.1</ele>
        <time>2022-01-06T08:01:07Z</time>
      </trkpt>
      <trkpt lat="45.84149" lon="6.30847">
        <ele>1165.1</ele>
        <time>2022-01-06T08:01:08Z</time>
      </trkpt>
      <trkpt lat="45.84149" lon="6.30847">
        <ele>1166</ele>
        <time>2022-01-06T08:01:09Z</time>
      </trkpt>
      <trkpt lat="45.84149" lon="6.30847">
        <ele>1166</ele>
        <time>2022-01-06T08:01:10Z</time>
      </trkpt>
      <trkpt lat="45.84149" lon="6.30847">
        <ele>1167.1</ele>
        <time>2022-01-06T08:01:11Z</time>
      </trkpt>
      <trkpt lat="45.84149" lon="6.30847">
        <ele>1167.1</ele>
        <time>2022-01-06T08:01:12Z</time>
      </trkpt>
      <trkpt lat="45.84149" lon="6.30847">
        <ele>1167.1</ele>
        <time>2022-01-06T08:01:13Z</time>
      </trkpt>
      <trkpt lat="45.84149" lon="6.30848">
        <ele>1167.1</ele>
        <time>2022-01-06T08:01:14Z</time>
      </trkpt>
      <trkpt lat="45.84149" lon="6.30848">
        <ele>1167.1</ele>
        <time>2022-01-06T08:01:15Z</time>
      </trkpt>
      <trkpt lat="45.84149" lon="6.30848">
        <ele>1167.1</ele>
        <time>2022-01-06T08:01:16Z</time>
      </trkpt>
      <trkpt lat="45.84148" lon="6.30849">
        <ele>1168</ele>
        <time>2022-01-06T08:01:17Z</time>
      </trkpt>
      <trkpt lat="45.84148" lon="6.3085">
        <ele>1168</ele>
        <time>2022-01-06T08:01:18Z</time>
      </trkpt>
      <trkpt lat="45.84147" lon="6.3085">
        <ele>1169.1</ele>
        <time>2022-01-06T08:01:19Z</time>
      </trkpt>
      <trkpt lat="45.84146" lon="6.30851">
        <ele>1169.1</ele>
        <time>2022-01-06T08:01:20Z</time>
      </trkpt>
      <trkpt lat="45.84145" lon="6.30851">
        <ele>1169.1</ele>
        <time>2022-01-06T08:01:21Z</time>
      </trkpt>
      <trkpt lat="45.84145" lon="6.30851">
        <ele>1169.1</ele>
        <time>2022-01-06T08:01:22Z</time>
      </trkpt>
      <trkpt lat="45.84144" lon="6.30851">
        <ele>1170.1</ele>
        <time>2022-01-06T08:01:23Z</time>
      </trkpt>
      <trkpt lat="45.84144" lon="6.3085">
        <ele>1170.1</ele>
        <time>2022-01-06T08:01:24Z</time>
      </trkpt>
      <trkpt lat="45.84144" lon="6.3085">
        <ele>1170.1</ele>
        <time>2022-01-06T08:01:25Z</time>
      </trkpt>
      <trkpt lat="45.84144" lon="6.3085">
        <ele>1170.1</ele>
        <time>2022-01-06T08:01:26Z</time>
      </trkpt>
      <trkpt lat="45.84144" lon="6.30851">
        <ele>1170.1</ele>
        <time>2022-01-06T08:01:27Z</time>
      </trkpt>
      <trkpt lat="45.84143" lon="6.3085">
        <ele>1170.1</ele>
        <time>2022-01-06T08:01:28Z</time>
      </trkpt>
      <trkpt lat="45.84142" lon="6.3085">
        <ele>1170.1</ele>
        <time>2022-01-06T08:01:29Z</time>
      </trkpt>
      <trkpt lat="45.84143" lon="6.3085">
        <ele>1170.1</ele>
        <time>2022-01-06T08:01:30Z</time>
      </trkpt>
      <trkpt lat="45.84142" lon="6.30849">
        <ele>1171.1</ele>
        <time>2022-01-06T08:01:31Z</time>
      </trkpt>
      <trkpt lat="45.84141" lon="6.30849">
        <ele>1171.1</ele>
        <time>2022-01-06T08:01:32Z</time>
      </trkpt>
      <trkpt lat="45.8414" lon="6.30849">
        <ele>1171.1</ele>
        <time>2022-01-06T08:01:33Z</time>
      </trkpt>
      <trkpt lat="45.84139" lon="6.30849">
        <ele>1171.1</ele>
        <time>2022-01-06T08:01:34Z</time>
      </trkpt>
      <trkpt lat="45.84138" lon="6.30849">
        <ele>1172.1</ele>
        <time>2022-01-06T08:01:35Z</time>
      </trkpt>
      <trkpt lat="45.84138" lon="6.3085">
        <ele>1172.1</ele>
        <time>2022-01-06T08:01:36Z</time>
      </trkpt>
      <trkpt lat="45.84137" lon="6.3085">
        <ele>1172.1</ele>
        <time>2022-01-06T08:01:37Z</time>
      </trkpt>
      <trkpt lat="45.84136" lon="6.30851">
        <ele>1172.1</ele>
        <time>2022-01-06T08:01:38Z</time>
      </trkpt>
      <trkpt lat="45.84135" lon="6.30851">
        <ele>1173</ele>
        <time>2022-01-06T08:01:39Z</time>
      </trkpt>
      <trkpt lat="45.84134" lon="6.30851">
        <ele>1173</ele>
        <time>2022-01-06T08:01:40Z</time>
      </trkpt>
      <trkpt lat="45.84133" lon="6.30852">
        <ele>1174.1</ele>
        <time>2022-01-06T08:01:41Z</time>
      </trkpt>
      <trkpt lat="45.84133" lon="6.30852">
        <ele>1174.1</ele>
        <time>2022-01-06T08:01:42Z</time>
      </trkpt>
      <trkpt lat="45.84132" lon="6.30853">
        <ele>1174.1</ele>
        <time>2022-01-06T08:01:43Z</time>
      </trkpt>
      <trkpt lat="45.84131" lon="6.30853">
        <ele>1174.1</ele>
        <time>2022-01-06T08:01:44Z</time>
      </trkpt>
      <trkpt lat="45.84131" lon="6.30854">
        <ele>1174.1</ele>
        <time>2022-01-06T08:01:45Z</time>
      </trkpt>
      <trkpt lat="45.8413" lon="6.30853">
        <ele>1174.1</ele>
        <time>2022-01-06T08:01:46Z</time>
      </trkpt>
      <trkpt lat="45.84129" lon="6.30853">
        <ele>1175</ele>
        <time>2022-01-06T08:01:47Z</time>
      </trkpt>
      <trkpt lat="45.84129" lon="6.30853">
        <ele>1175</ele>
        <time>2022-01-06T08:01:48Z</time>
      </trkpt>
      <trkpt lat="45.84128" lon="6.30852">
        <ele>1175</ele>
        <time>2022-01-06T08:01:49Z</time>
      </trkpt>
      <trkpt lat="45.84128" lon="6.30851">
        <ele>1175</ele>
        <time>2022-01-06T08:01:50Z</time>
      </trkpt>
      <trkpt lat="45.84127" lon="6.30851">
        <ele>1176.1</ele>
        <time>2022-01-06T08:01:51Z</time>
      </trkpt>
      <trkpt lat="45.84127" lon="6.30851">
        <ele>1176.1</ele>
        <time>2022-01-06T08:01:52Z</time>
      </trkpt>
      <trkpt lat="45.84126" lon="6.3085">
        <ele>1176.1</ele>
        <time>2022-01-06T08:01:53Z</time>
      </trkpt>
      <trkpt lat="45.84125" lon="6.3085">
        <ele>1176.1</ele>
        <time>2022-01-06T08:01:54Z</time>
      </trkpt>
      <trkpt lat="45.84124" lon="6.3085">
        <ele>1177.2</ele>
        <time>2022-01-06T08:01:55Z</time>
      </trkpt>
      <trkpt lat="45.84124" lon="6.3085">
        <ele>1177.2</ele>
        <time>2022-01-06T08:01:56Z</time>
      </trkpt>
      <trkpt lat="45.84123" lon="6.3085">
        <ele>1177.2</ele>
        <time>2022-01-06T08:01:57Z</time>
      </trkpt>
      <trkpt lat="45.84123" lon="6.3085">
        <ele>1177.2</ele>
        <time>2022-01-06T08:01:58Z</time>
      </trkpt>
      <trkpt lat="45.84122" lon="6.3085">
        <ele>1178.1</ele>
        <time>2022-01-06T08:01:59Z</time>
      </trkpt>
      <trkpt lat="45.84121" lon="6.3085">
        <ele>1178.1</ele>
        <time>2022-01-06T08:02:00Z</time>
      </trkpt>
      <trkpt lat="45.84121" lon="6.3085">
        <ele>1179.1</ele>
        <time>2022-01-06T08:02:01Z</time>
      </trkpt>
      <trkpt lat="45.8412" lon="6.3085">
        <ele>1179.1</ele>
        <time>2022-01-06T08:02:02Z</time>
      </trkpt>
      <trkpt lat="45.8412" lon="6.3085">
        <ele>1179.1</ele>
        <time>2022-01-06T08:02:03Z</time>
      </trkpt>
      <trkpt lat="45.84119" lon="6.3085">
        <ele>1179.1</ele>
        <time>2022-01-06T08:02:04Z</time>
      </trkpt>
      <trkpt lat="45.84119" lon="6.30851">
        <ele>1180</ele>
        <time>2022-01-06T08:02:05Z</time>
      </trkpt>
      <trkpt lat="45.84119" lon="6.30851">
        <ele>1180</ele>
        <time>2022-01-06T08:02:06Z</time>
      </trkpt>
      <trkpt lat="45.84118" lon="6.30852">
        <ele>1180</ele>
        <time>2022-01-06T08:02:07Z</time>
      </trkpt>
      <trkpt lat="45.84117" lon="6.30852">
        <ele>1180</ele>
        <time>2022-01-06T08:02:08Z</time>
      </trkpt>
      <trkpt lat="45.84117" lon="6.30851">
        <ele>1181.1</ele>
        <time>2022-01-06T08:02:09Z</time>
      </trkpt>
      <trkpt lat="45.84116" lon="6.30851">
        <ele>1181.1</ele>
        <time>2022-01-06T08:02:10Z</time>
      </trkpt>
      <trkpt lat="45.84115" lon="6.30851">
        <ele>1181.1</ele>
        <time>2022-01-06T08:02:11Z</time>
      </trkpt>
      <trkpt lat="45.84115" lon="6.30851">
        <ele>1181.1</ele>
        <time>2022-01-06T08:02:12Z</time>
      </trkpt>
      <trkpt lat="45.84114" lon="6.30852">
        <ele>1182</ele>
        <time>2022-01-06T08:02:13Z</time>
      </trkpt>
      <trkpt lat="45.84113" lon="6.30853">
        <ele>1182</ele>
        <time>2022-01-06T08:02:14Z</time>
      </trkpt>
      <trkpt lat="45.84113" lon="6.30853">
        <ele>1183.1</ele>
        <time>2022-01-06T08:02:15Z</time>
      </trkpt>
      <trkpt lat="45.84112" lon="6.30854">
        <ele>1183.1</ele>
        <time>2022-01-06T08:02:16Z</time>
      </trkpt>
      <trkpt lat="45.84112" lon="6.30854">
        <ele>1183.1</ele>
        <time>2022-01-06T08:02:17Z</time>
      </trkpt>
      <trkpt lat="45.84111" lon="6.30855">
        <ele>1183.1</ele>
        <time>2022-01-06T08:02:18Z</time>
      </trkpt>
      <trkpt lat="45.84111" lon="6.30856">
        <ele>1184</ele>
        <time>2022-01-06T08:02:19Z</time>
      </trkpt>
      <trkpt lat="45.8411" lon="6.30856">
        <ele>1184</ele>
        <time>2022-01-06T08:02:20Z</time>
      </trkpt>
      <trkpt lat="45.8411" lon="6.30857">
        <ele>1185.1</ele>
        <time>2022-01-06T08:02:21Z</time>
      </trkpt>
      <trkpt lat="45.8411" lon="6.30858">
        <ele>1185.1</ele>
        <time>2022-01-06T08:02:22Z</time>
      </trkpt>
      <trkpt lat="45.8411" lon="6.30859">
        <ele>1185.1</ele>
        <time>2022-01-06T08:02:23Z</time>
      </trkpt>
      <trkpt lat="45.8411" lon="6.3086">
        <ele>1185.1</ele>
        <time>2022-01-06T08:02:24Z</time>
      </trkpt>
      <trkpt lat="45.8411" lon="6.3086">
        <ele>1186.1</ele>
        <time>2022-01-06T08:02:25Z</time>
      </trkpt>
      <trkpt lat="45.8411" lon="6.3086">
        <ele>1186.1</ele>
        <time>2022-01-06T08:02:26Z</time>
      </trkpt>
      <trkpt lat="45.8411" lon="6.30861">
        <ele>1186.1</ele>
        <time>2022-01-06T08:02:27Z</time>
      </trkpt>
      <trkpt lat="45.8411" lon="6.30862">
        <ele>1186.1</ele>
        <time>2022-01-06T08:02:28Z</time>
      </trkpt>
      <trkpt lat="45.8411" lon="6.30864">
        <ele>1186.1</ele>
        <time>2022-01-06T08:02:29Z</time>
      </trkpt>
      <trkpt lat="45.84109" lon="6.30865">
        <ele>1186.1</ele>
        <time>2022-01-06T08:02:30Z</time>
      </trkpt>
      <trkpt lat="45.8411" lon="6.30866">
        <ele>1187.1</ele>
        <time>2022-01-06T08:02:31Z</time>
      </trkpt>
      <trkpt lat="45.8411" lon="6.30868">
        <ele>1187.1</ele>
        <time>2022-01-06T08:02:32Z</time>
      </trkpt>
      <trkpt lat="45.8411" lon="6.30869">
        <ele>1187.1</ele>
        <time>2022-01-06T08:02:33Z</time>
      </trkpt>
      <trkpt lat="45.8411" lon="6.3087">
        <ele>1187.1</ele>
        <time>2022-01-06T08:02:34Z</time>
      </trkpt>
      <trkpt lat="45.84109" lon="6.30871">
        <ele>1188.1</ele>
        <time>2022-01-06T08:02:35Z</time>
      </trkpt>
      <trkpt lat="45.84109" lon="6.30872">
        <ele>1188.1</ele>
        <time>2022-01-06T08:02:36Z</time>
      </trkpt>
      <trkpt lat="45.84108" lon="6.30873">
        <ele>1188.1</ele>
        <time>2022-01-06T08:02:37Z</time>
      </trkpt>
      <trkpt lat="45.84109" lon="6.30872">
        <ele>1188.1</ele>
        <time>2022-01-06T08:02:38Z</time>
      </trkpt>
      <trkpt lat="45.84109" lon="6.30873">
        <ele>1189</ele>
        <time>2022-01-06T08:02:39Z</time>
      </trkpt>
      <trkpt lat="45.84109" lon="6.30873">
        <ele>1189</ele>
        <time>2022-01-06T08:02:40Z</time>
      </trkpt>
      <trkpt lat="45.84109" lon="6.30874">
        <ele>1189</ele>
        <time>2022-01-06T08:02:41Z</time>
      </trkpt>
      <trkpt lat="45.84109" lon="6.30876">
        <ele>1189</ele>
        <time>2022-01-06T08:02:42Z</time>
      </trkpt>
      <trkpt lat="45.84109" lon="6.30878">
        <ele>1190.1</ele>
        <time>2022-01-06T08:02:43Z</time>
      </trkpt>
      <trkpt lat="45.84108" lon="6.30878">
        <ele>1190.1</ele>
        <time>2022-01-06T08:02:44Z</time>
      </trkpt>
      <trkpt lat="45.84108" lon="6.30879">
        <ele>1190.1</ele>
        <time>2022-01-06T08:02:45Z</time>
      </trkpt>
      <trkpt lat="45.84107" lon="6.3088">
        <ele>1190.1</ele>
        <time>2022-01-06T08:02:46Z</time>
      </trkpt>
      <trkpt lat="45.84106" lon="6.3088">
        <ele>1190.1</ele>
        <time>2022-01-06T08:02:47Z</time>
      </trkpt>
      <trkpt lat="45.84106" lon="6.3088">
        <ele>1190.1</ele>
        <time>2022-01-06T08:02:48Z</time>
      </trkpt>
      <trkpt lat="45.84106" lon="6.30881">
        <ele>1191</ele>
        <time>2022-01-06T08:02:49Z</time>
      </trkpt>
      <trkpt lat="45.84106" lon="6.30882">
        <ele>1191</ele>
        <time>2022-01-06T08:02:50Z</time>
      </trkpt>
      <trkpt lat="45.84107" lon="6.30882">
        <ele>1191</ele>
        <time>2022-01-06T08:02:51Z</time>
      </trkpt>
      <trkpt lat="45.84108" lon="6.30883">
        <ele>1191</ele>
        <time>2022-01-06T08:02:52Z</time>
      </trkpt>
      <trkpt lat="45.84109" lon="6.30884">
        <ele>1191</ele>
        <time>2022-01-06T08:02:53Z</time>
      </trkpt>
      <trkpt lat="45.8411" lon="6.30884">
        <ele>1191</ele>
        <time>2022-01-06T08:02:54Z</time>
      </trkpt>
      <trkpt lat="45.8411" lon="6.30885">
        <ele>1191</ele>
        <time>2022-01-06T08:02:55Z</time>
      </trkpt>
      <trkpt lat="45.84109" lon="6.30887">
        <ele>1191</ele>
        <time>2022-01-06T08:02:56Z</time>
      </trkpt>
      <trkpt lat="45.84108" lon="6.30887">
        <ele>1191</ele>
        <time>2022-01-06T08:02:57Z</time>
      </trkpt>
      <trkpt lat="45.84107" lon="6.30888">
        <ele>1191</ele>
        <time>2022-01-06T08:02:58Z</time>
      </trkpt>
      <trkpt lat="45.84106" lon="6.30889">
        <ele>1194.1</ele>
        <time>2022-01-06T08:02:59Z</time>
      </trkpt>
      <trkpt lat="45.84106" lon="6.3089">
        <ele>1194.1</ele>
        <time>2022-01-06T08:03:00Z</time>
      </trkpt>
      <trkpt lat="45.84105" lon="6.30891">
        <ele>1194.1</ele>
        <time>2022-01-06T08:03:01Z</time>
      </trkpt>
      <trkpt lat="45.84104" lon="6.30891">
        <ele>1194.1</ele>
        <time>2022-01-06T08:03:02Z</time>
      </trkpt>
      <trkpt lat="45.84103" lon="6.30891">
        <ele>1194.1</ele>
        <time>2022-01-06T08:03:03Z</time>
      </trkpt>
      <trkpt lat="45.84102" lon="6.30891">
        <ele>1194.1</ele>
        <time>2022-01-06T08:03:04Z</time>
      </trkpt>
      <trkpt lat="45.84101" lon="6.30891">
        <ele>1195.1</ele>
        <time>2022-01-06T08:03:05Z</time>
      </trkpt>
      <trkpt lat="45.84101" lon="6.30891">
        <ele>1195.1</ele>
        <time>2022-01-06T08:03:06Z</time>
      </trkpt>
      <trkpt lat="45.841" lon="6.30891">
        <ele>1195.1</ele>
        <time>2022-01-06T08:03:07Z</time>
      </trkpt>
      <trkpt lat="45.84099" lon="6.3089">
        <ele>1195.1</ele>
        <time>2022-01-06T08:03:08Z</time>
      </trkpt>
      <trkpt lat="45.84098" lon="6.30889">
        <ele>1196.1</ele>
        <time>2022-01-06T08:03:09Z</time>
      </trkpt>
      <trkpt lat="45.84097" lon="6.30888">
        <ele>1196.1</ele>
        <time>2022-01-06T08:03:10Z</time>
      </trkpt>
      <trkpt lat="45.84096" lon="6.30888">
        <ele>1196.1</ele>
        <time>2022-01-06T08:03:11Z</time>
      </trkpt>
      <trkpt lat="45.84095" lon="6.30888">
        <ele>1196.1</ele>
        <time>2022-01-06T08:03:12Z</time>
      </trkpt>
      <trkpt lat="45.84094" lon="6.30888">
        <ele>1196.1</ele>
        <time>2022-01-06T08:03:13Z</time>
      </trkpt>
      <trkpt lat="45.84092" lon="6.30889">
        <ele>1196.1</ele>
        <time>2022-01-06T08:03:14Z</time>
      </trkpt>
      <trkpt lat="45.8409" lon="6.30889">
        <ele>1196.1</ele>
        <time>2022-01-06T08:03:15Z</time>
      </trkpt>
      <trkpt lat="45.84089" lon="6.30889">
        <ele>1196.1</ele>
        <time>2022-01-06T08:03:16Z</time>
      </trkpt>
      <trkpt lat="45.84089" lon="6.30888">
        <ele>1196.1</ele>
        <time>2022-01-06T08:03:17Z</time>
      </trkpt>
      <trkpt lat="45.84088" lon="6.30887">
        <ele>1196.1</ele>
        <time>2022-01-06T08:03:18Z</time>
      </trkpt>
      <trkpt lat="45.84087" lon="6.30887">
        <ele>1196.1</ele>
        <time>2022-01-06T08:03:19Z</time>
      </trkpt>
      <trkpt lat="45.84087" lon="6.30888">
        <ele>1196.1</ele>
        <time>2022-01-06T08:03:20Z</time>
      </trkpt>
      <trkpt lat="45.84086" lon="6.30888">
        <ele>1197.1</ele>
        <time>2022-01-06T08:03:21Z</time>
      </trkpt>
      <trkpt lat="45.84085" lon="6.30888">
        <ele>1197.1</ele>
        <time>2022-01-06T08:03:22Z</time>
      </trkpt>
      <trkpt lat="45.84085" lon="6.30887">
        <ele>1197.1</ele>
        <time>2022-01-06T08:03:23Z</time>
      </trkpt>
      <trkpt lat="45.84084" lon="6.30886">
        <ele>1197.1</ele>
        <time>2022-01-06T08:03:24Z</time>
      </trkpt>
      <trkpt lat="45.84083" lon="6.30886">
        <ele>1197.1</ele>
        <time>2022-01-06T08:03:25Z</time>
      </trkpt>
      <trkpt lat="45.84082" lon="6.30885">
        <ele>1197.1</ele>
        <time>2022-01-06T08:03:26Z</time>
      </trkpt>
      <trkpt lat="45.84081" lon="6.30885">
        <ele>1198</ele>
        <time>2022-01-06T08:03:27Z</time>
      </trkpt>
      <trkpt lat="45.84079" lon="6.30885">
        <ele>1198</ele>
        <time>2022-01-06T08:03:28Z</time>
      </trkpt>
      <trkpt lat="45.84078" lon="6.30884">
        <ele>1198</ele>
        <time>2022-01-06T08:03:29Z</time>
      </trkpt>
      <trkpt lat="45.84078" lon="6.30884">
        <ele>1198</ele>
        <time>2022-01-06T08:03:30Z</time>
      </trkpt>
      <trkpt lat="45.84077" lon="6.30883">
        <ele>1199.1</ele>
        <time>2022-01-06T08:03:31Z</time>
      </trkpt>
      <trkpt lat="45.84076" lon="6.30882">
        <ele>1199.1</ele>
        <time>2022-01-06T08:03:32Z</time>
      </trkpt>
      <trkpt lat="45.84076" lon="6.30881">
        <ele>1199.1</ele>
        <time>2022-01-06T08:03:33Z</time>
      </trkpt>
      <trkpt lat="45.84075" lon="6.3088">
        <ele>1199.1</ele>
        <time>2022-01-06T08:03:34Z</time>
      </trkpt>
      <trkpt lat="45.84074" lon="6.3088">
        <ele>1200</ele>
        <time>2022-01-06T08:03:35Z</time>
      </trkpt>
      <trkpt lat="45.84073" lon="6.3088">
        <ele>1200</ele>
        <time>2022-01-06T08:03:36Z</time>
      </trkpt>
      <trkpt lat="45.84072" lon="6.3088">
        <ele>1201.1</ele>
        <time>2022-01-06T08:03:37Z</time>
      </trkpt>
      <trkpt lat="45.84071" lon="6.3088">
        <ele>1201.1</ele>
        <time>2022-01-06T08:03:38Z</time>
      </trkpt>
      <trkpt lat="45.8407" lon="6.3088">
        <ele>1201.1</ele>
        <time>2022-01-06T08:03:39Z</time>
      </trkpt>
      <trkpt lat="45.84069" lon="6.3088">
        <ele>1201.1</ele>
        <time>2022-01-06T08:03:40Z</time>
      </trkpt>
      <trkpt lat="45.84068" lon="6.3088">
        <ele>1201.1</ele>
        <time>2022-01-06T08:03:41Z</time>
      </trkpt>
      <trkpt lat="45.84067" lon="6.30879">
        <ele>1201.1</ele>
        <time>2022-01-06T08:03:42Z</time>
      </trkpt>
      <trkpt lat="45.84066" lon="6.30878">
        <ele>1202.1</ele>
        <time>2022-01-06T08:03:43Z</time>
      </trkpt>
      <trkpt lat="45.84065" lon="6.30877">
        <ele>1202.1</ele>
        <time>2022-01-06T08:03:44Z</time>
      </trkpt>
      <trkpt lat="45.84065" lon="6.30877">
        <ele>1202.1</ele>
        <time>2022-01-06T08:03:45Z</time>
      </trkpt>
      <trkpt lat="45.84064" lon="6.30877">
        <ele>1202.1</ele>
        <time>2022-01-06T08:03:46Z</time>
      </trkpt>
      <trkpt lat="45.84063" lon="6.30878">
        <ele>1203.1</ele>
        <time>2022-01-06T08:03:47Z</time>
      </trkpt>
      <trkpt lat="45.84062" lon="6.30878">
        <ele>1203.1</ele>
        <time>2022-01-06T08:03:48Z</time>
      </trkpt>
      <trkpt lat="45.84061" lon="6.30878">
        <ele>1204.1</ele>
        <time>2022-01-06T08:03:49Z</time>
      </trkpt>
      <trkpt lat="45.8406" lon="6.30879">
        <ele>1204.1</ele>
        <time>2022-01-06T08:03:50Z</time>
      </trkpt>
      <trkpt lat="45.8406" lon="6.30879">
        <ele>1204.1</ele>
        <time>2022-01-06T08:03:51Z</time>
      </trkpt>
      <trkpt lat="45.8406" lon="6.3088">
        <ele>1204.1</ele>
        <time>2022-01-06T08:03:52Z</time>
      </trkpt>
      <trkpt lat="45.8406" lon="6.30881">
        <ele>1204.1</ele>
        <time>2022-01-06T08:03:53Z</time>
      </trkpt>
      <trkpt lat="45.8406" lon="6.30882">
        <ele>1204.1</ele>
        <time>2022-01-06T08:03:54Z</time>
      </trkpt>
      <trkpt lat="45.8406" lon="6.30882">
        <ele>1205</ele>
        <time>2022-01-06T08:03:55Z</time>
      </trkpt>
      <trkpt lat="45.8406" lon="6.30882">
        <ele>1205</ele>
        <time>2022-01-06T08:03:56Z</time>
      </trkpt>
      <trkpt lat="45.8406" lon="6.30882">
        <ele>1205</ele>
        <time>2022-01-06T08:03:57Z</time>
      </trkpt>
      <trkpt lat="45.8406" lon="6.30882">
        <ele>1205</ele>
        <time>2022-01-06T08:03:58Z</time>
      </trkpt>
      <trkpt lat="45.8406" lon="6.30882">
        <ele>1206.1</ele>
        <time>2022-01-06T08:03:59Z</time>
      </trkpt>
      <trkpt lat="45.84059" lon="6.30882">
        <ele>1206.1</ele>
        <time>2022-01-06T08:04:00Z</time>
      </trkpt>
      <trkpt lat="45.84059" lon="6.30882">
        <ele>1206.1</ele>
        <time>2022-01-06T08:04:01Z</time>
      </trkpt>
      <trkpt lat="45.84058" lon="6.30882">
        <ele>1206.1</ele>
        <time>2022-01-06T08:04:02Z</time>
      </trkpt>
      <trkpt lat="45.84058" lon="6.30883">
        <ele>1207</ele>
        <time>2022-01-06T08:04:03Z</time>
      </trkpt>
      <trkpt lat="45.84058" lon="6.30883">
        <ele>1207</ele>
        <time>2022-01-06T08:04:04Z</time>
      </trkpt>
      <trkpt lat="45.84058" lon="6.30884">
        <ele>1207</ele>
        <time>2022-01-06T08:04:05Z</time>
      </trkpt>
      <trkpt lat="45.84058" lon="6.30885">
        <ele>1207</ele>
        <time>2022-01-06T08:04:06Z</time>
      </trkpt>
      <trkpt lat="45.84058" lon="6.30886">
        <ele>1207</ele>
        <time>2022-01-06T08:04:07Z</time>
      </trkpt>
      <trkpt lat="45.84058" lon="6.30888">
        <ele>1207</ele>
        <time>2022-01-06T08:04:08Z</time>
      </trkpt>
      <trkpt lat="45.84058" lon="6.30889">
        <ele>1207</ele>
        <time>2022-01-06T08:04:09Z</time>
      </trkpt>
      <trkpt lat="45.84059" lon="6.30891">
        <ele>1207</ele>
        <time>2022-01-06T08:04:10Z</time>
      </trkpt>
      <trkpt lat="45.84059" lon="6.30892">
        <ele>1208.1</ele>
        <time>2022-01-06T08:04:11Z</time>
      </trkpt>
      <trkpt lat="45.8406" lon="6.30893">
        <ele>1208.1</ele>
        <time>2022-01-06T08:04:12Z</time>
      </trkpt>
      <trkpt lat="45.84061" lon="6.30894">
        <ele>1208.1</ele>
        <time>2022-01-06T08:04:13Z</time>
      </trkpt>
      <trkpt lat="45.84062" lon="6.30895">
        <ele>1208.1</ele>
        <time>2022-01-06T08:04:14Z</time>
      </trkpt>
      <trkpt lat="45.84062" lon="6.30895">
        <ele>1209.2</ele>
        <time>2022-01-06T08:04:15Z</time>
      </trkpt>
      <trkpt lat="45.84062" lon="6.30897">
        <ele>1209.2</ele>
        <time>2022-01-06T08:04:16Z</time>
      </trkpt>
      <trkpt lat="45.84061" lon="6.30898">
        <ele>1209.2</ele>
        <time>2022-01-06T08:04:17Z</time>
      </trkpt>
      <trkpt lat="45.84061" lon="6.30899">
        <ele>1209.2</ele>
        <time>2022-01-06T08:04:18Z</time>
      </trkpt>
      <trkpt lat="45.84061" lon="6.309">
        <ele>1210.1</ele>
        <time>2022-01-06T08:04:19Z</time>
      </trkpt>
      <trkpt lat="45.84061" lon="6.30901">
        <ele>1210.1</ele>
        <time>2022-01-06T08:04:20Z</time>
      </trkpt>
      <trkpt lat="45.84061" lon="6.30903">
        <ele>1210.1</ele>
        <time>2022-01-06T08:04:21Z</time>
      </trkpt>
      <trkpt lat="45.84062" lon="6.30904">
        <ele>1210.1</ele>
        <time>2022-01-06T08:04:22Z</time>
      </trkpt>
      <trkpt lat="45.84062" lon="6.30905">
        <ele>1210.1</ele>
        <time>2022-01-06T08:04:23Z</time>
      </trkpt>
      <trkpt lat="45.84062" lon="6.30907">
        <ele>1210.1</ele>
        <time>2022-01-06T08:04:24Z</time>
      </trkpt>
      <trkpt lat="45.84061" lon="6.30908">
        <ele>1210.1</ele>
        <time>2022-01-06T08:04:25Z</time>
      </trkpt>
      <trkpt lat="45.84061" lon="6.30909">
        <ele>1210.1</ele>
        <time>2022-01-06T08:04:26Z</time>
      </trkpt>
      <trkpt lat="45.8406" lon="6.30911">
        <ele>1211.1</ele>
        <time>2022-01-06T08:04:27Z</time>
      </trkpt>
      <trkpt lat="45.8406" lon="6.30913">
        <ele>1211.1</ele>
        <time>2022-01-06T08:04:28Z</time>
      </trkpt>
      <trkpt lat="45.84058" lon="6.30914">
        <ele>1211.1</ele>
        <time>2022-01-06T08:04:29Z</time>
      </trkpt>
      <trkpt lat="45.84057" lon="6.30916">
        <ele>1211.1</ele>
        <time>2022-01-06T08:04:30Z</time>
      </trkpt>
      <trkpt lat="45.84055" lon="6.30917">
        <ele>1212.1</ele>
        <time>2022-01-06T08:04:31Z</time>
      </trkpt>
      <trkpt lat="45.84053" lon="6.30919">
        <ele>1212.1</ele>
        <time>2022-01-06T08:04:32Z</time>
      </trkpt>
      <trkpt lat="45.84052" lon="6.3092">
        <ele>1212.1</ele>
        <time>2022-01-06T08:04:33Z</time>
      </trkpt>
      <trkpt lat="45.8405" lon="6.30921">
        <ele>1212.1</ele>
        <time>2022-01-06T08:04:34Z</time>
      </trkpt>
      <trkpt lat="45.84048" lon="6.30921">
        <ele>1213.1</ele>
        <time>2022-01-06T08:04:35Z</time>
      </trkpt>
      <trkpt lat="45.84047" lon="6.30921">
        <ele>1213.1</ele>
        <time>2022-01-06T08:04:36Z</time>
      </trkpt>
      <trkpt lat="45.84046" lon="6.30921">
        <ele>1213.1</ele>
        <time>2022-01-06T08:04:37Z</time>
      </trkpt>
      <trkpt lat="45.84046" lon="6.30919">
        <ele>1213.1</ele>
        <time>2022-01-06T08:04:38Z</time>
      </trkpt>
      <trkpt lat="45.84045" lon="6.30919">
        <ele>1214</ele>
        <time>2022-01-06T08:04:39Z</time>
      </trkpt>
      <trkpt lat="45.84045" lon="6.30917">
        <ele>1214</ele>
        <time>2022-01-06T08:04:40Z</time>
      </trkpt>
      <trkpt lat="45.84044" lon="6.30917">
        <ele>1214</ele>
        <time>2022-01-06T08:04:41Z</time>
      </trkpt>
      <trkpt lat="45.84044" lon="6.30916">
        <ele>1214</ele>
        <time>2022-01-06T08:04:42Z</time>
      </trkpt>
      <trkpt lat="45.84044" lon="6.30916">
        <ele>1214</ele>
        <time>2022-01-06T08:04:43Z</time>
      </trkpt>
      <trkpt lat="45.84043" lon="6.30915">
        <ele>1214</ele>
        <time>2022-01-06T08:04:44Z</time>
      </trkpt>
      <trkpt lat="45.84042" lon="6.30914">
        <ele>1214</ele>
        <time>2022-01-06T08:04:45Z</time>
      </trkpt>
      <trkpt lat="45.84041" lon="6.30914">
        <ele>1214</ele>
        <time>2022-01-06T08:04:46Z</time>
      </trkpt>
      <trkpt lat="45.8404" lon="6.30914">
        <ele>1217.1</ele>
        <time>2022-01-06T08:04:47Z</time>
      </trkpt>
      <trkpt lat="45.84039" lon="6.30913">
        <ele>1217.1</ele>
        <time>2022-01-06T08:04:48Z</time>
      </trkpt>
      <trkpt lat="45.84038" lon="6.30912">
        <ele>1217.1</ele>
        <time>2022-01-06T08:04:49Z</time>
      </trkpt>
      <trkpt lat="45.84038" lon="6.3091">
        <ele>1217.1</ele>
        <time>2022-01-06T08:04:50Z</time>
      </trkpt>
      <trkpt lat="45.84037" lon="6.30909">
        <ele>1217.1</ele>
        <time>2022-01-06T08:04:51Z</time>
      </trkpt>
      <trkpt lat="45.84037" lon="6.30908">
        <ele>1217.1</ele>
        <time>2022-01-06T08:04:52Z</time>
      </trkpt>
      <trkpt lat="45.84036" lon="6.30908">
        <ele>1218.1</ele>
        <time>2022-01-06T08:04:53Z</time>
      </trkpt>
      <trkpt lat="45.84035" lon="6.30907">
        <ele>1218.1</ele>
        <time>2022-01-06T08:04:54Z</time>
      </trkpt>
      <trkpt lat="45.84034" lon="6.30907">
        <ele>1219.1</ele>
        <time>2022-01-06T08:04:55Z</time>
      </trkpt>
      <trkpt lat="45.84034" lon="6.30906">
        <ele>1219.1</ele>
        <time>2022-01-06T08:04:56Z</time>
      </trkpt>
      <trkpt lat="45.84034" lon="6.30906">
        <ele>1219.1</ele>
        <time>2022-01-06T08:04:57Z</time>
      </trkpt>
      <trkpt lat="45.84033" lon="6.30906">
        <ele>1219.1</ele>
        <time>2022-01-06T08:04:58Z</time>
      </trkpt>
      <trkpt lat="45.84032" lon="6.30906">
        <ele>1220.1</ele>
        <time>2022-01-06T08:04:59Z</time>
      </trkpt>
      <trkpt lat="45.84032" lon="6.30906">
        <ele>1220.1</ele>
        <time>2022-01-06T08:05:00Z</time>
      </trkpt>
      <trkpt lat="45.84031" lon="6.30906">
        <ele>1220.1</ele>
        <time>2022-01-06T08:05:01Z</time>
      </trkpt>
      <trkpt lat="45.8403" lon="6.30907">
        <ele>1220.1</ele>
        <time>2022-01-06T08:05:02Z</time>
      </trkpt>
      <trkpt lat="45.8403" lon="6.30907">
        <ele>1221</ele>
        <time>2022-01-06T08:05:03Z</time>
      </trkpt>
      <trkpt lat="45.84029" lon="6.30907">
        <ele>1221</ele>
        <time>2022-01-06T08:05:04Z</time>
      </trkpt>
      <trkpt lat="45.84029" lon="6.30907">
        <ele>1221</ele>
        <time>2022-01-06T08:05:05Z</time>
      </trkpt>
      <trkpt lat="45.84028" lon="6.30906">
        <ele>1221</ele>
        <time>2022-01-06T08:05:06Z</time>
      </trkpt>
      <trkpt lat="45.84027" lon="6.30905">
        <ele>1222.1</ele>
        <time>2022-01-06T08:05:07Z</time>
      </trkpt>
      <trkpt lat="45.84026" lon="6.30904">
        <ele>1222.1</ele>
        <time>2022-01-06T08:05:08Z</time>
      </trkpt>
      <trkpt lat="45.84026" lon="6.30903">
        <ele>1222.1</ele>
        <time>2022-01-06T08:05:09Z</time>
      </trkpt>
      <trkpt lat="45.84025" lon="6.30904">
        <ele>1222.1</ele>
        <time>2022-01-06T08:05:10Z</time>
      </trkpt>
      <trkpt lat="45.84025" lon="6.30904">
        <ele>1222.1</ele>
        <time>2022-01-06T08:05:11Z</time>
      </trkpt>
      <trkpt lat="45.84024" lon="6.30904">
        <ele>1222.1</ele>
        <time>2022-01-06T08:05:12Z</time>
      </trkpt>
      <trkpt lat="45.84024" lon="6.30905">
        <ele>1222.1</ele>
        <time>2022-01-06T08:05:13Z</time>
      </trkpt>
      <trkpt lat="45.84023" lon="6.30904">
        <ele>1222.1</ele>
        <time>2022-01-06T08:05:14Z</time>
      </trkpt>
      <trkpt lat="45.84023" lon="6.30903">
        <ele>1223</ele>
        <time>2022-01-06T08:05:15Z</time>
      </trkpt>
      <trkpt lat="45.84022" lon="6.30902">
        <ele>1223</ele>
        <time>2022-01-06T08:05:16Z</time>
      </trkpt>
      <trkpt lat="45.84022" lon="6.30902">
        <ele>1224.1</ele>
        <time>2022-01-06T08:05:17Z</time>
      </trkpt>
      <trkpt lat="45.84021" lon="6.30902">
        <ele>1224.1</ele>
        <time>2022-01-06T08:05:18Z</time>
      </trkpt>
      <trkpt lat="45.84021" lon="6.30902">
        <ele>1224.1</ele>
        <time>2022-01-06T08:05:19Z</time>
      </trkpt>
      <trkpt lat="45.8402" lon="6.30903">
        <ele>1224.1</ele>
        <time>2022-01-06T08:05:20Z</time>
      </trkpt>
      <trkpt lat="45.84019" lon="6.30902">
        <ele>1225.2</ele>
        <time>2022-01-06T08:05:21Z</time>
      </trkpt>
      <trkpt lat="45.84019" lon="6.30903">
        <ele>1225.2</ele>
        <time>2022-01-06T08:05:22Z</time>
      </trkpt>
      <trkpt lat="45.84018" lon="6.30903">
        <ele>1225.2</ele>
        <time>2022-01-06T08:05:23Z</time>
      </trkpt>
      <trkpt lat="45.84018" lon="6.30903">
        <ele>1225.2</ele>
        <time>2022-01-06T08:05:24Z</time>
      </trkpt>
      <trkpt lat="45.84017" lon="6.30903">
        <ele>1226.1</ele>
        <time>2022-01-06T08:05:25Z</time>
      </trkpt>
      <trkpt lat="45.84016" lon="6.30903">
        <ele>1226.1</ele>
        <time>2022-01-06T08:05:26Z</time>
      </trkpt>
      <trkpt lat="45.84015" lon="6.30903">
        <ele>1226.1</ele>
        <time>2022-01-06T08:05:27Z</time>
      </trkpt>
      <trkpt lat="45.84014" lon="6.30903">
        <ele>1226.1</ele>
        <time>2022-01-06T08:05:28Z</time>
      </trkpt>
      <trkpt lat="45.84013" lon="6.30903">
        <ele>1226.1</ele>
        <time>2022-01-06T08:05:29Z</time>
      </trkpt>
      <trkpt lat="45.84012" lon="6.30903">
        <ele>1226.1</ele>
        <time>2022-01-06T08:05:30Z</time>
      </trkpt>
      <trkpt lat="45.84011" lon="6.30903">
        <ele>1226.1</ele>
        <time>2022-01-06T08:05:31Z</time>
      </trkpt>
      <trkpt lat="45.84011" lon="6.30903">
        <ele>1226.1</ele>
        <time>2022-01-06T08:05:32Z</time>
      </trkpt>
      <trkpt lat="45.8401" lon="6.30903">
        <ele>1228.1</ele>
        <time>2022-01-06T08:05:33Z</time>
      </trkpt>
      <trkpt lat="45.8401" lon="6.30902">
        <ele>1228.1</ele>
        <time>2022-01-06T08:05:34Z</time>
      </trkpt>
      <trkpt lat="45.84009" lon="6.30902">
        <ele>1229.1</ele>
        <time>2022-01-06T08:05:35Z</time>
      </trkpt>
      <trkpt lat="45.84009" lon="6.30902">
        <ele>1229.1</ele>
        <time>2022-01-06T08:05:36Z</time>
      </trkpt>
      <trkpt lat="45.84008" lon="6.30902">
        <ele>1230</ele>
        <time>2022-01-06T08:05:37Z</time>
      </trkpt>
      <trkpt lat="45.84007" lon="6.30902">
        <ele>1230</ele>
        <time>2022-01-06T08:05:38Z</time>
      </trkpt>
      <trkpt lat="45.84007" lon="6.30901">
        <ele>1230</ele>
        <time>2022-01-06T08:05:39Z</time>
      </trkpt>
      <trkpt lat="45.84006" lon="6.30901">
        <ele>1230</ele>
        <time>2022-01-06T08:05:40Z</time>
      </trkpt>
      <trkpt lat="45.84006" lon="6.309">
        <ele>1231.1</ele>
        <time>2022-01-06T08:05:41Z</time>
      </trkpt>
      <trkpt lat="45.84006" lon="6.309">
        <ele>1231.1</ele>
        <time>2022-01-06T08:05:42Z</time>
      </trkpt>
      <trkpt lat="45.84006" lon="6.30899">
        <ele>1232</ele>
        <time>2022-01-06T08:05:43Z</time>
      </trkpt>
      <trkpt lat="45.84005" lon="6.30898">
        <ele>1232</ele>
        <time>2022-01-06T08:05:44Z</time>
      </trkpt>
      <trkpt lat="45.84004" lon="6.30897">
        <ele>1232</ele>
        <time>2022-01-06T08:05:45Z</time>
      </trkpt>
      <trkpt lat="45.84004" lon="6.30896">
        <ele>1232</ele>
        <time>2022-01-06T08:05:46Z</time>
      </trkpt>
      <trkpt lat="45.84004" lon="6.30896">
        <ele>1233.1</ele>
        <time>2022-01-06T08:05:47Z</time>
      </trkpt>
      <trkpt lat="45.84004" lon="6.30896">
        <ele>1233.1</ele>
        <time>2022-01-06T08:05:48Z</time>
      </trkpt>
      <trkpt lat="45.84003" lon="6.30896">
        <ele>1233.1</ele>
        <time>2022-01-06T08:05:49Z</time>
      </trkpt>
      <trkpt lat="45.84004" lon="6.30896">
        <ele>1233.1</ele>
        <time>2022-01-06T08:05:50Z</time>
      </trkpt>
      <trkpt lat="45.84004" lon="6.30895">
        <ele>1233.1</ele>
        <time>2022-01-06T08:05:51Z</time>
      </trkpt>
      <trkpt lat="45.84003" lon="6.30894">
        <ele>1233.1</ele>
        <time>2022-01-06T08:05:52Z</time>
      </trkpt>
      <trkpt lat="45.84002" lon="6.30893">
        <ele>1233.1</ele>
        <time>2022-01-06T08:05:53Z</time>
      </trkpt>
      <trkpt lat="45.84001" lon="6.30891">
        <ele>1233.1</ele>
        <time>2022-01-06T08:05:54Z</time>
      </trkpt>
      <trkpt lat="45.84001" lon="6.3089">
        <ele>1233.1</ele>
        <time>2022-01-06T08:05:55Z</time>
      </trkpt>
      <trkpt lat="45.84001" lon="6.30889">
        <ele>1233.1</ele>
        <time>2022-01-06T08:05:56Z</time>
      </trkpt>
      <trkpt lat="45.84" lon="6.30887">
        <ele>1233.1</ele>
        <time>2022-01-06T08:05:57Z</time>
      </trkpt>
      <trkpt lat="45.84" lon="6.30887">
        <ele>1233.1</ele>
        <time>2022-01-06T08:05:58Z</time>
      </trkpt>
      <trkpt lat="45.84" lon="6.30885">
        <ele>1236.1</ele>
        <time>2022-01-06T08:05:59Z</time>
      </trkpt>
      <trkpt lat="45.83999" lon="6.30885">
        <ele>1236.1</ele>
        <time>2022-01-06T08:06:00Z</time>
      </trkpt>
      <trkpt lat="45.83998" lon="6.30885">
        <ele>1236.1</ele>
        <time>2022-01-06T08:06:01Z</time>
      </trkpt>
      <trkpt lat="45.83998" lon="6.30885">
        <ele>1236.1</ele>
        <time>2022-01-06T08:06:02Z</time>
      </trkpt>
      <trkpt lat="45.83997" lon="6.30885">
        <ele>1236.1</ele>
        <time>2022-01-06T08:06:03Z</time>
      </trkpt>
      <trkpt lat="45.83996" lon="6.30885">
        <ele>1236.1</ele>
        <time>2022-01-06T08:06:04Z</time>
      </trkpt>
      <trkpt lat="45.83995" lon="6.30885">
        <ele>1237</ele>
        <time>2022-01-06T08:06:05Z</time>
      </trkpt>
      <trkpt lat="45.83995" lon="6.30885">
        <ele>1237</ele>
        <time>2022-01-06T08:06:06Z</time>
      </trkpt>
      <trkpt lat="45.83994" lon="6.30885">
        <ele>1238.1</ele>
        <time>2022-01-06T08:06:07Z</time>
      </trkpt>
      <trkpt lat="45.83994" lon="6.30885">
        <ele>1238.1</ele>
        <time>2022-01-06T08:06:08Z</time>
      </trkpt>
      <trkpt lat="45.83993" lon="6.30885">
        <ele>1238.1</ele>
        <time>2022-01-06T08:06:09Z</time>
      </trkpt>
      <trkpt lat="45.83992" lon="6.30884">
        <ele>1238.1</ele>
        <time>2022-01-06T08:06:10Z</time>
      </trkpt>
      <trkpt lat="45.83991" lon="6.30884">
        <ele>1239</ele>
        <time>2022-01-06T08:06:11Z</time>
      </trkpt>
      <trkpt lat="45.83991" lon="6.30883">
        <ele>1239</ele>
        <time>2022-01-06T08:06:12Z</time>
      </trkpt>
      <trkpt lat="45.8399" lon="6.30883">
        <ele>1239</ele>
        <time>2022-01-06T08:06:13Z</time>
      </trkpt>
      <trkpt lat="45.83989" lon="6.30883">
        <ele>1239</ele>
        <time>2022-01-06T08:06:14Z</time>
      </trkpt>
      <trkpt lat="45.83988" lon="6.30884">
        <ele>1240.1</ele>
        <time>2022-01-06T08:06:15Z</time>
      </trkpt>
      <trkpt lat="45.83988" lon="6.30884">
        <ele>1240.1</ele>
        <time>2022-01-06T08:06:16Z</time>
      </trkpt>
      <trkpt lat="45.83987" lon="6.30884">
        <ele>1240.1</ele>
        <time>2022-01-06T08:06:17Z</time>
      </trkpt>
      <trkpt lat="45.83987" lon="6.30884">
        <ele>1240.1</ele>
        <time>2022-01-06T08:06:18Z</time>
      </trkpt>
      <trkpt lat="45.83987" lon="6.30883">
        <ele>1242.1</ele>
        <time>2022-01-06T08:06:19Z</time>
      </trkpt>
      <trkpt lat="45.83987" lon="6.30882">
        <ele>1242.1</ele>
        <time>2022-01-06T08:06:20Z</time>
      </trkpt>
      <trkpt lat="45.83987" lon="6.30882">
        <ele>1242.1</ele>
        <time>2022-01-06T08:06:21Z</time>
      </trkpt>
      <trkpt lat="45.83987" lon="6.30881">
        <ele>1242.1</ele>
        <time>2022-01-06T08:06:22Z</time>
      </trkpt>
      <trkpt lat="45.83987" lon="6.3088">
        <ele>1242.1</ele>
        <time>2022-01-06T08:06:23Z</time>
      </trkpt>
      <trkpt lat="45.83987" lon="6.30878">
        <ele>1242.1</ele>
        <time>2022-01-06T08:06:24Z</time>
      </trkpt>
      <trkpt lat="45.83987" lon="6.30876">
        <ele>1243.1</ele>
        <time>2022-01-06T08:06:25Z</time>
      </trkpt>
      <trkpt lat="45.83988" lon="6.30875">
        <ele>1243.1</ele>
        <time>2022-01-06T08:06:26Z</time>
      </trkpt>
      <trkpt lat="45.83988" lon="6.30874">
        <ele>1243.1</ele>
        <time>2022-01-06T08:06:27Z</time>
      </trkpt>
      <trkpt lat="45.83987" lon="6.30873">
        <ele>1243.1</ele>
        <time>2022-01-06T08:06:28Z</time>
      </trkpt>
      <trkpt lat="45.83987" lon="6.30872">
        <ele>1243.1</ele>
        <time>2022-01-06T08:06:29Z</time>
      </trkpt>
      <trkpt lat="45.83987" lon="6.30872">
        <ele>1243.1</ele>
        <time>2022-01-06T08:06:30Z</time>
      </trkpt>
      <trkpt lat="45.83986" lon="6.30871">
        <ele>1244.1</ele>
        <time>2022-01-06T08:06:31Z</time>
      </trkpt>
      <trkpt lat="45.83986" lon="6.3087">
        <ele>1244.1</ele>
        <time>2022-01-06T08:06:32Z</time>
      </trkpt>
      <trkpt lat="45.83985" lon="6.30869">
        <ele>1244.1</ele>
        <time>2022-01-06T08:06:33Z</time>
      </trkpt>
      <trkpt lat="45.83985" lon="6.30867">
        <ele>1244.1</ele>
        <time>2022-01-06T08:06:34Z</time>
      </trkpt>
      <trkpt lat="45.83984" lon="6.30867">
        <ele>1245.1</ele>
        <time>2022-01-06T08:06:35Z</time>
      </trkpt>
      <trkpt lat="45.83984" lon="6.30866">
        <ele>1245.1</ele>
        <time>2022-01-06T08:06:36Z</time>
      </trkpt>
      <trkpt lat="45.83985" lon="6.30864">
        <ele>1245.1</ele>
        <time>2022-01-06T08:06:37Z</time>
      </trkpt>
      <trkpt lat="45.83984" lon="6.30864">
        <ele>1245.1</ele>
        <time>2022-01-06T08:06:38Z</time>
      </trkpt>
      <trkpt lat="45.83985" lon="6.30863">
        <ele>1245.1</ele>
        <time>2022-01-06T08:06:39Z</time>
      </trkpt>
      <trkpt lat="45.83986" lon="6.30862">
        <ele>1246</ele>
        <time>2022-01-06T08:06:40Z</time>
      </trkpt>
      <trkpt lat="45.83986" lon="6.30861">
        <ele>1246</ele>
        <time>2022-01-06T08:06:41Z</time>
      </trkpt>
      <trkpt lat="45.83986" lon="6.30861">
        <ele>1246</ele>
        <time>2022-01-06T08:06:42Z</time>
      </trkpt>
      <trkpt lat="45.83986" lon="6.3086">
        <ele>1246</ele>
        <time>2022-01-06T08:06:43Z</time>
      </trkpt>
      <trkpt lat="45.83985" lon="6.30861">
        <ele>1246</ele>
        <time>2022-01-06T08:06:44Z</time>
      </trkpt>
      <trkpt lat="45.83985" lon="6.30861">
        <ele>1246</ele>
        <time>2022-01-06T08:06:45Z</time>
      </trkpt>
      <trkpt lat="45.83984" lon="6.30861">
        <ele>1247.1</ele>
        <time>2022-01-06T08:06:46Z</time>
      </trkpt>
      <trkpt lat="45.83983" lon="6.3086">
        <ele>1247.1</ele>
        <time>2022-01-06T08:06:47Z</time>
      </trkpt>
      <trkpt lat="45.83983" lon="6.30859">
        <ele>1247.1</ele>
        <time>2022-01-06T08:06:48Z</time>
      </trkpt>
      <trkpt lat="45.83982" lon="6.30859">
        <ele>1247.1</ele>
        <time>2022-01-06T08:06:49Z</time>
      </trkpt>
      <trkpt lat="45.83982" lon="6.30858">
        <ele>1248</ele>
        <time>2022-01-06T08:06:50Z</time>
      </trkpt>
      <trkpt lat="45.83982" lon="6.30858">
        <ele>1248</ele>
        <time>2022-01-06T08:06:51Z</time>
      </trkpt>
      <trkpt lat="45.83982" lon="6.30857">
        <ele>1249.1</ele>
        <time>2022-01-06T08:06:52Z</time>
      </trkpt>
      <trkpt lat="45.83982" lon="6.30857">
        <ele>1249.1</ele>
        <time>2022-01-06T08:06:53Z</time>
      </trkpt>
      <trkpt lat="45.83982" lon="6.30855">
        <ele>1249.1</ele>
        <time>2022-01-06T08:06:54Z</time>
      </trkpt>
      <trkpt lat="45.83981" lon="6.30855">
        <ele>1249.1</ele>
        <time>2022-01-06T08:06:55Z</time>
      </trkpt>
      <trkpt lat="45.8398" lon="6.30854">
        <ele>1249.1</ele>
        <time>2022-01-06T08:06:56Z</time>
      </trkpt>
      <trkpt lat="45.8398" lon="6.30853">
        <ele>1249.1</ele>
        <time>2022-01-06T08:06:57Z</time>
      </trkpt>
      <trkpt lat="45.83979" lon="6.30853">
        <ele>1250.2</ele>
        <time>2022-01-06T08:06:58Z</time>
      </trkpt>
      <trkpt lat="45.83979" lon="6.30852">
        <ele>1250.2</ele>
        <time>2022-01-06T08:06:59Z</time>
      </trkpt>
      <trkpt lat="45.83978" lon="6.30851">
        <ele>1250.2</ele>
        <time>2022-01-06T08:07:00Z</time>
      </trkpt>
      <trkpt lat="45.83978" lon="6.30851">
        <ele>1250.2</ele>
        <time>2022-01-06T08:07:01Z</time>
      </trkpt>
      <trkpt lat="45.83977" lon="6.3085">
        <ele>1250.2</ele>
        <time>2022-01-06T08:07:02Z</time>
      </trkpt>
      <trkpt lat="45.83977" lon="6.30849">
        <ele>1250.2</ele>
        <time>2022-01-06T08:07:03Z</time>
      </trkpt>
      <trkpt lat="45.83977" lon="6.30849">
        <ele>1251.1</ele>
        <time>2022-01-06T08:07:04Z</time>
      </trkpt>
      <trkpt lat="45.83976" lon="6.3085">
        <ele>1251.1</ele>
        <time>2022-01-06T08:07:05Z</time>
      </trkpt>
      <trkpt lat="45.83976" lon="6.3085">
        <ele>1251.1</ele>
        <time>2022-01-06T08:07:06Z</time>
      </trkpt>
      <trkpt lat="45.83976" lon="6.30849">
        <ele>1251.1</ele>
        <time>2022-01-06T08:07:07Z</time>
      </trkpt>
      <trkpt lat="45.83975" lon="6.30849">
        <ele>1252.1</ele>
        <time>2022-01-06T08:07:08Z</time>
      </trkpt>
      <trkpt lat="45.83975" lon="6.30848">
        <ele>1252.1</ele>
        <time>2022-01-06T08:07:09Z</time>
      </trkpt>
      <trkpt lat="45.83973" lon="6.30848">
        <ele>1252.1</ele>
        <time>2022-01-06T08:07:10Z</time>
      </trkpt>
      <trkpt lat="45.83972" lon="6.30846">
        <ele>1252.1</ele>
        <time>2022-01-06T08:07:11Z</time>
      </trkpt>
      <trkpt lat="45.83971" lon="6.30845">
        <ele>1252.1</ele>
        <time>2022-01-06T08:07:12Z</time>
      </trkpt>
      <trkpt lat="45.83971" lon="6.30844">
        <ele>1252.1</ele>
        <time>2022-01-06T08:07:13Z</time>
      </trkpt>
      <trkpt lat="45.8397" lon="6.30844">
        <ele>1252.1</ele>
        <time>2022-01-06T08:07:14Z</time>
      </trkpt>
      <trkpt lat="45.83969" lon="6.30845">
        <ele>1252.1</ele>
        <time>2022-01-06T08:07:15Z</time>
      </trkpt>
      <trkpt lat="45.83968" lon="6.30845">
        <ele>1254.1</ele>
        <time>2022-01-06T08:07:16Z</time>
      </trkpt>
      <trkpt lat="45.83967" lon="6.30845">
        <ele>1254.1</ele>
        <time>2022-01-06T08:07:17Z</time>
      </trkpt>
      <trkpt lat="45.83967" lon="6.30845">
        <ele>1254.1</ele>
        <time>2022-01-06T08:07:18Z</time>
      </trkpt>
      <trkpt lat="45.83966" lon="6.30844">
        <ele>1254.1</ele>
        <time>2022-01-06T08:07:19Z</time>
      </trkpt>
      <trkpt lat="45.83965" lon="6.30844">
        <ele>1255</ele>
        <time>2022-01-06T08:07:20Z</time>
      </trkpt>
      <trkpt lat="45.83965" lon="6.30844">
        <ele>1255</ele>
        <time>2022-01-06T08:07:21Z</time>
      </trkpt>
      <trkpt lat="45.83965" lon="6.30844">
        <ele>1255</ele>
        <time>2022-01-06T08:07:22Z</time>
      </trkpt>
      <trkpt lat="45.83964" lon="6.30844">
        <ele>1255</ele>
        <time>2022-01-06T08:07:23Z</time>
      </trkpt>
      <trkpt lat="45.83964" lon="6.30843">
        <ele>1256.1</ele>
        <time>2022-01-06T08:07:24Z</time>
      </trkpt>
      <trkpt lat="45.83964" lon="6.30842">
        <ele>1256.1</ele>
        <time>2022-01-06T08:07:25Z</time>
      </trkpt>
      <trkpt lat="45.83964" lon="6.30842">
        <ele>1257</ele>
        <time>2022-01-06T08:07:26Z</time>
      </trkpt>
      <trkpt lat="45.83963" lon="6.30841">
        <ele>1257</ele>
        <time>2022-01-06T08:07:27Z</time>
      </trkpt>
      <trkpt lat="45.83963" lon="6.30841">
        <ele>1257</ele>
        <time>2022-01-06T08:07:28Z</time>
      </trkpt>
      <trkpt lat="45.83963" lon="6.30841">
        <ele>1257</ele>
        <time>2022-01-06T08:07:29Z</time>
      </trkpt>
      <trkpt lat="45.83962" lon="6.3084">
        <ele>1258.1</ele>
        <time>2022-01-06T08:07:30Z</time>
      </trkpt>
      <trkpt lat="45.83962" lon="6.3084">
        <ele>1258.1</ele>
        <time>2022-01-06T08:07:31Z</time>
      </trkpt>
      <trkpt lat="45.83961" lon="6.30839">
        <ele>1258.1</ele>
        <time>2022-01-06T08:07:32Z</time>
      </trkpt>
      <trkpt lat="45.83961" lon="6.30839">
        <ele>1258.1</ele>
        <time>2022-01-06T08:07:33Z</time>
      </trkpt>
      <trkpt lat="45.83961" lon="6.30838">
        <ele>1259.1</ele>
        <time>2022-01-06T08:07:34Z</time>
      </trkpt>
      <trkpt lat="45.83961" lon="6.30837">
        <ele>1259.1</ele>
        <time>2022-01-06T08:07:35Z</time>
      </trkpt>
      <trkpt lat="45.8396" lon="6.30837">
        <ele>1259.1</ele>
        <time>2022-01-06T08:07:36Z</time>
      </trkpt>
      <trkpt lat="45.8396" lon="6.30837">
        <ele>1259.1</ele>
        <time>2022-01-06T08:07:37Z</time>
      </trkpt>
      <trkpt lat="45.8396" lon="6.30836">
        <ele>1260.1</ele>
        <time>2022-01-06T08:07:38Z</time>
      </trkpt>
      <trkpt lat="45.83959" lon="6.30836">
        <ele>1260.1</ele>
        <time>2022-01-06T08:07:39Z</time>
      </trkpt>
      <trkpt lat="45.83959" lon="6.30835">
        <ele>1261.1</ele>
        <time>2022-01-06T08:07:40Z</time>
      </trkpt>
      <trkpt lat="45.83959" lon="6.30834">
        <ele>1261.1</ele>
        <time>2022-01-06T08:07:41Z</time>
      </trkpt>
      <trkpt lat="45.83959" lon="6.30833">
        <ele>1261.1</ele>
        <time>2022-01-06T08:07:42Z</time>
      </trkpt>
      <trkpt lat="45.83958" lon="6.30832">
        <ele>1261.1</ele>
        <time>2022-01-06T08:07:43Z</time>
      </trkpt>
      <trkpt lat="45.83958" lon="6.30831">
        <ele>1262</ele>
        <time>2022-01-06T08:07:44Z</time>
      </trkpt>
      <trkpt lat="45.83958" lon="6.3083">
        <ele>1262</ele>
        <time>2022-01-06T08:07:45Z</time>
      </trkpt>
      <trkpt lat="45.83957" lon="6.30828">
        <ele>1262</ele>
        <time>2022-01-06T08:07:46Z</time>
      </trkpt>
      <trkpt lat="45.83957" lon="6.30827">
        <ele>1262</ele>
        <time>2022-01-06T08:07:47Z</time>
      </trkpt>
      <trkpt lat="45.83957" lon="6.30826">
        <ele>1262</ele>
        <time>2022-01-06T08:07:48Z</time>
      </trkpt>
      <trkpt lat="45.83957" lon="6.30825">
        <ele>1262</ele>
        <time>2022-01-06T08:07:49Z</time>
      </trkpt>
      <trkpt lat="45.83957" lon="6.30825">
        <ele>1262</ele>
        <time>2022-01-06T08:07:50Z</time>
      </trkpt>
      <trkpt lat="45.83956" lon="6.30824">
        <ele>1262</ele>
        <time>2022-01-06T08:07:51Z</time>
      </trkpt>
      <trkpt lat="45.83956" lon="6.30823">
        <ele>1263.1</ele>
        <time>2022-01-06T08:07:52Z</time>
      </trkpt>
      <trkpt lat="45.83956" lon="6.30822">
        <ele>1263.1</ele>
        <time>2022-01-06T08:07:53Z</time>
      </trkpt>
      <trkpt lat="45.83956" lon="6.30821">
        <ele>1263.1</ele>
        <time>2022-01-06T08:07:54Z</time>
      </trkpt>
      <trkpt lat="45.83956" lon="6.3082">
        <ele>1263.1</ele>
        <time>2022-01-06T08:07:55Z</time>
      </trkpt>
      <trkpt lat="45.83956" lon="6.30819">
        <ele>1263.1</ele>
        <time>2022-01-06T08:07:56Z</time>
      </trkpt>
      <trkpt lat="45.83956" lon="6.30818">
        <ele>1263.1</ele>
        <time>2022-01-06T08:07:57Z</time>
      </trkpt>
      <trkpt lat="45.83956" lon="6.30817">
        <ele>1263.1</ele>
        <time>2022-01-06T08:07:58Z</time>
      </trkpt>
      <trkpt lat="45.83957" lon="6.30817">
        <ele>1263.1</ele>
        <time>2022-01-06T08:07:59Z</time>
      </trkpt>
      <trkpt lat="45.83956" lon="6.30816">
        <ele>1265.1</ele>
        <time>2022-01-06T08:08:00Z</time>
      </trkpt>
      <trkpt lat="45.83957" lon="6.30816">
        <ele>1265.1</ele>
        <time>2022-01-06T08:08:01Z</time>
      </trkpt>
      <trkpt lat="45.83956" lon="6.30816">
        <ele>1266.2</ele>
        <time>2022-01-06T08:08:02Z</time>
      </trkpt>
      <trkpt lat="45.83956" lon="6.30815">
        <ele>1266.2</ele>
        <time>2022-01-06T08:08:03Z</time>
      </trkpt>
      <trkpt lat="45.83955" lon="6.30814">
        <ele>1266.2</ele>
        <time>2022-01-06T08:08:04Z</time>
      </trkpt>
      <trkpt lat="45.83955" lon="6.30813">
        <ele>1266.2</ele>
        <time>2022-01-06T08:08:05Z</time>
      </trkpt>
      <trkpt lat="45.83956" lon="6.30812">
        <ele>1267.1</ele>
        <time>2022-01-06T08:08:06Z</time>
      </trkpt>
      <trkpt lat="45.83957" lon="6.30811">
        <ele>1267.1</ele>
        <time>2022-01-06T08:08:07Z</time>
      </trkpt>
      <trkpt lat="45.83957" lon="6.30809">
        <ele>1267.1</ele>
        <time>2022-01-06T08:08:08Z</time>
      </trkpt>
      <trkpt lat="45.83958" lon="6.30807">
        <ele>1267.1</ele>
        <time>2022-01-06T08:08:09Z</time>
      </trkpt>
      <trkpt lat="45.83958" lon="6.30805">
        <ele>1267.1</ele>
        <time>2022-01-06T08:08:10Z</time>
      </trkpt>
      <trkpt lat="45.83959" lon="6.30804">
        <ele>1267.1</ele>
        <time>2022-01-06T08:08:11Z</time>
      </trkpt>
      <trkpt lat="45.83959" lon="6.30803">
        <ele>1268.1</ele>
        <time>2022-01-06T08:08:12Z</time>
      </trkpt>
      <trkpt lat="45.83959" lon="6.30802">
        <ele>1268.1</ele>
        <time>2022-01-06T08:08:13Z</time>
      </trkpt>
      <trkpt lat="45.83958" lon="6.30801">
        <ele>1268.1</ele>
        <time>2022-01-06T08:08:14Z</time>
      </trkpt>
      <trkpt lat="45.83958" lon="6.308">
        <ele>1268.1</ele>
        <time>2022-01-06T08:08:15Z</time>
      </trkpt>
      <trkpt lat="45.83958" lon="6.308">
        <ele>1269.1</ele>
        <time>2022-01-06T08:08:16Z</time>
      </trkpt>
      <trkpt lat="45.83957" lon="6.30799">
        <ele>1269.1</ele>
        <time>2022-01-06T08:08:17Z</time>
      </trkpt>
      <trkpt lat="45.83956" lon="6.30798">
        <ele>1269.1</ele>
        <time>2022-01-06T08:08:18Z</time>
      </trkpt>
      <trkpt lat="45.83956" lon="6.30797">
        <ele>1269.1</ele>
        <time>2022-01-06T08:08:19Z</time>
      </trkpt>
      <trkpt lat="45.83956" lon="6.30796">
        <ele>1270.1</ele>
        <time>2022-01-06T08:08:20Z</time>
      </trkpt>
      <trkpt lat="45.83956" lon="6.30795">
        <ele>1270.1</ele>
        <time>2022-01-06T08:08:21Z</time>
      </trkpt>
      <trkpt lat="45.83956" lon="6.30794">
        <ele>1270.1</ele>
        <time>2022-01-06T08:08:22Z</time>
      </trkpt>
      <trkpt lat="45.83955" lon="6.30794">
        <ele>1270.1</ele>
        <time>2022-01-06T08:08:23Z</time>
      </trkpt>
      <trkpt lat="45.83955" lon="6.30794">
        <ele>1270.1</ele>
        <time>2022-01-06T08:08:24Z</time>
      </trkpt>
      <trkpt lat="45.83954" lon="6.30795">
        <ele>1270.1</ele>
        <time>2022-01-06T08:08:25Z</time>
      </trkpt>
      <trkpt lat="45.83954" lon="6.30795">
        <ele>1271</ele>
        <time>2022-01-06T08:08:26Z</time>
      </trkpt>
      <trkpt lat="45.83953" lon="6.30795">
        <ele>1271</ele>
        <time>2022-01-06T08:08:27Z</time>
      </trkpt>
      <trkpt lat="45.83953" lon="6.30795">
        <ele>1271</ele>
        <time>2022-01-06T08:08:28Z</time>
      </trkpt>
      <trkpt lat="45.83952" lon="6.30796">
        <ele>1271</ele>
        <time>2022-01-06T08:08:29Z</time>
      </trkpt>
      <trkpt lat="45.83951" lon="6.30797">
        <ele>1271</ele>
        <time>2022-01-06T08:08:30Z</time>
      </trkpt>
      <trkpt lat="45.83951" lon="6.30797">
        <ele>1271</ele>
        <time>2022-01-06T08:08:31Z</time>
      </trkpt>
      <trkpt lat="45.83951" lon="6.30798">
        <ele>1272.1</ele>
        <time>2022-01-06T08:08:32Z</time>
      </trkpt>
      <trkpt lat="45.8395" lon="6.30798">
        <ele>1272.1</ele>
        <time>2022-01-06T08:08:33Z</time>
      </trkpt>
      <trkpt lat="45.83949" lon="6.30798">
        <ele>1272.1</ele>
        <time>2022-01-06T08:08:34Z</time>
      </trkpt>
      <trkpt lat="45.83949" lon="6.30799">
        <ele>1272.1</ele>
        <time>2022-01-06T08:08:35Z</time>
      </trkpt>
      <trkpt lat="45.83948" lon="6.30799">
        <ele>1273</ele>
        <time>2022-01-06T08:08:36Z</time>
      </trkpt>
      <trkpt lat="45.83948" lon="6.30797">
        <ele>1273</ele>
        <time>2022-01-06T08:08:37Z</time>
      </trkpt>
      <trkpt lat="45.83947" lon="6.30796">
        <ele>1273</ele>
        <time>2022-01-06T08:08:38Z</time>
      </trkpt>
      <trkpt lat="45.83946" lon="6.30796">
        <ele>1273</ele>
        <time>2022-01-06T08:08:39Z</time>
      </trkpt>
      <trkpt lat="45.83945" lon="6.30795">
        <ele>1274.1</ele>
        <time>2022-01-06T08:08:40Z</time>
      </trkpt>
      <trkpt lat="45.83945" lon="6.30795">
        <ele>1274.1</ele>
        <time>2022-01-06T08:08:41Z</time>
      </trkpt>
      <trkpt lat="45.83944" lon="6.30795">
        <ele>1274.1</ele>
        <time>2022-01-06T08:08:42Z</time>
      </trkpt>
      <trkpt lat="45.83944" lon="6.30795">
        <ele>1274.1</ele>
        <time>2022-01-06T08:08:43Z</time>
      </trkpt>
      <trkpt lat="45.83944" lon="6.30796">
        <ele>1275.1</ele>
        <time>2022-01-06T08:08:44Z</time>
      </trkpt>
      <trkpt lat="45.83943" lon="6.30797">
        <ele>1275.1</ele>
        <time>2022-01-06T08:08:45Z</time>
      </trkpt>
      <trkpt lat="45.83942" lon="6.30798">
        <ele>1275.1</ele>
        <time>2022-01-06T08:08:46Z</time>
      </trkpt>
      <trkpt lat="45.83942" lon="6.30798">
        <ele>1275.1</ele>
        <time>2022-01-06T08:08:47Z</time>
      </trkpt>
      <trkpt lat="45.83941" lon="6.30799">
        <ele>1276.1</ele>
        <time>2022-01-06T08:08:48Z</time>
      </trkpt>
      <trkpt lat="45.8394" lon="6.30799">
        <ele>1276.1</ele>
        <time>2022-01-06T08:08:49Z</time>
      </trkpt>
      <trkpt lat="45.8394" lon="6.30799">
        <ele>1276.1</ele>
        <time>2022-01-06T08:08:50Z</time>
      </trkpt>
      <trkpt lat="45.83939" lon="6.30798">
        <ele>1276.1</ele>
        <time>2022-01-06T08:08:51Z</time>
      </trkpt>
      <trkpt lat="45.83938" lon="6.30798">
        <ele>1277.1</ele>
        <time>2022-01-06T08:08:52Z</time>
      </trkpt>
      <trkpt lat="45.83937" lon="6.30798">
        <ele>1277.1</ele>
        <time>2022-01-06T08:08:53Z</time>
      </trkpt>
      <trkpt lat="45.83936" lon="6.30798">
        <ele>1277.1</ele>
        <time>2022-01-06T08:08:54Z</time>
      </trkpt>
      <trkpt lat="45.83936" lon="6.30797">
        <ele>1277.1</ele>
        <time>2022-01-06T08:08:55Z</time>
      </trkpt>
      <trkpt lat="45.83935" lon="6.30798">
        <ele>1278</ele>
        <time>2022-01-06T08:08:56Z</time>
      </trkpt>
      <trkpt lat="45.83934" lon="6.30798">
        <ele>1278</ele>
        <time>2022-01-06T08:08:57Z</time>
      </trkpt>
      <trkpt lat="45.83934" lon="6.30798">
        <ele>1278</ele>
        <time>2022-01-06T08:08:58Z</time>
      </trkpt>
      <trkpt lat="45.83933" lon="6.30799">
        <ele>1278</ele>
        <time>2022-01-06T08:08:59Z</time>
      </trkpt>
      <trkpt lat="45.83932" lon="6.30799">
        <ele>1278</ele>
        <time>2022-01-06T08:09:00Z</time>
      </trkpt>
      <trkpt lat="45.83932" lon="6.30799">
        <ele>1278</ele>
        <time>2022-01-06T08:09:01Z</time>
      </trkpt>
      <trkpt lat="45.83931" lon="6.308">
        <ele>1279.1</ele>
        <time>2022-01-06T08:09:02Z</time>
      </trkpt>
      <trkpt lat="45.83931" lon="6.308">
        <ele>1279.1</ele>
        <time>2022-01-06T08:09:03Z</time>
      </trkpt>
      <trkpt lat="45.8393" lon="6.30801">
        <ele>1279.1</ele>
        <time>2022-01-06T08:09:04Z</time>
      </trkpt>
      <trkpt lat="45.8393" lon="6.30802">
        <ele>1279.1</ele>
        <time>2022-01-06T08:09:05Z</time>
      </trkpt>
      <trkpt lat="45.83929" lon="6.30803">
        <ele>1279.1</ele>
        <time>2022-01-06T08:09:06Z</time>
      </trkpt>
      <trkpt lat="45.83928" lon="6.30803">
        <ele>1279.1</ele>
        <time>2022-01-06T08:09:07Z</time>
      </trkpt>
      <trkpt lat="45.83927" lon="6.30802">
        <ele>1280</ele>
        <time>2022-01-06T08:09:08Z</time>
      </trkpt>
      <trkpt lat="45.83926" lon="6.30802">
        <ele>1280</ele>
        <time>2022-01-06T08:09:09Z</time>
      </trkpt>
      <trkpt lat="45.83926" lon="6.30802">
        <ele>1281.1</ele>
        <time>2022-01-06T08:09:10Z</time>
      </trkpt>
      <trkpt lat="45.83925" lon="6.30802">
        <ele>1281.1</ele>
        <time>2022-01-06T08:09:11Z</time>
      </trkpt>
      <trkpt lat="45.83926" lon="6.30803">
        <ele>1281.1</ele>
        <time>2022-01-06T08:09:12Z</time>
      </trkpt>
      <trkpt lat="45.83926" lon="6.30803">
        <ele>1281.1</ele>
        <time>2022-01-06T08:09:13Z</time>
      </trkpt>
      <trkpt lat="45.83925" lon="6.30804">
        <ele>1282.2</ele>
        <time>2022-01-06T08:09:14Z</time>
      </trkpt>
      <trkpt lat="45.83925" lon="6.30804">
        <ele>1282.2</ele>
        <time>2022-01-06T08:09:15Z</time>
      </trkpt>
      <trkpt lat="45.83924" lon="6.30805">
        <ele>1282.2</ele>
        <time>2022-01-06T08:09:16Z</time>
      </trkpt>
      <trkpt lat="45.83924" lon="6.30806">
        <ele>1282.2</ele>
        <time>2022-01-06T08:09:17Z</time>
      </trkpt>
      <trkpt lat="45.83923" lon="6.30806">
        <ele>1283.1</ele>
        <time>2022-01-06T08:09:18Z</time>
      </trkpt>
      <trkpt lat="45.83923" lon="6.30807">
        <ele>1283.1</ele>
        <time>2022-01-06T08:09:19Z</time>
      </trkpt>
      <trkpt lat="45.83922" lon="6.30807">
        <ele>1283.1</ele>
        <time>2022-01-06T08:09:20Z</time>
      </trkpt>
      <trkpt lat="45.83921" lon="6.30807">
        <ele>1283.1</ele>
        <time>2022-01-06T08:09:21Z</time>
      </trkpt>
      <trkpt lat="45.8392" lon="6.30806">
        <ele>1284.1</ele>
        <time>2022-01-06T08:09:22Z</time>
      </trkpt>
      <trkpt lat="45.8392" lon="6.30806">
        <ele>1284.1</ele>
        <time>2022-01-06T08:09:23Z</time>
      </trkpt>
      <trkpt lat="45.83919" lon="6.30806">
        <ele>1284.1</ele>
        <time>2022-01-06T08:09:24Z</time>
      </trkpt>
      <trkpt lat="45.83919" lon="6.30807">
        <ele>1284.1</ele>
        <time>2022-01-06T08:09:25Z</time>
      </trkpt>
      <trkpt lat="45.83918" lon="6.30807">
        <ele>1285.1</ele>
        <time>2022-01-06T08:09:26Z</time>
      </trkpt>
      <trkpt lat="45.83918" lon="6.30808">
        <ele>1285.1</ele>
        <time>2022-01-06T08:09:27Z</time>
      </trkpt>
      <trkpt lat="45.83918" lon="6.30808">
        <ele>1285.1</ele>
        <time>2022-01-06T08:09:28Z</time>
      </trkpt>
      <trkpt lat="45.83918" lon="6.30809">
        <ele>1285.1</ele>
        <time>2022-01-06T08:09:29Z</time>
      </trkpt>
      <trkpt lat="45.83917" lon="6.30809">
        <ele>1285.1</ele>
        <time>2022-01-06T08:09:30Z</time>
      </trkpt>
      <trkpt lat="45.83917" lon="6.3081">
        <ele>1285.1</ele>
        <time>2022-01-06T08:09:31Z</time>
      </trkpt>
      <trkpt lat="45.83916" lon="6.30811">
        <ele>1286.1</ele>
        <time>2022-01-06T08:09:32Z</time>
      </trkpt>
      <trkpt lat="45.83916" lon="6.30812">
        <ele>1286.1</ele>
        <time>2022-01-06T08:09:33Z</time>
      </trkpt>
      <trkpt lat="45.83915" lon="6.30812">
        <ele>1287</ele>
        <time>2022-01-06T08:09:34Z</time>
      </trkpt>
      <trkpt lat="45.83914" lon="6.30813">
        <ele>1287</ele>
        <time>2022-01-06T08:09:35Z</time>
      </trkpt>
      <trkpt lat="45.83913" lon="6.30814">
        <ele>1287</ele>
        <time>2022-01-06T08:09:36Z</time>
      </trkpt>
      <trkpt lat="45.83913" lon="6.30815">
        <ele>1287</ele>
        <time>2022-01-06T08:09:37Z</time>
      </trkpt>
      <trkpt lat="45.83912" lon="6.30816">
        <ele>1287</ele>
        <time>2022-01-06T08:09:38Z</time>
      </trkpt>
      <trkpt lat="45.83912" lon="6.30818">
        <ele>1287</ele>
        <time>2022-01-06T08:09:39Z</time>
      </trkpt>
      <trkpt lat="45.83911" lon="6.30819">
        <ele>1288.1</ele>
        <time>2022-01-06T08:09:40Z</time>
      </trkpt>
      <trkpt lat="45.8391" lon="6.30819">
        <ele>1288.1</ele>
        <time>2022-01-06T08:09:41Z</time>
      </trkpt>
      <trkpt lat="45.83909" lon="6.3082">
        <ele>1288.1</ele>
        <time>2022-01-06T08:09:42Z</time>
      </trkpt>
      <trkpt lat="45.83908" lon="6.30821">
        <ele>1288.1</ele>
        <time>2022-01-06T08:09:43Z</time>
      </trkpt>
      <trkpt lat="45.83907" lon="6.30821">
        <ele>1289</ele>
        <time>2022-01-06T08:09:44Z</time>
      </trkpt>
      <trkpt lat="45.83907" lon="6.30821">
        <ele>1289</ele>
        <time>2022-01-06T08:09:45Z</time>
      </trkpt>
      <trkpt lat="45.83906" lon="6.3082">
        <ele>1289</ele>
        <time>2022-01-06T08:09:46Z</time>
      </trkpt>
      <trkpt lat="45.83906" lon="6.30819">
        <ele>1289</ele>
        <time>2022-01-06T08:09:47Z</time>
      </trkpt>
      <trkpt lat="45.83906" lon="6.30819">
        <ele>1290.1</ele>
        <time>2022-01-06T08:09:48Z</time>
      </trkpt>
      <trkpt lat="45.83906" lon="6.30817">
        <ele>1290.1</ele>
        <time>2022-01-06T08:09:49Z</time>
      </trkpt>
      <trkpt lat="45.83905" lon="6.30816">
        <ele>1291.1</ele>
        <time>2022-01-06T08:09:50Z</time>
      </trkpt>
      <trkpt lat="45.83905" lon="6.30815">
        <ele>1291.1</ele>
        <time>2022-01-06T08:09:51Z</time>
      </trkpt>
      <trkpt lat="45.83905" lon="6.30814">
        <ele>1291.1</ele>
        <time>2022-01-06T08:09:52Z</time>
      </trkpt>
      <trkpt lat="45.83904" lon="6.30813">
        <ele>1291.1</ele>
        <time>2022-01-06T08:09:53Z</time>
      </trkpt>
      <trkpt lat="45.83904" lon="6.30813">
        <ele>1292.1</ele>
        <time>2022-01-06T08:09:54Z</time>
      </trkpt>
      <trkpt lat="45.83903" lon="6.30812">
        <ele>1292.1</ele>
        <time>2022-01-06T08:09:55Z</time>
      </trkpt>
      <trkpt lat="45.83903" lon="6.30811">
        <ele>1293.1</ele>
        <time>2022-01-06T08:09:56Z</time>
      </trkpt>
      <trkpt lat="45.83903" lon="6.30811">
        <ele>1293.1</ele>
        <time>2022-01-06T08:09:57Z</time>
      </trkpt>
      <trkpt lat="45.83902" lon="6.3081">
        <ele>1293.1</ele>
        <time>2022-01-06T08:09:58Z</time>
      </trkpt>
      <trkpt lat="45.83902" lon="6.30808">
        <ele>1293.1</ele>
        <time>2022-01-06T08:09:59Z</time>
      </trkpt>
      <trkpt lat="45.83901" lon="6.30807">
        <ele>1293.1</ele>
        <time>2022-01-06T08:10:00Z</time>
      </trkpt>
      <trkpt lat="45.83901" lon="6.30806">
        <ele>1293.1</ele>
        <time>2022-01-06T08:10:01Z</time>
      </trkpt>
      <trkpt lat="45.839" lon="6.30805">
        <ele>1293.1</ele>
        <time>2022-01-06T08:10:02Z</time>
      </trkpt>
      <trkpt lat="45.839" lon="6.30805">
        <ele>1293.1</ele>
        <time>2022-01-06T08:10:03Z</time>
      </trkpt>
      <trkpt lat="45.83899" lon="6.30804">
        <ele>1294</ele>
        <time>2022-01-06T08:10:04Z</time>
      </trkpt>
      <trkpt lat="45.83899" lon="6.30803">
        <ele>1294</ele>
        <time>2022-01-06T08:10:05Z</time>
      </trkpt>
      <trkpt lat="45.83899" lon="6.30803">
        <ele>1294</ele>
        <time>2022-01-06T08:10:06Z</time>
      </trkpt>
      <trkpt lat="45.83898" lon="6.30802">
        <ele>1294</ele>
        <time>2022-01-06T08:10:07Z</time>
      </trkpt>
      <trkpt lat="45.83897" lon="6.30801">
        <ele>1295.1</ele>
        <time>2022-01-06T08:10:08Z</time>
      </trkpt>
      <trkpt lat="45.83897" lon="6.30801">
        <ele>1295.1</ele>
        <time>2022-01-06T08:10:09Z</time>
      </trkpt>
      <trkpt lat="45.83897" lon="6.30801">
        <ele>1295.1</ele>
        <time>2022-01-06T08:10:10Z</time>
      </trkpt>
      <trkpt lat="45.83896" lon="6.308">
        <ele>1295.1</ele>
        <time>2022-01-06T08:10:11Z</time>
      </trkpt>
      <trkpt lat="45.83896" lon="6.308">
        <ele>1296</ele>
        <time>2022-01-06T08:10:12Z</time>
      </trkpt>
      <trkpt lat="45.83896" lon="6.308">
        <ele>1296</ele>
        <time>2022-01-06T08:10:13Z</time>
      </trkpt>
      <trkpt lat="45.83896" lon="6.308">
        <ele>1296</ele>
        <time>2022-01-06T08:10:14Z</time>
      </trkpt>
      <trkpt lat="45.83895" lon="6.308">
        <ele>1296</ele>
        <time>2022-01-06T08:10:15Z</time>
      </trkpt>
      <trkpt lat="45.83894" lon="6.30799">
        <ele>1297.1</ele>
        <time>2022-01-06T08:10:16Z</time>
      </trkpt>
      <trkpt lat="45.83893" lon="6.30799">
        <ele>1297.1</ele>
        <time>2022-01-06T08:10:17Z</time>
      </trkpt>
      <trkpt lat="45.83893" lon="6.30798">
        <ele>1297.1</ele>
        <time>2022-01-06T08:10:18Z</time>
      </trkpt>
      <trkpt lat="45.83893" lon="6.30797">
        <ele>1297.1</ele>
        <time>2022-01-06T08:10:19Z</time>
      </trkpt>
      <trkpt lat="45.83893" lon="6.30795">
        <ele>1298.2</ele>
        <time>2022-01-06T08:10:20Z</time>
      </trkpt>
      <trkpt lat="45.83893" lon="6.30793">
        <ele>1298.2</ele>
        <time>2022-01-06T08:10:21Z</time>
      </trkpt>
      <trkpt lat="45.83893" lon="6.30792">
        <ele>1299.1</ele>
        <time>2022-01-06T08:10:22Z</time>
      </trkpt>
      <trkpt lat="45.83892" lon="6.30791">
        <ele>1299.1</ele>
        <time>2022-01-06T08:10:23Z</time>
      </trkpt>
      <trkpt lat="45.83892" lon="6.30789">
        <ele>1299.1</ele>
        <time>2022-01-06T08:10:24Z</time>
      </trkpt>
      <trkpt lat="45.83891" lon="6.30789">
        <ele>1299.1</ele>
        <time>2022-01-06T08:10:25Z</time>
      </trkpt>
      <trkpt lat="45.83891" lon="6.30788">
        <ele>1300.1</ele>
        <time>2022-01-06T08:10:26Z</time>
      </trkpt>
      <trkpt lat="45.83891" lon="6.30788">
        <ele>1300.1</ele>
        <time>2022-01-06T08:10:27Z</time>
      </trkpt>
      <trkpt lat="45.8389" lon="6.30788">
        <ele>1300.1</ele>
        <time>2022-01-06T08:10:28Z</time>
      </trkpt>
      <trkpt lat="45.83889" lon="6.30788">
        <ele>1300.1</ele>
        <time>2022-01-06T08:10:29Z</time>
      </trkpt>
      <trkpt lat="45.83889" lon="6.30787">
        <ele>1301.1</ele>
        <time>2022-01-06T08:10:30Z</time>
      </trkpt>
      <trkpt lat="45.83888" lon="6.30787">
        <ele>1301.1</ele>
        <time>2022-01-06T08:10:31Z</time>
      </trkpt>
      <trkpt lat="45.83888" lon="6.30787">
        <ele>1301.1</ele>
        <time>2022-01-06T08:10:32Z</time>
      </trkpt>
      <trkpt lat="45.83888" lon="6.30788">
        <ele>1301.1</ele>
        <time>2022-01-06T08:10:33Z</time>
      </trkpt>
      <trkpt lat="45.83887" lon="6.30788">
        <ele>1302.1</ele>
        <time>2022-01-06T08:10:34Z</time>
      </trkpt>
      <trkpt lat="45.83886" lon="6.30788">
        <ele>1302.1</ele>
        <time>2022-01-06T08:10:35Z</time>
      </trkpt>
      <trkpt lat="45.83885" lon="6.30788">
        <ele>1302.1</ele>
        <time>2022-01-06T08:10:36Z</time>
      </trkpt>
      <trkpt lat="45.83884" lon="6.30788">
        <ele>1302.1</ele>
        <time>2022-01-06T08:10:37Z</time>
      </trkpt>
      <trkpt lat="45.83883" lon="6.30788">
        <ele>1303</ele>
        <time>2022-01-06T08:10:38Z</time>
      </trkpt>
      <trkpt lat="45.83883" lon="6.30787">
        <ele>1303</ele>
        <time>2022-01-06T08:10:39Z</time>
      </trkpt>
      <trkpt lat="45.83883" lon="6.30787">
        <ele>1303</ele>
        <time>2022-01-06T08:10:40Z</time>
      </trkpt>
      <trkpt lat="45.83882" lon="6.30787">
        <ele>1303</ele>
        <time>2022-01-06T08:10:41Z</time>
      </trkpt>
      <trkpt lat="45.83881" lon="6.30788">
        <ele>1304.1</ele>
        <time>2022-01-06T08:10:42Z</time>
      </trkpt>
      <trkpt lat="45.83881" lon="6.30787">
        <ele>1304.1</ele>
        <time>2022-01-06T08:10:43Z</time>
      </trkpt>
      <trkpt lat="45.8388" lon="6.30787">
        <ele>1304.1</ele>
        <time>2022-01-06T08:10:44Z</time>
      </trkpt>
      <trkpt lat="45.8388" lon="6.30787">
        <ele>1304.1</ele>
        <time>2022-01-06T08:10:45Z</time>
      </trkpt>
      <trkpt lat="45.83878" lon="6.30786">
        <ele>1305</ele>
        <time>2022-01-06T08:10:46Z</time>
      </trkpt>
      <trkpt lat="45.83878" lon="6.30786">
        <ele>1305</ele>
        <time>2022-01-06T08:10:47Z</time>
      </trkpt>
      <trkpt lat="45.83879" lon="6.30785">
        <ele>1305</ele>
        <time>2022-01-06T08:10:48Z</time>
      </trkpt>
      <trkpt lat="45.83879" lon="6.30784">
        <ele>1305</ele>
        <time>2022-01-06T08:10:49Z</time>
      </trkpt>
      <trkpt lat="45.83878" lon="6.30784">
        <ele>1306.1</ele>
        <time>2022-01-06T08:10:50Z</time>
      </trkpt>
      <trkpt lat="45.83877" lon="6.30785">
        <ele>1306.1</ele>
        <time>2022-01-06T08:10:51Z</time>
      </trkpt>
      <trkpt lat="45.83876" lon="6.30785">
        <ele>1307.2</ele>
        <time>2022-01-06T08:10:52Z</time>
      </trkpt>
      <trkpt lat="45.83876" lon="6.30784">
        <ele>1307.2</ele>
        <time>2022-01-06T08:10:53Z</time>
      </trkpt>
      <trkpt lat="45.83876" lon="6.30784">
        <ele>1307.2</ele>
        <time>2022-01-06T08:10:54Z</time>
      </trkpt>
      <trkpt lat="45.83875" lon="6.30784">
        <ele>1307.2</ele>
        <time>2022-01-06T08:10:55Z</time>
      </trkpt>
      <trkpt lat="45.83874" lon="6.30784">
        <ele>1307.2</ele>
        <time>2022-01-06T08:10:56Z</time>
      </trkpt>
      <trkpt lat="45.83873" lon="6.30783">
        <ele>1307.2</ele>
        <time>2022-01-06T08:10:57Z</time>
      </trkpt>
      <trkpt lat="45.83873" lon="6.30782">
        <ele>1308.1</ele>
        <time>2022-01-06T08:10:58Z</time>
      </trkpt>
      <trkpt lat="45.83873" lon="6.30781">
        <ele>1308.1</ele>
        <time>2022-01-06T08:10:59Z</time>
      </trkpt>
      <trkpt lat="45.83874" lon="6.3078">
        <ele>1308.1</ele>
        <time>2022-01-06T08:11:00Z</time>
      </trkpt>
      <trkpt lat="45.83875" lon="6.30779">
        <ele>1308.1</ele>
        <time>2022-01-06T08:11:01Z</time>
      </trkpt>
      <trkpt lat="45.83875" lon="6.30777">
        <ele>1309.1</ele>
        <time>2022-01-06T08:11:02Z</time>
      </trkpt>
      <trkpt lat="45.83875" lon="6.30775">
        <ele>1309.1</ele>
        <time>2022-01-06T08:11:03Z</time>
      </trkpt>
      <trkpt lat="45.83873" lon="6.30774">
        <ele>1309.1</ele>
        <time>2022-01-06T08:11:04Z</time>
      </trkpt>
      <trkpt lat="45.83873" lon="6.30773">
        <ele>1309.1</ele>
        <time>2022-01-06T08:11:05Z</time>
      </trkpt>
      <trkpt lat="45.83873" lon="6.30771">
        <ele>1310</ele>
        <time>2022-01-06T08:11:06Z</time>
      </trkpt>
      <trkpt lat="45.83873" lon="6.30769">
        <ele>1310</ele>
        <time>2022-01-06T08:11:07Z</time>
      </trkpt>
      <trkpt lat="45.83873" lon="6.30768">
        <ele>1310</ele>
        <time>2022-01-06T08:11:08Z</time>
      </trkpt>
      <trkpt lat="45.83874" lon="6.30766">
        <ele>1310</ele>
        <time>2022-01-06T08:11:09Z</time>
      </trkpt>
      <trkpt lat="45.83874" lon="6.30765">
        <ele>1311.1</ele>
        <time>2022-01-06T08:11:10Z</time>
      </trkpt>
      <trkpt lat="45.83874" lon="6.30764">
        <ele>1311.1</ele>
        <time>2022-01-06T08:11:11Z</time>
      </trkpt>
      <trkpt lat="45.83874" lon="6.30763">
        <ele>1311.1</ele>
        <time>2022-01-06T08:11:12Z</time>
      </trkpt>
      <trkpt lat="45.83874" lon="6.30761">
        <ele>1311.1</ele>
        <time>2022-01-06T08:11:13Z</time>
      </trkpt>
      <trkpt lat="45.83875" lon="6.30759">
        <ele>1311.1</ele>
        <time>2022-01-06T08:11:14Z</time>
      </trkpt>
      <trkpt lat="45.83875" lon="6.30758">
        <ele>1311.1</ele>
        <time>2022-01-06T08:11:15Z</time>
      </trkpt>
      <trkpt lat="45.83876" lon="6.30757">
        <ele>1312</ele>
        <time>2022-01-06T08:11:16Z</time>
      </trkpt>
      <trkpt lat="45.83877" lon="6.30755">
        <ele>1312</ele>
        <time>2022-01-06T08:11:17Z</time>
      </trkpt>
      <trkpt lat="45.83877" lon="6.30753">
        <ele>1312</ele>
        <time>2022-01-06T08:11:18Z</time>
      </trkpt>
      <trkpt lat="45.83876" lon="6.30752">
        <ele>1312</ele>
        <time>2022-01-06T08:11:19Z</time>
      </trkpt>
      <trkpt lat="45.83876" lon="6.3075">
        <ele>1312</ele>
        <time>2022-01-06T08:11:20Z</time>
      </trkpt>
      <trkpt lat="45.83876" lon="6.30748">
        <ele>1312</ele>
        <time>2022-01-06T08:11:21Z</time>
      </trkpt>
      <trkpt lat="45.83877" lon="6.30747">
        <ele>1313.1</ele>
        <time>2022-01-06T08:11:22Z</time>
      </trkpt>
      <trkpt lat="45.83877" lon="6.30746">
        <ele>1313.1</ele>
        <time>2022-01-06T08:11:23Z</time>
      </trkpt>
      <trkpt lat="45.83877" lon="6.30745">
        <ele>1313.1</ele>
        <time>2022-01-06T08:11:24Z</time>
      </trkpt>
      <trkpt lat="45.83878" lon="6.30743">
        <ele>1313.1</ele>
        <time>2022-01-06T08:11:25Z</time>
      </trkpt>
      <trkpt lat="45.83878" lon="6.30742">
        <ele>1313.1</ele>
        <time>2022-01-06T08:11:26Z</time>
      </trkpt>
      <trkpt lat="45.83878" lon="6.30741">
        <ele>1313.1</ele>
        <time>2022-01-06T08:11:27Z</time>
      </trkpt>
      <trkpt lat="45.83878" lon="6.30739">
        <ele>1314</ele>
        <time>2022-01-06T08:11:28Z</time>
      </trkpt>
      <trkpt lat="45.83878" lon="6.30738">
        <ele>1314</ele>
        <time>2022-01-06T08:11:29Z</time>
      </trkpt>
      <trkpt lat="45.83878" lon="6.30737">
        <ele>1314</ele>
        <time>2022-01-06T08:11:30Z</time>
      </trkpt>
      <trkpt lat="45.83878" lon="6.30736">
        <ele>1314</ele>
        <time>2022-01-06T08:11:31Z</time>
      </trkpt>
      <trkpt lat="45.83878" lon="6.30735">
        <ele>1314</ele>
        <time>2022-01-06T08:11:32Z</time>
      </trkpt>
      <trkpt lat="45.83878" lon="6.30734">
        <ele>1314</ele>
        <time>2022-01-06T08:11:33Z</time>
      </trkpt>
      <trkpt lat="45.83878" lon="6.30733">
        <ele>1314</ele>
        <time>2022-01-06T08:11:34Z</time>
      </trkpt>
      <trkpt lat="45.83878" lon="6.30732">
        <ele>1314</ele>
        <time>2022-01-06T08:11:35Z</time>
      </trkpt>
      <trkpt lat="45.83878" lon="6.3073">
        <ele>1314</ele>
        <time>2022-01-06T08:11:36Z</time>
      </trkpt>
      <trkpt lat="45.83877" lon="6.30729">
        <ele>1314</ele>
        <time>2022-01-06T08:11:37Z</time>
      </trkpt>
      <trkpt lat="45.83877" lon="6.30728">
        <ele>1315.1</ele>
        <time>2022-01-06T08:11:38Z</time>
      </trkpt>
      <trkpt lat="45.83877" lon="6.30727">
        <ele>1315.1</ele>
        <time>2022-01-06T08:11:39Z</time>
      </trkpt>
      <trkpt lat="45.83877" lon="6.30726">
        <ele>1315.1</ele>
        <time>2022-01-06T08:11:40Z</time>
      </trkpt>
      <trkpt lat="45.83877" lon="6.30726">
        <ele>1315.1</ele>
        <time>2022-01-06T08:11:41Z</time>
      </trkpt>
      <trkpt lat="45.83877" lon="6.30725">
        <ele>1316.1</ele>
        <time>2022-01-06T08:11:42Z</time>
      </trkpt>
      <trkpt lat="45.83876" lon="6.30724">
        <ele>1316.1</ele>
        <time>2022-01-06T08:11:43Z</time>
      </trkpt>
      <trkpt lat="45.83875" lon="6.30723">
        <ele>1316.1</ele>
        <time>2022-01-06T08:11:44Z</time>
      </trkpt>
      <trkpt lat="45.83875" lon="6.30722">
        <ele>1316.1</ele>
        <time>2022-01-06T08:11:45Z</time>
      </trkpt>
      <trkpt lat="45.83875" lon="6.30721">
        <ele>1316.1</ele>
        <time>2022-01-06T08:11:46Z</time>
      </trkpt>
      <trkpt lat="45.83875" lon="6.30719">
        <ele>1316.1</ele>
        <time>2022-01-06T08:11:47Z</time>
      </trkpt>
      <trkpt lat="45.83874" lon="6.30718">
        <ele>1317.1</ele>
        <time>2022-01-06T08:11:48Z</time>
      </trkpt>
      <trkpt lat="45.83874" lon="6.30718">
        <ele>1317.1</ele>
        <time>2022-01-06T08:11:49Z</time>
      </trkpt>
      <trkpt lat="45.83874" lon="6.30717">
        <ele>1318.1</ele>
        <time>2022-01-06T08:11:50Z</time>
      </trkpt>
      <trkpt lat="45.83874" lon="6.30717">
        <ele>1318.1</ele>
        <time>2022-01-06T08:11:51Z</time>
      </trkpt>
      <trkpt lat="45.83874" lon="6.30716">
        <ele>1318.1</ele>
        <time>2022-01-06T08:11:52Z</time>
      </trkpt>
      <trkpt lat="45.83874" lon="6.30716">
        <ele>1318.1</ele>
        <time>2022-01-06T08:11:53Z</time>
      </trkpt>
      <trkpt lat="45.83873" lon="6.30715">
        <ele>1319</ele>
        <time>2022-01-06T08:11:54Z</time>
      </trkpt>
      <trkpt lat="45.83873" lon="6.30714">
        <ele>1319</ele>
        <time>2022-01-06T08:11:55Z</time>
      </trkpt>
      <trkpt lat="45.83873" lon="6.30714">
        <ele>1319</ele>
        <time>2022-01-06T08:11:56Z</time>
      </trkpt>
      <trkpt lat="45.83873" lon="6.30712">
        <ele>1319</ele>
        <time>2022-01-06T08:11:57Z</time>
      </trkpt>
      <trkpt lat="45.83873" lon="6.30711">
        <ele>1320.1</ele>
        <time>2022-01-06T08:11:58Z</time>
      </trkpt>
      <trkpt lat="45.83873" lon="6.3071">
        <ele>1320.1</ele>
        <time>2022-01-06T08:11:59Z</time>
      </trkpt>
      <trkpt lat="45.83874" lon="6.3071">
        <ele>1320.1</ele>
        <time>2022-01-06T08:12:00Z</time>
      </trkpt>
      <trkpt lat="45.83874" lon="6.30709">
        <ele>1320.1</ele>
        <time>2022-01-06T08:12:01Z</time>
      </trkpt>
      <trkpt lat="45.83874" lon="6.30708">
        <ele>1321</ele>
        <time>2022-01-06T08:12:02Z</time>
      </trkpt>
      <trkpt lat="45.83875" lon="6.30707">
        <ele>1321</ele>
        <time>2022-01-06T08:12:03Z</time>
      </trkpt>
      <trkpt lat="45.83876" lon="6.30705">
        <ele>1321</ele>
        <time>2022-01-06T08:12:04Z</time>
      </trkpt>
      <trkpt lat="45.83876" lon="6.30704">
        <ele>1321</ele>
        <time>2022-01-06T08:12:05Z</time>
      </trkpt>
      <trkpt lat="45.83877" lon="6.30703">
        <ele>1322.1</ele>
        <time>2022-01-06T08:12:06Z</time>
      </trkpt>
      <trkpt lat="45.83877" lon="6.30703">
        <ele>1322.1</ele>
        <time>2022-01-06T08:12:07Z</time>
      </trkpt>
      <trkpt lat="45.83878" lon="6.30702">
        <ele>1322.1</ele>
        <time>2022-01-06T08:12:08Z</time>
      </trkpt>
      <trkpt lat="45.83878" lon="6.30701">
        <ele>1322.1</ele>
        <time>2022-01-06T08:12:09Z</time>
      </trkpt>
      <trkpt lat="45.83879" lon="6.30701">
        <ele>1323.2</ele>
        <time>2022-01-06T08:12:10Z</time>
      </trkpt>
      <trkpt lat="45.83879" lon="6.307">
        <ele>1323.2</ele>
        <time>2022-01-06T08:12:11Z</time>
      </trkpt>
      <trkpt lat="45.83879" lon="6.30699">
        <ele>1324.1</ele>
        <time>2022-01-06T08:12:12Z</time>
      </trkpt>
      <trkpt lat="45.8388" lon="6.30698">
        <ele>1324.1</ele>
        <time>2022-01-06T08:12:13Z</time>
      </trkpt>
      <trkpt lat="45.8388" lon="6.30698">
        <ele>1324.1</ele>
        <time>2022-01-06T08:12:14Z</time>
      </trkpt>
      <trkpt lat="45.8388" lon="6.30697">
        <ele>1324.1</ele>
        <time>2022-01-06T08:12:15Z</time>
      </trkpt>
      <trkpt lat="45.8388" lon="6.30697">
        <ele>1325.1</ele>
        <time>2022-01-06T08:12:16Z</time>
      </trkpt>
      <trkpt lat="45.8388" lon="6.30696">
        <ele>1325.1</ele>
        <time>2022-01-06T08:12:17Z</time>
      </trkpt>
      <trkpt lat="45.8388" lon="6.30696">
        <ele>1325.1</ele>
        <time>2022-01-06T08:12:18Z</time>
      </trkpt>
      <trkpt lat="45.8388" lon="6.30695">
        <ele>1325.1</ele>
        <time>2022-01-06T08:12:19Z</time>
      </trkpt>
      <trkpt lat="45.83881" lon="6.30694">
        <ele>1325.1</ele>
        <time>2022-01-06T08:12:20Z</time>
      </trkpt>
      <trkpt lat="45.83881" lon="6.30694">
        <ele>1325.1</ele>
        <time>2022-01-06T08:12:21Z</time>
      </trkpt>
      <trkpt lat="45.83881" lon="6.30693">
        <ele>1326</ele>
        <time>2022-01-06T08:12:22Z</time>
      </trkpt>
      <trkpt lat="45.8388" lon="6.30692">
        <ele>1326</ele>
        <time>2022-01-06T08:12:23Z</time>
      </trkpt>
      <trkpt lat="45.8388" lon="6.30691">
        <ele>1326</ele>
        <time>2022-01-06T08:12:24Z</time>
      </trkpt>
      <trkpt lat="45.83881" lon="6.30691">
        <ele>1326</ele>
        <time>2022-01-06T08:12:25Z</time>
      </trkpt>
      <trkpt lat="45.83882" lon="6.3069">
        <ele>1327.1</ele>
        <time>2022-01-06T08:12:26Z</time>
      </trkpt>
      <trkpt lat="45.83882" lon="6.3069">
        <ele>1327.1</ele>
        <time>2022-01-06T08:12:27Z</time>
      </trkpt>
      <trkpt lat="45.83882" lon="6.30689">
        <ele>1328</ele>
        <time>2022-01-06T08:12:28Z</time>
      </trkpt>
      <trkpt lat="45.83883" lon="6.30688">
        <ele>1328</ele>
        <time>2022-01-06T08:12:29Z</time>
      </trkpt>
      <trkpt lat="45.83884" lon="6.30687">
        <ele>1329.1</ele>
        <time>2022-01-06T08:12:30Z</time>
      </trkpt>
      <trkpt lat="45.83885" lon="6.30687">
        <ele>1329.1</ele>
        <time>2022-01-06T08:12:31Z</time>
      </trkpt>
      <trkpt lat="45.83886" lon="6.30686">
        <ele>1329.1</ele>
        <time>2022-01-06T08:12:32Z</time>
      </trkpt>
      <trkpt lat="45.83886" lon="6.30685">
        <ele>1329.1</ele>
        <time>2022-01-06T08:12:33Z</time>
      </trkpt>
      <trkpt lat="45.83887" lon="6.30685">
        <ele>1329.1</ele>
        <time>2022-01-06T08:12:34Z</time>
      </trkpt>
      <trkpt lat="45.83888" lon="6.30685">
        <ele>1329.1</ele>
        <time>2022-01-06T08:12:35Z</time>
      </trkpt>
      <trkpt lat="45.83889" lon="6.30684">
        <ele>1329.1</ele>
        <time>2022-01-06T08:12:36Z</time>
      </trkpt>
      <trkpt lat="45.8389" lon="6.30683">
        <ele>1329.1</ele>
        <time>2022-01-06T08:12:37Z</time>
      </trkpt>
      <trkpt lat="45.83891" lon="6.30683">
        <ele>1330</ele>
        <time>2022-01-06T08:12:38Z</time>
      </trkpt>
      <trkpt lat="45.83892" lon="6.30683">
        <ele>1330</ele>
        <time>2022-01-06T08:12:39Z</time>
      </trkpt>
      <trkpt lat="45.83892" lon="6.30682">
        <ele>1330</ele>
        <time>2022-01-06T08:12:40Z</time>
      </trkpt>
      <trkpt lat="45.83892" lon="6.30681">
        <ele>1330</ele>
        <time>2022-01-06T08:12:41Z</time>
      </trkpt>
      <trkpt lat="45.83893" lon="6.3068">
        <ele>1331.1</ele>
        <time>2022-01-06T08:12:42Z</time>
      </trkpt>
      <trkpt lat="45.83893" lon="6.3068">
        <ele>1331.1</ele>
        <time>2022-01-06T08:12:43Z</time>
      </trkpt>
      <trkpt lat="45.83892" lon="6.30679">
        <ele>1331.1</ele>
        <time>2022-01-06T08:12:44Z</time>
      </trkpt>
      <trkpt lat="45.83893" lon="6.30678">
        <ele>1331.1</ele>
        <time>2022-01-06T08:12:45Z</time>
      </trkpt>
      <trkpt lat="45.83893" lon="6.30677">
        <ele>1331.1</ele>
        <time>2022-01-06T08:12:46Z</time>
      </trkpt>
      <trkpt lat="45.83893" lon="6.30676">
        <ele>1331.1</ele>
        <time>2022-01-06T08:12:47Z</time>
      </trkpt>
      <trkpt lat="45.83893" lon="6.30675">
        <ele>1332.1</ele>
        <time>2022-01-06T08:12:48Z</time>
      </trkpt>
      <trkpt lat="45.83893" lon="6.30674">
        <ele>1332.1</ele>
        <time>2022-01-06T08:12:49Z</time>
      </trkpt>
      <trkpt lat="45.83893" lon="6.30673">
        <ele>1332.1</ele>
        <time>2022-01-06T08:12:50Z</time>
      </trkpt>
      <trkpt lat="45.83892" lon="6.30672">
        <ele>1332.1</ele>
        <time>2022-01-06T08:12:51Z</time>
      </trkpt>
      <trkpt lat="45.83892" lon="6.30671">
        <ele>1333.1</ele>
        <time>2022-01-06T08:12:52Z</time>
      </trkpt>
      <trkpt lat="45.83892" lon="6.3067">
        <ele>1333.1</ele>
        <time>2022-01-06T08:12:53Z</time>
      </trkpt>
      <trkpt lat="45.83891" lon="6.30669">
        <ele>1333.1</ele>
        <time>2022-01-06T08:12:54Z</time>
      </trkpt>
      <trkpt lat="45.83891" lon="6.30668">
        <ele>1333.1</ele>
        <time>2022-01-06T08:12:55Z</time>
      </trkpt>
      <trkpt lat="45.83891" lon="6.30667">
        <ele>1334.1</ele>
        <time>2022-01-06T08:12:56Z</time>
      </trkpt>
      <trkpt lat="45.8389" lon="6.30666">
        <ele>1334.1</ele>
        <time>2022-01-06T08:12:57Z</time>
      </trkpt>
      <trkpt lat="45.8389" lon="6.30665">
        <ele>1334.1</ele>
        <time>2022-01-06T08:12:58Z</time>
      </trkpt>
      <trkpt lat="45.83889" lon="6.30665">
        <ele>1334.1</ele>
        <time>2022-01-06T08:12:59Z</time>
      </trkpt>
      <trkpt lat="45.83889" lon="6.30663">
        <ele>1335</ele>
        <time>2022-01-06T08:13:00Z</time>
      </trkpt>
      <trkpt lat="45.83889" lon="6.30663">
        <ele>1335</ele>
        <time>2022-01-06T08:13:01Z</time>
      </trkpt>
      <trkpt lat="45.8389" lon="6.30662">
        <ele>1336.1</ele>
        <time>2022-01-06T08:13:02Z</time>
      </trkpt>
      <trkpt lat="45.8389" lon="6.30661">
        <ele>1336.1</ele>
        <time>2022-01-06T08:13:03Z</time>
      </trkpt>
      <trkpt lat="45.8389" lon="6.30659">
        <ele>1336.1</ele>
        <time>2022-01-06T08:13:04Z</time>
      </trkpt>
      <trkpt lat="45.8389" lon="6.30658">
        <ele>1336.1</ele>
        <time>2022-01-06T08:13:05Z</time>
      </trkpt>
      <trkpt lat="45.8389" lon="6.30656">
        <ele>1337</ele>
        <time>2022-01-06T08:13:06Z</time>
      </trkpt>
      <trkpt lat="45.8389" lon="6.30654">
        <ele>1337</ele>
        <time>2022-01-06T08:13:07Z</time>
      </trkpt>
      <trkpt lat="45.8389" lon="6.30653">
        <ele>1337</ele>
        <time>2022-01-06T08:13:08Z</time>
      </trkpt>
      <trkpt lat="45.8389" lon="6.3065">
        <ele>1337</ele>
        <time>2022-01-06T08:13:09Z</time>
      </trkpt>
      <trkpt lat="45.8389" lon="6.30648">
        <ele>1337</ele>
        <time>2022-01-06T08:13:10Z</time>
      </trkpt>
      <trkpt lat="45.8389" lon="6.30646">
        <ele>1337</ele>
        <time>2022-01-06T08:13:11Z</time>
      </trkpt>
      <trkpt lat="45.83891" lon="6.30645">
        <ele>1337</ele>
        <time>2022-01-06T08:13:12Z</time>
      </trkpt>
      <trkpt lat="45.83891" lon="6.30643">
        <ele>1337</ele>
        <time>2022-01-06T08:13:13Z</time>
      </trkpt>
      <trkpt lat="45.83889" lon="6.30641">
        <ele>1337</ele>
        <time>2022-01-06T08:13:14Z</time>
      </trkpt>
      <trkpt lat="45.83889" lon="6.30639">
        <ele>1337</ele>
        <time>2022-01-06T08:13:15Z</time>
      </trkpt>
      <trkpt lat="45.8389" lon="6.30637">
        <ele>1338.1</ele>
        <time>2022-01-06T08:13:16Z</time>
      </trkpt>
      <trkpt lat="45.8389" lon="6.30636">
        <ele>1338.1</ele>
        <time>2022-01-06T08:13:17Z</time>
      </trkpt>
      <trkpt lat="45.8389" lon="6.30635">
        <ele>1338.1</ele>
        <time>2022-01-06T08:13:18Z</time>
      </trkpt>
      <trkpt lat="45.8389" lon="6.30634">
        <ele>1338.1</ele>
        <time>2022-01-06T08:13:19Z</time>
      </trkpt>
      <trkpt lat="45.8389" lon="6.30632">
        <ele>1338.1</ele>
        <time>2022-01-06T08:13:20Z</time>
      </trkpt>
      <trkpt lat="45.83891" lon="6.30631">
        <ele>1338.1</ele>
        <time>2022-01-06T08:13:21Z</time>
      </trkpt>
      <trkpt lat="45.83892" lon="6.3063">
        <ele>1339.2</ele>
        <time>2022-01-06T08:13:22Z</time>
      </trkpt>
      <trkpt lat="45.83893" lon="6.30628">
        <ele>1339.2</ele>
        <time>2022-01-06T08:13:23Z</time>
      </trkpt>
      <trkpt lat="45.83893" lon="6.30626">
        <ele>1339.2</ele>
        <time>2022-01-06T08:13:24Z</time>
      </trkpt>
      <trkpt lat="45.83894" lon="6.30625">
        <ele>1339.2</ele>
        <time>2022-01-06T08:13:25Z</time>
      </trkpt>
      <trkpt lat="45.83894" lon="6.30625">
        <ele>1340.1</ele>
        <time>2022-01-06T08:13:26Z</time>
      </trkpt>
      <trkpt lat="45.83895" lon="6.30623">
        <ele>1340.1</ele>
        <time>2022-01-06T08:13:27Z</time>
      </trkpt>
      <trkpt lat="45.83895" lon="6.30621">
        <ele>1340.1</ele>
        <time>2022-01-06T08:13:28Z</time>
      </trkpt>
      <trkpt lat="45.83895" lon="6.3062">
        <ele>1340.1</ele>
        <time>2022-01-06T08:13:29Z</time>
      </trkpt>
      <trkpt lat="45.83896" lon="6.30619">
        <ele>1340.1</ele>
        <time>2022-01-06T08:13:30Z</time>
      </trkpt>
      <trkpt lat="45.83897" lon="6.30618">
        <ele>1340.1</ele>
        <time>2022-01-06T08:13:31Z</time>
      </trkpt>
      <trkpt lat="45.83898" lon="6.30616">
        <ele>1340.1</ele>
        <time>2022-01-06T08:13:32Z</time>
      </trkpt>
      <trkpt lat="45.83899" lon="6.30616">
        <ele>1340.1</ele>
        <time>2022-01-06T08:13:33Z</time>
      </trkpt>
      <trkpt lat="45.839" lon="6.30614">
        <ele>1341.1</ele>
        <time>2022-01-06T08:13:34Z</time>
      </trkpt>
      <trkpt lat="45.83901" lon="6.30613">
        <ele>1341.1</ele>
        <time>2022-01-06T08:13:35Z</time>
      </trkpt>
      <trkpt lat="45.83902" lon="6.30611">
        <ele>1341.1</ele>
        <time>2022-01-06T08:13:36Z</time>
      </trkpt>
      <trkpt lat="45.83903" lon="6.3061">
        <ele>1341.1</ele>
        <time>2022-01-06T08:13:37Z</time>
      </trkpt>
      <trkpt lat="45.83904" lon="6.30609">
        <ele>1341.1</ele>
        <time>2022-01-06T08:13:38Z</time>
      </trkpt>
      <trkpt lat="45.83905" lon="6.30609">
        <ele>1341.1</ele>
        <time>2022-01-06T08:13:39Z</time>
      </trkpt>
      <trkpt lat="45.83905" lon="6.30608">
        <ele>1342.1</ele>
        <time>2022-01-06T08:13:40Z</time>
      </trkpt>
      <trkpt lat="45.83906" lon="6.30607">
        <ele>1342.1</ele>
        <time>2022-01-06T08:13:41Z</time>
      </trkpt>
      <trkpt lat="45.83907" lon="6.30606">
        <ele>1342.1</ele>
        <time>2022-01-06T08:13:42Z</time>
      </trkpt>
      <trkpt lat="45.83907" lon="6.30606">
        <ele>1342.1</ele>
        <time>2022-01-06T08:13:43Z</time>
      </trkpt>
      <trkpt lat="45.83908" lon="6.30605">
        <ele>1343.1</ele>
        <time>2022-01-06T08:13:44Z</time>
      </trkpt>
      <trkpt lat="45.83909" lon="6.30604">
        <ele>1343.1</ele>
        <time>2022-01-06T08:13:45Z</time>
      </trkpt>
      <trkpt lat="45.83909" lon="6.30603">
        <ele>1343.1</ele>
        <time>2022-01-06T08:13:46Z</time>
      </trkpt>
      <trkpt lat="45.8391" lon="6.30603">
        <ele>1343.1</ele>
        <time>2022-01-06T08:13:47Z</time>
      </trkpt>
      <trkpt lat="45.8391" lon="6.30602">
        <ele>1344</ele>
        <time>2022-01-06T08:13:48Z</time>
      </trkpt>
      <trkpt lat="45.8391" lon="6.30601">
        <ele>1344</ele>
        <time>2022-01-06T08:13:49Z</time>
      </trkpt>
      <trkpt lat="45.8391" lon="6.306">
        <ele>1345.1</ele>
        <time>2022-01-06T08:13:50Z</time>
      </trkpt>
      <trkpt lat="45.83911" lon="6.30599">
        <ele>1345.1</ele>
        <time>2022-01-06T08:13:51Z</time>
      </trkpt>
      <trkpt lat="45.83911" lon="6.30598">
        <ele>1345.1</ele>
        <time>2022-01-06T08:13:52Z</time>
      </trkpt>
      <trkpt lat="45.83911" lon="6.30597">
        <ele>1345.1</ele>
        <time>2022-01-06T08:13:53Z</time>
      </trkpt>
      <trkpt lat="45.8391" lon="6.30595">
        <ele>1345.1</ele>
        <time>2022-01-06T08:13:54Z</time>
      </trkpt>
      <trkpt lat="45.8391" lon="6.30594">
        <ele>1345.1</ele>
        <time>2022-01-06T08:13:55Z</time>
      </trkpt>
      <trkpt lat="45.8391" lon="6.30593">
        <ele>1345.1</ele>
        <time>2022-01-06T08:13:56Z</time>
      </trkpt>
      <trkpt lat="45.8391" lon="6.30592">
        <ele>1345.1</ele>
        <time>2022-01-06T08:13:57Z</time>
      </trkpt>
      <trkpt lat="45.83909" lon="6.30592">
        <ele>1346</ele>
        <time>2022-01-06T08:13:58Z</time>
      </trkpt>
      <trkpt lat="45.83909" lon="6.30591">
        <ele>1346</ele>
        <time>2022-01-06T08:13:59Z</time>
      </trkpt>
      <trkpt lat="45.83909" lon="6.3059">
        <ele>1347.1</ele>
        <time>2022-01-06T08:14:00Z</time>
      </trkpt>
      <trkpt lat="45.83909" lon="6.30589">
        <ele>1347.1</ele>
        <time>2022-01-06T08:14:01Z</time>
      </trkpt>
      <trkpt lat="45.83909" lon="6.30588">
        <ele>1347.1</ele>
        <time>2022-01-06T08:14:02Z</time>
      </trkpt>
      <trkpt lat="45.83909" lon="6.30588">
        <ele>1347.1</ele>
        <time>2022-01-06T08:14:03Z</time>
      </trkpt>
      <trkpt lat="45.83909" lon="6.30587">
        <ele>1348.1</ele>
        <time>2022-01-06T08:14:04Z</time>
      </trkpt>
      <trkpt lat="45.83909" lon="6.30585">
        <ele>1348.1</ele>
        <time>2022-01-06T08:14:05Z</time>
      </trkpt>
      <trkpt lat="45.83909" lon="6.30583">
        <ele>1348.1</ele>
        <time>2022-01-06T08:14:06Z</time>
      </trkpt>
      <trkpt lat="45.83908" lon="6.30582">
        <ele>1348.1</ele>
        <time>2022-01-06T08:14:07Z</time>
      </trkpt>
      <trkpt lat="45.83908" lon="6.30581">
        <ele>1349.1</ele>
        <time>2022-01-06T08:14:08Z</time>
      </trkpt>
      <trkpt lat="45.83909" lon="6.3058">
        <ele>1349.1</ele>
        <time>2022-01-06T08:14:09Z</time>
      </trkpt>
      <trkpt lat="45.83909" lon="6.30579">
        <ele>1350.1</ele>
        <time>2022-01-06T08:14:10Z</time>
      </trkpt>
      <trkpt lat="45.83909" lon="6.30578">
        <ele>1350.1</ele>
        <time>2022-01-06T08:14:11Z</time>
      </trkpt>
      <trkpt lat="45.83909" lon="6.30577">
        <ele>1350.1</ele>
        <time>2022-01-06T08:14:12Z</time>
      </trkpt>
      <trkpt lat="45.83909" lon="6.30577">
        <ele>1350.1</ele>
        <time>2022-01-06T08:14:13Z</time>
      </trkpt>
      <trkpt lat="45.83909" lon="6.30577">
        <ele>1351</ele>
        <time>2022-01-06T08:14:14Z</time>
      </trkpt>
      <trkpt lat="45.83909" lon="6.30576">
        <ele>1351</ele>
        <time>2022-01-06T08:14:15Z</time>
      </trkpt>
      <trkpt lat="45.83909" lon="6.30576">
        <ele>1351</ele>
        <time>2022-01-06T08:14:16Z</time>
      </trkpt>
      <trkpt lat="45.83909" lon="6.30575">
        <ele>1351</ele>
        <time>2022-01-06T08:14:17Z</time>
      </trkpt>
      <trkpt lat="45.8391" lon="6.30574">
        <ele>1352.1</ele>
        <time>2022-01-06T08:14:18Z</time>
      </trkpt>
      <trkpt lat="45.8391" lon="6.30574">
        <ele>1352.1</ele>
        <time>2022-01-06T08:14:19Z</time>
      </trkpt>
      <trkpt lat="45.83911" lon="6.30572">
        <ele>1352.1</ele>
        <time>2022-01-06T08:14:20Z</time>
      </trkpt>
      <trkpt lat="45.83911" lon="6.30571">
        <ele>1352.1</ele>
        <time>2022-01-06T08:14:21Z</time>
      </trkpt>
      <trkpt lat="45.83911" lon="6.30571">
        <ele>1353</ele>
        <time>2022-01-06T08:14:22Z</time>
      </trkpt>
      <trkpt lat="45.83911" lon="6.3057">
        <ele>1353</ele>
        <time>2022-01-06T08:14:23Z</time>
      </trkpt>
      <trkpt lat="45.83911" lon="6.30569">
        <ele>1353</ele>
        <time>2022-01-06T08:14:24Z</time>
      </trkpt>
      <trkpt lat="45.83911" lon="6.30569">
        <ele>1353</ele>
        <time>2022-01-06T08:14:25Z</time>
      </trkpt>
      <trkpt lat="45.83911" lon="6.30568">
        <ele>1354.1</ele>
        <time>2022-01-06T08:14:26Z</time>
      </trkpt>
      <trkpt lat="45.83912" lon="6.30567">
        <ele>1354.1</ele>
        <time>2022-01-06T08:14:27Z</time>
      </trkpt>
      <trkpt lat="45.83912" lon="6.30566">
        <ele>1354.1</ele>
        <time>2022-01-06T08:14:28Z</time>
      </trkpt>
      <trkpt lat="45.83912" lon="6.30565">
        <ele>1354.1</ele>
        <time>2022-01-06T08:14:29Z</time>
      </trkpt>
      <trkpt lat="45.83913" lon="6.30564">
        <ele>1355.2</ele>
        <time>2022-01-06T08:14:30Z</time>
      </trkpt>
      <trkpt lat="45.83914" lon="6.30562">
        <ele>1355.2</ele>
        <time>2022-01-06T08:14:31Z</time>
      </trkpt>
      <trkpt lat="45.83915" lon="6.30559">
        <ele>1356.1</ele>
        <time>2022-01-06T08:14:32Z</time>
      </trkpt>
      <trkpt lat="45.83916" lon="6.30557">
        <ele>1356.1</ele>
        <time>2022-01-06T08:14:33Z</time>
      </trkpt>
      <trkpt lat="45.83917" lon="6.30556">
        <ele>1356.1</ele>
        <time>2022-01-06T08:14:34Z</time>
      </trkpt>
      <trkpt lat="45.83917" lon="6.30556">
        <ele>1356.1</ele>
        <time>2022-01-06T08:14:35Z</time>
      </trkpt>
      <trkpt lat="45.83917" lon="6.30556">
        <ele>1356.1</ele>
        <time>2022-01-06T08:14:36Z</time>
      </trkpt>
      <trkpt lat="45.83917" lon="6.30555">
        <ele>1356.1</ele>
        <time>2022-01-06T08:14:37Z</time>
      </trkpt>
      <trkpt lat="45.83917" lon="6.30554">
        <ele>1356.1</ele>
        <time>2022-01-06T08:14:38Z</time>
      </trkpt>
      <trkpt lat="45.83918" lon="6.30554">
        <ele>1356.1</ele>
        <time>2022-01-06T08:14:39Z</time>
      </trkpt>
      <trkpt lat="45.83918" lon="6.30554">
        <ele>1356.1</ele>
        <time>2022-01-06T08:14:40Z</time>
      </trkpt>
      <trkpt lat="45.83919" lon="6.30553">
        <ele>1356.1</ele>
        <time>2022-01-06T08:14:41Z</time>
      </trkpt>
      <trkpt lat="45.8392" lon="6.30553">
        <ele>1356.1</ele>
        <time>2022-01-06T08:14:42Z</time>
      </trkpt>
      <trkpt lat="45.83921" lon="6.30553">
        <ele>1356.1</ele>
        <time>2022-01-06T08:14:43Z</time>
      </trkpt>
      <trkpt lat="45.83922" lon="6.30553">
        <ele>1359.1</ele>
        <time>2022-01-06T08:14:44Z</time>
      </trkpt>
      <trkpt lat="45.83922" lon="6.30553">
        <ele>1359.1</ele>
        <time>2022-01-06T08:14:45Z</time>
      </trkpt>
      <trkpt lat="45.83922" lon="6.30552">
        <ele>1360</ele>
        <time>2022-01-06T08:14:46Z</time>
      </trkpt>
      <trkpt lat="45.83923" lon="6.30552">
        <ele>1360</ele>
        <time>2022-01-06T08:14:47Z</time>
      </trkpt>
      <trkpt lat="45.83923" lon="6.30552">
        <ele>1360</ele>
        <time>2022-01-06T08:14:48Z</time>
      </trkpt>
      <trkpt lat="45.83923" lon="6.30551">
        <ele>1360</ele>
        <time>2022-01-06T08:14:49Z</time>
      </trkpt>
      <trkpt lat="45.83923" lon="6.3055">
        <ele>1361.1</ele>
        <time>2022-01-06T08:14:50Z</time>
      </trkpt>
      <trkpt lat="45.83923" lon="6.30549">
        <ele>1361.1</ele>
        <time>2022-01-06T08:14:51Z</time>
      </trkpt>
      <trkpt lat="45.83924" lon="6.30548">
        <ele>1361.1</ele>
        <time>2022-01-06T08:14:52Z</time>
      </trkpt>
      <trkpt lat="45.83925" lon="6.30547">
        <ele>1361.1</ele>
        <time>2022-01-06T08:14:53Z</time>
      </trkpt>
      <trkpt lat="45.83925" lon="6.30546">
        <ele>1362</ele>
        <time>2022-01-06T08:14:54Z</time>
      </trkpt>
      <trkpt lat="45.83925" lon="6.30545">
        <ele>1362</ele>
        <time>2022-01-06T08:14:55Z</time>
      </trkpt>
      <trkpt lat="45.83926" lon="6.30545">
        <ele>1362</ele>
        <time>2022-01-06T08:14:56Z</time>
      </trkpt>
      <trkpt lat="45.83926" lon="6.30545">
        <ele>1362</ele>
        <time>2022-01-06T08:14:57Z</time>
      </trkpt>
      <trkpt lat="45.83926" lon="6.30544">
        <ele>1363.1</ele>
        <time>2022-01-06T08:14:58Z</time>
      </trkpt>
      <trkpt lat="45.83927" lon="6.30544">
        <ele>1363.1</ele>
        <time>2022-01-06T08:14:59Z</time>
      </trkpt>
      <trkpt lat="45.83927" lon="6.30543">
        <ele>1363.1</ele>
        <time>2022-01-06T08:15:00Z</time>
      </trkpt>
      <trkpt lat="45.83928" lon="6.30543">
        <ele>1363.1</ele>
        <time>2022-01-06T08:15:01Z</time>
      </trkpt>
      <trkpt lat="45.83928" lon="6.30543">
        <ele>1364.1</ele>
        <time>2022-01-06T08:15:02Z</time>
      </trkpt>
      <trkpt lat="45.83928" lon="6.30542">
        <ele>1364.1</ele>
        <time>2022-01-06T08:15:03Z</time>
      </trkpt>
      <trkpt lat="45.83928" lon="6.30541">
        <ele>1364.1</ele>
        <time>2022-01-06T08:15:04Z</time>
      </trkpt>
      <trkpt lat="45.83928" lon="6.3054">
        <ele>1364.1</ele>
        <time>2022-01-06T08:15:05Z</time>
      </trkpt>
      <trkpt lat="45.83929" lon="6.30539">
        <ele>1365.1</ele>
        <time>2022-01-06T08:15:06Z</time>
      </trkpt>
      <trkpt lat="45.83929" lon="6.30538">
        <ele>1365.1</ele>
        <time>2022-01-06T08:15:07Z</time>
      </trkpt>
      <trkpt lat="45.83929" lon="6.30538">
        <ele>1365.1</ele>
        <time>2022-01-06T08:15:08Z</time>
      </trkpt>
      <trkpt lat="45.83929" lon="6.30536">
        <ele>1365.1</ele>
        <time>2022-01-06T08:15:09Z</time>
      </trkpt>
      <trkpt lat="45.83929" lon="6.30535">
        <ele>1365.1</ele>
        <time>2022-01-06T08:15:10Z</time>
      </trkpt>
      <trkpt lat="45.8393" lon="6.30534">
        <ele>1365.1</ele>
        <time>2022-01-06T08:15:11Z</time>
      </trkpt>
      <trkpt lat="45.8393" lon="6.30534">
        <ele>1365.1</ele>
        <time>2022-01-06T08:15:12Z</time>
      </trkpt>
      <trkpt lat="45.83931" lon="6.30533">
        <ele>1365.1</ele>
        <time>2022-01-06T08:15:13Z</time>
      </trkpt>
      <trkpt lat="45.83931" lon="6.30533">
        <ele>1365.1</ele>
        <time>2022-01-06T08:15:14Z</time>
      </trkpt>
      <trkpt lat="45.83931" lon="6.30532">
        <ele>1365.1</ele>
        <time>2022-01-06T08:15:15Z</time>
      </trkpt>
      <trkpt lat="45.83931" lon="6.30531">
        <ele>1368.1</ele>
        <time>2022-01-06T08:15:16Z</time>
      </trkpt>
      <trkpt lat="45.83932" lon="6.30531">
        <ele>1368.1</ele>
        <time>2022-01-06T08:15:17Z</time>
      </trkpt>
      <trkpt lat="45.83932" lon="6.3053">
        <ele>1368.1</ele>
        <time>2022-01-06T08:15:18Z</time>
      </trkpt>
      <trkpt lat="45.83933" lon="6.30529">
        <ele>1368.1</ele>
        <time>2022-01-06T08:15:19Z</time>
      </trkpt>
      <trkpt lat="45.83933" lon="6.30529">
        <ele>1369</ele>
        <time>2022-01-06T08:15:20Z</time>
      </trkpt>
      <trkpt lat="45.83934" lon="6.30529">
        <ele>1369</ele>
        <time>2022-01-06T08:15:21Z</time>
      </trkpt>
      <trkpt lat="45.83935" lon="6.30528">
        <ele>1370.1</ele>
        <time>2022-01-06T08:15:22Z</time>
      </trkpt>
      <trkpt lat="45.83935" lon="6.30527">
        <ele>1370.1</ele>
        <time>2022-01-06T08:15:23Z</time>
      </trkpt>
      <trkpt lat="45.83935" lon="6.30527">
        <ele>1370.1</ele>
        <time>2022-01-06T08:15:24Z</time>
      </trkpt>
      <trkpt lat="45.83935" lon="6.30526">
        <ele>1370.1</ele>
        <time>2022-01-06T08:15:25Z</time>
      </trkpt>
      <trkpt lat="45.83936" lon="6.30526">
        <ele>1370.1</ele>
        <time>2022-01-06T08:15:26Z</time>
      </trkpt>
      <trkpt lat="45.83937" lon="6.30526">
        <ele>1370.1</ele>
        <time>2022-01-06T08:15:27Z</time>
      </trkpt>
      <trkpt lat="45.83937" lon="6.30525">
        <ele>1371.2</ele>
        <time>2022-01-06T08:15:28Z</time>
      </trkpt>
      <trkpt lat="45.83938" lon="6.30525">
        <ele>1371.2</ele>
        <time>2022-01-06T08:15:29Z</time>
      </trkpt>
      <trkpt lat="45.83939" lon="6.30524">
        <ele>1371.2</ele>
        <time>2022-01-06T08:15:30Z</time>
      </trkpt>
      <trkpt lat="45.83939" lon="6.30524">
        <ele>1371.2</ele>
        <time>2022-01-06T08:15:31Z</time>
      </trkpt>
      <trkpt lat="45.8394" lon="6.30524">
        <ele>1372.1</ele>
        <time>2022-01-06T08:15:32Z</time>
      </trkpt>
      <trkpt lat="45.8394" lon="6.30524">
        <ele>1372.1</ele>
        <time>2022-01-06T08:15:33Z</time>
      </trkpt>
      <trkpt lat="45.83941" lon="6.30524">
        <ele>1372.1</ele>
        <time>2022-01-06T08:15:34Z</time>
      </trkpt>
      <trkpt lat="45.83941" lon="6.30524">
        <ele>1372.1</ele>
        <time>2022-01-06T08:15:35Z</time>
      </trkpt>
      <trkpt lat="45.83941" lon="6.30524">
        <ele>1373.1</ele>
        <time>2022-01-06T08:15:36Z</time>
      </trkpt>
      <trkpt lat="45.83941" lon="6.30523">
        <ele>1373.1</ele>
        <time>2022-01-06T08:15:37Z</time>
      </trkpt>
      <trkpt lat="45.83942" lon="6.30522">
        <ele>1374.1</ele>
        <time>2022-01-06T08:15:38Z</time>
      </trkpt>
      <trkpt lat="45.83942" lon="6.30521">
        <ele>1374.1</ele>
        <time>2022-01-06T08:15:39Z</time>
      </trkpt>
      <trkpt lat="45.83943" lon="6.3052">
        <ele>1374.1</ele>
        <time>2022-01-06T08:15:40Z</time>
      </trkpt>
      <trkpt lat="45.83943" lon="6.30519">
        <ele>1374.1</ele>
        <time>2022-01-06T08:15:41Z</time>
      </trkpt>
      <trkpt lat="45.83944" lon="6.30518">
        <ele>1375.1</ele>
        <time>2022-01-06T08:15:42Z</time>
      </trkpt>
      <trkpt lat="45.83945" lon="6.30517">
        <ele>1375.1</ele>
        <time>2022-01-06T08:15:43Z</time>
      </trkpt>
      <trkpt lat="45.83947" lon="6.30516">
        <ele>1375.1</ele>
        <time>2022-01-06T08:15:44Z</time>
      </trkpt>
      <trkpt lat="45.83947" lon="6.30516">
        <ele>1375.1</ele>
        <time>2022-01-06T08:15:45Z</time>
      </trkpt>
      <trkpt lat="45.83948" lon="6.30515">
        <ele>1375.1</ele>
        <time>2022-01-06T08:15:46Z</time>
      </trkpt>
      <trkpt lat="45.83948" lon="6.30515">
        <ele>1375.1</ele>
        <time>2022-01-06T08:15:47Z</time>
      </trkpt>
      <trkpt lat="45.83947" lon="6.30515">
        <ele>1376</ele>
        <time>2022-01-06T08:15:48Z</time>
      </trkpt>
      <trkpt lat="45.83947" lon="6.30515">
        <ele>1376</ele>
        <time>2022-01-06T08:15:49Z</time>
      </trkpt>
      <trkpt lat="45.83947" lon="6.30514">
        <ele>1376</ele>
        <time>2022-01-06T08:15:50Z</time>
      </trkpt>
      <trkpt lat="45.83947" lon="6.30513">
        <ele>1376</ele>
        <time>2022-01-06T08:15:51Z</time>
      </trkpt>
      <trkpt lat="45.83947" lon="6.30511">
        <ele>1376</ele>
        <time>2022-01-06T08:15:52Z</time>
      </trkpt>
      <trkpt lat="45.83947" lon="6.3051">
        <ele>1376</ele>
        <time>2022-01-06T08:15:53Z</time>
      </trkpt>
      <trkpt lat="45.83946" lon="6.30509">
        <ele>1376</ele>
        <time>2022-01-06T08:15:54Z</time>
      </trkpt>
      <trkpt lat="45.83946" lon="6.30507">
        <ele>1376</ele>
        <time>2022-01-06T08:15:55Z</time>
      </trkpt>
      <trkpt lat="45.83946" lon="6.30506">
        <ele>1377.1</ele>
        <time>2022-01-06T08:15:56Z</time>
      </trkpt>
      <trkpt lat="45.83946" lon="6.30505">
        <ele>1377.1</ele>
        <time>2022-01-06T08:15:57Z</time>
      </trkpt>
      <trkpt lat="45.83946" lon="6.30504">
        <ele>1377.1</ele>
        <time>2022-01-06T08:15:58Z</time>
      </trkpt>
      <trkpt lat="45.83946" lon="6.30503">
        <ele>1377.1</ele>
        <time>2022-01-06T08:15:59Z</time>
      </trkpt>
      <trkpt lat="45.83947" lon="6.30502">
        <ele>1378</ele>
        <time>2022-01-06T08:16:00Z</time>
      </trkpt>
      <trkpt lat="45.83947" lon="6.30501">
        <ele>1378</ele>
        <time>2022-01-06T08:16:01Z</time>
      </trkpt>
      <trkpt lat="45.83947" lon="6.305">
        <ele>1378</ele>
        <time>2022-01-06T08:16:02Z</time>
      </trkpt>
      <trkpt lat="45.83948" lon="6.30499">
        <ele>1378</ele>
        <time>2022-01-06T08:16:03Z</time>
      </trkpt>
      <trkpt lat="45.83947" lon="6.30498">
        <ele>1379.1</ele>
        <time>2022-01-06T08:16:04Z</time>
      </trkpt>
      <trkpt lat="45.83948" lon="6.30497">
        <ele>1379.1</ele>
        <time>2022-01-06T08:16:05Z</time>
      </trkpt>
      <trkpt lat="45.83948" lon="6.30496">
        <ele>1379.1</ele>
        <time>2022-01-06T08:16:06Z</time>
      </trkpt>
      <trkpt lat="45.83948" lon="6.30495">
        <ele>1379.1</ele>
        <time>2022-01-06T08:16:07Z</time>
      </trkpt>
      <trkpt lat="45.83948" lon="6.30494">
        <ele>1380.2</ele>
        <time>2022-01-06T08:16:08Z</time>
      </trkpt>
      <trkpt lat="45.8395" lon="6.30494">
        <ele>1380.2</ele>
        <time>2022-01-06T08:16:09Z</time>
      </trkpt>
      <trkpt lat="45.8395" lon="6.30493">
        <ele>1380.2</ele>
        <time>2022-01-06T08:16:10Z</time>
      </trkpt>
      <trkpt lat="45.83952" lon="6.30492">
        <ele>1380.2</ele>
        <time>2022-01-06T08:16:11Z</time>
      </trkpt>
      <trkpt lat="45.83952" lon="6.30492">
        <ele>1381.1</ele>
        <time>2022-01-06T08:16:12Z</time>
      </trkpt>
      <trkpt lat="45.83952" lon="6.3049">
        <ele>1381.1</ele>
        <time>2022-01-06T08:16:13Z</time>
      </trkpt>
      <trkpt lat="45.83952" lon="6.3049">
        <ele>1381.1</ele>
        <time>2022-01-06T08:16:14Z</time>
      </trkpt>
      <trkpt lat="45.83953" lon="6.30489">
        <ele>1381.1</ele>
        <time>2022-01-06T08:16:15Z</time>
      </trkpt>
      <trkpt lat="45.83954" lon="6.30488">
        <ele>1382.1</ele>
        <time>2022-01-06T08:16:16Z</time>
      </trkpt>
      <trkpt lat="45.83954" lon="6.30486">
        <ele>1382.1</ele>
        <time>2022-01-06T08:16:17Z</time>
      </trkpt>
      <trkpt lat="45.83955" lon="6.30485">
        <ele>1383</ele>
        <time>2022-01-06T08:16:18Z</time>
      </trkpt>
      <trkpt lat="45.83955" lon="6.30484">
        <ele>1383</ele>
        <time>2022-01-06T08:16:19Z</time>
      </trkpt>
      <trkpt lat="45.83955" lon="6.30484">
        <ele>1383</ele>
        <time>2022-01-06T08:16:20Z</time>
      </trkpt>
      <trkpt lat="45.83956" lon="6.30483">
        <ele>1383</ele>
        <time>2022-01-06T08:16:21Z</time>
      </trkpt>
      <trkpt lat="45.83956" lon="6.30482">
        <ele>1383</ele>
        <time>2022-01-06T08:16:22Z</time>
      </trkpt>
      <trkpt lat="45.83956" lon="6.30481">
        <ele>1383</ele>
        <time>2022-01-06T08:16:23Z</time>
      </trkpt>
      <trkpt lat="45.83957" lon="6.3048">
        <ele>1384.1</ele>
        <time>2022-01-06T08:16:24Z</time>
      </trkpt>
      <trkpt lat="45.83957" lon="6.3048">
        <ele>1384.1</ele>
        <time>2022-01-06T08:16:25Z</time>
      </trkpt>
      <trkpt lat="45.83958" lon="6.3048">
        <ele>1384.1</ele>
        <time>2022-01-06T08:16:26Z</time>
      </trkpt>
      <trkpt lat="45.83958" lon="6.30479">
        <ele>1384.1</ele>
        <time>2022-01-06T08:16:27Z</time>
      </trkpt>
      <trkpt lat="45.83959" lon="6.30478">
        <ele>1385</ele>
        <time>2022-01-06T08:16:28Z</time>
      </trkpt>
      <trkpt lat="45.8396" lon="6.30478">
        <ele>1385</ele>
        <time>2022-01-06T08:16:29Z</time>
      </trkpt>
      <trkpt lat="45.8396" lon="6.30477">
        <ele>1385</ele>
        <time>2022-01-06T08:16:30Z</time>
      </trkpt>
      <trkpt lat="45.83961" lon="6.30476">
        <ele>1385</ele>
        <time>2022-01-06T08:16:31Z</time>
      </trkpt>
      <trkpt lat="45.83961" lon="6.30476">
        <ele>1386.1</ele>
        <time>2022-01-06T08:16:32Z</time>
      </trkpt>
      <trkpt lat="45.83961" lon="6.30474">
        <ele>1386.1</ele>
        <time>2022-01-06T08:16:33Z</time>
      </trkpt>
      <trkpt lat="45.83962" lon="6.30473">
        <ele>1386.1</ele>
        <time>2022-01-06T08:16:34Z</time>
      </trkpt>
      <trkpt lat="45.83962" lon="6.30472">
        <ele>1386.1</ele>
        <time>2022-01-06T08:16:35Z</time>
      </trkpt>
      <trkpt lat="45.83963" lon="6.30472">
        <ele>1387</ele>
        <time>2022-01-06T08:16:36Z</time>
      </trkpt>
      <trkpt lat="45.83964" lon="6.30471">
        <ele>1387</ele>
        <time>2022-01-06T08:16:37Z</time>
      </trkpt>
      <trkpt lat="45.83964" lon="6.3047">
        <ele>1387</ele>
        <time>2022-01-06T08:16:38Z</time>
      </trkpt>
      <trkpt lat="45.83964" lon="6.30469">
        <ele>1387</ele>
        <time>2022-01-06T08:16:39Z</time>
      </trkpt>
      <trkpt lat="45.83964" lon="6.30469">
        <ele>1387</ele>
        <time>2022-01-06T08:16:40Z</time>
      </trkpt>
      <trkpt lat="45.83965" lon="6.30468">
        <ele>1387</ele>
        <time>2022-01-06T08:16:41Z</time>
      </trkpt>
      <trkpt lat="45.83965" lon="6.30467">
        <ele>1388.1</ele>
        <time>2022-01-06T08:16:42Z</time>
      </trkpt>
      <trkpt lat="45.83966" lon="6.30467">
        <ele>1388.1</ele>
        <time>2022-01-06T08:16:43Z</time>
      </trkpt>
      <trkpt lat="45.83967" lon="6.30466">
        <ele>1388.1</ele>
        <time>2022-01-06T08:16:44Z</time>
      </trkpt>
      <trkpt lat="45.83967" lon="6.30465">
        <ele>1388.1</ele>
        <time>2022-01-06T08:16:45Z</time>
      </trkpt>
      <trkpt lat="45.83968" lon="6.30464">
        <ele>1389.1</ele>
        <time>2022-01-06T08:16:46Z</time>
      </trkpt>
      <trkpt lat="45.83968" lon="6.30463">
        <ele>1389.1</ele>
        <time>2022-01-06T08:16:47Z</time>
      </trkpt>
      <trkpt lat="45.83968" lon="6.30462">
        <ele>1389.1</ele>
        <time>2022-01-06T08:16:48Z</time>
      </trkpt>
      <trkpt lat="45.83968" lon="6.30461">
        <ele>1389.1</ele>
        <time>2022-01-06T08:16:49Z</time>
      </trkpt>
      <trkpt lat="45.83969" lon="6.3046">
        <ele>1390.1</ele>
        <time>2022-01-06T08:16:50Z</time>
      </trkpt>
      <trkpt lat="45.8397" lon="6.30458">
        <ele>1390.1</ele>
        <time>2022-01-06T08:16:51Z</time>
      </trkpt>
      <trkpt lat="45.83971" lon="6.30457">
        <ele>1390.1</ele>
        <time>2022-01-06T08:16:52Z</time>
      </trkpt>
      <trkpt lat="45.83971" lon="6.30456">
        <ele>1390.1</ele>
        <time>2022-01-06T08:16:53Z</time>
      </trkpt>
      <trkpt lat="45.83972" lon="6.30455">
        <ele>1391.1</ele>
        <time>2022-01-06T08:16:54Z</time>
      </trkpt>
      <trkpt lat="45.83972" lon="6.30454">
        <ele>1391.1</ele>
        <time>2022-01-06T08:16:55Z</time>
      </trkpt>
      <trkpt lat="45.83973" lon="6.30453">
        <ele>1391.1</ele>
        <time>2022-01-06T08:16:56Z</time>
      </trkpt>
      <trkpt lat="45.83973" lon="6.30451">
        <ele>1391.1</ele>
        <time>2022-01-06T08:16:57Z</time>
      </trkpt>
      <trkpt lat="45.83973" lon="6.3045">
        <ele>1392</ele>
        <time>2022-01-06T08:16:58Z</time>
      </trkpt>
      <trkpt lat="45.83974" lon="6.30449">
        <ele>1392</ele>
        <time>2022-01-06T08:16:59Z</time>
      </trkpt>
      <trkpt lat="45.83974" lon="6.30448">
        <ele>1392</ele>
        <time>2022-01-06T08:17:00Z</time>
      </trkpt>
      <trkpt lat="45.83974" lon="6.30448">
        <ele>1392</ele>
        <time>2022-01-06T08:17:01Z</time>
      </trkpt>
      <trkpt lat="45.83975" lon="6.30447">
        <ele>1392</ele>
        <time>2022-01-06T08:17:02Z</time>
      </trkpt>
      <trkpt lat="45.83976" lon="6.30446">
        <ele>1392</ele>
        <time>2022-01-06T08:17:03Z</time>
      </trkpt>
      <trkpt lat="45.83976" lon="6.30446">
        <ele>1393.1</ele>
        <time>2022-01-06T08:17:04Z</time>
      </trkpt>
      <trkpt lat="45.83977" lon="6.30445">
        <ele>1393.1</ele>
        <time>2022-01-06T08:17:05Z</time>
      </trkpt>
      <trkpt lat="45.83978" lon="6.30444">
        <ele>1394</ele>
        <time>2022-01-06T08:17:06Z</time>
      </trkpt>
      <trkpt lat="45.83978" lon="6.30443">
        <ele>1394</ele>
        <time>2022-01-06T08:17:07Z</time>
      </trkpt>
      <trkpt lat="45.83978" lon="6.30443">
        <ele>1394</ele>
        <time>2022-01-06T08:17:08Z</time>
      </trkpt>
      <trkpt lat="45.83979" lon="6.30442">
        <ele>1394</ele>
        <time>2022-01-06T08:17:09Z</time>
      </trkpt>
      <trkpt lat="45.83979" lon="6.30442">
        <ele>1395.1</ele>
        <time>2022-01-06T08:17:10Z</time>
      </trkpt>
      <trkpt lat="45.83979" lon="6.30441">
        <ele>1395.1</ele>
        <time>2022-01-06T08:17:11Z</time>
      </trkpt>
      <trkpt lat="45.8398" lon="6.30439">
        <ele>1395.1</ele>
        <time>2022-01-06T08:17:12Z</time>
      </trkpt>
      <trkpt lat="45.8398" lon="6.30438">
        <ele>1395.1</ele>
        <time>2022-01-06T08:17:13Z</time>
      </trkpt>
      <trkpt lat="45.83981" lon="6.30437">
        <ele>1396.2</ele>
        <time>2022-01-06T08:17:14Z</time>
      </trkpt>
      <trkpt lat="45.83981" lon="6.30436">
        <ele>1396.2</ele>
        <time>2022-01-06T08:17:15Z</time>
      </trkpt>
      <trkpt lat="45.83982" lon="6.30434">
        <ele>1396.2</ele>
        <time>2022-01-06T08:17:16Z</time>
      </trkpt>
      <trkpt lat="45.83982" lon="6.30432">
        <ele>1396.2</ele>
        <time>2022-01-06T08:17:17Z</time>
      </trkpt>
      <trkpt lat="45.83983" lon="6.30431">
        <ele>1397.1</ele>
        <time>2022-01-06T08:17:18Z</time>
      </trkpt>
      <trkpt lat="45.83984" lon="6.3043">
        <ele>1397.1</ele>
        <time>2022-01-06T08:17:19Z</time>
      </trkpt>
      <trkpt lat="45.83984" lon="6.30428">
        <ele>1397.1</ele>
        <time>2022-01-06T08:17:20Z</time>
      </trkpt>
      <trkpt lat="45.83985" lon="6.30427">
        <ele>1397.1</ele>
        <time>2022-01-06T08:17:21Z</time>
      </trkpt>
      <trkpt lat="45.83985" lon="6.30426">
        <ele>1398.1</ele>
        <time>2022-01-06T08:17:22Z</time>
      </trkpt>
      <trkpt lat="45.83987" lon="6.30425">
        <ele>1398.1</ele>
        <time>2022-01-06T08:17:23Z</time>
      </trkpt>
      <trkpt lat="45.83987" lon="6.30424">
        <ele>1398.1</ele>
        <time>2022-01-06T08:17:24Z</time>
      </trkpt>
      <trkpt lat="45.83988" lon="6.30423">
        <ele>1398.1</ele>
        <time>2022-01-06T08:17:25Z</time>
      </trkpt>
      <trkpt lat="45.83988" lon="6.30423">
        <ele>1398.1</ele>
        <time>2022-01-06T08:17:26Z</time>
      </trkpt>
      <trkpt lat="45.83988" lon="6.30423">
        <ele>1398.1</ele>
        <time>2022-01-06T08:17:27Z</time>
      </trkpt>
      <trkpt lat="45.83988" lon="6.30422">
        <ele>1399</ele>
        <time>2022-01-06T08:17:28Z</time>
      </trkpt>
      <trkpt lat="45.83989" lon="6.30422">
        <ele>1399</ele>
        <time>2022-01-06T08:17:29Z</time>
      </trkpt>
      <trkpt lat="45.8399" lon="6.3042">
        <ele>1399</ele>
        <time>2022-01-06T08:17:30Z</time>
      </trkpt>
      <trkpt lat="45.83991" lon="6.3042">
        <ele>1399</ele>
        <time>2022-01-06T08:17:31Z</time>
      </trkpt>
      <trkpt lat="45.83991" lon="6.30419">
        <ele>1400.1</ele>
        <time>2022-01-06T08:17:32Z</time>
      </trkpt>
      <trkpt lat="45.83991" lon="6.30418">
        <ele>1400.1</ele>
        <time>2022-01-06T08:17:33Z</time>
      </trkpt>
      <trkpt lat="45.83991" lon="6.30416">
        <ele>1401</ele>
        <time>2022-01-06T08:17:34Z</time>
      </trkpt>
      <trkpt lat="45.83992" lon="6.30416">
        <ele>1401</ele>
        <time>2022-01-06T08:17:35Z</time>
      </trkpt>
      <trkpt lat="45.83992" lon="6.30415">
        <ele>1401</ele>
        <time>2022-01-06T08:17:36Z</time>
      </trkpt>
      <trkpt lat="45.83992" lon="6.30415">
        <ele>1401</ele>
        <time>2022-01-06T08:17:37Z</time>
      </trkpt>
      <trkpt lat="45.83992" lon="6.30414">
        <ele>1402.1</ele>
        <time>2022-01-06T08:17:38Z</time>
      </trkpt>
      <trkpt lat="45.83992" lon="6.30413">
        <ele>1402.1</ele>
        <time>2022-01-06T08:17:39Z</time>
      </trkpt>
      <trkpt lat="45.83992" lon="6.30412">
        <ele>1402.1</ele>
        <time>2022-01-06T08:17:40Z</time>
      </trkpt>
      <trkpt lat="45.83991" lon="6.30411">
        <ele>1402.1</ele>
        <time>2022-01-06T08:17:41Z</time>
      </trkpt>
      <trkpt lat="45.83991" lon="6.30411">
        <ele>1403</ele>
        <time>2022-01-06T08:17:42Z</time>
      </trkpt>
      <trkpt lat="45.83991" lon="6.3041">
        <ele>1403</ele>
        <time>2022-01-06T08:17:43Z</time>
      </trkpt>
      <trkpt lat="45.8399" lon="6.3041">
        <ele>1403</ele>
        <time>2022-01-06T08:17:44Z</time>
      </trkpt>
      <trkpt lat="45.8399" lon="6.30409">
        <ele>1403</ele>
        <time>2022-01-06T08:17:45Z</time>
      </trkpt>
      <trkpt lat="45.83989" lon="6.30409">
        <ele>1403</ele>
        <time>2022-01-06T08:17:46Z</time>
      </trkpt>
      <trkpt lat="45.83987" lon="6.30409">
        <ele>1403</ele>
        <time>2022-01-06T08:17:47Z</time>
      </trkpt>
      <trkpt lat="45.83986" lon="6.30408">
        <ele>1404.1</ele>
        <time>2022-01-06T08:17:48Z</time>
      </trkpt>
      <trkpt lat="45.83986" lon="6.30406">
        <ele>1404.1</ele>
        <time>2022-01-06T08:17:49Z</time>
      </trkpt>
      <trkpt lat="45.83986" lon="6.30405">
        <ele>1404.1</ele>
        <time>2022-01-06T08:17:50Z</time>
      </trkpt>
      <trkpt lat="45.83986" lon="6.30404">
        <ele>1404.1</ele>
        <time>2022-01-06T08:17:51Z</time>
      </trkpt>
      <trkpt lat="45.83986" lon="6.30403">
        <ele>1405.1</ele>
        <time>2022-01-06T08:17:52Z</time>
      </trkpt>
      <trkpt lat="45.83986" lon="6.30402">
        <ele>1405.1</ele>
        <time>2022-01-06T08:17:53Z</time>
      </trkpt>
      <trkpt lat="45.83986" lon="6.30401">
        <ele>1405.1</ele>
        <time>2022-01-06T08:17:54Z</time>
      </trkpt>
      <trkpt lat="45.83986" lon="6.304">
        <ele>1405.1</ele>
        <time>2022-01-06T08:17:55Z</time>
      </trkpt>
      <trkpt lat="45.83986" lon="6.30398">
        <ele>1405.1</ele>
        <time>2022-01-06T08:17:56Z</time>
      </trkpt>
      <trkpt lat="45.83986" lon="6.30396">
        <ele>1405.1</ele>
        <time>2022-01-06T08:17:57Z</time>
      </trkpt>
      <trkpt lat="45.83986" lon="6.30395">
        <ele>1406.1</ele>
        <time>2022-01-06T08:17:58Z</time>
      </trkpt>
      <trkpt lat="45.83986" lon="6.30395">
        <ele>1406.1</ele>
        <time>2022-01-06T08:17:59Z</time>
      </trkpt>
      <trkpt lat="45.83986" lon="6.30393">
        <ele>1406.1</ele>
        <time>2022-01-06T08:18:00Z</time>
      </trkpt>
      <trkpt lat="45.83986" lon="6.30392">
        <ele>1406.1</ele>
        <time>2022-01-06T08:18:01Z</time>
      </trkpt>
      <trkpt lat="45.83986" lon="6.3039">
        <ele>1407.1</ele>
        <time>2022-01-06T08:18:02Z</time>
      </trkpt>
      <trkpt lat="45.83987" lon="6.30389">
        <ele>1407.1</ele>
        <time>2022-01-06T08:18:03Z</time>
      </trkpt>
      <trkpt lat="45.83987" lon="6.30388">
        <ele>1407.1</ele>
        <time>2022-01-06T08:18:04Z</time>
      </trkpt>
      <trkpt lat="45.83988" lon="6.30386">
        <ele>1407.1</ele>
        <time>2022-01-06T08:18:05Z</time>
      </trkpt>
      <trkpt lat="45.83988" lon="6.30385">
        <ele>1407.1</ele>
        <time>2022-01-06T08:18:06Z</time>
      </trkpt>
      <trkpt lat="45.83988" lon="6.30384">
        <ele>1407.1</ele>
        <time>2022-01-06T08:18:07Z</time>
      </trkpt>
      <trkpt lat="45.83989" lon="6.30383">
        <ele>1407.1</ele>
        <time>2022-01-06T08:18:08Z</time>
      </trkpt>
      <trkpt lat="45.83989" lon="6.30382">
        <ele>1407.1</ele>
        <time>2022-01-06T08:18:09Z</time>
      </trkpt>
      <trkpt lat="45.83989" lon="6.30382">
        <ele>1410</ele>
        <time>2022-01-06T08:18:10Z</time>
      </trkpt>
      <trkpt lat="45.8399" lon="6.30381">
        <ele>1410</ele>
        <time>2022-01-06T08:18:11Z</time>
      </trkpt>
      <trkpt lat="45.8399" lon="6.3038">
        <ele>1410</ele>
        <time>2022-01-06T08:18:12Z</time>
      </trkpt>
      <trkpt lat="45.83991" lon="6.30378">
        <ele>1410</ele>
        <time>2022-01-06T08:18:13Z</time>
      </trkpt>
      <trkpt lat="45.83991" lon="6.30377">
        <ele>1411.1</ele>
        <time>2022-01-06T08:18:14Z</time>
      </trkpt>
      <trkpt lat="45.83992" lon="6.30375">
        <ele>1411.1</ele>
        <time>2022-01-06T08:18:15Z</time>
      </trkpt>
      <trkpt lat="45.83993" lon="6.30374">
        <ele>1411.1</ele>
        <time>2022-01-06T08:18:16Z</time>
      </trkpt>
      <trkpt lat="45.83993" lon="6.30373">
        <ele>1411.1</ele>
        <time>2022-01-06T08:18:17Z</time>
      </trkpt>
      <trkpt lat="45.83994" lon="6.30372">
        <ele>1412.2</ele>
        <time>2022-01-06T08:18:18Z</time>
      </trkpt>
      <trkpt lat="45.83994" lon="6.30372">
        <ele>1412.2</ele>
        <time>2022-01-06T08:18:19Z</time>
      </trkpt>
      <trkpt lat="45.83994" lon="6.30371">
        <ele>1412.2</ele>
        <time>2022-01-06T08:18:20Z</time>
      </trkpt>
      <trkpt lat="45.83993" lon="6.30369">
        <ele>1412.2</ele>
        <time>2022-01-06T08:18:21Z</time>
      </trkpt>
      <trkpt lat="45.83993" lon="6.30367">
        <ele>1412.2</ele>
        <time>2022-01-06T08:18:22Z</time>
      </trkpt>
      <trkpt lat="45.83993" lon="6.30366">
        <ele>1412.2</ele>
        <time>2022-01-06T08:18:23Z</time>
      </trkpt>
      <trkpt lat="45.83994" lon="6.30365">
        <ele>1413.1</ele>
        <time>2022-01-06T08:18:24Z</time>
      </trkpt>
      <trkpt lat="45.83995" lon="6.30364">
        <ele>1413.1</ele>
        <time>2022-01-06T08:18:25Z</time>
      </trkpt>
      <trkpt lat="45.83995" lon="6.30362">
        <ele>1413.1</ele>
        <time>2022-01-06T08:18:26Z</time>
      </trkpt>
      <trkpt lat="45.83995" lon="6.30362">
        <ele>1413.1</ele>
        <time>2022-01-06T08:18:27Z</time>
      </trkpt>
      <trkpt lat="45.83995" lon="6.30361">
        <ele>1413.1</ele>
        <time>2022-01-06T08:18:28Z</time>
      </trkpt>
      <trkpt lat="45.83996" lon="6.30359">
        <ele>1413.1</ele>
        <time>2022-01-06T08:18:29Z</time>
      </trkpt>
      <trkpt lat="45.83996" lon="6.30358">
        <ele>1413.1</ele>
        <time>2022-01-06T08:18:30Z</time>
      </trkpt>
      <trkpt lat="45.83997" lon="6.30357">
        <ele>1413.1</ele>
        <time>2022-01-06T08:18:31Z</time>
      </trkpt>
      <trkpt lat="45.83997" lon="6.30356">
        <ele>1414.1</ele>
        <time>2022-01-06T08:18:32Z</time>
      </trkpt>
      <trkpt lat="45.83997" lon="6.30355">
        <ele>1414.1</ele>
        <time>2022-01-06T08:18:33Z</time>
      </trkpt>
      <trkpt lat="45.83998" lon="6.30354">
        <ele>1415.1</ele>
        <time>2022-01-06T08:18:34Z</time>
      </trkpt>
      <trkpt lat="45.83998" lon="6.30353">
        <ele>1415.1</ele>
        <time>2022-01-06T08:18:35Z</time>
      </trkpt>
      <trkpt lat="45.83998" lon="6.30352">
        <ele>1415.1</ele>
        <time>2022-01-06T08:18:36Z</time>
      </trkpt>
      <trkpt lat="45.83999" lon="6.30351">
        <ele>1415.1</ele>
        <time>2022-01-06T08:18:37Z</time>
      </trkpt>
      <trkpt lat="45.83999" lon="6.30349">
        <ele>1416.1</ele>
        <time>2022-01-06T08:18:38Z</time>
      </trkpt>
      <trkpt lat="45.84" lon="6.30348">
        <ele>1416.1</ele>
        <time>2022-01-06T08:18:39Z</time>
      </trkpt>
      <trkpt lat="45.84" lon="6.30347">
        <ele>1416.1</ele>
        <time>2022-01-06T08:18:40Z</time>
      </trkpt>
      <trkpt lat="45.84001" lon="6.30346">
        <ele>1416.1</ele>
        <time>2022-01-06T08:18:41Z</time>
      </trkpt>
      <trkpt lat="45.84001" lon="6.30344">
        <ele>1416.1</ele>
        <time>2022-01-06T08:18:42Z</time>
      </trkpt>
      <trkpt lat="45.84002" lon="6.30344">
        <ele>1416.1</ele>
        <time>2022-01-06T08:18:43Z</time>
      </trkpt>
      <trkpt lat="45.84002" lon="6.30342">
        <ele>1417</ele>
        <time>2022-01-06T08:18:44Z</time>
      </trkpt>
      <trkpt lat="45.84002" lon="6.30342">
        <ele>1417</ele>
        <time>2022-01-06T08:18:45Z</time>
      </trkpt>
      <trkpt lat="45.84002" lon="6.30341">
        <ele>1417</ele>
        <time>2022-01-06T08:18:46Z</time>
      </trkpt>
      <trkpt lat="45.84003" lon="6.30341">
        <ele>1417</ele>
        <time>2022-01-06T08:18:47Z</time>
      </trkpt>
      <trkpt lat="45.84005" lon="6.3034">
        <ele>1418.1</ele>
        <time>2022-01-06T08:18:48Z</time>
      </trkpt>
      <trkpt lat="45.84005" lon="6.30339">
        <ele>1418.1</ele>
        <time>2022-01-06T08:18:49Z</time>
      </trkpt>
      <trkpt lat="45.84006" lon="6.30338">
        <ele>1418.1</ele>
        <time>2022-01-06T08:18:50Z</time>
      </trkpt>
      <trkpt lat="45.84006" lon="6.30337">
        <ele>1418.1</ele>
        <time>2022-01-06T08:18:51Z</time>
      </trkpt>
      <trkpt lat="45.84006" lon="6.30335">
        <ele>1419</ele>
        <time>2022-01-06T08:18:52Z</time>
      </trkpt>
      <trkpt lat="45.84007" lon="6.30334">
        <ele>1419</ele>
        <time>2022-01-06T08:18:53Z</time>
      </trkpt>
      <trkpt lat="45.84007" lon="6.30333">
        <ele>1419</ele>
        <time>2022-01-06T08:18:54Z</time>
      </trkpt>
      <trkpt lat="45.84007" lon="6.30332">
        <ele>1419</ele>
        <time>2022-01-06T08:18:55Z</time>
      </trkpt>
      <trkpt lat="45.84007" lon="6.3033">
        <ele>1420.1</ele>
        <time>2022-01-06T08:18:56Z</time>
      </trkpt>
      <trkpt lat="45.84007" lon="6.30329">
        <ele>1420.1</ele>
        <time>2022-01-06T08:18:57Z</time>
      </trkpt>
      <trkpt lat="45.84007" lon="6.30328">
        <ele>1420.1</ele>
        <time>2022-01-06T08:18:58Z</time>
      </trkpt>
      <trkpt lat="45.84008" lon="6.30327">
        <ele>1420.1</ele>
        <time>2022-01-06T08:18:59Z</time>
      </trkpt>
      <trkpt lat="45.84008" lon="6.30327">
        <ele>1421.1</ele>
        <time>2022-01-06T08:19:00Z</time>
      </trkpt>
      <trkpt lat="45.84009" lon="6.30326">
        <ele>1421.1</ele>
        <time>2022-01-06T08:19:01Z</time>
      </trkpt>
      <trkpt lat="45.84009" lon="6.30325">
        <ele>1421.1</ele>
        <time>2022-01-06T08:19:02Z</time>
      </trkpt>
      <trkpt lat="45.8401" lon="6.30324">
        <ele>1421.1</ele>
        <time>2022-01-06T08:19:03Z</time>
      </trkpt>
      <trkpt lat="45.8401" lon="6.30324">
        <ele>1422.1</ele>
        <time>2022-01-06T08:19:04Z</time>
      </trkpt>
      <trkpt lat="45.84009" lon="6.30323">
        <ele>1422.1</ele>
        <time>2022-01-06T08:19:05Z</time>
      </trkpt>
      <trkpt lat="45.84009" lon="6.30321">
        <ele>1422.1</ele>
        <time>2022-01-06T08:19:06Z</time>
      </trkpt>
      <trkpt lat="45.84009" lon="6.3032">
        <ele>1422.1</ele>
        <time>2022-01-06T08:19:07Z</time>
      </trkpt>
      <trkpt lat="45.84009" lon="6.30319">
        <ele>1423.1</ele>
        <time>2022-01-06T08:19:08Z</time>
      </trkpt>
      <trkpt lat="45.8401" lon="6.30318">
        <ele>1423.1</ele>
        <time>2022-01-06T08:19:09Z</time>
      </trkpt>
      <trkpt lat="45.8401" lon="6.30317">
        <ele>1424</ele>
        <time>2022-01-06T08:19:10Z</time>
      </trkpt>
      <trkpt lat="45.8401" lon="6.30316">
        <ele>1424</ele>
        <time>2022-01-06T08:19:11Z</time>
      </trkpt>
      <trkpt lat="45.84011" lon="6.30315">
        <ele>1425.1</ele>
        <time>2022-01-06T08:19:12Z</time>
      </trkpt>
      <trkpt lat="45.84011" lon="6.30315">
        <ele>1425.1</ele>
        <time>2022-01-06T08:19:13Z</time>
      </trkpt>
      <trkpt lat="45.84012" lon="6.30314">
        <ele>1425.1</ele>
        <time>2022-01-06T08:19:14Z</time>
      </trkpt>
      <trkpt lat="45.84012" lon="6.30313">
        <ele>1425.1</ele>
        <time>2022-01-06T08:19:15Z</time>
      </trkpt>
      <trkpt lat="45.84013" lon="6.30313">
        <ele>1425.1</ele>
        <time>2022-01-06T08:19:16Z</time>
      </trkpt>
      <trkpt lat="45.84013" lon="6.30312">
        <ele>1425.1</ele>
        <time>2022-01-06T08:19:17Z</time>
      </trkpt>
      <trkpt lat="45.84013" lon="6.30311">
        <ele>1425.1</ele>
        <time>2022-01-06T08:19:18Z</time>
      </trkpt>
      <trkpt lat="45.84013" lon="6.3031">
        <ele>1425.1</ele>
        <time>2022-01-06T08:19:19Z</time>
      </trkpt>
      <trkpt lat="45.84013" lon="6.30309">
        <ele>1426</ele>
        <time>2022-01-06T08:19:20Z</time>
      </trkpt>
      <trkpt lat="45.84014" lon="6.30308">
        <ele>1426</ele>
        <time>2022-01-06T08:19:21Z</time>
      </trkpt>
      <trkpt lat="45.84013" lon="6.30307">
        <ele>1426</ele>
        <time>2022-01-06T08:19:22Z</time>
      </trkpt>
      <trkpt lat="45.84013" lon="6.30307">
        <ele>1426</ele>
        <time>2022-01-06T08:19:23Z</time>
      </trkpt>
      <trkpt lat="45.84012" lon="6.30306">
        <ele>1427.1</ele>
        <time>2022-01-06T08:19:24Z</time>
      </trkpt>
      <trkpt lat="45.84011" lon="6.30306">
        <ele>1427.1</ele>
        <time>2022-01-06T08:19:25Z</time>
      </trkpt>
      <trkpt lat="45.8401" lon="6.30306">
        <ele>1428.2</ele>
        <time>2022-01-06T08:19:26Z</time>
      </trkpt>
      <trkpt lat="45.84009" lon="6.30305">
        <ele>1428.2</ele>
        <time>2022-01-06T08:19:27Z</time>
      </trkpt>
      <trkpt lat="45.84009" lon="6.30304">
        <ele>1428.2</ele>
        <time>2022-01-06T08:19:28Z</time>
      </trkpt>
      <trkpt lat="45.84008" lon="6.30304">
        <ele>1428.2</ele>
        <time>2022-01-06T08:19:29Z</time>
      </trkpt>
      <trkpt lat="45.84008" lon="6.30303">
        <ele>1429.1</ele>
        <time>2022-01-06T08:19:30Z</time>
      </trkpt>
      <trkpt lat="45.84007" lon="6.30303">
        <ele>1429.1</ele>
        <time>2022-01-06T08:19:31Z</time>
      </trkpt>
      <trkpt lat="45.84007" lon="6.30302">
        <ele>1429.1</ele>
        <time>2022-01-06T08:19:32Z</time>
      </trkpt>
      <trkpt lat="45.84006" lon="6.30301">
        <ele>1429.1</ele>
        <time>2022-01-06T08:19:33Z</time>
      </trkpt>
      <trkpt lat="45.84005" lon="6.30299">
        <ele>1430.1</ele>
        <time>2022-01-06T08:19:34Z</time>
      </trkpt>
      <trkpt lat="45.84004" lon="6.30299">
        <ele>1430.1</ele>
        <time>2022-01-06T08:19:35Z</time>
      </trkpt>
      <trkpt lat="45.84004" lon="6.30298">
        <ele>1430.1</ele>
        <time>2022-01-06T08:19:36Z</time>
      </trkpt>
      <trkpt lat="45.84004" lon="6.30298">
        <ele>1430.1</ele>
        <time>2022-01-06T08:19:37Z</time>
      </trkpt>
      <trkpt lat="45.84004" lon="6.30297">
        <ele>1430.1</ele>
        <time>2022-01-06T08:19:38Z</time>
      </trkpt>
      <trkpt lat="45.84004" lon="6.30295">
        <ele>1430.1</ele>
        <time>2022-01-06T08:19:39Z</time>
      </trkpt>
      <trkpt lat="45.84004" lon="6.30294">
        <ele>1431.1</ele>
        <time>2022-01-06T08:19:40Z</time>
      </trkpt>
      <trkpt lat="45.84003" lon="6.30293">
        <ele>1431.1</ele>
        <time>2022-01-06T08:19:41Z</time>
      </trkpt>
      <trkpt lat="45.84003" lon="6.30292">
        <ele>1431.1</ele>
        <time>2022-01-06T08:19:42Z</time>
      </trkpt>
      <trkpt lat="45.84002" lon="6.30291">
        <ele>1431.1</ele>
        <time>2022-01-06T08:19:43Z</time>
      </trkpt>
      <trkpt lat="45.84001" lon="6.30291">
        <ele>1432.1</ele>
        <time>2022-01-06T08:19:44Z</time>
      </trkpt>
      <trkpt lat="45.84001" lon="6.3029">
        <ele>1432.1</ele>
        <time>2022-01-06T08:19:45Z</time>
      </trkpt>
      <trkpt lat="45.84001" lon="6.30289">
        <ele>1432.1</ele>
        <time>2022-01-06T08:19:46Z</time>
      </trkpt>
      <trkpt lat="45.84" lon="6.30288">
        <ele>1432.1</ele>
        <time>2022-01-06T08:19:47Z</time>
      </trkpt>
      <trkpt lat="45.84" lon="6.30287">
        <ele>1433</ele>
        <time>2022-01-06T08:19:48Z</time>
      </trkpt>
      <trkpt lat="45.84" lon="6.30285">
        <ele>1433</ele>
        <time>2022-01-06T08:19:49Z</time>
      </trkpt>
      <trkpt lat="45.84" lon="6.30284">
        <ele>1433</ele>
        <time>2022-01-06T08:19:50Z</time>
      </trkpt>
      <trkpt lat="45.84" lon="6.30283">
        <ele>1433</ele>
        <time>2022-01-06T08:19:51Z</time>
      </trkpt>
      <trkpt lat="45.84" lon="6.30282">
        <ele>1434.1</ele>
        <time>2022-01-06T08:19:52Z</time>
      </trkpt>
      <trkpt lat="45.84" lon="6.30281">
        <ele>1434.1</ele>
        <time>2022-01-06T08:19:53Z</time>
      </trkpt>
      <trkpt lat="45.84" lon="6.3028">
        <ele>1434.1</ele>
        <time>2022-01-06T08:19:54Z</time>
      </trkpt>
      <trkpt lat="45.84" lon="6.3028">
        <ele>1434.1</ele>
        <time>2022-01-06T08:19:55Z</time>
      </trkpt>
      <trkpt lat="45.84" lon="6.30279">
        <ele>1434.1</ele>
        <time>2022-01-06T08:19:56Z</time>
      </trkpt>
      <trkpt lat="45.84" lon="6.30279">
        <ele>1434.1</ele>
        <time>2022-01-06T08:19:57Z</time>
      </trkpt>
      <trkpt lat="45.83999" lon="6.30278">
        <ele>1435</ele>
        <time>2022-01-06T08:19:58Z</time>
      </trkpt>
      <trkpt lat="45.83999" lon="6.30278">
        <ele>1435</ele>
        <time>2022-01-06T08:19:59Z</time>
      </trkpt>
      <trkpt lat="45.83998" lon="6.30278">
        <ele>1435</ele>
        <time>2022-01-06T08:20:00Z</time>
      </trkpt>
      <trkpt lat="45.83997" lon="6.30278">
        <ele>1435</ele>
        <time>2022-01-06T08:20:01Z</time>
      </trkpt>
      <trkpt lat="45.83997" lon="6.30277">
        <ele>1436.1</ele>
        <time>2022-01-06T08:20:02Z</time>
      </trkpt>
      <trkpt lat="45.83997" lon="6.30277">
        <ele>1436.1</ele>
        <time>2022-01-06T08:20:03Z</time>
      </trkpt>
      <trkpt lat="45.83996" lon="6.30278">
        <ele>1436.1</ele>
        <time>2022-01-06T08:20:04Z</time>
      </trkpt>
      <trkpt lat="45.83996" lon="6.30278">
        <ele>1436.1</ele>
        <time>2022-01-06T08:20:05Z</time>
      </trkpt>
      <trkpt lat="45.83996" lon="6.30277">
        <ele>1437.1</ele>
        <time>2022-01-06T08:20:06Z</time>
      </trkpt>
      <trkpt lat="45.83994" lon="6.30277">
        <ele>1437.1</ele>
        <time>2022-01-06T08:20:07Z</time>
      </trkpt>
      <trkpt lat="45.83994" lon="6.30278">
        <ele>1437.1</ele>
        <time>2022-01-06T08:20:08Z</time>
      </trkpt>
      <trkpt lat="45.83993" lon="6.30278">
        <ele>1437.1</ele>
        <time>2022-01-06T08:20:09Z</time>
      </trkpt>
      <trkpt lat="45.83992" lon="6.30279">
        <ele>1437.1</ele>
        <time>2022-01-06T08:20:10Z</time>
      </trkpt>
      <trkpt lat="45.83992" lon="6.30279">
        <ele>1437.1</ele>
        <time>2022-01-06T08:20:11Z</time>
      </trkpt>
      <trkpt lat="45.83991" lon="6.3028">
        <ele>1437.1</ele>
        <time>2022-01-06T08:20:12Z</time>
      </trkpt>
      <trkpt lat="45.8399" lon="6.3028">
        <ele>1437.1</ele>
        <time>2022-01-06T08:20:13Z</time>
      </trkpt>
      <trkpt lat="45.8399" lon="6.30281">
        <ele>1440</ele>
        <time>2022-01-06T08:20:14Z</time>
      </trkpt>
      <trkpt lat="45.83989" lon="6.30282">
        <ele>1440</ele>
        <time>2022-01-06T08:20:15Z</time>
      </trkpt>
      <trkpt lat="45.83988" lon="6.30282">
        <ele>1440</ele>
        <time>2022-01-06T08:20:16Z</time>
      </trkpt>
      <trkpt lat="45.83987" lon="6.30283">
        <ele>1440</ele>
        <time>2022-01-06T08:20:17Z</time>
      </trkpt>
      <trkpt lat="45.83986" lon="6.30283">
        <ele>1441.1</ele>
        <time>2022-01-06T08:20:18Z</time>
      </trkpt>
      <trkpt lat="45.83986" lon="6.30284">
        <ele>1441.1</ele>
        <time>2022-01-06T08:20:19Z</time>
      </trkpt>
      <trkpt lat="45.83985" lon="6.30284">
        <ele>1441.1</ele>
        <time>2022-01-06T08:20:20Z</time>
      </trkpt>
      <trkpt lat="45.83985" lon="6.30285">
        <ele>1441.1</ele>
        <time>2022-01-06T08:20:21Z</time>
      </trkpt>
      <trkpt lat="45.83984" lon="6.30286">
        <ele>1442</ele>
        <time>2022-01-06T08:20:22Z</time>
      </trkpt>
      <trkpt lat="45.83983" lon="6.30287">
        <ele>1442</ele>
        <time>2022-01-06T08:20:23Z</time>
      </trkpt>
      <trkpt lat="45.83982" lon="6.30288">
        <ele>1442</ele>
        <time>2022-01-06T08:20:24Z</time>
      </trkpt>
      <trkpt lat="45.83982" lon="6.30289">
        <ele>1442</ele>
        <time>2022-01-06T08:20:25Z</time>
      </trkpt>
      <trkpt lat="45.83981" lon="6.3029">
        <ele>1443.1</ele>
        <time>2022-01-06T08:20:26Z</time>
      </trkpt>
      <trkpt lat="45.8398" lon="6.30291">
        <ele>1443.1</ele>
        <time>2022-01-06T08:20:27Z</time>
      </trkpt>
      <trkpt lat="45.8398" lon="6.30291">
        <ele>1443.1</ele>
        <time>2022-01-06T08:20:28Z</time>
      </trkpt>
      <trkpt lat="45.83979" lon="6.30292">
        <ele>1443.1</ele>
        <time>2022-01-06T08:20:29Z</time>
      </trkpt>
      <trkpt lat="45.83979" lon="6.30294">
        <ele>1443.1</ele>
        <time>2022-01-06T08:20:30Z</time>
      </trkpt>
      <trkpt lat="45.83978" lon="6.30294">
        <ele>1443.1</ele>
        <time>2022-01-06T08:20:31Z</time>
      </trkpt>
      <trkpt lat="45.83978" lon="6.30295">
        <ele>1443.1</ele>
        <time>2022-01-06T08:20:32Z</time>
      </trkpt>
      <trkpt lat="45.83977" lon="6.30295">
        <ele>1443.1</ele>
        <time>2022-01-06T08:20:33Z</time>
      </trkpt>
      <trkpt lat="45.83976" lon="6.30295">
        <ele>1443.1</ele>
        <time>2022-01-06T08:20:34Z</time>
      </trkpt>
      <trkpt lat="45.83976" lon="6.30295">
        <ele>1443.1</ele>
        <time>2022-01-06T08:20:35Z</time>
      </trkpt>
      <trkpt lat="45.83975" lon="6.30296">
        <ele>1444.2</ele>
        <time>2022-01-06T08:20:36Z</time>
      </trkpt>
      <trkpt lat="45.83975" lon="6.30296">
        <ele>1444.2</ele>
        <time>2022-01-06T08:20:37Z</time>
      </trkpt>
      <trkpt lat="45.83974" lon="6.30296">
        <ele>1444.2</ele>
        <time>2022-01-06T08:20:38Z</time>
      </trkpt>
      <trkpt lat="45.83973" lon="6.30296">
        <ele>1444.2</ele>
        <time>2022-01-06T08:20:39Z</time>
      </trkpt>
      <trkpt lat="45.83973" lon="6.30296">
        <ele>1445.1</ele>
        <time>2022-01-06T08:20:40Z</time>
      </trkpt>
      <trkpt lat="45.83972" lon="6.30297">
        <ele>1445.1</ele>
        <time>2022-01-06T08:20:41Z</time>
      </trkpt>
      <trkpt lat="45.83971" lon="6.30298">
        <ele>1445.1</ele>
        <time>2022-01-06T08:20:42Z</time>
      </trkpt>
      <trkpt lat="45.8397" lon="6.30299">
        <ele>1445.1</ele>
        <time>2022-01-06T08:20:43Z</time>
      </trkpt>
      <trkpt lat="45.8397" lon="6.30299">
        <ele>1446.1</ele>
        <time>2022-01-06T08:20:44Z</time>
      </trkpt>
      <trkpt lat="45.8397" lon="6.30299">
        <ele>1446.1</ele>
        <time>2022-01-06T08:20:45Z</time>
      </trkpt>
      <trkpt lat="45.83969" lon="6.30298">
        <ele>1446.1</ele>
        <time>2022-01-06T08:20:46Z</time>
      </trkpt>
      <trkpt lat="45.83968" lon="6.30298">
        <ele>1446.1</ele>
        <time>2022-01-06T08:20:47Z</time>
      </trkpt>
      <trkpt lat="45.83968" lon="6.30298">
        <ele>1446.1</ele>
        <time>2022-01-06T08:20:48Z</time>
      </trkpt>
      <trkpt lat="45.83967" lon="6.30297">
        <ele>1446.1</ele>
        <time>2022-01-06T08:20:49Z</time>
      </trkpt>
      <trkpt lat="45.83966" lon="6.30297">
        <ele>1446.1</ele>
        <time>2022-01-06T08:20:50Z</time>
      </trkpt>
      <trkpt lat="45.83966" lon="6.30297">
        <ele>1446.1</ele>
        <time>2022-01-06T08:20:51Z</time>
      </trkpt>
      <trkpt lat="45.83966" lon="6.30298">
        <ele>1448.1</ele>
        <time>2022-01-06T08:20:52Z</time>
      </trkpt>
      <trkpt lat="45.83966" lon="6.30298">
        <ele>1448.1</ele>
        <time>2022-01-06T08:20:53Z</time>
      </trkpt>
      <trkpt lat="45.83964" lon="6.30299">
        <ele>1449</ele>
        <time>2022-01-06T08:20:54Z</time>
      </trkpt>
      <trkpt lat="45.83964" lon="6.30299">
        <ele>1449</ele>
        <time>2022-01-06T08:20:55Z</time>
      </trkpt>
      <trkpt lat="45.83963" lon="6.30299">
        <ele>1449</ele>
        <time>2022-01-06T08:20:56Z</time>
      </trkpt>
      <trkpt lat="45.83963" lon="6.30299">
        <ele>1449</ele>
        <time>2022-01-06T08:20:57Z</time>
      </trkpt>
      <trkpt lat="45.83961" lon="6.303">
        <ele>1450.1</ele>
        <time>2022-01-06T08:20:58Z</time>
      </trkpt>
      <trkpt lat="45.83961" lon="6.30301">
        <ele>1450.1</ele>
        <time>2022-01-06T08:20:59Z</time>
      </trkpt>
      <trkpt lat="45.8396" lon="6.30302">
        <ele>1450.1</ele>
        <time>2022-01-06T08:21:00Z</time>
      </trkpt>
      <trkpt lat="45.8396" lon="6.30302">
        <ele>1450.1</ele>
        <time>2022-01-06T08:21:01Z</time>
      </trkpt>
      <trkpt lat="45.83959" lon="6.30303">
        <ele>1451</ele>
        <time>2022-01-06T08:21:02Z</time>
      </trkpt>
      <trkpt lat="45.83958" lon="6.30303">
        <ele>1451</ele>
        <time>2022-01-06T08:21:03Z</time>
      </trkpt>
      <trkpt lat="45.83958" lon="6.30304">
        <ele>1451</ele>
        <time>2022-01-06T08:21:04Z</time>
      </trkpt>
      <trkpt lat="45.83956" lon="6.30305">
        <ele>1451</ele>
        <time>2022-01-06T08:21:05Z</time>
      </trkpt>
      <trkpt lat="45.83955" lon="6.30306">
        <ele>1452.1</ele>
        <time>2022-01-06T08:21:06Z</time>
      </trkpt>
      <trkpt lat="45.83954" lon="6.30307">
        <ele>1452.1</ele>
        <time>2022-01-06T08:21:07Z</time>
      </trkpt>
      <trkpt lat="45.83953" lon="6.30307">
        <ele>1452.1</ele>
        <time>2022-01-06T08:21:08Z</time>
      </trkpt>
      <trkpt lat="45.83952" lon="6.30308">
        <ele>1452.1</ele>
        <time>2022-01-06T08:21:09Z</time>
      </trkpt>
      <trkpt lat="45.83951" lon="6.30308">
        <ele>1453.2</ele>
        <time>2022-01-06T08:21:10Z</time>
      </trkpt>
      <trkpt lat="45.83951" lon="6.30308">
        <ele>1453.2</ele>
        <time>2022-01-06T08:21:11Z</time>
      </trkpt>
      <trkpt lat="45.8395" lon="6.30309">
        <ele>1453.2</ele>
        <time>2022-01-06T08:21:12Z</time>
      </trkpt>
      <trkpt lat="45.83949" lon="6.30309">
        <ele>1453.2</ele>
        <time>2022-01-06T08:21:13Z</time>
      </trkpt>
      <trkpt lat="45.83949" lon="6.30309">
        <ele>1454.1</ele>
        <time>2022-01-06T08:21:14Z</time>
      </trkpt>
      <trkpt lat="45.83948" lon="6.3031">
        <ele>1454.1</ele>
        <time>2022-01-06T08:21:15Z</time>
      </trkpt>
      <trkpt lat="45.83947" lon="6.3031">
        <ele>1455.1</ele>
        <time>2022-01-06T08:21:16Z</time>
      </trkpt>
      <trkpt lat="45.83947" lon="6.30311">
        <ele>1455.1</ele>
        <time>2022-01-06T08:21:17Z</time>
      </trkpt>
      <trkpt lat="45.83947" lon="6.30311">
        <ele>1455.1</ele>
        <time>2022-01-06T08:21:18Z</time>
      </trkpt>
      <trkpt lat="45.83946" lon="6.30312">
        <ele>1455.1</ele>
        <time>2022-01-06T08:21:19Z</time>
      </trkpt>
      <trkpt lat="45.83945" lon="6.30313">
        <ele>1456</ele>
        <time>2022-01-06T08:21:20Z</time>
      </trkpt>
      <trkpt lat="45.83943" lon="6.30314">
        <ele>1456</ele>
        <time>2022-01-06T08:21:21Z</time>
      </trkpt>
      <trkpt lat="45.83943" lon="6.30315">
        <ele>1456</ele>
        <time>2022-01-06T08:21:22Z</time>
      </trkpt>
      <trkpt lat="45.83942" lon="6.30315">
        <ele>1456</ele>
        <time>2022-01-06T08:21:23Z</time>
      </trkpt>
      <trkpt lat="45.83941" lon="6.30316">
        <ele>1456</ele>
        <time>2022-01-06T08:21:24Z</time>
      </trkpt>
      <trkpt lat="45.8394" lon="6.30316">
        <ele>1456</ele>
        <time>2022-01-06T08:21:25Z</time>
      </trkpt>
      <trkpt lat="45.8394" lon="6.30316">
        <ele>1457.1</ele>
        <time>2022-01-06T08:21:26Z</time>
      </trkpt>
      <trkpt lat="45.83939" lon="6.30316">
        <ele>1457.1</ele>
        <time>2022-01-06T08:21:27Z</time>
      </trkpt>
      <trkpt lat="45.83938" lon="6.30316">
        <ele>1457.1</ele>
        <time>2022-01-06T08:21:28Z</time>
      </trkpt>
      <trkpt lat="45.83938" lon="6.30316">
        <ele>1457.1</ele>
        <time>2022-01-06T08:21:29Z</time>
      </trkpt>
      <trkpt lat="45.83938" lon="6.30316">
        <ele>1458</ele>
        <time>2022-01-06T08:21:30Z</time>
      </trkpt>
      <trkpt lat="45.83936" lon="6.30317">
        <ele>1458</ele>
        <time>2022-01-06T08:21:31Z</time>
      </trkpt>
      <trkpt lat="45.83935" lon="6.30318">
        <ele>1459.1</ele>
        <time>2022-01-06T08:21:32Z</time>
      </trkpt>
      <trkpt lat="45.83935" lon="6.30319">
        <ele>1459.1</ele>
        <time>2022-01-06T08:21:33Z</time>
      </trkpt>
      <trkpt lat="45.83934" lon="6.3032">
        <ele>1459.1</ele>
        <time>2022-01-06T08:21:34Z</time>
      </trkpt>
      <trkpt lat="45.83933" lon="6.30321">
        <ele>1459.1</ele>
        <time>2022-01-06T08:21:35Z</time>
      </trkpt>
      <trkpt lat="45.83932" lon="6.30321">
        <ele>1460</ele>
        <time>2022-01-06T08:21:36Z</time>
      </trkpt>
      <trkpt lat="45.83931" lon="6.30322">
        <ele>1460</ele>
        <time>2022-01-06T08:21:37Z</time>
      </trkpt>
      <trkpt lat="45.83931" lon="6.30321">
        <ele>1460</ele>
        <time>2022-01-06T08:21:38Z</time>
      </trkpt>
      <trkpt lat="45.8393" lon="6.30321">
        <ele>1460</ele>
        <time>2022-01-06T08:21:39Z</time>
      </trkpt>
      <trkpt lat="45.8393" lon="6.3032">
        <ele>1460</ele>
        <time>2022-01-06T08:21:40Z</time>
      </trkpt>
      <trkpt lat="45.83929" lon="6.3032">
        <ele>1460</ele>
        <time>2022-01-06T08:21:41Z</time>
      </trkpt>
      <trkpt lat="45.83929" lon="6.30319">
        <ele>1461.1</ele>
        <time>2022-01-06T08:21:42Z</time>
      </trkpt>
      <trkpt lat="45.83928" lon="6.30319">
        <ele>1461.1</ele>
        <time>2022-01-06T08:21:43Z</time>
      </trkpt>
      <trkpt lat="45.83927" lon="6.30319">
        <ele>1461.1</ele>
        <time>2022-01-06T08:21:44Z</time>
      </trkpt>
      <trkpt lat="45.83927" lon="6.30319">
        <ele>1461.1</ele>
        <time>2022-01-06T08:21:45Z</time>
      </trkpt>
      <trkpt lat="45.83926" lon="6.30319">
        <ele>1462.1</ele>
        <time>2022-01-06T08:21:46Z</time>
      </trkpt>
      <trkpt lat="45.83925" lon="6.30319">
        <ele>1462.1</ele>
        <time>2022-01-06T08:21:47Z</time>
      </trkpt>
      <trkpt lat="45.83925" lon="6.30319">
        <ele>1462.1</ele>
        <time>2022-01-06T08:21:48Z</time>
      </trkpt>
      <trkpt lat="45.83924" lon="6.30319">
        <ele>1462.1</ele>
        <time>2022-01-06T08:21:49Z</time>
      </trkpt>
      <trkpt lat="45.83923" lon="6.30319">
        <ele>1463.1</ele>
        <time>2022-01-06T08:21:50Z</time>
      </trkpt>
      <trkpt lat="45.83922" lon="6.30319">
        <ele>1463.1</ele>
        <time>2022-01-06T08:21:51Z</time>
      </trkpt>
      <trkpt lat="45.83922" lon="6.30319">
        <ele>1463.1</ele>
        <time>2022-01-06T08:21:52Z</time>
      </trkpt>
      <trkpt lat="45.83921" lon="6.30318">
        <ele>1463.1</ele>
        <time>2022-01-06T08:21:53Z</time>
      </trkpt>
      <trkpt lat="45.83921" lon="6.30318">
        <ele>1463.1</ele>
        <time>2022-01-06T08:21:54Z</time>
      </trkpt>
      <trkpt lat="45.8392" lon="6.30318">
        <ele>1463.1</ele>
        <time>2022-01-06T08:21:55Z</time>
      </trkpt>
      <trkpt lat="45.83919" lon="6.30317">
        <ele>1463.1</ele>
        <time>2022-01-06T08:21:56Z</time>
      </trkpt>
      <trkpt lat="45.83919" lon="6.30317">
        <ele>1463.1</ele>
        <time>2022-01-06T08:21:57Z</time>
      </trkpt>
      <trkpt lat="45.83918" lon="6.30317">
        <ele>1464.1</ele>
        <time>2022-01-06T08:21:58Z</time>
      </trkpt>
      <trkpt lat="45.83917" lon="6.30317">
        <ele>1464.1</ele>
        <time>2022-01-06T08:21:59Z</time>
      </trkpt>
      <trkpt lat="45.83917" lon="6.30317">
        <ele>1464.1</ele>
        <time>2022-01-06T08:22:00Z</time>
      </trkpt>
      <trkpt lat="45.83916" lon="6.30317">
        <ele>1464.1</ele>
        <time>2022-01-06T08:22:01Z</time>
      </trkpt>
      <trkpt lat="45.83916" lon="6.30316">
        <ele>1465</ele>
        <time>2022-01-06T08:22:02Z</time>
      </trkpt>
      <trkpt lat="45.83915" lon="6.30316">
        <ele>1465</ele>
        <time>2022-01-06T08:22:03Z</time>
      </trkpt>
      <trkpt lat="45.83915" lon="6.30315">
        <ele>1465</ele>
        <time>2022-01-06T08:22:04Z</time>
      </trkpt>
      <trkpt lat="45.83914" lon="6.30315">
        <ele>1465</ele>
        <time>2022-01-06T08:22:05Z</time>
      </trkpt>
      <trkpt lat="45.83914" lon="6.30314">
        <ele>1466.1</ele>
        <time>2022-01-06T08:22:06Z</time>
      </trkpt>
      <trkpt lat="45.83913" lon="6.30313">
        <ele>1466.1</ele>
        <time>2022-01-06T08:22:07Z</time>
      </trkpt>
      <trkpt lat="45.83913" lon="6.30311">
        <ele>1466.1</ele>
        <time>2022-01-06T08:22:08Z</time>
      </trkpt>
      <trkpt lat="45.83912" lon="6.3031">
        <ele>1466.1</ele>
        <time>2022-01-06T08:22:09Z</time>
      </trkpt>
      <trkpt lat="45.83912" lon="6.30309">
        <ele>1467</ele>
        <time>2022-01-06T08:22:10Z</time>
      </trkpt>
      <trkpt lat="45.83911" lon="6.30308">
        <ele>1467</ele>
        <time>2022-01-06T08:22:11Z</time>
      </trkpt>
      <trkpt lat="45.83911" lon="6.30307">
        <ele>1467</ele>
        <time>2022-01-06T08:22:12Z</time>
      </trkpt>
      <trkpt lat="45.83911" lon="6.30306">
        <ele>1467</ele>
        <time>2022-01-06T08:22:13Z</time>
      </trkpt>
      <trkpt lat="45.83911" lon="6.30304">
        <ele>1468.1</ele>
        <time>2022-01-06T08:22:14Z</time>
      </trkpt>
      <trkpt lat="45.83912" lon="6.30303">
        <ele>1468.1</ele>
        <time>2022-01-06T08:22:15Z</time>
      </trkpt>
      <trkpt lat="45.83912" lon="6.30302">
        <ele>1468.1</ele>
        <time>2022-01-06T08:22:16Z</time>
      </trkpt>
      <trkpt lat="45.83912" lon="6.303">
        <ele>1468.1</ele>
        <time>2022-01-06T08:22:17Z</time>
      </trkpt>
      <trkpt lat="45.83912" lon="6.30299">
        <ele>1468.1</ele>
        <time>2022-01-06T08:22:18Z</time>
      </trkpt>
      <trkpt lat="45.83913" lon="6.30298">
        <ele>1468.1</ele>
        <time>2022-01-06T08:22:19Z</time>
      </trkpt>
      <trkpt lat="45.83913" lon="6.30296">
        <ele>1469.2</ele>
        <time>2022-01-06T08:22:20Z</time>
      </trkpt>
      <trkpt lat="45.83913" lon="6.30294">
        <ele>1469.2</ele>
        <time>2022-01-06T08:22:21Z</time>
      </trkpt>
      <trkpt lat="45.83913" lon="6.30292">
        <ele>1470.1</ele>
        <time>2022-01-06T08:22:22Z</time>
      </trkpt>
      <trkpt lat="45.83913" lon="6.30291">
        <ele>1470.1</ele>
        <time>2022-01-06T08:22:23Z</time>
      </trkpt>
      <trkpt lat="45.83913" lon="6.30291">
        <ele>1470.1</ele>
        <time>2022-01-06T08:22:24Z</time>
      </trkpt>
      <trkpt lat="45.83914" lon="6.3029">
        <ele>1470.1</ele>
        <time>2022-01-06T08:22:25Z</time>
      </trkpt>
      <trkpt lat="45.83914" lon="6.30289">
        <ele>1470.1</ele>
        <time>2022-01-06T08:22:26Z</time>
      </trkpt>
      <trkpt lat="45.83915" lon="6.30288">
        <ele>1470.1</ele>
        <time>2022-01-06T08:22:27Z</time>
      </trkpt>
      <trkpt lat="45.83915" lon="6.30287">
        <ele>1471.1</ele>
        <time>2022-01-06T08:22:28Z</time>
      </trkpt>
      <trkpt lat="45.83916" lon="6.30286">
        <ele>1471.1</ele>
        <time>2022-01-06T08:22:29Z</time>
      </trkpt>
      <trkpt lat="45.83916" lon="6.30285">
        <ele>1471.1</ele>
        <time>2022-01-06T08:22:30Z</time>
      </trkpt>
      <trkpt lat="45.83917" lon="6.30284">
        <ele>1471.1</ele>
        <time>2022-01-06T08:22:31Z</time>
      </trkpt>
      <trkpt lat="45.83917" lon="6.30284">
        <ele>1471.1</ele>
        <time>2022-01-06T08:22:32Z</time>
      </trkpt>
      <trkpt lat="45.83918" lon="6.30283">
        <ele>1471.1</ele>
        <time>2022-01-06T08:22:33Z</time>
      </trkpt>
      <trkpt lat="45.83918" lon="6.30282">
        <ele>1472</ele>
        <time>2022-01-06T08:22:34Z</time>
      </trkpt>
      <trkpt lat="45.83919" lon="6.30281">
        <ele>1472</ele>
        <time>2022-01-06T08:22:35Z</time>
      </trkpt>
      <trkpt lat="45.83919" lon="6.30279">
        <ele>1472</ele>
        <time>2022-01-06T08:22:36Z</time>
      </trkpt>
      <trkpt lat="45.8392" lon="6.30278">
        <ele>1472</ele>
        <time>2022-01-06T08:22:37Z</time>
      </trkpt>
      <trkpt lat="45.8392" lon="6.30278">
        <ele>1473.1</ele>
        <time>2022-01-06T08:22:38Z</time>
      </trkpt>
      <trkpt lat="45.8392" lon="6.30277">
        <ele>1473.1</ele>
        <time>2022-01-06T08:22:39Z</time>
      </trkpt>
      <trkpt lat="45.83921" lon="6.30275">
        <ele>1473.1</ele>
        <time>2022-01-06T08:22:40Z</time>
      </trkpt>
      <trkpt lat="45.83921" lon="6.30274">
        <ele>1473.1</ele>
        <time>2022-01-06T08:22:41Z</time>
      </trkpt>
      <trkpt lat="45.83922" lon="6.30273">
        <ele>1473.1</ele>
        <time>2022-01-06T08:22:42Z</time>
      </trkpt>
      <trkpt lat="45.83922" lon="6.30271">
        <ele>1473.1</ele>
        <time>2022-01-06T08:22:43Z</time>
      </trkpt>
      <trkpt lat="45.83922" lon="6.3027">
        <ele>1474</ele>
        <time>2022-01-06T08:22:44Z</time>
      </trkpt>
      <trkpt lat="45.83923" lon="6.30269">
        <ele>1474</ele>
        <time>2022-01-06T08:22:45Z</time>
      </trkpt>
      <trkpt lat="45.83923" lon="6.30268">
        <ele>1474</ele>
        <time>2022-01-06T08:22:46Z</time>
      </trkpt>
      <trkpt lat="45.83923" lon="6.30267">
        <ele>1474</ele>
        <time>2022-01-06T08:22:47Z</time>
      </trkpt>
      <trkpt lat="45.83924" lon="6.30266">
        <ele>1475.1</ele>
        <time>2022-01-06T08:22:48Z</time>
      </trkpt>
      <trkpt lat="45.83924" lon="6.30265">
        <ele>1475.1</ele>
        <time>2022-01-06T08:22:49Z</time>
      </trkpt>
      <trkpt lat="45.83925" lon="6.30264">
        <ele>1475.1</ele>
        <time>2022-01-06T08:22:50Z</time>
      </trkpt>
      <trkpt lat="45.83925" lon="6.30263">
        <ele>1475.1</ele>
        <time>2022-01-06T08:22:51Z</time>
      </trkpt>
      <trkpt lat="45.83925" lon="6.30262">
        <ele>1475.1</ele>
        <time>2022-01-06T08:22:52Z</time>
      </trkpt>
      <trkpt lat="45.83926" lon="6.30261">
        <ele>1475.1</ele>
        <time>2022-01-06T08:22:53Z</time>
      </trkpt>
      <trkpt lat="45.83926" lon="6.3026">
        <ele>1475.1</ele>
        <time>2022-01-06T08:22:54Z</time>
      </trkpt>
      <trkpt lat="45.83926" lon="6.30259">
        <ele>1475.1</ele>
        <time>2022-01-06T08:22:55Z</time>
      </trkpt>
      <trkpt lat="45.83926" lon="6.30258">
        <ele>1475.1</ele>
        <time>2022-01-06T08:22:56Z</time>
      </trkpt>
      <trkpt lat="45.83926" lon="6.30257">
        <ele>1475.1</ele>
        <time>2022-01-06T08:22:57Z</time>
      </trkpt>
      <trkpt lat="45.83926" lon="6.30255">
        <ele>1477.1</ele>
        <time>2022-01-06T08:22:58Z</time>
      </trkpt>
      <trkpt lat="45.83926" lon="6.30254">
        <ele>1477.1</ele>
        <time>2022-01-06T08:22:59Z</time>
      </trkpt>
      <trkpt lat="45.83926" lon="6.30253">
        <ele>1477.1</ele>
        <time>2022-01-06T08:23:00Z</time>
      </trkpt>
      <trkpt lat="45.83926" lon="6.30252">
        <ele>1477.1</ele>
        <time>2022-01-06T08:23:01Z</time>
      </trkpt>
      <trkpt lat="45.83926" lon="6.30251">
        <ele>1478.1</ele>
        <time>2022-01-06T08:23:02Z</time>
      </trkpt>
      <trkpt lat="45.83926" lon="6.3025">
        <ele>1478.1</ele>
        <time>2022-01-06T08:23:03Z</time>
      </trkpt>
      <trkpt lat="45.83927" lon="6.30248">
        <ele>1478.1</ele>
        <time>2022-01-06T08:23:04Z</time>
      </trkpt>
      <trkpt lat="45.83927" lon="6.30247">
        <ele>1478.1</ele>
        <time>2022-01-06T08:23:05Z</time>
      </trkpt>
      <trkpt lat="45.83927" lon="6.30246">
        <ele>1478.1</ele>
        <time>2022-01-06T08:23:06Z</time>
      </trkpt>
      <trkpt lat="45.83927" lon="6.30245">
        <ele>1478.1</ele>
        <time>2022-01-06T08:23:07Z</time>
      </trkpt>
      <trkpt lat="45.83927" lon="6.30244">
        <ele>1479.1</ele>
        <time>2022-01-06T08:23:08Z</time>
      </trkpt>
      <trkpt lat="45.83927" lon="6.30242">
        <ele>1479.1</ele>
        <time>2022-01-06T08:23:09Z</time>
      </trkpt>
      <trkpt lat="45.83927" lon="6.30241">
        <ele>1479.1</ele>
        <time>2022-01-06T08:23:10Z</time>
      </trkpt>
      <trkpt lat="45.83927" lon="6.3024">
        <ele>1479.1</ele>
        <time>2022-01-06T08:23:11Z</time>
      </trkpt>
      <trkpt lat="45.83927" lon="6.30239">
        <ele>1480.1</ele>
        <time>2022-01-06T08:23:12Z</time>
      </trkpt>
      <trkpt lat="45.83927" lon="6.30238">
        <ele>1480.1</ele>
        <time>2022-01-06T08:23:13Z</time>
      </trkpt>
      <trkpt lat="45.83927" lon="6.30237">
        <ele>1480.1</ele>
        <time>2022-01-06T08:23:14Z</time>
      </trkpt>
      <trkpt lat="45.83928" lon="6.30235">
        <ele>1480.1</ele>
        <time>2022-01-06T08:23:15Z</time>
      </trkpt>
      <trkpt lat="45.83928" lon="6.30235">
        <ele>1481</ele>
        <time>2022-01-06T08:23:16Z</time>
      </trkpt>
      <trkpt lat="45.83928" lon="6.30231">
        <ele>1481</ele>
        <time>2022-01-06T08:23:17Z</time>
      </trkpt>
      <trkpt lat="45.83928" lon="6.3023">
        <ele>1482.1</ele>
        <time>2022-01-06T08:23:18Z</time>
      </trkpt>
      <trkpt lat="45.83928" lon="6.3023">
        <ele>1482.1</ele>
        <time>2022-01-06T08:23:19Z</time>
      </trkpt>
      <trkpt lat="45.83928" lon="6.30229">
        <ele>1482.1</ele>
        <time>2022-01-06T08:23:20Z</time>
      </trkpt>
      <trkpt lat="45.83929" lon="6.30228">
        <ele>1482.1</ele>
        <time>2022-01-06T08:23:21Z</time>
      </trkpt>
      <trkpt lat="45.83928" lon="6.30226">
        <ele>1482.1</ele>
        <time>2022-01-06T08:23:22Z</time>
      </trkpt>
      <trkpt lat="45.83928" lon="6.30225">
        <ele>1482.1</ele>
        <time>2022-01-06T08:23:23Z</time>
      </trkpt>
      <trkpt lat="45.83928" lon="6.30224">
        <ele>1482.1</ele>
        <time>2022-01-06T08:23:24Z</time>
      </trkpt>
      <trkpt lat="45.83927" lon="6.30223">
        <ele>1482.1</ele>
        <time>2022-01-06T08:23:25Z</time>
      </trkpt>
      <trkpt lat="45.83927" lon="6.30222">
        <ele>1483</ele>
        <time>2022-01-06T08:23:26Z</time>
      </trkpt>
      <trkpt lat="45.83927" lon="6.3022">
        <ele>1483</ele>
        <time>2022-01-06T08:23:27Z</time>
      </trkpt>
      <trkpt lat="45.83927" lon="6.30219">
        <ele>1483</ele>
        <time>2022-01-06T08:23:28Z</time>
      </trkpt>
      <trkpt lat="45.83927" lon="6.30218">
        <ele>1483</ele>
        <time>2022-01-06T08:23:29Z</time>
      </trkpt>
      <trkpt lat="45.83928" lon="6.30217">
        <ele>1483</ele>
        <time>2022-01-06T08:23:30Z</time>
      </trkpt>
      <trkpt lat="45.83928" lon="6.30215">
        <ele>1483</ele>
        <time>2022-01-06T08:23:31Z</time>
      </trkpt>
      <trkpt lat="45.83928" lon="6.30214">
        <ele>1484.1</ele>
        <time>2022-01-06T08:23:32Z</time>
      </trkpt>
      <trkpt lat="45.83928" lon="6.30213">
        <ele>1484.1</ele>
        <time>2022-01-06T08:23:33Z</time>
      </trkpt>
      <trkpt lat="45.83928" lon="6.30212">
        <ele>1484.1</ele>
        <time>2022-01-06T08:23:34Z</time>
      </trkpt>
      <trkpt lat="45.83928" lon="6.30211">
        <ele>1484.1</ele>
        <time>2022-01-06T08:23:35Z</time>
      </trkpt>
      <trkpt lat="45.83928" lon="6.3021">
        <ele>1485.2</ele>
        <time>2022-01-06T08:23:36Z</time>
      </trkpt>
      <trkpt lat="45.83929" lon="6.30209">
        <ele>1485.2</ele>
        <time>2022-01-06T08:23:37Z</time>
      </trkpt>
      <trkpt lat="45.83929" lon="6.30208">
        <ele>1485.2</ele>
        <time>2022-01-06T08:23:38Z</time>
      </trkpt>
      <trkpt lat="45.83929" lon="6.30207">
        <ele>1485.2</ele>
        <time>2022-01-06T08:23:39Z</time>
      </trkpt>
      <trkpt lat="45.8393" lon="6.30206">
        <ele>1486.1</ele>
        <time>2022-01-06T08:23:40Z</time>
      </trkpt>
      <trkpt lat="45.8393" lon="6.30205">
        <ele>1486.1</ele>
        <time>2022-01-06T08:23:41Z</time>
      </trkpt>
      <trkpt lat="45.83931" lon="6.30204">
        <ele>1486.1</ele>
        <time>2022-01-06T08:23:42Z</time>
      </trkpt>
      <trkpt lat="45.83931" lon="6.30204">
        <ele>1486.1</ele>
        <time>2022-01-06T08:23:43Z</time>
      </trkpt>
      <trkpt lat="45.83931" lon="6.30203">
        <ele>1487.1</ele>
        <time>2022-01-06T08:23:44Z</time>
      </trkpt>
      <trkpt lat="45.83932" lon="6.30202">
        <ele>1487.1</ele>
        <time>2022-01-06T08:23:45Z</time>
      </trkpt>
      <trkpt lat="45.83933" lon="6.30201">
        <ele>1487.1</ele>
        <time>2022-01-06T08:23:46Z</time>
      </trkpt>
      <trkpt lat="45.83933" lon="6.302">
        <ele>1487.1</ele>
        <time>2022-01-06T08:23:47Z</time>
      </trkpt>
      <trkpt lat="45.83934" lon="6.302">
        <ele>1488.1</ele>
        <time>2022-01-06T08:23:48Z</time>
      </trkpt>
      <trkpt lat="45.83934" lon="6.30199">
        <ele>1488.1</ele>
        <time>2022-01-06T08:23:49Z</time>
      </trkpt>
      <trkpt lat="45.83935" lon="6.30198">
        <ele>1488.1</ele>
        <time>2022-01-06T08:23:50Z</time>
      </trkpt>
      <trkpt lat="45.83935" lon="6.30198">
        <ele>1488.1</ele>
        <time>2022-01-06T08:23:51Z</time>
      </trkpt>
      <trkpt lat="45.83936" lon="6.30197">
        <ele>1489.1</ele>
        <time>2022-01-06T08:23:52Z</time>
      </trkpt>
      <trkpt lat="45.83937" lon="6.30196">
        <ele>1489.1</ele>
        <time>2022-01-06T08:23:53Z</time>
      </trkpt>
      <trkpt lat="45.83937" lon="6.30195">
        <ele>1489.1</ele>
        <time>2022-01-06T08:23:54Z</time>
      </trkpt>
      <trkpt lat="45.83938" lon="6.30195">
        <ele>1489.1</ele>
        <time>2022-01-06T08:23:55Z</time>
      </trkpt>
      <trkpt lat="45.83938" lon="6.30194">
        <ele>1489.1</ele>
        <time>2022-01-06T08:23:56Z</time>
      </trkpt>
      <trkpt lat="45.83939" lon="6.30193">
        <ele>1489.1</ele>
        <time>2022-01-06T08:23:57Z</time>
      </trkpt>
      <trkpt lat="45.83939" lon="6.30192">
        <ele>1489.1</ele>
        <time>2022-01-06T08:23:58Z</time>
      </trkpt>
      <trkpt lat="45.83939" lon="6.30191">
        <ele>1489.1</ele>
        <time>2022-01-06T08:23:59Z</time>
      </trkpt>
      <trkpt lat="45.83939" lon="6.30191">
        <ele>1491.1</ele>
        <time>2022-01-06T08:24:00Z</time>
      </trkpt>
      <trkpt lat="45.83939" lon="6.3019">
        <ele>1491.1</ele>
        <time>2022-01-06T08:24:01Z</time>
      </trkpt>
      <trkpt lat="45.83939" lon="6.30188">
        <ele>1492</ele>
        <time>2022-01-06T08:24:02Z</time>
      </trkpt>
      <trkpt lat="45.83938" lon="6.30187">
        <ele>1492</ele>
        <time>2022-01-06T08:24:03Z</time>
      </trkpt>
      <trkpt lat="45.83938" lon="6.30186">
        <ele>1492</ele>
        <time>2022-01-06T08:24:04Z</time>
      </trkpt>
      <trkpt lat="45.83938" lon="6.30185">
        <ele>1492</ele>
        <time>2022-01-06T08:24:05Z</time>
      </trkpt>
      <trkpt lat="45.83938" lon="6.30184">
        <ele>1493.1</ele>
        <time>2022-01-06T08:24:06Z</time>
      </trkpt>
      <trkpt lat="45.83938" lon="6.30183">
        <ele>1493.1</ele>
        <time>2022-01-06T08:24:07Z</time>
      </trkpt>
      <trkpt lat="45.83938" lon="6.30182">
        <ele>1493.1</ele>
        <time>2022-01-06T08:24:08Z</time>
      </trkpt>
      <trkpt lat="45.83938" lon="6.30181">
        <ele>1493.1</ele>
        <time>2022-01-06T08:24:09Z</time>
      </trkpt>
      <trkpt lat="45.83937" lon="6.3018">
        <ele>1494.1</ele>
        <time>2022-01-06T08:24:10Z</time>
      </trkpt>
      <trkpt lat="45.83937" lon="6.3018">
        <ele>1494.1</ele>
        <time>2022-01-06T08:24:11Z</time>
      </trkpt>
      <trkpt lat="45.83936" lon="6.3018">
        <ele>1494.1</ele>
        <time>2022-01-06T08:24:12Z</time>
      </trkpt>
      <trkpt lat="45.83936" lon="6.30179">
        <ele>1494.1</ele>
        <time>2022-01-06T08:24:13Z</time>
      </trkpt>
      <trkpt lat="45.83935" lon="6.30178">
        <ele>1494.1</ele>
        <time>2022-01-06T08:24:14Z</time>
      </trkpt>
      <trkpt lat="45.83935" lon="6.30177">
        <ele>1494.1</ele>
        <time>2022-01-06T08:24:15Z</time>
      </trkpt>
      <trkpt lat="45.83934" lon="6.30176">
        <ele>1494.1</ele>
        <time>2022-01-06T08:24:16Z</time>
      </trkpt>
      <trkpt lat="45.83932" lon="6.30176">
        <ele>1494.1</ele>
        <time>2022-01-06T08:24:17Z</time>
      </trkpt>
      <trkpt lat="45.8393" lon="6.30177">
        <ele>1495.1</ele>
        <time>2022-01-06T08:24:18Z</time>
      </trkpt>
      <trkpt lat="45.83928" lon="6.30178">
        <ele>1495.1</ele>
        <time>2022-01-06T08:24:19Z</time>
      </trkpt>
      <trkpt lat="45.83926" lon="6.30178">
        <ele>1495.1</ele>
        <time>2022-01-06T08:24:20Z</time>
      </trkpt>
      <trkpt lat="45.83926" lon="6.30177">
        <ele>1495.1</ele>
        <time>2022-01-06T08:24:21Z</time>
      </trkpt>
      <trkpt lat="45.83925" lon="6.30176">
        <ele>1495.1</ele>
        <time>2022-01-06T08:24:22Z</time>
      </trkpt>
      <trkpt lat="45.83924" lon="6.30175">
        <ele>1495.1</ele>
        <time>2022-01-06T08:24:23Z</time>
      </trkpt>
      <trkpt lat="45.83924" lon="6.30174">
        <ele>1495.1</ele>
        <time>2022-01-06T08:24:24Z</time>
      </trkpt>
      <trkpt lat="45.83923" lon="6.30174">
        <ele>1495.1</ele>
        <time>2022-01-06T08:24:25Z</time>
      </trkpt>
      <trkpt lat="45.83922" lon="6.30173">
        <ele>1498.1</ele>
        <time>2022-01-06T08:24:26Z</time>
      </trkpt>
      <trkpt lat="45.83921" lon="6.30173">
        <ele>1498.1</ele>
        <time>2022-01-06T08:24:27Z</time>
      </trkpt>
      <trkpt lat="45.8392" lon="6.30173">
        <ele>1498.1</ele>
        <time>2022-01-06T08:24:28Z</time>
      </trkpt>
      <trkpt lat="45.8392" lon="6.30173">
        <ele>1498.1</ele>
        <time>2022-01-06T08:24:29Z</time>
      </trkpt>
      <trkpt lat="45.83919" lon="6.30173">
        <ele>1498.1</ele>
        <time>2022-01-06T08:24:30Z</time>
      </trkpt>
      <trkpt lat="45.83919" lon="6.30173">
        <ele>1498.1</ele>
        <time>2022-01-06T08:24:31Z</time>
      </trkpt>
      <trkpt lat="45.83918" lon="6.30173">
        <ele>1500.1</ele>
        <time>2022-01-06T08:24:32Z</time>
      </trkpt>
      <trkpt lat="45.83918" lon="6.30173">
        <ele>1500.1</ele>
        <time>2022-01-06T08:24:33Z</time>
      </trkpt>
      <trkpt lat="45.83917" lon="6.30173">
        <ele>1500.1</ele>
        <time>2022-01-06T08:24:34Z</time>
      </trkpt>
      <trkpt lat="45.83917" lon="6.30173">
        <ele>1500.1</ele>
        <time>2022-01-06T08:24:35Z</time>
      </trkpt>
      <trkpt lat="45.83916" lon="6.30173">
        <ele>1501.2</ele>
        <time>2022-01-06T08:24:36Z</time>
      </trkpt>
      <trkpt lat="45.83916" lon="6.30174">
        <ele>1501.2</ele>
        <time>2022-01-06T08:24:37Z</time>
      </trkpt>
      <trkpt lat="45.83915" lon="6.30174">
        <ele>1501.2</ele>
        <time>2022-01-06T08:24:38Z</time>
      </trkpt>
      <trkpt lat="45.83915" lon="6.30174">
        <ele>1501.2</ele>
        <time>2022-01-06T08:24:39Z</time>
      </trkpt>
      <trkpt lat="45.83914" lon="6.30174">
        <ele>1501.2</ele>
        <time>2022-01-06T08:24:40Z</time>
      </trkpt>
      <trkpt lat="45.83913" lon="6.30174">
        <ele>1501.2</ele>
        <time>2022-01-06T08:24:41Z</time>
      </trkpt>
      <trkpt lat="45.83912" lon="6.30174">
        <ele>1501.2</ele>
        <time>2022-01-06T08:24:42Z</time>
      </trkpt>
      <trkpt lat="45.83911" lon="6.30174">
        <ele>1501.2</ele>
        <time>2022-01-06T08:24:43Z</time>
      </trkpt>
      <trkpt lat="45.8391" lon="6.30174">
        <ele>1503.1</ele>
        <time>2022-01-06T08:24:44Z</time>
      </trkpt>
      <trkpt lat="45.8391" lon="6.30174">
        <ele>1503.1</ele>
        <time>2022-01-06T08:24:45Z</time>
      </trkpt>
      <trkpt lat="45.83909" lon="6.30173">
        <ele>1503.1</ele>
        <time>2022-01-06T08:24:46Z</time>
      </trkpt>
      <trkpt lat="45.83908" lon="6.30173">
        <ele>1503.1</ele>
        <time>2022-01-06T08:24:47Z</time>
      </trkpt>
      <trkpt lat="45.83908" lon="6.30172">
        <ele>1504.1</ele>
        <time>2022-01-06T08:24:48Z</time>
      </trkpt>
      <trkpt lat="45.83908" lon="6.30172">
        <ele>1504.1</ele>
        <time>2022-01-06T08:24:49Z</time>
      </trkpt>
      <trkpt lat="45.83907" lon="6.30171">
        <ele>1504.1</ele>
        <time>2022-01-06T08:24:50Z</time>
      </trkpt>
      <trkpt lat="45.83907" lon="6.30171">
        <ele>1504.1</ele>
        <time>2022-01-06T08:24:51Z</time>
      </trkpt>
      <trkpt lat="45.83906" lon="6.3017">
        <ele>1504.1</ele>
        <time>2022-01-06T08:24:52Z</time>
      </trkpt>
      <trkpt lat="45.83905" lon="6.3017">
        <ele>1504.1</ele>
        <time>2022-01-06T08:24:53Z</time>
      </trkpt>
      <trkpt lat="45.83905" lon="6.30169">
        <ele>1504.1</ele>
        <time>2022-01-06T08:24:54Z</time>
      </trkpt>
      <trkpt lat="45.83904" lon="6.30169">
        <ele>1504.1</ele>
        <time>2022-01-06T08:24:55Z</time>
      </trkpt>
      <trkpt lat="45.83903" lon="6.30169">
        <ele>1505.1</ele>
        <time>2022-01-06T08:24:56Z</time>
      </trkpt>
      <trkpt lat="45.83903" lon="6.30169">
        <ele>1505.1</ele>
        <time>2022-01-06T08:24:57Z</time>
      </trkpt>
      <trkpt lat="45.83902" lon="6.30168">
        <ele>1505.1</ele>
        <time>2022-01-06T08:24:58Z</time>
      </trkpt>
      <trkpt lat="45.83902" lon="6.30168">
        <ele>1505.1</ele>
        <time>2022-01-06T08:24:59Z</time>
      </trkpt>
      <trkpt lat="45.83901" lon="6.30168">
        <ele>1506</ele>
        <time>2022-01-06T08:25:00Z</time>
      </trkpt>
      <trkpt lat="45.839" lon="6.30168">
        <ele>1506</ele>
        <time>2022-01-06T08:25:01Z</time>
      </trkpt>
      <trkpt lat="45.83899" lon="6.30168">
        <ele>1507.1</ele>
        <time>2022-01-06T08:25:02Z</time>
      </trkpt>
      <trkpt lat="45.83899" lon="6.30168">
        <ele>1507.1</ele>
        <time>2022-01-06T08:25:03Z</time>
      </trkpt>
      <trkpt lat="45.83898" lon="6.30168">
        <ele>1507.1</ele>
        <time>2022-01-06T08:25:04Z</time>
      </trkpt>
      <trkpt lat="45.83897" lon="6.30168">
        <ele>1507.1</ele>
        <time>2022-01-06T08:25:05Z</time>
      </trkpt>
      <trkpt lat="45.83897" lon="6.30168">
        <ele>1508</ele>
        <time>2022-01-06T08:25:06Z</time>
      </trkpt>
      <trkpt lat="45.83895" lon="6.30168">
        <ele>1508</ele>
        <time>2022-01-06T08:25:07Z</time>
      </trkpt>
      <trkpt lat="45.83894" lon="6.30167">
        <ele>1508</ele>
        <time>2022-01-06T08:25:08Z</time>
      </trkpt>
      <trkpt lat="45.83893" lon="6.30168">
        <ele>1508</ele>
        <time>2022-01-06T08:25:09Z</time>
      </trkpt>
      <trkpt lat="45.83893" lon="6.30168">
        <ele>1508</ele>
        <time>2022-01-06T08:25:10Z</time>
      </trkpt>
      <trkpt lat="45.83894" lon="6.30168">
        <ele>1508</ele>
        <time>2022-01-06T08:25:11Z</time>
      </trkpt>
      <trkpt lat="45.83893" lon="6.30168">
        <ele>1509.1</ele>
        <time>2022-01-06T08:25:12Z</time>
      </trkpt>
      <trkpt lat="45.83893" lon="6.30168">
        <ele>1509.1</ele>
        <time>2022-01-06T08:25:13Z</time>
      </trkpt>
      <trkpt lat="45.83892" lon="6.30167">
        <ele>1509.1</ele>
        <time>2022-01-06T08:25:14Z</time>
      </trkpt>
      <trkpt lat="45.83891" lon="6.30166">
        <ele>1509.1</ele>
        <time>2022-01-06T08:25:15Z</time>
      </trkpt>
      <trkpt lat="45.83891" lon="6.30165">
        <ele>1510.2</ele>
        <time>2022-01-06T08:25:16Z</time>
      </trkpt>
      <trkpt lat="45.8389" lon="6.30165">
        <ele>1510.2</ele>
        <time>2022-01-06T08:25:17Z</time>
      </trkpt>
      <trkpt lat="45.8389" lon="6.30164">
        <ele>1510.2</ele>
        <time>2022-01-06T08:25:18Z</time>
      </trkpt>
      <trkpt lat="45.8389" lon="6.30163">
        <ele>1510.2</ele>
        <time>2022-01-06T08:25:19Z</time>
      </trkpt>
      <trkpt lat="45.83889" lon="6.30162">
        <ele>1511.1</ele>
        <time>2022-01-06T08:25:20Z</time>
      </trkpt>
      <trkpt lat="45.83889" lon="6.3016">
        <ele>1511.1</ele>
        <time>2022-01-06T08:25:21Z</time>
      </trkpt>
      <trkpt lat="45.8389" lon="6.30159">
        <ele>1511.1</ele>
        <time>2022-01-06T08:25:22Z</time>
      </trkpt>
      <trkpt lat="45.83889" lon="6.30157">
        <ele>1511.1</ele>
        <time>2022-01-06T08:25:23Z</time>
      </trkpt>
      <trkpt lat="45.83889" lon="6.30156">
        <ele>1512.1</ele>
        <time>2022-01-06T08:25:24Z</time>
      </trkpt>
      <trkpt lat="45.83889" lon="6.30155">
        <ele>1512.1</ele>
        <time>2022-01-06T08:25:25Z</time>
      </trkpt>
      <trkpt lat="45.83889" lon="6.30153">
        <ele>1512.1</ele>
        <time>2022-01-06T08:25:26Z</time>
      </trkpt>
      <trkpt lat="45.83889" lon="6.30152">
        <ele>1512.1</ele>
        <time>2022-01-06T08:25:27Z</time>
      </trkpt>
      <trkpt lat="45.83889" lon="6.30151">
        <ele>1513</ele>
        <time>2022-01-06T08:25:28Z</time>
      </trkpt>
      <trkpt lat="45.8389" lon="6.3015">
        <ele>1513</ele>
        <time>2022-01-06T08:25:29Z</time>
      </trkpt>
      <trkpt lat="45.8389" lon="6.30149">
        <ele>1513</ele>
        <time>2022-01-06T08:25:30Z</time>
      </trkpt>
      <trkpt lat="45.83889" lon="6.30148">
        <ele>1513</ele>
        <time>2022-01-06T08:25:31Z</time>
      </trkpt>
      <trkpt lat="45.83889" lon="6.30147">
        <ele>1514.1</ele>
        <time>2022-01-06T08:25:32Z</time>
      </trkpt>
      <trkpt lat="45.83889" lon="6.30146">
        <ele>1514.1</ele>
        <time>2022-01-06T08:25:33Z</time>
      </trkpt>
      <trkpt lat="45.83888" lon="6.30145">
        <ele>1514.1</ele>
        <time>2022-01-06T08:25:34Z</time>
      </trkpt>
      <trkpt lat="45.83888" lon="6.30145">
        <ele>1514.1</ele>
        <time>2022-01-06T08:25:35Z</time>
      </trkpt>
      <trkpt lat="45.83887" lon="6.30145">
        <ele>1515</ele>
        <time>2022-01-06T08:25:36Z</time>
      </trkpt>
      <trkpt lat="45.83887" lon="6.30145">
        <ele>1515</ele>
        <time>2022-01-06T08:25:37Z</time>
      </trkpt>
      <trkpt lat="45.83886" lon="6.30145">
        <ele>1515</ele>
        <time>2022-01-06T08:25:38Z</time>
      </trkpt>
      <trkpt lat="45.83886" lon="6.30145">
        <ele>1515</ele>
        <time>2022-01-06T08:25:39Z</time>
      </trkpt>
      <trkpt lat="45.83885" lon="6.30146">
        <ele>1515</ele>
        <time>2022-01-06T08:25:40Z</time>
      </trkpt>
      <trkpt lat="45.83884" lon="6.30147">
        <ele>1515</ele>
        <time>2022-01-06T08:25:41Z</time>
      </trkpt>
      <trkpt lat="45.83884" lon="6.30148">
        <ele>1516.1</ele>
        <time>2022-01-06T08:25:42Z</time>
      </trkpt>
      <trkpt lat="45.83883" lon="6.30148">
        <ele>1516.1</ele>
        <time>2022-01-06T08:25:43Z</time>
      </trkpt>
      <trkpt lat="45.83883" lon="6.30149">
        <ele>1516.1</ele>
        <time>2022-01-06T08:25:44Z</time>
      </trkpt>
      <trkpt lat="45.83882" lon="6.3015">
        <ele>1516.1</ele>
        <time>2022-01-06T08:25:45Z</time>
      </trkpt>
      <trkpt lat="45.83882" lon="6.3015">
        <ele>1516.1</ele>
        <time>2022-01-06T08:25:46Z</time>
      </trkpt>
      <trkpt lat="45.83881" lon="6.30151">
        <ele>1516.1</ele>
        <time>2022-01-06T08:25:47Z</time>
      </trkpt>
      <trkpt lat="45.8388" lon="6.30152">
        <ele>1516.1</ele>
        <time>2022-01-06T08:25:48Z</time>
      </trkpt>
      <trkpt lat="45.8388" lon="6.30153">
        <ele>1516.1</ele>
        <time>2022-01-06T08:25:49Z</time>
      </trkpt>
      <trkpt lat="45.83879" lon="6.30154">
        <ele>1517.2</ele>
        <time>2022-01-06T08:25:50Z</time>
      </trkpt>
      <trkpt lat="45.83879" lon="6.30155">
        <ele>1517.2</ele>
        <time>2022-01-06T08:25:51Z</time>
      </trkpt>
      <trkpt lat="45.83879" lon="6.30155">
        <ele>1517.2</ele>
        <time>2022-01-06T08:25:52Z</time>
      </trkpt>
      <trkpt lat="45.83878" lon="6.30156">
        <ele>1517.2</ele>
        <time>2022-01-06T08:25:53Z</time>
      </trkpt>
      <trkpt lat="45.83878" lon="6.30157">
        <ele>1517.2</ele>
        <time>2022-01-06T08:25:54Z</time>
      </trkpt>
      <trkpt lat="45.83878" lon="6.30158">
        <ele>1517.2</ele>
        <time>2022-01-06T08:25:55Z</time>
      </trkpt>
      <trkpt lat="45.83878" lon="6.30159">
        <ele>1518.1</ele>
        <time>2022-01-06T08:25:56Z</time>
      </trkpt>
      <trkpt lat="45.83878" lon="6.3016">
        <ele>1518.1</ele>
        <time>2022-01-06T08:25:57Z</time>
      </trkpt>
      <trkpt lat="45.83878" lon="6.30161">
        <ele>1518.1</ele>
        <time>2022-01-06T08:25:58Z</time>
      </trkpt>
      <trkpt lat="45.83878" lon="6.30162">
        <ele>1518.1</ele>
        <time>2022-01-06T08:25:59Z</time>
      </trkpt>
      <trkpt lat="45.83878" lon="6.30163">
        <ele>1518.1</ele>
        <time>2022-01-06T08:26:00Z</time>
      </trkpt>
      <trkpt lat="45.83878" lon="6.30164">
        <ele>1518.1</ele>
        <time>2022-01-06T08:26:01Z</time>
      </trkpt>
      <trkpt lat="45.83878" lon="6.30165">
        <ele>1518.1</ele>
        <time>2022-01-06T08:26:02Z</time>
      </trkpt>
      <trkpt lat="45.83878" lon="6.30166">
        <ele>1518.1</ele>
        <time>2022-01-06T08:26:03Z</time>
      </trkpt>
      <trkpt lat="45.83878" lon="6.30167">
        <ele>1521.1</ele>
        <time>2022-01-06T08:26:04Z</time>
      </trkpt>
      <trkpt lat="45.83877" lon="6.30168">
        <ele>1521.1</ele>
        <time>2022-01-06T08:26:05Z</time>
      </trkpt>
      <trkpt lat="45.83877" lon="6.30168">
        <ele>1521.1</ele>
        <time>2022-01-06T08:26:06Z</time>
      </trkpt>
      <trkpt lat="45.83876" lon="6.30169">
        <ele>1521.1</ele>
        <time>2022-01-06T08:26:07Z</time>
      </trkpt>
      <trkpt lat="45.83876" lon="6.3017">
        <ele>1521.1</ele>
        <time>2022-01-06T08:26:08Z</time>
      </trkpt>
      <trkpt lat="45.83875" lon="6.30171">
        <ele>1521.1</ele>
        <time>2022-01-06T08:26:09Z</time>
      </trkpt>
      <trkpt lat="45.83875" lon="6.30171">
        <ele>1522</ele>
        <time>2022-01-06T08:26:10Z</time>
      </trkpt>
      <trkpt lat="45.83874" lon="6.30172">
        <ele>1522</ele>
        <time>2022-01-06T08:26:11Z</time>
      </trkpt>
      <trkpt lat="45.83874" lon="6.30173">
        <ele>1522</ele>
        <time>2022-01-06T08:26:12Z</time>
      </trkpt>
      <trkpt lat="45.83873" lon="6.30174">
        <ele>1522</ele>
        <time>2022-01-06T08:26:13Z</time>
      </trkpt>
      <trkpt lat="45.83872" lon="6.30175">
        <ele>1523.1</ele>
        <time>2022-01-06T08:26:14Z</time>
      </trkpt>
      <trkpt lat="45.83871" lon="6.30175">
        <ele>1523.1</ele>
        <time>2022-01-06T08:26:15Z</time>
      </trkpt>
      <trkpt lat="45.8387" lon="6.30176">
        <ele>1523.1</ele>
        <time>2022-01-06T08:26:16Z</time>
      </trkpt>
      <trkpt lat="45.83869" lon="6.30176">
        <ele>1523.1</ele>
        <time>2022-01-06T08:26:17Z</time>
      </trkpt>
      <trkpt lat="45.83868" lon="6.30177">
        <ele>1523.1</ele>
        <time>2022-01-06T08:26:18Z</time>
      </trkpt>
      <trkpt lat="45.83868" lon="6.30177">
        <ele>1523.1</ele>
        <time>2022-01-06T08:26:19Z</time>
      </trkpt>
      <trkpt lat="45.83867" lon="6.30177">
        <ele>1524</ele>
        <time>2022-01-06T08:26:20Z</time>
      </trkpt>
      <trkpt lat="45.83866" lon="6.30178">
        <ele>1524</ele>
        <time>2022-01-06T08:26:21Z</time>
      </trkpt>
      <trkpt lat="45.83865" lon="6.30177">
        <ele>1524</ele>
        <time>2022-01-06T08:26:22Z</time>
      </trkpt>
      <trkpt lat="45.83864" lon="6.30177">
        <ele>1524</ele>
        <time>2022-01-06T08:26:23Z</time>
      </trkpt>
      <trkpt lat="45.83863" lon="6.30177">
        <ele>1525.1</ele>
        <time>2022-01-06T08:26:24Z</time>
      </trkpt>
      <trkpt lat="45.83863" lon="6.30177">
        <ele>1525.1</ele>
        <time>2022-01-06T08:26:25Z</time>
      </trkpt>
      <trkpt lat="45.83862" lon="6.30176">
        <ele>1525.1</ele>
        <time>2022-01-06T08:26:26Z</time>
      </trkpt>
      <trkpt lat="45.83862" lon="6.30175">
        <ele>1525.1</ele>
        <time>2022-01-06T08:26:27Z</time>
      </trkpt>
      <trkpt lat="45.83862" lon="6.30174">
        <ele>1526.2</ele>
        <time>2022-01-06T08:26:28Z</time>
      </trkpt>
      <trkpt lat="45.83861" lon="6.30174">
        <ele>1526.2</ele>
        <time>2022-01-06T08:26:29Z</time>
      </trkpt>
      <trkpt lat="45.83861" lon="6.30173">
        <ele>1526.2</ele>
        <time>2022-01-06T08:26:30Z</time>
      </trkpt>
      <trkpt lat="45.83861" lon="6.30172">
        <ele>1526.2</ele>
        <time>2022-01-06T08:26:31Z</time>
      </trkpt>
      <trkpt lat="45.8386" lon="6.3017">
        <ele>1527.1</ele>
        <time>2022-01-06T08:26:32Z</time>
      </trkpt>
      <trkpt lat="45.83859" lon="6.30169">
        <ele>1527.1</ele>
        <time>2022-01-06T08:26:33Z</time>
      </trkpt>
      <trkpt lat="45.83859" lon="6.30168">
        <ele>1527.1</ele>
        <time>2022-01-06T08:26:34Z</time>
      </trkpt>
      <trkpt lat="45.83858" lon="6.30167">
        <ele>1527.1</ele>
        <time>2022-01-06T08:26:35Z</time>
      </trkpt>
      <trkpt lat="45.83858" lon="6.30165">
        <ele>1528.1</ele>
        <time>2022-01-06T08:26:36Z</time>
      </trkpt>
      <trkpt lat="45.83857" lon="6.30164">
        <ele>1528.1</ele>
        <time>2022-01-06T08:26:37Z</time>
      </trkpt>
      <trkpt lat="45.83857" lon="6.30164">
        <ele>1529</ele>
        <time>2022-01-06T08:26:38Z</time>
      </trkpt>
      <trkpt lat="45.83856" lon="6.30163">
        <ele>1529</ele>
        <time>2022-01-06T08:26:39Z</time>
      </trkpt>
      <trkpt lat="45.83856" lon="6.30163">
        <ele>1529</ele>
        <time>2022-01-06T08:26:40Z</time>
      </trkpt>
      <trkpt lat="45.83856" lon="6.30162">
        <ele>1529</ele>
        <time>2022-01-06T08:26:41Z</time>
      </trkpt>
      <trkpt lat="45.83854" lon="6.30162">
        <ele>1529</ele>
        <time>2022-01-06T08:26:42Z</time>
      </trkpt>
      <trkpt lat="45.83853" lon="6.30162">
        <ele>1529</ele>
        <time>2022-01-06T08:26:43Z</time>
      </trkpt>
      <trkpt lat="45.83853" lon="6.30163">
        <ele>1530.1</ele>
        <time>2022-01-06T08:26:44Z</time>
      </trkpt>
      <trkpt lat="45.83852" lon="6.30162">
        <ele>1530.1</ele>
        <time>2022-01-06T08:26:45Z</time>
      </trkpt>
      <trkpt lat="45.83851" lon="6.30162">
        <ele>1530.1</ele>
        <time>2022-01-06T08:26:46Z</time>
      </trkpt>
      <trkpt lat="45.8385" lon="6.30162">
        <ele>1530.1</ele>
        <time>2022-01-06T08:26:47Z</time>
      </trkpt>
      <trkpt lat="45.8385" lon="6.30161">
        <ele>1531</ele>
        <time>2022-01-06T08:26:48Z</time>
      </trkpt>
      <trkpt lat="45.83849" lon="6.30161">
        <ele>1531</ele>
        <time>2022-01-06T08:26:49Z</time>
      </trkpt>
      <trkpt lat="45.83848" lon="6.30161">
        <ele>1531</ele>
        <time>2022-01-06T08:26:50Z</time>
      </trkpt>
      <trkpt lat="45.83847" lon="6.3016">
        <ele>1531</ele>
        <time>2022-01-06T08:26:51Z</time>
      </trkpt>
      <trkpt lat="45.83846" lon="6.3016">
        <ele>1532.1</ele>
        <time>2022-01-06T08:26:52Z</time>
      </trkpt>
      <trkpt lat="45.83845" lon="6.30159">
        <ele>1532.1</ele>
        <time>2022-01-06T08:26:53Z</time>
      </trkpt>
      <trkpt lat="45.83845" lon="6.30159">
        <ele>1532.1</ele>
        <time>2022-01-06T08:26:54Z</time>
      </trkpt>
      <trkpt lat="45.83846" lon="6.30158">
        <ele>1532.1</ele>
        <time>2022-01-06T08:26:55Z</time>
      </trkpt>
      <trkpt lat="45.83845" lon="6.30157">
        <ele>1533.2</ele>
        <time>2022-01-06T08:26:56Z</time>
      </trkpt>
      <trkpt lat="45.83845" lon="6.30157">
        <ele>1533.2</ele>
        <time>2022-01-06T08:26:57Z</time>
      </trkpt>
      <trkpt lat="45.83844" lon="6.30156">
        <ele>1533.2</ele>
        <time>2022-01-06T08:26:58Z</time>
      </trkpt>
      <trkpt lat="45.83843" lon="6.30156">
        <ele>1533.2</ele>
        <time>2022-01-06T08:26:59Z</time>
      </trkpt>
      <trkpt lat="45.83842" lon="6.30155">
        <ele>1534.1</ele>
        <time>2022-01-06T08:27:00Z</time>
      </trkpt>
      <trkpt lat="45.83842" lon="6.30155">
        <ele>1534.1</ele>
        <time>2022-01-06T08:27:01Z</time>
      </trkpt>
      <trkpt lat="45.83842" lon="6.30155">
        <ele>1534.1</ele>
        <time>2022-01-06T08:27:02Z</time>
      </trkpt>
      <trkpt lat="45.83841" lon="6.30154">
        <ele>1534.1</ele>
        <time>2022-01-06T08:27:03Z</time>
      </trkpt>
      <trkpt lat="45.8384" lon="6.30154">
        <ele>1534.1</ele>
        <time>2022-01-06T08:27:04Z</time>
      </trkpt>
      <trkpt lat="45.83839" lon="6.30154">
        <ele>1534.1</ele>
        <time>2022-01-06T08:27:05Z</time>
      </trkpt>
      <trkpt lat="45.83839" lon="6.30153">
        <ele>1534.1</ele>
        <time>2022-01-06T08:27:06Z</time>
      </trkpt>
      <trkpt lat="45.83839" lon="6.30152">
        <ele>1534.1</ele>
        <time>2022-01-06T08:27:07Z</time>
      </trkpt>
      <trkpt lat="45.83838" lon="6.30152">
        <ele>1534.1</ele>
        <time>2022-01-06T08:27:08Z</time>
      </trkpt>
      <trkpt lat="45.83837" lon="6.30151">
        <ele>1534.1</ele>
        <time>2022-01-06T08:27:09Z</time>
      </trkpt>
      <trkpt lat="45.83837" lon="6.30151">
        <ele>1537.1</ele>
        <time>2022-01-06T08:27:10Z</time>
      </trkpt>
      <trkpt lat="45.83836" lon="6.3015">
        <ele>1537.1</ele>
        <time>2022-01-06T08:27:11Z</time>
      </trkpt>
      <trkpt lat="45.83836" lon="6.3015">
        <ele>1537.1</ele>
        <time>2022-01-06T08:27:12Z</time>
      </trkpt>
      <trkpt lat="45.83835" lon="6.30149">
        <ele>1537.1</ele>
        <time>2022-01-06T08:27:13Z</time>
      </trkpt>
      <trkpt lat="45.83834" lon="6.30149">
        <ele>1537.1</ele>
        <time>2022-01-06T08:27:14Z</time>
      </trkpt>
      <trkpt lat="45.83833" lon="6.30149">
        <ele>1537.1</ele>
        <time>2022-01-06T08:27:15Z</time>
      </trkpt>
      <trkpt lat="45.83832" lon="6.30148">
        <ele>1538</ele>
        <time>2022-01-06T08:27:16Z</time>
      </trkpt>
      <trkpt lat="45.83831" lon="6.30148">
        <ele>1538</ele>
        <time>2022-01-06T08:27:17Z</time>
      </trkpt>
      <trkpt lat="45.83831" lon="6.30148">
        <ele>1539.1</ele>
        <time>2022-01-06T08:27:18Z</time>
      </trkpt>
      <trkpt lat="45.83829" lon="6.30147">
        <ele>1539.1</ele>
        <time>2022-01-06T08:27:19Z</time>
      </trkpt>
      <trkpt lat="45.83829" lon="6.30147">
        <ele>1540</ele>
        <time>2022-01-06T08:27:20Z</time>
      </trkpt>
      <trkpt lat="45.83829" lon="6.30146">
        <ele>1540</ele>
        <time>2022-01-06T08:27:21Z</time>
      </trkpt>
      <trkpt lat="45.83828" lon="6.30146">
        <ele>1540</ele>
        <time>2022-01-06T08:27:22Z</time>
      </trkpt>
      <trkpt lat="45.83828" lon="6.30145">
        <ele>1540</ele>
        <time>2022-01-06T08:27:23Z</time>
      </trkpt>
      <trkpt lat="45.83827" lon="6.30145">
        <ele>1541.1</ele>
        <time>2022-01-06T08:27:24Z</time>
      </trkpt>
      <trkpt lat="45.83827" lon="6.30144">
        <ele>1541.1</ele>
        <time>2022-01-06T08:27:25Z</time>
      </trkpt>
      <trkpt lat="45.83827" lon="6.30144">
        <ele>1541.1</ele>
        <time>2022-01-06T08:27:26Z</time>
      </trkpt>
      <trkpt lat="45.83826" lon="6.30143">
        <ele>1541.1</ele>
        <time>2022-01-06T08:27:27Z</time>
      </trkpt>
      <trkpt lat="45.83826" lon="6.30143">
        <ele>1542.2</ele>
        <time>2022-01-06T08:27:28Z</time>
      </trkpt>
      <trkpt lat="45.83825" lon="6.30142">
        <ele>1542.2</ele>
        <time>2022-01-06T08:27:29Z</time>
      </trkpt>
      <trkpt lat="45.83825" lon="6.3014">
        <ele>1542.2</ele>
        <time>2022-01-06T08:27:30Z</time>
      </trkpt>
      <trkpt lat="45.83825" lon="6.3014">
        <ele>1542.2</ele>
        <time>2022-01-06T08:27:31Z</time>
      </trkpt>
      <trkpt lat="45.83824" lon="6.30139">
        <ele>1543.1</ele>
        <time>2022-01-06T08:27:32Z</time>
      </trkpt>
      <trkpt lat="45.83824" lon="6.30138">
        <ele>1543.1</ele>
        <time>2022-01-06T08:27:33Z</time>
      </trkpt>
      <trkpt lat="45.83823" lon="6.30138">
        <ele>1543.1</ele>
        <time>2022-01-06T08:27:34Z</time>
      </trkpt>
      <trkpt lat="45.83822" lon="6.30137">
        <ele>1543.1</ele>
        <time>2022-01-06T08:27:35Z</time>
      </trkpt>
      <trkpt lat="45.83822" lon="6.30136">
        <ele>1544.1</ele>
        <time>2022-01-06T08:27:36Z</time>
      </trkpt>
      <trkpt lat="45.83821" lon="6.30136">
        <ele>1544.1</ele>
        <time>2022-01-06T08:27:37Z</time>
      </trkpt>
      <trkpt lat="45.83821" lon="6.30135">
        <ele>1544.1</ele>
        <time>2022-01-06T08:27:38Z</time>
      </trkpt>
      <trkpt lat="45.8382" lon="6.30135">
        <ele>1544.1</ele>
        <time>2022-01-06T08:27:39Z</time>
      </trkpt>
      <trkpt lat="45.8382" lon="6.30135">
        <ele>1545.1</ele>
        <time>2022-01-06T08:27:40Z</time>
      </trkpt>
      <trkpt lat="45.8382" lon="6.30135">
        <ele>1545.1</ele>
        <time>2022-01-06T08:27:41Z</time>
      </trkpt>
      <trkpt lat="45.8382" lon="6.30133">
        <ele>1545.1</ele>
        <time>2022-01-06T08:27:42Z</time>
      </trkpt>
      <trkpt lat="45.8382" lon="6.30133">
        <ele>1545.1</ele>
        <time>2022-01-06T08:27:43Z</time>
      </trkpt>
      <trkpt lat="45.83819" lon="6.30132">
        <ele>1546.1</ele>
        <time>2022-01-06T08:27:44Z</time>
      </trkpt>
      <trkpt lat="45.83819" lon="6.30132">
        <ele>1546.1</ele>
        <time>2022-01-06T08:27:45Z</time>
      </trkpt>
      <trkpt lat="45.83818" lon="6.30132">
        <ele>1546.1</ele>
        <time>2022-01-06T08:27:46Z</time>
      </trkpt>
      <trkpt lat="45.83817" lon="6.30132">
        <ele>1546.1</ele>
        <time>2022-01-06T08:27:47Z</time>
      </trkpt>
      <trkpt lat="45.83817" lon="6.30132">
        <ele>1547</ele>
        <time>2022-01-06T08:27:48Z</time>
      </trkpt>
      <trkpt lat="45.83816" lon="6.30132">
        <ele>1547</ele>
        <time>2022-01-06T08:27:49Z</time>
      </trkpt>
      <trkpt lat="45.83816" lon="6.30132">
        <ele>1547</ele>
        <time>2022-01-06T08:27:50Z</time>
      </trkpt>
      <trkpt lat="45.83815" lon="6.30131">
        <ele>1547</ele>
        <time>2022-01-06T08:27:51Z</time>
      </trkpt>
      <trkpt lat="45.83815" lon="6.30131">
        <ele>1548.1</ele>
        <time>2022-01-06T08:27:52Z</time>
      </trkpt>
      <trkpt lat="45.83814" lon="6.30131">
        <ele>1548.1</ele>
        <time>2022-01-06T08:27:53Z</time>
      </trkpt>
      <trkpt lat="45.83813" lon="6.30131">
        <ele>1548.1</ele>
        <time>2022-01-06T08:27:54Z</time>
      </trkpt>
      <trkpt lat="45.83813" lon="6.30131">
        <ele>1548.1</ele>
        <time>2022-01-06T08:27:55Z</time>
      </trkpt>
      <trkpt lat="45.83812" lon="6.3013">
        <ele>1549</ele>
        <time>2022-01-06T08:27:56Z</time>
      </trkpt>
      <trkpt lat="45.83811" lon="6.3013">
        <ele>1549</ele>
        <time>2022-01-06T08:27:57Z</time>
      </trkpt>
      <trkpt lat="45.83811" lon="6.3013">
        <ele>1549</ele>
        <time>2022-01-06T08:27:58Z</time>
      </trkpt>
      <trkpt lat="45.83811" lon="6.3013">
        <ele>1549</ele>
        <time>2022-01-06T08:27:59Z</time>
      </trkpt>
      <trkpt lat="45.8381" lon="6.30129">
        <ele>1549</ele>
        <time>2022-01-06T08:28:00Z</time>
      </trkpt>
      <trkpt lat="45.8381" lon="6.30129">
        <ele>1549</ele>
        <time>2022-01-06T08:28:01Z</time>
      </trkpt>
      <trkpt lat="45.8381" lon="6.30129">
        <ele>1550.1</ele>
        <time>2022-01-06T08:28:02Z</time>
      </trkpt>
      <trkpt lat="45.8381" lon="6.30129">
        <ele>1550.1</ele>
        <time>2022-01-06T08:28:03Z</time>
      </trkpt>
      <trkpt lat="45.8381" lon="6.30129">
        <ele>1550.1</ele>
        <time>2022-01-06T08:28:04Z</time>
      </trkpt>
      <trkpt lat="45.83809" lon="6.30129">
        <ele>1550.1</ele>
        <time>2022-01-06T08:28:05Z</time>
      </trkpt>
      <trkpt lat="45.83808" lon="6.30129">
        <ele>1551.1</ele>
        <time>2022-01-06T08:28:06Z</time>
      </trkpt>
      <trkpt lat="45.83807" lon="6.30129">
        <ele>1551.1</ele>
        <time>2022-01-06T08:28:07Z</time>
      </trkpt>
      <trkpt lat="45.83807" lon="6.30129">
        <ele>1552.1</ele>
        <time>2022-01-06T08:28:08Z</time>
      </trkpt>
      <trkpt lat="45.83806" lon="6.30129">
        <ele>1552.1</ele>
        <time>2022-01-06T08:28:09Z</time>
      </trkpt>
      <trkpt lat="45.83805" lon="6.30129">
        <ele>1552.1</ele>
        <time>2022-01-06T08:28:10Z</time>
      </trkpt>
      <trkpt lat="45.83803" lon="6.30128">
        <ele>1552.1</ele>
        <time>2022-01-06T08:28:11Z</time>
      </trkpt>
      <trkpt lat="45.83802" lon="6.30128">
        <ele>1553.1</ele>
        <time>2022-01-06T08:28:12Z</time>
      </trkpt>
      <trkpt lat="45.83802" lon="6.30128">
        <ele>1553.1</ele>
        <time>2022-01-06T08:28:13Z</time>
      </trkpt>
      <trkpt lat="45.83801" lon="6.30127">
        <ele>1553.1</ele>
        <time>2022-01-06T08:28:14Z</time>
      </trkpt>
      <trkpt lat="45.83801" lon="6.30127">
        <ele>1553.1</ele>
        <time>2022-01-06T08:28:15Z</time>
      </trkpt>
      <trkpt lat="45.838" lon="6.30127">
        <ele>1554</ele>
        <time>2022-01-06T08:28:16Z</time>
      </trkpt>
      <trkpt lat="45.838" lon="6.30127">
        <ele>1554</ele>
        <time>2022-01-06T08:28:17Z</time>
      </trkpt>
      <trkpt lat="45.838" lon="6.30127">
        <ele>1554</ele>
        <time>2022-01-06T08:28:18Z</time>
      </trkpt>
      <trkpt lat="45.838" lon="6.30127">
        <ele>1554</ele>
        <time>2022-01-06T08:28:19Z</time>
      </trkpt>
      <trkpt lat="45.83799" lon="6.30127">
        <ele>1555.1</ele>
        <time>2022-01-06T08:28:20Z</time>
      </trkpt>
      <trkpt lat="45.83797" lon="6.30127">
        <ele>1555.1</ele>
        <time>2022-01-06T08:28:21Z</time>
      </trkpt>
      <trkpt lat="45.83796" lon="6.30127">
        <ele>1555.1</ele>
        <time>2022-01-06T08:28:22Z</time>
      </trkpt>
      <trkpt lat="45.83796" lon="6.30127">
        <ele>1555.1</ele>
        <time>2022-01-06T08:28:23Z</time>
      </trkpt>
      <trkpt lat="45.83796" lon="6.30127">
        <ele>1556</ele>
        <time>2022-01-06T08:28:24Z</time>
      </trkpt>
      <trkpt lat="45.83795" lon="6.30128">
        <ele>1556</ele>
        <time>2022-01-06T08:28:25Z</time>
      </trkpt>
      <trkpt lat="45.83795" lon="6.30127">
        <ele>1556</ele>
        <time>2022-01-06T08:28:26Z</time>
      </trkpt>
      <trkpt lat="45.83795" lon="6.30127">
        <ele>1556</ele>
        <time>2022-01-06T08:28:27Z</time>
      </trkpt>
      <trkpt lat="45.83795" lon="6.30127">
        <ele>1557.1</ele>
        <time>2022-01-06T08:28:28Z</time>
      </trkpt>
      <trkpt lat="45.83794" lon="6.30126">
        <ele>1557.1</ele>
        <time>2022-01-06T08:28:29Z</time>
      </trkpt>
      <trkpt lat="45.83793" lon="6.30126">
        <ele>1558.2</ele>
        <time>2022-01-06T08:28:30Z</time>
      </trkpt>
      <trkpt lat="45.83792" lon="6.30125">
        <ele>1558.2</ele>
        <time>2022-01-06T08:28:31Z</time>
      </trkpt>
      <trkpt lat="45.83792" lon="6.30124">
        <ele>1558.2</ele>
        <time>2022-01-06T08:28:32Z</time>
      </trkpt>
      <trkpt lat="45.83792" lon="6.30124">
        <ele>1558.2</ele>
        <time>2022-01-06T08:28:33Z</time>
      </trkpt>
      <trkpt lat="45.83791" lon="6.30123">
        <ele>1559.1</ele>
        <time>2022-01-06T08:28:34Z</time>
      </trkpt>
      <trkpt lat="45.83791" lon="6.30123">
        <ele>1559.1</ele>
        <time>2022-01-06T08:28:35Z</time>
      </trkpt>
      <trkpt lat="45.8379" lon="6.30121">
        <ele>1559.1</ele>
        <time>2022-01-06T08:28:36Z</time>
      </trkpt>
      <trkpt lat="45.8379" lon="6.3012">
        <ele>1559.1</ele>
        <time>2022-01-06T08:28:37Z</time>
      </trkpt>
      <trkpt lat="45.8379" lon="6.3012">
        <ele>1560.1</ele>
        <time>2022-01-06T08:28:38Z</time>
      </trkpt>
      <trkpt lat="45.8379" lon="6.30119">
        <ele>1560.1</ele>
        <time>2022-01-06T08:28:39Z</time>
      </trkpt>
      <trkpt lat="45.8379" lon="6.30118">
        <ele>1560.1</ele>
        <time>2022-01-06T08:28:40Z</time>
      </trkpt>
      <trkpt lat="45.8379" lon="6.30116">
        <ele>1560.1</ele>
        <time>2022-01-06T08:28:41Z</time>
      </trkpt>
      <trkpt lat="45.83791" lon="6.30116">
        <ele>1561.1</ele>
        <time>2022-01-06T08:28:42Z</time>
      </trkpt>
      <trkpt lat="45.83791" lon="6.30116">
        <ele>1561.1</ele>
        <time>2022-01-06T08:28:43Z</time>
      </trkpt>
      <trkpt lat="45.83791" lon="6.30115">
        <ele>1561.1</ele>
        <time>2022-01-06T08:28:44Z</time>
      </trkpt>
      <trkpt lat="45.83791" lon="6.30114">
        <ele>1561.1</ele>
        <time>2022-01-06T08:28:45Z</time>
      </trkpt>
      <trkpt lat="45.83791" lon="6.30113">
        <ele>1562.1</ele>
        <time>2022-01-06T08:28:46Z</time>
      </trkpt>
      <trkpt lat="45.8379" lon="6.30112">
        <ele>1562.1</ele>
        <time>2022-01-06T08:28:47Z</time>
      </trkpt>
      <trkpt lat="45.8379" lon="6.30112">
        <ele>1562.1</ele>
        <time>2022-01-06T08:28:48Z</time>
      </trkpt>
      <trkpt lat="45.8379" lon="6.30112">
        <ele>1562.1</ele>
        <time>2022-01-06T08:28:49Z</time>
      </trkpt>
      <trkpt lat="45.83791" lon="6.30111">
        <ele>1562.1</ele>
        <time>2022-01-06T08:28:50Z</time>
      </trkpt>
      <trkpt lat="45.8379" lon="6.3011">
        <ele>1562.1</ele>
        <time>2022-01-06T08:28:51Z</time>
      </trkpt>
      <trkpt lat="45.83789" lon="6.3011">
        <ele>1563</ele>
        <time>2022-01-06T08:28:52Z</time>
      </trkpt>
      <trkpt lat="45.83789" lon="6.3011">
        <ele>1563</ele>
        <time>2022-01-06T08:28:53Z</time>
      </trkpt>
      <trkpt lat="45.83788" lon="6.3011">
        <ele>1563</ele>
        <time>2022-01-06T08:28:54Z</time>
      </trkpt>
      <trkpt lat="45.83788" lon="6.3011">
        <ele>1563</ele>
        <time>2022-01-06T08:28:55Z</time>
      </trkpt>
      <trkpt lat="45.83787" lon="6.3011">
        <ele>1564.1</ele>
        <time>2022-01-06T08:28:56Z</time>
      </trkpt>
      <trkpt lat="45.83787" lon="6.3011">
        <ele>1564.1</ele>
        <time>2022-01-06T08:28:57Z</time>
      </trkpt>
      <trkpt lat="45.83787" lon="6.3011">
        <ele>1564.1</ele>
        <time>2022-01-06T08:28:58Z</time>
      </trkpt>
      <trkpt lat="45.83786" lon="6.3011">
        <ele>1564.1</ele>
        <time>2022-01-06T08:28:59Z</time>
      </trkpt>
      <trkpt lat="45.83785" lon="6.3011">
        <ele>1565</ele>
        <time>2022-01-06T08:29:00Z</time>
      </trkpt>
      <trkpt lat="45.83784" lon="6.3011">
        <ele>1565</ele>
        <time>2022-01-06T08:29:01Z</time>
      </trkpt>
      <trkpt lat="45.83784" lon="6.30111">
        <ele>1565</ele>
        <time>2022-01-06T08:29:02Z</time>
      </trkpt>
      <trkpt lat="45.83784" lon="6.30111">
        <ele>1565</ele>
        <time>2022-01-06T08:29:03Z</time>
      </trkpt>
      <trkpt lat="45.83783" lon="6.30111">
        <ele>1566.1</ele>
        <time>2022-01-06T08:29:04Z</time>
      </trkpt>
      <trkpt lat="45.83783" lon="6.30111">
        <ele>1566.1</ele>
        <time>2022-01-06T08:29:05Z</time>
      </trkpt>
      <trkpt lat="45.83781" lon="6.30111">
        <ele>1566.1</ele>
        <time>2022-01-06T08:29:06Z</time>
      </trkpt>
      <trkpt lat="45.8378" lon="6.30112">
        <ele>1566.1</ele>
        <time>2022-01-06T08:29:07Z</time>
      </trkpt>
      <trkpt lat="45.8378" lon="6.30112">
        <ele>1567.1</ele>
        <time>2022-01-06T08:29:08Z</time>
      </trkpt>
      <trkpt lat="45.8378" lon="6.30111">
        <ele>1567.1</ele>
        <time>2022-01-06T08:29:09Z</time>
      </trkpt>
      <trkpt lat="45.83779" lon="6.30111">
        <ele>1567.1</ele>
        <time>2022-01-06T08:29:10Z</time>
      </trkpt>
      <trkpt lat="45.83777" lon="6.30112">
        <ele>1567.1</ele>
        <time>2022-01-06T08:29:11Z</time>
      </trkpt>
      <trkpt lat="45.83776" lon="6.30113">
        <ele>1568.1</ele>
        <time>2022-01-06T08:29:12Z</time>
      </trkpt>
      <trkpt lat="45.83776" lon="6.30113">
        <ele>1568.1</ele>
        <time>2022-01-06T08:29:13Z</time>
      </trkpt>
      <trkpt lat="45.83776" lon="6.30113">
        <ele>1568.1</ele>
        <time>2022-01-06T08:29:14Z</time>
      </trkpt>
      <trkpt lat="45.83775" lon="6.30113">
        <ele>1568.1</ele>
        <time>2022-01-06T08:29:15Z</time>
      </trkpt>
      <trkpt lat="45.83775" lon="6.30113">
        <ele>1569.1</ele>
        <time>2022-01-06T08:29:16Z</time>
      </trkpt>
      <trkpt lat="45.83774" lon="6.30113">
        <ele>1569.1</ele>
        <time>2022-01-06T08:29:17Z</time>
      </trkpt>
      <trkpt lat="45.83774" lon="6.30113">
        <ele>1569.1</ele>
        <time>2022-01-06T08:29:18Z</time>
      </trkpt>
      <trkpt lat="45.83774" lon="6.30114">
        <ele>1569.1</ele>
        <time>2022-01-06T08:29:19Z</time>
      </trkpt>
      <trkpt lat="45.83773" lon="6.30114">
        <ele>1570</ele>
        <time>2022-01-06T08:29:20Z</time>
      </trkpt>
      <trkpt lat="45.83771" lon="6.30114">
        <ele>1570</ele>
        <time>2022-01-06T08:29:21Z</time>
      </trkpt>
      <trkpt lat="45.8377" lon="6.30115">
        <ele>1571.1</ele>
        <time>2022-01-06T08:29:22Z</time>
      </trkpt>
      <trkpt lat="45.8377" lon="6.30115">
        <ele>1571.1</ele>
        <time>2022-01-06T08:29:23Z</time>
      </trkpt>
      <trkpt lat="45.8377" lon="6.30115">
        <ele>1571.1</ele>
        <time>2022-01-06T08:29:24Z</time>
      </trkpt>
      <trkpt lat="45.83769" lon="6.30115">
        <ele>1571.1</ele>
        <time>2022-01-06T08:29:25Z</time>
      </trkpt>
      <trkpt lat="45.83767" lon="6.30115">
        <ele>1571.1</ele>
        <time>2022-01-06T08:29:26Z</time>
      </trkpt>
      <trkpt lat="45.83767" lon="6.30115">
        <ele>1571.1</ele>
        <time>2022-01-06T08:29:27Z</time>
      </trkpt>
      <trkpt lat="45.83767" lon="6.30115">
        <ele>1572</ele>
        <time>2022-01-06T08:29:28Z</time>
      </trkpt>
      <trkpt lat="45.83766" lon="6.30115">
        <ele>1572</ele>
        <time>2022-01-06T08:29:29Z</time>
      </trkpt>
      <trkpt lat="45.83765" lon="6.30115">
        <ele>1572</ele>
        <time>2022-01-06T08:29:30Z</time>
      </trkpt>
      <trkpt lat="45.83763" lon="6.30115">
        <ele>1572</ele>
        <time>2022-01-06T08:29:31Z</time>
      </trkpt>
      <trkpt lat="45.83762" lon="6.30115">
        <ele>1573.1</ele>
        <time>2022-01-06T08:29:32Z</time>
      </trkpt>
      <trkpt lat="45.83762" lon="6.30115">
        <ele>1573.1</ele>
        <time>2022-01-06T08:29:33Z</time>
      </trkpt>
      <trkpt lat="45.83761" lon="6.30115">
        <ele>1573.1</ele>
        <time>2022-01-06T08:29:34Z</time>
      </trkpt>
      <trkpt lat="45.83761" lon="6.30115">
        <ele>1573.1</ele>
        <time>2022-01-06T08:29:35Z</time>
      </trkpt>
      <trkpt lat="45.83759" lon="6.30115">
        <ele>1573.1</ele>
        <time>2022-01-06T08:29:36Z</time>
      </trkpt>
      <trkpt lat="45.83758" lon="6.30115">
        <ele>1573.1</ele>
        <time>2022-01-06T08:29:37Z</time>
      </trkpt>
      <trkpt lat="45.83758" lon="6.30115">
        <ele>1573.1</ele>
        <time>2022-01-06T08:29:38Z</time>
      </trkpt>
      <trkpt lat="45.83757" lon="6.30115">
        <ele>1573.1</ele>
        <time>2022-01-06T08:29:39Z</time>
      </trkpt>
      <trkpt lat="45.83756" lon="6.30115">
        <ele>1574.2</ele>
        <time>2022-01-06T08:29:40Z</time>
      </trkpt>
      <trkpt lat="45.83755" lon="6.30114">
        <ele>1574.2</ele>
        <time>2022-01-06T08:29:41Z</time>
      </trkpt>
      <trkpt lat="45.83755" lon="6.30113">
        <ele>1574.2</ele>
        <time>2022-01-06T08:29:42Z</time>
      </trkpt>
      <trkpt lat="45.83755" lon="6.30113">
        <ele>1574.2</ele>
        <time>2022-01-06T08:29:43Z</time>
      </trkpt>
      <trkpt lat="45.83754" lon="6.30112">
        <ele>1575.1</ele>
        <time>2022-01-06T08:29:44Z</time>
      </trkpt>
      <trkpt lat="45.83753" lon="6.30111">
        <ele>1575.1</ele>
        <time>2022-01-06T08:29:45Z</time>
      </trkpt>
      <trkpt lat="45.83752" lon="6.3011">
        <ele>1575.1</ele>
        <time>2022-01-06T08:29:46Z</time>
      </trkpt>
      <trkpt lat="45.83751" lon="6.3011">
        <ele>1575.1</ele>
        <time>2022-01-06T08:29:47Z</time>
      </trkpt>
      <trkpt lat="45.83751" lon="6.3011">
        <ele>1576.1</ele>
        <time>2022-01-06T08:29:48Z</time>
      </trkpt>
      <trkpt lat="45.8375" lon="6.3011">
        <ele>1576.1</ele>
        <time>2022-01-06T08:29:49Z</time>
      </trkpt>
      <trkpt lat="45.83749" lon="6.3011">
        <ele>1576.1</ele>
        <time>2022-01-06T08:29:50Z</time>
      </trkpt>
      <trkpt lat="45.83748" lon="6.3011">
        <ele>1576.1</ele>
        <time>2022-01-06T08:29:51Z</time>
      </trkpt>
      <trkpt lat="45.83746" lon="6.30109">
        <ele>1576.1</ele>
        <time>2022-01-06T08:29:52Z</time>
      </trkpt>
      <trkpt lat="45.83746" lon="6.30109">
        <ele>1576.1</ele>
        <time>2022-01-06T08:29:53Z</time>
      </trkpt>
      <trkpt lat="45.83745" lon="6.30109">
        <ele>1577.1</ele>
        <time>2022-01-06T08:29:54Z</time>
      </trkpt>
      <trkpt lat="45.83744" lon="6.30108">
        <ele>1577.1</ele>
        <time>2022-01-06T08:29:55Z</time>
      </trkpt>
      <trkpt lat="45.83742" lon="6.30107">
        <ele>1577.1</ele>
        <time>2022-01-06T08:29:56Z</time>
      </trkpt>
      <trkpt lat="45.83741" lon="6.30107">
        <ele>1577.1</ele>
        <time>2022-01-06T08:29:57Z</time>
      </trkpt>
      <trkpt lat="45.83741" lon="6.30107">
        <ele>1577.1</ele>
        <time>2022-01-06T08:29:58Z</time>
      </trkpt>
      <trkpt lat="45.8374" lon="6.30106">
        <ele>1577.1</ele>
        <time>2022-01-06T08:29:59Z</time>
      </trkpt>
      <trkpt lat="45.83739" lon="6.30105">
        <ele>1577.1</ele>
        <time>2022-01-06T08:30:00Z</time>
      </trkpt>
      <trkpt lat="45.83738" lon="6.30104">
        <ele>1577.1</ele>
        <time>2022-01-06T08:30:01Z</time>
      </trkpt>
      <trkpt lat="45.83737" lon="6.30103">
        <ele>1577.1</ele>
        <time>2022-01-06T08:30:02Z</time>
      </trkpt>
      <trkpt lat="45.83737" lon="6.30103">
        <ele>1577.1</ele>
        <time>2022-01-06T08:30:03Z</time>
      </trkpt>
      <trkpt lat="45.83737" lon="6.30102">
        <ele>1577.1</ele>
        <time>2022-01-06T08:30:04Z</time>
      </trkpt>
      <trkpt lat="45.83736" lon="6.30101">
        <ele>1577.1</ele>
        <time>2022-01-06T08:30:05Z</time>
      </trkpt>
      <trkpt lat="45.83735" lon="6.30099">
        <ele>1578.1</ele>
        <time>2022-01-06T08:30:06Z</time>
      </trkpt>
      <trkpt lat="45.83735" lon="6.30098">
        <ele>1578.1</ele>
        <time>2022-01-06T08:30:07Z</time>
      </trkpt>
      <trkpt lat="45.83735" lon="6.30098">
        <ele>1579</ele>
        <time>2022-01-06T08:30:08Z</time>
      </trkpt>
      <trkpt lat="45.83734" lon="6.30098">
        <ele>1579</ele>
        <time>2022-01-06T08:30:09Z</time>
      </trkpt>
      <trkpt lat="45.83734" lon="6.30097">
        <ele>1579</ele>
        <time>2022-01-06T08:30:10Z</time>
      </trkpt>
      <trkpt lat="45.83732" lon="6.30095">
        <ele>1579</ele>
        <time>2022-01-06T08:30:11Z</time>
      </trkpt>
      <trkpt lat="45.83731" lon="6.30095">
        <ele>1580.1</ele>
        <time>2022-01-06T08:30:12Z</time>
      </trkpt>
      <trkpt lat="45.83731" lon="6.30095">
        <ele>1580.1</ele>
        <time>2022-01-06T08:30:13Z</time>
      </trkpt>
      <trkpt lat="45.8373" lon="6.30094">
        <ele>1580.1</ele>
        <time>2022-01-06T08:30:14Z</time>
      </trkpt>
      <trkpt lat="45.8373" lon="6.30094">
        <ele>1580.1</ele>
        <time>2022-01-06T08:30:15Z</time>
      </trkpt>
      <trkpt lat="45.83729" lon="6.30092">
        <ele>1580.1</ele>
        <time>2022-01-06T08:30:16Z</time>
      </trkpt>
      <trkpt lat="45.83729" lon="6.30091">
        <ele>1580.1</ele>
        <time>2022-01-06T08:30:17Z</time>
      </trkpt>
      <trkpt lat="45.83729" lon="6.30091">
        <ele>1581</ele>
        <time>2022-01-06T08:30:18Z</time>
      </trkpt>
      <trkpt lat="45.83729" lon="6.3009">
        <ele>1581</ele>
        <time>2022-01-06T08:30:19Z</time>
      </trkpt>
      <trkpt lat="45.83729" lon="6.30088">
        <ele>1581</ele>
        <time>2022-01-06T08:30:20Z</time>
      </trkpt>
      <trkpt lat="45.83729" lon="6.30086">
        <ele>1581</ele>
        <time>2022-01-06T08:30:21Z</time>
      </trkpt>
      <trkpt lat="45.83729" lon="6.30085">
        <ele>1582.1</ele>
        <time>2022-01-06T08:30:22Z</time>
      </trkpt>
      <trkpt lat="45.83729" lon="6.30085">
        <ele>1582.1</ele>
        <time>2022-01-06T08:30:23Z</time>
      </trkpt>
      <trkpt lat="45.83729" lon="6.30084">
        <ele>1582.1</ele>
        <time>2022-01-06T08:30:24Z</time>
      </trkpt>
      <trkpt lat="45.83728" lon="6.30083">
        <ele>1582.1</ele>
        <time>2022-01-06T08:30:25Z</time>
      </trkpt>
      <trkpt lat="45.83728" lon="6.30081">
        <ele>1583.2</ele>
        <time>2022-01-06T08:30:26Z</time>
      </trkpt>
      <trkpt lat="45.83728" lon="6.3008">
        <ele>1583.2</ele>
        <time>2022-01-06T08:30:27Z</time>
      </trkpt>
      <trkpt lat="45.83728" lon="6.3008">
        <ele>1583.2</ele>
        <time>2022-01-06T08:30:28Z</time>
      </trkpt>
      <trkpt lat="45.83728" lon="6.30079">
        <ele>1583.2</ele>
        <time>2022-01-06T08:30:29Z</time>
      </trkpt>
      <trkpt lat="45.83729" lon="6.30077">
        <ele>1584.1</ele>
        <time>2022-01-06T08:30:30Z</time>
      </trkpt>
      <trkpt lat="45.83729" lon="6.30075">
        <ele>1584.1</ele>
        <time>2022-01-06T08:30:31Z</time>
      </trkpt>
      <trkpt lat="45.83729" lon="6.30074">
        <ele>1584.1</ele>
        <time>2022-01-06T08:30:32Z</time>
      </trkpt>
      <trkpt lat="45.83729" lon="6.30074">
        <ele>1584.1</ele>
        <time>2022-01-06T08:30:33Z</time>
      </trkpt>
      <trkpt lat="45.83729" lon="6.30073">
        <ele>1585.1</ele>
        <time>2022-01-06T08:30:34Z</time>
      </trkpt>
      <trkpt lat="45.8373" lon="6.30071">
        <ele>1585.1</ele>
        <time>2022-01-06T08:30:35Z</time>
      </trkpt>
      <trkpt lat="45.8373" lon="6.30069">
        <ele>1585.1</ele>
        <time>2022-01-06T08:30:36Z</time>
      </trkpt>
      <trkpt lat="45.83731" lon="6.30069">
        <ele>1585.1</ele>
        <time>2022-01-06T08:30:37Z</time>
      </trkpt>
      <trkpt lat="45.83731" lon="6.30069">
        <ele>1586</ele>
        <time>2022-01-06T08:30:38Z</time>
      </trkpt>
      <trkpt lat="45.83731" lon="6.30067">
        <ele>1586</ele>
        <time>2022-01-06T08:30:39Z</time>
      </trkpt>
      <trkpt lat="45.83731" lon="6.30066">
        <ele>1586</ele>
        <time>2022-01-06T08:30:40Z</time>
      </trkpt>
      <trkpt lat="45.83732" lon="6.30064">
        <ele>1586</ele>
        <time>2022-01-06T08:30:41Z</time>
      </trkpt>
      <trkpt lat="45.83732" lon="6.30063">
        <ele>1587.1</ele>
        <time>2022-01-06T08:30:42Z</time>
      </trkpt>
      <trkpt lat="45.83732" lon="6.30063">
        <ele>1587.1</ele>
        <time>2022-01-06T08:30:43Z</time>
      </trkpt>
      <trkpt lat="45.83733" lon="6.30063">
        <ele>1587.1</ele>
        <time>2022-01-06T08:30:44Z</time>
      </trkpt>
      <trkpt lat="45.83734" lon="6.30062">
        <ele>1587.1</ele>
        <time>2022-01-06T08:30:45Z</time>
      </trkpt>
      <trkpt lat="45.83735" lon="6.3006">
        <ele>1588</ele>
        <time>2022-01-06T08:30:46Z</time>
      </trkpt>
      <trkpt lat="45.83736" lon="6.3006">
        <ele>1588</ele>
        <time>2022-01-06T08:30:47Z</time>
      </trkpt>
      <trkpt lat="45.83736" lon="6.3006">
        <ele>1588</ele>
        <time>2022-01-06T08:30:48Z</time>
      </trkpt>
      <trkpt lat="45.83736" lon="6.30059">
        <ele>1588</ele>
        <time>2022-01-06T08:30:49Z</time>
      </trkpt>
      <trkpt lat="45.83737" lon="6.30058">
        <ele>1588</ele>
        <time>2022-01-06T08:30:50Z</time>
      </trkpt>
      <trkpt lat="45.83738" lon="6.30057">
        <ele>1588</ele>
        <time>2022-01-06T08:30:51Z</time>
      </trkpt>
      <trkpt lat="45.83739" lon="6.30056">
        <ele>1588</ele>
        <time>2022-01-06T08:30:52Z</time>
      </trkpt>
      <trkpt lat="45.83739" lon="6.30056">
        <ele>1588</ele>
        <time>2022-01-06T08:30:53Z</time>
      </trkpt>
      <trkpt lat="45.83739" lon="6.30055">
        <ele>1590.2</ele>
        <time>2022-01-06T08:30:54Z</time>
      </trkpt>
      <trkpt lat="45.8374" lon="6.30055">
        <ele>1590.2</ele>
        <time>2022-01-06T08:30:55Z</time>
      </trkpt>
      <trkpt lat="45.8374" lon="6.30053">
        <ele>1591.1</ele>
        <time>2022-01-06T08:30:56Z</time>
      </trkpt>
      <trkpt lat="45.83741" lon="6.30053">
        <ele>1591.1</ele>
        <time>2022-01-06T08:30:57Z</time>
      </trkpt>
      <trkpt lat="45.83741" lon="6.30053">
        <ele>1591.1</ele>
        <time>2022-01-06T08:30:58Z</time>
      </trkpt>
      <trkpt lat="45.8374" lon="6.30052">
        <ele>1591.1</ele>
        <time>2022-01-06T08:30:59Z</time>
      </trkpt>
      <trkpt lat="45.8374" lon="6.30052">
        <ele>1591.1</ele>
        <time>2022-01-06T08:31:00Z</time>
      </trkpt>
      <trkpt lat="45.8374" lon="6.30051">
        <ele>1591.1</ele>
        <time>2022-01-06T08:31:01Z</time>
      </trkpt>
      <trkpt lat="45.83739" lon="6.3005">
        <ele>1592.1</ele>
        <time>2022-01-06T08:31:02Z</time>
      </trkpt>
      <trkpt lat="45.83739" lon="6.3005">
        <ele>1592.1</ele>
        <time>2022-01-06T08:31:03Z</time>
      </trkpt>
      <trkpt lat="45.83739" lon="6.3005">
        <ele>1592.1</ele>
        <time>2022-01-06T08:31:04Z</time>
      </trkpt>
      <trkpt lat="45.83739" lon="6.30049">
        <ele>1592.1</ele>
        <time>2022-01-06T08:31:05Z</time>
      </trkpt>
      <trkpt lat="45.83737" lon="6.30048">
        <ele>1592.1</ele>
        <time>2022-01-06T08:31:06Z</time>
      </trkpt>
      <trkpt lat="45.83737" lon="6.30048">
        <ele>1592.1</ele>
        <time>2022-01-06T08:31:07Z</time>
      </trkpt>
      <trkpt lat="45.83737" lon="6.30047">
        <ele>1593.1</ele>
        <time>2022-01-06T08:31:08Z</time>
      </trkpt>
      <trkpt lat="45.83736" lon="6.30046">
        <ele>1593.1</ele>
        <time>2022-01-06T08:31:09Z</time>
      </trkpt>
      <trkpt lat="45.83735" lon="6.30046">
        <ele>1593.1</ele>
        <time>2022-01-06T08:31:10Z</time>
      </trkpt>
      <trkpt lat="45.83735" lon="6.30045">
        <ele>1593.1</ele>
        <time>2022-01-06T08:31:11Z</time>
      </trkpt>
      <trkpt lat="45.83734" lon="6.30045">
        <ele>1593.1</ele>
        <time>2022-01-06T08:31:12Z</time>
      </trkpt>
      <trkpt lat="45.83734" lon="6.30044">
        <ele>1593.1</ele>
        <time>2022-01-06T08:31:13Z</time>
      </trkpt>
      <trkpt lat="45.83732" lon="6.30044">
        <ele>1594.1</ele>
        <time>2022-01-06T08:31:14Z</time>
      </trkpt>
      <trkpt lat="45.83732" lon="6.30044">
        <ele>1594.1</ele>
        <time>2022-01-06T08:31:15Z</time>
      </trkpt>
      <trkpt lat="45.83731" lon="6.30043">
        <ele>1594.1</ele>
        <time>2022-01-06T08:31:16Z</time>
      </trkpt>
      <trkpt lat="45.8373" lon="6.30043">
        <ele>1594.1</ele>
        <time>2022-01-06T08:31:17Z</time>
      </trkpt>
      <trkpt lat="45.83729" lon="6.30043">
        <ele>1594.1</ele>
        <time>2022-01-06T08:31:18Z</time>
      </trkpt>
      <trkpt lat="45.83728" lon="6.30042">
        <ele>1594.1</ele>
        <time>2022-01-06T08:31:19Z</time>
      </trkpt>
      <trkpt lat="45.83727" lon="6.30042">
        <ele>1595</ele>
        <time>2022-01-06T08:31:20Z</time>
      </trkpt>
      <trkpt lat="45.83726" lon="6.30043">
        <ele>1595</ele>
        <time>2022-01-06T08:31:21Z</time>
      </trkpt>
      <trkpt lat="45.83726" lon="6.30043">
        <ele>1595</ele>
        <time>2022-01-06T08:31:22Z</time>
      </trkpt>
      <trkpt lat="45.83725" lon="6.30043">
        <ele>1595</ele>
        <time>2022-01-06T08:31:23Z</time>
      </trkpt>
      <trkpt lat="45.83724" lon="6.30043">
        <ele>1595</ele>
        <time>2022-01-06T08:31:24Z</time>
      </trkpt>
      <trkpt lat="45.83723" lon="6.30042">
        <ele>1595</ele>
        <time>2022-01-06T08:31:25Z</time>
      </trkpt>
      <trkpt lat="45.83723" lon="6.30042">
        <ele>1596.1</ele>
        <time>2022-01-06T08:31:26Z</time>
      </trkpt>
      <trkpt lat="45.83722" lon="6.30042">
        <ele>1596.1</ele>
        <time>2022-01-06T08:31:27Z</time>
      </trkpt>
      <trkpt lat="45.8372" lon="6.30042">
        <ele>1596.1</ele>
        <time>2022-01-06T08:31:28Z</time>
      </trkpt>
      <trkpt lat="45.83718" lon="6.30043">
        <ele>1596.1</ele>
        <time>2022-01-06T08:31:29Z</time>
      </trkpt>
      <trkpt lat="45.83718" lon="6.30043">
        <ele>1596.1</ele>
        <time>2022-01-06T08:31:30Z</time>
      </trkpt>
      <trkpt lat="45.83716" lon="6.30043">
        <ele>1596.1</ele>
        <time>2022-01-06T08:31:31Z</time>
      </trkpt>
      <trkpt lat="45.83716" lon="6.30043">
        <ele>1596.1</ele>
        <time>2022-01-06T08:31:32Z</time>
      </trkpt>
      <trkpt lat="45.83715" lon="6.30042">
        <ele>1596.1</ele>
        <time>2022-01-06T08:31:33Z</time>
      </trkpt>
      <trkpt lat="45.83715" lon="6.30042">
        <ele>1596.1</ele>
        <time>2022-01-06T08:31:34Z</time>
      </trkpt>
      <trkpt lat="45.83714" lon="6.30042">
        <ele>1596.1</ele>
        <time>2022-01-06T08:31:35Z</time>
      </trkpt>
      <trkpt lat="45.83713" lon="6.30042">
        <ele>1596.1</ele>
        <time>2022-01-06T08:31:36Z</time>
      </trkpt>
      <trkpt lat="45.83712" lon="6.30042">
        <ele>1596.1</ele>
        <time>2022-01-06T08:31:37Z</time>
      </trkpt>
      <trkpt lat="45.83711" lon="6.30043">
        <ele>1596.1</ele>
        <time>2022-01-06T08:31:38Z</time>
      </trkpt>
      <trkpt lat="45.83711" lon="6.30043">
        <ele>1597</ele>
        <time>2022-01-06T08:31:39Z</time>
      </trkpt>
      <trkpt lat="45.83709" lon="6.30042">
        <ele>1597</ele>
        <time>2022-01-06T08:31:40Z</time>
      </trkpt>
      <trkpt lat="45.83709" lon="6.30042">
        <ele>1597</ele>
        <time>2022-01-06T08:31:41Z</time>
      </trkpt>
      <trkpt lat="45.83707" lon="6.30042">
        <ele>1597</ele>
        <time>2022-01-06T08:31:42Z</time>
      </trkpt>
      <trkpt lat="45.83706" lon="6.30043">
        <ele>1597</ele>
        <time>2022-01-06T08:31:43Z</time>
      </trkpt>
      <trkpt lat="45.83706" lon="6.30043">
        <ele>1597</ele>
        <time>2022-01-06T08:31:44Z</time>
      </trkpt>
      <trkpt lat="45.83705" lon="6.30043">
        <ele>1598.1</ele>
        <time>2022-01-06T08:31:45Z</time>
      </trkpt>
      <trkpt lat="45.83703" lon="6.30043">
        <ele>1598.1</ele>
        <time>2022-01-06T08:31:46Z</time>
      </trkpt>
      <trkpt lat="45.83703" lon="6.30043">
        <ele>1598.1</ele>
        <time>2022-01-06T08:31:47Z</time>
      </trkpt>
      <trkpt lat="45.83702" lon="6.30043">
        <ele>1598.1</ele>
        <time>2022-01-06T08:31:48Z</time>
      </trkpt>
      <trkpt lat="45.83701" lon="6.30043">
        <ele>1598.1</ele>
        <time>2022-01-06T08:31:49Z</time>
      </trkpt>
      <trkpt lat="45.837" lon="6.30043">
        <ele>1598.1</ele>
        <time>2022-01-06T08:31:50Z</time>
      </trkpt>
      <trkpt lat="45.83699" lon="6.30044">
        <ele>1599.2</ele>
        <time>2022-01-06T08:31:51Z</time>
      </trkpt>
      <trkpt lat="45.83698" lon="6.30044">
        <ele>1599.2</ele>
        <time>2022-01-06T08:31:52Z</time>
      </trkpt>
      <trkpt lat="45.83696" lon="6.30045">
        <ele>1599.2</ele>
        <time>2022-01-06T08:31:53Z</time>
      </trkpt>
      <trkpt lat="45.83696" lon="6.30045">
        <ele>1599.2</ele>
        <time>2022-01-06T08:31:54Z</time>
      </trkpt>
      <trkpt lat="45.83695" lon="6.30045">
        <ele>1599.2</ele>
        <time>2022-01-06T08:31:55Z</time>
      </trkpt>
      <trkpt lat="45.83693" lon="6.30046">
        <ele>1599.2</ele>
        <time>2022-01-06T08:31:56Z</time>
      </trkpt>
      <trkpt lat="45.83693" lon="6.30046">
        <ele>1599.2</ele>
        <time>2022-01-06T08:31:57Z</time>
      </trkpt>
      <trkpt lat="45.83692" lon="6.30047">
        <ele>1599.2</ele>
        <time>2022-01-06T08:31:58Z</time>
      </trkpt>
      <trkpt lat="45.83692" lon="6.30047">
        <ele>1600.1</ele>
        <time>2022-01-06T08:31:59Z</time>
      </trkpt>
      <trkpt lat="45.83691" lon="6.30047">
        <ele>1600.1</ele>
        <time>2022-01-06T08:32:00Z</time>
      </trkpt>
      <trkpt lat="45.8369" lon="6.30048">
        <ele>1600.1</ele>
        <time>2022-01-06T08:32:01Z</time>
      </trkpt>
      <trkpt lat="45.83689" lon="6.30048">
        <ele>1600.1</ele>
        <time>2022-01-06T08:32:02Z</time>
      </trkpt>
      <trkpt lat="45.83688" lon="6.30049">
        <ele>1600.1</ele>
        <time>2022-01-06T08:32:03Z</time>
      </trkpt>
      <trkpt lat="45.83687" lon="6.30049">
        <ele>1600.1</ele>
        <time>2022-01-06T08:32:04Z</time>
      </trkpt>
      <trkpt lat="45.83686" lon="6.3005">
        <ele>1601.1</ele>
        <time>2022-01-06T08:32:05Z</time>
      </trkpt>
      <trkpt lat="45.83685" lon="6.30051">
        <ele>1601.1</ele>
        <time>2022-01-06T08:32:06Z</time>
      </trkpt>
      <trkpt lat="45.83685" lon="6.30051">
        <ele>1601.1</ele>
        <time>2022-01-06T08:32:07Z</time>
      </trkpt>
      <trkpt lat="45.83685" lon="6.30051">
        <ele>1601.1</ele>
        <time>2022-01-06T08:32:08Z</time>
      </trkpt>
      <trkpt lat="45.83685" lon="6.30051">
        <ele>1601.1</ele>
        <time>2022-01-06T08:32:09Z</time>
      </trkpt>
      <trkpt lat="45.83684" lon="6.30051">
        <ele>1601.1</ele>
        <time>2022-01-06T08:32:10Z</time>
      </trkpt>
      <trkpt lat="45.83683" lon="6.30052">
        <ele>1602</ele>
        <time>2022-01-06T08:32:11Z</time>
      </trkpt>
      <trkpt lat="45.83683" lon="6.30052">
        <ele>1602</ele>
        <time>2022-01-06T08:32:12Z</time>
      </trkpt>
      <trkpt lat="45.83682" lon="6.30053">
        <ele>1602</ele>
        <time>2022-01-06T08:32:13Z</time>
      </trkpt>
      <trkpt lat="45.83681" lon="6.30053">
        <ele>1602</ele>
        <time>2022-01-06T08:32:14Z</time>
      </trkpt>
      <trkpt lat="45.83681" lon="6.30053">
        <ele>1603.1</ele>
        <time>2022-01-06T08:32:15Z</time>
      </trkpt>
      <trkpt lat="45.8368" lon="6.30054">
        <ele>1603.1</ele>
        <time>2022-01-06T08:32:16Z</time>
      </trkpt>
      <trkpt lat="45.83679" lon="6.30054">
        <ele>1603.1</ele>
        <time>2022-01-06T08:32:17Z</time>
      </trkpt>
      <trkpt lat="45.83679" lon="6.30055">
        <ele>1603.1</ele>
        <time>2022-01-06T08:32:18Z</time>
      </trkpt>
      <trkpt lat="45.83678" lon="6.30055">
        <ele>1604</ele>
        <time>2022-01-06T08:32:19Z</time>
      </trkpt>
      <trkpt lat="45.83678" lon="6.30056">
        <ele>1604</ele>
        <time>2022-01-06T08:32:20Z</time>
      </trkpt>
      <trkpt lat="45.83677" lon="6.30056">
        <ele>1604</ele>
        <time>2022-01-06T08:32:21Z</time>
      </trkpt>
      <trkpt lat="45.83677" lon="6.30057">
        <ele>1604</ele>
        <time>2022-01-06T08:32:22Z</time>
      </trkpt>
      <trkpt lat="45.83676" lon="6.30057">
        <ele>1605.1</ele>
        <time>2022-01-06T08:32:23Z</time>
      </trkpt>
      <trkpt lat="45.83675" lon="6.30057">
        <ele>1605.1</ele>
        <time>2022-01-06T08:32:24Z</time>
      </trkpt>
      <trkpt lat="45.83674" lon="6.30057">
        <ele>1605.1</ele>
        <time>2022-01-06T08:32:25Z</time>
      </trkpt>
      <trkpt lat="45.83674" lon="6.30058">
        <ele>1605.1</ele>
        <time>2022-01-06T08:32:26Z</time>
      </trkpt>
      <trkpt lat="45.83673" lon="6.30058">
        <ele>1605.1</ele>
        <time>2022-01-06T08:32:27Z</time>
      </trkpt>
      <trkpt lat="45.83673" lon="6.30059">
        <ele>1605.1</ele>
        <time>2022-01-06T08:32:28Z</time>
      </trkpt>
      <trkpt lat="45.83672" lon="6.30059">
        <ele>1606.2</ele>
        <time>2022-01-06T08:32:29Z</time>
      </trkpt>
      <trkpt lat="45.83672" lon="6.30059">
        <ele>1606.2</ele>
        <time>2022-01-06T08:32:30Z</time>
      </trkpt>
      <trkpt lat="45.83672" lon="6.30059">
        <ele>1607.1</ele>
        <time>2022-01-06T08:32:31Z</time>
      </trkpt>
      <trkpt lat="45.83672" lon="6.30059">
        <ele>1607.1</ele>
        <time>2022-01-06T08:32:32Z</time>
      </trkpt>
      <trkpt lat="45.83671" lon="6.30059">
        <ele>1607.1</ele>
        <time>2022-01-06T08:32:33Z</time>
      </trkpt>
      <trkpt lat="45.83671" lon="6.30058">
        <ele>1607.1</ele>
        <time>2022-01-06T08:32:34Z</time>
      </trkpt>
      <trkpt lat="45.8367" lon="6.30057">
        <ele>1608.1</ele>
        <time>2022-01-06T08:32:35Z</time>
      </trkpt>
      <trkpt lat="45.83669" lon="6.30057">
        <ele>1608.1</ele>
        <time>2022-01-06T08:32:36Z</time>
      </trkpt>
      <trkpt lat="45.83669" lon="6.30056">
        <ele>1608.1</ele>
        <time>2022-01-06T08:32:37Z</time>
      </trkpt>
      <trkpt lat="45.83669" lon="6.30055">
        <ele>1608.1</ele>
        <time>2022-01-06T08:32:38Z</time>
      </trkpt>
      <trkpt lat="45.83668" lon="6.30054">
        <ele>1609.1</ele>
        <time>2022-01-06T08:32:39Z</time>
      </trkpt>
      <trkpt lat="45.83668" lon="6.30054">
        <ele>1609.1</ele>
        <time>2022-01-06T08:32:40Z</time>
      </trkpt>
      <trkpt lat="45.83667" lon="6.30052">
        <ele>1609.1</ele>
        <time>2022-01-06T08:32:41Z</time>
      </trkpt>
      <trkpt lat="45.83667" lon="6.30051">
        <ele>1609.1</ele>
        <time>2022-01-06T08:32:42Z</time>
      </trkpt>
      <trkpt lat="45.83667" lon="6.30051">
        <ele>1610.1</ele>
        <time>2022-01-06T08:32:43Z</time>
      </trkpt>
      <trkpt lat="45.83666" lon="6.3005">
        <ele>1610.1</ele>
        <time>2022-01-06T08:32:44Z</time>
      </trkpt>
      <trkpt lat="45.83666" lon="6.3005">
        <ele>1610.1</ele>
        <time>2022-01-06T08:32:45Z</time>
      </trkpt>
      <trkpt lat="45.83665" lon="6.3005">
        <ele>1610.1</ele>
        <time>2022-01-06T08:32:46Z</time>
      </trkpt>
      <trkpt lat="45.83664" lon="6.30049">
        <ele>1610.1</ele>
        <time>2022-01-06T08:32:47Z</time>
      </trkpt>
      <trkpt lat="45.83664" lon="6.30049">
        <ele>1610.1</ele>
        <time>2022-01-06T08:32:48Z</time>
      </trkpt>
      <trkpt lat="45.83663" lon="6.30049">
        <ele>1611</ele>
        <time>2022-01-06T08:32:49Z</time>
      </trkpt>
      <trkpt lat="45.83663" lon="6.30049">
        <ele>1611</ele>
        <time>2022-01-06T08:32:50Z</time>
      </trkpt>
      <trkpt lat="45.83663" lon="6.30048">
        <ele>1611</ele>
        <time>2022-01-06T08:32:51Z</time>
      </trkpt>
      <trkpt lat="45.83662" lon="6.30048">
        <ele>1611</ele>
        <time>2022-01-06T08:32:52Z</time>
      </trkpt>
      <trkpt lat="45.83662" lon="6.30048">
        <ele>1612.1</ele>
        <time>2022-01-06T08:32:53Z</time>
      </trkpt>
      <trkpt lat="45.83662" lon="6.30047">
        <ele>1612.1</ele>
        <time>2022-01-06T08:32:54Z</time>
      </trkpt>
      <trkpt lat="45.83662" lon="6.30046">
        <ele>1612.1</ele>
        <time>2022-01-06T08:32:55Z</time>
      </trkpt>
      <trkpt lat="45.83661" lon="6.30046">
        <ele>1612.1</ele>
        <time>2022-01-06T08:32:56Z</time>
      </trkpt>
      <trkpt lat="45.83661" lon="6.30045">
        <ele>1613</ele>
        <time>2022-01-06T08:32:57Z</time>
      </trkpt>
      <trkpt lat="45.83661" lon="6.30044">
        <ele>1613</ele>
        <time>2022-01-06T08:32:58Z</time>
      </trkpt>
      <trkpt lat="45.83661" lon="6.30043">
        <ele>1613</ele>
        <time>2022-01-06T08:32:59Z</time>
      </trkpt>
      <trkpt lat="45.83661" lon="6.30043">
        <ele>1613</ele>
        <time>2022-01-06T08:33:00Z</time>
      </trkpt>
      <trkpt lat="45.83661" lon="6.30042">
        <ele>1613</ele>
        <time>2022-01-06T08:33:01Z</time>
      </trkpt>
      <trkpt lat="45.83661" lon="6.30041">
        <ele>1613</ele>
        <time>2022-01-06T08:33:02Z</time>
      </trkpt>
      <trkpt lat="45.83661" lon="6.3004">
        <ele>1613</ele>
        <time>2022-01-06T08:33:03Z</time>
      </trkpt>
      <trkpt lat="45.83661" lon="6.3004">
        <ele>1613</ele>
        <time>2022-01-06T08:33:04Z</time>
      </trkpt>
      <trkpt lat="45.8366" lon="6.30039">
        <ele>1616.1</ele>
        <time>2022-01-06T08:33:05Z</time>
      </trkpt>
      <trkpt lat="45.8366" lon="6.30038">
        <ele>1616.1</ele>
        <time>2022-01-06T08:33:06Z</time>
      </trkpt>
      <trkpt lat="45.8366" lon="6.30037">
        <ele>1616.1</ele>
        <time>2022-01-06T08:33:07Z</time>
      </trkpt>
      <trkpt lat="45.83661" lon="6.30036">
        <ele>1616.1</ele>
        <time>2022-01-06T08:33:08Z</time>
      </trkpt>
      <trkpt lat="45.83661" lon="6.30035">
        <ele>1617.1</ele>
        <time>2022-01-06T08:33:09Z</time>
      </trkpt>
      <trkpt lat="45.83661" lon="6.30034">
        <ele>1617.1</ele>
        <time>2022-01-06T08:33:10Z</time>
      </trkpt>
      <trkpt lat="45.83661" lon="6.30034">
        <ele>1617.1</ele>
        <time>2022-01-06T08:33:11Z</time>
      </trkpt>
      <trkpt lat="45.83661" lon="6.30033">
        <ele>1617.1</ele>
        <time>2022-01-06T08:33:12Z</time>
      </trkpt>
      <trkpt lat="45.83662" lon="6.30032">
        <ele>1618.1</ele>
        <time>2022-01-06T08:33:13Z</time>
      </trkpt>
      <trkpt lat="45.83662" lon="6.30032">
        <ele>1618.1</ele>
        <time>2022-01-06T08:33:14Z</time>
      </trkpt>
      <trkpt lat="45.83661" lon="6.30031">
        <ele>1618.1</ele>
        <time>2022-01-06T08:33:15Z</time>
      </trkpt>
      <trkpt lat="45.83661" lon="6.3003">
        <ele>1618.1</ele>
        <time>2022-01-06T08:33:16Z</time>
      </trkpt>
      <trkpt lat="45.83661" lon="6.30029">
        <ele>1618.1</ele>
        <time>2022-01-06T08:33:17Z</time>
      </trkpt>
      <trkpt lat="45.83661" lon="6.30028">
        <ele>1618.1</ele>
        <time>2022-01-06T08:33:18Z</time>
      </trkpt>
      <trkpt lat="45.83661" lon="6.30027">
        <ele>1619.1</ele>
        <time>2022-01-06T08:33:19Z</time>
      </trkpt>
      <trkpt lat="45.83661" lon="6.30026">
        <ele>1619.1</ele>
        <time>2022-01-06T08:33:20Z</time>
      </trkpt>
      <trkpt lat="45.83661" lon="6.30025">
        <ele>1619.1</ele>
        <time>2022-01-06T08:33:21Z</time>
      </trkpt>
      <trkpt lat="45.83662" lon="6.30025">
        <ele>1619.1</ele>
        <time>2022-01-06T08:33:22Z</time>
      </trkpt>
      <trkpt lat="45.83662" lon="6.30024">
        <ele>1619.1</ele>
        <time>2022-01-06T08:33:23Z</time>
      </trkpt>
      <trkpt lat="45.83662" lon="6.30023">
        <ele>1619.1</ele>
        <time>2022-01-06T08:33:24Z</time>
      </trkpt>
      <trkpt lat="45.83661" lon="6.30022">
        <ele>1620</ele>
        <time>2022-01-06T08:33:25Z</time>
      </trkpt>
      <trkpt lat="45.83661" lon="6.30021">
        <ele>1620</ele>
        <time>2022-01-06T08:33:26Z</time>
      </trkpt>
      <trkpt lat="45.83661" lon="6.3002">
        <ele>1620</ele>
        <time>2022-01-06T08:33:27Z</time>
      </trkpt>
      <trkpt lat="45.83661" lon="6.30019">
        <ele>1620</ele>
        <time>2022-01-06T08:33:28Z</time>
      </trkpt>
      <trkpt lat="45.83661" lon="6.30018">
        <ele>1620</ele>
        <time>2022-01-06T08:33:29Z</time>
      </trkpt>
      <trkpt lat="45.83661" lon="6.30017">
        <ele>1620</ele>
        <time>2022-01-06T08:33:30Z</time>
      </trkpt>
      <trkpt lat="45.83661" lon="6.30015">
        <ele>1621.1</ele>
        <time>2022-01-06T08:33:31Z</time>
      </trkpt>
      <trkpt lat="45.83661" lon="6.30015">
        <ele>1621.1</ele>
        <time>2022-01-06T08:33:32Z</time>
      </trkpt>
      <trkpt lat="45.83661" lon="6.30014">
        <ele>1621.1</ele>
        <time>2022-01-06T08:33:33Z</time>
      </trkpt>
      <trkpt lat="45.8366" lon="6.30014">
        <ele>1621.1</ele>
        <time>2022-01-06T08:33:34Z</time>
      </trkpt>
      <trkpt lat="45.8366" lon="6.30013">
        <ele>1621.1</ele>
        <time>2022-01-06T08:33:35Z</time>
      </trkpt>
      <trkpt lat="45.83659" lon="6.30012">
        <ele>1621.1</ele>
        <time>2022-01-06T08:33:36Z</time>
      </trkpt>
      <trkpt lat="45.83659" lon="6.30012">
        <ele>1622</ele>
        <time>2022-01-06T08:33:37Z</time>
      </trkpt>
      <trkpt lat="45.83658" lon="6.30012">
        <ele>1622</ele>
        <time>2022-01-06T08:33:38Z</time>
      </trkpt>
      <trkpt lat="45.83657" lon="6.30012">
        <ele>1622</ele>
        <time>2022-01-06T08:33:39Z</time>
      </trkpt>
      <trkpt lat="45.83657" lon="6.30012">
        <ele>1622</ele>
        <time>2022-01-06T08:33:40Z</time>
      </trkpt>
      <trkpt lat="45.83656" lon="6.30012">
        <ele>1622</ele>
        <time>2022-01-06T08:33:41Z</time>
      </trkpt>
      <trkpt lat="45.83656" lon="6.30012">
        <ele>1622</ele>
        <time>2022-01-06T08:33:42Z</time>
      </trkpt>
      <trkpt lat="45.83656" lon="6.30012">
        <ele>1623.1</ele>
        <time>2022-01-06T08:33:43Z</time>
      </trkpt>
      <trkpt lat="45.83656" lon="6.30012">
        <ele>1623.1</ele>
        <time>2022-01-06T08:33:44Z</time>
      </trkpt>
      <trkpt lat="45.83655" lon="6.30013">
        <ele>1623.1</ele>
        <time>2022-01-06T08:33:45Z</time>
      </trkpt>
      <trkpt lat="45.83655" lon="6.30013">
        <ele>1623.1</ele>
        <time>2022-01-06T08:33:46Z</time>
      </trkpt>
      <trkpt lat="45.83654" lon="6.30013">
        <ele>1623.1</ele>
        <time>2022-01-06T08:33:47Z</time>
      </trkpt>
      <trkpt lat="45.83654" lon="6.30013">
        <ele>1623.1</ele>
        <time>2022-01-06T08:33:48Z</time>
      </trkpt>
      <trkpt lat="45.83653" lon="6.30014">
        <ele>1624.1</ele>
        <time>2022-01-06T08:33:49Z</time>
      </trkpt>
      <trkpt lat="45.83652" lon="6.30014">
        <ele>1624.1</ele>
        <time>2022-01-06T08:33:50Z</time>
      </trkpt>
      <trkpt lat="45.83651" lon="6.30014">
        <ele>1624.1</ele>
        <time>2022-01-06T08:33:51Z</time>
      </trkpt>
      <trkpt lat="45.8365" lon="6.30014">
        <ele>1624.1</ele>
        <time>2022-01-06T08:33:52Z</time>
      </trkpt>
      <trkpt lat="45.83649" lon="6.30015">
        <ele>1625.1</ele>
        <time>2022-01-06T08:33:53Z</time>
      </trkpt>
      <trkpt lat="45.83649" lon="6.30015">
        <ele>1625.1</ele>
        <time>2022-01-06T08:33:54Z</time>
      </trkpt>
      <trkpt lat="45.83648" lon="6.30015">
        <ele>1625.1</ele>
        <time>2022-01-06T08:33:55Z</time>
      </trkpt>
      <trkpt lat="45.83648" lon="6.30015">
        <ele>1625.1</ele>
        <time>2022-01-06T08:33:56Z</time>
      </trkpt>
      <trkpt lat="45.83647" lon="6.30016">
        <ele>1625.1</ele>
        <time>2022-01-06T08:33:57Z</time>
      </trkpt>
      <trkpt lat="45.83647" lon="6.30016">
        <ele>1625.1</ele>
        <time>2022-01-06T08:33:58Z</time>
      </trkpt>
      <trkpt lat="45.83646" lon="6.30016">
        <ele>1626.1</ele>
        <time>2022-01-06T08:33:59Z</time>
      </trkpt>
      <trkpt lat="45.83645" lon="6.30017">
        <ele>1626.1</ele>
        <time>2022-01-06T08:34:00Z</time>
      </trkpt>
      <trkpt lat="45.83645" lon="6.30017">
        <ele>1626.1</ele>
        <time>2022-01-06T08:34:01Z</time>
      </trkpt>
      <trkpt lat="45.83644" lon="6.30017">
        <ele>1626.1</ele>
        <time>2022-01-06T08:34:02Z</time>
      </trkpt>
      <trkpt lat="45.83644" lon="6.30017">
        <ele>1627</ele>
        <time>2022-01-06T08:34:03Z</time>
      </trkpt>
      <trkpt lat="45.83643" lon="6.30016">
        <ele>1627</ele>
        <time>2022-01-06T08:34:04Z</time>
      </trkpt>
      <trkpt lat="45.83642" lon="6.30016">
        <ele>1627</ele>
        <time>2022-01-06T08:34:05Z</time>
      </trkpt>
      <trkpt lat="45.83642" lon="6.30015">
        <ele>1627</ele>
        <time>2022-01-06T08:34:06Z</time>
      </trkpt>
      <trkpt lat="45.83642" lon="6.30014">
        <ele>1627</ele>
        <time>2022-01-06T08:34:07Z</time>
      </trkpt>
      <trkpt lat="45.83641" lon="6.30014">
        <ele>1627</ele>
        <time>2022-01-06T08:34:08Z</time>
      </trkpt>
      <trkpt lat="45.83641" lon="6.30013">
        <ele>1627</ele>
        <time>2022-01-06T08:34:09Z</time>
      </trkpt>
      <trkpt lat="45.83641" lon="6.30012">
        <ele>1627</ele>
        <time>2022-01-06T08:34:10Z</time>
      </trkpt>
      <trkpt lat="45.83641" lon="6.30011">
        <ele>1628.1</ele>
        <time>2022-01-06T08:34:11Z</time>
      </trkpt>
      <trkpt lat="45.8364" lon="6.3001">
        <ele>1628.1</ele>
        <time>2022-01-06T08:34:12Z</time>
      </trkpt>
      <trkpt lat="45.8364" lon="6.30009">
        <ele>1629</ele>
        <time>2022-01-06T08:34:13Z</time>
      </trkpt>
      <trkpt lat="45.8364" lon="6.30008">
        <ele>1629</ele>
        <time>2022-01-06T08:34:14Z</time>
      </trkpt>
      <trkpt lat="45.8364" lon="6.30008">
        <ele>1629</ele>
        <time>2022-01-06T08:34:15Z</time>
      </trkpt>
      <trkpt lat="45.8364" lon="6.30007">
        <ele>1629</ele>
        <time>2022-01-06T08:34:16Z</time>
      </trkpt>
      <trkpt lat="45.8364" lon="6.30006">
        <ele>1630.1</ele>
        <time>2022-01-06T08:34:17Z</time>
      </trkpt>
      <trkpt lat="45.8364" lon="6.30005">
        <ele>1630.1</ele>
        <time>2022-01-06T08:34:18Z</time>
      </trkpt>
      <trkpt lat="45.8364" lon="6.30004">
        <ele>1630.1</ele>
        <time>2022-01-06T08:34:19Z</time>
      </trkpt>
      <trkpt lat="45.83641" lon="6.30003">
        <ele>1630.1</ele>
        <time>2022-01-06T08:34:20Z</time>
      </trkpt>
      <trkpt lat="45.8364" lon="6.30002">
        <ele>1631.2</ele>
        <time>2022-01-06T08:34:21Z</time>
      </trkpt>
      <trkpt lat="45.8364" lon="6.30001">
        <ele>1631.2</ele>
        <time>2022-01-06T08:34:22Z</time>
      </trkpt>
      <trkpt lat="45.8364" lon="6.3">
        <ele>1631.2</ele>
        <time>2022-01-06T08:34:23Z</time>
      </trkpt>
      <trkpt lat="45.8364" lon="6.29999">
        <ele>1631.2</ele>
        <time>2022-01-06T08:34:24Z</time>
      </trkpt>
      <trkpt lat="45.83641" lon="6.29997">
        <ele>1632.1</ele>
        <time>2022-01-06T08:34:25Z</time>
      </trkpt>
      <trkpt lat="45.83641" lon="6.29997">
        <ele>1632.1</ele>
        <time>2022-01-06T08:34:26Z</time>
      </trkpt>
      <trkpt lat="45.83641" lon="6.29996">
        <ele>1632.1</ele>
        <time>2022-01-06T08:34:27Z</time>
      </trkpt>
      <trkpt lat="45.83641" lon="6.29995">
        <ele>1632.1</ele>
        <time>2022-01-06T08:34:28Z</time>
      </trkpt>
      <trkpt lat="45.83641" lon="6.29994">
        <ele>1632.1</ele>
        <time>2022-01-06T08:34:29Z</time>
      </trkpt>
      <trkpt lat="45.83641" lon="6.29993">
        <ele>1632.1</ele>
        <time>2022-01-06T08:34:30Z</time>
      </trkpt>
      <trkpt lat="45.83641" lon="6.29991">
        <ele>1633.1</ele>
        <time>2022-01-06T08:34:31Z</time>
      </trkpt>
      <trkpt lat="45.83641" lon="6.29991">
        <ele>1633.1</ele>
        <time>2022-01-06T08:34:32Z</time>
      </trkpt>
      <trkpt lat="45.83641" lon="6.2999">
        <ele>1633.1</ele>
        <time>2022-01-06T08:34:33Z</time>
      </trkpt>
      <trkpt lat="45.83641" lon="6.29989">
        <ele>1633.1</ele>
        <time>2022-01-06T08:34:34Z</time>
      </trkpt>
      <trkpt lat="45.83641" lon="6.29988">
        <ele>1634.1</ele>
        <time>2022-01-06T08:34:35Z</time>
      </trkpt>
      <trkpt lat="45.83641" lon="6.29987">
        <ele>1634.1</ele>
        <time>2022-01-06T08:34:36Z</time>
      </trkpt>
      <trkpt lat="45.8364" lon="6.29986">
        <ele>1634.1</ele>
        <time>2022-01-06T08:34:37Z</time>
      </trkpt>
      <trkpt lat="45.8364" lon="6.29986">
        <ele>1634.1</ele>
        <time>2022-01-06T08:34:38Z</time>
      </trkpt>
      <trkpt lat="45.83639" lon="6.29986">
        <ele>1634.1</ele>
        <time>2022-01-06T08:34:39Z</time>
      </trkpt>
      <trkpt lat="45.83639" lon="6.29986">
        <ele>1634.1</ele>
        <time>2022-01-06T08:34:40Z</time>
      </trkpt>
      <trkpt lat="45.83638" lon="6.29985">
        <ele>1634.1</ele>
        <time>2022-01-06T08:34:41Z</time>
      </trkpt>
      <trkpt lat="45.83638" lon="6.29985">
        <ele>1634.1</ele>
        <time>2022-01-06T08:34:42Z</time>
      </trkpt>
      <trkpt lat="45.83637" lon="6.29985">
        <ele>1635.1</ele>
        <time>2022-01-06T08:34:43Z</time>
      </trkpt>
      <trkpt lat="45.83636" lon="6.29985">
        <ele>1635.1</ele>
        <time>2022-01-06T08:34:44Z</time>
      </trkpt>
      <trkpt lat="45.83636" lon="6.29985">
        <ele>1635.1</ele>
        <time>2022-01-06T08:34:45Z</time>
      </trkpt>
      <trkpt lat="45.83635" lon="6.29985">
        <ele>1635.1</ele>
        <time>2022-01-06T08:34:46Z</time>
      </trkpt>
      <trkpt lat="45.83635" lon="6.29985">
        <ele>1636</ele>
        <time>2022-01-06T08:34:47Z</time>
      </trkpt>
      <trkpt lat="45.83634" lon="6.29985">
        <ele>1636</ele>
        <time>2022-01-06T08:34:48Z</time>
      </trkpt>
      <trkpt lat="45.83633" lon="6.29986">
        <ele>1636</ele>
        <time>2022-01-06T08:34:49Z</time>
      </trkpt>
      <trkpt lat="45.83632" lon="6.29985">
        <ele>1636</ele>
        <time>2022-01-06T08:34:50Z</time>
      </trkpt>
      <trkpt lat="45.83632" lon="6.29985">
        <ele>1637.1</ele>
        <time>2022-01-06T08:34:51Z</time>
      </trkpt>
      <trkpt lat="45.83631" lon="6.29985">
        <ele>1637.1</ele>
        <time>2022-01-06T08:34:52Z</time>
      </trkpt>
      <trkpt lat="45.83631" lon="6.29984">
        <ele>1637.1</ele>
        <time>2022-01-06T08:34:53Z</time>
      </trkpt>
      <trkpt lat="45.83631" lon="6.29984">
        <ele>1637.1</ele>
        <time>2022-01-06T08:34:54Z</time>
      </trkpt>
      <trkpt lat="45.8363" lon="6.29982">
        <ele>1638</ele>
        <time>2022-01-06T08:34:55Z</time>
      </trkpt>
      <trkpt lat="45.8363" lon="6.29981">
        <ele>1638</ele>
        <time>2022-01-06T08:34:56Z</time>
      </trkpt>
      <trkpt lat="45.8363" lon="6.2998">
        <ele>1638</ele>
        <time>2022-01-06T08:34:57Z</time>
      </trkpt>
      <trkpt lat="45.8363" lon="6.29979">
        <ele>1638</ele>
        <time>2022-01-06T08:34:58Z</time>
      </trkpt>
      <trkpt lat="45.83631" lon="6.29977">
        <ele>1638</ele>
        <time>2022-01-06T08:34:59Z</time>
      </trkpt>
      <trkpt lat="45.83631" lon="6.29977">
        <ele>1638</ele>
        <time>2022-01-06T08:35:00Z</time>
      </trkpt>
      <trkpt lat="45.83631" lon="6.29975">
        <ele>1638</ele>
        <time>2022-01-06T08:35:01Z</time>
      </trkpt>
      <trkpt lat="45.83632" lon="6.29974">
        <ele>1638</ele>
        <time>2022-01-06T08:35:02Z</time>
      </trkpt>
      <trkpt lat="45.83632" lon="6.29973">
        <ele>1639.1</ele>
        <time>2022-01-06T08:35:03Z</time>
      </trkpt>
      <trkpt lat="45.83632" lon="6.29972">
        <ele>1639.1</ele>
        <time>2022-01-06T08:35:04Z</time>
      </trkpt>
      <trkpt lat="45.83632" lon="6.29971">
        <ele>1640.1</ele>
        <time>2022-01-06T08:35:05Z</time>
      </trkpt>
      <trkpt lat="45.83632" lon="6.2997">
        <ele>1640.1</ele>
        <time>2022-01-06T08:35:06Z</time>
      </trkpt>
      <trkpt lat="45.83633" lon="6.2997">
        <ele>1640.1</ele>
        <time>2022-01-06T08:35:07Z</time>
      </trkpt>
      <trkpt lat="45.83633" lon="6.29969">
        <ele>1640.1</ele>
        <time>2022-01-06T08:35:08Z</time>
      </trkpt>
      <trkpt lat="45.83633" lon="6.29968">
        <ele>1641.1</ele>
        <time>2022-01-06T08:35:09Z</time>
      </trkpt>
      <trkpt lat="45.83633" lon="6.29967">
        <ele>1641.1</ele>
        <time>2022-01-06T08:35:10Z</time>
      </trkpt>
      <trkpt lat="45.83634" lon="6.29967">
        <ele>1641.1</ele>
        <time>2022-01-06T08:35:11Z</time>
      </trkpt>
      <trkpt lat="45.83634" lon="6.29966">
        <ele>1641.1</ele>
        <time>2022-01-06T08:35:12Z</time>
      </trkpt>
      <trkpt lat="45.83634" lon="6.29966">
        <ele>1641.1</ele>
        <time>2022-01-06T08:35:13Z</time>
      </trkpt>
      <trkpt lat="45.83635" lon="6.29965">
        <ele>1641.1</ele>
        <time>2022-01-06T08:35:14Z</time>
      </trkpt>
      <trkpt lat="45.83635" lon="6.29964">
        <ele>1642.1</ele>
        <time>2022-01-06T08:35:15Z</time>
      </trkpt>
      <trkpt lat="45.83635" lon="6.29963">
        <ele>1642.1</ele>
        <time>2022-01-06T08:35:16Z</time>
      </trkpt>
      <trkpt lat="45.83636" lon="6.29963">
        <ele>1642.1</ele>
        <time>2022-01-06T08:35:17Z</time>
      </trkpt>
      <trkpt lat="45.83636" lon="6.29962">
        <ele>1642.1</ele>
        <time>2022-01-06T08:35:18Z</time>
      </trkpt>
      <trkpt lat="45.83636" lon="6.29961">
        <ele>1643</ele>
        <time>2022-01-06T08:35:19Z</time>
      </trkpt>
      <trkpt lat="45.83636" lon="6.2996">
        <ele>1643</ele>
        <time>2022-01-06T08:35:20Z</time>
      </trkpt>
      <trkpt lat="45.83637" lon="6.29959">
        <ele>1643</ele>
        <time>2022-01-06T08:35:21Z</time>
      </trkpt>
      <trkpt lat="45.83637" lon="6.29958">
        <ele>1643</ele>
        <time>2022-01-06T08:35:22Z</time>
      </trkpt>
      <trkpt lat="45.83637" lon="6.29957">
        <ele>1644.1</ele>
        <time>2022-01-06T08:35:23Z</time>
      </trkpt>
      <trkpt lat="45.83637" lon="6.29956">
        <ele>1644.1</ele>
        <time>2022-01-06T08:35:24Z</time>
      </trkpt>
      <trkpt lat="45.83638" lon="6.29955">
        <ele>1644.1</ele>
        <time>2022-01-06T08:35:25Z</time>
      </trkpt>
      <trkpt lat="45.83638" lon="6.29955">
        <ele>1644.1</ele>
        <time>2022-01-06T08:35:26Z</time>
      </trkpt>
      <trkpt lat="45.83638" lon="6.29954">
        <ele>1644.1</ele>
        <time>2022-01-06T08:35:27Z</time>
      </trkpt>
      <trkpt lat="45.83638" lon="6.29955">
        <ele>1644.1</ele>
        <time>2022-01-06T08:35:28Z</time>
      </trkpt>
      <trkpt lat="45.83638" lon="6.29955">
        <ele>1645</ele>
        <time>2022-01-06T08:35:29Z</time>
      </trkpt>
      <trkpt lat="45.83638" lon="6.29955">
        <ele>1645</ele>
        <time>2022-01-06T08:35:30Z</time>
      </trkpt>
      <trkpt lat="45.83638" lon="6.29955">
        <ele>1645</ele>
        <time>2022-01-06T08:35:31Z</time>
      </trkpt>
      <trkpt lat="45.83637" lon="6.29955">
        <ele>1645</ele>
        <time>2022-01-06T08:35:32Z</time>
      </trkpt>
      <trkpt lat="45.83637" lon="6.29955">
        <ele>1645</ele>
        <time>2022-01-06T08:35:33Z</time>
      </trkpt>
      <trkpt lat="45.83636" lon="6.29955">
        <ele>1645</ele>
        <time>2022-01-06T08:35:34Z</time>
      </trkpt>
      <trkpt lat="45.83635" lon="6.29955">
        <ele>1645</ele>
        <time>2022-01-06T08:35:35Z</time>
      </trkpt>
      <trkpt lat="45.83635" lon="6.29956">
        <ele>1645</ele>
        <time>2022-01-06T08:35:36Z</time>
      </trkpt>
      <trkpt lat="45.83634" lon="6.29956">
        <ele>1645</ele>
        <time>2022-01-06T08:35:37Z</time>
      </trkpt>
      <trkpt lat="45.83634" lon="6.29956">
        <ele>1645</ele>
        <time>2022-01-06T08:35:38Z</time>
      </trkpt>
      <trkpt lat="45.83633" lon="6.29956">
        <ele>1645</ele>
        <time>2022-01-06T08:35:39Z</time>
      </trkpt>
      <trkpt lat="45.83632" lon="6.29955">
        <ele>1645</ele>
        <time>2022-01-06T08:35:40Z</time>
      </trkpt>
      <trkpt lat="45.83632" lon="6.29956">
        <ele>1646.1</ele>
        <time>2022-01-06T08:35:41Z</time>
      </trkpt>
      <trkpt lat="45.83631" lon="6.29956">
        <ele>1646.1</ele>
        <time>2022-01-06T08:35:42Z</time>
      </trkpt>
      <trkpt lat="45.83631" lon="6.29956">
        <ele>1646.1</ele>
        <time>2022-01-06T08:35:43Z</time>
      </trkpt>
      <trkpt lat="45.8363" lon="6.29956">
        <ele>1646.1</ele>
        <time>2022-01-06T08:35:44Z</time>
      </trkpt>
      <trkpt lat="45.8363" lon="6.29956">
        <ele>1646.1</ele>
        <time>2022-01-06T08:35:45Z</time>
      </trkpt>
      <trkpt lat="45.8363" lon="6.29956">
        <ele>1646.1</ele>
        <time>2022-01-06T08:35:46Z</time>
      </trkpt>
      <trkpt lat="45.83629" lon="6.29956">
        <ele>1646.1</ele>
        <time>2022-01-06T08:35:47Z</time>
      </trkpt>
      <trkpt lat="45.83629" lon="6.29956">
        <ele>1646.1</ele>
        <time>2022-01-06T08:35:48Z</time>
      </trkpt>
      <trkpt lat="45.83628" lon="6.29957">
        <ele>1647.2</ele>
        <time>2022-01-06T08:35:49Z</time>
      </trkpt>
      <trkpt lat="45.83627" lon="6.29957">
        <ele>1647.2</ele>
        <time>2022-01-06T08:35:50Z</time>
      </trkpt>
      <trkpt lat="45.83626" lon="6.29958">
        <ele>1647.2</ele>
        <time>2022-01-06T08:35:51Z</time>
      </trkpt>
      <trkpt lat="45.83625" lon="6.29958">
        <ele>1647.2</ele>
        <time>2022-01-06T08:35:52Z</time>
      </trkpt>
      <trkpt lat="45.83625" lon="6.29958">
        <ele>1648.1</ele>
        <time>2022-01-06T08:35:53Z</time>
      </trkpt>
      <trkpt lat="45.83624" lon="6.29959">
        <ele>1648.1</ele>
        <time>2022-01-06T08:35:54Z</time>
      </trkpt>
      <trkpt lat="45.83623" lon="6.29959">
        <ele>1648.1</ele>
        <time>2022-01-06T08:35:55Z</time>
      </trkpt>
      <trkpt lat="45.83623" lon="6.29959">
        <ele>1648.1</ele>
        <time>2022-01-06T08:35:56Z</time>
      </trkpt>
      <trkpt lat="45.83622" lon="6.29959">
        <ele>1649.1</ele>
        <time>2022-01-06T08:35:57Z</time>
      </trkpt>
      <trkpt lat="45.83621" lon="6.2996">
        <ele>1649.1</ele>
        <time>2022-01-06T08:35:58Z</time>
      </trkpt>
      <trkpt lat="45.8362" lon="6.29961">
        <ele>1649.1</ele>
        <time>2022-01-06T08:35:59Z</time>
      </trkpt>
      <trkpt lat="45.83618" lon="6.29961">
        <ele>1649.1</ele>
        <time>2022-01-06T08:36:00Z</time>
      </trkpt>
      <trkpt lat="45.83617" lon="6.29962">
        <ele>1650.1</ele>
        <time>2022-01-06T08:36:01Z</time>
      </trkpt>
      <trkpt lat="45.83617" lon="6.29963">
        <ele>1650.1</ele>
        <time>2022-01-06T08:36:02Z</time>
      </trkpt>
      <trkpt lat="45.83616" lon="6.29963">
        <ele>1650.1</ele>
        <time>2022-01-06T08:36:03Z</time>
      </trkpt>
      <trkpt lat="45.83615" lon="6.29963">
        <ele>1650.1</ele>
        <time>2022-01-06T08:36:04Z</time>
      </trkpt>
      <trkpt lat="45.83615" lon="6.29963">
        <ele>1650.1</ele>
        <time>2022-01-06T08:36:05Z</time>
      </trkpt>
      <trkpt lat="45.83615" lon="6.29964">
        <ele>1650.1</ele>
        <time>2022-01-06T08:36:06Z</time>
      </trkpt>
      <trkpt lat="45.83613" lon="6.29964">
        <ele>1650.1</ele>
        <time>2022-01-06T08:36:07Z</time>
      </trkpt>
      <trkpt lat="45.83612" lon="6.29964">
        <ele>1650.1</ele>
        <time>2022-01-06T08:36:08Z</time>
      </trkpt>
      <trkpt lat="45.83612" lon="6.29964">
        <ele>1651.1</ele>
        <time>2022-01-06T08:36:09Z</time>
      </trkpt>
      <trkpt lat="45.83612" lon="6.29965">
        <ele>1651.1</ele>
        <time>2022-01-06T08:36:10Z</time>
      </trkpt>
      <trkpt lat="45.83611" lon="6.29965">
        <ele>1652</ele>
        <time>2022-01-06T08:36:11Z</time>
      </trkpt>
      <trkpt lat="45.83611" lon="6.29966">
        <ele>1652</ele>
        <time>2022-01-06T08:36:12Z</time>
      </trkpt>
      <trkpt lat="45.8361" lon="6.29966">
        <ele>1652</ele>
        <time>2022-01-06T08:36:13Z</time>
      </trkpt>
      <trkpt lat="45.8361" lon="6.29967">
        <ele>1652</ele>
        <time>2022-01-06T08:36:14Z</time>
      </trkpt>
      <trkpt lat="45.83609" lon="6.29967">
        <ele>1652</ele>
        <time>2022-01-06T08:36:15Z</time>
      </trkpt>
      <trkpt lat="45.83608" lon="6.29968">
        <ele>1652</ele>
        <time>2022-01-06T08:36:16Z</time>
      </trkpt>
      <trkpt lat="45.83608" lon="6.29968">
        <ele>1652</ele>
        <time>2022-01-06T08:36:17Z</time>
      </trkpt>
      <trkpt lat="45.83607" lon="6.29968">
        <ele>1652</ele>
        <time>2022-01-06T08:36:18Z</time>
      </trkpt>
      <trkpt lat="45.83607" lon="6.29968">
        <ele>1652</ele>
        <time>2022-01-06T08:36:19Z</time>
      </trkpt>
      <trkpt lat="45.83607" lon="6.29967">
        <ele>1652</ele>
        <time>2022-01-06T08:36:20Z</time>
      </trkpt>
      <trkpt lat="45.83607" lon="6.29966">
        <ele>1652</ele>
        <time>2022-01-06T08:36:21Z</time>
      </trkpt>
      <trkpt lat="45.83607" lon="6.29966">
        <ele>1652</ele>
        <time>2022-01-06T08:36:22Z</time>
      </trkpt>
      <trkpt lat="45.83606" lon="6.29965">
        <ele>1652</ele>
        <time>2022-01-06T08:36:23Z</time>
      </trkpt>
      <trkpt lat="45.83606" lon="6.29964">
        <ele>1652</ele>
        <time>2022-01-06T08:36:24Z</time>
      </trkpt>
      <trkpt lat="45.83606" lon="6.29963">
        <ele>1653.1</ele>
        <time>2022-01-06T08:36:25Z</time>
      </trkpt>
      <trkpt lat="45.83607" lon="6.29963">
        <ele>1653.1</ele>
        <time>2022-01-06T08:36:26Z</time>
      </trkpt>
      <trkpt lat="45.83607" lon="6.29962">
        <ele>1653.1</ele>
        <time>2022-01-06T08:36:27Z</time>
      </trkpt>
      <trkpt lat="45.83607" lon="6.29961">
        <ele>1653.1</ele>
        <time>2022-01-06T08:36:28Z</time>
      </trkpt>
      <trkpt lat="45.83607" lon="6.29961">
        <ele>1654</ele>
        <time>2022-01-06T08:36:29Z</time>
      </trkpt>
      <trkpt lat="45.83607" lon="6.29961">
        <ele>1654</ele>
        <time>2022-01-06T08:36:30Z</time>
      </trkpt>
      <trkpt lat="45.83607" lon="6.29961">
        <ele>1654</ele>
        <time>2022-01-06T08:36:31Z</time>
      </trkpt>
      <trkpt lat="45.83607" lon="6.29961">
        <ele>1654</ele>
        <time>2022-01-06T08:36:32Z</time>
      </trkpt>
      <trkpt lat="45.83607" lon="6.29961">
        <ele>1654</ele>
        <time>2022-01-06T08:36:33Z</time>
      </trkpt>
      <trkpt lat="45.83607" lon="6.29961">
        <ele>1654</ele>
        <time>2022-01-06T08:36:34Z</time>
      </trkpt>
      <trkpt lat="45.83607" lon="6.29961">
        <ele>1654</ele>
        <time>2022-01-06T08:36:35Z</time>
      </trkpt>
      <trkpt lat="45.83607" lon="6.29961">
        <ele>1654</ele>
        <time>2022-01-06T08:36:36Z</time>
      </trkpt>
      <trkpt lat="45.83607" lon="6.29961">
        <ele>1654</ele>
        <time>2022-01-06T08:36:37Z</time>
      </trkpt>
      <trkpt lat="45.83607" lon="6.29961">
        <ele>1654</ele>
        <time>2022-01-06T08:36:38Z</time>
      </trkpt>
      <trkpt lat="45.83607" lon="6.29961">
        <ele>1654</ele>
        <time>2022-01-06T08:36:39Z</time>
      </trkpt>
      <trkpt lat="45.83607" lon="6.29962">
        <ele>1654</ele>
        <time>2022-01-06T08:36:40Z</time>
      </trkpt>
      <trkpt lat="45.83607" lon="6.29962">
        <ele>1655.1</ele>
        <time>2022-01-06T08:36:41Z</time>
      </trkpt>
      <trkpt lat="45.83607" lon="6.29962">
        <ele>1655.1</ele>
        <time>2022-01-06T08:36:42Z</time>
      </trkpt>
      <trkpt lat="45.83606" lon="6.29962">
        <ele>1655.1</ele>
        <time>2022-01-06T08:36:43Z</time>
      </trkpt>
      <trkpt lat="45.83606" lon="6.29962">
        <ele>1655.1</ele>
        <time>2022-01-06T08:36:44Z</time>
      </trkpt>
      <trkpt lat="45.83606" lon="6.29962">
        <ele>1656.2</ele>
        <time>2022-01-06T08:36:45Z</time>
      </trkpt>
      <trkpt lat="45.83606" lon="6.29962">
        <ele>1656.2</ele>
        <time>2022-01-06T08:36:46Z</time>
      </trkpt>
      <trkpt lat="45.83606" lon="6.29962">
        <ele>1657.1</ele>
        <time>2022-01-06T08:36:47Z</time>
      </trkpt>
      <trkpt lat="45.83604" lon="6.29963">
        <ele>1657.1</ele>
        <time>2022-01-06T08:36:48Z</time>
      </trkpt>
      <trkpt lat="45.83603" lon="6.29963">
        <ele>1657.1</ele>
        <time>2022-01-06T08:36:49Z</time>
      </trkpt>
      <trkpt lat="45.83601" lon="6.29964">
        <ele>1657.1</ele>
        <time>2022-01-06T08:36:50Z</time>
      </trkpt>
      <trkpt lat="45.836" lon="6.29965">
        <ele>1658.1</ele>
        <time>2022-01-06T08:36:51Z</time>
      </trkpt>
      <trkpt lat="45.83599" lon="6.29965">
        <ele>1658.1</ele>
        <time>2022-01-06T08:36:52Z</time>
      </trkpt>
      <trkpt lat="45.83597" lon="6.29966">
        <ele>1658.1</ele>
        <time>2022-01-06T08:36:53Z</time>
      </trkpt>
      <trkpt lat="45.83596" lon="6.29967">
        <ele>1658.1</ele>
        <time>2022-01-06T08:36:54Z</time>
      </trkpt>
      <trkpt lat="45.83595" lon="6.29968">
        <ele>1659</ele>
        <time>2022-01-06T08:36:55Z</time>
      </trkpt>
      <trkpt lat="45.83594" lon="6.29968">
        <ele>1659</ele>
        <time>2022-01-06T08:36:56Z</time>
      </trkpt>
      <trkpt lat="45.83593" lon="6.29969">
        <ele>1659</ele>
        <time>2022-01-06T08:36:57Z</time>
      </trkpt>
      <trkpt lat="45.83593" lon="6.29969">
        <ele>1659</ele>
        <time>2022-01-06T08:36:58Z</time>
      </trkpt>
      <trkpt lat="45.83592" lon="6.29969">
        <ele>1660.1</ele>
        <time>2022-01-06T08:36:59Z</time>
      </trkpt>
      <trkpt lat="45.83591" lon="6.29969">
        <ele>1660.1</ele>
        <time>2022-01-06T08:37:00Z</time>
      </trkpt>
      <trkpt lat="45.83591" lon="6.2997">
        <ele>1660.1</ele>
        <time>2022-01-06T08:37:01Z</time>
      </trkpt>
      <trkpt lat="45.83589" lon="6.29971">
        <ele>1660.1</ele>
        <time>2022-01-06T08:37:02Z</time>
      </trkpt>
      <trkpt lat="45.83588" lon="6.29971">
        <ele>1660.1</ele>
        <time>2022-01-06T08:37:03Z</time>
      </trkpt>
      <trkpt lat="45.83587" lon="6.29972">
        <ele>1660.1</ele>
        <time>2022-01-06T08:37:04Z</time>
      </trkpt>
      <trkpt lat="45.83586" lon="6.29973">
        <ele>1660.1</ele>
        <time>2022-01-06T08:37:05Z</time>
      </trkpt>
      <trkpt lat="45.83585" lon="6.29974">
        <ele>1660.1</ele>
        <time>2022-01-06T08:37:06Z</time>
      </trkpt>
      <trkpt lat="45.83584" lon="6.29975">
        <ele>1661</ele>
        <time>2022-01-06T08:37:07Z</time>
      </trkpt>
      <trkpt lat="45.83583" lon="6.29976">
        <ele>1661</ele>
        <time>2022-01-06T08:37:08Z</time>
      </trkpt>
      <trkpt lat="45.83582" lon="6.29976">
        <ele>1661</ele>
        <time>2022-01-06T08:37:09Z</time>
      </trkpt>
      <trkpt lat="45.83582" lon="6.29977">
        <ele>1661</ele>
        <time>2022-01-06T08:37:10Z</time>
      </trkpt>
      <trkpt lat="45.83582" lon="6.29977">
        <ele>1662.1</ele>
        <time>2022-01-06T08:37:11Z</time>
      </trkpt>
      <trkpt lat="45.83582" lon="6.29976">
        <ele>1662.1</ele>
        <time>2022-01-06T08:37:12Z</time>
      </trkpt>
      <trkpt lat="45.83581" lon="6.29976">
        <ele>1663.2</ele>
        <time>2022-01-06T08:37:13Z</time>
      </trkpt>
      <trkpt lat="45.83581" lon="6.29975">
        <ele>1663.2</ele>
        <time>2022-01-06T08:37:14Z</time>
      </trkpt>
      <trkpt lat="45.83581" lon="6.29974">
        <ele>1663.2</ele>
        <time>2022-01-06T08:37:15Z</time>
      </trkpt>
      <trkpt lat="45.83581" lon="6.29973">
        <ele>1663.2</ele>
        <time>2022-01-06T08:37:16Z</time>
      </trkpt>
      <trkpt lat="45.8358" lon="6.29973">
        <ele>1663.2</ele>
        <time>2022-01-06T08:37:17Z</time>
      </trkpt>
      <trkpt lat="45.8358" lon="6.29972">
        <ele>1663.2</ele>
        <time>2022-01-06T08:37:18Z</time>
      </trkpt>
      <trkpt lat="45.8358" lon="6.29971">
        <ele>1664.1</ele>
        <time>2022-01-06T08:37:19Z</time>
      </trkpt>
      <trkpt lat="45.8358" lon="6.29971">
        <ele>1664.1</ele>
        <time>2022-01-06T08:37:20Z</time>
      </trkpt>
      <trkpt lat="45.83579" lon="6.29971">
        <ele>1664.1</ele>
        <time>2022-01-06T08:37:21Z</time>
      </trkpt>
      <trkpt lat="45.83579" lon="6.2997">
        <ele>1664.1</ele>
        <time>2022-01-06T08:37:22Z</time>
      </trkpt>
      <trkpt lat="45.83579" lon="6.29969">
        <ele>1665.1</ele>
        <time>2022-01-06T08:37:23Z</time>
      </trkpt>
      <trkpt lat="45.83579" lon="6.29968">
        <ele>1665.1</ele>
        <time>2022-01-06T08:37:24Z</time>
      </trkpt>
      <trkpt lat="45.83579" lon="6.29967">
        <ele>1665.1</ele>
        <time>2022-01-06T08:37:25Z</time>
      </trkpt>
      <trkpt lat="45.83578" lon="6.29966">
        <ele>1665.1</ele>
        <time>2022-01-06T08:37:26Z</time>
      </trkpt>
      <trkpt lat="45.83578" lon="6.29965">
        <ele>1666.1</ele>
        <time>2022-01-06T08:37:27Z</time>
      </trkpt>
      <trkpt lat="45.83577" lon="6.29964">
        <ele>1666.1</ele>
        <time>2022-01-06T08:37:28Z</time>
      </trkpt>
      <trkpt lat="45.83577" lon="6.29964">
        <ele>1666.1</ele>
        <time>2022-01-06T08:37:29Z</time>
      </trkpt>
      <trkpt lat="45.83576" lon="6.29963">
        <ele>1666.1</ele>
        <time>2022-01-06T08:37:30Z</time>
      </trkpt>
      <trkpt lat="45.83576" lon="6.29963">
        <ele>1667.1</ele>
        <time>2022-01-06T08:37:31Z</time>
      </trkpt>
      <trkpt lat="45.83576" lon="6.29962">
        <ele>1667.1</ele>
        <time>2022-01-06T08:37:32Z</time>
      </trkpt>
      <trkpt lat="45.83576" lon="6.29962">
        <ele>1667.1</ele>
        <time>2022-01-06T08:37:33Z</time>
      </trkpt>
      <trkpt lat="45.83575" lon="6.29961">
        <ele>1667.1</ele>
        <time>2022-01-06T08:37:34Z</time>
      </trkpt>
      <trkpt lat="45.83574" lon="6.29961">
        <ele>1668</ele>
        <time>2022-01-06T08:37:35Z</time>
      </trkpt>
      <trkpt lat="45.83574" lon="6.29961">
        <ele>1668</ele>
        <time>2022-01-06T08:37:36Z</time>
      </trkpt>
      <trkpt lat="45.83573" lon="6.2996">
        <ele>1668</ele>
        <time>2022-01-06T08:37:37Z</time>
      </trkpt>
      <trkpt lat="45.83573" lon="6.2996">
        <ele>1668</ele>
        <time>2022-01-06T08:37:38Z</time>
      </trkpt>
      <trkpt lat="45.83572" lon="6.29959">
        <ele>1669.1</ele>
        <time>2022-01-06T08:37:39Z</time>
      </trkpt>
      <trkpt lat="45.83572" lon="6.29959">
        <ele>1669.1</ele>
        <time>2022-01-06T08:37:40Z</time>
      </trkpt>
      <trkpt lat="45.83571" lon="6.29958">
        <ele>1669.1</ele>
        <time>2022-01-06T08:37:41Z</time>
      </trkpt>
      <trkpt lat="45.8357" lon="6.29958">
        <ele>1669.1</ele>
        <time>2022-01-06T08:37:42Z</time>
      </trkpt>
      <trkpt lat="45.8357" lon="6.29957">
        <ele>1669.1</ele>
        <time>2022-01-06T08:37:43Z</time>
      </trkpt>
      <trkpt lat="45.8357" lon="6.29957">
        <ele>1669.1</ele>
        <time>2022-01-06T08:37:44Z</time>
      </trkpt>
      <trkpt lat="45.8357" lon="6.29956">
        <ele>1669.1</ele>
        <time>2022-01-06T08:37:45Z</time>
      </trkpt>
      <trkpt lat="45.83569" lon="6.29956">
        <ele>1669.1</ele>
        <time>2022-01-06T08:37:46Z</time>
      </trkpt>
      <trkpt lat="45.83569" lon="6.29955">
        <ele>1669.1</ele>
        <time>2022-01-06T08:37:47Z</time>
      </trkpt>
      <trkpt lat="45.83568" lon="6.29955">
        <ele>1669.1</ele>
        <time>2022-01-06T08:37:48Z</time>
      </trkpt>
      <trkpt lat="45.83568" lon="6.29955">
        <ele>1671.1</ele>
        <time>2022-01-06T08:37:49Z</time>
      </trkpt>
      <trkpt lat="45.83567" lon="6.29955">
        <ele>1671.1</ele>
        <time>2022-01-06T08:37:50Z</time>
      </trkpt>
      <trkpt lat="45.83566" lon="6.29955">
        <ele>1672.2</ele>
        <time>2022-01-06T08:37:51Z</time>
      </trkpt>
      <trkpt lat="45.83566" lon="6.29956">
        <ele>1672.2</ele>
        <time>2022-01-06T08:37:52Z</time>
      </trkpt>
      <trkpt lat="45.83565" lon="6.29956">
        <ele>1672.2</ele>
        <time>2022-01-06T08:37:53Z</time>
      </trkpt>
      <trkpt lat="45.83564" lon="6.29956">
        <ele>1672.2</ele>
        <time>2022-01-06T08:37:54Z</time>
      </trkpt>
      <trkpt lat="45.83564" lon="6.29956">
        <ele>1673.1</ele>
        <time>2022-01-06T08:37:55Z</time>
      </trkpt>
      <trkpt lat="45.83563" lon="6.29956">
        <ele>1673.1</ele>
        <time>2022-01-06T08:37:56Z</time>
      </trkpt>
      <trkpt lat="45.83562" lon="6.29956">
        <ele>1673.1</ele>
        <time>2022-01-06T08:37:57Z</time>
      </trkpt>
      <trkpt lat="45.83561" lon="6.29956">
        <ele>1673.1</ele>
        <time>2022-01-06T08:37:58Z</time>
      </trkpt>
      <trkpt lat="45.8356" lon="6.29957">
        <ele>1674.1</ele>
        <time>2022-01-06T08:37:59Z</time>
      </trkpt>
      <trkpt lat="45.83559" lon="6.29957">
        <ele>1674.1</ele>
        <time>2022-01-06T08:38:00Z</time>
      </trkpt>
      <trkpt lat="45.83558" lon="6.29957">
        <ele>1674.1</ele>
        <time>2022-01-06T08:38:01Z</time>
      </trkpt>
      <trkpt lat="45.83557" lon="6.29957">
        <ele>1674.1</ele>
        <time>2022-01-06T08:38:02Z</time>
      </trkpt>
      <trkpt lat="45.83557" lon="6.29957">
        <ele>1674.1</ele>
        <time>2022-01-06T08:38:03Z</time>
      </trkpt>
      <trkpt lat="45.83557" lon="6.29957">
        <ele>1674.1</ele>
        <time>2022-01-06T08:38:04Z</time>
      </trkpt>
      <trkpt lat="45.83556" lon="6.29958">
        <ele>1674.1</ele>
        <time>2022-01-06T08:38:05Z</time>
      </trkpt>
      <trkpt lat="45.83556" lon="6.29959">
        <ele>1674.1</ele>
        <time>2022-01-06T08:38:06Z</time>
      </trkpt>
      <trkpt lat="45.83556" lon="6.29959">
        <ele>1675</ele>
        <time>2022-01-06T08:38:07Z</time>
      </trkpt>
      <trkpt lat="45.83555" lon="6.29959">
        <ele>1675</ele>
        <time>2022-01-06T08:38:08Z</time>
      </trkpt>
      <trkpt lat="45.83555" lon="6.29959">
        <ele>1675</ele>
        <time>2022-01-06T08:38:09Z</time>
      </trkpt>
      <trkpt lat="45.83554" lon="6.29958">
        <ele>1675</ele>
        <time>2022-01-06T08:38:10Z</time>
      </trkpt>
      <trkpt lat="45.83553" lon="6.29958">
        <ele>1675</ele>
        <time>2022-01-06T08:38:11Z</time>
      </trkpt>
      <trkpt lat="45.83552" lon="6.29957">
        <ele>1675</ele>
        <time>2022-01-06T08:38:12Z</time>
      </trkpt>
      <trkpt lat="45.83552" lon="6.29955">
        <ele>1675</ele>
        <time>2022-01-06T08:38:13Z</time>
      </trkpt>
      <trkpt lat="45.83551" lon="6.29955">
        <ele>1675</ele>
        <time>2022-01-06T08:38:14Z</time>
      </trkpt>
      <trkpt lat="45.83551" lon="6.29953">
        <ele>1675</ele>
        <time>2022-01-06T08:38:15Z</time>
      </trkpt>
      <trkpt lat="45.8355" lon="6.29952">
        <ele>1675</ele>
        <time>2022-01-06T08:38:16Z</time>
      </trkpt>
      <trkpt lat="45.8355" lon="6.29951">
        <ele>1678.1</ele>
        <time>2022-01-06T08:38:17Z</time>
      </trkpt>
      <trkpt lat="45.8355" lon="6.2995">
        <ele>1678.1</ele>
        <time>2022-01-06T08:38:18Z</time>
      </trkpt>
      <trkpt lat="45.8355" lon="6.29949">
        <ele>1678.1</ele>
        <time>2022-01-06T08:38:19Z</time>
      </trkpt>
      <trkpt lat="45.8355" lon="6.29948">
        <ele>1678.1</ele>
        <time>2022-01-06T08:38:20Z</time>
      </trkpt>
      <trkpt lat="45.8355" lon="6.29947">
        <ele>1678.1</ele>
        <time>2022-01-06T08:38:21Z</time>
      </trkpt>
      <trkpt lat="45.8355" lon="6.29946">
        <ele>1678.1</ele>
        <time>2022-01-06T08:38:22Z</time>
      </trkpt>
      <trkpt lat="45.8355" lon="6.29945">
        <ele>1679.2</ele>
        <time>2022-01-06T08:38:23Z</time>
      </trkpt>
      <trkpt lat="45.8355" lon="6.29945">
        <ele>1679.2</ele>
        <time>2022-01-06T08:38:24Z</time>
      </trkpt>
      <trkpt lat="45.8355" lon="6.29943">
        <ele>1679.2</ele>
        <time>2022-01-06T08:38:25Z</time>
      </trkpt>
      <trkpt lat="45.8355" lon="6.29942">
        <ele>1679.2</ele>
        <time>2022-01-06T08:38:26Z</time>
      </trkpt>
      <trkpt lat="45.83549" lon="6.29942">
        <ele>1680.1</ele>
        <time>2022-01-06T08:38:27Z</time>
      </trkpt>
      <trkpt lat="45.8355" lon="6.29941">
        <ele>1680.1</ele>
        <time>2022-01-06T08:38:28Z</time>
      </trkpt>
      <trkpt lat="45.8355" lon="6.29939">
        <ele>1680.1</ele>
        <time>2022-01-06T08:38:29Z</time>
      </trkpt>
      <trkpt lat="45.83551" lon="6.29938">
        <ele>1680.1</ele>
        <time>2022-01-06T08:38:30Z</time>
      </trkpt>
      <trkpt lat="45.83551" lon="6.29937">
        <ele>1681.1</ele>
        <time>2022-01-06T08:38:31Z</time>
      </trkpt>
      <trkpt lat="45.8355" lon="6.29937">
        <ele>1681.1</ele>
        <time>2022-01-06T08:38:32Z</time>
      </trkpt>
      <trkpt lat="45.8355" lon="6.29936">
        <ele>1681.1</ele>
        <time>2022-01-06T08:38:33Z</time>
      </trkpt>
      <trkpt lat="45.8355" lon="6.29936">
        <ele>1681.1</ele>
        <time>2022-01-06T08:38:34Z</time>
      </trkpt>
      <trkpt lat="45.83549" lon="6.29936">
        <ele>1681.1</ele>
        <time>2022-01-06T08:38:35Z</time>
      </trkpt>
      <trkpt lat="45.83548" lon="6.29936">
        <ele>1681.1</ele>
        <time>2022-01-06T08:38:36Z</time>
      </trkpt>
      <trkpt lat="45.83547" lon="6.29936">
        <ele>1682.1</ele>
        <time>2022-01-06T08:38:37Z</time>
      </trkpt>
      <trkpt lat="45.83546" lon="6.29936">
        <ele>1682.1</ele>
        <time>2022-01-06T08:38:38Z</time>
      </trkpt>
      <trkpt lat="45.83545" lon="6.29936">
        <ele>1683.1</ele>
        <time>2022-01-06T08:38:39Z</time>
      </trkpt>
      <trkpt lat="45.83544" lon="6.29936">
        <ele>1683.1</ele>
        <time>2022-01-06T08:38:40Z</time>
      </trkpt>
      <trkpt lat="45.83544" lon="6.29936">
        <ele>1683.1</ele>
        <time>2022-01-06T08:38:41Z</time>
      </trkpt>
      <trkpt lat="45.83543" lon="6.29936">
        <ele>1683.1</ele>
        <time>2022-01-06T08:38:42Z</time>
      </trkpt>
      <trkpt lat="45.83543" lon="6.29935">
        <ele>1684</ele>
        <time>2022-01-06T08:38:43Z</time>
      </trkpt>
      <trkpt lat="45.83542" lon="6.29935">
        <ele>1684</ele>
        <time>2022-01-06T08:38:44Z</time>
      </trkpt>
      <trkpt lat="45.83542" lon="6.29934">
        <ele>1684</ele>
        <time>2022-01-06T08:38:45Z</time>
      </trkpt>
      <trkpt lat="45.83542" lon="6.29934">
        <ele>1684</ele>
        <time>2022-01-06T08:38:46Z</time>
      </trkpt>
      <trkpt lat="45.83541" lon="6.29932">
        <ele>1685.1</ele>
        <time>2022-01-06T08:38:47Z</time>
      </trkpt>
      <trkpt lat="45.83541" lon="6.29932">
        <ele>1685.1</ele>
        <time>2022-01-06T08:38:48Z</time>
      </trkpt>
      <trkpt lat="45.83541" lon="6.29931">
        <ele>1685.1</ele>
        <time>2022-01-06T08:38:49Z</time>
      </trkpt>
      <trkpt lat="45.83541" lon="6.2993">
        <ele>1685.1</ele>
        <time>2022-01-06T08:38:50Z</time>
      </trkpt>
      <trkpt lat="45.83541" lon="6.2993">
        <ele>1686</ele>
        <time>2022-01-06T08:38:51Z</time>
      </trkpt>
      <trkpt lat="45.83541" lon="6.29929">
        <ele>1686</ele>
        <time>2022-01-06T08:38:52Z</time>
      </trkpt>
      <trkpt lat="45.8354" lon="6.29928">
        <ele>1687.1</ele>
        <time>2022-01-06T08:38:53Z</time>
      </trkpt>
      <trkpt lat="45.8354" lon="6.29928">
        <ele>1687.1</ele>
        <time>2022-01-06T08:38:54Z</time>
      </trkpt>
      <trkpt lat="45.83539" lon="6.29928">
        <ele>1687.1</ele>
        <time>2022-01-06T08:38:55Z</time>
      </trkpt>
      <trkpt lat="45.83539" lon="6.29928">
        <ele>1687.1</ele>
        <time>2022-01-06T08:38:56Z</time>
      </trkpt>
      <trkpt lat="45.83538" lon="6.29928">
        <ele>1687.1</ele>
        <time>2022-01-06T08:38:57Z</time>
      </trkpt>
      <trkpt lat="45.83537" lon="6.29928">
        <ele>1687.1</ele>
        <time>2022-01-06T08:38:58Z</time>
      </trkpt>
      <trkpt lat="45.83536" lon="6.29928">
        <ele>1687.1</ele>
        <time>2022-01-06T08:38:59Z</time>
      </trkpt>
      <trkpt lat="45.83536" lon="6.29929">
        <ele>1687.1</ele>
        <time>2022-01-06T08:39:00Z</time>
      </trkpt>
      <trkpt lat="45.83535" lon="6.29929">
        <ele>1687.1</ele>
        <time>2022-01-06T08:39:01Z</time>
      </trkpt>
      <trkpt lat="45.83534" lon="6.29929">
        <ele>1687.1</ele>
        <time>2022-01-06T08:39:02Z</time>
      </trkpt>
      <trkpt lat="45.83534" lon="6.29929">
        <ele>1687.1</ele>
        <time>2022-01-06T08:39:03Z</time>
      </trkpt>
      <trkpt lat="45.83533" lon="6.29929">
        <ele>1687.1</ele>
        <time>2022-01-06T08:39:04Z</time>
      </trkpt>
      <trkpt lat="45.83533" lon="6.29929">
        <ele>1688.2</ele>
        <time>2022-01-06T08:39:05Z</time>
      </trkpt>
      <trkpt lat="45.83532" lon="6.29929">
        <ele>1688.2</ele>
        <time>2022-01-06T08:39:06Z</time>
      </trkpt>
      <trkpt lat="45.83532" lon="6.2993">
        <ele>1688.2</ele>
        <time>2022-01-06T08:39:07Z</time>
      </trkpt>
      <trkpt lat="45.83531" lon="6.29931">
        <ele>1688.2</ele>
        <time>2022-01-06T08:39:08Z</time>
      </trkpt>
      <trkpt lat="45.83531" lon="6.29931">
        <ele>1688.2</ele>
        <time>2022-01-06T08:39:09Z</time>
      </trkpt>
      <trkpt lat="45.8353" lon="6.29931">
        <ele>1688.2</ele>
        <time>2022-01-06T08:39:10Z</time>
      </trkpt>
      <trkpt lat="45.8353" lon="6.29931">
        <ele>1688.2</ele>
        <time>2022-01-06T08:39:11Z</time>
      </trkpt>
      <trkpt lat="45.8353" lon="6.29931">
        <ele>1688.2</ele>
        <time>2022-01-06T08:39:12Z</time>
      </trkpt>
      <trkpt lat="45.83529" lon="6.29931">
        <ele>1691.1</ele>
        <time>2022-01-06T08:39:13Z</time>
      </trkpt>
      <trkpt lat="45.83528" lon="6.2993">
        <ele>1691.1</ele>
        <time>2022-01-06T08:39:14Z</time>
      </trkpt>
      <trkpt lat="45.83527" lon="6.2993">
        <ele>1692.1</ele>
        <time>2022-01-06T08:39:15Z</time>
      </trkpt>
      <trkpt lat="45.83526" lon="6.29929">
        <ele>1692.1</ele>
        <time>2022-01-06T08:39:16Z</time>
      </trkpt>
      <trkpt lat="45.83526" lon="6.29928">
        <ele>1692.1</ele>
        <time>2022-01-06T08:39:17Z</time>
      </trkpt>
      <trkpt lat="45.83525" lon="6.29927">
        <ele>1692.1</ele>
        <time>2022-01-06T08:39:18Z</time>
      </trkpt>
      <trkpt lat="45.83525" lon="6.29927">
        <ele>1693</ele>
        <time>2022-01-06T08:39:19Z</time>
      </trkpt>
      <trkpt lat="45.83525" lon="6.29926">
        <ele>1693</ele>
        <time>2022-01-06T08:39:20Z</time>
      </trkpt>
      <trkpt lat="45.83524" lon="6.29926">
        <ele>1693</ele>
        <time>2022-01-06T08:39:21Z</time>
      </trkpt>
      <trkpt lat="45.83523" lon="6.29925">
        <ele>1693</ele>
        <time>2022-01-06T08:39:22Z</time>
      </trkpt>
      <trkpt lat="45.83523" lon="6.29925">
        <ele>1694.1</ele>
        <time>2022-01-06T08:39:23Z</time>
      </trkpt>
      <trkpt lat="45.83522" lon="6.29924">
        <ele>1694.1</ele>
        <time>2022-01-06T08:39:24Z</time>
      </trkpt>
      <trkpt lat="45.83522" lon="6.29924">
        <ele>1694.1</ele>
        <time>2022-01-06T08:39:25Z</time>
      </trkpt>
      <trkpt lat="45.83521" lon="6.29923">
        <ele>1694.1</ele>
        <time>2022-01-06T08:39:26Z</time>
      </trkpt>
      <trkpt lat="45.8352" lon="6.29923">
        <ele>1695</ele>
        <time>2022-01-06T08:39:27Z</time>
      </trkpt>
      <trkpt lat="45.8352" lon="6.29923">
        <ele>1695</ele>
        <time>2022-01-06T08:39:28Z</time>
      </trkpt>
      <trkpt lat="45.83519" lon="6.29923">
        <ele>1695</ele>
        <time>2022-01-06T08:39:29Z</time>
      </trkpt>
      <trkpt lat="45.83518" lon="6.29923">
        <ele>1695</ele>
        <time>2022-01-06T08:39:30Z</time>
      </trkpt>
      <trkpt lat="45.83517" lon="6.29923">
        <ele>1696.1</ele>
        <time>2022-01-06T08:39:31Z</time>
      </trkpt>
      <trkpt lat="45.83517" lon="6.29922">
        <ele>1696.1</ele>
        <time>2022-01-06T08:39:32Z</time>
      </trkpt>
      <trkpt lat="45.83516" lon="6.29922">
        <ele>1696.1</ele>
        <time>2022-01-06T08:39:33Z</time>
      </trkpt>
      <trkpt lat="45.83516" lon="6.29922">
        <ele>1696.1</ele>
        <time>2022-01-06T08:39:34Z</time>
      </trkpt>
      <trkpt lat="45.83516" lon="6.29921">
        <ele>1697.1</ele>
        <time>2022-01-06T08:39:35Z</time>
      </trkpt>
      <trkpt lat="45.83515" lon="6.29921">
        <ele>1697.1</ele>
        <time>2022-01-06T08:39:36Z</time>
      </trkpt>
      <trkpt lat="45.83515" lon="6.2992">
        <ele>1697.1</ele>
        <time>2022-01-06T08:39:37Z</time>
      </trkpt>
      <trkpt lat="45.83514" lon="6.2992">
        <ele>1697.1</ele>
        <time>2022-01-06T08:39:38Z</time>
      </trkpt>
      <trkpt lat="45.83513" lon="6.2992">
        <ele>1698.1</ele>
        <time>2022-01-06T08:39:39Z</time>
      </trkpt>
      <trkpt lat="45.83512" lon="6.29919">
        <ele>1698.1</ele>
        <time>2022-01-06T08:39:40Z</time>
      </trkpt>
      <trkpt lat="45.83512" lon="6.29919">
        <ele>1698.1</ele>
        <time>2022-01-06T08:39:41Z</time>
      </trkpt>
      <trkpt lat="45.83512" lon="6.29918">
        <ele>1698.1</ele>
        <time>2022-01-06T08:39:42Z</time>
      </trkpt>
      <trkpt lat="45.83512" lon="6.29917">
        <ele>1699.1</ele>
        <time>2022-01-06T08:39:43Z</time>
      </trkpt>
      <trkpt lat="45.83511" lon="6.29917">
        <ele>1699.1</ele>
        <time>2022-01-06T08:39:44Z</time>
      </trkpt>
      <trkpt lat="45.8351" lon="6.29917">
        <ele>1699.1</ele>
        <time>2022-01-06T08:39:45Z</time>
      </trkpt>
      <trkpt lat="45.83509" lon="6.29916">
        <ele>1699.1</ele>
        <time>2022-01-06T08:39:46Z</time>
      </trkpt>
      <trkpt lat="45.83509" lon="6.29916">
        <ele>1699.1</ele>
        <time>2022-01-06T08:39:47Z</time>
      </trkpt>
      <trkpt lat="45.83508" lon="6.29915">
        <ele>1699.1</ele>
        <time>2022-01-06T08:39:48Z</time>
      </trkpt>
      <trkpt lat="45.83507" lon="6.29915">
        <ele>1699.1</ele>
        <time>2022-01-06T08:39:49Z</time>
      </trkpt>
      <trkpt lat="45.83506" lon="6.29914">
        <ele>1699.1</ele>
        <time>2022-01-06T08:39:50Z</time>
      </trkpt>
      <trkpt lat="45.83505" lon="6.29914">
        <ele>1699.1</ele>
        <time>2022-01-06T08:39:51Z</time>
      </trkpt>
      <trkpt lat="45.83505" lon="6.29914">
        <ele>1699.1</ele>
        <time>2022-01-06T08:39:52Z</time>
      </trkpt>
      <trkpt lat="45.83504" lon="6.29913">
        <ele>1700</ele>
        <time>2022-01-06T08:39:53Z</time>
      </trkpt>
      <trkpt lat="45.83503" lon="6.29913">
        <ele>1700</ele>
        <time>2022-01-06T08:39:54Z</time>
      </trkpt>
      <trkpt lat="45.83503" lon="6.29912">
        <ele>1700</ele>
        <time>2022-01-06T08:39:55Z</time>
      </trkpt>
      <trkpt lat="45.83502" lon="6.29912">
        <ele>1700</ele>
        <time>2022-01-06T08:39:56Z</time>
      </trkpt>
      <trkpt lat="45.83501" lon="6.29911">
        <ele>1700</ele>
        <time>2022-01-06T08:39:57Z</time>
      </trkpt>
      <trkpt lat="45.83501" lon="6.2991">
        <ele>1700</ele>
        <time>2022-01-06T08:39:58Z</time>
      </trkpt>
      <trkpt lat="45.835" lon="6.2991">
        <ele>1701.1</ele>
        <time>2022-01-06T08:39:59Z</time>
      </trkpt>
      <trkpt lat="45.83499" lon="6.2991">
        <ele>1701.1</ele>
        <time>2022-01-06T08:40:00Z</time>
      </trkpt>
      <trkpt lat="45.83499" lon="6.29909">
        <ele>1701.1</ele>
        <time>2022-01-06T08:40:01Z</time>
      </trkpt>
      <trkpt lat="45.83498" lon="6.29909">
        <ele>1701.1</ele>
        <time>2022-01-06T08:40:02Z</time>
      </trkpt>
      <trkpt lat="45.83497" lon="6.29908">
        <ele>1702</ele>
        <time>2022-01-06T08:40:03Z</time>
      </trkpt>
      <trkpt lat="45.83497" lon="6.29907">
        <ele>1702</ele>
        <time>2022-01-06T08:40:04Z</time>
      </trkpt>
      <trkpt lat="45.83496" lon="6.29907">
        <ele>1702</ele>
        <time>2022-01-06T08:40:05Z</time>
      </trkpt>
      <trkpt lat="45.83496" lon="6.29906">
        <ele>1702</ele>
        <time>2022-01-06T08:40:06Z</time>
      </trkpt>
      <trkpt lat="45.83495" lon="6.29906">
        <ele>1702</ele>
        <time>2022-01-06T08:40:07Z</time>
      </trkpt>
      <trkpt lat="45.83495" lon="6.29905">
        <ele>1702</ele>
        <time>2022-01-06T08:40:08Z</time>
      </trkpt>
      <trkpt lat="45.83494" lon="6.29905">
        <ele>1703.1</ele>
        <time>2022-01-06T08:40:09Z</time>
      </trkpt>
      <trkpt lat="45.83494" lon="6.29904">
        <ele>1703.1</ele>
        <time>2022-01-06T08:40:10Z</time>
      </trkpt>
      <trkpt lat="45.83493" lon="6.29904">
        <ele>1703.1</ele>
        <time>2022-01-06T08:40:11Z</time>
      </trkpt>
      <trkpt lat="45.83493" lon="6.29903">
        <ele>1703.1</ele>
        <time>2022-01-06T08:40:12Z</time>
      </trkpt>
      <trkpt lat="45.83492" lon="6.29902">
        <ele>1704.2</ele>
        <time>2022-01-06T08:40:13Z</time>
      </trkpt>
      <trkpt lat="45.83492" lon="6.29902">
        <ele>1704.2</ele>
        <time>2022-01-06T08:40:14Z</time>
      </trkpt>
      <trkpt lat="45.83491" lon="6.29901">
        <ele>1704.2</ele>
        <time>2022-01-06T08:40:15Z</time>
      </trkpt>
      <trkpt lat="45.83491" lon="6.299">
        <ele>1704.2</ele>
        <time>2022-01-06T08:40:16Z</time>
      </trkpt>
      <trkpt lat="45.8349" lon="6.29899">
        <ele>1704.2</ele>
        <time>2022-01-06T08:40:17Z</time>
      </trkpt>
      <trkpt lat="45.8349" lon="6.29898">
        <ele>1704.2</ele>
        <time>2022-01-06T08:40:18Z</time>
      </trkpt>
      <trkpt lat="45.83489" lon="6.29898">
        <ele>1705.1</ele>
        <time>2022-01-06T08:40:19Z</time>
      </trkpt>
      <trkpt lat="45.83489" lon="6.29897">
        <ele>1705.1</ele>
        <time>2022-01-06T08:40:20Z</time>
      </trkpt>
      <trkpt lat="45.83488" lon="6.29896">
        <ele>1705.1</ele>
        <time>2022-01-06T08:40:21Z</time>
      </trkpt>
      <trkpt lat="45.83488" lon="6.29896">
        <ele>1705.1</ele>
        <time>2022-01-06T08:40:22Z</time>
      </trkpt>
      <trkpt lat="45.83487" lon="6.29895">
        <ele>1706.1</ele>
        <time>2022-01-06T08:40:23Z</time>
      </trkpt>
      <trkpt lat="45.83487" lon="6.29895">
        <ele>1706.1</ele>
        <time>2022-01-06T08:40:24Z</time>
      </trkpt>
      <trkpt lat="45.83487" lon="6.29894">
        <ele>1706.1</ele>
        <time>2022-01-06T08:40:25Z</time>
      </trkpt>
      <trkpt lat="45.83486" lon="6.29893">
        <ele>1706.1</ele>
        <time>2022-01-06T08:40:26Z</time>
      </trkpt>
      <trkpt lat="45.83485" lon="6.29893">
        <ele>1707.1</ele>
        <time>2022-01-06T08:40:27Z</time>
      </trkpt>
      <trkpt lat="45.83485" lon="6.29892">
        <ele>1707.1</ele>
        <time>2022-01-06T08:40:28Z</time>
      </trkpt>
      <trkpt lat="45.83484" lon="6.29892">
        <ele>1707.1</ele>
        <time>2022-01-06T08:40:29Z</time>
      </trkpt>
      <trkpt lat="45.83484" lon="6.29891">
        <ele>1707.1</ele>
        <time>2022-01-06T08:40:30Z</time>
      </trkpt>
      <trkpt lat="45.83483" lon="6.2989">
        <ele>1708.1</ele>
        <time>2022-01-06T08:40:31Z</time>
      </trkpt>
      <trkpt lat="45.83483" lon="6.2989">
        <ele>1708.1</ele>
        <time>2022-01-06T08:40:32Z</time>
      </trkpt>
      <trkpt lat="45.83482" lon="6.29889">
        <ele>1708.1</ele>
        <time>2022-01-06T08:40:33Z</time>
      </trkpt>
      <trkpt lat="45.83482" lon="6.29888">
        <ele>1708.1</ele>
        <time>2022-01-06T08:40:34Z</time>
      </trkpt>
      <trkpt lat="45.83481" lon="6.29887">
        <ele>1709</ele>
        <time>2022-01-06T08:40:35Z</time>
      </trkpt>
      <trkpt lat="45.83481" lon="6.29887">
        <ele>1709</ele>
        <time>2022-01-06T08:40:36Z</time>
      </trkpt>
      <trkpt lat="45.83481" lon="6.29886">
        <ele>1709</ele>
        <time>2022-01-06T08:40:37Z</time>
      </trkpt>
      <trkpt lat="45.8348" lon="6.29886">
        <ele>1709</ele>
        <time>2022-01-06T08:40:38Z</time>
      </trkpt>
      <trkpt lat="45.8348" lon="6.29885">
        <ele>1710.1</ele>
        <time>2022-01-06T08:40:39Z</time>
      </trkpt>
      <trkpt lat="45.8348" lon="6.29884">
        <ele>1710.1</ele>
        <time>2022-01-06T08:40:40Z</time>
      </trkpt>
      <trkpt lat="45.8348" lon="6.29883">
        <ele>1710.1</ele>
        <time>2022-01-06T08:40:41Z</time>
      </trkpt>
      <trkpt lat="45.8348" lon="6.29883">
        <ele>1710.1</ele>
        <time>2022-01-06T08:40:42Z</time>
      </trkpt>
      <trkpt lat="45.83479" lon="6.29883">
        <ele>1711</ele>
        <time>2022-01-06T08:40:43Z</time>
      </trkpt>
      <trkpt lat="45.83479" lon="6.29882">
        <ele>1711</ele>
        <time>2022-01-06T08:40:44Z</time>
      </trkpt>
      <trkpt lat="45.83478" lon="6.29882">
        <ele>1711</ele>
        <time>2022-01-06T08:40:45Z</time>
      </trkpt>
      <trkpt lat="45.83478" lon="6.29882">
        <ele>1711</ele>
        <time>2022-01-06T08:40:46Z</time>
      </trkpt>
      <trkpt lat="45.83478" lon="6.29881">
        <ele>1712.1</ele>
        <time>2022-01-06T08:40:47Z</time>
      </trkpt>
      <trkpt lat="45.83477" lon="6.2988">
        <ele>1712.1</ele>
        <time>2022-01-06T08:40:48Z</time>
      </trkpt>
      <trkpt lat="45.83476" lon="6.2988">
        <ele>1712.1</ele>
        <time>2022-01-06T08:40:49Z</time>
      </trkpt>
      <trkpt lat="45.83476" lon="6.29879">
        <ele>1712.1</ele>
        <time>2022-01-06T08:40:50Z</time>
      </trkpt>
      <trkpt lat="45.83476" lon="6.29879">
        <ele>1712.1</ele>
        <time>2022-01-06T08:40:51Z</time>
      </trkpt>
      <trkpt lat="45.83476" lon="6.29879">
        <ele>1712.1</ele>
        <time>2022-01-06T08:40:52Z</time>
      </trkpt>
      <trkpt lat="45.83475" lon="6.29878">
        <ele>1713.1</ele>
        <time>2022-01-06T08:40:53Z</time>
      </trkpt>
      <trkpt lat="45.83474" lon="6.29877">
        <ele>1713.1</ele>
        <time>2022-01-06T08:40:54Z</time>
      </trkpt>
      <trkpt lat="45.83473" lon="6.29876">
        <ele>1713.1</ele>
        <time>2022-01-06T08:40:55Z</time>
      </trkpt>
      <trkpt lat="45.83472" lon="6.29876">
        <ele>1713.1</ele>
        <time>2022-01-06T08:40:56Z</time>
      </trkpt>
      <trkpt lat="45.83471" lon="6.29875">
        <ele>1714.1</ele>
        <time>2022-01-06T08:40:57Z</time>
      </trkpt>
      <trkpt lat="45.83471" lon="6.29874">
        <ele>1714.1</ele>
        <time>2022-01-06T08:40:58Z</time>
      </trkpt>
      <trkpt lat="45.83471" lon="6.29874">
        <ele>1714.1</ele>
        <time>2022-01-06T08:40:59Z</time>
      </trkpt>
      <trkpt lat="45.83472" lon="6.29874">
        <ele>1714.1</ele>
        <time>2022-01-06T08:41:00Z</time>
      </trkpt>
      <trkpt lat="45.83472" lon="6.29873">
        <ele>1715.1</ele>
        <time>2022-01-06T08:41:01Z</time>
      </trkpt>
      <trkpt lat="45.83472" lon="6.29872">
        <ele>1715.1</ele>
        <time>2022-01-06T08:41:02Z</time>
      </trkpt>
      <trkpt lat="45.83473" lon="6.29872">
        <ele>1715.1</ele>
        <time>2022-01-06T08:41:03Z</time>
      </trkpt>
      <trkpt lat="45.83473" lon="6.29871">
        <ele>1715.1</ele>
        <time>2022-01-06T08:41:04Z</time>
      </trkpt>
      <trkpt lat="45.83474" lon="6.29871">
        <ele>1716</ele>
        <time>2022-01-06T08:41:05Z</time>
      </trkpt>
      <trkpt lat="45.83474" lon="6.2987">
        <ele>1716</ele>
        <time>2022-01-06T08:41:06Z</time>
      </trkpt>
      <trkpt lat="45.83474" lon="6.29869">
        <ele>1717.1</ele>
        <time>2022-01-06T08:41:07Z</time>
      </trkpt>
      <trkpt lat="45.83475" lon="6.29869">
        <ele>1717.1</ele>
        <time>2022-01-06T08:41:08Z</time>
      </trkpt>
      <trkpt lat="45.83475" lon="6.29868">
        <ele>1717.1</ele>
        <time>2022-01-06T08:41:09Z</time>
      </trkpt>
      <trkpt lat="45.83476" lon="6.29868">
        <ele>1717.1</ele>
        <time>2022-01-06T08:41:10Z</time>
      </trkpt>
      <trkpt lat="45.83476" lon="6.29868">
        <ele>1718</ele>
        <time>2022-01-06T08:41:11Z</time>
      </trkpt>
      <trkpt lat="45.83476" lon="6.29868">
        <ele>1718</ele>
        <time>2022-01-06T08:41:12Z</time>
      </trkpt>
      <trkpt lat="45.83476" lon="6.29868">
        <ele>1718</ele>
        <time>2022-01-06T08:41:13Z</time>
      </trkpt>
      <trkpt lat="45.83476" lon="6.29867">
        <ele>1718</ele>
        <time>2022-01-06T08:41:14Z</time>
      </trkpt>
      <trkpt lat="45.83476" lon="6.29867">
        <ele>1718</ele>
        <time>2022-01-06T08:41:15Z</time>
      </trkpt>
      <trkpt lat="45.83476" lon="6.29867">
        <ele>1718</ele>
        <time>2022-01-06T08:41:16Z</time>
      </trkpt>
      <trkpt lat="45.83475" lon="6.29866">
        <ele>1719.1</ele>
        <time>2022-01-06T08:41:17Z</time>
      </trkpt>
      <trkpt lat="45.83474" lon="6.29866">
        <ele>1719.1</ele>
        <time>2022-01-06T08:41:18Z</time>
      </trkpt>
      <trkpt lat="45.83474" lon="6.29866">
        <ele>1719.1</ele>
        <time>2022-01-06T08:41:19Z</time>
      </trkpt>
      <trkpt lat="45.83474" lon="6.29865">
        <ele>1719.1</ele>
        <time>2022-01-06T08:41:20Z</time>
      </trkpt>
      <trkpt lat="45.83473" lon="6.29865">
        <ele>1720.2</ele>
        <time>2022-01-06T08:41:21Z</time>
      </trkpt>
      <trkpt lat="45.83473" lon="6.29864">
        <ele>1720.2</ele>
        <time>2022-01-06T08:41:22Z</time>
      </trkpt>
      <trkpt lat="45.83473" lon="6.29864">
        <ele>1720.2</ele>
        <time>2022-01-06T08:41:23Z</time>
      </trkpt>
      <trkpt lat="45.83474" lon="6.29863">
        <ele>1720.2</ele>
        <time>2022-01-06T08:41:24Z</time>
      </trkpt>
      <trkpt lat="45.83474" lon="6.29862">
        <ele>1720.2</ele>
        <time>2022-01-06T08:41:25Z</time>
      </trkpt>
      <trkpt lat="45.83474" lon="6.29862">
        <ele>1720.2</ele>
        <time>2022-01-06T08:41:26Z</time>
      </trkpt>
      <trkpt lat="45.83475" lon="6.29862">
        <ele>1720.2</ele>
        <time>2022-01-06T08:41:27Z</time>
      </trkpt>
      <trkpt lat="45.83475" lon="6.29861">
        <ele>1720.2</ele>
        <time>2022-01-06T08:41:28Z</time>
      </trkpt>
      <trkpt lat="45.83475" lon="6.29861">
        <ele>1720.2</ele>
        <time>2022-01-06T08:41:29Z</time>
      </trkpt>
      <trkpt lat="45.83476" lon="6.2986">
        <ele>1720.2</ele>
        <time>2022-01-06T08:41:30Z</time>
      </trkpt>
      <trkpt lat="45.83476" lon="6.2986">
        <ele>1720.2</ele>
        <time>2022-01-06T08:41:31Z</time>
      </trkpt>
      <trkpt lat="45.83477" lon="6.2986">
        <ele>1720.2</ele>
        <time>2022-01-06T08:41:32Z</time>
      </trkpt>
      <trkpt lat="45.83478" lon="6.2986">
        <ele>1720.2</ele>
        <time>2022-01-06T08:41:33Z</time>
      </trkpt>
      <trkpt lat="45.83478" lon="6.2986">
        <ele>1720.2</ele>
        <time>2022-01-06T08:41:34Z</time>
      </trkpt>
      <trkpt lat="45.83479" lon="6.2986">
        <ele>1722.1</ele>
        <time>2022-01-06T08:41:35Z</time>
      </trkpt>
      <trkpt lat="45.83479" lon="6.29861">
        <ele>1722.1</ele>
        <time>2022-01-06T08:41:36Z</time>
      </trkpt>
      <trkpt lat="45.83479" lon="6.2986">
        <ele>1722.1</ele>
        <time>2022-01-06T08:41:37Z</time>
      </trkpt>
      <trkpt lat="45.83479" lon="6.2986">
        <ele>1722.1</ele>
        <time>2022-01-06T08:41:38Z</time>
      </trkpt>
      <trkpt lat="45.83479" lon="6.29859">
        <ele>1723.1</ele>
        <time>2022-01-06T08:41:39Z</time>
      </trkpt>
      <trkpt lat="45.83479" lon="6.29859">
        <ele>1723.1</ele>
        <time>2022-01-06T08:41:40Z</time>
      </trkpt>
      <trkpt lat="45.83478" lon="6.29858">
        <ele>1723.1</ele>
        <time>2022-01-06T08:41:41Z</time>
      </trkpt>
      <trkpt lat="45.83478" lon="6.29857">
        <ele>1723.1</ele>
        <time>2022-01-06T08:41:42Z</time>
      </trkpt>
      <trkpt lat="45.83478" lon="6.29857">
        <ele>1723.1</ele>
        <time>2022-01-06T08:41:43Z</time>
      </trkpt>
      <trkpt lat="45.83479" lon="6.29857">
        <ele>1723.1</ele>
        <time>2022-01-06T08:41:44Z</time>
      </trkpt>
      <trkpt lat="45.83479" lon="6.29857">
        <ele>1724.1</ele>
        <time>2022-01-06T08:41:45Z</time>
      </trkpt>
      <trkpt lat="45.8348" lon="6.29856">
        <ele>1724.1</ele>
        <time>2022-01-06T08:41:46Z</time>
      </trkpt>
      <trkpt lat="45.8348" lon="6.29857">
        <ele>1724.1</ele>
        <time>2022-01-06T08:41:47Z</time>
      </trkpt>
      <trkpt lat="45.83481" lon="6.29857">
        <ele>1724.1</ele>
        <time>2022-01-06T08:41:48Z</time>
      </trkpt>
      <trkpt lat="45.83481" lon="6.29857">
        <ele>1725</ele>
        <time>2022-01-06T08:41:49Z</time>
      </trkpt>
      <trkpt lat="45.83482" lon="6.29857">
        <ele>1725</ele>
        <time>2022-01-06T08:41:50Z</time>
      </trkpt>
      <trkpt lat="45.83482" lon="6.29857">
        <ele>1725</ele>
        <time>2022-01-06T08:41:51Z</time>
      </trkpt>
      <trkpt lat="45.83483" lon="6.29857">
        <ele>1725</ele>
        <time>2022-01-06T08:41:52Z</time>
      </trkpt>
      <trkpt lat="45.83483" lon="6.29857">
        <ele>1726.1</ele>
        <time>2022-01-06T08:41:53Z</time>
      </trkpt>
      <trkpt lat="45.83484" lon="6.29857">
        <ele>1726.1</ele>
        <time>2022-01-06T08:41:54Z</time>
      </trkpt>
      <trkpt lat="45.83484" lon="6.29857">
        <ele>1726.1</ele>
        <time>2022-01-06T08:41:55Z</time>
      </trkpt>
      <trkpt lat="45.83485" lon="6.29857">
        <ele>1726.1</ele>
        <time>2022-01-06T08:41:56Z</time>
      </trkpt>
      <trkpt lat="45.83486" lon="6.29857">
        <ele>1727</ele>
        <time>2022-01-06T08:41:57Z</time>
      </trkpt>
      <trkpt lat="45.83486" lon="6.29857">
        <ele>1727</ele>
        <time>2022-01-06T08:41:58Z</time>
      </trkpt>
      <trkpt lat="45.83486" lon="6.29856">
        <ele>1727</ele>
        <time>2022-01-06T08:41:59Z</time>
      </trkpt>
      <trkpt lat="45.83487" lon="6.29856">
        <ele>1727</ele>
        <time>2022-01-06T08:42:00Z</time>
      </trkpt>
      <trkpt lat="45.83488" lon="6.29856">
        <ele>1728.1</ele>
        <time>2022-01-06T08:42:01Z</time>
      </trkpt>
      <trkpt lat="45.83488" lon="6.29855">
        <ele>1728.1</ele>
        <time>2022-01-06T08:42:02Z</time>
      </trkpt>
      <trkpt lat="45.83489" lon="6.29855">
        <ele>1729.2</ele>
        <time>2022-01-06T08:42:03Z</time>
      </trkpt>
      <trkpt lat="45.83489" lon="6.29854">
        <ele>1729.2</ele>
        <time>2022-01-06T08:42:04Z</time>
      </trkpt>
      <trkpt lat="45.83489" lon="6.29854">
        <ele>1729.2</ele>
        <time>2022-01-06T08:42:05Z</time>
      </trkpt>
      <trkpt lat="45.83489" lon="6.29853">
        <ele>1729.2</ele>
        <time>2022-01-06T08:42:06Z</time>
      </trkpt>
      <trkpt lat="45.83489" lon="6.29852">
        <ele>1729.2</ele>
        <time>2022-01-06T08:42:07Z</time>
      </trkpt>
      <trkpt lat="45.83489" lon="6.29852">
        <ele>1729.2</ele>
        <time>2022-01-06T08:42:08Z</time>
      </trkpt>
      <trkpt lat="45.83489" lon="6.29852">
        <ele>1729.2</ele>
        <time>2022-01-06T08:42:09Z</time>
      </trkpt>
      <trkpt lat="45.83489" lon="6.29851">
        <ele>1729.2</ele>
        <time>2022-01-06T08:42:10Z</time>
      </trkpt>
      <trkpt lat="45.83489" lon="6.29851">
        <ele>1730.1</ele>
        <time>2022-01-06T08:42:11Z</time>
      </trkpt>
      <trkpt lat="45.83489" lon="6.29851">
        <ele>1730.1</ele>
        <time>2022-01-06T08:42:12Z</time>
      </trkpt>
      <trkpt lat="45.8349" lon="6.29851">
        <ele>1730.1</ele>
        <time>2022-01-06T08:42:13Z</time>
      </trkpt>
      <trkpt lat="45.83489" lon="6.2985">
        <ele>1730.1</ele>
        <time>2022-01-06T08:42:14Z</time>
      </trkpt>
      <trkpt lat="45.83489" lon="6.29851">
        <ele>1730.1</ele>
        <time>2022-01-06T08:42:15Z</time>
      </trkpt>
      <trkpt lat="45.83489" lon="6.2985">
        <ele>1730.1</ele>
        <time>2022-01-06T08:42:16Z</time>
      </trkpt>
      <trkpt lat="45.83489" lon="6.2985">
        <ele>1730.1</ele>
        <time>2022-01-06T08:42:17Z</time>
      </trkpt>
      <trkpt lat="45.83489" lon="6.2985">
        <ele>1730.1</ele>
        <time>2022-01-06T08:42:18Z</time>
      </trkpt>
      <trkpt lat="45.83489" lon="6.2985">
        <ele>1730.1</ele>
        <time>2022-01-06T08:42:19Z</time>
      </trkpt>
      <trkpt lat="45.83489" lon="6.29849">
        <ele>1730.1</ele>
        <time>2022-01-06T08:42:20Z</time>
      </trkpt>
      <trkpt lat="45.83488" lon="6.29848">
        <ele>1731.1</ele>
        <time>2022-01-06T08:42:21Z</time>
      </trkpt>
      <trkpt lat="45.83488" lon="6.29847">
        <ele>1731.1</ele>
        <time>2022-01-06T08:42:22Z</time>
      </trkpt>
      <trkpt lat="45.83488" lon="6.29846">
        <ele>1731.1</ele>
        <time>2022-01-06T08:42:23Z</time>
      </trkpt>
      <trkpt lat="45.83488" lon="6.29845">
        <ele>1731.1</ele>
        <time>2022-01-06T08:42:24Z</time>
      </trkpt>
      <trkpt lat="45.83488" lon="6.29844">
        <ele>1731.1</ele>
        <time>2022-01-06T08:42:25Z</time>
      </trkpt>
      <trkpt lat="45.83488" lon="6.29843">
        <ele>1731.1</ele>
        <time>2022-01-06T08:42:26Z</time>
      </trkpt>
      <trkpt lat="45.83488" lon="6.29842">
        <ele>1731.1</ele>
        <time>2022-01-06T08:42:27Z</time>
      </trkpt>
      <trkpt lat="45.83489" lon="6.29841">
        <ele>1731.1</ele>
        <time>2022-01-06T08:42:28Z</time>
      </trkpt>
      <trkpt lat="45.83489" lon="6.2984">
        <ele>1732</ele>
        <time>2022-01-06T08:42:29Z</time>
      </trkpt>
      <trkpt lat="45.83489" lon="6.29838">
        <ele>1732</ele>
        <time>2022-01-06T08:42:30Z</time>
      </trkpt>
      <trkpt lat="45.83489" lon="6.29838">
        <ele>1732</ele>
        <time>2022-01-06T08:42:31Z</time>
      </trkpt>
      <trkpt lat="45.83489" lon="6.29837">
        <ele>1732</ele>
        <time>2022-01-06T08:42:32Z</time>
      </trkpt>
      <trkpt lat="45.8349" lon="6.29836">
        <ele>1733.1</ele>
        <time>2022-01-06T08:42:33Z</time>
      </trkpt>
      <trkpt lat="45.8349" lon="6.29835">
        <ele>1733.1</ele>
        <time>2022-01-06T08:42:34Z</time>
      </trkpt>
      <trkpt lat="45.8349" lon="6.29834">
        <ele>1734</ele>
        <time>2022-01-06T08:42:35Z</time>
      </trkpt>
      <trkpt lat="45.8349" lon="6.29834">
        <ele>1734</ele>
        <time>2022-01-06T08:42:36Z</time>
      </trkpt>
      <trkpt lat="45.8349" lon="6.29833">
        <ele>1735.1</ele>
        <time>2022-01-06T08:42:37Z</time>
      </trkpt>
      <trkpt lat="45.8349" lon="6.29832">
        <ele>1735.1</ele>
        <time>2022-01-06T08:42:38Z</time>
      </trkpt>
      <trkpt lat="45.83489" lon="6.29831">
        <ele>1735.1</ele>
        <time>2022-01-06T08:42:39Z</time>
      </trkpt>
      <trkpt lat="45.83489" lon="6.29831">
        <ele>1735.1</ele>
        <time>2022-01-06T08:42:40Z</time>
      </trkpt>
      <trkpt lat="45.83489" lon="6.2983">
        <ele>1735.1</ele>
        <time>2022-01-06T08:42:41Z</time>
      </trkpt>
      <trkpt lat="45.83488" lon="6.2983">
        <ele>1735.1</ele>
        <time>2022-01-06T08:42:42Z</time>
      </trkpt>
      <trkpt lat="45.83488" lon="6.29829">
        <ele>1736.2</ele>
        <time>2022-01-06T08:42:43Z</time>
      </trkpt>
      <trkpt lat="45.83487" lon="6.29829">
        <ele>1736.2</ele>
        <time>2022-01-06T08:42:44Z</time>
      </trkpt>
      <trkpt lat="45.83486" lon="6.29828">
        <ele>1736.2</ele>
        <time>2022-01-06T08:42:45Z</time>
      </trkpt>
      <trkpt lat="45.83486" lon="6.29828">
        <ele>1736.2</ele>
        <time>2022-01-06T08:42:46Z</time>
      </trkpt>
      <trkpt lat="45.83486" lon="6.29828">
        <ele>1737.1</ele>
        <time>2022-01-06T08:42:47Z</time>
      </trkpt>
      <trkpt lat="45.83485" lon="6.29827">
        <ele>1737.1</ele>
        <time>2022-01-06T08:42:48Z</time>
      </trkpt>
      <trkpt lat="45.83485" lon="6.29827">
        <ele>1737.1</ele>
        <time>2022-01-06T08:42:49Z</time>
      </trkpt>
      <trkpt lat="45.83484" lon="6.29827">
        <ele>1737.1</ele>
        <time>2022-01-06T08:42:50Z</time>
      </trkpt>
      <trkpt lat="45.83483" lon="6.29826">
        <ele>1738.1</ele>
        <time>2022-01-06T08:42:51Z</time>
      </trkpt>
      <trkpt lat="45.83483" lon="6.29825">
        <ele>1738.1</ele>
        <time>2022-01-06T08:42:52Z</time>
      </trkpt>
      <trkpt lat="45.83482" lon="6.29824">
        <ele>1738.1</ele>
        <time>2022-01-06T08:42:53Z</time>
      </trkpt>
      <trkpt lat="45.83481" lon="6.29824">
        <ele>1738.1</ele>
        <time>2022-01-06T08:42:54Z</time>
      </trkpt>
      <trkpt lat="45.8348" lon="6.29823">
        <ele>1739.1</ele>
        <time>2022-01-06T08:42:55Z</time>
      </trkpt>
      <trkpt lat="45.83479" lon="6.29822">
        <ele>1739.1</ele>
        <time>2022-01-06T08:42:56Z</time>
      </trkpt>
      <trkpt lat="45.83479" lon="6.29821">
        <ele>1739.1</ele>
        <time>2022-01-06T08:42:57Z</time>
      </trkpt>
      <trkpt lat="45.83479" lon="6.2982">
        <ele>1739.1</ele>
        <time>2022-01-06T08:42:58Z</time>
      </trkpt>
      <trkpt lat="45.83478" lon="6.2982">
        <ele>1740.1</ele>
        <time>2022-01-06T08:42:59Z</time>
      </trkpt>
      <trkpt lat="45.83477" lon="6.29819">
        <ele>1740.1</ele>
        <time>2022-01-06T08:43:00Z</time>
      </trkpt>
      <trkpt lat="45.83477" lon="6.29818">
        <ele>1740.1</ele>
        <time>2022-01-06T08:43:01Z</time>
      </trkpt>
      <trkpt lat="45.83476" lon="6.29817">
        <ele>1740.1</ele>
        <time>2022-01-06T08:43:02Z</time>
      </trkpt>
      <trkpt lat="45.83476" lon="6.29817">
        <ele>1740.1</ele>
        <time>2022-01-06T08:43:03Z</time>
      </trkpt>
      <trkpt lat="45.83475" lon="6.29816">
        <ele>1740.1</ele>
        <time>2022-01-06T08:43:04Z</time>
      </trkpt>
      <trkpt lat="45.83475" lon="6.29816">
        <ele>1740.1</ele>
        <time>2022-01-06T08:43:05Z</time>
      </trkpt>
      <trkpt lat="45.83475" lon="6.29816">
        <ele>1740.1</ele>
        <time>2022-01-06T08:43:06Z</time>
      </trkpt>
      <trkpt lat="45.83476" lon="6.29815">
        <ele>1740.1</ele>
        <time>2022-01-06T08:43:07Z</time>
      </trkpt>
      <trkpt lat="45.83476" lon="6.29815">
        <ele>1740.1</ele>
        <time>2022-01-06T08:43:08Z</time>
      </trkpt>
      <trkpt lat="45.83477" lon="6.29814">
        <ele>1740.1</ele>
        <time>2022-01-06T08:43:09Z</time>
      </trkpt>
      <trkpt lat="45.83478" lon="6.29813">
        <ele>1740.1</ele>
        <time>2022-01-06T08:43:10Z</time>
      </trkpt>
      <trkpt lat="45.83478" lon="6.29813">
        <ele>1743</ele>
        <time>2022-01-06T08:43:11Z</time>
      </trkpt>
      <trkpt lat="45.83478" lon="6.29812">
        <ele>1743</ele>
        <time>2022-01-06T08:43:12Z</time>
      </trkpt>
      <trkpt lat="45.83479" lon="6.29811">
        <ele>1743</ele>
        <time>2022-01-06T08:43:13Z</time>
      </trkpt>
      <trkpt lat="45.83479" lon="6.29811">
        <ele>1743</ele>
        <time>2022-01-06T08:43:14Z</time>
      </trkpt>
      <trkpt lat="45.8348" lon="6.2981">
        <ele>1743</ele>
        <time>2022-01-06T08:43:15Z</time>
      </trkpt>
      <trkpt lat="45.8348" lon="6.2981">
        <ele>1743</ele>
        <time>2022-01-06T08:43:16Z</time>
      </trkpt>
      <trkpt lat="45.83481" lon="6.29809">
        <ele>1744.1</ele>
        <time>2022-01-06T08:43:17Z</time>
      </trkpt>
      <trkpt lat="45.83481" lon="6.29809">
        <ele>1744.1</ele>
        <time>2022-01-06T08:43:18Z</time>
      </trkpt>
      <trkpt lat="45.83482" lon="6.29808">
        <ele>1744.1</ele>
        <time>2022-01-06T08:43:19Z</time>
      </trkpt>
      <trkpt lat="45.83482" lon="6.29807">
        <ele>1744.1</ele>
        <time>2022-01-06T08:43:20Z</time>
      </trkpt>
      <trkpt lat="45.83483" lon="6.29807">
        <ele>1745.2</ele>
        <time>2022-01-06T08:43:21Z</time>
      </trkpt>
      <trkpt lat="45.83483" lon="6.29806">
        <ele>1745.2</ele>
        <time>2022-01-06T08:43:22Z</time>
      </trkpt>
      <trkpt lat="45.83483" lon="6.29806">
        <ele>1745.2</ele>
        <time>2022-01-06T08:43:23Z</time>
      </trkpt>
      <trkpt lat="45.83484" lon="6.29806">
        <ele>1745.2</ele>
        <time>2022-01-06T08:43:24Z</time>
      </trkpt>
      <trkpt lat="45.83484" lon="6.29805">
        <ele>1746.1</ele>
        <time>2022-01-06T08:43:25Z</time>
      </trkpt>
      <trkpt lat="45.83485" lon="6.29804">
        <ele>1746.1</ele>
        <time>2022-01-06T08:43:26Z</time>
      </trkpt>
      <trkpt lat="45.83486" lon="6.29804">
        <ele>1746.1</ele>
        <time>2022-01-06T08:43:27Z</time>
      </trkpt>
      <trkpt lat="45.83486" lon="6.29803">
        <ele>1746.1</ele>
        <time>2022-01-06T08:43:28Z</time>
      </trkpt>
      <trkpt lat="45.83486" lon="6.29803">
        <ele>1747.1</ele>
        <time>2022-01-06T08:43:29Z</time>
      </trkpt>
      <trkpt lat="45.83487" lon="6.29802">
        <ele>1747.1</ele>
        <time>2022-01-06T08:43:30Z</time>
      </trkpt>
      <trkpt lat="45.83488" lon="6.29801">
        <ele>1747.1</ele>
        <time>2022-01-06T08:43:31Z</time>
      </trkpt>
      <trkpt lat="45.83488" lon="6.29801">
        <ele>1747.1</ele>
        <time>2022-01-06T08:43:32Z</time>
      </trkpt>
      <trkpt lat="45.83489" lon="6.29801">
        <ele>1748</ele>
        <time>2022-01-06T08:43:33Z</time>
      </trkpt>
      <trkpt lat="45.8349" lon="6.29801">
        <ele>1748</ele>
        <time>2022-01-06T08:43:34Z</time>
      </trkpt>
      <trkpt lat="45.8349" lon="6.298">
        <ele>1748</ele>
        <time>2022-01-06T08:43:35Z</time>
      </trkpt>
      <trkpt lat="45.8349" lon="6.298">
        <ele>1748</ele>
        <time>2022-01-06T08:43:36Z</time>
      </trkpt>
      <trkpt lat="45.83491" lon="6.29799">
        <ele>1748</ele>
        <time>2022-01-06T08:43:37Z</time>
      </trkpt>
      <trkpt lat="45.83491" lon="6.29799">
        <ele>1748</ele>
        <time>2022-01-06T08:43:38Z</time>
      </trkpt>
      <trkpt lat="45.83492" lon="6.29798">
        <ele>1749.1</ele>
        <time>2022-01-06T08:43:39Z</time>
      </trkpt>
      <trkpt lat="45.83492" lon="6.29797">
        <ele>1749.1</ele>
        <time>2022-01-06T08:43:40Z</time>
      </trkpt>
      <trkpt lat="45.83493" lon="6.29796">
        <ele>1749.1</ele>
        <time>2022-01-06T08:43:41Z</time>
      </trkpt>
      <trkpt lat="45.83493" lon="6.29796">
        <ele>1749.1</ele>
        <time>2022-01-06T08:43:42Z</time>
      </trkpt>
      <trkpt lat="45.83493" lon="6.29795">
        <ele>1749.1</ele>
        <time>2022-01-06T08:43:43Z</time>
      </trkpt>
      <trkpt lat="45.83494" lon="6.29794">
        <ele>1749.1</ele>
        <time>2022-01-06T08:43:44Z</time>
      </trkpt>
      <trkpt lat="45.83495" lon="6.29793">
        <ele>1750</ele>
        <time>2022-01-06T08:43:45Z</time>
      </trkpt>
      <trkpt lat="45.83495" lon="6.29793">
        <ele>1750</ele>
        <time>2022-01-06T08:43:46Z</time>
      </trkpt>
      <trkpt lat="45.83495" lon="6.29792">
        <ele>1750</ele>
        <time>2022-01-06T08:43:47Z</time>
      </trkpt>
      <trkpt lat="45.83496" lon="6.29792">
        <ele>1750</ele>
        <time>2022-01-06T08:43:48Z</time>
      </trkpt>
      <trkpt lat="45.83497" lon="6.29792">
        <ele>1751.1</ele>
        <time>2022-01-06T08:43:49Z</time>
      </trkpt>
      <trkpt lat="45.83498" lon="6.29792">
        <ele>1751.1</ele>
        <time>2022-01-06T08:43:50Z</time>
      </trkpt>
      <trkpt lat="45.83498" lon="6.29792">
        <ele>1751.1</ele>
        <time>2022-01-06T08:43:51Z</time>
      </trkpt>
      <trkpt lat="45.83499" lon="6.29792">
        <ele>1751.1</ele>
        <time>2022-01-06T08:43:52Z</time>
      </trkpt>
      <trkpt lat="45.835" lon="6.29791">
        <ele>1752.2</ele>
        <time>2022-01-06T08:43:53Z</time>
      </trkpt>
      <trkpt lat="45.835" lon="6.2979">
        <ele>1752.2</ele>
        <time>2022-01-06T08:43:54Z</time>
      </trkpt>
      <trkpt lat="45.83501" lon="6.29789">
        <ele>1752.2</ele>
        <time>2022-01-06T08:43:55Z</time>
      </trkpt>
      <trkpt lat="45.83501" lon="6.29789">
        <ele>1752.2</ele>
        <time>2022-01-06T08:43:56Z</time>
      </trkpt>
      <trkpt lat="45.83502" lon="6.29788">
        <ele>1753.1</ele>
        <time>2022-01-06T08:43:57Z</time>
      </trkpt>
      <trkpt lat="45.83503" lon="6.29787">
        <ele>1753.1</ele>
        <time>2022-01-06T08:43:58Z</time>
      </trkpt>
      <trkpt lat="45.83504" lon="6.29787">
        <ele>1753.1</ele>
        <time>2022-01-06T08:43:59Z</time>
      </trkpt>
      <trkpt lat="45.83504" lon="6.29786">
        <ele>1753.1</ele>
        <time>2022-01-06T08:44:00Z</time>
      </trkpt>
      <trkpt lat="45.83505" lon="6.29786">
        <ele>1753.1</ele>
        <time>2022-01-06T08:44:01Z</time>
      </trkpt>
      <trkpt lat="45.83505" lon="6.29785">
        <ele>1753.1</ele>
        <time>2022-01-06T08:44:02Z</time>
      </trkpt>
      <trkpt lat="45.83505" lon="6.29784">
        <ele>1753.1</ele>
        <time>2022-01-06T08:44:03Z</time>
      </trkpt>
      <trkpt lat="45.83506" lon="6.29784">
        <ele>1753.1</ele>
        <time>2022-01-06T08:44:04Z</time>
      </trkpt>
      <trkpt lat="45.83506" lon="6.29783">
        <ele>1754.1</ele>
        <time>2022-01-06T08:44:05Z</time>
      </trkpt>
      <trkpt lat="45.83506" lon="6.29782">
        <ele>1754.1</ele>
        <time>2022-01-06T08:44:06Z</time>
      </trkpt>
      <trkpt lat="45.83506" lon="6.29781">
        <ele>1754.1</ele>
        <time>2022-01-06T08:44:07Z</time>
      </trkpt>
      <trkpt lat="45.83506" lon="6.2978">
        <ele>1754.1</ele>
        <time>2022-01-06T08:44:08Z</time>
      </trkpt>
      <trkpt lat="45.83506" lon="6.2978">
        <ele>1755.1</ele>
        <time>2022-01-06T08:44:09Z</time>
      </trkpt>
      <trkpt lat="45.83506" lon="6.29779">
        <ele>1755.1</ele>
        <time>2022-01-06T08:44:10Z</time>
      </trkpt>
      <trkpt lat="45.83505" lon="6.29778">
        <ele>1755.1</ele>
        <time>2022-01-06T08:44:11Z</time>
      </trkpt>
      <trkpt lat="45.83505" lon="6.29777">
        <ele>1755.1</ele>
        <time>2022-01-06T08:44:12Z</time>
      </trkpt>
      <trkpt lat="45.83504" lon="6.29777">
        <ele>1756.1</ele>
        <time>2022-01-06T08:44:13Z</time>
      </trkpt>
      <trkpt lat="45.83504" lon="6.29776">
        <ele>1756.1</ele>
        <time>2022-01-06T08:44:14Z</time>
      </trkpt>
      <trkpt lat="45.83504" lon="6.29775">
        <ele>1756.1</ele>
        <time>2022-01-06T08:44:15Z</time>
      </trkpt>
      <trkpt lat="45.83503" lon="6.29775">
        <ele>1756.1</ele>
        <time>2022-01-06T08:44:16Z</time>
      </trkpt>
      <trkpt lat="45.83503" lon="6.29774">
        <ele>1757</ele>
        <time>2022-01-06T08:44:17Z</time>
      </trkpt>
      <trkpt lat="45.83502" lon="6.29774">
        <ele>1757</ele>
        <time>2022-01-06T08:44:18Z</time>
      </trkpt>
      <trkpt lat="45.83501" lon="6.29773">
        <ele>1757</ele>
        <time>2022-01-06T08:44:19Z</time>
      </trkpt>
      <trkpt lat="45.83501" lon="6.29773">
        <ele>1757</ele>
        <time>2022-01-06T08:44:20Z</time>
      </trkpt>
      <trkpt lat="45.835" lon="6.29772">
        <ele>1758.1</ele>
        <time>2022-01-06T08:44:21Z</time>
      </trkpt>
      <trkpt lat="45.835" lon="6.29772">
        <ele>1758.1</ele>
        <time>2022-01-06T08:44:22Z</time>
      </trkpt>
      <trkpt lat="45.83499" lon="6.29771">
        <ele>1758.1</ele>
        <time>2022-01-06T08:44:23Z</time>
      </trkpt>
      <trkpt lat="45.83499" lon="6.2977">
        <ele>1758.1</ele>
        <time>2022-01-06T08:44:24Z</time>
      </trkpt>
      <trkpt lat="45.83498" lon="6.2977">
        <ele>1758.1</ele>
        <time>2022-01-06T08:44:25Z</time>
      </trkpt>
      <trkpt lat="45.83497" lon="6.2977">
        <ele>1758.1</ele>
        <time>2022-01-06T08:44:26Z</time>
      </trkpt>
      <trkpt lat="45.83497" lon="6.2977">
        <ele>1758.1</ele>
        <time>2022-01-06T08:44:27Z</time>
      </trkpt>
      <trkpt lat="45.83496" lon="6.29769">
        <ele>1758.1</ele>
        <time>2022-01-06T08:44:28Z</time>
      </trkpt>
      <trkpt lat="45.83496" lon="6.29768">
        <ele>1759</ele>
        <time>2022-01-06T08:44:29Z</time>
      </trkpt>
      <trkpt lat="45.83495" lon="6.29768">
        <ele>1759</ele>
        <time>2022-01-06T08:44:30Z</time>
      </trkpt>
      <trkpt lat="45.83494" lon="6.29768">
        <ele>1759</ele>
        <time>2022-01-06T08:44:31Z</time>
      </trkpt>
      <trkpt lat="45.83493" lon="6.29767">
        <ele>1759</ele>
        <time>2022-01-06T08:44:32Z</time>
      </trkpt>
      <trkpt lat="45.83493" lon="6.29767">
        <ele>1760.1</ele>
        <time>2022-01-06T08:44:33Z</time>
      </trkpt>
      <trkpt lat="45.83492" lon="6.29767">
        <ele>1760.1</ele>
        <time>2022-01-06T08:44:34Z</time>
      </trkpt>
      <trkpt lat="45.83491" lon="6.29767">
        <ele>1760.1</ele>
        <time>2022-01-06T08:44:35Z</time>
      </trkpt>
      <trkpt lat="45.8349" lon="6.29766">
        <ele>1760.1</ele>
        <time>2022-01-06T08:44:36Z</time>
      </trkpt>
      <trkpt lat="45.83489" lon="6.29766">
        <ele>1760.1</ele>
        <time>2022-01-06T08:44:37Z</time>
      </trkpt>
      <trkpt lat="45.83488" lon="6.29766">
        <ele>1760.1</ele>
        <time>2022-01-06T08:44:38Z</time>
      </trkpt>
      <trkpt lat="45.83487" lon="6.29766">
        <ele>1761.2</ele>
        <time>2022-01-06T08:44:39Z</time>
      </trkpt>
      <trkpt lat="45.83486" lon="6.29766">
        <ele>1761.2</ele>
        <time>2022-01-06T08:44:40Z</time>
      </trkpt>
      <trkpt lat="45.83485" lon="6.29766">
        <ele>1761.2</ele>
        <time>2022-01-06T08:44:41Z</time>
      </trkpt>
      <trkpt lat="45.83485" lon="6.29766">
        <ele>1761.2</ele>
        <time>2022-01-06T08:44:42Z</time>
      </trkpt>
      <trkpt lat="45.83484" lon="6.29766">
        <ele>1761.2</ele>
        <time>2022-01-06T08:44:43Z</time>
      </trkpt>
      <trkpt lat="45.83483" lon="6.29766">
        <ele>1761.2</ele>
        <time>2022-01-06T08:44:44Z</time>
      </trkpt>
      <trkpt lat="45.83482" lon="6.29766">
        <ele>1762.1</ele>
        <time>2022-01-06T08:44:45Z</time>
      </trkpt>
      <trkpt lat="45.83482" lon="6.29767">
        <ele>1762.1</ele>
        <time>2022-01-06T08:44:46Z</time>
      </trkpt>
      <trkpt lat="45.8348" lon="6.29767">
        <ele>1762.1</ele>
        <time>2022-01-06T08:44:47Z</time>
      </trkpt>
      <trkpt lat="45.83479" lon="6.29768">
        <ele>1762.1</ele>
        <time>2022-01-06T08:44:48Z</time>
      </trkpt>
      <trkpt lat="45.83478" lon="6.29768">
        <ele>1762.1</ele>
        <time>2022-01-06T08:44:49Z</time>
      </trkpt>
      <trkpt lat="45.83478" lon="6.29768">
        <ele>1762.1</ele>
        <time>2022-01-06T08:44:50Z</time>
      </trkpt>
      <trkpt lat="45.83478" lon="6.29768">
        <ele>1762.1</ele>
        <time>2022-01-06T08:44:51Z</time>
      </trkpt>
      <trkpt lat="45.83478" lon="6.29768">
        <ele>1762.1</ele>
        <time>2022-01-06T08:44:52Z</time>
      </trkpt>
      <trkpt lat="45.83477" lon="6.29768">
        <ele>1762.1</ele>
        <time>2022-01-06T08:44:53Z</time>
      </trkpt>
      <trkpt lat="45.83476" lon="6.29768">
        <ele>1762.1</ele>
        <time>2022-01-06T08:44:54Z</time>
      </trkpt>
      <trkpt lat="45.83476" lon="6.29768">
        <ele>1762.1</ele>
        <time>2022-01-06T08:44:55Z</time>
      </trkpt>
      <trkpt lat="45.83474" lon="6.29768">
        <ele>1762.1</ele>
        <time>2022-01-06T08:44:56Z</time>
      </trkpt>
      <trkpt lat="45.83473" lon="6.29768">
        <ele>1764.1</ele>
        <time>2022-01-06T08:44:57Z</time>
      </trkpt>
      <trkpt lat="45.83472" lon="6.29768">
        <ele>1764.1</ele>
        <time>2022-01-06T08:44:58Z</time>
      </trkpt>
      <trkpt lat="45.83472" lon="6.29768">
        <ele>1764.1</ele>
        <time>2022-01-06T08:44:59Z</time>
      </trkpt>
      <trkpt lat="45.83471" lon="6.29768">
        <ele>1764.1</ele>
        <time>2022-01-06T08:45:00Z</time>
      </trkpt>
      <trkpt lat="45.83471" lon="6.29769">
        <ele>1764.1</ele>
        <time>2022-01-06T08:45:01Z</time>
      </trkpt>
      <trkpt lat="45.8347" lon="6.29769">
        <ele>1764.1</ele>
        <time>2022-01-06T08:45:02Z</time>
      </trkpt>
      <trkpt lat="45.83469" lon="6.29769">
        <ele>1765.1</ele>
        <time>2022-01-06T08:45:03Z</time>
      </trkpt>
      <trkpt lat="45.83468" lon="6.29769">
        <ele>1765.1</ele>
        <time>2022-01-06T08:45:04Z</time>
      </trkpt>
      <trkpt lat="45.83468" lon="6.2977">
        <ele>1765.1</ele>
        <time>2022-01-06T08:45:05Z</time>
      </trkpt>
      <trkpt lat="45.83467" lon="6.2977">
        <ele>1765.1</ele>
        <time>2022-01-06T08:45:06Z</time>
      </trkpt>
      <trkpt lat="45.83466" lon="6.29769">
        <ele>1766</ele>
        <time>2022-01-06T08:45:07Z</time>
      </trkpt>
      <trkpt lat="45.83465" lon="6.2977">
        <ele>1766</ele>
        <time>2022-01-06T08:45:08Z</time>
      </trkpt>
      <trkpt lat="45.83464" lon="6.2977">
        <ele>1766</ele>
        <time>2022-01-06T08:45:09Z</time>
      </trkpt>
      <trkpt lat="45.83463" lon="6.2977">
        <ele>1766</ele>
        <time>2022-01-06T08:45:10Z</time>
      </trkpt>
      <trkpt lat="45.83462" lon="6.2977">
        <ele>1767.1</ele>
        <time>2022-01-06T08:45:11Z</time>
      </trkpt>
      <trkpt lat="45.83461" lon="6.2977">
        <ele>1767.1</ele>
        <time>2022-01-06T08:45:12Z</time>
      </trkpt>
      <trkpt lat="45.8346" lon="6.29769">
        <ele>1767.1</ele>
        <time>2022-01-06T08:45:13Z</time>
      </trkpt>
      <trkpt lat="45.83459" lon="6.29769">
        <ele>1767.1</ele>
        <time>2022-01-06T08:45:14Z</time>
      </trkpt>
      <trkpt lat="45.83459" lon="6.29769">
        <ele>1768</ele>
        <time>2022-01-06T08:45:15Z</time>
      </trkpt>
      <trkpt lat="45.83459" lon="6.29768">
        <ele>1768</ele>
        <time>2022-01-06T08:45:16Z</time>
      </trkpt>
      <trkpt lat="45.83459" lon="6.29768">
        <ele>1768</ele>
        <time>2022-01-06T08:45:17Z</time>
      </trkpt>
      <trkpt lat="45.83459" lon="6.29767">
        <ele>1768</ele>
        <time>2022-01-06T08:45:18Z</time>
      </trkpt>
      <trkpt lat="45.83458" lon="6.29767">
        <ele>1769.1</ele>
        <time>2022-01-06T08:45:19Z</time>
      </trkpt>
      <trkpt lat="45.83457" lon="6.29767">
        <ele>1769.1</ele>
        <time>2022-01-06T08:45:20Z</time>
      </trkpt>
      <trkpt lat="45.83456" lon="6.29767">
        <ele>1769.1</ele>
        <time>2022-01-06T08:45:21Z</time>
      </trkpt>
      <trkpt lat="45.83455" lon="6.29766">
        <ele>1769.1</ele>
        <time>2022-01-06T08:45:22Z</time>
      </trkpt>
      <trkpt lat="45.83454" lon="6.29766">
        <ele>1770.1</ele>
        <time>2022-01-06T08:45:23Z</time>
      </trkpt>
      <trkpt lat="45.83453" lon="6.29766">
        <ele>1770.1</ele>
        <time>2022-01-06T08:45:24Z</time>
      </trkpt>
      <trkpt lat="45.83452" lon="6.29766">
        <ele>1770.1</ele>
        <time>2022-01-06T08:45:25Z</time>
      </trkpt>
      <trkpt lat="45.83451" lon="6.29766">
        <ele>1770.1</ele>
        <time>2022-01-06T08:45:26Z</time>
      </trkpt>
      <trkpt lat="45.83451" lon="6.29765">
        <ele>1770.1</ele>
        <time>2022-01-06T08:45:27Z</time>
      </trkpt>
      <trkpt lat="45.8345" lon="6.29765">
        <ele>1770.1</ele>
        <time>2022-01-06T08:45:28Z</time>
      </trkpt>
      <trkpt lat="45.8345" lon="6.29764">
        <ele>1771.1</ele>
        <time>2022-01-06T08:45:29Z</time>
      </trkpt>
      <trkpt lat="45.83449" lon="6.29764">
        <ele>1771.1</ele>
        <time>2022-01-06T08:45:30Z</time>
      </trkpt>
      <trkpt lat="45.83448" lon="6.29763">
        <ele>1771.1</ele>
        <time>2022-01-06T08:45:31Z</time>
      </trkpt>
      <trkpt lat="45.83447" lon="6.29763">
        <ele>1771.1</ele>
        <time>2022-01-06T08:45:32Z</time>
      </trkpt>
      <trkpt lat="45.83447" lon="6.29762">
        <ele>1772.1</ele>
        <time>2022-01-06T08:45:33Z</time>
      </trkpt>
      <trkpt lat="45.83446" lon="6.29762">
        <ele>1772.1</ele>
        <time>2022-01-06T08:45:34Z</time>
      </trkpt>
      <trkpt lat="45.83446" lon="6.29761">
        <ele>1772.1</ele>
        <time>2022-01-06T08:45:35Z</time>
      </trkpt>
      <trkpt lat="45.83445" lon="6.29761">
        <ele>1772.1</ele>
        <time>2022-01-06T08:45:36Z</time>
      </trkpt>
      <trkpt lat="45.83444" lon="6.29761">
        <ele>1773</ele>
        <time>2022-01-06T08:45:37Z</time>
      </trkpt>
      <trkpt lat="45.83443" lon="6.2976">
        <ele>1773</ele>
        <time>2022-01-06T08:45:38Z</time>
      </trkpt>
      <trkpt lat="45.83442" lon="6.2976">
        <ele>1773</ele>
        <time>2022-01-06T08:45:39Z</time>
      </trkpt>
      <trkpt lat="45.83442" lon="6.29759">
        <ele>1773</ele>
        <time>2022-01-06T08:45:40Z</time>
      </trkpt>
      <trkpt lat="45.83441" lon="6.29759">
        <ele>1773</ele>
        <time>2022-01-06T08:45:41Z</time>
      </trkpt>
      <trkpt lat="45.8344" lon="6.29758">
        <ele>1773</ele>
        <time>2022-01-06T08:45:42Z</time>
      </trkpt>
      <trkpt lat="45.8344" lon="6.29758">
        <ele>1773</ele>
        <time>2022-01-06T08:45:43Z</time>
      </trkpt>
      <trkpt lat="45.83439" lon="6.29758">
        <ele>1773</ele>
        <time>2022-01-06T08:45:44Z</time>
      </trkpt>
      <trkpt lat="45.83438" lon="6.29758">
        <ele>1774.1</ele>
        <time>2022-01-06T08:45:45Z</time>
      </trkpt>
      <trkpt lat="45.83437" lon="6.29758">
        <ele>1774.1</ele>
        <time>2022-01-06T08:45:46Z</time>
      </trkpt>
      <trkpt lat="45.83437" lon="6.29758">
        <ele>1774.1</ele>
        <time>2022-01-06T08:45:47Z</time>
      </trkpt>
      <trkpt lat="45.83436" lon="6.29757">
        <ele>1774.1</ele>
        <time>2022-01-06T08:45:48Z</time>
      </trkpt>
      <trkpt lat="45.83435" lon="6.29757">
        <ele>1774.1</ele>
        <time>2022-01-06T08:45:49Z</time>
      </trkpt>
      <trkpt lat="45.83434" lon="6.29757">
        <ele>1774.1</ele>
        <time>2022-01-06T08:45:50Z</time>
      </trkpt>
      <trkpt lat="45.83432" lon="6.29757">
        <ele>1774.1</ele>
        <time>2022-01-06T08:45:51Z</time>
      </trkpt>
      <trkpt lat="45.83431" lon="6.29757">
        <ele>1774.1</ele>
        <time>2022-01-06T08:45:52Z</time>
      </trkpt>
      <trkpt lat="45.8343" lon="6.29757">
        <ele>1774.1</ele>
        <time>2022-01-06T08:45:53Z</time>
      </trkpt>
      <trkpt lat="45.83429" lon="6.29757">
        <ele>1774.1</ele>
        <time>2022-01-06T08:45:54Z</time>
      </trkpt>
      <trkpt lat="45.83429" lon="6.29757">
        <ele>1774.1</ele>
        <time>2022-01-06T08:45:55Z</time>
      </trkpt>
      <trkpt lat="45.83428" lon="6.29757">
        <ele>1774.1</ele>
        <time>2022-01-06T08:45:56Z</time>
      </trkpt>
      <trkpt lat="45.83426" lon="6.29757">
        <ele>1774.1</ele>
        <time>2022-01-06T08:45:57Z</time>
      </trkpt>
      <trkpt lat="45.83425" lon="6.29757">
        <ele>1774.1</ele>
        <time>2022-01-06T08:45:58Z</time>
      </trkpt>
      <trkpt lat="45.83424" lon="6.29757">
        <ele>1774.1</ele>
        <time>2022-01-06T08:45:59Z</time>
      </trkpt>
      <trkpt lat="45.83424" lon="6.29758">
        <ele>1774.1</ele>
        <time>2022-01-06T08:46:00Z</time>
      </trkpt>
      <trkpt lat="45.83423" lon="6.29758">
        <ele>1775</ele>
        <time>2022-01-06T08:46:01Z</time>
      </trkpt>
      <trkpt lat="45.83422" lon="6.29759">
        <ele>1775</ele>
        <time>2022-01-06T08:46:02Z</time>
      </trkpt>
      <trkpt lat="45.83421" lon="6.29759">
        <ele>1775</ele>
        <time>2022-01-06T08:46:03Z</time>
      </trkpt>
      <trkpt lat="45.8342" lon="6.29758">
        <ele>1775</ele>
        <time>2022-01-06T08:46:04Z</time>
      </trkpt>
      <trkpt lat="45.83419" lon="6.29758">
        <ele>1776.1</ele>
        <time>2022-01-06T08:46:05Z</time>
      </trkpt>
      <trkpt lat="45.83419" lon="6.29758">
        <ele>1776.1</ele>
        <time>2022-01-06T08:46:06Z</time>
      </trkpt>
      <trkpt lat="45.83419" lon="6.29758">
        <ele>1777.2</ele>
        <time>2022-01-06T08:46:07Z</time>
      </trkpt>
      <trkpt lat="45.83418" lon="6.29758">
        <ele>1777.2</ele>
        <time>2022-01-06T08:46:08Z</time>
      </trkpt>
      <trkpt lat="45.83418" lon="6.29757">
        <ele>1778.1</ele>
        <time>2022-01-06T08:46:09Z</time>
      </trkpt>
      <trkpt lat="45.83418" lon="6.29757">
        <ele>1778.1</ele>
        <time>2022-01-06T08:46:10Z</time>
      </trkpt>
      <trkpt lat="45.83418" lon="6.29756">
        <ele>1778.1</ele>
        <time>2022-01-06T08:46:11Z</time>
      </trkpt>
      <trkpt lat="45.83418" lon="6.29755">
        <ele>1778.1</ele>
        <time>2022-01-06T08:46:12Z</time>
      </trkpt>
      <trkpt lat="45.83418" lon="6.29754">
        <ele>1778.1</ele>
        <time>2022-01-06T08:46:13Z</time>
      </trkpt>
      <trkpt lat="45.83417" lon="6.29753">
        <ele>1778.1</ele>
        <time>2022-01-06T08:46:14Z</time>
      </trkpt>
      <trkpt lat="45.83418" lon="6.29752">
        <ele>1778.1</ele>
        <time>2022-01-06T08:46:15Z</time>
      </trkpt>
      <trkpt lat="45.83418" lon="6.29751">
        <ele>1778.1</ele>
        <time>2022-01-06T08:46:16Z</time>
      </trkpt>
      <trkpt lat="45.83418" lon="6.29751">
        <ele>1778.1</ele>
        <time>2022-01-06T08:46:17Z</time>
      </trkpt>
      <trkpt lat="45.83419" lon="6.29751">
        <ele>1778.1</ele>
        <time>2022-01-06T08:46:18Z</time>
      </trkpt>
      <trkpt lat="45.83418" lon="6.29751">
        <ele>1780.1</ele>
        <time>2022-01-06T08:46:19Z</time>
      </trkpt>
      <trkpt lat="45.83417" lon="6.29751">
        <ele>1780.1</ele>
        <time>2022-01-06T08:46:20Z</time>
      </trkpt>
      <trkpt lat="45.83417" lon="6.29751">
        <ele>1780.1</ele>
        <time>2022-01-06T08:46:21Z</time>
      </trkpt>
      <trkpt lat="45.83417" lon="6.29751">
        <ele>1780.1</ele>
        <time>2022-01-06T08:46:22Z</time>
      </trkpt>
      <trkpt lat="45.83416" lon="6.29751">
        <ele>1780.1</ele>
        <time>2022-01-06T08:46:23Z</time>
      </trkpt>
      <trkpt lat="45.83416" lon="6.29751">
        <ele>1780.1</ele>
        <time>2022-01-06T08:46:24Z</time>
      </trkpt>
      <trkpt lat="45.83416" lon="6.29751">
        <ele>1780.1</ele>
        <time>2022-01-06T08:46:25Z</time>
      </trkpt>
      <trkpt lat="45.83415" lon="6.29751">
        <ele>1780.1</ele>
        <time>2022-01-06T08:46:26Z</time>
      </trkpt>
      <trkpt lat="45.83414" lon="6.29751">
        <ele>1780.1</ele>
        <time>2022-01-06T08:46:27Z</time>
      </trkpt>
      <trkpt lat="45.83414" lon="6.29751">
        <ele>1780.1</ele>
        <time>2022-01-06T08:46:28Z</time>
      </trkpt>
      <trkpt lat="45.83414" lon="6.29751">
        <ele>1780.1</ele>
        <time>2022-01-06T08:46:29Z</time>
      </trkpt>
      <trkpt lat="45.83414" lon="6.2975">
        <ele>1780.1</ele>
        <time>2022-01-06T08:46:30Z</time>
      </trkpt>
      <trkpt lat="45.83414" lon="6.29749">
        <ele>1783.1</ele>
        <time>2022-01-06T08:46:31Z</time>
      </trkpt>
      <trkpt lat="45.83414" lon="6.29748">
        <ele>1783.1</ele>
        <time>2022-01-06T08:46:32Z</time>
      </trkpt>
      <trkpt lat="45.83413" lon="6.29748">
        <ele>1783.1</ele>
        <time>2022-01-06T08:46:33Z</time>
      </trkpt>
      <trkpt lat="45.83413" lon="6.29748">
        <ele>1783.1</ele>
        <time>2022-01-06T08:46:34Z</time>
      </trkpt>
      <trkpt lat="45.83412" lon="6.29748">
        <ele>1783.1</ele>
        <time>2022-01-06T08:46:35Z</time>
      </trkpt>
      <trkpt lat="45.83412" lon="6.29749">
        <ele>1783.1</ele>
        <time>2022-01-06T08:46:36Z</time>
      </trkpt>
      <trkpt lat="45.83411" lon="6.29748">
        <ele>1783.1</ele>
        <time>2022-01-06T08:46:37Z</time>
      </trkpt>
      <trkpt lat="45.8341" lon="6.29748">
        <ele>1783.1</ele>
        <time>2022-01-06T08:46:38Z</time>
      </trkpt>
      <trkpt lat="45.8341" lon="6.29748">
        <ele>1784</ele>
        <time>2022-01-06T08:46:39Z</time>
      </trkpt>
      <trkpt lat="45.8341" lon="6.29748">
        <ele>1784</ele>
        <time>2022-01-06T08:46:40Z</time>
      </trkpt>
      <trkpt lat="45.8341" lon="6.29748">
        <ele>1784</ele>
        <time>2022-01-06T08:46:41Z</time>
      </trkpt>
      <trkpt lat="45.8341" lon="6.29748">
        <ele>1784</ele>
        <time>2022-01-06T08:46:42Z</time>
      </trkpt>
      <trkpt lat="45.8341" lon="6.29748">
        <ele>1785.1</ele>
        <time>2022-01-06T08:46:43Z</time>
      </trkpt>
      <trkpt lat="45.8341" lon="6.29748">
        <ele>1785.1</ele>
        <time>2022-01-06T08:46:44Z</time>
      </trkpt>
      <trkpt lat="45.8341" lon="6.29748">
        <ele>1786.2</ele>
        <time>2022-01-06T08:46:45Z</time>
      </trkpt>
      <trkpt lat="45.8341" lon="6.29748">
        <ele>1786.2</ele>
        <time>2022-01-06T08:46:46Z</time>
      </trkpt>
      <trkpt lat="45.8341" lon="6.29748">
        <ele>1787.1</ele>
        <time>2022-01-06T08:46:47Z</time>
      </trkpt>
      <trkpt lat="45.8341" lon="6.29748">
        <ele>1787.1</ele>
        <time>2022-01-06T08:46:48Z</time>
      </trkpt>
      <trkpt lat="45.8341" lon="6.29748">
        <ele>1787.1</ele>
        <time>2022-01-06T08:46:49Z</time>
      </trkpt>
      <trkpt lat="45.8341" lon="6.29748">
        <ele>1787.1</ele>
        <time>2022-01-06T08:46:50Z</time>
      </trkpt>
      <trkpt lat="45.8341" lon="6.29748">
        <ele>1788.1</ele>
        <time>2022-01-06T08:46:51Z</time>
      </trkpt>
      <trkpt lat="45.8341" lon="6.29748">
        <ele>1788.1</ele>
        <time>2022-01-06T08:46:52Z</time>
      </trkpt>
      <trkpt lat="45.8341" lon="6.29748">
        <ele>1788.1</ele>
        <time>2022-01-06T08:46:53Z</time>
      </trkpt>
      <trkpt lat="45.8341" lon="6.29748">
        <ele>1788.1</ele>
        <time>2022-01-06T08:46:54Z</time>
      </trkpt>
      <trkpt lat="45.8341" lon="6.29748">
        <ele>1789</ele>
        <time>2022-01-06T08:46:55Z</time>
      </trkpt>
      <trkpt lat="45.8341" lon="6.29748">
        <ele>1789</ele>
        <time>2022-01-06T08:46:56Z</time>
      </trkpt>
      <trkpt lat="45.8341" lon="6.29747">
        <ele>1789</ele>
        <time>2022-01-06T08:46:57Z</time>
      </trkpt>
      <trkpt lat="45.8341" lon="6.29745">
        <ele>1789</ele>
        <time>2022-01-06T08:46:58Z</time>
      </trkpt>
      <trkpt lat="45.8341" lon="6.29743">
        <ele>1790.1</ele>
        <time>2022-01-06T08:46:59Z</time>
      </trkpt>
      <trkpt lat="45.8341" lon="6.29741">
        <ele>1790.1</ele>
        <time>2022-01-06T08:47:00Z</time>
      </trkpt>
      <trkpt lat="45.8341" lon="6.2974">
        <ele>1791</ele>
        <time>2022-01-06T08:47:01Z</time>
      </trkpt>
      <trkpt lat="45.8341" lon="6.29738">
        <ele>1791</ele>
        <time>2022-01-06T08:47:02Z</time>
      </trkpt>
      <trkpt lat="45.8341" lon="6.29737">
        <ele>1792.1</ele>
        <time>2022-01-06T08:47:03Z</time>
      </trkpt>
      <trkpt lat="45.83409" lon="6.29736">
        <ele>1792.1</ele>
        <time>2022-01-06T08:47:04Z</time>
      </trkpt>
      <trkpt lat="45.83409" lon="6.29734">
        <ele>1792.1</ele>
        <time>2022-01-06T08:47:05Z</time>
      </trkpt>
      <trkpt lat="45.83408" lon="6.29734">
        <ele>1792.1</ele>
        <time>2022-01-06T08:47:06Z</time>
      </trkpt>
      <trkpt lat="45.83408" lon="6.29734">
        <ele>1792.1</ele>
        <time>2022-01-06T08:47:07Z</time>
      </trkpt>
      <trkpt lat="45.83407" lon="6.29734">
        <ele>1792.1</ele>
        <time>2022-01-06T08:47:08Z</time>
      </trkpt>
      <trkpt lat="45.83407" lon="6.29733">
        <ele>1792.1</ele>
        <time>2022-01-06T08:47:09Z</time>
      </trkpt>
      <trkpt lat="45.83407" lon="6.29733">
        <ele>1792.1</ele>
        <time>2022-01-06T08:47:10Z</time>
      </trkpt>
      <trkpt lat="45.83406" lon="6.29733">
        <ele>1792.1</ele>
        <time>2022-01-06T08:47:11Z</time>
      </trkpt>
      <trkpt lat="45.83405" lon="6.29732">
        <ele>1792.1</ele>
        <time>2022-01-06T08:47:12Z</time>
      </trkpt>
      <trkpt lat="45.83404" lon="6.29732">
        <ele>1792.1</ele>
        <time>2022-01-06T08:47:13Z</time>
      </trkpt>
      <trkpt lat="45.83403" lon="6.29732">
        <ele>1792.1</ele>
        <time>2022-01-06T08:47:14Z</time>
      </trkpt>
      <trkpt lat="45.83402" lon="6.29731">
        <ele>1794.1</ele>
        <time>2022-01-06T08:47:15Z</time>
      </trkpt>
      <trkpt lat="45.83402" lon="6.29731">
        <ele>1794.1</ele>
        <time>2022-01-06T08:47:16Z</time>
      </trkpt>
      <trkpt lat="45.83401" lon="6.2973">
        <ele>1794.1</ele>
        <time>2022-01-06T08:47:17Z</time>
      </trkpt>
      <trkpt lat="45.834" lon="6.2973">
        <ele>1794.1</ele>
        <time>2022-01-06T08:47:18Z</time>
      </trkpt>
      <trkpt lat="45.834" lon="6.2973">
        <ele>1794.1</ele>
        <time>2022-01-06T08:47:19Z</time>
      </trkpt>
      <trkpt lat="45.83399" lon="6.2973">
        <ele>1794.1</ele>
        <time>2022-01-06T08:47:20Z</time>
      </trkpt>
      <trkpt lat="45.83399" lon="6.2973">
        <ele>1794.1</ele>
        <time>2022-01-06T08:47:21Z</time>
      </trkpt>
      <trkpt lat="45.83398" lon="6.29731">
        <ele>1794.1</ele>
        <time>2022-01-06T08:47:22Z</time>
      </trkpt>
      <trkpt lat="45.83397" lon="6.29731">
        <ele>1794.1</ele>
        <time>2022-01-06T08:47:23Z</time>
      </trkpt>
      <trkpt lat="45.83397" lon="6.2973">
        <ele>1794.1</ele>
        <time>2022-01-06T08:47:24Z</time>
      </trkpt>
      <trkpt lat="45.83397" lon="6.29731">
        <ele>1794.1</ele>
        <time>2022-01-06T08:47:25Z</time>
      </trkpt>
      <trkpt lat="45.83397" lon="6.29731">
        <ele>1794.1</ele>
        <time>2022-01-06T08:47:26Z</time>
      </trkpt>
      <trkpt lat="45.83396" lon="6.29731">
        <ele>1794.1</ele>
        <time>2022-01-06T08:47:27Z</time>
      </trkpt>
      <trkpt lat="45.83396" lon="6.29731">
        <ele>1794.1</ele>
        <time>2022-01-06T08:47:28Z</time>
      </trkpt>
      <trkpt lat="45.83395" lon="6.2973">
        <ele>1797.1</ele>
        <time>2022-01-06T08:47:29Z</time>
      </trkpt>
      <trkpt lat="45.83395" lon="6.29729">
        <ele>1797.1</ele>
        <time>2022-01-06T08:47:30Z</time>
      </trkpt>
      <trkpt lat="45.83395" lon="6.29728">
        <ele>1797.1</ele>
        <time>2022-01-06T08:47:31Z</time>
      </trkpt>
      <trkpt lat="45.83395" lon="6.29727">
        <ele>1797.1</ele>
        <time>2022-01-06T08:47:32Z</time>
      </trkpt>
      <trkpt lat="45.83395" lon="6.29727">
        <ele>1798</ele>
        <time>2022-01-06T08:47:33Z</time>
      </trkpt>
      <trkpt lat="45.83395" lon="6.29726">
        <ele>1798</ele>
        <time>2022-01-06T08:47:34Z</time>
      </trkpt>
      <trkpt lat="45.83396" lon="6.29725">
        <ele>1799.1</ele>
        <time>2022-01-06T08:47:35Z</time>
      </trkpt>
      <trkpt lat="45.83396" lon="6.29724">
        <ele>1799.1</ele>
        <time>2022-01-06T08:47:36Z</time>
      </trkpt>
      <trkpt lat="45.83396" lon="6.29724">
        <ele>1799.1</ele>
        <time>2022-01-06T08:47:37Z</time>
      </trkpt>
      <trkpt lat="45.83396" lon="6.29723">
        <ele>1799.1</ele>
        <time>2022-01-06T08:47:38Z</time>
      </trkpt>
      <trkpt lat="45.83396" lon="6.29723">
        <ele>1800</ele>
        <time>2022-01-06T08:47:39Z</time>
      </trkpt>
      <trkpt lat="45.83396" lon="6.29722">
        <ele>1800</ele>
        <time>2022-01-06T08:47:40Z</time>
      </trkpt>
      <trkpt lat="45.83396" lon="6.29722">
        <ele>1800</ele>
        <time>2022-01-06T08:47:41Z</time>
      </trkpt>
      <trkpt lat="45.83395" lon="6.29722">
        <ele>1800</ele>
        <time>2022-01-06T08:47:42Z</time>
      </trkpt>
      <trkpt lat="45.83395" lon="6.29722">
        <ele>1800</ele>
        <time>2022-01-06T08:47:43Z</time>
      </trkpt>
      <trkpt lat="45.83395" lon="6.29722">
        <ele>1800</ele>
        <time>2022-01-06T08:47:44Z</time>
      </trkpt>
      <trkpt lat="45.83395" lon="6.29722">
        <ele>1801.1</ele>
        <time>2022-01-06T08:47:45Z</time>
      </trkpt>
      <trkpt lat="45.83394" lon="6.29722">
        <ele>1801.1</ele>
        <time>2022-01-06T08:47:46Z</time>
      </trkpt>
      <trkpt lat="45.83393" lon="6.29722">
        <ele>1801.1</ele>
        <time>2022-01-06T08:47:47Z</time>
      </trkpt>
      <trkpt lat="45.83392" lon="6.29722">
        <ele>1801.1</ele>
        <time>2022-01-06T08:47:48Z</time>
      </trkpt>
      <trkpt lat="45.83392" lon="6.29722">
        <ele>1801.1</ele>
        <time>2022-01-06T08:47:49Z</time>
      </trkpt>
      <trkpt lat="45.83391" lon="6.29722">
        <ele>1801.1</ele>
        <time>2022-01-06T08:47:50Z</time>
      </trkpt>
      <trkpt lat="45.8339" lon="6.29723">
        <ele>1801.1</ele>
        <time>2022-01-06T08:47:51Z</time>
      </trkpt>
      <trkpt lat="45.8339" lon="6.29723">
        <ele>1801.1</ele>
        <time>2022-01-06T08:47:52Z</time>
      </trkpt>
      <trkpt lat="45.83389" lon="6.29724">
        <ele>1802.2</ele>
        <time>2022-01-06T08:47:53Z</time>
      </trkpt>
      <trkpt lat="45.83389" lon="6.29724">
        <ele>1802.2</ele>
        <time>2022-01-06T08:47:54Z</time>
      </trkpt>
      <trkpt lat="45.83389" lon="6.29724">
        <ele>1802.2</ele>
        <time>2022-01-06T08:47:55Z</time>
      </trkpt>
      <trkpt lat="45.83388" lon="6.29725">
        <ele>1802.2</ele>
        <time>2022-01-06T08:47:56Z</time>
      </trkpt>
      <trkpt lat="45.83388" lon="6.29725">
        <ele>1803.1</ele>
        <time>2022-01-06T08:47:57Z</time>
      </trkpt>
      <trkpt lat="45.83387" lon="6.29725">
        <ele>1803.1</ele>
        <time>2022-01-06T08:47:58Z</time>
      </trkpt>
      <trkpt lat="45.83387" lon="6.29726">
        <ele>1803.1</ele>
        <time>2022-01-06T08:47:59Z</time>
      </trkpt>
      <trkpt lat="45.83386" lon="6.29726">
        <ele>1803.1</ele>
        <time>2022-01-06T08:48:00Z</time>
      </trkpt>
      <trkpt lat="45.83385" lon="6.29726">
        <ele>1804.1</ele>
        <time>2022-01-06T08:48:01Z</time>
      </trkpt>
      <trkpt lat="45.83384" lon="6.29727">
        <ele>1804.1</ele>
        <time>2022-01-06T08:48:02Z</time>
      </trkpt>
      <trkpt lat="45.83384" lon="6.29726">
        <ele>1805</ele>
        <time>2022-01-06T08:48:03Z</time>
      </trkpt>
      <trkpt lat="45.83383" lon="6.29726">
        <ele>1805</ele>
        <time>2022-01-06T08:48:04Z</time>
      </trkpt>
      <trkpt lat="45.83383" lon="6.29725">
        <ele>1805</ele>
        <time>2022-01-06T08:48:05Z</time>
      </trkpt>
      <trkpt lat="45.83383" lon="6.29725">
        <ele>1805</ele>
        <time>2022-01-06T08:48:06Z</time>
      </trkpt>
      <trkpt lat="45.83382" lon="6.29725">
        <ele>1806.1</ele>
        <time>2022-01-06T08:48:07Z</time>
      </trkpt>
      <trkpt lat="45.83382" lon="6.29724">
        <ele>1806.1</ele>
        <time>2022-01-06T08:48:08Z</time>
      </trkpt>
      <trkpt lat="45.83382" lon="6.29722">
        <ele>1807</ele>
        <time>2022-01-06T08:48:09Z</time>
      </trkpt>
      <trkpt lat="45.83382" lon="6.29721">
        <ele>1807</ele>
        <time>2022-01-06T08:48:10Z</time>
      </trkpt>
      <trkpt lat="45.83382" lon="6.2972">
        <ele>1807</ele>
        <time>2022-01-06T08:48:11Z</time>
      </trkpt>
      <trkpt lat="45.83381" lon="6.29719">
        <ele>1807</ele>
        <time>2022-01-06T08:48:12Z</time>
      </trkpt>
      <trkpt lat="45.8338" lon="6.29718">
        <ele>1808.1</ele>
        <time>2022-01-06T08:48:13Z</time>
      </trkpt>
      <trkpt lat="45.8338" lon="6.29717">
        <ele>1808.1</ele>
        <time>2022-01-06T08:48:14Z</time>
      </trkpt>
      <trkpt lat="45.83379" lon="6.29717">
        <ele>1808.1</ele>
        <time>2022-01-06T08:48:15Z</time>
      </trkpt>
      <trkpt lat="45.83379" lon="6.29717">
        <ele>1808.1</ele>
        <time>2022-01-06T08:48:16Z</time>
      </trkpt>
      <trkpt lat="45.83379" lon="6.29717">
        <ele>1808.1</ele>
        <time>2022-01-06T08:48:17Z</time>
      </trkpt>
      <trkpt lat="45.83379" lon="6.29718">
        <ele>1808.1</ele>
        <time>2022-01-06T08:48:18Z</time>
      </trkpt>
      <trkpt lat="45.8338" lon="6.29718">
        <ele>1808.1</ele>
        <time>2022-01-06T08:48:19Z</time>
      </trkpt>
      <trkpt lat="45.83379" lon="6.29718">
        <ele>1808.1</ele>
        <time>2022-01-06T08:48:20Z</time>
      </trkpt>
      <trkpt lat="45.83379" lon="6.29718">
        <ele>1808.1</ele>
        <time>2022-01-06T08:48:21Z</time>
      </trkpt>
      <trkpt lat="45.83379" lon="6.29718">
        <ele>1808.1</ele>
        <time>2022-01-06T08:48:22Z</time>
      </trkpt>
      <trkpt lat="45.83379" lon="6.29718">
        <ele>1808.1</ele>
        <time>2022-01-06T08:48:23Z</time>
      </trkpt>
      <trkpt lat="45.83378" lon="6.29718">
        <ele>1808.1</ele>
        <time>2022-01-06T08:48:24Z</time>
      </trkpt>
      <trkpt lat="45.83377" lon="6.29718">
        <ele>1809.2</ele>
        <time>2022-01-06T08:48:25Z</time>
      </trkpt>
      <trkpt lat="45.83377" lon="6.29719">
        <ele>1809.2</ele>
        <time>2022-01-06T08:48:26Z</time>
      </trkpt>
      <trkpt lat="45.83377" lon="6.29719">
        <ele>1809.2</ele>
        <time>2022-01-06T08:48:27Z</time>
      </trkpt>
      <trkpt lat="45.83377" lon="6.29719">
        <ele>1809.2</ele>
        <time>2022-01-06T08:48:28Z</time>
      </trkpt>
      <trkpt lat="45.83377" lon="6.29718">
        <ele>1810.1</ele>
        <time>2022-01-06T08:48:29Z</time>
      </trkpt>
      <trkpt lat="45.83377" lon="6.29718">
        <ele>1810.1</ele>
        <time>2022-01-06T08:48:30Z</time>
      </trkpt>
      <trkpt lat="45.83376" lon="6.29717">
        <ele>1811.1</ele>
        <time>2022-01-06T08:48:31Z</time>
      </trkpt>
      <trkpt lat="45.83375" lon="6.29716">
        <ele>1811.1</ele>
        <time>2022-01-06T08:48:32Z</time>
      </trkpt>
      <trkpt lat="45.83376" lon="6.29716">
        <ele>1811.1</ele>
        <time>2022-01-06T08:48:33Z</time>
      </trkpt>
      <trkpt lat="45.83376" lon="6.29715">
        <ele>1811.1</ele>
        <time>2022-01-06T08:48:34Z</time>
      </trkpt>
      <trkpt lat="45.83376" lon="6.29714">
        <ele>1812.1</ele>
        <time>2022-01-06T08:48:35Z</time>
      </trkpt>
      <trkpt lat="45.83375" lon="6.29713">
        <ele>1812.1</ele>
        <time>2022-01-06T08:48:36Z</time>
      </trkpt>
      <trkpt lat="45.83375" lon="6.29713">
        <ele>1812.1</ele>
        <time>2022-01-06T08:48:37Z</time>
      </trkpt>
      <trkpt lat="45.83375" lon="6.29712">
        <ele>1812.1</ele>
        <time>2022-01-06T08:48:38Z</time>
      </trkpt>
      <trkpt lat="45.83375" lon="6.29712">
        <ele>1813.1</ele>
        <time>2022-01-06T08:48:39Z</time>
      </trkpt>
      <trkpt lat="45.83375" lon="6.29711">
        <ele>1813.1</ele>
        <time>2022-01-06T08:48:40Z</time>
      </trkpt>
      <trkpt lat="45.83375" lon="6.2971">
        <ele>1813.1</ele>
        <time>2022-01-06T08:48:41Z</time>
      </trkpt>
      <trkpt lat="45.83375" lon="6.2971">
        <ele>1813.1</ele>
        <time>2022-01-06T08:48:42Z</time>
      </trkpt>
      <trkpt lat="45.83375" lon="6.29709">
        <ele>1814</ele>
        <time>2022-01-06T08:48:43Z</time>
      </trkpt>
      <trkpt lat="45.83375" lon="6.29708">
        <ele>1814</ele>
        <time>2022-01-06T08:48:44Z</time>
      </trkpt>
      <trkpt lat="45.83375" lon="6.29708">
        <ele>1814</ele>
        <time>2022-01-06T08:48:45Z</time>
      </trkpt>
      <trkpt lat="45.83375" lon="6.29707">
        <ele>1814</ele>
        <time>2022-01-06T08:48:46Z</time>
      </trkpt>
      <trkpt lat="45.83376" lon="6.29706">
        <ele>1815.1</ele>
        <time>2022-01-06T08:48:47Z</time>
      </trkpt>
      <trkpt lat="45.83376" lon="6.29706">
        <ele>1815.1</ele>
        <time>2022-01-06T08:48:48Z</time>
      </trkpt>
      <trkpt lat="45.83376" lon="6.29706">
        <ele>1815.1</ele>
        <time>2022-01-06T08:48:49Z</time>
      </trkpt>
      <trkpt lat="45.83376" lon="6.29706">
        <ele>1815.1</ele>
        <time>2022-01-06T08:48:50Z</time>
      </trkpt>
      <trkpt lat="45.83376" lon="6.29706">
        <ele>1815.1</ele>
        <time>2022-01-06T08:48:51Z</time>
      </trkpt>
      <trkpt lat="45.83376" lon="6.29706">
        <ele>1815.1</ele>
        <time>2022-01-06T08:48:52Z</time>
      </trkpt>
      <trkpt lat="45.83375" lon="6.29706">
        <ele>1815.1</ele>
        <time>2022-01-06T08:48:53Z</time>
      </trkpt>
      <trkpt lat="45.83375" lon="6.29707">
        <ele>1815.1</ele>
        <time>2022-01-06T08:48:54Z</time>
      </trkpt>
      <trkpt lat="45.83374" lon="6.29707">
        <ele>1815.1</ele>
        <time>2022-01-06T08:48:55Z</time>
      </trkpt>
      <trkpt lat="45.83374" lon="6.29707">
        <ele>1815.1</ele>
        <time>2022-01-06T08:48:56Z</time>
      </trkpt>
      <trkpt lat="45.83374" lon="6.29707">
        <ele>1815.1</ele>
        <time>2022-01-06T08:48:57Z</time>
      </trkpt>
      <trkpt lat="45.83374" lon="6.29706">
        <ele>1815.1</ele>
        <time>2022-01-06T08:48:58Z</time>
      </trkpt>
      <trkpt lat="45.83373" lon="6.29706">
        <ele>1816</ele>
        <time>2022-01-06T08:48:59Z</time>
      </trkpt>
      <trkpt lat="45.83372" lon="6.29706">
        <ele>1816</ele>
        <time>2022-01-06T08:49:00Z</time>
      </trkpt>
      <trkpt lat="45.83372" lon="6.29706">
        <ele>1816</ele>
        <time>2022-01-06T08:49:01Z</time>
      </trkpt>
      <trkpt lat="45.83371" lon="6.29707">
        <ele>1816</ele>
        <time>2022-01-06T08:49:02Z</time>
      </trkpt>
      <trkpt lat="45.83371" lon="6.29707">
        <ele>1817.1</ele>
        <time>2022-01-06T08:49:03Z</time>
      </trkpt>
      <trkpt lat="45.8337" lon="6.29707">
        <ele>1817.1</ele>
        <time>2022-01-06T08:49:04Z</time>
      </trkpt>
      <trkpt lat="45.83369" lon="6.29707">
        <ele>1817.1</ele>
        <time>2022-01-06T08:49:05Z</time>
      </trkpt>
      <trkpt lat="45.83369" lon="6.29707">
        <ele>1817.1</ele>
        <time>2022-01-06T08:49:06Z</time>
      </trkpt>
      <trkpt lat="45.83368" lon="6.29707">
        <ele>1818.2</ele>
        <time>2022-01-06T08:49:07Z</time>
      </trkpt>
      <trkpt lat="45.83367" lon="6.29707">
        <ele>1818.2</ele>
        <time>2022-01-06T08:49:08Z</time>
      </trkpt>
      <trkpt lat="45.83366" lon="6.29707">
        <ele>1818.2</ele>
        <time>2022-01-06T08:49:09Z</time>
      </trkpt>
      <trkpt lat="45.83365" lon="6.29707">
        <ele>1818.2</ele>
        <time>2022-01-06T08:49:10Z</time>
      </trkpt>
      <trkpt lat="45.83364" lon="6.29707">
        <ele>1818.2</ele>
        <time>2022-01-06T08:49:11Z</time>
      </trkpt>
      <trkpt lat="45.83363" lon="6.29707">
        <ele>1818.2</ele>
        <time>2022-01-06T08:49:12Z</time>
      </trkpt>
      <trkpt lat="45.83362" lon="6.29707">
        <ele>1819.1</ele>
        <time>2022-01-06T08:49:13Z</time>
      </trkpt>
      <trkpt lat="45.83362" lon="6.29706">
        <ele>1819.1</ele>
        <time>2022-01-06T08:49:14Z</time>
      </trkpt>
      <trkpt lat="45.83361" lon="6.29706">
        <ele>1819.1</ele>
        <time>2022-01-06T08:49:15Z</time>
      </trkpt>
      <trkpt lat="45.83361" lon="6.29705">
        <ele>1819.1</ele>
        <time>2022-01-06T08:49:16Z</time>
      </trkpt>
      <trkpt lat="45.8336" lon="6.29705">
        <ele>1820.1</ele>
        <time>2022-01-06T08:49:17Z</time>
      </trkpt>
      <trkpt lat="45.8336" lon="6.29703">
        <ele>1820.1</ele>
        <time>2022-01-06T08:49:18Z</time>
      </trkpt>
      <trkpt lat="45.8336" lon="6.29702">
        <ele>1820.1</ele>
        <time>2022-01-06T08:49:19Z</time>
      </trkpt>
      <trkpt lat="45.83361" lon="6.29701">
        <ele>1820.1</ele>
        <time>2022-01-06T08:49:20Z</time>
      </trkpt>
      <trkpt lat="45.83361" lon="6.297">
        <ele>1821.1</ele>
        <time>2022-01-06T08:49:21Z</time>
      </trkpt>
      <trkpt lat="45.83362" lon="6.29699">
        <ele>1821.1</ele>
        <time>2022-01-06T08:49:22Z</time>
      </trkpt>
      <trkpt lat="45.83362" lon="6.29699">
        <ele>1821.1</ele>
        <time>2022-01-06T08:49:23Z</time>
      </trkpt>
      <trkpt lat="45.83363" lon="6.29698">
        <ele>1821.1</ele>
        <time>2022-01-06T08:49:24Z</time>
      </trkpt>
      <trkpt lat="45.83363" lon="6.29697">
        <ele>1822.1</ele>
        <time>2022-01-06T08:49:25Z</time>
      </trkpt>
      <trkpt lat="45.83364" lon="6.29696">
        <ele>1822.1</ele>
        <time>2022-01-06T08:49:26Z</time>
      </trkpt>
      <trkpt lat="45.83364" lon="6.29696">
        <ele>1822.1</ele>
        <time>2022-01-06T08:49:27Z</time>
      </trkpt>
      <trkpt lat="45.83364" lon="6.29695">
        <ele>1822.1</ele>
        <time>2022-01-06T08:49:28Z</time>
      </trkpt>
      <trkpt lat="45.83364" lon="6.29694">
        <ele>1823</ele>
        <time>2022-01-06T08:49:29Z</time>
      </trkpt>
      <trkpt lat="45.83365" lon="6.29693">
        <ele>1823</ele>
        <time>2022-01-06T08:49:30Z</time>
      </trkpt>
      <trkpt lat="45.83365" lon="6.29692">
        <ele>1823</ele>
        <time>2022-01-06T08:49:31Z</time>
      </trkpt>
      <trkpt lat="45.83365" lon="6.29691">
        <ele>1823</ele>
        <time>2022-01-06T08:49:32Z</time>
      </trkpt>
      <trkpt lat="45.83365" lon="6.29691">
        <ele>1823</ele>
        <time>2022-01-06T08:49:33Z</time>
      </trkpt>
      <trkpt lat="45.83365" lon="6.2969">
        <ele>1823</ele>
        <time>2022-01-06T08:49:34Z</time>
      </trkpt>
      <trkpt lat="45.83365" lon="6.29688">
        <ele>1823</ele>
        <time>2022-01-06T08:49:35Z</time>
      </trkpt>
      <trkpt lat="45.83365" lon="6.29687">
        <ele>1823</ele>
        <time>2022-01-06T08:49:36Z</time>
      </trkpt>
      <trkpt lat="45.83365" lon="6.29686">
        <ele>1824.1</ele>
        <time>2022-01-06T08:49:37Z</time>
      </trkpt>
      <trkpt lat="45.83365" lon="6.29684">
        <ele>1824.1</ele>
        <time>2022-01-06T08:49:38Z</time>
      </trkpt>
      <trkpt lat="45.83366" lon="6.29683">
        <ele>1824.1</ele>
        <time>2022-01-06T08:49:39Z</time>
      </trkpt>
      <trkpt lat="45.83366" lon="6.29682">
        <ele>1824.1</ele>
        <time>2022-01-06T08:49:40Z</time>
      </trkpt>
      <trkpt lat="45.83366" lon="6.29681">
        <ele>1825.2</ele>
        <time>2022-01-06T08:49:41Z</time>
      </trkpt>
      <trkpt lat="45.83366" lon="6.2968">
        <ele>1825.2</ele>
        <time>2022-01-06T08:49:42Z</time>
      </trkpt>
      <trkpt lat="45.83367" lon="6.29679">
        <ele>1825.2</ele>
        <time>2022-01-06T08:49:43Z</time>
      </trkpt>
      <trkpt lat="45.83367" lon="6.29679">
        <ele>1825.2</ele>
        <time>2022-01-06T08:49:44Z</time>
      </trkpt>
      <trkpt lat="45.83368" lon="6.29678">
        <ele>1825.2</ele>
        <time>2022-01-06T08:49:45Z</time>
      </trkpt>
      <trkpt lat="45.83368" lon="6.29677">
        <ele>1825.2</ele>
        <time>2022-01-06T08:49:46Z</time>
      </trkpt>
      <trkpt lat="45.83369" lon="6.29676">
        <ele>1826.1</ele>
        <time>2022-01-06T08:49:47Z</time>
      </trkpt>
      <trkpt lat="45.83369" lon="6.29676">
        <ele>1826.1</ele>
        <time>2022-01-06T08:49:48Z</time>
      </trkpt>
      <trkpt lat="45.83369" lon="6.29676">
        <ele>1826.1</ele>
        <time>2022-01-06T08:49:49Z</time>
      </trkpt>
      <trkpt lat="45.8337" lon="6.29675">
        <ele>1826.1</ele>
        <time>2022-01-06T08:49:50Z</time>
      </trkpt>
      <trkpt lat="45.8337" lon="6.29674">
        <ele>1826.1</ele>
        <time>2022-01-06T08:49:51Z</time>
      </trkpt>
      <trkpt lat="45.83371" lon="6.29674">
        <ele>1826.1</ele>
        <time>2022-01-06T08:49:52Z</time>
      </trkpt>
      <trkpt lat="45.83371" lon="6.29673">
        <ele>1826.1</ele>
        <time>2022-01-06T08:49:53Z</time>
      </trkpt>
      <trkpt lat="45.83372" lon="6.29672">
        <ele>1826.1</ele>
        <time>2022-01-06T08:49:54Z</time>
      </trkpt>
      <trkpt lat="45.83373" lon="6.29671">
        <ele>1829.1</ele>
        <time>2022-01-06T08:49:55Z</time>
      </trkpt>
      <trkpt lat="45.83374" lon="6.29671">
        <ele>1829.1</ele>
        <time>2022-01-06T08:49:56Z</time>
      </trkpt>
      <trkpt lat="45.83374" lon="6.2967">
        <ele>1829.1</ele>
        <time>2022-01-06T08:49:57Z</time>
      </trkpt>
      <trkpt lat="45.83375" lon="6.29669">
        <ele>1829.1</ele>
        <time>2022-01-06T08:49:58Z</time>
      </trkpt>
      <trkpt lat="45.83375" lon="6.29668">
        <ele>1830</ele>
        <time>2022-01-06T08:49:59Z</time>
      </trkpt>
      <trkpt lat="45.83376" lon="6.29667">
        <ele>1830</ele>
        <time>2022-01-06T08:50:00Z</time>
      </trkpt>
      <trkpt lat="45.83376" lon="6.29667">
        <ele>1830</ele>
        <time>2022-01-06T08:50:01Z</time>
      </trkpt>
      <trkpt lat="45.83377" lon="6.29666">
        <ele>1830</ele>
        <time>2022-01-06T08:50:02Z</time>
      </trkpt>
      <trkpt lat="45.83378" lon="6.29665">
        <ele>1831.1</ele>
        <time>2022-01-06T08:50:03Z</time>
      </trkpt>
      <trkpt lat="45.83378" lon="6.29664">
        <ele>1831.1</ele>
        <time>2022-01-06T08:50:04Z</time>
      </trkpt>
      <trkpt lat="45.83378" lon="6.29664">
        <ele>1831.1</ele>
        <time>2022-01-06T08:50:05Z</time>
      </trkpt>
      <trkpt lat="45.83378" lon="6.29663">
        <ele>1831.1</ele>
        <time>2022-01-06T08:50:06Z</time>
      </trkpt>
      <trkpt lat="45.83378" lon="6.29662">
        <ele>1831.1</ele>
        <time>2022-01-06T08:50:07Z</time>
      </trkpt>
      <trkpt lat="45.83378" lon="6.29661">
        <ele>1831.1</ele>
        <time>2022-01-06T08:50:08Z</time>
      </trkpt>
      <trkpt lat="45.83379" lon="6.2966">
        <ele>1831.1</ele>
        <time>2022-01-06T08:50:09Z</time>
      </trkpt>
      <trkpt lat="45.83379" lon="6.29659">
        <ele>1831.1</ele>
        <time>2022-01-06T08:50:10Z</time>
      </trkpt>
      <trkpt lat="45.83379" lon="6.29658">
        <ele>1831.1</ele>
        <time>2022-01-06T08:50:11Z</time>
      </trkpt>
      <trkpt lat="45.83378" lon="6.29658">
        <ele>1831.1</ele>
        <time>2022-01-06T08:50:12Z</time>
      </trkpt>
      <trkpt lat="45.83378" lon="6.29657">
        <ele>1831.1</ele>
        <time>2022-01-06T08:50:13Z</time>
      </trkpt>
      <trkpt lat="45.83377" lon="6.29656">
        <ele>1831.1</ele>
        <time>2022-01-06T08:50:14Z</time>
      </trkpt>
      <trkpt lat="45.83377" lon="6.29656">
        <ele>1833.1</ele>
        <time>2022-01-06T08:50:15Z</time>
      </trkpt>
      <trkpt lat="45.83376" lon="6.29655">
        <ele>1833.1</ele>
        <time>2022-01-06T08:50:16Z</time>
      </trkpt>
      <trkpt lat="45.83376" lon="6.29655">
        <ele>1833.1</ele>
        <time>2022-01-06T08:50:17Z</time>
      </trkpt>
      <trkpt lat="45.83376" lon="6.29654">
        <ele>1833.1</ele>
        <time>2022-01-06T08:50:18Z</time>
      </trkpt>
      <trkpt lat="45.83376" lon="6.29653">
        <ele>1835.1</ele>
        <time>2022-01-06T08:50:19Z</time>
      </trkpt>
      <trkpt lat="45.83376" lon="6.29653">
        <ele>1835.1</ele>
        <time>2022-01-06T08:50:20Z</time>
      </trkpt>
      <trkpt lat="45.83375" lon="6.29652">
        <ele>1835.1</ele>
        <time>2022-01-06T08:50:21Z</time>
      </trkpt>
      <trkpt lat="45.83374" lon="6.29651">
        <ele>1835.1</ele>
        <time>2022-01-06T08:50:22Z</time>
      </trkpt>
      <trkpt lat="45.83374" lon="6.29651">
        <ele>1835.1</ele>
        <time>2022-01-06T08:50:23Z</time>
      </trkpt>
      <trkpt lat="45.83373" lon="6.29651">
        <ele>1835.1</ele>
        <time>2022-01-06T08:50:24Z</time>
      </trkpt>
      <trkpt lat="45.83372" lon="6.29651">
        <ele>1837.1</ele>
        <time>2022-01-06T08:50:25Z</time>
      </trkpt>
      <trkpt lat="45.83372" lon="6.2965">
        <ele>1837.1</ele>
        <time>2022-01-06T08:50:26Z</time>
      </trkpt>
      <trkpt lat="45.83371" lon="6.2965">
        <ele>1837.1</ele>
        <time>2022-01-06T08:50:27Z</time>
      </trkpt>
      <trkpt lat="45.8337" lon="6.2965">
        <ele>1837.1</ele>
        <time>2022-01-06T08:50:28Z</time>
      </trkpt>
      <trkpt lat="45.83369" lon="6.29649">
        <ele>1837.1</ele>
        <time>2022-01-06T08:50:29Z</time>
      </trkpt>
      <trkpt lat="45.83368" lon="6.29648">
        <ele>1837.1</ele>
        <time>2022-01-06T08:50:30Z</time>
      </trkpt>
      <trkpt lat="45.83368" lon="6.29648">
        <ele>1837.1</ele>
        <time>2022-01-06T08:50:31Z</time>
      </trkpt>
      <trkpt lat="45.83367" lon="6.29648">
        <ele>1837.1</ele>
        <time>2022-01-06T08:50:32Z</time>
      </trkpt>
      <trkpt lat="45.83366" lon="6.29647">
        <ele>1839</ele>
        <time>2022-01-06T08:50:33Z</time>
      </trkpt>
      <trkpt lat="45.83366" lon="6.29647">
        <ele>1839</ele>
        <time>2022-01-06T08:50:34Z</time>
      </trkpt>
      <trkpt lat="45.83366" lon="6.29647">
        <ele>1839</ele>
        <time>2022-01-06T08:50:35Z</time>
      </trkpt>
      <trkpt lat="45.83365" lon="6.29646">
        <ele>1839</ele>
        <time>2022-01-06T08:50:36Z</time>
      </trkpt>
      <trkpt lat="45.83365" lon="6.29646">
        <ele>1839</ele>
        <time>2022-01-06T08:50:37Z</time>
      </trkpt>
      <trkpt lat="45.83364" lon="6.29646">
        <ele>1839</ele>
        <time>2022-01-06T08:50:38Z</time>
      </trkpt>
      <trkpt lat="45.83364" lon="6.29645">
        <ele>1840.1</ele>
        <time>2022-01-06T08:50:39Z</time>
      </trkpt>
      <trkpt lat="45.83363" lon="6.29645">
        <ele>1840.1</ele>
        <time>2022-01-06T08:50:40Z</time>
      </trkpt>
      <trkpt lat="45.83363" lon="6.29645">
        <ele>1841</ele>
        <time>2022-01-06T08:50:41Z</time>
      </trkpt>
      <trkpt lat="45.83362" lon="6.29644">
        <ele>1841</ele>
        <time>2022-01-06T08:50:42Z</time>
      </trkpt>
      <trkpt lat="45.83362" lon="6.29644">
        <ele>1841</ele>
        <time>2022-01-06T08:50:43Z</time>
      </trkpt>
      <trkpt lat="45.83361" lon="6.29644">
        <ele>1841</ele>
        <time>2022-01-06T08:50:44Z</time>
      </trkpt>
      <trkpt lat="45.8336" lon="6.29644">
        <ele>1842.1</ele>
        <time>2022-01-06T08:50:45Z</time>
      </trkpt>
      <trkpt lat="45.8336" lon="6.29643">
        <ele>1842.1</ele>
        <time>2022-01-06T08:50:46Z</time>
      </trkpt>
      <trkpt lat="45.8336" lon="6.29643">
        <ele>1842.1</ele>
        <time>2022-01-06T08:50:47Z</time>
      </trkpt>
      <trkpt lat="45.83359" lon="6.29643">
        <ele>1842.1</ele>
        <time>2022-01-06T08:50:48Z</time>
      </trkpt>
      <trkpt lat="45.83359" lon="6.29642">
        <ele>1842.1</ele>
        <time>2022-01-06T08:50:49Z</time>
      </trkpt>
      <trkpt lat="45.83359" lon="6.29642">
        <ele>1842.1</ele>
        <time>2022-01-06T08:50:50Z</time>
      </trkpt>
      <trkpt lat="45.83358" lon="6.29642">
        <ele>1842.1</ele>
        <time>2022-01-06T08:50:51Z</time>
      </trkpt>
      <trkpt lat="45.83357" lon="6.29642">
        <ele>1842.1</ele>
        <time>2022-01-06T08:50:52Z</time>
      </trkpt>
      <trkpt lat="45.83357" lon="6.29641">
        <ele>1843.1</ele>
        <time>2022-01-06T08:50:53Z</time>
      </trkpt>
      <trkpt lat="45.83356" lon="6.29641">
        <ele>1843.1</ele>
        <time>2022-01-06T08:50:54Z</time>
      </trkpt>
      <trkpt lat="45.83356" lon="6.2964">
        <ele>1843.1</ele>
        <time>2022-01-06T08:50:55Z</time>
      </trkpt>
      <trkpt lat="45.83356" lon="6.2964">
        <ele>1843.1</ele>
        <time>2022-01-06T08:50:56Z</time>
      </trkpt>
      <trkpt lat="45.83356" lon="6.29639">
        <ele>1844.1</ele>
        <time>2022-01-06T08:50:57Z</time>
      </trkpt>
      <trkpt lat="45.83356" lon="6.29638">
        <ele>1844.1</ele>
        <time>2022-01-06T08:50:58Z</time>
      </trkpt>
      <trkpt lat="45.83356" lon="6.29638">
        <ele>1844.1</ele>
        <time>2022-01-06T08:50:59Z</time>
      </trkpt>
      <trkpt lat="45.83356" lon="6.29637">
        <ele>1844.1</ele>
        <time>2022-01-06T08:51:00Z</time>
      </trkpt>
      <trkpt lat="45.83356" lon="6.29637">
        <ele>1845.1</ele>
        <time>2022-01-06T08:51:01Z</time>
      </trkpt>
      <trkpt lat="45.83356" lon="6.29636">
        <ele>1845.1</ele>
        <time>2022-01-06T08:51:02Z</time>
      </trkpt>
      <trkpt lat="45.83357" lon="6.29635">
        <ele>1845.1</ele>
        <time>2022-01-06T08:51:03Z</time>
      </trkpt>
      <trkpt lat="45.83357" lon="6.29635">
        <ele>1845.1</ele>
        <time>2022-01-06T08:51:04Z</time>
      </trkpt>
      <trkpt lat="45.83357" lon="6.29634">
        <ele>1846</ele>
        <time>2022-01-06T08:51:05Z</time>
      </trkpt>
      <trkpt lat="45.83358" lon="6.29633">
        <ele>1846</ele>
        <time>2022-01-06T08:51:06Z</time>
      </trkpt>
      <trkpt lat="45.83358" lon="6.29632">
        <ele>1846</ele>
        <time>2022-01-06T08:51:07Z</time>
      </trkpt>
      <trkpt lat="45.83358" lon="6.29631">
        <ele>1846</ele>
        <time>2022-01-06T08:51:08Z</time>
      </trkpt>
      <trkpt lat="45.83358" lon="6.2963">
        <ele>1847.1</ele>
        <time>2022-01-06T08:51:09Z</time>
      </trkpt>
      <trkpt lat="45.83358" lon="6.29629">
        <ele>1847.1</ele>
        <time>2022-01-06T08:51:10Z</time>
      </trkpt>
      <trkpt lat="45.83359" lon="6.29628">
        <ele>1847.1</ele>
        <time>2022-01-06T08:51:11Z</time>
      </trkpt>
      <trkpt lat="45.83359" lon="6.29628">
        <ele>1847.1</ele>
        <time>2022-01-06T08:51:12Z</time>
      </trkpt>
      <trkpt lat="45.83359" lon="6.29626">
        <ele>1847.1</ele>
        <time>2022-01-06T08:51:13Z</time>
      </trkpt>
      <trkpt lat="45.83359" lon="6.29626">
        <ele>1847.1</ele>
        <time>2022-01-06T08:51:14Z</time>
      </trkpt>
      <trkpt lat="45.8336" lon="6.29625">
        <ele>1848</ele>
        <time>2022-01-06T08:51:15Z</time>
      </trkpt>
      <trkpt lat="45.83361" lon="6.29624">
        <ele>1848</ele>
        <time>2022-01-06T08:51:16Z</time>
      </trkpt>
      <trkpt lat="45.83362" lon="6.29623">
        <ele>1848</ele>
        <time>2022-01-06T08:51:17Z</time>
      </trkpt>
      <trkpt lat="45.83362" lon="6.29623">
        <ele>1848</ele>
        <time>2022-01-06T08:51:18Z</time>
      </trkpt>
      <trkpt lat="45.83362" lon="6.29622">
        <ele>1848</ele>
        <time>2022-01-06T08:51:19Z</time>
      </trkpt>
      <trkpt lat="45.83363" lon="6.29621">
        <ele>1848</ele>
        <time>2022-01-06T08:51:20Z</time>
      </trkpt>
      <trkpt lat="45.83363" lon="6.2962">
        <ele>1848</ele>
        <time>2022-01-06T08:51:21Z</time>
      </trkpt>
      <trkpt lat="45.83363" lon="6.29619">
        <ele>1848</ele>
        <time>2022-01-06T08:51:22Z</time>
      </trkpt>
      <trkpt lat="45.83363" lon="6.29618">
        <ele>1849.1</ele>
        <time>2022-01-06T08:51:23Z</time>
      </trkpt>
      <trkpt lat="45.83364" lon="6.29617">
        <ele>1849.1</ele>
        <time>2022-01-06T08:51:24Z</time>
      </trkpt>
      <trkpt lat="45.83364" lon="6.29616">
        <ele>1849.1</ele>
        <time>2022-01-06T08:51:25Z</time>
      </trkpt>
      <trkpt lat="45.83364" lon="6.29615">
        <ele>1849.1</ele>
        <time>2022-01-06T08:51:26Z</time>
      </trkpt>
      <trkpt lat="45.83363" lon="6.29614">
        <ele>1850.2</ele>
        <time>2022-01-06T08:51:27Z</time>
      </trkpt>
      <trkpt lat="45.83363" lon="6.29614">
        <ele>1850.2</ele>
        <time>2022-01-06T08:51:28Z</time>
      </trkpt>
      <trkpt lat="45.83362" lon="6.29613">
        <ele>1850.2</ele>
        <time>2022-01-06T08:51:29Z</time>
      </trkpt>
      <trkpt lat="45.83362" lon="6.29612">
        <ele>1850.2</ele>
        <time>2022-01-06T08:51:30Z</time>
      </trkpt>
      <trkpt lat="45.83361" lon="6.29612">
        <ele>1851.1</ele>
        <time>2022-01-06T08:51:31Z</time>
      </trkpt>
      <trkpt lat="45.83361" lon="6.29612">
        <ele>1851.1</ele>
        <time>2022-01-06T08:51:32Z</time>
      </trkpt>
      <trkpt lat="45.83361" lon="6.29611">
        <ele>1851.1</ele>
        <time>2022-01-06T08:51:33Z</time>
      </trkpt>
      <trkpt lat="45.8336" lon="6.29611">
        <ele>1851.1</ele>
        <time>2022-01-06T08:51:34Z</time>
      </trkpt>
      <trkpt lat="45.83359" lon="6.29611">
        <ele>1851.1</ele>
        <time>2022-01-06T08:51:35Z</time>
      </trkpt>
      <trkpt lat="45.83358" lon="6.2961">
        <ele>1851.1</ele>
        <time>2022-01-06T08:51:36Z</time>
      </trkpt>
      <trkpt lat="45.83358" lon="6.2961">
        <ele>1852.1</ele>
        <time>2022-01-06T08:51:37Z</time>
      </trkpt>
      <trkpt lat="45.83357" lon="6.29609">
        <ele>1852.1</ele>
        <time>2022-01-06T08:51:38Z</time>
      </trkpt>
      <trkpt lat="45.83357" lon="6.29609">
        <ele>1852.1</ele>
        <time>2022-01-06T08:51:39Z</time>
      </trkpt>
      <trkpt lat="45.83357" lon="6.29608">
        <ele>1852.1</ele>
        <time>2022-01-06T08:51:40Z</time>
      </trkpt>
      <trkpt lat="45.83356" lon="6.29608">
        <ele>1853.1</ele>
        <time>2022-01-06T08:51:41Z</time>
      </trkpt>
      <trkpt lat="45.83355" lon="6.29607">
        <ele>1853.1</ele>
        <time>2022-01-06T08:51:42Z</time>
      </trkpt>
      <trkpt lat="45.83355" lon="6.29607">
        <ele>1853.1</ele>
        <time>2022-01-06T08:51:43Z</time>
      </trkpt>
      <trkpt lat="45.83354" lon="6.29607">
        <ele>1853.1</ele>
        <time>2022-01-06T08:51:44Z</time>
      </trkpt>
      <trkpt lat="45.83353" lon="6.29608">
        <ele>1853.1</ele>
        <time>2022-01-06T08:51:45Z</time>
      </trkpt>
      <trkpt lat="45.83352" lon="6.29607">
        <ele>1853.1</ele>
        <time>2022-01-06T08:51:46Z</time>
      </trkpt>
      <trkpt lat="45.83352" lon="6.29608">
        <ele>1854.1</ele>
        <time>2022-01-06T08:51:47Z</time>
      </trkpt>
      <trkpt lat="45.83351" lon="6.29607">
        <ele>1854.1</ele>
        <time>2022-01-06T08:51:48Z</time>
      </trkpt>
      <trkpt lat="45.83349" lon="6.29608">
        <ele>1854.1</ele>
        <time>2022-01-06T08:51:49Z</time>
      </trkpt>
      <trkpt lat="45.83347" lon="6.29608">
        <ele>1854.1</ele>
        <time>2022-01-06T08:51:50Z</time>
      </trkpt>
      <trkpt lat="45.83347" lon="6.29607">
        <ele>1855</ele>
        <time>2022-01-06T08:51:51Z</time>
      </trkpt>
      <trkpt lat="45.83347" lon="6.29607">
        <ele>1855</ele>
        <time>2022-01-06T08:51:52Z</time>
      </trkpt>
      <trkpt lat="45.83347" lon="6.29606">
        <ele>1855</ele>
        <time>2022-01-06T08:51:53Z</time>
      </trkpt>
      <trkpt lat="45.83346" lon="6.29606">
        <ele>1855</ele>
        <time>2022-01-06T08:51:54Z</time>
      </trkpt>
      <trkpt lat="45.83346" lon="6.29605">
        <ele>1856.1</ele>
        <time>2022-01-06T08:51:55Z</time>
      </trkpt>
      <trkpt lat="45.83345" lon="6.29606">
        <ele>1856.1</ele>
        <time>2022-01-06T08:51:56Z</time>
      </trkpt>
      <trkpt lat="45.83345" lon="6.29605">
        <ele>1856.1</ele>
        <time>2022-01-06T08:51:57Z</time>
      </trkpt>
      <trkpt lat="45.83345" lon="6.29605">
        <ele>1856.1</ele>
        <time>2022-01-06T08:51:58Z</time>
      </trkpt>
      <trkpt lat="45.83344" lon="6.29605">
        <ele>1856.1</ele>
        <time>2022-01-06T08:51:59Z</time>
      </trkpt>
      <trkpt lat="45.83344" lon="6.29604">
        <ele>1856.1</ele>
        <time>2022-01-06T08:52:00Z</time>
      </trkpt>
      <trkpt lat="45.83343" lon="6.29603">
        <ele>1856.1</ele>
        <time>2022-01-06T08:52:01Z</time>
      </trkpt>
      <trkpt lat="45.83342" lon="6.29603">
        <ele>1856.1</ele>
        <time>2022-01-06T08:52:02Z</time>
      </trkpt>
      <trkpt lat="45.83341" lon="6.29603">
        <ele>1857</ele>
        <time>2022-01-06T08:52:03Z</time>
      </trkpt>
      <trkpt lat="45.8334" lon="6.29602">
        <ele>1857</ele>
        <time>2022-01-06T08:52:04Z</time>
      </trkpt>
      <trkpt lat="45.83338" lon="6.29601">
        <ele>1857</ele>
        <time>2022-01-06T08:52:05Z</time>
      </trkpt>
      <trkpt lat="45.83338" lon="6.296">
        <ele>1857</ele>
        <time>2022-01-06T08:52:06Z</time>
      </trkpt>
      <trkpt lat="45.83337" lon="6.296">
        <ele>1858.1</ele>
        <time>2022-01-06T08:52:07Z</time>
      </trkpt>
      <trkpt lat="45.83337" lon="6.29599">
        <ele>1858.1</ele>
        <time>2022-01-06T08:52:08Z</time>
      </trkpt>
      <trkpt lat="45.83336" lon="6.29599">
        <ele>1858.1</ele>
        <time>2022-01-06T08:52:09Z</time>
      </trkpt>
      <trkpt lat="45.83336" lon="6.29598">
        <ele>1858.1</ele>
        <time>2022-01-06T08:52:10Z</time>
      </trkpt>
      <trkpt lat="45.83335" lon="6.29598">
        <ele>1859.2</ele>
        <time>2022-01-06T08:52:11Z</time>
      </trkpt>
      <trkpt lat="45.83335" lon="6.29597">
        <ele>1859.2</ele>
        <time>2022-01-06T08:52:12Z</time>
      </trkpt>
      <trkpt lat="45.83335" lon="6.29596">
        <ele>1859.2</ele>
        <time>2022-01-06T08:52:13Z</time>
      </trkpt>
      <trkpt lat="45.83334" lon="6.29596">
        <ele>1859.2</ele>
        <time>2022-01-06T08:52:14Z</time>
      </trkpt>
      <trkpt lat="45.83333" lon="6.29595">
        <ele>1860.1</ele>
        <time>2022-01-06T08:52:15Z</time>
      </trkpt>
      <trkpt lat="45.83333" lon="6.29595">
        <ele>1860.1</ele>
        <time>2022-01-06T08:52:16Z</time>
      </trkpt>
      <trkpt lat="45.83332" lon="6.29594">
        <ele>1860.1</ele>
        <time>2022-01-06T08:52:17Z</time>
      </trkpt>
      <trkpt lat="45.83332" lon="6.29594">
        <ele>1860.1</ele>
        <time>2022-01-06T08:52:18Z</time>
      </trkpt>
      <trkpt lat="45.83332" lon="6.29593">
        <ele>1861.1</ele>
        <time>2022-01-06T08:52:19Z</time>
      </trkpt>
      <trkpt lat="45.83332" lon="6.29592">
        <ele>1861.1</ele>
        <time>2022-01-06T08:52:20Z</time>
      </trkpt>
      <trkpt lat="45.83332" lon="6.29592">
        <ele>1861.1</ele>
        <time>2022-01-06T08:52:21Z</time>
      </trkpt>
      <trkpt lat="45.8333" lon="6.29591">
        <ele>1861.1</ele>
        <time>2022-01-06T08:52:22Z</time>
      </trkpt>
      <trkpt lat="45.8333" lon="6.29591">
        <ele>1861.1</ele>
        <time>2022-01-06T08:52:23Z</time>
      </trkpt>
      <trkpt lat="45.83329" lon="6.29591">
        <ele>1861.1</ele>
        <time>2022-01-06T08:52:24Z</time>
      </trkpt>
      <trkpt lat="45.83329" lon="6.2959">
        <ele>1862</ele>
        <time>2022-01-06T08:52:25Z</time>
      </trkpt>
      <trkpt lat="45.83329" lon="6.29589">
        <ele>1862</ele>
        <time>2022-01-06T08:52:26Z</time>
      </trkpt>
      <trkpt lat="45.83328" lon="6.29589">
        <ele>1862</ele>
        <time>2022-01-06T08:52:27Z</time>
      </trkpt>
      <trkpt lat="45.83328" lon="6.29588">
        <ele>1862</ele>
        <time>2022-01-06T08:52:28Z</time>
      </trkpt>
      <trkpt lat="45.83328" lon="6.29588">
        <ele>1862</ele>
        <time>2022-01-06T08:52:29Z</time>
      </trkpt>
      <trkpt lat="45.83328" lon="6.29587">
        <ele>1862</ele>
        <time>2022-01-06T08:52:30Z</time>
      </trkpt>
      <trkpt lat="45.83327" lon="6.29587">
        <ele>1862</ele>
        <time>2022-01-06T08:52:31Z</time>
      </trkpt>
      <trkpt lat="45.83327" lon="6.29586">
        <ele>1862</ele>
        <time>2022-01-06T08:52:32Z</time>
      </trkpt>
      <trkpt lat="45.83326" lon="6.29586">
        <ele>1865.1</ele>
        <time>2022-01-06T08:52:33Z</time>
      </trkpt>
      <trkpt lat="45.83326" lon="6.29586">
        <ele>1865.1</ele>
        <time>2022-01-06T08:52:34Z</time>
      </trkpt>
      <trkpt lat="45.83325" lon="6.29585">
        <ele>1865.1</ele>
        <time>2022-01-06T08:52:35Z</time>
      </trkpt>
      <trkpt lat="45.83324" lon="6.29585">
        <ele>1865.1</ele>
        <time>2022-01-06T08:52:36Z</time>
      </trkpt>
      <trkpt lat="45.83324" lon="6.29585">
        <ele>1865.1</ele>
        <time>2022-01-06T08:52:37Z</time>
      </trkpt>
      <trkpt lat="45.83323" lon="6.29585">
        <ele>1865.1</ele>
        <time>2022-01-06T08:52:38Z</time>
      </trkpt>
      <trkpt lat="45.83322" lon="6.29584">
        <ele>1866.2</ele>
        <time>2022-01-06T08:52:39Z</time>
      </trkpt>
      <trkpt lat="45.83322" lon="6.29583">
        <ele>1866.2</ele>
        <time>2022-01-06T08:52:40Z</time>
      </trkpt>
      <trkpt lat="45.83322" lon="6.29583">
        <ele>1866.2</ele>
        <time>2022-01-06T08:52:41Z</time>
      </trkpt>
      <trkpt lat="45.83321" lon="6.29582">
        <ele>1866.2</ele>
        <time>2022-01-06T08:52:42Z</time>
      </trkpt>
      <trkpt lat="45.83321" lon="6.29581">
        <ele>1867.1</ele>
        <time>2022-01-06T08:52:43Z</time>
      </trkpt>
      <trkpt lat="45.83321" lon="6.29581">
        <ele>1867.1</ele>
        <time>2022-01-06T08:52:44Z</time>
      </trkpt>
      <trkpt lat="45.83321" lon="6.29581">
        <ele>1867.1</ele>
        <time>2022-01-06T08:52:45Z</time>
      </trkpt>
      <trkpt lat="45.83322" lon="6.2958">
        <ele>1867.1</ele>
        <time>2022-01-06T08:52:46Z</time>
      </trkpt>
      <trkpt lat="45.83322" lon="6.2958">
        <ele>1868.1</ele>
        <time>2022-01-06T08:52:47Z</time>
      </trkpt>
      <trkpt lat="45.83322" lon="6.29579">
        <ele>1868.1</ele>
        <time>2022-01-06T08:52:48Z</time>
      </trkpt>
      <trkpt lat="45.83323" lon="6.29579">
        <ele>1868.1</ele>
        <time>2022-01-06T08:52:49Z</time>
      </trkpt>
      <trkpt lat="45.83323" lon="6.29578">
        <ele>1868.1</ele>
        <time>2022-01-06T08:52:50Z</time>
      </trkpt>
      <trkpt lat="45.83323" lon="6.29577">
        <ele>1869.1</ele>
        <time>2022-01-06T08:52:51Z</time>
      </trkpt>
      <trkpt lat="45.83324" lon="6.29577">
        <ele>1869.1</ele>
        <time>2022-01-06T08:52:52Z</time>
      </trkpt>
      <trkpt lat="45.83324" lon="6.29576">
        <ele>1869.1</ele>
        <time>2022-01-06T08:52:53Z</time>
      </trkpt>
      <trkpt lat="45.83324" lon="6.29575">
        <ele>1869.1</ele>
        <time>2022-01-06T08:52:54Z</time>
      </trkpt>
      <trkpt lat="45.83324" lon="6.29575">
        <ele>1870.1</ele>
        <time>2022-01-06T08:52:55Z</time>
      </trkpt>
      <trkpt lat="45.83324" lon="6.29575">
        <ele>1870.1</ele>
        <time>2022-01-06T08:52:56Z</time>
      </trkpt>
      <trkpt lat="45.83324" lon="6.29574">
        <ele>1870.1</ele>
        <time>2022-01-06T08:52:57Z</time>
      </trkpt>
      <trkpt lat="45.83324" lon="6.29574">
        <ele>1870.1</ele>
        <time>2022-01-06T08:52:58Z</time>
      </trkpt>
      <trkpt lat="45.83324" lon="6.29574">
        <ele>1870.1</ele>
        <time>2022-01-06T08:52:59Z</time>
      </trkpt>
      <trkpt lat="45.83324" lon="6.29574">
        <ele>1870.1</ele>
        <time>2022-01-06T08:53:00Z</time>
      </trkpt>
      <trkpt lat="45.83324" lon="6.29574">
        <ele>1870.1</ele>
        <time>2022-01-06T08:53:01Z</time>
      </trkpt>
      <trkpt lat="45.83323" lon="6.29574">
        <ele>1870.1</ele>
        <time>2022-01-06T08:53:02Z</time>
      </trkpt>
      <trkpt lat="45.83323" lon="6.29574">
        <ele>1870.1</ele>
        <time>2022-01-06T08:53:03Z</time>
      </trkpt>
      <trkpt lat="45.83322" lon="6.29573">
        <ele>1870.1</ele>
        <time>2022-01-06T08:53:04Z</time>
      </trkpt>
      <trkpt lat="45.83322" lon="6.29573">
        <ele>1871</ele>
        <time>2022-01-06T08:53:05Z</time>
      </trkpt>
      <trkpt lat="45.8332" lon="6.29572">
        <ele>1871</ele>
        <time>2022-01-06T08:53:06Z</time>
      </trkpt>
      <trkpt lat="45.8332" lon="6.29572">
        <ele>1871</ele>
        <time>2022-01-06T08:53:07Z</time>
      </trkpt>
      <trkpt lat="45.8332" lon="6.29571">
        <ele>1871</ele>
        <time>2022-01-06T08:53:08Z</time>
      </trkpt>
      <trkpt lat="45.8332" lon="6.2957">
        <ele>1872.1</ele>
        <time>2022-01-06T08:53:09Z</time>
      </trkpt>
      <trkpt lat="45.83319" lon="6.2957">
        <ele>1872.1</ele>
        <time>2022-01-06T08:53:10Z</time>
      </trkpt>
      <trkpt lat="45.83319" lon="6.29569">
        <ele>1872.1</ele>
        <time>2022-01-06T08:53:11Z</time>
      </trkpt>
      <trkpt lat="45.83319" lon="6.29568">
        <ele>1872.1</ele>
        <time>2022-01-06T08:53:12Z</time>
      </trkpt>
      <trkpt lat="45.83319" lon="6.29568">
        <ele>1873</ele>
        <time>2022-01-06T08:53:13Z</time>
      </trkpt>
      <trkpt lat="45.83318" lon="6.29568">
        <ele>1873</ele>
        <time>2022-01-06T08:53:14Z</time>
      </trkpt>
      <trkpt lat="45.83318" lon="6.29568">
        <ele>1873</ele>
        <time>2022-01-06T08:53:15Z</time>
      </trkpt>
      <trkpt lat="45.83318" lon="6.29567">
        <ele>1873</ele>
        <time>2022-01-06T08:53:16Z</time>
      </trkpt>
      <trkpt lat="45.83318" lon="6.29567">
        <ele>1874.1</ele>
        <time>2022-01-06T08:53:17Z</time>
      </trkpt>
      <trkpt lat="45.83319" lon="6.29566">
        <ele>1874.1</ele>
        <time>2022-01-06T08:53:18Z</time>
      </trkpt>
      <trkpt lat="45.83319" lon="6.29566">
        <ele>1874.1</ele>
        <time>2022-01-06T08:53:19Z</time>
      </trkpt>
      <trkpt lat="45.83319" lon="6.29565">
        <ele>1874.1</ele>
        <time>2022-01-06T08:53:20Z</time>
      </trkpt>
      <trkpt lat="45.83319" lon="6.29565">
        <ele>1874.1</ele>
        <time>2022-01-06T08:53:21Z</time>
      </trkpt>
      <trkpt lat="45.8332" lon="6.29564">
        <ele>1874.1</ele>
        <time>2022-01-06T08:53:22Z</time>
      </trkpt>
      <trkpt lat="45.8332" lon="6.29564">
        <ele>1875.2</ele>
        <time>2022-01-06T08:53:23Z</time>
      </trkpt>
      <trkpt lat="45.83321" lon="6.29563">
        <ele>1875.2</ele>
        <time>2022-01-06T08:53:24Z</time>
      </trkpt>
      <trkpt lat="45.83322" lon="6.29563">
        <ele>1875.2</ele>
        <time>2022-01-06T08:53:25Z</time>
      </trkpt>
      <trkpt lat="45.83322" lon="6.29562">
        <ele>1875.2</ele>
        <time>2022-01-06T08:53:26Z</time>
      </trkpt>
      <trkpt lat="45.83323" lon="6.29562">
        <ele>1876.1</ele>
        <time>2022-01-06T08:53:27Z</time>
      </trkpt>
      <trkpt lat="45.83323" lon="6.29561">
        <ele>1876.1</ele>
        <time>2022-01-06T08:53:28Z</time>
      </trkpt>
      <trkpt lat="45.83324" lon="6.29561">
        <ele>1876.1</ele>
        <time>2022-01-06T08:53:29Z</time>
      </trkpt>
      <trkpt lat="45.83324" lon="6.2956">
        <ele>1876.1</ele>
        <time>2022-01-06T08:53:30Z</time>
      </trkpt>
      <trkpt lat="45.83324" lon="6.2956">
        <ele>1877.1</ele>
        <time>2022-01-06T08:53:31Z</time>
      </trkpt>
      <trkpt lat="45.83325" lon="6.2956">
        <ele>1877.1</ele>
        <time>2022-01-06T08:53:32Z</time>
      </trkpt>
      <trkpt lat="45.83325" lon="6.29559">
        <ele>1877.1</ele>
        <time>2022-01-06T08:53:33Z</time>
      </trkpt>
      <trkpt lat="45.83326" lon="6.29558">
        <ele>1877.1</ele>
        <time>2022-01-06T08:53:34Z</time>
      </trkpt>
      <trkpt lat="45.83326" lon="6.29558">
        <ele>1878</ele>
        <time>2022-01-06T08:53:35Z</time>
      </trkpt>
      <trkpt lat="45.83327" lon="6.29558">
        <ele>1878</ele>
        <time>2022-01-06T08:53:36Z</time>
      </trkpt>
      <trkpt lat="45.83328" lon="6.29557">
        <ele>1878</ele>
        <time>2022-01-06T08:53:37Z</time>
      </trkpt>
      <trkpt lat="45.83328" lon="6.29557">
        <ele>1878</ele>
        <time>2022-01-06T08:53:38Z</time>
      </trkpt>
      <trkpt lat="45.83329" lon="6.29556">
        <ele>1878</ele>
        <time>2022-01-06T08:53:39Z</time>
      </trkpt>
      <trkpt lat="45.83329" lon="6.29555">
        <ele>1878</ele>
        <time>2022-01-06T08:53:40Z</time>
      </trkpt>
      <trkpt lat="45.83329" lon="6.29555">
        <ele>1879.1</ele>
        <time>2022-01-06T08:53:41Z</time>
      </trkpt>
      <trkpt lat="45.8333" lon="6.29554">
        <ele>1879.1</ele>
        <time>2022-01-06T08:53:42Z</time>
      </trkpt>
      <trkpt lat="45.8333" lon="6.29554">
        <ele>1879.1</ele>
        <time>2022-01-06T08:53:43Z</time>
      </trkpt>
      <trkpt lat="45.8333" lon="6.29554">
        <ele>1879.1</ele>
        <time>2022-01-06T08:53:44Z</time>
      </trkpt>
      <trkpt lat="45.83329" lon="6.29554">
        <ele>1880</ele>
        <time>2022-01-06T08:53:45Z</time>
      </trkpt>
      <trkpt lat="45.83329" lon="6.29554">
        <ele>1880</ele>
        <time>2022-01-06T08:53:46Z</time>
      </trkpt>
      <trkpt lat="45.83329" lon="6.29554">
        <ele>1880</ele>
        <time>2022-01-06T08:53:47Z</time>
      </trkpt>
      <trkpt lat="45.83328" lon="6.29554">
        <ele>1880</ele>
        <time>2022-01-06T08:53:48Z</time>
      </trkpt>
      <trkpt lat="45.83328" lon="6.29553">
        <ele>1880</ele>
        <time>2022-01-06T08:53:49Z</time>
      </trkpt>
      <trkpt lat="45.83328" lon="6.29553">
        <ele>1880</ele>
        <time>2022-01-06T08:53:50Z</time>
      </trkpt>
      <trkpt lat="45.83327" lon="6.29552">
        <ele>1880</ele>
        <time>2022-01-06T08:53:51Z</time>
      </trkpt>
      <trkpt lat="45.83326" lon="6.29552">
        <ele>1880</ele>
        <time>2022-01-06T08:53:52Z</time>
      </trkpt>
      <trkpt lat="45.83326" lon="6.29551">
        <ele>1881.1</ele>
        <time>2022-01-06T08:53:53Z</time>
      </trkpt>
      <trkpt lat="45.83325" lon="6.2955">
        <ele>1881.1</ele>
        <time>2022-01-06T08:53:54Z</time>
      </trkpt>
      <trkpt lat="45.83324" lon="6.2955">
        <ele>1881.1</ele>
        <time>2022-01-06T08:53:55Z</time>
      </trkpt>
      <trkpt lat="45.83324" lon="6.29549">
        <ele>1881.1</ele>
        <time>2022-01-06T08:53:56Z</time>
      </trkpt>
      <trkpt lat="45.83323" lon="6.29548">
        <ele>1881.1</ele>
        <time>2022-01-06T08:53:57Z</time>
      </trkpt>
      <trkpt lat="45.83322" lon="6.29548">
        <ele>1881.1</ele>
        <time>2022-01-06T08:53:58Z</time>
      </trkpt>
      <trkpt lat="45.83321" lon="6.29548">
        <ele>1882.2</ele>
        <time>2022-01-06T08:53:59Z</time>
      </trkpt>
      <trkpt lat="45.83321" lon="6.29547">
        <ele>1882.2</ele>
        <time>2022-01-06T08:54:00Z</time>
      </trkpt>
      <trkpt lat="45.83321" lon="6.29547">
        <ele>1882.2</ele>
        <time>2022-01-06T08:54:01Z</time>
      </trkpt>
      <trkpt lat="45.8332" lon="6.29546">
        <ele>1882.2</ele>
        <time>2022-01-06T08:54:02Z</time>
      </trkpt>
      <trkpt lat="45.8332" lon="6.29546">
        <ele>1883.1</ele>
        <time>2022-01-06T08:54:03Z</time>
      </trkpt>
      <trkpt lat="45.83319" lon="6.29546">
        <ele>1883.1</ele>
        <time>2022-01-06T08:54:04Z</time>
      </trkpt>
      <trkpt lat="45.83319" lon="6.29545">
        <ele>1883.1</ele>
        <time>2022-01-06T08:54:05Z</time>
      </trkpt>
      <trkpt lat="45.83319" lon="6.29544">
        <ele>1883.1</ele>
        <time>2022-01-06T08:54:06Z</time>
      </trkpt>
      <trkpt lat="45.83318" lon="6.29543">
        <ele>1883.1</ele>
        <time>2022-01-06T08:54:07Z</time>
      </trkpt>
      <trkpt lat="45.83317" lon="6.29543">
        <ele>1883.1</ele>
        <time>2022-01-06T08:54:08Z</time>
      </trkpt>
      <trkpt lat="45.83317" lon="6.29542">
        <ele>1883.1</ele>
        <time>2022-01-06T08:54:09Z</time>
      </trkpt>
      <trkpt lat="45.83316" lon="6.29541">
        <ele>1883.1</ele>
        <time>2022-01-06T08:54:10Z</time>
      </trkpt>
      <trkpt lat="45.83316" lon="6.2954">
        <ele>1886.1</ele>
        <time>2022-01-06T08:54:11Z</time>
      </trkpt>
      <trkpt lat="45.83316" lon="6.29539">
        <ele>1886.1</ele>
        <time>2022-01-06T08:54:12Z</time>
      </trkpt>
      <trkpt lat="45.83315" lon="6.29538">
        <ele>1886.1</ele>
        <time>2022-01-06T08:54:13Z</time>
      </trkpt>
      <trkpt lat="45.83315" lon="6.29537">
        <ele>1886.1</ele>
        <time>2022-01-06T08:54:14Z</time>
      </trkpt>
      <trkpt lat="45.83314" lon="6.29537">
        <ele>1886.1</ele>
        <time>2022-01-06T08:54:15Z</time>
      </trkpt>
      <trkpt lat="45.83314" lon="6.29536">
        <ele>1886.1</ele>
        <time>2022-01-06T08:54:16Z</time>
      </trkpt>
      <trkpt lat="45.83313" lon="6.29535">
        <ele>1887</ele>
        <time>2022-01-06T08:54:17Z</time>
      </trkpt>
      <trkpt lat="45.83312" lon="6.29534">
        <ele>1887</ele>
        <time>2022-01-06T08:54:18Z</time>
      </trkpt>
      <trkpt lat="45.83312" lon="6.29534">
        <ele>1887</ele>
        <time>2022-01-06T08:54:19Z</time>
      </trkpt>
      <trkpt lat="45.83311" lon="6.29533">
        <ele>1887</ele>
        <time>2022-01-06T08:54:20Z</time>
      </trkpt>
      <trkpt lat="45.8331" lon="6.29532">
        <ele>1887</ele>
        <time>2022-01-06T08:54:21Z</time>
      </trkpt>
      <trkpt lat="45.8331" lon="6.29531">
        <ele>1887</ele>
        <time>2022-01-06T08:54:22Z</time>
      </trkpt>
      <trkpt lat="45.8331" lon="6.29531">
        <ele>1888.1</ele>
        <time>2022-01-06T08:54:23Z</time>
      </trkpt>
      <trkpt lat="45.83309" lon="6.2953">
        <ele>1888.1</ele>
        <time>2022-01-06T08:54:24Z</time>
      </trkpt>
      <trkpt lat="45.83309" lon="6.29529">
        <ele>1888.1</ele>
        <time>2022-01-06T08:54:25Z</time>
      </trkpt>
      <trkpt lat="45.83309" lon="6.29529">
        <ele>1888.1</ele>
        <time>2022-01-06T08:54:26Z</time>
      </trkpt>
      <trkpt lat="45.83308" lon="6.29529">
        <ele>1889</ele>
        <time>2022-01-06T08:54:27Z</time>
      </trkpt>
      <trkpt lat="45.83307" lon="6.29528">
        <ele>1889</ele>
        <time>2022-01-06T08:54:28Z</time>
      </trkpt>
      <trkpt lat="45.83307" lon="6.29527">
        <ele>1889</ele>
        <time>2022-01-06T08:54:29Z</time>
      </trkpt>
      <trkpt lat="45.83306" lon="6.29526">
        <ele>1889</ele>
        <time>2022-01-06T08:54:30Z</time>
      </trkpt>
      <trkpt lat="45.83305" lon="6.29526">
        <ele>1890.1</ele>
        <time>2022-01-06T08:54:31Z</time>
      </trkpt>
      <trkpt lat="45.83304" lon="6.29525">
        <ele>1890.1</ele>
        <time>2022-01-06T08:54:32Z</time>
      </trkpt>
      <trkpt lat="45.83303" lon="6.29525">
        <ele>1891.2</ele>
        <time>2022-01-06T08:54:33Z</time>
      </trkpt>
      <trkpt lat="45.83302" lon="6.29525">
        <ele>1891.2</ele>
        <time>2022-01-06T08:54:34Z</time>
      </trkpt>
      <trkpt lat="45.83302" lon="6.29524">
        <ele>1891.2</ele>
        <time>2022-01-06T08:54:35Z</time>
      </trkpt>
      <trkpt lat="45.83301" lon="6.29524">
        <ele>1891.2</ele>
        <time>2022-01-06T08:54:36Z</time>
      </trkpt>
      <trkpt lat="45.83301" lon="6.29524">
        <ele>1892.1</ele>
        <time>2022-01-06T08:54:37Z</time>
      </trkpt>
      <trkpt lat="45.833" lon="6.29524">
        <ele>1892.1</ele>
        <time>2022-01-06T08:54:38Z</time>
      </trkpt>
      <trkpt lat="45.83299" lon="6.29523">
        <ele>1892.1</ele>
        <time>2022-01-06T08:54:39Z</time>
      </trkpt>
      <trkpt lat="45.83298" lon="6.29523">
        <ele>1892.1</ele>
        <time>2022-01-06T08:54:40Z</time>
      </trkpt>
      <trkpt lat="45.83297" lon="6.29523">
        <ele>1892.1</ele>
        <time>2022-01-06T08:54:41Z</time>
      </trkpt>
      <trkpt lat="45.83296" lon="6.29523">
        <ele>1892.1</ele>
        <time>2022-01-06T08:54:42Z</time>
      </trkpt>
      <trkpt lat="45.83295" lon="6.29523">
        <ele>1893.1</ele>
        <time>2022-01-06T08:54:43Z</time>
      </trkpt>
      <trkpt lat="45.83294" lon="6.29523">
        <ele>1893.1</ele>
        <time>2022-01-06T08:54:44Z</time>
      </trkpt>
      <trkpt lat="45.83294" lon="6.29523">
        <ele>1893.1</ele>
        <time>2022-01-06T08:54:45Z</time>
      </trkpt>
      <trkpt lat="45.83293" lon="6.29523">
        <ele>1893.1</ele>
        <time>2022-01-06T08:54:46Z</time>
      </trkpt>
      <trkpt lat="45.83293" lon="6.29522">
        <ele>1893.1</ele>
        <time>2022-01-06T08:54:47Z</time>
      </trkpt>
      <trkpt lat="45.83292" lon="6.29522">
        <ele>1893.1</ele>
        <time>2022-01-06T08:54:48Z</time>
      </trkpt>
      <trkpt lat="45.83292" lon="6.29521">
        <ele>1893.1</ele>
        <time>2022-01-06T08:54:49Z</time>
      </trkpt>
      <trkpt lat="45.83291" lon="6.29521">
        <ele>1893.1</ele>
        <time>2022-01-06T08:54:50Z</time>
      </trkpt>
      <trkpt lat="45.8329" lon="6.2952">
        <ele>1894.1</ele>
        <time>2022-01-06T08:54:51Z</time>
      </trkpt>
      <trkpt lat="45.83289" lon="6.2952">
        <ele>1894.1</ele>
        <time>2022-01-06T08:54:52Z</time>
      </trkpt>
      <trkpt lat="45.83289" lon="6.2952">
        <ele>1894.1</ele>
        <time>2022-01-06T08:54:53Z</time>
      </trkpt>
      <trkpt lat="45.83289" lon="6.29519">
        <ele>1894.1</ele>
        <time>2022-01-06T08:54:54Z</time>
      </trkpt>
      <trkpt lat="45.83288" lon="6.29518">
        <ele>1895.1</ele>
        <time>2022-01-06T08:54:55Z</time>
      </trkpt>
      <trkpt lat="45.83288" lon="6.29517">
        <ele>1895.1</ele>
        <time>2022-01-06T08:54:56Z</time>
      </trkpt>
      <trkpt lat="45.83287" lon="6.29517">
        <ele>1895.1</ele>
        <time>2022-01-06T08:54:57Z</time>
      </trkpt>
      <trkpt lat="45.83287" lon="6.29516">
        <ele>1895.1</ele>
        <time>2022-01-06T08:54:58Z</time>
      </trkpt>
      <trkpt lat="45.83287" lon="6.29515">
        <ele>1895.1</ele>
        <time>2022-01-06T08:54:59Z</time>
      </trkpt>
      <trkpt lat="45.83286" lon="6.29514">
        <ele>1895.1</ele>
        <time>2022-01-06T08:55:00Z</time>
      </trkpt>
      <trkpt lat="45.83286" lon="6.29514">
        <ele>1895.1</ele>
        <time>2022-01-06T08:55:01Z</time>
      </trkpt>
      <trkpt lat="45.83286" lon="6.29514">
        <ele>1895.1</ele>
        <time>2022-01-06T08:55:02Z</time>
      </trkpt>
      <trkpt lat="45.83285" lon="6.29513">
        <ele>1895.1</ele>
        <time>2022-01-06T08:55:03Z</time>
      </trkpt>
      <trkpt lat="45.83285" lon="6.29512">
        <ele>1895.1</ele>
        <time>2022-01-06T08:55:04Z</time>
      </trkpt>
      <trkpt lat="45.83284" lon="6.29511">
        <ele>1896</ele>
        <time>2022-01-06T08:55:05Z</time>
      </trkpt>
      <trkpt lat="45.83284" lon="6.2951">
        <ele>1896</ele>
        <time>2022-01-06T08:55:06Z</time>
      </trkpt>
      <trkpt lat="45.83284" lon="6.29509">
        <ele>1896</ele>
        <time>2022-01-06T08:55:07Z</time>
      </trkpt>
      <trkpt lat="45.83284" lon="6.29507">
        <ele>1896</ele>
        <time>2022-01-06T08:55:08Z</time>
      </trkpt>
      <trkpt lat="45.83283" lon="6.29506">
        <ele>1896</ele>
        <time>2022-01-06T08:55:09Z</time>
      </trkpt>
      <trkpt lat="45.83282" lon="6.29505">
        <ele>1896</ele>
        <time>2022-01-06T08:55:10Z</time>
      </trkpt>
      <trkpt lat="45.83282" lon="6.29505">
        <ele>1896</ele>
        <time>2022-01-06T08:55:11Z</time>
      </trkpt>
      <trkpt lat="45.83282" lon="6.29504">
        <ele>1896</ele>
        <time>2022-01-06T08:55:12Z</time>
      </trkpt>
      <trkpt lat="45.83282" lon="6.29503">
        <ele>1898.2</ele>
        <time>2022-01-06T08:55:13Z</time>
      </trkpt>
      <trkpt lat="45.83282" lon="6.29502">
        <ele>1898.2</ele>
        <time>2022-01-06T08:55:14Z</time>
      </trkpt>
      <trkpt lat="45.83282" lon="6.29501">
        <ele>1899.1</ele>
        <time>2022-01-06T08:55:15Z</time>
      </trkpt>
      <trkpt lat="45.83281" lon="6.295">
        <ele>1899.1</ele>
        <time>2022-01-06T08:55:16Z</time>
      </trkpt>
      <trkpt lat="45.8328" lon="6.29499">
        <ele>1899.1</ele>
        <time>2022-01-06T08:55:17Z</time>
      </trkpt>
      <trkpt lat="45.8328" lon="6.29498">
        <ele>1899.1</ele>
        <time>2022-01-06T08:55:18Z</time>
      </trkpt>
      <trkpt lat="45.8328" lon="6.29498">
        <ele>1900.1</ele>
        <time>2022-01-06T08:55:19Z</time>
      </trkpt>
      <trkpt lat="45.83279" lon="6.29497">
        <ele>1900.1</ele>
        <time>2022-01-06T08:55:20Z</time>
      </trkpt>
      <trkpt lat="45.83279" lon="6.29496">
        <ele>1900.1</ele>
        <time>2022-01-06T08:55:21Z</time>
      </trkpt>
      <trkpt lat="45.83279" lon="6.29496">
        <ele>1900.1</ele>
        <time>2022-01-06T08:55:22Z</time>
      </trkpt>
      <trkpt lat="45.83279" lon="6.29495">
        <ele>1901.1</ele>
        <time>2022-01-06T08:55:23Z</time>
      </trkpt>
      <trkpt lat="45.83279" lon="6.29494">
        <ele>1901.1</ele>
        <time>2022-01-06T08:55:24Z</time>
      </trkpt>
      <trkpt lat="45.83278" lon="6.29493">
        <ele>1901.1</ele>
        <time>2022-01-06T08:55:25Z</time>
      </trkpt>
      <trkpt lat="45.83278" lon="6.29493">
        <ele>1901.1</ele>
        <time>2022-01-06T08:55:26Z</time>
      </trkpt>
      <trkpt lat="45.83277" lon="6.29492">
        <ele>1902.1</ele>
        <time>2022-01-06T08:55:27Z</time>
      </trkpt>
      <trkpt lat="45.83277" lon="6.29492">
        <ele>1902.1</ele>
        <time>2022-01-06T08:55:28Z</time>
      </trkpt>
      <trkpt lat="45.83276" lon="6.29491">
        <ele>1902.1</ele>
        <time>2022-01-06T08:55:29Z</time>
      </trkpt>
      <trkpt lat="45.83276" lon="6.2949">
        <ele>1902.1</ele>
        <time>2022-01-06T08:55:30Z</time>
      </trkpt>
      <trkpt lat="45.83275" lon="6.29489">
        <ele>1903</ele>
        <time>2022-01-06T08:55:31Z</time>
      </trkpt>
      <trkpt lat="45.83275" lon="6.29489">
        <ele>1903</ele>
        <time>2022-01-06T08:55:32Z</time>
      </trkpt>
      <trkpt lat="45.83274" lon="6.29488">
        <ele>1903</ele>
        <time>2022-01-06T08:55:33Z</time>
      </trkpt>
      <trkpt lat="45.83274" lon="6.29488">
        <ele>1903</ele>
        <time>2022-01-06T08:55:34Z</time>
      </trkpt>
      <trkpt lat="45.83273" lon="6.29487">
        <ele>1904.1</ele>
        <time>2022-01-06T08:55:35Z</time>
      </trkpt>
      <trkpt lat="45.83273" lon="6.29487">
        <ele>1904.1</ele>
        <time>2022-01-06T08:55:36Z</time>
      </trkpt>
      <trkpt lat="45.83272" lon="6.29486">
        <ele>1905</ele>
        <time>2022-01-06T08:55:37Z</time>
      </trkpt>
      <trkpt lat="45.83271" lon="6.29485">
        <ele>1905</ele>
        <time>2022-01-06T08:55:38Z</time>
      </trkpt>
      <trkpt lat="45.83271" lon="6.29485">
        <ele>1905</ele>
        <time>2022-01-06T08:55:39Z</time>
      </trkpt>
      <trkpt lat="45.8327" lon="6.29484">
        <ele>1905</ele>
        <time>2022-01-06T08:55:40Z</time>
      </trkpt>
      <trkpt lat="45.8327" lon="6.29483">
        <ele>1905</ele>
        <time>2022-01-06T08:55:41Z</time>
      </trkpt>
      <trkpt lat="45.8327" lon="6.29482">
        <ele>1905</ele>
        <time>2022-01-06T08:55:42Z</time>
      </trkpt>
      <trkpt lat="45.83271" lon="6.29481">
        <ele>1906.1</ele>
        <time>2022-01-06T08:55:43Z</time>
      </trkpt>
      <trkpt lat="45.83271" lon="6.2948">
        <ele>1906.1</ele>
        <time>2022-01-06T08:55:44Z</time>
      </trkpt>
      <trkpt lat="45.83272" lon="6.2948">
        <ele>1906.1</ele>
        <time>2022-01-06T08:55:45Z</time>
      </trkpt>
      <trkpt lat="45.83273" lon="6.2948">
        <ele>1906.1</ele>
        <time>2022-01-06T08:55:46Z</time>
      </trkpt>
      <trkpt lat="45.83274" lon="6.29479">
        <ele>1907.2</ele>
        <time>2022-01-06T08:55:47Z</time>
      </trkpt>
      <trkpt lat="45.83274" lon="6.29478">
        <ele>1907.2</ele>
        <time>2022-01-06T08:55:48Z</time>
      </trkpt>
      <trkpt lat="45.83275" lon="6.29477">
        <ele>1907.2</ele>
        <time>2022-01-06T08:55:49Z</time>
      </trkpt>
      <trkpt lat="45.83276" lon="6.29476">
        <ele>1907.2</ele>
        <time>2022-01-06T08:55:50Z</time>
      </trkpt>
      <trkpt lat="45.83277" lon="6.29475">
        <ele>1908.1</ele>
        <time>2022-01-06T08:55:51Z</time>
      </trkpt>
      <trkpt lat="45.83277" lon="6.29474">
        <ele>1908.1</ele>
        <time>2022-01-06T08:55:52Z</time>
      </trkpt>
      <trkpt lat="45.83278" lon="6.29474">
        <ele>1908.1</ele>
        <time>2022-01-06T08:55:53Z</time>
      </trkpt>
      <trkpt lat="45.83278" lon="6.29472">
        <ele>1908.1</ele>
        <time>2022-01-06T08:55:54Z</time>
      </trkpt>
      <trkpt lat="45.83278" lon="6.29471">
        <ele>1909.1</ele>
        <time>2022-01-06T08:55:55Z</time>
      </trkpt>
      <trkpt lat="45.83278" lon="6.2947">
        <ele>1909.1</ele>
        <time>2022-01-06T08:55:56Z</time>
      </trkpt>
      <trkpt lat="45.83279" lon="6.29469">
        <ele>1909.1</ele>
        <time>2022-01-06T08:55:57Z</time>
      </trkpt>
      <trkpt lat="45.83279" lon="6.29468">
        <ele>1909.1</ele>
        <time>2022-01-06T08:55:58Z</time>
      </trkpt>
      <trkpt lat="45.8328" lon="6.29467">
        <ele>1910.1</ele>
        <time>2022-01-06T08:55:59Z</time>
      </trkpt>
      <trkpt lat="45.83281" lon="6.29466">
        <ele>1910.1</ele>
        <time>2022-01-06T08:56:00Z</time>
      </trkpt>
      <trkpt lat="45.83282" lon="6.29466">
        <ele>1910.1</ele>
        <time>2022-01-06T08:56:01Z</time>
      </trkpt>
      <trkpt lat="45.83283" lon="6.29465">
        <ele>1910.1</ele>
        <time>2022-01-06T08:56:02Z</time>
      </trkpt>
      <trkpt lat="45.83284" lon="6.29464">
        <ele>1910.1</ele>
        <time>2022-01-06T08:56:03Z</time>
      </trkpt>
      <trkpt lat="45.83285" lon="6.29463">
        <ele>1910.1</ele>
        <time>2022-01-06T08:56:04Z</time>
      </trkpt>
      <trkpt lat="45.83285" lon="6.29462">
        <ele>1911.1</ele>
        <time>2022-01-06T08:56:05Z</time>
      </trkpt>
      <trkpt lat="45.83286" lon="6.29461">
        <ele>1911.1</ele>
        <time>2022-01-06T08:56:06Z</time>
      </trkpt>
      <trkpt lat="45.83287" lon="6.2946">
        <ele>1911.1</ele>
        <time>2022-01-06T08:56:07Z</time>
      </trkpt>
      <trkpt lat="45.83287" lon="6.29459">
        <ele>1911.1</ele>
        <time>2022-01-06T08:56:08Z</time>
      </trkpt>
      <trkpt lat="45.83287" lon="6.29459">
        <ele>1912</ele>
        <time>2022-01-06T08:56:09Z</time>
      </trkpt>
      <trkpt lat="45.83288" lon="6.29458">
        <ele>1912</ele>
        <time>2022-01-06T08:56:10Z</time>
      </trkpt>
      <trkpt lat="45.83288" lon="6.29457">
        <ele>1912</ele>
        <time>2022-01-06T08:56:11Z</time>
      </trkpt>
      <trkpt lat="45.83289" lon="6.29456">
        <ele>1912</ele>
        <time>2022-01-06T08:56:12Z</time>
      </trkpt>
      <trkpt lat="45.83289" lon="6.29455">
        <ele>1913.1</ele>
        <time>2022-01-06T08:56:13Z</time>
      </trkpt>
      <trkpt lat="45.83289" lon="6.29454">
        <ele>1913.1</ele>
        <time>2022-01-06T08:56:14Z</time>
      </trkpt>
      <trkpt lat="45.83289" lon="6.29452">
        <ele>1913.1</ele>
        <time>2022-01-06T08:56:15Z</time>
      </trkpt>
      <trkpt lat="45.83289" lon="6.29451">
        <ele>1913.1</ele>
        <time>2022-01-06T08:56:16Z</time>
      </trkpt>
      <trkpt lat="45.8329" lon="6.29451">
        <ele>1914.2</ele>
        <time>2022-01-06T08:56:17Z</time>
      </trkpt>
      <trkpt lat="45.8329" lon="6.2945">
        <ele>1914.2</ele>
        <time>2022-01-06T08:56:18Z</time>
      </trkpt>
      <trkpt lat="45.83291" lon="6.29449">
        <ele>1914.2</ele>
        <time>2022-01-06T08:56:19Z</time>
      </trkpt>
      <trkpt lat="45.83291" lon="6.29448">
        <ele>1914.2</ele>
        <time>2022-01-06T08:56:20Z</time>
      </trkpt>
      <trkpt lat="45.83292" lon="6.29447">
        <ele>1915.1</ele>
        <time>2022-01-06T08:56:21Z</time>
      </trkpt>
      <trkpt lat="45.83292" lon="6.29446">
        <ele>1915.1</ele>
        <time>2022-01-06T08:56:22Z</time>
      </trkpt>
      <trkpt lat="45.83292" lon="6.29444">
        <ele>1915.1</ele>
        <time>2022-01-06T08:56:23Z</time>
      </trkpt>
      <trkpt lat="45.83292" lon="6.29443">
        <ele>1915.1</ele>
        <time>2022-01-06T08:56:24Z</time>
      </trkpt>
      <trkpt lat="45.83292" lon="6.29443">
        <ele>1916.1</ele>
        <time>2022-01-06T08:56:25Z</time>
      </trkpt>
      <trkpt lat="45.83293" lon="6.29442">
        <ele>1916.1</ele>
        <time>2022-01-06T08:56:26Z</time>
      </trkpt>
      <trkpt lat="45.83294" lon="6.29441">
        <ele>1916.1</ele>
        <time>2022-01-06T08:56:27Z</time>
      </trkpt>
      <trkpt lat="45.83295" lon="6.2944">
        <ele>1916.1</ele>
        <time>2022-01-06T08:56:28Z</time>
      </trkpt>
      <trkpt lat="45.83295" lon="6.2944">
        <ele>1916.1</ele>
        <time>2022-01-06T08:56:29Z</time>
      </trkpt>
      <trkpt lat="45.83295" lon="6.2944">
        <ele>1916.1</ele>
        <time>2022-01-06T08:56:30Z</time>
      </trkpt>
      <trkpt lat="45.83295" lon="6.29438">
        <ele>1917.1</ele>
        <time>2022-01-06T08:56:31Z</time>
      </trkpt>
      <trkpt lat="45.83296" lon="6.29438">
        <ele>1917.1</ele>
        <time>2022-01-06T08:56:32Z</time>
      </trkpt>
      <trkpt lat="45.83295" lon="6.29438">
        <ele>1917.1</ele>
        <time>2022-01-06T08:56:33Z</time>
      </trkpt>
      <trkpt lat="45.83295" lon="6.29438">
        <ele>1917.1</ele>
        <time>2022-01-06T08:56:34Z</time>
      </trkpt>
      <trkpt lat="45.83295" lon="6.29438">
        <ele>1917.1</ele>
        <time>2022-01-06T08:56:35Z</time>
      </trkpt>
      <trkpt lat="45.83294" lon="6.29438">
        <ele>1917.1</ele>
        <time>2022-01-06T08:56:36Z</time>
      </trkpt>
      <trkpt lat="45.83294" lon="6.29438">
        <ele>1917.1</ele>
        <time>2022-01-06T08:56:37Z</time>
      </trkpt>
      <trkpt lat="45.83293" lon="6.29437">
        <ele>1917.1</ele>
        <time>2022-01-06T08:56:38Z</time>
      </trkpt>
      <trkpt lat="45.83292" lon="6.29437">
        <ele>1918.1</ele>
        <time>2022-01-06T08:56:39Z</time>
      </trkpt>
      <trkpt lat="45.83291" lon="6.29436">
        <ele>1918.1</ele>
        <time>2022-01-06T08:56:40Z</time>
      </trkpt>
      <trkpt lat="45.8329" lon="6.29436">
        <ele>1918.1</ele>
        <time>2022-01-06T08:56:41Z</time>
      </trkpt>
      <trkpt lat="45.8329" lon="6.29436">
        <ele>1918.1</ele>
        <time>2022-01-06T08:56:42Z</time>
      </trkpt>
      <trkpt lat="45.83289" lon="6.29436">
        <ele>1918.1</ele>
        <time>2022-01-06T08:56:43Z</time>
      </trkpt>
      <trkpt lat="45.83289" lon="6.29435">
        <ele>1918.1</ele>
        <time>2022-01-06T08:56:44Z</time>
      </trkpt>
      <trkpt lat="45.83288" lon="6.29435">
        <ele>1918.1</ele>
        <time>2022-01-06T08:56:45Z</time>
      </trkpt>
      <trkpt lat="45.83288" lon="6.29434">
        <ele>1918.1</ele>
        <time>2022-01-06T08:56:46Z</time>
      </trkpt>
      <trkpt lat="45.83287" lon="6.29434">
        <ele>1919</ele>
        <time>2022-01-06T08:56:47Z</time>
      </trkpt>
      <trkpt lat="45.83287" lon="6.29434">
        <ele>1919</ele>
        <time>2022-01-06T08:56:48Z</time>
      </trkpt>
      <trkpt lat="45.83286" lon="6.29433">
        <ele>1919</ele>
        <time>2022-01-06T08:56:49Z</time>
      </trkpt>
      <trkpt lat="45.83285" lon="6.29433">
        <ele>1919</ele>
        <time>2022-01-06T08:56:50Z</time>
      </trkpt>
      <trkpt lat="45.83284" lon="6.29432">
        <ele>1920.1</ele>
        <time>2022-01-06T08:56:51Z</time>
      </trkpt>
      <trkpt lat="45.83284" lon="6.29431">
        <ele>1920.1</ele>
        <time>2022-01-06T08:56:52Z</time>
      </trkpt>
      <trkpt lat="45.83283" lon="6.29431">
        <ele>1920.1</ele>
        <time>2022-01-06T08:56:53Z</time>
      </trkpt>
      <trkpt lat="45.83283" lon="6.29431">
        <ele>1920.1</ele>
        <time>2022-01-06T08:56:54Z</time>
      </trkpt>
      <trkpt lat="45.83282" lon="6.2943">
        <ele>1921</ele>
        <time>2022-01-06T08:56:55Z</time>
      </trkpt>
      <trkpt lat="45.83282" lon="6.2943">
        <ele>1921</ele>
        <time>2022-01-06T08:56:56Z</time>
      </trkpt>
      <trkpt lat="45.83282" lon="6.29429">
        <ele>1921</ele>
        <time>2022-01-06T08:56:57Z</time>
      </trkpt>
      <trkpt lat="45.83281" lon="6.29429">
        <ele>1921</ele>
        <time>2022-01-06T08:56:58Z</time>
      </trkpt>
      <trkpt lat="45.83281" lon="6.29429">
        <ele>1922.1</ele>
        <time>2022-01-06T08:56:59Z</time>
      </trkpt>
      <trkpt lat="45.8328" lon="6.29428">
        <ele>1922.1</ele>
        <time>2022-01-06T08:57:00Z</time>
      </trkpt>
      <trkpt lat="45.8328" lon="6.29428">
        <ele>1922.1</ele>
        <time>2022-01-06T08:57:01Z</time>
      </trkpt>
      <trkpt lat="45.83279" lon="6.29427">
        <ele>1922.1</ele>
        <time>2022-01-06T08:57:02Z</time>
      </trkpt>
      <trkpt lat="45.83278" lon="6.29427">
        <ele>1922.1</ele>
        <time>2022-01-06T08:57:03Z</time>
      </trkpt>
      <trkpt lat="45.83278" lon="6.29426">
        <ele>1922.1</ele>
        <time>2022-01-06T08:57:04Z</time>
      </trkpt>
      <trkpt lat="45.83277" lon="6.29426">
        <ele>1922.1</ele>
        <time>2022-01-06T08:57:05Z</time>
      </trkpt>
      <trkpt lat="45.83276" lon="6.29425">
        <ele>1922.1</ele>
        <time>2022-01-06T08:57:06Z</time>
      </trkpt>
      <trkpt lat="45.83275" lon="6.29425">
        <ele>1923.2</ele>
        <time>2022-01-06T08:57:07Z</time>
      </trkpt>
      <trkpt lat="45.83274" lon="6.29424">
        <ele>1923.2</ele>
        <time>2022-01-06T08:57:08Z</time>
      </trkpt>
      <trkpt lat="45.83273" lon="6.29423">
        <ele>1923.2</ele>
        <time>2022-01-06T08:57:09Z</time>
      </trkpt>
      <trkpt lat="45.83272" lon="6.29422">
        <ele>1923.2</ele>
        <time>2022-01-06T08:57:10Z</time>
      </trkpt>
      <trkpt lat="45.83271" lon="6.29422">
        <ele>1924.1</ele>
        <time>2022-01-06T08:57:11Z</time>
      </trkpt>
      <trkpt lat="45.83271" lon="6.29421">
        <ele>1924.1</ele>
        <time>2022-01-06T08:57:12Z</time>
      </trkpt>
      <trkpt lat="45.83271" lon="6.2942">
        <ele>1924.1</ele>
        <time>2022-01-06T08:57:13Z</time>
      </trkpt>
      <trkpt lat="45.8327" lon="6.2942">
        <ele>1924.1</ele>
        <time>2022-01-06T08:57:14Z</time>
      </trkpt>
      <trkpt lat="45.8327" lon="6.29419">
        <ele>1924.1</ele>
        <time>2022-01-06T08:57:15Z</time>
      </trkpt>
      <trkpt lat="45.83269" lon="6.29418">
        <ele>1924.1</ele>
        <time>2022-01-06T08:57:16Z</time>
      </trkpt>
      <trkpt lat="45.83269" lon="6.29417">
        <ele>1925.1</ele>
        <time>2022-01-06T08:57:17Z</time>
      </trkpt>
      <trkpt lat="45.83268" lon="6.29416">
        <ele>1925.1</ele>
        <time>2022-01-06T08:57:18Z</time>
      </trkpt>
      <trkpt lat="45.83268" lon="6.29415">
        <ele>1926.1</ele>
        <time>2022-01-06T08:57:19Z</time>
      </trkpt>
      <trkpt lat="45.83268" lon="6.29414">
        <ele>1926.1</ele>
        <time>2022-01-06T08:57:20Z</time>
      </trkpt>
      <trkpt lat="45.83268" lon="6.29413">
        <ele>1926.1</ele>
        <time>2022-01-06T08:57:21Z</time>
      </trkpt>
      <trkpt lat="45.83268" lon="6.29412">
        <ele>1926.1</ele>
        <time>2022-01-06T08:57:22Z</time>
      </trkpt>
      <trkpt lat="45.83268" lon="6.29411">
        <ele>1927.1</ele>
        <time>2022-01-06T08:57:23Z</time>
      </trkpt>
      <trkpt lat="45.83269" lon="6.2941">
        <ele>1927.1</ele>
        <time>2022-01-06T08:57:24Z</time>
      </trkpt>
      <trkpt lat="45.83268" lon="6.29409">
        <ele>1927.1</ele>
        <time>2022-01-06T08:57:25Z</time>
      </trkpt>
      <trkpt lat="45.83268" lon="6.29408">
        <ele>1927.1</ele>
        <time>2022-01-06T08:57:26Z</time>
      </trkpt>
      <trkpt lat="45.83268" lon="6.29406">
        <ele>1928</ele>
        <time>2022-01-06T08:57:27Z</time>
      </trkpt>
      <trkpt lat="45.83268" lon="6.29405">
        <ele>1928</ele>
        <time>2022-01-06T08:57:28Z</time>
      </trkpt>
      <trkpt lat="45.83268" lon="6.29404">
        <ele>1928</ele>
        <time>2022-01-06T08:57:29Z</time>
      </trkpt>
      <trkpt lat="45.83269" lon="6.29402">
        <ele>1928</ele>
        <time>2022-01-06T08:57:30Z</time>
      </trkpt>
      <trkpt lat="45.83269" lon="6.29401">
        <ele>1929.1</ele>
        <time>2022-01-06T08:57:31Z</time>
      </trkpt>
      <trkpt lat="45.83269" lon="6.294">
        <ele>1929.1</ele>
        <time>2022-01-06T08:57:32Z</time>
      </trkpt>
      <trkpt lat="45.83268" lon="6.294">
        <ele>1929.1</ele>
        <time>2022-01-06T08:57:33Z</time>
      </trkpt>
      <trkpt lat="45.83268" lon="6.29399">
        <ele>1929.1</ele>
        <time>2022-01-06T08:57:34Z</time>
      </trkpt>
      <trkpt lat="45.83267" lon="6.29398">
        <ele>1930</ele>
        <time>2022-01-06T08:57:35Z</time>
      </trkpt>
      <trkpt lat="45.83267" lon="6.29398">
        <ele>1930</ele>
        <time>2022-01-06T08:57:36Z</time>
      </trkpt>
      <trkpt lat="45.83266" lon="6.29397">
        <ele>1930</ele>
        <time>2022-01-06T08:57:37Z</time>
      </trkpt>
      <trkpt lat="45.83266" lon="6.29396">
        <ele>1930</ele>
        <time>2022-01-06T08:57:38Z</time>
      </trkpt>
      <trkpt lat="45.83265" lon="6.29396">
        <ele>1930</ele>
        <time>2022-01-06T08:57:39Z</time>
      </trkpt>
      <trkpt lat="45.83265" lon="6.29395">
        <ele>1930</ele>
        <time>2022-01-06T08:57:40Z</time>
      </trkpt>
      <trkpt lat="45.83265" lon="6.29394">
        <ele>1931.1</ele>
        <time>2022-01-06T08:57:41Z</time>
      </trkpt>
      <trkpt lat="45.83264" lon="6.29393">
        <ele>1931.1</ele>
        <time>2022-01-06T08:57:42Z</time>
      </trkpt>
      <trkpt lat="45.83264" lon="6.29393">
        <ele>1931.1</ele>
        <time>2022-01-06T08:57:43Z</time>
      </trkpt>
      <trkpt lat="45.83263" lon="6.29392">
        <ele>1931.1</ele>
        <time>2022-01-06T08:57:44Z</time>
      </trkpt>
      <trkpt lat="45.83263" lon="6.29392">
        <ele>1932.2</ele>
        <time>2022-01-06T08:57:45Z</time>
      </trkpt>
      <trkpt lat="45.83263" lon="6.29391">
        <ele>1932.2</ele>
        <time>2022-01-06T08:57:46Z</time>
      </trkpt>
      <trkpt lat="45.83263" lon="6.29391">
        <ele>1932.2</ele>
        <time>2022-01-06T08:57:47Z</time>
      </trkpt>
      <trkpt lat="45.83263" lon="6.2939">
        <ele>1932.2</ele>
        <time>2022-01-06T08:57:48Z</time>
      </trkpt>
      <trkpt lat="45.83262" lon="6.29389">
        <ele>1933.1</ele>
        <time>2022-01-06T08:57:49Z</time>
      </trkpt>
      <trkpt lat="45.83261" lon="6.29389">
        <ele>1933.1</ele>
        <time>2022-01-06T08:57:50Z</time>
      </trkpt>
      <trkpt lat="45.83262" lon="6.29388">
        <ele>1934.1</ele>
        <time>2022-01-06T08:57:51Z</time>
      </trkpt>
      <trkpt lat="45.83261" lon="6.29386">
        <ele>1934.1</ele>
        <time>2022-01-06T08:57:52Z</time>
      </trkpt>
      <trkpt lat="45.83261" lon="6.29385">
        <ele>1934.1</ele>
        <time>2022-01-06T08:57:53Z</time>
      </trkpt>
      <trkpt lat="45.83261" lon="6.29384">
        <ele>1934.1</ele>
        <time>2022-01-06T08:57:54Z</time>
      </trkpt>
      <trkpt lat="45.83261" lon="6.29383">
        <ele>1935</ele>
        <time>2022-01-06T08:57:55Z</time>
      </trkpt>
      <trkpt lat="45.83262" lon="6.29382">
        <ele>1935</ele>
        <time>2022-01-06T08:57:56Z</time>
      </trkpt>
      <trkpt lat="45.83263" lon="6.29381">
        <ele>1935</ele>
        <time>2022-01-06T08:57:57Z</time>
      </trkpt>
      <trkpt lat="45.83264" lon="6.29381">
        <ele>1935</ele>
        <time>2022-01-06T08:57:58Z</time>
      </trkpt>
      <trkpt lat="45.83264" lon="6.29381">
        <ele>1936.1</ele>
        <time>2022-01-06T08:57:59Z</time>
      </trkpt>
      <trkpt lat="45.83265" lon="6.2938">
        <ele>1936.1</ele>
        <time>2022-01-06T08:58:00Z</time>
      </trkpt>
      <trkpt lat="45.83266" lon="6.2938">
        <ele>1936.1</ele>
        <time>2022-01-06T08:58:01Z</time>
      </trkpt>
      <trkpt lat="45.83266" lon="6.29379">
        <ele>1936.1</ele>
        <time>2022-01-06T08:58:02Z</time>
      </trkpt>
      <trkpt lat="45.83267" lon="6.29378">
        <ele>1937</ele>
        <time>2022-01-06T08:58:03Z</time>
      </trkpt>
      <trkpt lat="45.83268" lon="6.29377">
        <ele>1937</ele>
        <time>2022-01-06T08:58:04Z</time>
      </trkpt>
      <trkpt lat="45.83268" lon="6.29376">
        <ele>1937</ele>
        <time>2022-01-06T08:58:05Z</time>
      </trkpt>
      <trkpt lat="45.83269" lon="6.29376">
        <ele>1937</ele>
        <time>2022-01-06T08:58:06Z</time>
      </trkpt>
      <trkpt lat="45.8327" lon="6.29375">
        <ele>1937</ele>
        <time>2022-01-06T08:58:07Z</time>
      </trkpt>
      <trkpt lat="45.8327" lon="6.29374">
        <ele>1937</ele>
        <time>2022-01-06T08:58:08Z</time>
      </trkpt>
      <trkpt lat="45.8327" lon="6.29373">
        <ele>1938.1</ele>
        <time>2022-01-06T08:58:09Z</time>
      </trkpt>
      <trkpt lat="45.83271" lon="6.29373">
        <ele>1938.1</ele>
        <time>2022-01-06T08:58:10Z</time>
      </trkpt>
      <trkpt lat="45.83271" lon="6.29372">
        <ele>1938.1</ele>
        <time>2022-01-06T08:58:11Z</time>
      </trkpt>
      <trkpt lat="45.83271" lon="6.29371">
        <ele>1938.1</ele>
        <time>2022-01-06T08:58:12Z</time>
      </trkpt>
      <trkpt lat="45.83271" lon="6.2937">
        <ele>1939.2</ele>
        <time>2022-01-06T08:58:13Z</time>
      </trkpt>
      <trkpt lat="45.8327" lon="6.29368">
        <ele>1939.2</ele>
        <time>2022-01-06T08:58:14Z</time>
      </trkpt>
      <trkpt lat="45.83271" lon="6.29368">
        <ele>1939.2</ele>
        <time>2022-01-06T08:58:15Z</time>
      </trkpt>
      <trkpt lat="45.83271" lon="6.29367">
        <ele>1939.2</ele>
        <time>2022-01-06T08:58:16Z</time>
      </trkpt>
      <trkpt lat="45.83271" lon="6.29366">
        <ele>1940.1</ele>
        <time>2022-01-06T08:58:17Z</time>
      </trkpt>
      <trkpt lat="45.83272" lon="6.29365">
        <ele>1940.1</ele>
        <time>2022-01-06T08:58:18Z</time>
      </trkpt>
      <trkpt lat="45.83272" lon="6.29364">
        <ele>1940.1</ele>
        <time>2022-01-06T08:58:19Z</time>
      </trkpt>
      <trkpt lat="45.83273" lon="6.29364">
        <ele>1940.1</ele>
        <time>2022-01-06T08:58:20Z</time>
      </trkpt>
      <trkpt lat="45.83273" lon="6.29363">
        <ele>1940.1</ele>
        <time>2022-01-06T08:58:21Z</time>
      </trkpt>
      <trkpt lat="45.83274" lon="6.29362">
        <ele>1941.1</ele>
        <time>2022-01-06T08:58:22Z</time>
      </trkpt>
      <trkpt lat="45.83275" lon="6.29362">
        <ele>1941.1</ele>
        <time>2022-01-06T08:58:23Z</time>
      </trkpt>
      <trkpt lat="45.83276" lon="6.29362">
        <ele>1941.1</ele>
        <time>2022-01-06T08:58:24Z</time>
      </trkpt>
      <trkpt lat="45.83277" lon="6.29362">
        <ele>1941.1</ele>
        <time>2022-01-06T08:58:25Z</time>
      </trkpt>
      <trkpt lat="45.83278" lon="6.29362">
        <ele>1942.1</ele>
        <time>2022-01-06T08:58:26Z</time>
      </trkpt>
      <trkpt lat="45.83279" lon="6.29362">
        <ele>1942.1</ele>
        <time>2022-01-06T08:58:27Z</time>
      </trkpt>
      <trkpt lat="45.83279" lon="6.29361">
        <ele>1942.1</ele>
        <time>2022-01-06T08:58:28Z</time>
      </trkpt>
      <trkpt lat="45.8328" lon="6.2936">
        <ele>1942.1</ele>
        <time>2022-01-06T08:58:29Z</time>
      </trkpt>
      <trkpt lat="45.8328" lon="6.2936">
        <ele>1943.1</ele>
        <time>2022-01-06T08:58:30Z</time>
      </trkpt>
      <trkpt lat="45.8328" lon="6.29359">
        <ele>1943.1</ele>
        <time>2022-01-06T08:58:31Z</time>
      </trkpt>
      <trkpt lat="45.8328" lon="6.29358">
        <ele>1943.1</ele>
        <time>2022-01-06T08:58:32Z</time>
      </trkpt>
      <trkpt lat="45.83279" lon="6.29357">
        <ele>1943.1</ele>
        <time>2022-01-06T08:58:33Z</time>
      </trkpt>
      <trkpt lat="45.83279" lon="6.29356">
        <ele>1943.1</ele>
        <time>2022-01-06T08:58:34Z</time>
      </trkpt>
      <trkpt lat="45.83279" lon="6.29355">
        <ele>1943.1</ele>
        <time>2022-01-06T08:58:35Z</time>
      </trkpt>
      <trkpt lat="45.83279" lon="6.29354">
        <ele>1943.1</ele>
        <time>2022-01-06T08:58:36Z</time>
      </trkpt>
      <trkpt lat="45.83279" lon="6.29354">
        <ele>1943.1</ele>
        <time>2022-01-06T08:58:37Z</time>
      </trkpt>
      <trkpt lat="45.8328" lon="6.29353">
        <ele>1944</ele>
        <time>2022-01-06T08:58:38Z</time>
      </trkpt>
      <trkpt lat="45.8328" lon="6.29352">
        <ele>1944</ele>
        <time>2022-01-06T08:58:39Z</time>
      </trkpt>
      <trkpt lat="45.8328" lon="6.29351">
        <ele>1944</ele>
        <time>2022-01-06T08:58:40Z</time>
      </trkpt>
      <trkpt lat="45.8328" lon="6.2935">
        <ele>1944</ele>
        <time>2022-01-06T08:58:41Z</time>
      </trkpt>
      <trkpt lat="45.83281" lon="6.29349">
        <ele>1945.1</ele>
        <time>2022-01-06T08:58:42Z</time>
      </trkpt>
      <trkpt lat="45.8328" lon="6.29348">
        <ele>1945.1</ele>
        <time>2022-01-06T08:58:43Z</time>
      </trkpt>
      <trkpt lat="45.8328" lon="6.29348">
        <ele>1945.1</ele>
        <time>2022-01-06T08:58:44Z</time>
      </trkpt>
      <trkpt lat="45.83281" lon="6.29348">
        <ele>1945.1</ele>
        <time>2022-01-06T08:58:45Z</time>
      </trkpt>
      <trkpt lat="45.8328" lon="6.29348">
        <ele>1946</ele>
        <time>2022-01-06T08:58:46Z</time>
      </trkpt>
      <trkpt lat="45.8328" lon="6.29349">
        <ele>1946</ele>
        <time>2022-01-06T08:58:47Z</time>
      </trkpt>
      <trkpt lat="45.8328" lon="6.29349">
        <ele>1946</ele>
        <time>2022-01-06T08:58:48Z</time>
      </trkpt>
      <trkpt lat="45.83279" lon="6.29348">
        <ele>1946</ele>
        <time>2022-01-06T08:58:49Z</time>
      </trkpt>
      <trkpt lat="45.83279" lon="6.29348">
        <ele>1946</ele>
        <time>2022-01-06T08:58:50Z</time>
      </trkpt>
      <trkpt lat="45.83278" lon="6.29348">
        <ele>1946</ele>
        <time>2022-01-06T08:58:51Z</time>
      </trkpt>
      <trkpt lat="45.83278" lon="6.29349">
        <ele>1946</ele>
        <time>2022-01-06T08:58:52Z</time>
      </trkpt>
      <trkpt lat="45.83277" lon="6.29349">
        <ele>1946</ele>
        <time>2022-01-06T08:58:53Z</time>
      </trkpt>
      <trkpt lat="45.83277" lon="6.29349">
        <ele>1946</ele>
        <time>2022-01-06T08:58:54Z</time>
      </trkpt>
      <trkpt lat="45.83276" lon="6.29348">
        <ele>1946</ele>
        <time>2022-01-06T08:58:55Z</time>
      </trkpt>
      <trkpt lat="45.83275" lon="6.29349">
        <ele>1946</ele>
        <time>2022-01-06T08:58:56Z</time>
      </trkpt>
      <trkpt lat="45.83274" lon="6.29349">
        <ele>1946</ele>
        <time>2022-01-06T08:58:57Z</time>
      </trkpt>
      <trkpt lat="45.83273" lon="6.29349">
        <ele>1947.1</ele>
        <time>2022-01-06T08:58:58Z</time>
      </trkpt>
      <trkpt lat="45.83273" lon="6.29349">
        <ele>1947.1</ele>
        <time>2022-01-06T08:58:59Z</time>
      </trkpt>
      <trkpt lat="45.83272" lon="6.29349">
        <ele>1947.1</ele>
        <time>2022-01-06T08:59:00Z</time>
      </trkpt>
      <trkpt lat="45.83272" lon="6.2935">
        <ele>1947.1</ele>
        <time>2022-01-06T08:59:01Z</time>
      </trkpt>
      <trkpt lat="45.83271" lon="6.2935">
        <ele>1947.1</ele>
        <time>2022-01-06T08:59:02Z</time>
      </trkpt>
      <trkpt lat="45.83271" lon="6.2935">
        <ele>1947.1</ele>
        <time>2022-01-06T08:59:03Z</time>
      </trkpt>
      <trkpt lat="45.8327" lon="6.2935">
        <ele>1947.1</ele>
        <time>2022-01-06T08:59:04Z</time>
      </trkpt>
      <trkpt lat="45.83269" lon="6.2935">
        <ele>1947.1</ele>
        <time>2022-01-06T08:59:05Z</time>
      </trkpt>
      <trkpt lat="45.83268" lon="6.2935">
        <ele>1947.1</ele>
        <time>2022-01-06T08:59:06Z</time>
      </trkpt>
      <trkpt lat="45.83267" lon="6.2935">
        <ele>1947.1</ele>
        <time>2022-01-06T08:59:07Z</time>
      </trkpt>
      <trkpt lat="45.83267" lon="6.2935">
        <ele>1948.2</ele>
        <time>2022-01-06T08:59:08Z</time>
      </trkpt>
      <trkpt lat="45.83266" lon="6.29351">
        <ele>1948.2</ele>
        <time>2022-01-06T08:59:09Z</time>
      </trkpt>
      <trkpt lat="45.83266" lon="6.29351">
        <ele>1948.2</ele>
        <time>2022-01-06T08:59:10Z</time>
      </trkpt>
      <trkpt lat="45.83265" lon="6.2935">
        <ele>1948.2</ele>
        <time>2022-01-06T08:59:11Z</time>
      </trkpt>
      <trkpt lat="45.83265" lon="6.2935">
        <ele>1948.2</ele>
        <time>2022-01-06T08:59:12Z</time>
      </trkpt>
      <trkpt lat="45.83265" lon="6.2935">
        <ele>1948.2</ele>
        <time>2022-01-06T08:59:13Z</time>
      </trkpt>
      <trkpt lat="45.83264" lon="6.2935">
        <ele>1948.2</ele>
        <time>2022-01-06T08:59:14Z</time>
      </trkpt>
      <trkpt lat="45.83264" lon="6.2935">
        <ele>1948.2</ele>
        <time>2022-01-06T08:59:15Z</time>
      </trkpt>
      <trkpt lat="45.83264" lon="6.2935">
        <ele>1949.1</ele>
        <time>2022-01-06T08:59:16Z</time>
      </trkpt>
      <trkpt lat="45.83264" lon="6.2935">
        <ele>1949.1</ele>
        <time>2022-01-06T08:59:17Z</time>
      </trkpt>
      <trkpt lat="45.83263" lon="6.2935">
        <ele>1949.1</ele>
        <time>2022-01-06T08:59:18Z</time>
      </trkpt>
      <trkpt lat="45.83263" lon="6.29351">
        <ele>1949.1</ele>
        <time>2022-01-06T08:59:19Z</time>
      </trkpt>
      <trkpt lat="45.83262" lon="6.29351">
        <ele>1949.1</ele>
        <time>2022-01-06T08:59:20Z</time>
      </trkpt>
      <trkpt lat="45.83262" lon="6.29351">
        <ele>1949.1</ele>
        <time>2022-01-06T08:59:21Z</time>
      </trkpt>
      <trkpt lat="45.83261" lon="6.29351">
        <ele>1949.1</ele>
        <time>2022-01-06T08:59:22Z</time>
      </trkpt>
      <trkpt lat="45.8326" lon="6.29351">
        <ele>1949.1</ele>
        <time>2022-01-06T08:59:23Z</time>
      </trkpt>
      <trkpt lat="45.8326" lon="6.29351">
        <ele>1949.1</ele>
        <time>2022-01-06T08:59:24Z</time>
      </trkpt>
      <trkpt lat="45.8326" lon="6.29351">
        <ele>1949.1</ele>
        <time>2022-01-06T08:59:25Z</time>
      </trkpt>
      <trkpt lat="45.83259" lon="6.29351">
        <ele>1950.1</ele>
        <time>2022-01-06T08:59:26Z</time>
      </trkpt>
      <trkpt lat="45.83258" lon="6.29351">
        <ele>1950.1</ele>
        <time>2022-01-06T08:59:27Z</time>
      </trkpt>
      <trkpt lat="45.83258" lon="6.29351">
        <ele>1950.1</ele>
        <time>2022-01-06T08:59:28Z</time>
      </trkpt>
      <trkpt lat="45.83257" lon="6.29352">
        <ele>1950.1</ele>
        <time>2022-01-06T08:59:29Z</time>
      </trkpt>
      <trkpt lat="45.83256" lon="6.29352">
        <ele>1950.1</ele>
        <time>2022-01-06T08:59:30Z</time>
      </trkpt>
      <trkpt lat="45.83256" lon="6.29352">
        <ele>1950.1</ele>
        <time>2022-01-06T08:59:31Z</time>
      </trkpt>
      <trkpt lat="45.83255" lon="6.29352">
        <ele>1950.1</ele>
        <time>2022-01-06T08:59:32Z</time>
      </trkpt>
      <trkpt lat="45.83255" lon="6.29352">
        <ele>1950.1</ele>
        <time>2022-01-06T08:59:33Z</time>
      </trkpt>
      <trkpt lat="45.83254" lon="6.29352">
        <ele>1951</ele>
        <time>2022-01-06T08:59:34Z</time>
      </trkpt>
      <trkpt lat="45.83253" lon="6.29352">
        <ele>1951</ele>
        <time>2022-01-06T08:59:35Z</time>
      </trkpt>
      <trkpt lat="45.83253" lon="6.29352">
        <ele>1951</ele>
        <time>2022-01-06T08:59:36Z</time>
      </trkpt>
      <trkpt lat="45.83252" lon="6.29351">
        <ele>1951</ele>
        <time>2022-01-06T08:59:37Z</time>
      </trkpt>
      <trkpt lat="45.83252" lon="6.29352">
        <ele>1951</ele>
        <time>2022-01-06T08:59:38Z</time>
      </trkpt>
      <trkpt lat="45.83251" lon="6.29353">
        <ele>1951</ele>
        <time>2022-01-06T08:59:39Z</time>
      </trkpt>
      <trkpt lat="45.8325" lon="6.29353">
        <ele>1951</ele>
        <time>2022-01-06T08:59:40Z</time>
      </trkpt>
      <trkpt lat="45.8325" lon="6.29353">
        <ele>1951</ele>
        <time>2022-01-06T08:59:41Z</time>
      </trkpt>
      <trkpt lat="45.83249" lon="6.29353">
        <ele>1951</ele>
        <time>2022-01-06T08:59:42Z</time>
      </trkpt>
      <trkpt lat="45.83249" lon="6.29353">
        <ele>1951</ele>
        <time>2022-01-06T08:59:43Z</time>
      </trkpt>
      <trkpt lat="45.83248" lon="6.29353">
        <ele>1951</ele>
        <time>2022-01-06T08:59:44Z</time>
      </trkpt>
      <trkpt lat="45.83248" lon="6.29353">
        <ele>1951</ele>
        <time>2022-01-06T08:59:45Z</time>
      </trkpt>
      <trkpt lat="45.83248" lon="6.29352">
        <ele>1951</ele>
        <time>2022-01-06T08:59:46Z</time>
      </trkpt>
      <trkpt lat="45.83247" lon="6.29352">
        <ele>1951</ele>
        <time>2022-01-06T08:59:47Z</time>
      </trkpt>
      <trkpt lat="45.83247" lon="6.29352">
        <ele>1952.1</ele>
        <time>2022-01-06T08:59:48Z</time>
      </trkpt>
      <trkpt lat="45.83246" lon="6.29352">
        <ele>1952.1</ele>
        <time>2022-01-06T08:59:49Z</time>
      </trkpt>
      <trkpt lat="45.83246" lon="6.29352">
        <ele>1952.1</ele>
        <time>2022-01-06T08:59:50Z</time>
      </trkpt>
      <trkpt lat="45.83246" lon="6.29352">
        <ele>1952.1</ele>
        <time>2022-01-06T08:59:51Z</time>
      </trkpt>
      <trkpt lat="45.83246" lon="6.29352">
        <ele>1952.1</ele>
        <time>2022-01-06T08:59:52Z</time>
      </trkpt>
      <trkpt lat="45.83245" lon="6.29352">
        <ele>1952.1</ele>
        <time>2022-01-06T08:59:53Z</time>
      </trkpt>
      <trkpt lat="45.83245" lon="6.29352">
        <ele>1953</ele>
        <time>2022-01-06T08:59:54Z</time>
      </trkpt>
      <trkpt lat="45.83244" lon="6.29352">
        <ele>1953</ele>
        <time>2022-01-06T08:59:55Z</time>
      </trkpt>
      <trkpt lat="45.83244" lon="6.29352">
        <ele>1953</ele>
        <time>2022-01-06T08:59:56Z</time>
      </trkpt>
      <trkpt lat="45.83243" lon="6.29352">
        <ele>1953</ele>
        <time>2022-01-06T08:59:57Z</time>
      </trkpt>
      <trkpt lat="45.83243" lon="6.29352">
        <ele>1953</ele>
        <time>2022-01-06T08:59:58Z</time>
      </trkpt>
      <trkpt lat="45.83242" lon="6.29352">
        <ele>1953</ele>
        <time>2022-01-06T08:59:59Z</time>
      </trkpt>
      <trkpt lat="45.83242" lon="6.29352">
        <ele>1954.1</ele>
        <time>2022-01-06T09:00:00Z</time>
      </trkpt>
      <trkpt lat="45.83241" lon="6.29352">
        <ele>1954.1</ele>
        <time>2022-01-06T09:00:01Z</time>
      </trkpt>
      <trkpt lat="45.83241" lon="6.29352">
        <ele>1954.1</ele>
        <time>2022-01-06T09:00:02Z</time>
      </trkpt>
      <trkpt lat="45.8324" lon="6.29351">
        <ele>1954.1</ele>
        <time>2022-01-06T09:00:03Z</time>
      </trkpt>
      <trkpt lat="45.83239" lon="6.29351">
        <ele>1955.2</ele>
        <time>2022-01-06T09:00:04Z</time>
      </trkpt>
      <trkpt lat="45.83239" lon="6.29351">
        <ele>1955.2</ele>
        <time>2022-01-06T09:00:05Z</time>
      </trkpt>
      <trkpt lat="45.83239" lon="6.29351">
        <ele>1955.2</ele>
        <time>2022-01-06T09:00:06Z</time>
      </trkpt>
      <trkpt lat="45.83238" lon="6.29351">
        <ele>1955.2</ele>
        <time>2022-01-06T09:00:07Z</time>
      </trkpt>
      <trkpt lat="45.83238" lon="6.29351">
        <ele>1955.2</ele>
        <time>2022-01-06T09:00:08Z</time>
      </trkpt>
      <trkpt lat="45.83237" lon="6.29351">
        <ele>1955.2</ele>
        <time>2022-01-06T09:00:09Z</time>
      </trkpt>
      <trkpt lat="45.83236" lon="6.2935">
        <ele>1956.1</ele>
        <time>2022-01-06T09:00:10Z</time>
      </trkpt>
      <trkpt lat="45.83236" lon="6.2935">
        <ele>1956.1</ele>
        <time>2022-01-06T09:00:11Z</time>
      </trkpt>
      <trkpt lat="45.83236" lon="6.29349">
        <ele>1956.1</ele>
        <time>2022-01-06T09:00:12Z</time>
      </trkpt>
      <trkpt lat="45.83236" lon="6.29349">
        <ele>1956.1</ele>
        <time>2022-01-06T09:00:13Z</time>
      </trkpt>
      <trkpt lat="45.83236" lon="6.29347">
        <ele>1957.1</ele>
        <time>2022-01-06T09:00:14Z</time>
      </trkpt>
      <trkpt lat="45.83236" lon="6.29346">
        <ele>1957.1</ele>
        <time>2022-01-06T09:00:15Z</time>
      </trkpt>
      <trkpt lat="45.83236" lon="6.29345">
        <ele>1958.1</ele>
        <time>2022-01-06T09:00:16Z</time>
      </trkpt>
      <trkpt lat="45.83236" lon="6.29344">
        <ele>1958.1</ele>
        <time>2022-01-06T09:00:17Z</time>
      </trkpt>
      <trkpt lat="45.83236" lon="6.29343">
        <ele>1958.1</ele>
        <time>2022-01-06T09:00:18Z</time>
      </trkpt>
      <trkpt lat="45.83236" lon="6.29342">
        <ele>1958.1</ele>
        <time>2022-01-06T09:00:19Z</time>
      </trkpt>
      <trkpt lat="45.83236" lon="6.29341">
        <ele>1959.1</ele>
        <time>2022-01-06T09:00:20Z</time>
      </trkpt>
      <trkpt lat="45.83236" lon="6.2934">
        <ele>1959.1</ele>
        <time>2022-01-06T09:00:21Z</time>
      </trkpt>
      <trkpt lat="45.83236" lon="6.2934">
        <ele>1959.1</ele>
        <time>2022-01-06T09:00:22Z</time>
      </trkpt>
      <trkpt lat="45.83236" lon="6.29339">
        <ele>1959.1</ele>
        <time>2022-01-06T09:00:23Z</time>
      </trkpt>
      <trkpt lat="45.83236" lon="6.29338">
        <ele>1960</ele>
        <time>2022-01-06T09:00:24Z</time>
      </trkpt>
      <trkpt lat="45.83236" lon="6.29338">
        <ele>1960</ele>
        <time>2022-01-06T09:00:25Z</time>
      </trkpt>
      <trkpt lat="45.83236" lon="6.29337">
        <ele>1960</ele>
        <time>2022-01-06T09:00:26Z</time>
      </trkpt>
      <trkpt lat="45.83237" lon="6.29337">
        <ele>1960</ele>
        <time>2022-01-06T09:00:27Z</time>
      </trkpt>
      <trkpt lat="45.83237" lon="6.29336">
        <ele>1960</ele>
        <time>2022-01-06T09:00:28Z</time>
      </trkpt>
      <trkpt lat="45.83237" lon="6.29335">
        <ele>1960</ele>
        <time>2022-01-06T09:00:29Z</time>
      </trkpt>
      <trkpt lat="45.83238" lon="6.29334">
        <ele>1961.1</ele>
        <time>2022-01-06T09:00:30Z</time>
      </trkpt>
      <trkpt lat="45.83238" lon="6.29334">
        <ele>1961.1</ele>
        <time>2022-01-06T09:00:31Z</time>
      </trkpt>
      <trkpt lat="45.83238" lon="6.29333">
        <ele>1961.1</ele>
        <time>2022-01-06T09:00:32Z</time>
      </trkpt>
      <trkpt lat="45.83238" lon="6.29333">
        <ele>1961.1</ele>
        <time>2022-01-06T09:00:33Z</time>
      </trkpt>
      <trkpt lat="45.83239" lon="6.29333">
        <ele>1962</ele>
        <time>2022-01-06T09:00:34Z</time>
      </trkpt>
      <trkpt lat="45.8324" lon="6.29333">
        <ele>1962</ele>
        <time>2022-01-06T09:00:35Z</time>
      </trkpt>
      <trkpt lat="45.8324" lon="6.29332">
        <ele>1962</ele>
        <time>2022-01-06T09:00:36Z</time>
      </trkpt>
      <trkpt lat="45.8324" lon="6.29331">
        <ele>1962</ele>
        <time>2022-01-06T09:00:37Z</time>
      </trkpt>
      <trkpt lat="45.8324" lon="6.2933">
        <ele>1962</ele>
        <time>2022-01-06T09:00:38Z</time>
      </trkpt>
      <trkpt lat="45.8324" lon="6.2933">
        <ele>1962</ele>
        <time>2022-01-06T09:00:39Z</time>
      </trkpt>
      <trkpt lat="45.8324" lon="6.29329">
        <ele>1963.1</ele>
        <time>2022-01-06T09:00:40Z</time>
      </trkpt>
      <trkpt lat="45.83241" lon="6.29329">
        <ele>1963.1</ele>
        <time>2022-01-06T09:00:41Z</time>
      </trkpt>
      <trkpt lat="45.83241" lon="6.29328">
        <ele>1963.1</ele>
        <time>2022-01-06T09:00:42Z</time>
      </trkpt>
      <trkpt lat="45.83241" lon="6.29327">
        <ele>1963.1</ele>
        <time>2022-01-06T09:00:43Z</time>
      </trkpt>
      <trkpt lat="45.8324" lon="6.29327">
        <ele>1964.2</ele>
        <time>2022-01-06T09:00:44Z</time>
      </trkpt>
      <trkpt lat="45.8324" lon="6.29326">
        <ele>1964.2</ele>
        <time>2022-01-06T09:00:45Z</time>
      </trkpt>
      <trkpt lat="45.8324" lon="6.29326">
        <ele>1964.2</ele>
        <time>2022-01-06T09:00:46Z</time>
      </trkpt>
      <trkpt lat="45.8324" lon="6.29325">
        <ele>1964.2</ele>
        <time>2022-01-06T09:00:47Z</time>
      </trkpt>
      <trkpt lat="45.8324" lon="6.29325">
        <ele>1965.1</ele>
        <time>2022-01-06T09:00:48Z</time>
      </trkpt>
      <trkpt lat="45.8324" lon="6.29324">
        <ele>1965.1</ele>
        <time>2022-01-06T09:00:49Z</time>
      </trkpt>
      <trkpt lat="45.83239" lon="6.29324">
        <ele>1965.1</ele>
        <time>2022-01-06T09:00:50Z</time>
      </trkpt>
      <trkpt lat="45.83239" lon="6.29323">
        <ele>1965.1</ele>
        <time>2022-01-06T09:00:51Z</time>
      </trkpt>
      <trkpt lat="45.83238" lon="6.29323">
        <ele>1965.1</ele>
        <time>2022-01-06T09:00:52Z</time>
      </trkpt>
      <trkpt lat="45.83237" lon="6.29322">
        <ele>1965.1</ele>
        <time>2022-01-06T09:00:53Z</time>
      </trkpt>
      <trkpt lat="45.83237" lon="6.29322">
        <ele>1965.1</ele>
        <time>2022-01-06T09:00:54Z</time>
      </trkpt>
      <trkpt lat="45.83236" lon="6.29322">
        <ele>1965.1</ele>
        <time>2022-01-06T09:00:55Z</time>
      </trkpt>
      <trkpt lat="45.83236" lon="6.29322">
        <ele>1965.1</ele>
        <time>2022-01-06T09:00:56Z</time>
      </trkpt>
      <trkpt lat="45.83235" lon="6.29322">
        <ele>1965.1</ele>
        <time>2022-01-06T09:00:57Z</time>
      </trkpt>
      <trkpt lat="45.83235" lon="6.29322">
        <ele>1966.1</ele>
        <time>2022-01-06T09:00:58Z</time>
      </trkpt>
      <trkpt lat="45.83234" lon="6.29321">
        <ele>1966.1</ele>
        <time>2022-01-06T09:00:59Z</time>
      </trkpt>
      <trkpt lat="45.83233" lon="6.29321">
        <ele>1966.1</ele>
        <time>2022-01-06T09:01:00Z</time>
      </trkpt>
      <trkpt lat="45.83232" lon="6.29321">
        <ele>1966.1</ele>
        <time>2022-01-06T09:01:01Z</time>
      </trkpt>
      <trkpt lat="45.83231" lon="6.29321">
        <ele>1966.1</ele>
        <time>2022-01-06T09:01:02Z</time>
      </trkpt>
      <trkpt lat="45.8323" lon="6.2932">
        <ele>1966.1</ele>
        <time>2022-01-06T09:01:03Z</time>
      </trkpt>
      <trkpt lat="45.83229" lon="6.2932">
        <ele>1967.1</ele>
        <time>2022-01-06T09:01:04Z</time>
      </trkpt>
      <trkpt lat="45.83228" lon="6.2932">
        <ele>1967.1</ele>
        <time>2022-01-06T09:01:05Z</time>
      </trkpt>
      <trkpt lat="45.83228" lon="6.2932">
        <ele>1967.1</ele>
        <time>2022-01-06T09:01:06Z</time>
      </trkpt>
      <trkpt lat="45.83228" lon="6.2932">
        <ele>1967.1</ele>
        <time>2022-01-06T09:01:07Z</time>
      </trkpt>
      <trkpt lat="45.83227" lon="6.2932">
        <ele>1968.1</ele>
        <time>2022-01-06T09:01:08Z</time>
      </trkpt>
      <trkpt lat="45.83225" lon="6.2932">
        <ele>1968.1</ele>
        <time>2022-01-06T09:01:09Z</time>
      </trkpt>
      <trkpt lat="45.83224" lon="6.29319">
        <ele>1968.1</ele>
        <time>2022-01-06T09:01:10Z</time>
      </trkpt>
      <trkpt lat="45.83223" lon="6.29319">
        <ele>1968.1</ele>
        <time>2022-01-06T09:01:11Z</time>
      </trkpt>
      <trkpt lat="45.83223" lon="6.29318">
        <ele>1969</ele>
        <time>2022-01-06T09:01:12Z</time>
      </trkpt>
      <trkpt lat="45.83223" lon="6.29318">
        <ele>1969</ele>
        <time>2022-01-06T09:01:13Z</time>
      </trkpt>
      <trkpt lat="45.83222" lon="6.29317">
        <ele>1969</ele>
        <time>2022-01-06T09:01:14Z</time>
      </trkpt>
      <trkpt lat="45.83222" lon="6.29317">
        <ele>1969</ele>
        <time>2022-01-06T09:01:15Z</time>
      </trkpt>
      <trkpt lat="45.83221" lon="6.29316">
        <ele>1970.1</ele>
        <time>2022-01-06T09:01:16Z</time>
      </trkpt>
      <trkpt lat="45.83219" lon="6.29315">
        <ele>1970.1</ele>
        <time>2022-01-06T09:01:17Z</time>
      </trkpt>
      <trkpt lat="45.83218" lon="6.29315">
        <ele>1970.1</ele>
        <time>2022-01-06T09:01:18Z</time>
      </trkpt>
      <trkpt lat="45.83218" lon="6.29315">
        <ele>1970.1</ele>
        <time>2022-01-06T09:01:19Z</time>
      </trkpt>
      <trkpt lat="45.83217" lon="6.29315">
        <ele>1970.1</ele>
        <time>2022-01-06T09:01:20Z</time>
      </trkpt>
      <trkpt lat="45.83216" lon="6.29314">
        <ele>1970.1</ele>
        <time>2022-01-06T09:01:21Z</time>
      </trkpt>
      <trkpt lat="45.83216" lon="6.29314">
        <ele>1971.2</ele>
        <time>2022-01-06T09:01:22Z</time>
      </trkpt>
      <trkpt lat="45.83214" lon="6.29314">
        <ele>1971.2</ele>
        <time>2022-01-06T09:01:23Z</time>
      </trkpt>
      <trkpt lat="45.83214" lon="6.29313">
        <ele>1971.2</ele>
        <time>2022-01-06T09:01:24Z</time>
      </trkpt>
      <trkpt lat="45.83213" lon="6.29313">
        <ele>1971.2</ele>
        <time>2022-01-06T09:01:25Z</time>
      </trkpt>
      <trkpt lat="45.83212" lon="6.29314">
        <ele>1971.2</ele>
        <time>2022-01-06T09:01:26Z</time>
      </trkpt>
      <trkpt lat="45.83212" lon="6.29313">
        <ele>1971.2</ele>
        <time>2022-01-06T09:01:27Z</time>
      </trkpt>
      <trkpt lat="45.83211" lon="6.29313">
        <ele>1972.1</ele>
        <time>2022-01-06T09:01:28Z</time>
      </trkpt>
      <trkpt lat="45.8321" lon="6.29313">
        <ele>1972.1</ele>
        <time>2022-01-06T09:01:29Z</time>
      </trkpt>
      <trkpt lat="45.83209" lon="6.29312">
        <ele>1972.1</ele>
        <time>2022-01-06T09:01:30Z</time>
      </trkpt>
      <trkpt lat="45.83208" lon="6.29312">
        <ele>1972.1</ele>
        <time>2022-01-06T09:01:31Z</time>
      </trkpt>
      <trkpt lat="45.83207" lon="6.29312">
        <ele>1972.1</ele>
        <time>2022-01-06T09:01:32Z</time>
      </trkpt>
      <trkpt lat="45.83206" lon="6.29311">
        <ele>1972.1</ele>
        <time>2022-01-06T09:01:33Z</time>
      </trkpt>
      <trkpt lat="45.83205" lon="6.29311">
        <ele>1972.1</ele>
        <time>2022-01-06T09:01:34Z</time>
      </trkpt>
      <trkpt lat="45.83204" lon="6.29311">
        <ele>1972.1</ele>
        <time>2022-01-06T09:01:35Z</time>
      </trkpt>
      <trkpt lat="45.83204" lon="6.29311">
        <ele>1973.1</ele>
        <time>2022-01-06T09:01:36Z</time>
      </trkpt>
      <trkpt lat="45.83203" lon="6.29311">
        <ele>1973.1</ele>
        <time>2022-01-06T09:01:37Z</time>
      </trkpt>
      <trkpt lat="45.83203" lon="6.2931">
        <ele>1973.1</ele>
        <time>2022-01-06T09:01:38Z</time>
      </trkpt>
      <trkpt lat="45.83202" lon="6.2931">
        <ele>1973.1</ele>
        <time>2022-01-06T09:01:39Z</time>
      </trkpt>
      <trkpt lat="45.83201" lon="6.29309">
        <ele>1974.1</ele>
        <time>2022-01-06T09:01:40Z</time>
      </trkpt>
      <trkpt lat="45.832" lon="6.29308">
        <ele>1974.1</ele>
        <time>2022-01-06T09:01:41Z</time>
      </trkpt>
      <trkpt lat="45.832" lon="6.29308">
        <ele>1974.1</ele>
        <time>2022-01-06T09:01:42Z</time>
      </trkpt>
      <trkpt lat="45.83199" lon="6.29307">
        <ele>1974.1</ele>
        <time>2022-01-06T09:01:43Z</time>
      </trkpt>
      <trkpt lat="45.83198" lon="6.29307">
        <ele>1974.1</ele>
        <time>2022-01-06T09:01:44Z</time>
      </trkpt>
      <trkpt lat="45.83197" lon="6.29306">
        <ele>1974.1</ele>
        <time>2022-01-06T09:01:45Z</time>
      </trkpt>
      <trkpt lat="45.83196" lon="6.29306">
        <ele>1975.1</ele>
        <time>2022-01-06T09:01:46Z</time>
      </trkpt>
      <trkpt lat="45.83196" lon="6.29305">
        <ele>1975.1</ele>
        <time>2022-01-06T09:01:47Z</time>
      </trkpt>
      <trkpt lat="45.83195" lon="6.29304">
        <ele>1975.1</ele>
        <time>2022-01-06T09:01:48Z</time>
      </trkpt>
      <trkpt lat="45.83194" lon="6.29303">
        <ele>1975.1</ele>
        <time>2022-01-06T09:01:49Z</time>
      </trkpt>
      <trkpt lat="45.83194" lon="6.29303">
        <ele>1975.1</ele>
        <time>2022-01-06T09:01:50Z</time>
      </trkpt>
      <trkpt lat="45.83193" lon="6.29302">
        <ele>1975.1</ele>
        <time>2022-01-06T09:01:51Z</time>
      </trkpt>
      <trkpt lat="45.83193" lon="6.29302">
        <ele>1975.1</ele>
        <time>2022-01-06T09:01:52Z</time>
      </trkpt>
      <trkpt lat="45.83192" lon="6.29301">
        <ele>1975.1</ele>
        <time>2022-01-06T09:01:53Z</time>
      </trkpt>
      <trkpt lat="45.83191" lon="6.29301">
        <ele>1975.1</ele>
        <time>2022-01-06T09:01:54Z</time>
      </trkpt>
      <trkpt lat="45.8319" lon="6.293">
        <ele>1975.1</ele>
        <time>2022-01-06T09:01:55Z</time>
      </trkpt>
      <trkpt lat="45.8319" lon="6.293">
        <ele>1975.1</ele>
        <time>2022-01-06T09:01:56Z</time>
      </trkpt>
      <trkpt lat="45.83189" lon="6.29299">
        <ele>1975.1</ele>
        <time>2022-01-06T09:01:57Z</time>
      </trkpt>
      <trkpt lat="45.83188" lon="6.29298">
        <ele>1978</ele>
        <time>2022-01-06T09:01:58Z</time>
      </trkpt>
      <trkpt lat="45.83188" lon="6.29298">
        <ele>1978</ele>
        <time>2022-01-06T09:01:59Z</time>
      </trkpt>
      <trkpt lat="45.83187" lon="6.29297">
        <ele>1978</ele>
        <time>2022-01-06T09:02:00Z</time>
      </trkpt>
      <trkpt lat="45.83187" lon="6.29297">
        <ele>1978</ele>
        <time>2022-01-06T09:02:01Z</time>
      </trkpt>
      <trkpt lat="45.83186" lon="6.29296">
        <ele>1978</ele>
        <time>2022-01-06T09:02:02Z</time>
      </trkpt>
      <trkpt lat="45.83185" lon="6.29296">
        <ele>1978</ele>
        <time>2022-01-06T09:02:03Z</time>
      </trkpt>
      <trkpt lat="45.83185" lon="6.29295">
        <ele>1978</ele>
        <time>2022-01-06T09:02:04Z</time>
      </trkpt>
      <trkpt lat="45.83184" lon="6.29294">
        <ele>1978</ele>
        <time>2022-01-06T09:02:05Z</time>
      </trkpt>
      <trkpt lat="45.83183" lon="6.29294">
        <ele>1978</ele>
        <time>2022-01-06T09:02:06Z</time>
      </trkpt>
      <trkpt lat="45.83182" lon="6.29293">
        <ele>1978</ele>
        <time>2022-01-06T09:02:07Z</time>
      </trkpt>
      <trkpt lat="45.83182" lon="6.29293">
        <ele>1979.1</ele>
        <time>2022-01-06T09:02:08Z</time>
      </trkpt>
      <trkpt lat="45.83182" lon="6.29292">
        <ele>1979.1</ele>
        <time>2022-01-06T09:02:09Z</time>
      </trkpt>
      <trkpt lat="45.83181" lon="6.29292">
        <ele>1979.1</ele>
        <time>2022-01-06T09:02:10Z</time>
      </trkpt>
      <trkpt lat="45.8318" lon="6.29291">
        <ele>1979.1</ele>
        <time>2022-01-06T09:02:11Z</time>
      </trkpt>
      <trkpt lat="45.83179" lon="6.29291">
        <ele>1980.2</ele>
        <time>2022-01-06T09:02:12Z</time>
      </trkpt>
      <trkpt lat="45.83178" lon="6.29291">
        <ele>1980.2</ele>
        <time>2022-01-06T09:02:13Z</time>
      </trkpt>
      <trkpt lat="45.83178" lon="6.29291">
        <ele>1980.2</ele>
        <time>2022-01-06T09:02:14Z</time>
      </trkpt>
      <trkpt lat="45.83177" lon="6.29291">
        <ele>1980.2</ele>
        <time>2022-01-06T09:02:15Z</time>
      </trkpt>
      <trkpt lat="45.83177" lon="6.29291">
        <ele>1981.1</ele>
        <time>2022-01-06T09:02:16Z</time>
      </trkpt>
      <trkpt lat="45.83175" lon="6.29291">
        <ele>1981.1</ele>
        <time>2022-01-06T09:02:17Z</time>
      </trkpt>
      <trkpt lat="45.83174" lon="6.29291">
        <ele>1981.1</ele>
        <time>2022-01-06T09:02:18Z</time>
      </trkpt>
      <trkpt lat="45.83172" lon="6.29291">
        <ele>1981.1</ele>
        <time>2022-01-06T09:02:19Z</time>
      </trkpt>
      <trkpt lat="45.83171" lon="6.2929">
        <ele>1981.1</ele>
        <time>2022-01-06T09:02:20Z</time>
      </trkpt>
      <trkpt lat="45.8317" lon="6.2929">
        <ele>1981.1</ele>
        <time>2022-01-06T09:02:21Z</time>
      </trkpt>
      <trkpt lat="45.83169" lon="6.2929">
        <ele>1981.1</ele>
        <time>2022-01-06T09:02:22Z</time>
      </trkpt>
      <trkpt lat="45.83168" lon="6.2929">
        <ele>1981.1</ele>
        <time>2022-01-06T09:02:23Z</time>
      </trkpt>
      <trkpt lat="45.83167" lon="6.29289">
        <ele>1981.1</ele>
        <time>2022-01-06T09:02:24Z</time>
      </trkpt>
      <trkpt lat="45.83166" lon="6.29289">
        <ele>1981.1</ele>
        <time>2022-01-06T09:02:25Z</time>
      </trkpt>
      <trkpt lat="45.83165" lon="6.29288">
        <ele>1982.1</ele>
        <time>2022-01-06T09:02:26Z</time>
      </trkpt>
      <trkpt lat="45.83163" lon="6.29288">
        <ele>1982.1</ele>
        <time>2022-01-06T09:02:27Z</time>
      </trkpt>
      <trkpt lat="45.83162" lon="6.29288">
        <ele>1982.1</ele>
        <time>2022-01-06T09:02:28Z</time>
      </trkpt>
      <trkpt lat="45.83161" lon="6.29288">
        <ele>1982.1</ele>
        <time>2022-01-06T09:02:29Z</time>
      </trkpt>
      <trkpt lat="45.83159" lon="6.29288">
        <ele>1982.1</ele>
        <time>2022-01-06T09:02:30Z</time>
      </trkpt>
      <trkpt lat="45.83157" lon="6.29289">
        <ele>1982.1</ele>
        <time>2022-01-06T09:02:31Z</time>
      </trkpt>
      <trkpt lat="45.83155" lon="6.29289">
        <ele>1982.1</ele>
        <time>2022-01-06T09:02:32Z</time>
      </trkpt>
      <trkpt lat="45.83153" lon="6.2929">
        <ele>1982.1</ele>
        <time>2022-01-06T09:02:33Z</time>
      </trkpt>
      <trkpt lat="45.83151" lon="6.2929">
        <ele>1982.1</ele>
        <time>2022-01-06T09:02:34Z</time>
      </trkpt>
      <trkpt lat="45.83149" lon="6.2929">
        <ele>1982.1</ele>
        <time>2022-01-06T09:02:35Z</time>
      </trkpt>
      <trkpt lat="45.83147" lon="6.29289">
        <ele>1982.1</ele>
        <time>2022-01-06T09:02:36Z</time>
      </trkpt>
      <trkpt lat="45.83145" lon="6.29288">
        <ele>1982.1</ele>
        <time>2022-01-06T09:02:37Z</time>
      </trkpt>
      <trkpt lat="45.83143" lon="6.29288">
        <ele>1981.1</ele>
        <time>2022-01-06T09:02:38Z</time>
      </trkpt>
      <trkpt lat="45.8314" lon="6.29287">
        <ele>1981.1</ele>
        <time>2022-01-06T09:02:39Z</time>
      </trkpt>
      <trkpt lat="45.83139" lon="6.29287">
        <ele>1981.1</ele>
        <time>2022-01-06T09:02:40Z</time>
      </trkpt>
      <trkpt lat="45.83137" lon="6.29287">
        <ele>1981.1</ele>
        <time>2022-01-06T09:02:41Z</time>
      </trkpt>
      <trkpt lat="45.83136" lon="6.29287">
        <ele>1981.1</ele>
        <time>2022-01-06T09:02:42Z</time>
      </trkpt>
      <trkpt lat="45.83135" lon="6.29287">
        <ele>1981.1</ele>
        <time>2022-01-06T09:02:43Z</time>
      </trkpt>
      <trkpt lat="45.83135" lon="6.29286">
        <ele>1981.1</ele>
        <time>2022-01-06T09:02:44Z</time>
      </trkpt>
      <trkpt lat="45.83134" lon="6.29286">
        <ele>1981.1</ele>
        <time>2022-01-06T09:02:45Z</time>
      </trkpt>
      <trkpt lat="45.83133" lon="6.29285">
        <ele>1981.1</ele>
        <time>2022-01-06T09:02:46Z</time>
      </trkpt>
      <trkpt lat="45.83132" lon="6.29285">
        <ele>1981.1</ele>
        <time>2022-01-06T09:02:47Z</time>
      </trkpt>
      <trkpt lat="45.83131" lon="6.29285">
        <ele>1981.1</ele>
        <time>2022-01-06T09:02:48Z</time>
      </trkpt>
      <trkpt lat="45.83129" lon="6.29284">
        <ele>1981.1</ele>
        <time>2022-01-06T09:02:49Z</time>
      </trkpt>
      <trkpt lat="45.83128" lon="6.29284">
        <ele>1981.1</ele>
        <time>2022-01-06T09:02:50Z</time>
      </trkpt>
      <trkpt lat="45.83128" lon="6.29283">
        <ele>1981.1</ele>
        <time>2022-01-06T09:02:51Z</time>
      </trkpt>
      <trkpt lat="45.83128" lon="6.29283">
        <ele>1981.1</ele>
        <time>2022-01-06T09:02:52Z</time>
      </trkpt>
      <trkpt lat="45.83127" lon="6.29283">
        <ele>1981.1</ele>
        <time>2022-01-06T09:02:53Z</time>
      </trkpt>
      <trkpt lat="45.83126" lon="6.29283">
        <ele>1982.1</ele>
        <time>2022-01-06T09:02:54Z</time>
      </trkpt>
      <trkpt lat="45.83125" lon="6.29283">
        <ele>1982.1</ele>
        <time>2022-01-06T09:02:55Z</time>
      </trkpt>
      <trkpt lat="45.83124" lon="6.29283">
        <ele>1982.1</ele>
        <time>2022-01-06T09:02:56Z</time>
      </trkpt>
      <trkpt lat="45.83123" lon="6.29282">
        <ele>1982.1</ele>
        <time>2022-01-06T09:02:57Z</time>
      </trkpt>
      <trkpt lat="45.83122" lon="6.29282">
        <ele>1982.1</ele>
        <time>2022-01-06T09:02:58Z</time>
      </trkpt>
      <trkpt lat="45.83121" lon="6.29283">
        <ele>1982.1</ele>
        <time>2022-01-06T09:02:59Z</time>
      </trkpt>
      <trkpt lat="45.8312" lon="6.29283">
        <ele>1983.1</ele>
        <time>2022-01-06T09:03:00Z</time>
      </trkpt>
      <trkpt lat="45.83119" lon="6.29283">
        <ele>1983.1</ele>
        <time>2022-01-06T09:03:01Z</time>
      </trkpt>
      <trkpt lat="45.83118" lon="6.29284">
        <ele>1983.1</ele>
        <time>2022-01-06T09:03:02Z</time>
      </trkpt>
      <trkpt lat="45.83117" lon="6.29284">
        <ele>1983.1</ele>
        <time>2022-01-06T09:03:03Z</time>
      </trkpt>
      <trkpt lat="45.83116" lon="6.29284">
        <ele>1983.1</ele>
        <time>2022-01-06T09:03:04Z</time>
      </trkpt>
      <trkpt lat="45.83115" lon="6.29284">
        <ele>1983.1</ele>
        <time>2022-01-06T09:03:05Z</time>
      </trkpt>
      <trkpt lat="45.83114" lon="6.29284">
        <ele>1984.1</ele>
        <time>2022-01-06T09:03:06Z</time>
      </trkpt>
      <trkpt lat="45.83113" lon="6.29284">
        <ele>1984.1</ele>
        <time>2022-01-06T09:03:07Z</time>
      </trkpt>
      <trkpt lat="45.83112" lon="6.29284">
        <ele>1984.1</ele>
        <time>2022-01-06T09:03:08Z</time>
      </trkpt>
      <trkpt lat="45.83111" lon="6.29283">
        <ele>1984.1</ele>
        <time>2022-01-06T09:03:09Z</time>
      </trkpt>
      <trkpt lat="45.8311" lon="6.29283">
        <ele>1985</ele>
        <time>2022-01-06T09:03:10Z</time>
      </trkpt>
      <trkpt lat="45.83109" lon="6.29282">
        <ele>1985</ele>
        <time>2022-01-06T09:03:11Z</time>
      </trkpt>
      <trkpt lat="45.83109" lon="6.29282">
        <ele>1985</ele>
        <time>2022-01-06T09:03:12Z</time>
      </trkpt>
      <trkpt lat="45.83109" lon="6.29281">
        <ele>1985</ele>
        <time>2022-01-06T09:03:13Z</time>
      </trkpt>
      <trkpt lat="45.83108" lon="6.29281">
        <ele>1985</ele>
        <time>2022-01-06T09:03:14Z</time>
      </trkpt>
      <trkpt lat="45.83107" lon="6.29281">
        <ele>1985</ele>
        <time>2022-01-06T09:03:15Z</time>
      </trkpt>
      <trkpt lat="45.83106" lon="6.2928">
        <ele>1986.1</ele>
        <time>2022-01-06T09:03:16Z</time>
      </trkpt>
      <trkpt lat="45.83105" lon="6.2928">
        <ele>1986.1</ele>
        <time>2022-01-06T09:03:17Z</time>
      </trkpt>
      <trkpt lat="45.83104" lon="6.29279">
        <ele>1986.1</ele>
        <time>2022-01-06T09:03:18Z</time>
      </trkpt>
      <trkpt lat="45.83104" lon="6.29278">
        <ele>1986.1</ele>
        <time>2022-01-06T09:03:19Z</time>
      </trkpt>
      <trkpt lat="45.83102" lon="6.29278">
        <ele>1986.1</ele>
        <time>2022-01-06T09:03:20Z</time>
      </trkpt>
      <trkpt lat="45.83102" lon="6.29277">
        <ele>1986.1</ele>
        <time>2022-01-06T09:03:21Z</time>
      </trkpt>
      <trkpt lat="45.83101" lon="6.29277">
        <ele>1987.2</ele>
        <time>2022-01-06T09:03:22Z</time>
      </trkpt>
      <trkpt lat="45.831" lon="6.29277">
        <ele>1987.2</ele>
        <time>2022-01-06T09:03:23Z</time>
      </trkpt>
      <trkpt lat="45.83099" lon="6.29276">
        <ele>1987.2</ele>
        <time>2022-01-06T09:03:24Z</time>
      </trkpt>
      <trkpt lat="45.83098" lon="6.29276">
        <ele>1987.2</ele>
        <time>2022-01-06T09:03:25Z</time>
      </trkpt>
      <trkpt lat="45.83098" lon="6.29276">
        <ele>1988.1</ele>
        <time>2022-01-06T09:03:26Z</time>
      </trkpt>
      <trkpt lat="45.83097" lon="6.29276">
        <ele>1988.1</ele>
        <time>2022-01-06T09:03:27Z</time>
      </trkpt>
      <trkpt lat="45.83096" lon="6.29277">
        <ele>1988.1</ele>
        <time>2022-01-06T09:03:28Z</time>
      </trkpt>
      <trkpt lat="45.83095" lon="6.29277">
        <ele>1988.1</ele>
        <time>2022-01-06T09:03:29Z</time>
      </trkpt>
      <trkpt lat="45.83094" lon="6.29278">
        <ele>1989.1</ele>
        <time>2022-01-06T09:03:30Z</time>
      </trkpt>
      <trkpt lat="45.83092" lon="6.2928">
        <ele>1989.1</ele>
        <time>2022-01-06T09:03:31Z</time>
      </trkpt>
      <trkpt lat="45.83091" lon="6.2928">
        <ele>1989.1</ele>
        <time>2022-01-06T09:03:32Z</time>
      </trkpt>
      <trkpt lat="45.8309" lon="6.29281">
        <ele>1989.1</ele>
        <time>2022-01-06T09:03:33Z</time>
      </trkpt>
      <trkpt lat="45.83088" lon="6.29282">
        <ele>1989.1</ele>
        <time>2022-01-06T09:03:34Z</time>
      </trkpt>
      <trkpt lat="45.83087" lon="6.29282">
        <ele>1989.1</ele>
        <time>2022-01-06T09:03:35Z</time>
      </trkpt>
      <trkpt lat="45.83086" lon="6.29281">
        <ele>1989.1</ele>
        <time>2022-01-06T09:03:36Z</time>
      </trkpt>
      <trkpt lat="45.83084" lon="6.29282">
        <ele>1989.1</ele>
        <time>2022-01-06T09:03:37Z</time>
      </trkpt>
      <trkpt lat="45.83082" lon="6.29283">
        <ele>1989.1</ele>
        <time>2022-01-06T09:03:38Z</time>
      </trkpt>
      <trkpt lat="45.83081" lon="6.29283">
        <ele>1989.1</ele>
        <time>2022-01-06T09:03:39Z</time>
      </trkpt>
      <trkpt lat="45.8308" lon="6.29284">
        <ele>1989.1</ele>
        <time>2022-01-06T09:03:40Z</time>
      </trkpt>
      <trkpt lat="45.83079" lon="6.29285">
        <ele>1989.1</ele>
        <time>2022-01-06T09:03:41Z</time>
      </trkpt>
      <trkpt lat="45.83078" lon="6.29285">
        <ele>1989.1</ele>
        <time>2022-01-06T09:03:42Z</time>
      </trkpt>
      <trkpt lat="45.83077" lon="6.29284">
        <ele>1989.1</ele>
        <time>2022-01-06T09:03:43Z</time>
      </trkpt>
      <trkpt lat="45.83075" lon="6.29283">
        <ele>1989.1</ele>
        <time>2022-01-06T09:03:44Z</time>
      </trkpt>
      <trkpt lat="45.83073" lon="6.29281">
        <ele>1989.1</ele>
        <time>2022-01-06T09:03:45Z</time>
      </trkpt>
      <trkpt lat="45.83072" lon="6.2928">
        <ele>1989.1</ele>
        <time>2022-01-06T09:03:46Z</time>
      </trkpt>
      <trkpt lat="45.83071" lon="6.2928">
        <ele>1989.1</ele>
        <time>2022-01-06T09:03:47Z</time>
      </trkpt>
      <trkpt lat="45.8307" lon="6.29279">
        <ele>1989.1</ele>
        <time>2022-01-06T09:03:48Z</time>
      </trkpt>
      <trkpt lat="45.83069" lon="6.29278">
        <ele>1989.1</ele>
        <time>2022-01-06T09:03:49Z</time>
      </trkpt>
      <trkpt lat="45.83068" lon="6.29278">
        <ele>1990.1</ele>
        <time>2022-01-06T09:03:50Z</time>
      </trkpt>
      <trkpt lat="45.83067" lon="6.29278">
        <ele>1990.1</ele>
        <time>2022-01-06T09:03:51Z</time>
      </trkpt>
      <trkpt lat="45.83065" lon="6.29277">
        <ele>1990.1</ele>
        <time>2022-01-06T09:03:52Z</time>
      </trkpt>
      <trkpt lat="45.83064" lon="6.29276">
        <ele>1990.1</ele>
        <time>2022-01-06T09:03:53Z</time>
      </trkpt>
      <trkpt lat="45.83063" lon="6.29276">
        <ele>1990.1</ele>
        <time>2022-01-06T09:03:54Z</time>
      </trkpt>
      <trkpt lat="45.83062" lon="6.29276">
        <ele>1990.1</ele>
        <time>2022-01-06T09:03:55Z</time>
      </trkpt>
      <trkpt lat="45.83061" lon="6.29276">
        <ele>1990.1</ele>
        <time>2022-01-06T09:03:56Z</time>
      </trkpt>
      <trkpt lat="45.83061" lon="6.29276">
        <ele>1990.1</ele>
        <time>2022-01-06T09:03:57Z</time>
      </trkpt>
      <trkpt lat="45.8306" lon="6.29276">
        <ele>1990.1</ele>
        <time>2022-01-06T09:03:58Z</time>
      </trkpt>
      <trkpt lat="45.83059" lon="6.29276">
        <ele>1990.1</ele>
        <time>2022-01-06T09:03:59Z</time>
      </trkpt>
      <trkpt lat="45.83058" lon="6.29276">
        <ele>1990.1</ele>
        <time>2022-01-06T09:04:00Z</time>
      </trkpt>
      <trkpt lat="45.83057" lon="6.29277">
        <ele>1990.1</ele>
        <time>2022-01-06T09:04:01Z</time>
      </trkpt>
      <trkpt lat="45.83056" lon="6.29277">
        <ele>1991.1</ele>
        <time>2022-01-06T09:04:02Z</time>
      </trkpt>
      <trkpt lat="45.83055" lon="6.29277">
        <ele>1991.1</ele>
        <time>2022-01-06T09:04:03Z</time>
      </trkpt>
      <trkpt lat="45.83054" lon="6.29277">
        <ele>1991.1</ele>
        <time>2022-01-06T09:04:04Z</time>
      </trkpt>
      <trkpt lat="45.83054" lon="6.29277">
        <ele>1991.1</ele>
        <time>2022-01-06T09:04:05Z</time>
      </trkpt>
      <trkpt lat="45.83053" lon="6.29277">
        <ele>1992</ele>
        <time>2022-01-06T09:04:06Z</time>
      </trkpt>
      <trkpt lat="45.83052" lon="6.29276">
        <ele>1992</ele>
        <time>2022-01-06T09:04:07Z</time>
      </trkpt>
      <trkpt lat="45.83051" lon="6.29276">
        <ele>1992</ele>
        <time>2022-01-06T09:04:08Z</time>
      </trkpt>
      <trkpt lat="45.83051" lon="6.29274">
        <ele>1992</ele>
        <time>2022-01-06T09:04:09Z</time>
      </trkpt>
      <trkpt lat="45.8305" lon="6.29273">
        <ele>1993.1</ele>
        <time>2022-01-06T09:04:10Z</time>
      </trkpt>
      <trkpt lat="45.83049" lon="6.29272">
        <ele>1993.1</ele>
        <time>2022-01-06T09:04:11Z</time>
      </trkpt>
      <trkpt lat="45.83048" lon="6.29271">
        <ele>1994</ele>
        <time>2022-01-06T09:04:12Z</time>
      </trkpt>
      <trkpt lat="45.83048" lon="6.29271">
        <ele>1994</ele>
        <time>2022-01-06T09:04:13Z</time>
      </trkpt>
      <trkpt lat="45.83048" lon="6.2927">
        <ele>1994</ele>
        <time>2022-01-06T09:04:14Z</time>
      </trkpt>
      <trkpt lat="45.83047" lon="6.2927">
        <ele>1994</ele>
        <time>2022-01-06T09:04:15Z</time>
      </trkpt>
      <trkpt lat="45.83047" lon="6.2927">
        <ele>1995.1</ele>
        <time>2022-01-06T09:04:16Z</time>
      </trkpt>
      <trkpt lat="45.83046" lon="6.2927">
        <ele>1995.1</ele>
        <time>2022-01-06T09:04:17Z</time>
      </trkpt>
      <trkpt lat="45.83045" lon="6.29269">
        <ele>1995.1</ele>
        <time>2022-01-06T09:04:18Z</time>
      </trkpt>
      <trkpt lat="45.83045" lon="6.29269">
        <ele>1995.1</ele>
        <time>2022-01-06T09:04:19Z</time>
      </trkpt>
      <trkpt lat="45.83044" lon="6.29268">
        <ele>1996.2</ele>
        <time>2022-01-06T09:04:20Z</time>
      </trkpt>
      <trkpt lat="45.83043" lon="6.29268">
        <ele>1996.2</ele>
        <time>2022-01-06T09:04:21Z</time>
      </trkpt>
      <trkpt lat="45.83043" lon="6.29266">
        <ele>1996.2</ele>
        <time>2022-01-06T09:04:22Z</time>
      </trkpt>
      <trkpt lat="45.83043" lon="6.29266">
        <ele>1996.2</ele>
        <time>2022-01-06T09:04:23Z</time>
      </trkpt>
      <trkpt lat="45.83044" lon="6.29265">
        <ele>1997.1</ele>
        <time>2022-01-06T09:04:24Z</time>
      </trkpt>
      <trkpt lat="45.83044" lon="6.29264">
        <ele>1997.1</ele>
        <time>2022-01-06T09:04:25Z</time>
      </trkpt>
      <trkpt lat="45.83045" lon="6.29263">
        <ele>1997.1</ele>
        <time>2022-01-06T09:04:26Z</time>
      </trkpt>
      <trkpt lat="45.83045" lon="6.29262">
        <ele>1997.1</ele>
        <time>2022-01-06T09:04:27Z</time>
      </trkpt>
      <trkpt lat="45.83046" lon="6.29261">
        <ele>1997.1</ele>
        <time>2022-01-06T09:04:28Z</time>
      </trkpt>
      <trkpt lat="45.83045" lon="6.2926">
        <ele>1997.1</ele>
        <time>2022-01-06T09:04:29Z</time>
      </trkpt>
      <trkpt lat="45.83046" lon="6.29259">
        <ele>1997.1</ele>
        <time>2022-01-06T09:04:30Z</time>
      </trkpt>
      <trkpt lat="45.83046" lon="6.29257">
        <ele>1997.1</ele>
        <time>2022-01-06T09:04:31Z</time>
      </trkpt>
      <trkpt lat="45.83046" lon="6.29257">
        <ele>2000.1</ele>
        <time>2022-01-06T09:04:32Z</time>
      </trkpt>
      <trkpt lat="45.83046" lon="6.29256">
        <ele>2000.1</ele>
        <time>2022-01-06T09:04:33Z</time>
      </trkpt>
      <trkpt lat="45.83047" lon="6.29255">
        <ele>2000.1</ele>
        <time>2022-01-06T09:04:34Z</time>
      </trkpt>
      <trkpt lat="45.83046" lon="6.29253">
        <ele>2000.1</ele>
        <time>2022-01-06T09:04:35Z</time>
      </trkpt>
      <trkpt lat="45.83046" lon="6.29252">
        <ele>2000.1</ele>
        <time>2022-01-06T09:04:36Z</time>
      </trkpt>
      <trkpt lat="45.83046" lon="6.29251">
        <ele>2000.1</ele>
        <time>2022-01-06T09:04:37Z</time>
      </trkpt>
      <trkpt lat="45.83046" lon="6.2925">
        <ele>2001</ele>
        <time>2022-01-06T09:04:38Z</time>
      </trkpt>
      <trkpt lat="45.83046" lon="6.2925">
        <ele>2001</ele>
        <time>2022-01-06T09:04:39Z</time>
      </trkpt>
      <trkpt lat="45.83046" lon="6.2925">
        <ele>2001</ele>
        <time>2022-01-06T09:04:40Z</time>
      </trkpt>
      <trkpt lat="45.83046" lon="6.29249">
        <ele>2001</ele>
        <time>2022-01-06T09:04:41Z</time>
      </trkpt>
      <trkpt lat="45.83046" lon="6.29248">
        <ele>2002.1</ele>
        <time>2022-01-06T09:04:42Z</time>
      </trkpt>
      <trkpt lat="45.83045" lon="6.29248">
        <ele>2002.1</ele>
        <time>2022-01-06T09:04:43Z</time>
      </trkpt>
      <trkpt lat="45.83045" lon="6.29248">
        <ele>2002.1</ele>
        <time>2022-01-06T09:04:44Z</time>
      </trkpt>
      <trkpt lat="45.83044" lon="6.29248">
        <ele>2002.1</ele>
        <time>2022-01-06T09:04:45Z</time>
      </trkpt>
      <trkpt lat="45.83043" lon="6.29248">
        <ele>2002.1</ele>
        <time>2022-01-06T09:04:46Z</time>
      </trkpt>
      <trkpt lat="45.83042" lon="6.29248">
        <ele>2002.1</ele>
        <time>2022-01-06T09:04:47Z</time>
      </trkpt>
      <trkpt lat="45.83042" lon="6.29248">
        <ele>2003</ele>
        <time>2022-01-06T09:04:48Z</time>
      </trkpt>
      <trkpt lat="45.83042" lon="6.29247">
        <ele>2003</ele>
        <time>2022-01-06T09:04:49Z</time>
      </trkpt>
      <trkpt lat="45.83041" lon="6.29247">
        <ele>2003</ele>
        <time>2022-01-06T09:04:50Z</time>
      </trkpt>
      <trkpt lat="45.8304" lon="6.29247">
        <ele>2003</ele>
        <time>2022-01-06T09:04:51Z</time>
      </trkpt>
      <trkpt lat="45.8304" lon="6.29246">
        <ele>2004.1</ele>
        <time>2022-01-06T09:04:52Z</time>
      </trkpt>
      <trkpt lat="45.83039" lon="6.29246">
        <ele>2004.1</ele>
        <time>2022-01-06T09:04:53Z</time>
      </trkpt>
      <trkpt lat="45.83039" lon="6.29246">
        <ele>2005.2</ele>
        <time>2022-01-06T09:04:54Z</time>
      </trkpt>
      <trkpt lat="45.83038" lon="6.29245">
        <ele>2005.2</ele>
        <time>2022-01-06T09:04:55Z</time>
      </trkpt>
      <trkpt lat="45.83038" lon="6.29244">
        <ele>2005.2</ele>
        <time>2022-01-06T09:04:56Z</time>
      </trkpt>
      <trkpt lat="45.83037" lon="6.29243">
        <ele>2005.2</ele>
        <time>2022-01-06T09:04:57Z</time>
      </trkpt>
      <trkpt lat="45.83037" lon="6.29243">
        <ele>2006.1</ele>
        <time>2022-01-06T09:04:58Z</time>
      </trkpt>
      <trkpt lat="45.83036" lon="6.29242">
        <ele>2006.1</ele>
        <time>2022-01-06T09:04:59Z</time>
      </trkpt>
      <trkpt lat="45.83036" lon="6.29242">
        <ele>2006.1</ele>
        <time>2022-01-06T09:05:00Z</time>
      </trkpt>
      <trkpt lat="45.83035" lon="6.29241">
        <ele>2006.1</ele>
        <time>2022-01-06T09:05:01Z</time>
      </trkpt>
      <trkpt lat="45.83033" lon="6.29241">
        <ele>2006.1</ele>
        <time>2022-01-06T09:05:02Z</time>
      </trkpt>
      <trkpt lat="45.83032" lon="6.2924">
        <ele>2006.1</ele>
        <time>2022-01-06T09:05:03Z</time>
      </trkpt>
      <trkpt lat="45.83032" lon="6.29239">
        <ele>2006.1</ele>
        <time>2022-01-06T09:05:04Z</time>
      </trkpt>
      <trkpt lat="45.83032" lon="6.29239">
        <ele>2006.1</ele>
        <time>2022-01-06T09:05:05Z</time>
      </trkpt>
      <trkpt lat="45.83031" lon="6.29238">
        <ele>2006.1</ele>
        <time>2022-01-06T09:05:06Z</time>
      </trkpt>
      <trkpt lat="45.8303" lon="6.29237">
        <ele>2006.1</ele>
        <time>2022-01-06T09:05:07Z</time>
      </trkpt>
      <trkpt lat="45.83029" lon="6.29236">
        <ele>2006.1</ele>
        <time>2022-01-06T09:05:08Z</time>
      </trkpt>
      <trkpt lat="45.83029" lon="6.29235">
        <ele>2006.1</ele>
        <time>2022-01-06T09:05:09Z</time>
      </trkpt>
      <trkpt lat="45.83028" lon="6.29236">
        <ele>2006.1</ele>
        <time>2022-01-06T09:05:10Z</time>
      </trkpt>
      <trkpt lat="45.83027" lon="6.29236">
        <ele>2006.1</ele>
        <time>2022-01-06T09:05:11Z</time>
      </trkpt>
      <trkpt lat="45.83026" lon="6.29236">
        <ele>2007.1</ele>
        <time>2022-01-06T09:05:12Z</time>
      </trkpt>
      <trkpt lat="45.83024" lon="6.29236">
        <ele>2007.1</ele>
        <time>2022-01-06T09:05:13Z</time>
      </trkpt>
      <trkpt lat="45.83023" lon="6.29235">
        <ele>2008</ele>
        <time>2022-01-06T09:05:14Z</time>
      </trkpt>
      <trkpt lat="45.83023" lon="6.29235">
        <ele>2008</ele>
        <time>2022-01-06T09:05:15Z</time>
      </trkpt>
      <trkpt lat="45.83022" lon="6.29235">
        <ele>2008</ele>
        <time>2022-01-06T09:05:16Z</time>
      </trkpt>
      <trkpt lat="45.83021" lon="6.29235">
        <ele>2008</ele>
        <time>2022-01-06T09:05:17Z</time>
      </trkpt>
      <trkpt lat="45.8302" lon="6.29235">
        <ele>2008</ele>
        <time>2022-01-06T09:05:18Z</time>
      </trkpt>
      <trkpt lat="45.8302" lon="6.29234">
        <ele>2008</ele>
        <time>2022-01-06T09:05:19Z</time>
      </trkpt>
      <trkpt lat="45.83019" lon="6.29234">
        <ele>2009.1</ele>
        <time>2022-01-06T09:05:20Z</time>
      </trkpt>
      <trkpt lat="45.83018" lon="6.29234">
        <ele>2009.1</ele>
        <time>2022-01-06T09:05:21Z</time>
      </trkpt>
      <trkpt lat="45.83017" lon="6.29233">
        <ele>2009.1</ele>
        <time>2022-01-06T09:05:22Z</time>
      </trkpt>
      <trkpt lat="45.83016" lon="6.29233">
        <ele>2009.1</ele>
        <time>2022-01-06T09:05:23Z</time>
      </trkpt>
      <trkpt lat="45.83015" lon="6.29233">
        <ele>2010</ele>
        <time>2022-01-06T09:05:24Z</time>
      </trkpt>
      <trkpt lat="45.83015" lon="6.29233">
        <ele>2010</ele>
        <time>2022-01-06T09:05:25Z</time>
      </trkpt>
      <trkpt lat="45.83014" lon="6.29233">
        <ele>2010</ele>
        <time>2022-01-06T09:05:26Z</time>
      </trkpt>
      <trkpt lat="45.83013" lon="6.29233">
        <ele>2010</ele>
        <time>2022-01-06T09:05:27Z</time>
      </trkpt>
      <trkpt lat="45.83012" lon="6.29233">
        <ele>2010</ele>
        <time>2022-01-06T09:05:28Z</time>
      </trkpt>
      <trkpt lat="45.83012" lon="6.29232">
        <ele>2010</ele>
        <time>2022-01-06T09:05:29Z</time>
      </trkpt>
      <trkpt lat="45.83011" lon="6.29231">
        <ele>2011.1</ele>
        <time>2022-01-06T09:05:30Z</time>
      </trkpt>
      <trkpt lat="45.83011" lon="6.29231">
        <ele>2011.1</ele>
        <time>2022-01-06T09:05:31Z</time>
      </trkpt>
      <trkpt lat="45.8301" lon="6.2923">
        <ele>2011.1</ele>
        <time>2022-01-06T09:05:32Z</time>
      </trkpt>
      <trkpt lat="45.83009" lon="6.2923">
        <ele>2011.1</ele>
        <time>2022-01-06T09:05:33Z</time>
      </trkpt>
      <trkpt lat="45.83009" lon="6.29229">
        <ele>2012.2</ele>
        <time>2022-01-06T09:05:34Z</time>
      </trkpt>
      <trkpt lat="45.83008" lon="6.29229">
        <ele>2012.2</ele>
        <time>2022-01-06T09:05:35Z</time>
      </trkpt>
      <trkpt lat="45.83007" lon="6.29228">
        <ele>2012.2</ele>
        <time>2022-01-06T09:05:36Z</time>
      </trkpt>
      <trkpt lat="45.83006" lon="6.29227">
        <ele>2012.2</ele>
        <time>2022-01-06T09:05:37Z</time>
      </trkpt>
      <trkpt lat="45.83005" lon="6.29226">
        <ele>2012.2</ele>
        <time>2022-01-06T09:05:38Z</time>
      </trkpt>
      <trkpt lat="45.83004" lon="6.29225">
        <ele>2012.2</ele>
        <time>2022-01-06T09:05:39Z</time>
      </trkpt>
      <trkpt lat="45.83004" lon="6.29225">
        <ele>2013.1</ele>
        <time>2022-01-06T09:05:40Z</time>
      </trkpt>
      <trkpt lat="45.83003" lon="6.29224">
        <ele>2013.1</ele>
        <time>2022-01-06T09:05:41Z</time>
      </trkpt>
      <trkpt lat="45.83003" lon="6.29224">
        <ele>2013.1</ele>
        <time>2022-01-06T09:05:42Z</time>
      </trkpt>
      <trkpt lat="45.83002" lon="6.29223">
        <ele>2013.1</ele>
        <time>2022-01-06T09:05:43Z</time>
      </trkpt>
      <trkpt lat="45.83002" lon="6.29221">
        <ele>2014.1</ele>
        <time>2022-01-06T09:05:44Z</time>
      </trkpt>
      <trkpt lat="45.83001" lon="6.2922">
        <ele>2014.1</ele>
        <time>2022-01-06T09:05:45Z</time>
      </trkpt>
      <trkpt lat="45.83002" lon="6.29219">
        <ele>2014.1</ele>
        <time>2022-01-06T09:05:46Z</time>
      </trkpt>
      <trkpt lat="45.83002" lon="6.29219">
        <ele>2014.1</ele>
        <time>2022-01-06T09:05:47Z</time>
      </trkpt>
      <trkpt lat="45.83002" lon="6.29219">
        <ele>2015.1</ele>
        <time>2022-01-06T09:05:48Z</time>
      </trkpt>
      <trkpt lat="45.83001" lon="6.2922">
        <ele>2015.1</ele>
        <time>2022-01-06T09:05:49Z</time>
      </trkpt>
      <trkpt lat="45.83001" lon="6.2922">
        <ele>2015.1</ele>
        <time>2022-01-06T09:05:50Z</time>
      </trkpt>
      <trkpt lat="45.83" lon="6.2922">
        <ele>2015.1</ele>
        <time>2022-01-06T09:05:51Z</time>
      </trkpt>
      <trkpt lat="45.83" lon="6.29221">
        <ele>2016.1</ele>
        <time>2022-01-06T09:05:52Z</time>
      </trkpt>
      <trkpt lat="45.83" lon="6.29221">
        <ele>2016.1</ele>
        <time>2022-01-06T09:05:53Z</time>
      </trkpt>
      <trkpt lat="45.82999" lon="6.29222">
        <ele>2016.1</ele>
        <time>2022-01-06T09:05:54Z</time>
      </trkpt>
      <trkpt lat="45.82998" lon="6.29222">
        <ele>2016.1</ele>
        <time>2022-01-06T09:05:55Z</time>
      </trkpt>
      <trkpt lat="45.82998" lon="6.29223">
        <ele>2016.1</ele>
        <time>2022-01-06T09:05:56Z</time>
      </trkpt>
      <trkpt lat="45.82997" lon="6.29225">
        <ele>2016.1</ele>
        <time>2022-01-06T09:05:57Z</time>
      </trkpt>
      <trkpt lat="45.82997" lon="6.29225">
        <ele>2016.1</ele>
        <time>2022-01-06T09:05:58Z</time>
      </trkpt>
      <trkpt lat="45.82996" lon="6.29225">
        <ele>2016.1</ele>
        <time>2022-01-06T09:05:59Z</time>
      </trkpt>
      <trkpt lat="45.82995" lon="6.29225">
        <ele>2016.1</ele>
        <time>2022-01-06T09:06:00Z</time>
      </trkpt>
      <trkpt lat="45.82995" lon="6.29225">
        <ele>2016.1</ele>
        <time>2022-01-06T09:06:01Z</time>
      </trkpt>
      <trkpt lat="45.82994" lon="6.29225">
        <ele>2016.1</ele>
        <time>2022-01-06T09:06:02Z</time>
      </trkpt>
      <trkpt lat="45.82993" lon="6.29225">
        <ele>2016.1</ele>
        <time>2022-01-06T09:06:03Z</time>
      </trkpt>
      <trkpt lat="45.82992" lon="6.29225">
        <ele>2018.1</ele>
        <time>2022-01-06T09:06:04Z</time>
      </trkpt>
      <trkpt lat="45.82991" lon="6.29224">
        <ele>2018.1</ele>
        <time>2022-01-06T09:06:05Z</time>
      </trkpt>
      <trkpt lat="45.8299" lon="6.29224">
        <ele>2019</ele>
        <time>2022-01-06T09:06:06Z</time>
      </trkpt>
      <trkpt lat="45.8299" lon="6.29223">
        <ele>2019</ele>
        <time>2022-01-06T09:06:07Z</time>
      </trkpt>
      <trkpt lat="45.82989" lon="6.29223">
        <ele>2019</ele>
        <time>2022-01-06T09:06:08Z</time>
      </trkpt>
      <trkpt lat="45.82988" lon="6.29222">
        <ele>2019</ele>
        <time>2022-01-06T09:06:09Z</time>
      </trkpt>
      <trkpt lat="45.82988" lon="6.29221">
        <ele>2020.1</ele>
        <time>2022-01-06T09:06:10Z</time>
      </trkpt>
      <trkpt lat="45.82987" lon="6.29221">
        <ele>2020.1</ele>
        <time>2022-01-06T09:06:11Z</time>
      </trkpt>
      <trkpt lat="45.82987" lon="6.2922">
        <ele>2020.1</ele>
        <time>2022-01-06T09:06:12Z</time>
      </trkpt>
      <trkpt lat="45.82987" lon="6.29219">
        <ele>2020.1</ele>
        <time>2022-01-06T09:06:13Z</time>
      </trkpt>
      <trkpt lat="45.82987" lon="6.29218">
        <ele>2021.2</ele>
        <time>2022-01-06T09:06:14Z</time>
      </trkpt>
      <trkpt lat="45.82986" lon="6.29217">
        <ele>2021.2</ele>
        <time>2022-01-06T09:06:15Z</time>
      </trkpt>
      <trkpt lat="45.82985" lon="6.29216">
        <ele>2022.1</ele>
        <time>2022-01-06T09:06:16Z</time>
      </trkpt>
      <trkpt lat="45.82985" lon="6.29216">
        <ele>2022.1</ele>
        <time>2022-01-06T09:06:17Z</time>
      </trkpt>
      <trkpt lat="45.82984" lon="6.29216">
        <ele>2022.1</ele>
        <time>2022-01-06T09:06:18Z</time>
      </trkpt>
      <trkpt lat="45.82984" lon="6.29216">
        <ele>2022.1</ele>
        <time>2022-01-06T09:06:19Z</time>
      </trkpt>
      <trkpt lat="45.82982" lon="6.29216">
        <ele>2023.1</ele>
        <time>2022-01-06T09:06:20Z</time>
      </trkpt>
      <trkpt lat="45.82982" lon="6.29217">
        <ele>2023.1</ele>
        <time>2022-01-06T09:06:21Z</time>
      </trkpt>
      <trkpt lat="45.82981" lon="6.29216">
        <ele>2023.1</ele>
        <time>2022-01-06T09:06:22Z</time>
      </trkpt>
      <trkpt lat="45.82981" lon="6.29216">
        <ele>2023.1</ele>
        <time>2022-01-06T09:06:23Z</time>
      </trkpt>
      <trkpt lat="45.8298" lon="6.29215">
        <ele>2024</ele>
        <time>2022-01-06T09:06:24Z</time>
      </trkpt>
      <trkpt lat="45.82979" lon="6.29215">
        <ele>2024</ele>
        <time>2022-01-06T09:06:25Z</time>
      </trkpt>
      <trkpt lat="45.82978" lon="6.29214">
        <ele>2024</ele>
        <time>2022-01-06T09:06:26Z</time>
      </trkpt>
      <trkpt lat="45.82977" lon="6.29214">
        <ele>2024</ele>
        <time>2022-01-06T09:06:27Z</time>
      </trkpt>
      <trkpt lat="45.82976" lon="6.29214">
        <ele>2024</ele>
        <time>2022-01-06T09:06:28Z</time>
      </trkpt>
      <trkpt lat="45.82976" lon="6.29214">
        <ele>2024</ele>
        <time>2022-01-06T09:06:29Z</time>
      </trkpt>
      <trkpt lat="45.82975" lon="6.29214">
        <ele>2025.1</ele>
        <time>2022-01-06T09:06:30Z</time>
      </trkpt>
      <trkpt lat="45.82975" lon="6.29215">
        <ele>2025.1</ele>
        <time>2022-01-06T09:06:31Z</time>
      </trkpt>
      <trkpt lat="45.82974" lon="6.29216">
        <ele>2025.1</ele>
        <time>2022-01-06T09:06:32Z</time>
      </trkpt>
      <trkpt lat="45.82974" lon="6.29216">
        <ele>2025.1</ele>
        <time>2022-01-06T09:06:33Z</time>
      </trkpt>
      <trkpt lat="45.82974" lon="6.29217">
        <ele>2025.1</ele>
        <time>2022-01-06T09:06:34Z</time>
      </trkpt>
      <trkpt lat="45.82973" lon="6.29217">
        <ele>2025.1</ele>
        <time>2022-01-06T09:06:35Z</time>
      </trkpt>
      <trkpt lat="45.82972" lon="6.29217">
        <ele>2026</ele>
        <time>2022-01-06T09:06:36Z</time>
      </trkpt>
      <trkpt lat="45.82971" lon="6.29217">
        <ele>2026</ele>
        <time>2022-01-06T09:06:37Z</time>
      </trkpt>
      <trkpt lat="45.8297" lon="6.29218">
        <ele>2026</ele>
        <time>2022-01-06T09:06:38Z</time>
      </trkpt>
      <trkpt lat="45.82969" lon="6.29218">
        <ele>2026</ele>
        <time>2022-01-06T09:06:39Z</time>
      </trkpt>
      <trkpt lat="45.82968" lon="6.29218">
        <ele>2026</ele>
        <time>2022-01-06T09:06:40Z</time>
      </trkpt>
      <trkpt lat="45.82967" lon="6.29217">
        <ele>2026</ele>
        <time>2022-01-06T09:06:41Z</time>
      </trkpt>
      <trkpt lat="45.82966" lon="6.29218">
        <ele>2027.1</ele>
        <time>2022-01-06T09:06:42Z</time>
      </trkpt>
      <trkpt lat="45.82965" lon="6.29217">
        <ele>2027.1</ele>
        <time>2022-01-06T09:06:43Z</time>
      </trkpt>
      <trkpt lat="45.82964" lon="6.29218">
        <ele>2027.1</ele>
        <time>2022-01-06T09:06:44Z</time>
      </trkpt>
      <trkpt lat="45.82962" lon="6.29218">
        <ele>2027.1</ele>
        <time>2022-01-06T09:06:45Z</time>
      </trkpt>
      <trkpt lat="45.82961" lon="6.29219">
        <ele>2027.1</ele>
        <time>2022-01-06T09:06:46Z</time>
      </trkpt>
      <trkpt lat="45.8296" lon="6.29219">
        <ele>2027.1</ele>
        <time>2022-01-06T09:06:47Z</time>
      </trkpt>
      <trkpt lat="45.82959" lon="6.2922">
        <ele>2027.1</ele>
        <time>2022-01-06T09:06:48Z</time>
      </trkpt>
      <trkpt lat="45.82959" lon="6.2922">
        <ele>2027.1</ele>
        <time>2022-01-06T09:06:49Z</time>
      </trkpt>
      <trkpt lat="45.82958" lon="6.2922">
        <ele>2027.1</ele>
        <time>2022-01-06T09:06:50Z</time>
      </trkpt>
      <trkpt lat="45.82957" lon="6.2922">
        <ele>2027.1</ele>
        <time>2022-01-06T09:06:51Z</time>
      </trkpt>
      <trkpt lat="45.82957" lon="6.2922">
        <ele>2027.1</ele>
        <time>2022-01-06T09:06:52Z</time>
      </trkpt>
      <trkpt lat="45.82956" lon="6.2922">
        <ele>2027.1</ele>
        <time>2022-01-06T09:06:53Z</time>
      </trkpt>
      <trkpt lat="45.82956" lon="6.2922">
        <ele>2028.2</ele>
        <time>2022-01-06T09:06:54Z</time>
      </trkpt>
      <trkpt lat="45.82955" lon="6.2922">
        <ele>2028.2</ele>
        <time>2022-01-06T09:06:55Z</time>
      </trkpt>
      <trkpt lat="45.82955" lon="6.2922">
        <ele>2028.2</ele>
        <time>2022-01-06T09:06:56Z</time>
      </trkpt>
      <trkpt lat="45.82954" lon="6.2922">
        <ele>2028.2</ele>
        <time>2022-01-06T09:06:57Z</time>
      </trkpt>
      <trkpt lat="45.82953" lon="6.2922">
        <ele>2029.1</ele>
        <time>2022-01-06T09:06:58Z</time>
      </trkpt>
      <trkpt lat="45.82952" lon="6.29221">
        <ele>2029.1</ele>
        <time>2022-01-06T09:06:59Z</time>
      </trkpt>
      <trkpt lat="45.82952" lon="6.2922">
        <ele>2029.1</ele>
        <time>2022-01-06T09:07:00Z</time>
      </trkpt>
      <trkpt lat="45.82951" lon="6.2922">
        <ele>2029.1</ele>
        <time>2022-01-06T09:07:01Z</time>
      </trkpt>
      <trkpt lat="45.82951" lon="6.2922">
        <ele>2030.1</ele>
        <time>2022-01-06T09:07:02Z</time>
      </trkpt>
      <trkpt lat="45.8295" lon="6.29219">
        <ele>2030.1</ele>
        <time>2022-01-06T09:07:03Z</time>
      </trkpt>
      <trkpt lat="45.8295" lon="6.29218">
        <ele>2030.1</ele>
        <time>2022-01-06T09:07:04Z</time>
      </trkpt>
      <trkpt lat="45.82949" lon="6.29218">
        <ele>2030.1</ele>
        <time>2022-01-06T09:07:05Z</time>
      </trkpt>
      <trkpt lat="45.82948" lon="6.29217">
        <ele>2031.1</ele>
        <time>2022-01-06T09:07:06Z</time>
      </trkpt>
      <trkpt lat="45.82947" lon="6.29216">
        <ele>2031.1</ele>
        <time>2022-01-06T09:07:07Z</time>
      </trkpt>
      <trkpt lat="45.82946" lon="6.29215">
        <ele>2032.1</ele>
        <time>2022-01-06T09:07:08Z</time>
      </trkpt>
      <trkpt lat="45.82946" lon="6.29214">
        <ele>2032.1</ele>
        <time>2022-01-06T09:07:09Z</time>
      </trkpt>
      <trkpt lat="45.82946" lon="6.29214">
        <ele>2033</ele>
        <time>2022-01-06T09:07:10Z</time>
      </trkpt>
      <trkpt lat="45.82945" lon="6.29213">
        <ele>2033</ele>
        <time>2022-01-06T09:07:11Z</time>
      </trkpt>
      <trkpt lat="45.82945" lon="6.29212">
        <ele>2033</ele>
        <time>2022-01-06T09:07:12Z</time>
      </trkpt>
      <trkpt lat="45.82946" lon="6.29212">
        <ele>2033</ele>
        <time>2022-01-06T09:07:13Z</time>
      </trkpt>
      <trkpt lat="45.82947" lon="6.29212">
        <ele>2034.1</ele>
        <time>2022-01-06T09:07:14Z</time>
      </trkpt>
      <trkpt lat="45.82947" lon="6.29211">
        <ele>2034.1</ele>
        <time>2022-01-06T09:07:15Z</time>
      </trkpt>
      <trkpt lat="45.82947" lon="6.2921">
        <ele>2034.1</ele>
        <time>2022-01-06T09:07:16Z</time>
      </trkpt>
      <trkpt lat="45.82947" lon="6.2921">
        <ele>2034.1</ele>
        <time>2022-01-06T09:07:17Z</time>
      </trkpt>
      <trkpt lat="45.82947" lon="6.2921">
        <ele>2034.1</ele>
        <time>2022-01-06T09:07:18Z</time>
      </trkpt>
      <trkpt lat="45.82947" lon="6.2921">
        <ele>2034.1</ele>
        <time>2022-01-06T09:07:19Z</time>
      </trkpt>
      <trkpt lat="45.82947" lon="6.2921">
        <ele>2035</ele>
        <time>2022-01-06T09:07:20Z</time>
      </trkpt>
      <trkpt lat="45.82946" lon="6.2921">
        <ele>2035</ele>
        <time>2022-01-06T09:07:21Z</time>
      </trkpt>
      <trkpt lat="45.82946" lon="6.29209">
        <ele>2035</ele>
        <time>2022-01-06T09:07:22Z</time>
      </trkpt>
      <trkpt lat="45.82945" lon="6.29209">
        <ele>2035</ele>
        <time>2022-01-06T09:07:23Z</time>
      </trkpt>
      <trkpt lat="45.82945" lon="6.29208">
        <ele>2036.1</ele>
        <time>2022-01-06T09:07:24Z</time>
      </trkpt>
      <trkpt lat="45.82944" lon="6.29208">
        <ele>2036.1</ele>
        <time>2022-01-06T09:07:25Z</time>
      </trkpt>
      <trkpt lat="45.82944" lon="6.29207">
        <ele>2036.1</ele>
        <time>2022-01-06T09:07:26Z</time>
      </trkpt>
      <trkpt lat="45.82942" lon="6.29206">
        <ele>2036.1</ele>
        <time>2022-01-06T09:07:27Z</time>
      </trkpt>
      <trkpt lat="45.82942" lon="6.29206">
        <ele>2037.2</ele>
        <time>2022-01-06T09:07:28Z</time>
      </trkpt>
      <trkpt lat="45.82941" lon="6.29205">
        <ele>2037.2</ele>
        <time>2022-01-06T09:07:29Z</time>
      </trkpt>
      <trkpt lat="45.8294" lon="6.29204">
        <ele>2038.1</ele>
        <time>2022-01-06T09:07:30Z</time>
      </trkpt>
      <trkpt lat="45.8294" lon="6.29204">
        <ele>2038.1</ele>
        <time>2022-01-06T09:07:31Z</time>
      </trkpt>
      <trkpt lat="45.82939" lon="6.29203">
        <ele>2038.1</ele>
        <time>2022-01-06T09:07:32Z</time>
      </trkpt>
      <trkpt lat="45.82939" lon="6.29203">
        <ele>2038.1</ele>
        <time>2022-01-06T09:07:33Z</time>
      </trkpt>
      <trkpt lat="45.82938" lon="6.29202">
        <ele>2039.1</ele>
        <time>2022-01-06T09:07:34Z</time>
      </trkpt>
      <trkpt lat="45.82938" lon="6.29202">
        <ele>2039.1</ele>
        <time>2022-01-06T09:07:35Z</time>
      </trkpt>
      <trkpt lat="45.82937" lon="6.29201">
        <ele>2039.1</ele>
        <time>2022-01-06T09:07:36Z</time>
      </trkpt>
      <trkpt lat="45.82937" lon="6.29201">
        <ele>2039.1</ele>
        <time>2022-01-06T09:07:37Z</time>
      </trkpt>
      <trkpt lat="45.82936" lon="6.29201">
        <ele>2040.1</ele>
        <time>2022-01-06T09:07:38Z</time>
      </trkpt>
      <trkpt lat="45.82936" lon="6.292">
        <ele>2040.1</ele>
        <time>2022-01-06T09:07:39Z</time>
      </trkpt>
      <trkpt lat="45.82936" lon="6.29199">
        <ele>2040.1</ele>
        <time>2022-01-06T09:07:40Z</time>
      </trkpt>
      <trkpt lat="45.82935" lon="6.29199">
        <ele>2040.1</ele>
        <time>2022-01-06T09:07:41Z</time>
      </trkpt>
      <trkpt lat="45.82934" lon="6.29198">
        <ele>2041.1</ele>
        <time>2022-01-06T09:07:42Z</time>
      </trkpt>
      <trkpt lat="45.82933" lon="6.29198">
        <ele>2041.1</ele>
        <time>2022-01-06T09:07:43Z</time>
      </trkpt>
      <trkpt lat="45.82932" lon="6.29197">
        <ele>2041.1</ele>
        <time>2022-01-06T09:07:44Z</time>
      </trkpt>
      <trkpt lat="45.82932" lon="6.29196">
        <ele>2041.1</ele>
        <time>2022-01-06T09:07:45Z</time>
      </trkpt>
      <trkpt lat="45.82931" lon="6.29195">
        <ele>2041.1</ele>
        <time>2022-01-06T09:07:46Z</time>
      </trkpt>
      <trkpt lat="45.82931" lon="6.29194">
        <ele>2041.1</ele>
        <time>2022-01-06T09:07:47Z</time>
      </trkpt>
      <trkpt lat="45.8293" lon="6.29193">
        <ele>2041.1</ele>
        <time>2022-01-06T09:07:48Z</time>
      </trkpt>
      <trkpt lat="45.8293" lon="6.29193">
        <ele>2041.1</ele>
        <time>2022-01-06T09:07:49Z</time>
      </trkpt>
      <trkpt lat="45.82929" lon="6.29192">
        <ele>2041.1</ele>
        <time>2022-01-06T09:07:50Z</time>
      </trkpt>
      <trkpt lat="45.82929" lon="6.29192">
        <ele>2041.1</ele>
        <time>2022-01-06T09:07:51Z</time>
      </trkpt>
      <trkpt lat="45.82928" lon="6.29191">
        <ele>2041.1</ele>
        <time>2022-01-06T09:07:52Z</time>
      </trkpt>
      <trkpt lat="45.82927" lon="6.29191">
        <ele>2041.1</ele>
        <time>2022-01-06T09:07:53Z</time>
      </trkpt>
      <trkpt lat="45.82926" lon="6.2919">
        <ele>2041.1</ele>
        <time>2022-01-06T09:07:54Z</time>
      </trkpt>
      <trkpt lat="45.82925" lon="6.2919">
        <ele>2041.1</ele>
        <time>2022-01-06T09:07:55Z</time>
      </trkpt>
      <trkpt lat="45.82924" lon="6.2919">
        <ele>2041.1</ele>
        <time>2022-01-06T09:07:56Z</time>
      </trkpt>
      <trkpt lat="45.82923" lon="6.29189">
        <ele>2041.1</ele>
        <time>2022-01-06T09:07:57Z</time>
      </trkpt>
      <trkpt lat="45.82922" lon="6.29189">
        <ele>2043.1</ele>
        <time>2022-01-06T09:07:58Z</time>
      </trkpt>
      <trkpt lat="45.82921" lon="6.29189">
        <ele>2043.1</ele>
        <time>2022-01-06T09:07:59Z</time>
      </trkpt>
      <trkpt lat="45.8292" lon="6.29188">
        <ele>2043.1</ele>
        <time>2022-01-06T09:08:00Z</time>
      </trkpt>
      <trkpt lat="45.8292" lon="6.29187">
        <ele>2043.1</ele>
        <time>2022-01-06T09:08:01Z</time>
      </trkpt>
      <trkpt lat="45.82919" lon="6.29187">
        <ele>2043.1</ele>
        <time>2022-01-06T09:08:02Z</time>
      </trkpt>
      <trkpt lat="45.82918" lon="6.29186">
        <ele>2043.1</ele>
        <time>2022-01-06T09:08:03Z</time>
      </trkpt>
      <trkpt lat="45.82917" lon="6.29186">
        <ele>2043.1</ele>
        <time>2022-01-06T09:08:04Z</time>
      </trkpt>
      <trkpt lat="45.82916" lon="6.29185">
        <ele>2043.1</ele>
        <time>2022-01-06T09:08:05Z</time>
      </trkpt>
      <trkpt lat="45.82915" lon="6.29184">
        <ele>2043.1</ele>
        <time>2022-01-06T09:08:06Z</time>
      </trkpt>
      <trkpt lat="45.82914" lon="6.29183">
        <ele>2043.1</ele>
        <time>2022-01-06T09:08:07Z</time>
      </trkpt>
      <trkpt lat="45.82914" lon="6.29182">
        <ele>2043.1</ele>
        <time>2022-01-06T09:08:08Z</time>
      </trkpt>
      <trkpt lat="45.82913" lon="6.29182">
        <ele>2043.1</ele>
        <time>2022-01-06T09:08:09Z</time>
      </trkpt>
      <trkpt lat="45.82913" lon="6.29181">
        <ele>2043.1</ele>
        <time>2022-01-06T09:08:10Z</time>
      </trkpt>
      <trkpt lat="45.82913" lon="6.29181">
        <ele>2043.1</ele>
        <time>2022-01-06T09:08:11Z</time>
      </trkpt>
      <trkpt lat="45.82912" lon="6.2918">
        <ele>2043.1</ele>
        <time>2022-01-06T09:08:12Z</time>
      </trkpt>
      <trkpt lat="45.82912" lon="6.2918">
        <ele>2043.1</ele>
        <time>2022-01-06T09:08:13Z</time>
      </trkpt>
      <trkpt lat="45.82911" lon="6.29179">
        <ele>2043.1</ele>
        <time>2022-01-06T09:08:14Z</time>
      </trkpt>
      <trkpt lat="45.8291" lon="6.29178">
        <ele>2043.1</ele>
        <time>2022-01-06T09:08:15Z</time>
      </trkpt>
      <trkpt lat="45.8291" lon="6.29178">
        <ele>2044.2</ele>
        <time>2022-01-06T09:08:16Z</time>
      </trkpt>
      <trkpt lat="45.82909" lon="6.29177">
        <ele>2044.2</ele>
        <time>2022-01-06T09:08:17Z</time>
      </trkpt>
      <trkpt lat="45.82909" lon="6.29177">
        <ele>2044.2</ele>
        <time>2022-01-06T09:08:18Z</time>
      </trkpt>
      <trkpt lat="45.82908" lon="6.29176">
        <ele>2044.2</ele>
        <time>2022-01-06T09:08:19Z</time>
      </trkpt>
      <trkpt lat="45.82907" lon="6.29177">
        <ele>2045.1</ele>
        <time>2022-01-06T09:08:20Z</time>
      </trkpt>
      <trkpt lat="45.82906" lon="6.29176">
        <ele>2045.1</ele>
        <time>2022-01-06T09:08:21Z</time>
      </trkpt>
      <trkpt lat="45.82905" lon="6.29176">
        <ele>2045.1</ele>
        <time>2022-01-06T09:08:22Z</time>
      </trkpt>
      <trkpt lat="45.82904" lon="6.29175">
        <ele>2045.1</ele>
        <time>2022-01-06T09:08:23Z</time>
      </trkpt>
      <trkpt lat="45.82904" lon="6.29175">
        <ele>2045.1</ele>
        <time>2022-01-06T09:08:24Z</time>
      </trkpt>
      <trkpt lat="45.82903" lon="6.29176">
        <ele>2045.1</ele>
        <time>2022-01-06T09:08:25Z</time>
      </trkpt>
      <trkpt lat="45.82902" lon="6.29176">
        <ele>2045.1</ele>
        <time>2022-01-06T09:08:26Z</time>
      </trkpt>
      <trkpt lat="45.82901" lon="6.29176">
        <ele>2045.1</ele>
        <time>2022-01-06T09:08:27Z</time>
      </trkpt>
      <trkpt lat="45.829" lon="6.29176">
        <ele>2046.1</ele>
        <time>2022-01-06T09:08:28Z</time>
      </trkpt>
      <trkpt lat="45.829" lon="6.29175">
        <ele>2046.1</ele>
        <time>2022-01-06T09:08:29Z</time>
      </trkpt>
      <trkpt lat="45.82898" lon="6.29175">
        <ele>2046.1</ele>
        <time>2022-01-06T09:08:30Z</time>
      </trkpt>
      <trkpt lat="45.82898" lon="6.29175">
        <ele>2046.1</ele>
        <time>2022-01-06T09:08:31Z</time>
      </trkpt>
      <trkpt lat="45.82896" lon="6.29176">
        <ele>2046.1</ele>
        <time>2022-01-06T09:08:32Z</time>
      </trkpt>
      <trkpt lat="45.82895" lon="6.29176">
        <ele>2046.1</ele>
        <time>2022-01-06T09:08:33Z</time>
      </trkpt>
      <trkpt lat="45.82894" lon="6.29177">
        <ele>2047.1</ele>
        <time>2022-01-06T09:08:34Z</time>
      </trkpt>
      <trkpt lat="45.82892" lon="6.29177">
        <ele>2047.1</ele>
        <time>2022-01-06T09:08:35Z</time>
      </trkpt>
      <trkpt lat="45.82891" lon="6.29178">
        <ele>2047.1</ele>
        <time>2022-01-06T09:08:36Z</time>
      </trkpt>
      <trkpt lat="45.8289" lon="6.29178">
        <ele>2047.1</ele>
        <time>2022-01-06T09:08:37Z</time>
      </trkpt>
      <trkpt lat="45.82889" lon="6.29178">
        <ele>2047.1</ele>
        <time>2022-01-06T09:08:38Z</time>
      </trkpt>
      <trkpt lat="45.82888" lon="6.29178">
        <ele>2047.1</ele>
        <time>2022-01-06T09:08:39Z</time>
      </trkpt>
      <trkpt lat="45.82887" lon="6.29178">
        <ele>2047.1</ele>
        <time>2022-01-06T09:08:40Z</time>
      </trkpt>
      <trkpt lat="45.82886" lon="6.29179">
        <ele>2047.1</ele>
        <time>2022-01-06T09:08:41Z</time>
      </trkpt>
      <trkpt lat="45.82885" lon="6.29178">
        <ele>2047.1</ele>
        <time>2022-01-06T09:08:42Z</time>
      </trkpt>
      <trkpt lat="45.82884" lon="6.29178">
        <ele>2047.1</ele>
        <time>2022-01-06T09:08:43Z</time>
      </trkpt>
      <trkpt lat="45.82883" lon="6.29177">
        <ele>2048.1</ele>
        <time>2022-01-06T09:08:44Z</time>
      </trkpt>
      <trkpt lat="45.82883" lon="6.29177">
        <ele>2048.1</ele>
        <time>2022-01-06T09:08:45Z</time>
      </trkpt>
      <trkpt lat="45.82882" lon="6.29177">
        <ele>2048.1</ele>
        <time>2022-01-06T09:08:46Z</time>
      </trkpt>
      <trkpt lat="45.82881" lon="6.29177">
        <ele>2048.1</ele>
        <time>2022-01-06T09:08:47Z</time>
      </trkpt>
      <trkpt lat="45.8288" lon="6.29177">
        <ele>2048.1</ele>
        <time>2022-01-06T09:08:48Z</time>
      </trkpt>
      <trkpt lat="45.8288" lon="6.29176">
        <ele>2048.1</ele>
        <time>2022-01-06T09:08:49Z</time>
      </trkpt>
      <trkpt lat="45.82879" lon="6.29176">
        <ele>2048.1</ele>
        <time>2022-01-06T09:08:50Z</time>
      </trkpt>
      <trkpt lat="45.82878" lon="6.29176">
        <ele>2048.1</ele>
        <time>2022-01-06T09:08:51Z</time>
      </trkpt>
      <trkpt lat="45.82877" lon="6.29175">
        <ele>2048.1</ele>
        <time>2022-01-06T09:08:52Z</time>
      </trkpt>
      <trkpt lat="45.82876" lon="6.29175">
        <ele>2048.1</ele>
        <time>2022-01-06T09:08:53Z</time>
      </trkpt>
      <trkpt lat="45.82875" lon="6.29174">
        <ele>2048.1</ele>
        <time>2022-01-06T09:08:54Z</time>
      </trkpt>
      <trkpt lat="45.82875" lon="6.29174">
        <ele>2048.1</ele>
        <time>2022-01-06T09:08:55Z</time>
      </trkpt>
      <trkpt lat="45.82874" lon="6.29174">
        <ele>2050.1</ele>
        <time>2022-01-06T09:08:56Z</time>
      </trkpt>
      <trkpt lat="45.82874" lon="6.29173">
        <ele>2050.1</ele>
        <time>2022-01-06T09:08:57Z</time>
      </trkpt>
      <trkpt lat="45.82873" lon="6.29173">
        <ele>2050.1</ele>
        <time>2022-01-06T09:08:58Z</time>
      </trkpt>
      <trkpt lat="45.82872" lon="6.29174">
        <ele>2050.1</ele>
        <time>2022-01-06T09:08:59Z</time>
      </trkpt>
      <trkpt lat="45.82871" lon="6.29173">
        <ele>2051</ele>
        <time>2022-01-06T09:09:00Z</time>
      </trkpt>
      <trkpt lat="45.8287" lon="6.29173">
        <ele>2051</ele>
        <time>2022-01-06T09:09:01Z</time>
      </trkpt>
      <trkpt lat="45.82869" lon="6.29173">
        <ele>2051</ele>
        <time>2022-01-06T09:09:02Z</time>
      </trkpt>
      <trkpt lat="45.82869" lon="6.29173">
        <ele>2051</ele>
        <time>2022-01-06T09:09:03Z</time>
      </trkpt>
      <trkpt lat="45.82868" lon="6.29173">
        <ele>2052.1</ele>
        <time>2022-01-06T09:09:04Z</time>
      </trkpt>
      <trkpt lat="45.82868" lon="6.29173">
        <ele>2052.1</ele>
        <time>2022-01-06T09:09:05Z</time>
      </trkpt>
      <trkpt lat="45.82866" lon="6.29173">
        <ele>2052.1</ele>
        <time>2022-01-06T09:09:06Z</time>
      </trkpt>
      <trkpt lat="45.82865" lon="6.29173">
        <ele>2052.1</ele>
        <time>2022-01-06T09:09:07Z</time>
      </trkpt>
      <trkpt lat="45.82865" lon="6.29172">
        <ele>2053.2</ele>
        <time>2022-01-06T09:09:08Z</time>
      </trkpt>
      <trkpt lat="45.82865" lon="6.29172">
        <ele>2053.2</ele>
        <time>2022-01-06T09:09:09Z</time>
      </trkpt>
      <trkpt lat="45.82865" lon="6.29172">
        <ele>2053.2</ele>
        <time>2022-01-06T09:09:10Z</time>
      </trkpt>
      <trkpt lat="45.82864" lon="6.29171">
        <ele>2053.2</ele>
        <time>2022-01-06T09:09:11Z</time>
      </trkpt>
      <trkpt lat="45.82863" lon="6.29171">
        <ele>2053.2</ele>
        <time>2022-01-06T09:09:12Z</time>
      </trkpt>
      <trkpt lat="45.82863" lon="6.29171">
        <ele>2053.2</ele>
        <time>2022-01-06T09:09:13Z</time>
      </trkpt>
      <trkpt lat="45.82862" lon="6.29171">
        <ele>2054.1</ele>
        <time>2022-01-06T09:09:14Z</time>
      </trkpt>
      <trkpt lat="45.82861" lon="6.29171">
        <ele>2054.1</ele>
        <time>2022-01-06T09:09:15Z</time>
      </trkpt>
      <trkpt lat="45.8286" lon="6.29171">
        <ele>2054.1</ele>
        <time>2022-01-06T09:09:16Z</time>
      </trkpt>
      <trkpt lat="45.8286" lon="6.29171">
        <ele>2054.1</ele>
        <time>2022-01-06T09:09:17Z</time>
      </trkpt>
      <trkpt lat="45.82859" lon="6.29171">
        <ele>2054.1</ele>
        <time>2022-01-06T09:09:18Z</time>
      </trkpt>
      <trkpt lat="45.82858" lon="6.29171">
        <ele>2054.1</ele>
        <time>2022-01-06T09:09:19Z</time>
      </trkpt>
      <trkpt lat="45.82857" lon="6.2917">
        <ele>2055.1</ele>
        <time>2022-01-06T09:09:20Z</time>
      </trkpt>
      <trkpt lat="45.82857" lon="6.2917">
        <ele>2055.1</ele>
        <time>2022-01-06T09:09:21Z</time>
      </trkpt>
      <trkpt lat="45.82856" lon="6.2917">
        <ele>2055.1</ele>
        <time>2022-01-06T09:09:22Z</time>
      </trkpt>
      <trkpt lat="45.82855" lon="6.2917">
        <ele>2055.1</ele>
        <time>2022-01-06T09:09:23Z</time>
      </trkpt>
      <trkpt lat="45.82854" lon="6.2917">
        <ele>2056.1</ele>
        <time>2022-01-06T09:09:24Z</time>
      </trkpt>
      <trkpt lat="45.82853" lon="6.2917">
        <ele>2056.1</ele>
        <time>2022-01-06T09:09:25Z</time>
      </trkpt>
      <trkpt lat="45.82853" lon="6.2917">
        <ele>2056.1</ele>
        <time>2022-01-06T09:09:26Z</time>
      </trkpt>
      <trkpt lat="45.82852" lon="6.2917">
        <ele>2056.1</ele>
        <time>2022-01-06T09:09:27Z</time>
      </trkpt>
      <trkpt lat="45.82851" lon="6.29169">
        <ele>2056.1</ele>
        <time>2022-01-06T09:09:28Z</time>
      </trkpt>
      <trkpt lat="45.82851" lon="6.29168">
        <ele>2056.1</ele>
        <time>2022-01-06T09:09:29Z</time>
      </trkpt>
      <trkpt lat="45.8285" lon="6.29169">
        <ele>2056.1</ele>
        <time>2022-01-06T09:09:30Z</time>
      </trkpt>
      <trkpt lat="45.82848" lon="6.29169">
        <ele>2056.1</ele>
        <time>2022-01-06T09:09:31Z</time>
      </trkpt>
      <trkpt lat="45.82847" lon="6.2917">
        <ele>2056.1</ele>
        <time>2022-01-06T09:09:32Z</time>
      </trkpt>
      <trkpt lat="45.82847" lon="6.2917">
        <ele>2056.1</ele>
        <time>2022-01-06T09:09:33Z</time>
      </trkpt>
      <trkpt lat="45.82846" lon="6.29171">
        <ele>2057.1</ele>
        <time>2022-01-06T09:09:34Z</time>
      </trkpt>
      <trkpt lat="45.82845" lon="6.29172">
        <ele>2057.1</ele>
        <time>2022-01-06T09:09:35Z</time>
      </trkpt>
      <trkpt lat="45.82845" lon="6.29172">
        <ele>2057.1</ele>
        <time>2022-01-06T09:09:36Z</time>
      </trkpt>
      <trkpt lat="45.82844" lon="6.29173">
        <ele>2057.1</ele>
        <time>2022-01-06T09:09:37Z</time>
      </trkpt>
      <trkpt lat="45.82844" lon="6.29174">
        <ele>2058</ele>
        <time>2022-01-06T09:09:38Z</time>
      </trkpt>
      <trkpt lat="45.82843" lon="6.29175">
        <ele>2058</ele>
        <time>2022-01-06T09:09:39Z</time>
      </trkpt>
      <trkpt lat="45.82843" lon="6.29175">
        <ele>2058</ele>
        <time>2022-01-06T09:09:40Z</time>
      </trkpt>
      <trkpt lat="45.82842" lon="6.29176">
        <ele>2058</ele>
        <time>2022-01-06T09:09:41Z</time>
      </trkpt>
      <trkpt lat="45.82842" lon="6.29176">
        <ele>2059.1</ele>
        <time>2022-01-06T09:09:42Z</time>
      </trkpt>
      <trkpt lat="45.82841" lon="6.29176">
        <ele>2059.1</ele>
        <time>2022-01-06T09:09:43Z</time>
      </trkpt>
      <trkpt lat="45.8284" lon="6.29176">
        <ele>2060.2</ele>
        <time>2022-01-06T09:09:44Z</time>
      </trkpt>
      <trkpt lat="45.8284" lon="6.29176">
        <ele>2060.2</ele>
        <time>2022-01-06T09:09:45Z</time>
      </trkpt>
      <trkpt lat="45.82838" lon="6.29176">
        <ele>2060.2</ele>
        <time>2022-01-06T09:09:46Z</time>
      </trkpt>
      <trkpt lat="45.82838" lon="6.29176">
        <ele>2060.2</ele>
        <time>2022-01-06T09:09:47Z</time>
      </trkpt>
      <trkpt lat="45.82837" lon="6.29176">
        <ele>2061.1</ele>
        <time>2022-01-06T09:09:48Z</time>
      </trkpt>
      <trkpt lat="45.82836" lon="6.29175">
        <ele>2061.1</ele>
        <time>2022-01-06T09:09:49Z</time>
      </trkpt>
      <trkpt lat="45.82836" lon="6.29175">
        <ele>2061.1</ele>
        <time>2022-01-06T09:09:50Z</time>
      </trkpt>
      <trkpt lat="45.82835" lon="6.29175">
        <ele>2061.1</ele>
        <time>2022-01-06T09:09:51Z</time>
      </trkpt>
      <trkpt lat="45.82834" lon="6.29175">
        <ele>2062.1</ele>
        <time>2022-01-06T09:09:52Z</time>
      </trkpt>
      <trkpt lat="45.82834" lon="6.29175">
        <ele>2062.1</ele>
        <time>2022-01-06T09:09:53Z</time>
      </trkpt>
      <trkpt lat="45.82833" lon="6.29175">
        <ele>2062.1</ele>
        <time>2022-01-06T09:09:54Z</time>
      </trkpt>
      <trkpt lat="45.82833" lon="6.29175">
        <ele>2062.1</ele>
        <time>2022-01-06T09:09:55Z</time>
      </trkpt>
      <trkpt lat="45.82832" lon="6.29174">
        <ele>2063.1</ele>
        <time>2022-01-06T09:09:56Z</time>
      </trkpt>
      <trkpt lat="45.82832" lon="6.29174">
        <ele>2063.1</ele>
        <time>2022-01-06T09:09:57Z</time>
      </trkpt>
      <trkpt lat="45.82831" lon="6.29173">
        <ele>2064.1</ele>
        <time>2022-01-06T09:09:58Z</time>
      </trkpt>
      <trkpt lat="45.82831" lon="6.29172">
        <ele>2064.1</ele>
        <time>2022-01-06T09:09:59Z</time>
      </trkpt>
      <trkpt lat="45.8283" lon="6.29171">
        <ele>2064.1</ele>
        <time>2022-01-06T09:10:00Z</time>
      </trkpt>
      <trkpt lat="45.8283" lon="6.2917">
        <ele>2064.1</ele>
        <time>2022-01-06T09:10:01Z</time>
      </trkpt>
      <trkpt lat="45.8283" lon="6.29169">
        <ele>2064.1</ele>
        <time>2022-01-06T09:10:02Z</time>
      </trkpt>
      <trkpt lat="45.8283" lon="6.29168">
        <ele>2064.1</ele>
        <time>2022-01-06T09:10:03Z</time>
      </trkpt>
      <trkpt lat="45.82829" lon="6.29168">
        <ele>2065</ele>
        <time>2022-01-06T09:10:04Z</time>
      </trkpt>
      <trkpt lat="45.82828" lon="6.29168">
        <ele>2065</ele>
        <time>2022-01-06T09:10:05Z</time>
      </trkpt>
      <trkpt lat="45.82828" lon="6.29167">
        <ele>2065</ele>
        <time>2022-01-06T09:10:06Z</time>
      </trkpt>
      <trkpt lat="45.82828" lon="6.29165">
        <ele>2065</ele>
        <time>2022-01-06T09:10:07Z</time>
      </trkpt>
      <trkpt lat="45.82827" lon="6.29164">
        <ele>2066.1</ele>
        <time>2022-01-06T09:10:08Z</time>
      </trkpt>
      <trkpt lat="45.82827" lon="6.29163">
        <ele>2066.1</ele>
        <time>2022-01-06T09:10:09Z</time>
      </trkpt>
      <trkpt lat="45.82827" lon="6.29162">
        <ele>2066.1</ele>
        <time>2022-01-06T09:10:10Z</time>
      </trkpt>
      <trkpt lat="45.82827" lon="6.29161">
        <ele>2066.1</ele>
        <time>2022-01-06T09:10:11Z</time>
      </trkpt>
      <trkpt lat="45.82826" lon="6.29161">
        <ele>2067</ele>
        <time>2022-01-06T09:10:12Z</time>
      </trkpt>
      <trkpt lat="45.82826" lon="6.2916">
        <ele>2067</ele>
        <time>2022-01-06T09:10:13Z</time>
      </trkpt>
      <trkpt lat="45.82826" lon="6.29159">
        <ele>2068.1</ele>
        <time>2022-01-06T09:10:14Z</time>
      </trkpt>
      <trkpt lat="45.82826" lon="6.29159">
        <ele>2068.1</ele>
        <time>2022-01-06T09:10:15Z</time>
      </trkpt>
      <trkpt lat="45.82826" lon="6.29158">
        <ele>2069.2</ele>
        <time>2022-01-06T09:10:16Z</time>
      </trkpt>
      <trkpt lat="45.82825" lon="6.29157">
        <ele>2069.2</ele>
        <time>2022-01-06T09:10:17Z</time>
      </trkpt>
      <trkpt lat="45.82825" lon="6.29156">
        <ele>2069.2</ele>
        <time>2022-01-06T09:10:18Z</time>
      </trkpt>
      <trkpt lat="45.82825" lon="6.29155">
        <ele>2069.2</ele>
        <time>2022-01-06T09:10:19Z</time>
      </trkpt>
      <trkpt lat="45.82825" lon="6.29155">
        <ele>2070.1</ele>
        <time>2022-01-06T09:10:20Z</time>
      </trkpt>
      <trkpt lat="45.82825" lon="6.29154">
        <ele>2070.1</ele>
        <time>2022-01-06T09:10:21Z</time>
      </trkpt>
      <trkpt lat="45.82826" lon="6.29153">
        <ele>2070.1</ele>
        <time>2022-01-06T09:10:22Z</time>
      </trkpt>
      <trkpt lat="45.82826" lon="6.29153">
        <ele>2070.1</ele>
        <time>2022-01-06T09:10:23Z</time>
      </trkpt>
      <trkpt lat="45.82826" lon="6.29153">
        <ele>2070.1</ele>
        <time>2022-01-06T09:10:24Z</time>
      </trkpt>
      <trkpt lat="45.82825" lon="6.29153">
        <ele>2070.1</ele>
        <time>2022-01-06T09:10:25Z</time>
      </trkpt>
      <trkpt lat="45.82825" lon="6.29154">
        <ele>2070.1</ele>
        <time>2022-01-06T09:10:26Z</time>
      </trkpt>
      <trkpt lat="45.82825" lon="6.29155">
        <ele>2070.1</ele>
        <time>2022-01-06T09:10:27Z</time>
      </trkpt>
      <trkpt lat="45.82825" lon="6.29155">
        <ele>2070.1</ele>
        <time>2022-01-06T09:10:28Z</time>
      </trkpt>
      <trkpt lat="45.82825" lon="6.29155">
        <ele>2070.1</ele>
        <time>2022-01-06T09:10:29Z</time>
      </trkpt>
      <trkpt lat="45.82824" lon="6.29156">
        <ele>2070.1</ele>
        <time>2022-01-06T09:10:30Z</time>
      </trkpt>
      <trkpt lat="45.82824" lon="6.29156">
        <ele>2070.1</ele>
        <time>2022-01-06T09:10:31Z</time>
      </trkpt>
      <trkpt lat="45.82823" lon="6.29157">
        <ele>2070.1</ele>
        <time>2022-01-06T09:10:32Z</time>
      </trkpt>
      <trkpt lat="45.82822" lon="6.29157">
        <ele>2070.1</ele>
        <time>2022-01-06T09:10:33Z</time>
      </trkpt>
      <trkpt lat="45.82822" lon="6.29157">
        <ele>2071.1</ele>
        <time>2022-01-06T09:10:34Z</time>
      </trkpt>
      <trkpt lat="45.82821" lon="6.29158">
        <ele>2071.1</ele>
        <time>2022-01-06T09:10:35Z</time>
      </trkpt>
      <trkpt lat="45.82821" lon="6.29158">
        <ele>2071.1</ele>
        <time>2022-01-06T09:10:36Z</time>
      </trkpt>
      <trkpt lat="45.8282" lon="6.29159">
        <ele>2071.1</ele>
        <time>2022-01-06T09:10:37Z</time>
      </trkpt>
      <trkpt lat="45.82819" lon="6.2916">
        <ele>2072.1</ele>
        <time>2022-01-06T09:10:38Z</time>
      </trkpt>
      <trkpt lat="45.82819" lon="6.2916">
        <ele>2072.1</ele>
        <time>2022-01-06T09:10:39Z</time>
      </trkpt>
      <trkpt lat="45.82818" lon="6.2916">
        <ele>2072.1</ele>
        <time>2022-01-06T09:10:40Z</time>
      </trkpt>
      <trkpt lat="45.82817" lon="6.2916">
        <ele>2072.1</ele>
        <time>2022-01-06T09:10:41Z</time>
      </trkpt>
      <trkpt lat="45.82817" lon="6.29161">
        <ele>2073.1</ele>
        <time>2022-01-06T09:10:42Z</time>
      </trkpt>
      <trkpt lat="45.82816" lon="6.29161">
        <ele>2073.1</ele>
        <time>2022-01-06T09:10:43Z</time>
      </trkpt>
      <trkpt lat="45.82816" lon="6.29161">
        <ele>2073.1</ele>
        <time>2022-01-06T09:10:44Z</time>
      </trkpt>
      <trkpt lat="45.82815" lon="6.29161">
        <ele>2073.1</ele>
        <time>2022-01-06T09:10:45Z</time>
      </trkpt>
      <trkpt lat="45.82814" lon="6.29161">
        <ele>2074</ele>
        <time>2022-01-06T09:10:46Z</time>
      </trkpt>
      <trkpt lat="45.82814" lon="6.29162">
        <ele>2074</ele>
        <time>2022-01-06T09:10:47Z</time>
      </trkpt>
      <trkpt lat="45.82813" lon="6.29162">
        <ele>2074</ele>
        <time>2022-01-06T09:10:48Z</time>
      </trkpt>
      <trkpt lat="45.82813" lon="6.29163">
        <ele>2074</ele>
        <time>2022-01-06T09:10:49Z</time>
      </trkpt>
      <trkpt lat="45.82812" lon="6.29163">
        <ele>2075.1</ele>
        <time>2022-01-06T09:10:50Z</time>
      </trkpt>
      <trkpt lat="45.82812" lon="6.29164">
        <ele>2075.1</ele>
        <time>2022-01-06T09:10:51Z</time>
      </trkpt>
      <trkpt lat="45.82811" lon="6.29164">
        <ele>2075.1</ele>
        <time>2022-01-06T09:10:52Z</time>
      </trkpt>
      <trkpt lat="45.8281" lon="6.29164">
        <ele>2075.1</ele>
        <time>2022-01-06T09:10:53Z</time>
      </trkpt>
      <trkpt lat="45.8281" lon="6.29164">
        <ele>2075.1</ele>
        <time>2022-01-06T09:10:54Z</time>
      </trkpt>
      <trkpt lat="45.8281" lon="6.29164">
        <ele>2075.1</ele>
        <time>2022-01-06T09:10:55Z</time>
      </trkpt>
      <trkpt lat="45.82809" lon="6.29164">
        <ele>2076</ele>
        <time>2022-01-06T09:10:56Z</time>
      </trkpt>
      <trkpt lat="45.82809" lon="6.29164">
        <ele>2076</ele>
        <time>2022-01-06T09:10:57Z</time>
      </trkpt>
      <trkpt lat="45.82808" lon="6.29164">
        <ele>2077.1</ele>
        <time>2022-01-06T09:10:58Z</time>
      </trkpt>
      <trkpt lat="45.82808" lon="6.29163">
        <ele>2077.1</ele>
        <time>2022-01-06T09:10:59Z</time>
      </trkpt>
      <trkpt lat="45.82807" lon="6.29163">
        <ele>2078.2</ele>
        <time>2022-01-06T09:11:00Z</time>
      </trkpt>
      <trkpt lat="45.82807" lon="6.29163">
        <ele>2078.2</ele>
        <time>2022-01-06T09:11:01Z</time>
      </trkpt>
      <trkpt lat="45.82806" lon="6.29163">
        <ele>2078.2</ele>
        <time>2022-01-06T09:11:02Z</time>
      </trkpt>
      <trkpt lat="45.82805" lon="6.29163">
        <ele>2078.2</ele>
        <time>2022-01-06T09:11:03Z</time>
      </trkpt>
      <trkpt lat="45.82805" lon="6.29162">
        <ele>2079.1</ele>
        <time>2022-01-06T09:11:04Z</time>
      </trkpt>
      <trkpt lat="45.82804" lon="6.29162">
        <ele>2079.1</ele>
        <time>2022-01-06T09:11:05Z</time>
      </trkpt>
      <trkpt lat="45.82804" lon="6.29162">
        <ele>2079.1</ele>
        <time>2022-01-06T09:11:06Z</time>
      </trkpt>
      <trkpt lat="45.82803" lon="6.29161">
        <ele>2079.1</ele>
        <time>2022-01-06T09:11:07Z</time>
      </trkpt>
      <trkpt lat="45.82803" lon="6.29161">
        <ele>2079.1</ele>
        <time>2022-01-06T09:11:08Z</time>
      </trkpt>
      <trkpt lat="45.82802" lon="6.29161">
        <ele>2079.1</ele>
        <time>2022-01-06T09:11:09Z</time>
      </trkpt>
      <trkpt lat="45.82802" lon="6.29161">
        <ele>2080.1</ele>
        <time>2022-01-06T09:11:10Z</time>
      </trkpt>
      <trkpt lat="45.82801" lon="6.2916">
        <ele>2080.1</ele>
        <time>2022-01-06T09:11:11Z</time>
      </trkpt>
      <trkpt lat="45.82801" lon="6.29159">
        <ele>2080.1</ele>
        <time>2022-01-06T09:11:12Z</time>
      </trkpt>
      <trkpt lat="45.828" lon="6.29158">
        <ele>2080.1</ele>
        <time>2022-01-06T09:11:13Z</time>
      </trkpt>
      <trkpt lat="45.82799" lon="6.29157">
        <ele>2081</ele>
        <time>2022-01-06T09:11:14Z</time>
      </trkpt>
      <trkpt lat="45.82798" lon="6.29157">
        <ele>2081</ele>
        <time>2022-01-06T09:11:15Z</time>
      </trkpt>
      <trkpt lat="45.82797" lon="6.29157">
        <ele>2081</ele>
        <time>2022-01-06T09:11:16Z</time>
      </trkpt>
      <trkpt lat="45.82797" lon="6.29157">
        <ele>2081</ele>
        <time>2022-01-06T09:11:17Z</time>
      </trkpt>
      <trkpt lat="45.82796" lon="6.29156">
        <ele>2082.1</ele>
        <time>2022-01-06T09:11:18Z</time>
      </trkpt>
      <trkpt lat="45.82795" lon="6.29156">
        <ele>2082.1</ele>
        <time>2022-01-06T09:11:19Z</time>
      </trkpt>
      <trkpt lat="45.82794" lon="6.29155">
        <ele>2082.1</ele>
        <time>2022-01-06T09:11:20Z</time>
      </trkpt>
      <trkpt lat="45.82792" lon="6.29154">
        <ele>2082.1</ele>
        <time>2022-01-06T09:11:21Z</time>
      </trkpt>
      <trkpt lat="45.8279" lon="6.29153">
        <ele>2082.1</ele>
        <time>2022-01-06T09:11:22Z</time>
      </trkpt>
      <trkpt lat="45.82789" lon="6.29152">
        <ele>2082.1</ele>
        <time>2022-01-06T09:11:23Z</time>
      </trkpt>
      <trkpt lat="45.82788" lon="6.29151">
        <ele>2082.1</ele>
        <time>2022-01-06T09:11:24Z</time>
      </trkpt>
      <trkpt lat="45.82787" lon="6.29151">
        <ele>2082.1</ele>
        <time>2022-01-06T09:11:25Z</time>
      </trkpt>
      <trkpt lat="45.82787" lon="6.2915">
        <ele>2082.1</ele>
        <time>2022-01-06T09:11:26Z</time>
      </trkpt>
      <trkpt lat="45.82786" lon="6.29149">
        <ele>2082.1</ele>
        <time>2022-01-06T09:11:27Z</time>
      </trkpt>
      <trkpt lat="45.82785" lon="6.29149">
        <ele>2082.1</ele>
        <time>2022-01-06T09:11:28Z</time>
      </trkpt>
      <trkpt lat="45.82785" lon="6.29148">
        <ele>2082.1</ele>
        <time>2022-01-06T09:11:29Z</time>
      </trkpt>
      <trkpt lat="45.82785" lon="6.29148">
        <ele>2082.1</ele>
        <time>2022-01-06T09:11:30Z</time>
      </trkpt>
      <trkpt lat="45.82785" lon="6.29147">
        <ele>2082.1</ele>
        <time>2022-01-06T09:11:31Z</time>
      </trkpt>
      <trkpt lat="45.82785" lon="6.29146">
        <ele>2083</ele>
        <time>2022-01-06T09:11:32Z</time>
      </trkpt>
      <trkpt lat="45.82784" lon="6.29145">
        <ele>2083</ele>
        <time>2022-01-06T09:11:33Z</time>
      </trkpt>
      <trkpt lat="45.82784" lon="6.29144">
        <ele>2083</ele>
        <time>2022-01-06T09:11:34Z</time>
      </trkpt>
      <trkpt lat="45.82783" lon="6.29143">
        <ele>2083</ele>
        <time>2022-01-06T09:11:35Z</time>
      </trkpt>
      <trkpt lat="45.82782" lon="6.29143">
        <ele>2083</ele>
        <time>2022-01-06T09:11:36Z</time>
      </trkpt>
      <trkpt lat="45.82781" lon="6.29142">
        <ele>2083</ele>
        <time>2022-01-06T09:11:37Z</time>
      </trkpt>
      <trkpt lat="45.8278" lon="6.29141">
        <ele>2083</ele>
        <time>2022-01-06T09:11:38Z</time>
      </trkpt>
      <trkpt lat="45.82779" lon="6.2914">
        <ele>2083</ele>
        <time>2022-01-06T09:11:39Z</time>
      </trkpt>
      <trkpt lat="45.82778" lon="6.2914">
        <ele>2084.1</ele>
        <time>2022-01-06T09:11:40Z</time>
      </trkpt>
      <trkpt lat="45.82777" lon="6.29139">
        <ele>2084.1</ele>
        <time>2022-01-06T09:11:41Z</time>
      </trkpt>
      <trkpt lat="45.82776" lon="6.29139">
        <ele>2084.1</ele>
        <time>2022-01-06T09:11:42Z</time>
      </trkpt>
      <trkpt lat="45.82775" lon="6.29139">
        <ele>2084.1</ele>
        <time>2022-01-06T09:11:43Z</time>
      </trkpt>
      <trkpt lat="45.82774" lon="6.29139">
        <ele>2085.2</ele>
        <time>2022-01-06T09:11:44Z</time>
      </trkpt>
      <trkpt lat="45.82773" lon="6.29138">
        <ele>2085.2</ele>
        <time>2022-01-06T09:11:45Z</time>
      </trkpt>
      <trkpt lat="45.82772" lon="6.29138">
        <ele>2085.2</ele>
        <time>2022-01-06T09:11:46Z</time>
      </trkpt>
      <trkpt lat="45.82771" lon="6.29137">
        <ele>2085.2</ele>
        <time>2022-01-06T09:11:47Z</time>
      </trkpt>
      <trkpt lat="45.8277" lon="6.29137">
        <ele>2085.2</ele>
        <time>2022-01-06T09:11:48Z</time>
      </trkpt>
      <trkpt lat="45.82769" lon="6.29137">
        <ele>2085.2</ele>
        <time>2022-01-06T09:11:49Z</time>
      </trkpt>
      <trkpt lat="45.82768" lon="6.29136">
        <ele>2086.1</ele>
        <time>2022-01-06T09:11:50Z</time>
      </trkpt>
      <trkpt lat="45.82767" lon="6.29136">
        <ele>2086.1</ele>
        <time>2022-01-06T09:11:51Z</time>
      </trkpt>
      <trkpt lat="45.82767" lon="6.29136">
        <ele>2086.1</ele>
        <time>2022-01-06T09:11:52Z</time>
      </trkpt>
      <trkpt lat="45.82766" lon="6.29135">
        <ele>2086.1</ele>
        <time>2022-01-06T09:11:53Z</time>
      </trkpt>
      <trkpt lat="45.82765" lon="6.29135">
        <ele>2087.1</ele>
        <time>2022-01-06T09:11:54Z</time>
      </trkpt>
      <trkpt lat="45.82765" lon="6.29135">
        <ele>2087.1</ele>
        <time>2022-01-06T09:11:55Z</time>
      </trkpt>
      <trkpt lat="45.82764" lon="6.29135">
        <ele>2087.1</ele>
        <time>2022-01-06T09:11:56Z</time>
      </trkpt>
      <trkpt lat="45.82764" lon="6.29135">
        <ele>2087.1</ele>
        <time>2022-01-06T09:11:57Z</time>
      </trkpt>
      <trkpt lat="45.82763" lon="6.29135">
        <ele>2088.1</ele>
        <time>2022-01-06T09:11:58Z</time>
      </trkpt>
      <trkpt lat="45.82763" lon="6.29134">
        <ele>2088.1</ele>
        <time>2022-01-06T09:11:59Z</time>
      </trkpt>
      <trkpt lat="45.82762" lon="6.29135">
        <ele>2088.1</ele>
        <time>2022-01-06T09:12:00Z</time>
      </trkpt>
      <trkpt lat="45.82761" lon="6.29135">
        <ele>2088.1</ele>
        <time>2022-01-06T09:12:01Z</time>
      </trkpt>
      <trkpt lat="45.8276" lon="6.29135">
        <ele>2089.1</ele>
        <time>2022-01-06T09:12:02Z</time>
      </trkpt>
      <trkpt lat="45.82759" lon="6.29135">
        <ele>2089.1</ele>
        <time>2022-01-06T09:12:03Z</time>
      </trkpt>
      <trkpt lat="45.82758" lon="6.29135">
        <ele>2089.1</ele>
        <time>2022-01-06T09:12:04Z</time>
      </trkpt>
      <trkpt lat="45.82758" lon="6.29134">
        <ele>2089.1</ele>
        <time>2022-01-06T09:12:05Z</time>
      </trkpt>
      <trkpt lat="45.82758" lon="6.29133">
        <ele>2090</ele>
        <time>2022-01-06T09:12:06Z</time>
      </trkpt>
      <trkpt lat="45.82758" lon="6.29132">
        <ele>2090</ele>
        <time>2022-01-06T09:12:07Z</time>
      </trkpt>
      <trkpt lat="45.82758" lon="6.29131">
        <ele>2091.1</ele>
        <time>2022-01-06T09:12:08Z</time>
      </trkpt>
      <trkpt lat="45.82757" lon="6.2913">
        <ele>2091.1</ele>
        <time>2022-01-06T09:12:09Z</time>
      </trkpt>
      <trkpt lat="45.82756" lon="6.2913">
        <ele>2091.1</ele>
        <time>2022-01-06T09:12:10Z</time>
      </trkpt>
      <trkpt lat="45.82756" lon="6.29129">
        <ele>2091.1</ele>
        <time>2022-01-06T09:12:11Z</time>
      </trkpt>
      <trkpt lat="45.82755" lon="6.29129">
        <ele>2091.1</ele>
        <time>2022-01-06T09:12:12Z</time>
      </trkpt>
      <trkpt lat="45.82755" lon="6.29128">
        <ele>2091.1</ele>
        <time>2022-01-06T09:12:13Z</time>
      </trkpt>
      <trkpt lat="45.82755" lon="6.29127">
        <ele>2092</ele>
        <time>2022-01-06T09:12:14Z</time>
      </trkpt>
      <trkpt lat="45.82754" lon="6.29126">
        <ele>2092</ele>
        <time>2022-01-06T09:12:15Z</time>
      </trkpt>
      <trkpt lat="45.82754" lon="6.29124">
        <ele>2092</ele>
        <time>2022-01-06T09:12:16Z</time>
      </trkpt>
      <trkpt lat="45.82755" lon="6.29123">
        <ele>2092</ele>
        <time>2022-01-06T09:12:17Z</time>
      </trkpt>
      <trkpt lat="45.82755" lon="6.29122">
        <ele>2093.1</ele>
        <time>2022-01-06T09:12:18Z</time>
      </trkpt>
      <trkpt lat="45.82755" lon="6.29121">
        <ele>2093.1</ele>
        <time>2022-01-06T09:12:19Z</time>
      </trkpt>
      <trkpt lat="45.82755" lon="6.2912">
        <ele>2094.2</ele>
        <time>2022-01-06T09:12:20Z</time>
      </trkpt>
      <trkpt lat="45.82755" lon="6.29119">
        <ele>2094.2</ele>
        <time>2022-01-06T09:12:21Z</time>
      </trkpt>
      <trkpt lat="45.82754" lon="6.29118">
        <ele>2094.2</ele>
        <time>2022-01-06T09:12:22Z</time>
      </trkpt>
      <trkpt lat="45.82754" lon="6.29116">
        <ele>2094.2</ele>
        <time>2022-01-06T09:12:23Z</time>
      </trkpt>
      <trkpt lat="45.82754" lon="6.29115">
        <ele>2094.2</ele>
        <time>2022-01-06T09:12:24Z</time>
      </trkpt>
      <trkpt lat="45.82755" lon="6.29114">
        <ele>2094.2</ele>
        <time>2022-01-06T09:12:25Z</time>
      </trkpt>
      <trkpt lat="45.82755" lon="6.29112">
        <ele>2095.1</ele>
        <time>2022-01-06T09:12:26Z</time>
      </trkpt>
      <trkpt lat="45.82755" lon="6.29111">
        <ele>2095.1</ele>
        <time>2022-01-06T09:12:27Z</time>
      </trkpt>
      <trkpt lat="45.82755" lon="6.2911">
        <ele>2096.1</ele>
        <time>2022-01-06T09:12:28Z</time>
      </trkpt>
      <trkpt lat="45.82755" lon="6.29109">
        <ele>2096.1</ele>
        <time>2022-01-06T09:12:29Z</time>
      </trkpt>
      <trkpt lat="45.82755" lon="6.29108">
        <ele>2096.1</ele>
        <time>2022-01-06T09:12:30Z</time>
      </trkpt>
      <trkpt lat="45.82755" lon="6.29107">
        <ele>2096.1</ele>
        <time>2022-01-06T09:12:31Z</time>
      </trkpt>
      <trkpt lat="45.82756" lon="6.29106">
        <ele>2096.1</ele>
        <time>2022-01-06T09:12:32Z</time>
      </trkpt>
      <trkpt lat="45.82756" lon="6.29106">
        <ele>2096.1</ele>
        <time>2022-01-06T09:12:33Z</time>
      </trkpt>
      <trkpt lat="45.82756" lon="6.29105">
        <ele>2097.1</ele>
        <time>2022-01-06T09:12:34Z</time>
      </trkpt>
      <trkpt lat="45.82756" lon="6.29104">
        <ele>2097.1</ele>
        <time>2022-01-06T09:12:35Z</time>
      </trkpt>
      <trkpt lat="45.82757" lon="6.29103">
        <ele>2098.1</ele>
        <time>2022-01-06T09:12:36Z</time>
      </trkpt>
      <trkpt lat="45.82757" lon="6.29101">
        <ele>2098.1</ele>
        <time>2022-01-06T09:12:37Z</time>
      </trkpt>
      <trkpt lat="45.82757" lon="6.291">
        <ele>2098.1</ele>
        <time>2022-01-06T09:12:38Z</time>
      </trkpt>
      <trkpt lat="45.82758" lon="6.29099">
        <ele>2098.1</ele>
        <time>2022-01-06T09:12:39Z</time>
      </trkpt>
      <trkpt lat="45.82758" lon="6.29098">
        <ele>2098.1</ele>
        <time>2022-01-06T09:12:40Z</time>
      </trkpt>
      <trkpt lat="45.82758" lon="6.29096">
        <ele>2098.1</ele>
        <time>2022-01-06T09:12:41Z</time>
      </trkpt>
      <trkpt lat="45.82758" lon="6.29095">
        <ele>2098.1</ele>
        <time>2022-01-06T09:12:42Z</time>
      </trkpt>
      <trkpt lat="45.82758" lon="6.29093">
        <ele>2098.1</ele>
        <time>2022-01-06T09:12:43Z</time>
      </trkpt>
      <trkpt lat="45.82758" lon="6.29091">
        <ele>2098.1</ele>
        <time>2022-01-06T09:12:44Z</time>
      </trkpt>
      <trkpt lat="45.82758" lon="6.29089">
        <ele>2098.1</ele>
        <time>2022-01-06T09:12:45Z</time>
      </trkpt>
      <trkpt lat="45.82758" lon="6.29087">
        <ele>2098.1</ele>
        <time>2022-01-06T09:12:46Z</time>
      </trkpt>
      <trkpt lat="45.82758" lon="6.29085">
        <ele>2098.1</ele>
        <time>2022-01-06T09:12:47Z</time>
      </trkpt>
      <trkpt lat="45.82757" lon="6.29083">
        <ele>2098.1</ele>
        <time>2022-01-06T09:12:48Z</time>
      </trkpt>
      <trkpt lat="45.82757" lon="6.29082">
        <ele>2098.1</ele>
        <time>2022-01-06T09:12:49Z</time>
      </trkpt>
      <trkpt lat="45.82756" lon="6.29081">
        <ele>2098.1</ele>
        <time>2022-01-06T09:12:50Z</time>
      </trkpt>
      <trkpt lat="45.82756" lon="6.2908">
        <ele>2098.1</ele>
        <time>2022-01-06T09:12:51Z</time>
      </trkpt>
      <trkpt lat="45.82755" lon="6.29079">
        <ele>2099</ele>
        <time>2022-01-06T09:12:52Z</time>
      </trkpt>
      <trkpt lat="45.82755" lon="6.29078">
        <ele>2099</ele>
        <time>2022-01-06T09:12:53Z</time>
      </trkpt>
      <trkpt lat="45.82754" lon="6.29077">
        <ele>2099</ele>
        <time>2022-01-06T09:12:54Z</time>
      </trkpt>
      <trkpt lat="45.82754" lon="6.29077">
        <ele>2099</ele>
        <time>2022-01-06T09:12:55Z</time>
      </trkpt>
      <trkpt lat="45.82752" lon="6.29078">
        <ele>2099</ele>
        <time>2022-01-06T09:12:56Z</time>
      </trkpt>
      <trkpt lat="45.82751" lon="6.29077">
        <ele>2099</ele>
        <time>2022-01-06T09:12:57Z</time>
      </trkpt>
      <trkpt lat="45.8275" lon="6.29078">
        <ele>2100.1</ele>
        <time>2022-01-06T09:12:58Z</time>
      </trkpt>
      <trkpt lat="45.82749" lon="6.29077">
        <ele>2100.1</ele>
        <time>2022-01-06T09:12:59Z</time>
      </trkpt>
      <trkpt lat="45.82748" lon="6.29076">
        <ele>2100.1</ele>
        <time>2022-01-06T09:13:00Z</time>
      </trkpt>
      <trkpt lat="45.82748" lon="6.29076">
        <ele>2100.1</ele>
        <time>2022-01-06T09:13:01Z</time>
      </trkpt>
      <trkpt lat="45.82747" lon="6.29076">
        <ele>2101.2</ele>
        <time>2022-01-06T09:13:02Z</time>
      </trkpt>
      <trkpt lat="45.82746" lon="6.29075">
        <ele>2101.2</ele>
        <time>2022-01-06T09:13:03Z</time>
      </trkpt>
      <trkpt lat="45.82745" lon="6.29075">
        <ele>2101.2</ele>
        <time>2022-01-06T09:13:04Z</time>
      </trkpt>
      <trkpt lat="45.82744" lon="6.29075">
        <ele>2101.2</ele>
        <time>2022-01-06T09:13:05Z</time>
      </trkpt>
      <trkpt lat="45.82744" lon="6.29074">
        <ele>2102.1</ele>
        <time>2022-01-06T09:13:06Z</time>
      </trkpt>
      <trkpt lat="45.82743" lon="6.29074">
        <ele>2102.1</ele>
        <time>2022-01-06T09:13:07Z</time>
      </trkpt>
      <trkpt lat="45.82742" lon="6.29074">
        <ele>2102.1</ele>
        <time>2022-01-06T09:13:08Z</time>
      </trkpt>
      <trkpt lat="45.82741" lon="6.29074">
        <ele>2102.1</ele>
        <time>2022-01-06T09:13:09Z</time>
      </trkpt>
      <trkpt lat="45.8274" lon="6.29073">
        <ele>2103.1</ele>
        <time>2022-01-06T09:13:10Z</time>
      </trkpt>
      <trkpt lat="45.82739" lon="6.29073">
        <ele>2103.1</ele>
        <time>2022-01-06T09:13:11Z</time>
      </trkpt>
      <trkpt lat="45.82738" lon="6.29072">
        <ele>2103.1</ele>
        <time>2022-01-06T09:13:12Z</time>
      </trkpt>
      <trkpt lat="45.82737" lon="6.29071">
        <ele>2103.1</ele>
        <time>2022-01-06T09:13:13Z</time>
      </trkpt>
      <trkpt lat="45.82736" lon="6.2907">
        <ele>2103.1</ele>
        <time>2022-01-06T09:13:14Z</time>
      </trkpt>
      <trkpt lat="45.82735" lon="6.2907">
        <ele>2103.1</ele>
        <time>2022-01-06T09:13:15Z</time>
      </trkpt>
      <trkpt lat="45.82734" lon="6.2907">
        <ele>2103.1</ele>
        <time>2022-01-06T09:13:16Z</time>
      </trkpt>
      <trkpt lat="45.82733" lon="6.29069">
        <ele>2103.1</ele>
        <time>2022-01-06T09:13:17Z</time>
      </trkpt>
      <trkpt lat="45.82732" lon="6.29069">
        <ele>2104.1</ele>
        <time>2022-01-06T09:13:18Z</time>
      </trkpt>
      <trkpt lat="45.82731" lon="6.29069">
        <ele>2104.1</ele>
        <time>2022-01-06T09:13:19Z</time>
      </trkpt>
      <trkpt lat="45.8273" lon="6.2907">
        <ele>2104.1</ele>
        <time>2022-01-06T09:13:20Z</time>
      </trkpt>
      <trkpt lat="45.82729" lon="6.29071">
        <ele>2104.1</ele>
        <time>2022-01-06T09:13:21Z</time>
      </trkpt>
      <trkpt lat="45.82728" lon="6.29072">
        <ele>2105.1</ele>
        <time>2022-01-06T09:13:22Z</time>
      </trkpt>
      <trkpt lat="45.82727" lon="6.29072">
        <ele>2105.1</ele>
        <time>2022-01-06T09:13:23Z</time>
      </trkpt>
      <trkpt lat="45.82727" lon="6.29071">
        <ele>2105.1</ele>
        <time>2022-01-06T09:13:24Z</time>
      </trkpt>
      <trkpt lat="45.82726" lon="6.2907">
        <ele>2105.1</ele>
        <time>2022-01-06T09:13:25Z</time>
      </trkpt>
      <trkpt lat="45.82725" lon="6.2907">
        <ele>2106</ele>
        <time>2022-01-06T09:13:26Z</time>
      </trkpt>
      <trkpt lat="45.82725" lon="6.2907">
        <ele>2106</ele>
        <time>2022-01-06T09:13:27Z</time>
      </trkpt>
      <trkpt lat="45.82724" lon="6.2907">
        <ele>2106</ele>
        <time>2022-01-06T09:13:28Z</time>
      </trkpt>
      <trkpt lat="45.82724" lon="6.29069">
        <ele>2106</ele>
        <time>2022-01-06T09:13:29Z</time>
      </trkpt>
      <trkpt lat="45.82723" lon="6.29069">
        <ele>2107.1</ele>
        <time>2022-01-06T09:13:30Z</time>
      </trkpt>
      <trkpt lat="45.82721" lon="6.29069">
        <ele>2107.1</ele>
        <time>2022-01-06T09:13:31Z</time>
      </trkpt>
      <trkpt lat="45.82721" lon="6.29067">
        <ele>2107.1</ele>
        <time>2022-01-06T09:13:32Z</time>
      </trkpt>
      <trkpt lat="45.8272" lon="6.29067">
        <ele>2107.1</ele>
        <time>2022-01-06T09:13:33Z</time>
      </trkpt>
      <trkpt lat="45.82718" lon="6.29066">
        <ele>2107.1</ele>
        <time>2022-01-06T09:13:34Z</time>
      </trkpt>
      <trkpt lat="45.82717" lon="6.29066">
        <ele>2107.1</ele>
        <time>2022-01-06T09:13:35Z</time>
      </trkpt>
      <trkpt lat="45.82716" lon="6.29066">
        <ele>2107.1</ele>
        <time>2022-01-06T09:13:36Z</time>
      </trkpt>
      <trkpt lat="45.82715" lon="6.29065">
        <ele>2107.1</ele>
        <time>2022-01-06T09:13:37Z</time>
      </trkpt>
      <trkpt lat="45.82714" lon="6.29065">
        <ele>2108</ele>
        <time>2022-01-06T09:13:38Z</time>
      </trkpt>
      <trkpt lat="45.82713" lon="6.29065">
        <ele>2108</ele>
        <time>2022-01-06T09:13:39Z</time>
      </trkpt>
      <trkpt lat="45.82712" lon="6.29065">
        <ele>2108</ele>
        <time>2022-01-06T09:13:40Z</time>
      </trkpt>
      <trkpt lat="45.82711" lon="6.29065">
        <ele>2108</ele>
        <time>2022-01-06T09:13:41Z</time>
      </trkpt>
      <trkpt lat="45.8271" lon="6.29064">
        <ele>2109.1</ele>
        <time>2022-01-06T09:13:42Z</time>
      </trkpt>
      <trkpt lat="45.8271" lon="6.29064">
        <ele>2109.1</ele>
        <time>2022-01-06T09:13:43Z</time>
      </trkpt>
      <trkpt lat="45.82709" lon="6.29064">
        <ele>2109.1</ele>
        <time>2022-01-06T09:13:44Z</time>
      </trkpt>
      <trkpt lat="45.82708" lon="6.29064">
        <ele>2109.1</ele>
        <time>2022-01-06T09:13:45Z</time>
      </trkpt>
      <trkpt lat="45.82708" lon="6.29065">
        <ele>2110.2</ele>
        <time>2022-01-06T09:13:46Z</time>
      </trkpt>
      <trkpt lat="45.82707" lon="6.29065">
        <ele>2110.2</ele>
        <time>2022-01-06T09:13:47Z</time>
      </trkpt>
      <trkpt lat="45.82706" lon="6.29065">
        <ele>2110.2</ele>
        <time>2022-01-06T09:13:48Z</time>
      </trkpt>
      <trkpt lat="45.82705" lon="6.29065">
        <ele>2110.2</ele>
        <time>2022-01-06T09:13:49Z</time>
      </trkpt>
      <trkpt lat="45.82704" lon="6.29065">
        <ele>2110.2</ele>
        <time>2022-01-06T09:13:50Z</time>
      </trkpt>
      <trkpt lat="45.82703" lon="6.29065">
        <ele>2110.2</ele>
        <time>2022-01-06T09:13:51Z</time>
      </trkpt>
      <trkpt lat="45.82702" lon="6.29065">
        <ele>2110.2</ele>
        <time>2022-01-06T09:13:52Z</time>
      </trkpt>
      <trkpt lat="45.82702" lon="6.29065">
        <ele>2110.2</ele>
        <time>2022-01-06T09:13:53Z</time>
      </trkpt>
      <trkpt lat="45.82701" lon="6.29065">
        <ele>2110.2</ele>
        <time>2022-01-06T09:13:54Z</time>
      </trkpt>
      <trkpt lat="45.827" lon="6.29065">
        <ele>2110.2</ele>
        <time>2022-01-06T09:13:55Z</time>
      </trkpt>
      <trkpt lat="45.82699" lon="6.29065">
        <ele>2110.2</ele>
        <time>2022-01-06T09:13:56Z</time>
      </trkpt>
      <trkpt lat="45.82698" lon="6.29064">
        <ele>2110.2</ele>
        <time>2022-01-06T09:13:57Z</time>
      </trkpt>
      <trkpt lat="45.82697" lon="6.29064">
        <ele>2110.2</ele>
        <time>2022-01-06T09:13:58Z</time>
      </trkpt>
      <trkpt lat="45.82696" lon="6.29064">
        <ele>2110.2</ele>
        <time>2022-01-06T09:13:59Z</time>
      </trkpt>
      <trkpt lat="45.82695" lon="6.29063">
        <ele>2113.1</ele>
        <time>2022-01-06T09:14:00Z</time>
      </trkpt>
      <trkpt lat="45.82695" lon="6.29062">
        <ele>2113.1</ele>
        <time>2022-01-06T09:14:01Z</time>
      </trkpt>
      <trkpt lat="45.82694" lon="6.29061">
        <ele>2113.1</ele>
        <time>2022-01-06T09:14:02Z</time>
      </trkpt>
      <trkpt lat="45.82693" lon="6.29061">
        <ele>2113.1</ele>
        <time>2022-01-06T09:14:03Z</time>
      </trkpt>
      <trkpt lat="45.82692" lon="6.2906">
        <ele>2113.1</ele>
        <time>2022-01-06T09:14:04Z</time>
      </trkpt>
      <trkpt lat="45.82691" lon="6.2906">
        <ele>2113.1</ele>
        <time>2022-01-06T09:14:05Z</time>
      </trkpt>
      <trkpt lat="45.8269" lon="6.29059">
        <ele>2113.1</ele>
        <time>2022-01-06T09:14:06Z</time>
      </trkpt>
      <trkpt lat="45.82689" lon="6.29058">
        <ele>2113.1</ele>
        <time>2022-01-06T09:14:07Z</time>
      </trkpt>
      <trkpt lat="45.82688" lon="6.29057">
        <ele>2113.1</ele>
        <time>2022-01-06T09:14:08Z</time>
      </trkpt>
      <trkpt lat="45.82688" lon="6.29057">
        <ele>2113.1</ele>
        <time>2022-01-06T09:14:09Z</time>
      </trkpt>
      <trkpt lat="45.82687" lon="6.29056">
        <ele>2113.1</ele>
        <time>2022-01-06T09:14:10Z</time>
      </trkpt>
      <trkpt lat="45.82686" lon="6.29056">
        <ele>2113.1</ele>
        <time>2022-01-06T09:14:11Z</time>
      </trkpt>
      <trkpt lat="45.82685" lon="6.29055">
        <ele>2113.1</ele>
        <time>2022-01-06T09:14:12Z</time>
      </trkpt>
      <trkpt lat="45.82684" lon="6.29055">
        <ele>2113.1</ele>
        <time>2022-01-06T09:14:13Z</time>
      </trkpt>
      <trkpt lat="45.82683" lon="6.29054">
        <ele>2114.1</ele>
        <time>2022-01-06T09:14:14Z</time>
      </trkpt>
      <trkpt lat="45.82682" lon="6.29054">
        <ele>2114.1</ele>
        <time>2022-01-06T09:14:15Z</time>
      </trkpt>
      <trkpt lat="45.82681" lon="6.29054">
        <ele>2114.1</ele>
        <time>2022-01-06T09:14:16Z</time>
      </trkpt>
      <trkpt lat="45.8268" lon="6.29054">
        <ele>2114.1</ele>
        <time>2022-01-06T09:14:17Z</time>
      </trkpt>
      <trkpt lat="45.82679" lon="6.29053">
        <ele>2114.1</ele>
        <time>2022-01-06T09:14:18Z</time>
      </trkpt>
      <trkpt lat="45.82677" lon="6.29053">
        <ele>2114.1</ele>
        <time>2022-01-06T09:14:19Z</time>
      </trkpt>
      <trkpt lat="45.82676" lon="6.29053">
        <ele>2115</ele>
        <time>2022-01-06T09:14:20Z</time>
      </trkpt>
      <trkpt lat="45.82676" lon="6.29052">
        <ele>2115</ele>
        <time>2022-01-06T09:14:21Z</time>
      </trkpt>
      <trkpt lat="45.82675" lon="6.29052">
        <ele>2115</ele>
        <time>2022-01-06T09:14:22Z</time>
      </trkpt>
      <trkpt lat="45.82674" lon="6.29052">
        <ele>2115</ele>
        <time>2022-01-06T09:14:23Z</time>
      </trkpt>
      <trkpt lat="45.82673" lon="6.29051">
        <ele>2116.1</ele>
        <time>2022-01-06T09:14:24Z</time>
      </trkpt>
      <trkpt lat="45.82673" lon="6.2905">
        <ele>2116.1</ele>
        <time>2022-01-06T09:14:25Z</time>
      </trkpt>
      <trkpt lat="45.82672" lon="6.29049">
        <ele>2116.1</ele>
        <time>2022-01-06T09:14:26Z</time>
      </trkpt>
      <trkpt lat="45.82672" lon="6.29049">
        <ele>2116.1</ele>
        <time>2022-01-06T09:14:27Z</time>
      </trkpt>
      <trkpt lat="45.82672" lon="6.29048">
        <ele>2116.1</ele>
        <time>2022-01-06T09:14:28Z</time>
      </trkpt>
      <trkpt lat="45.82672" lon="6.29047">
        <ele>2116.1</ele>
        <time>2022-01-06T09:14:29Z</time>
      </trkpt>
      <trkpt lat="45.82671" lon="6.29046">
        <ele>2117.2</ele>
        <time>2022-01-06T09:14:30Z</time>
      </trkpt>
      <trkpt lat="45.82671" lon="6.29046">
        <ele>2117.2</ele>
        <time>2022-01-06T09:14:31Z</time>
      </trkpt>
      <trkpt lat="45.82671" lon="6.29045">
        <ele>2117.2</ele>
        <time>2022-01-06T09:14:32Z</time>
      </trkpt>
      <trkpt lat="45.82671" lon="6.29045">
        <ele>2117.2</ele>
        <time>2022-01-06T09:14:33Z</time>
      </trkpt>
      <trkpt lat="45.8267" lon="6.29045">
        <ele>2117.2</ele>
        <time>2022-01-06T09:14:34Z</time>
      </trkpt>
      <trkpt lat="45.82669" lon="6.29044">
        <ele>2117.2</ele>
        <time>2022-01-06T09:14:35Z</time>
      </trkpt>
      <trkpt lat="45.82668" lon="6.29044">
        <ele>2118.1</ele>
        <time>2022-01-06T09:14:36Z</time>
      </trkpt>
      <trkpt lat="45.82667" lon="6.29043">
        <ele>2118.1</ele>
        <time>2022-01-06T09:14:37Z</time>
      </trkpt>
      <trkpt lat="45.82667" lon="6.29043">
        <ele>2118.1</ele>
        <time>2022-01-06T09:14:38Z</time>
      </trkpt>
      <trkpt lat="45.82666" lon="6.29042">
        <ele>2118.1</ele>
        <time>2022-01-06T09:14:39Z</time>
      </trkpt>
      <trkpt lat="45.82666" lon="6.29042">
        <ele>2118.1</ele>
        <time>2022-01-06T09:14:40Z</time>
      </trkpt>
      <trkpt lat="45.82665" lon="6.29042">
        <ele>2118.1</ele>
        <time>2022-01-06T09:14:41Z</time>
      </trkpt>
      <trkpt lat="45.82665" lon="6.29041">
        <ele>2118.1</ele>
        <time>2022-01-06T09:14:42Z</time>
      </trkpt>
      <trkpt lat="45.82665" lon="6.29041">
        <ele>2118.1</ele>
        <time>2022-01-06T09:14:43Z</time>
      </trkpt>
      <trkpt lat="45.82664" lon="6.29041">
        <ele>2120.1</ele>
        <time>2022-01-06T09:14:44Z</time>
      </trkpt>
      <trkpt lat="45.82663" lon="6.29041">
        <ele>2120.1</ele>
        <time>2022-01-06T09:14:45Z</time>
      </trkpt>
      <trkpt lat="45.82662" lon="6.2904">
        <ele>2121.1</ele>
        <time>2022-01-06T09:14:46Z</time>
      </trkpt>
      <trkpt lat="45.82662" lon="6.29039">
        <ele>2121.1</ele>
        <time>2022-01-06T09:14:47Z</time>
      </trkpt>
      <trkpt lat="45.82661" lon="6.29039">
        <ele>2121.1</ele>
        <time>2022-01-06T09:14:48Z</time>
      </trkpt>
      <trkpt lat="45.8266" lon="6.29038">
        <ele>2121.1</ele>
        <time>2022-01-06T09:14:49Z</time>
      </trkpt>
      <trkpt lat="45.8266" lon="6.29038">
        <ele>2122</ele>
        <time>2022-01-06T09:14:50Z</time>
      </trkpt>
      <trkpt lat="45.82659" lon="6.29037">
        <ele>2122</ele>
        <time>2022-01-06T09:14:51Z</time>
      </trkpt>
      <trkpt lat="45.82658" lon="6.29037">
        <ele>2122</ele>
        <time>2022-01-06T09:14:52Z</time>
      </trkpt>
      <trkpt lat="45.82657" lon="6.29037">
        <ele>2122</ele>
        <time>2022-01-06T09:14:53Z</time>
      </trkpt>
      <trkpt lat="45.82656" lon="6.29036">
        <ele>2123.1</ele>
        <time>2022-01-06T09:14:54Z</time>
      </trkpt>
      <trkpt lat="45.82656" lon="6.29036">
        <ele>2123.1</ele>
        <time>2022-01-06T09:14:55Z</time>
      </trkpt>
      <trkpt lat="45.82655" lon="6.29036">
        <ele>2123.1</ele>
        <time>2022-01-06T09:14:56Z</time>
      </trkpt>
      <trkpt lat="45.82654" lon="6.29036">
        <ele>2123.1</ele>
        <time>2022-01-06T09:14:57Z</time>
      </trkpt>
      <trkpt lat="45.82653" lon="6.29036">
        <ele>2124</ele>
        <time>2022-01-06T09:14:58Z</time>
      </trkpt>
      <trkpt lat="45.82652" lon="6.29036">
        <ele>2124</ele>
        <time>2022-01-06T09:14:59Z</time>
      </trkpt>
      <trkpt lat="45.82652" lon="6.29035">
        <ele>2124</ele>
        <time>2022-01-06T09:15:00Z</time>
      </trkpt>
      <trkpt lat="45.82651" lon="6.29035">
        <ele>2124</ele>
        <time>2022-01-06T09:15:01Z</time>
      </trkpt>
      <trkpt lat="45.8265" lon="6.29035">
        <ele>2124</ele>
        <time>2022-01-06T09:15:02Z</time>
      </trkpt>
      <trkpt lat="45.82649" lon="6.29034">
        <ele>2124</ele>
        <time>2022-01-06T09:15:03Z</time>
      </trkpt>
      <trkpt lat="45.82648" lon="6.29034">
        <ele>2124</ele>
        <time>2022-01-06T09:15:04Z</time>
      </trkpt>
      <trkpt lat="45.82648" lon="6.29034">
        <ele>2124</ele>
        <time>2022-01-06T09:15:05Z</time>
      </trkpt>
      <trkpt lat="45.82647" lon="6.29033">
        <ele>2125.1</ele>
        <time>2022-01-06T09:15:06Z</time>
      </trkpt>
      <trkpt lat="45.82646" lon="6.29033">
        <ele>2125.1</ele>
        <time>2022-01-06T09:15:07Z</time>
      </trkpt>
      <trkpt lat="45.82645" lon="6.29033">
        <ele>2125.1</ele>
        <time>2022-01-06T09:15:08Z</time>
      </trkpt>
      <trkpt lat="45.82644" lon="6.29033">
        <ele>2125.1</ele>
        <time>2022-01-06T09:15:09Z</time>
      </trkpt>
      <trkpt lat="45.82644" lon="6.29033">
        <ele>2125.1</ele>
        <time>2022-01-06T09:15:10Z</time>
      </trkpt>
      <trkpt lat="45.82643" lon="6.29032">
        <ele>2125.1</ele>
        <time>2022-01-06T09:15:11Z</time>
      </trkpt>
      <trkpt lat="45.82643" lon="6.29031">
        <ele>2125.1</ele>
        <time>2022-01-06T09:15:12Z</time>
      </trkpt>
      <trkpt lat="45.82643" lon="6.29031">
        <ele>2125.1</ele>
        <time>2022-01-06T09:15:13Z</time>
      </trkpt>
      <trkpt lat="45.82642" lon="6.2903">
        <ele>2125.1</ele>
        <time>2022-01-06T09:15:14Z</time>
      </trkpt>
      <trkpt lat="45.82641" lon="6.2903">
        <ele>2125.1</ele>
        <time>2022-01-06T09:15:15Z</time>
      </trkpt>
      <trkpt lat="45.82641" lon="6.29029">
        <ele>2125.1</ele>
        <time>2022-01-06T09:15:16Z</time>
      </trkpt>
      <trkpt lat="45.82641" lon="6.29028">
        <ele>2125.1</ele>
        <time>2022-01-06T09:15:17Z</time>
      </trkpt>
      <trkpt lat="45.8264" lon="6.29028">
        <ele>2125.1</ele>
        <time>2022-01-06T09:15:18Z</time>
      </trkpt>
      <trkpt lat="45.82639" lon="6.29028">
        <ele>2125.1</ele>
        <time>2022-01-06T09:15:19Z</time>
      </trkpt>
      <trkpt lat="45.82638" lon="6.29027">
        <ele>2125.1</ele>
        <time>2022-01-06T09:15:20Z</time>
      </trkpt>
      <trkpt lat="45.82637" lon="6.29026">
        <ele>2125.1</ele>
        <time>2022-01-06T09:15:21Z</time>
      </trkpt>
      <trkpt lat="45.82637" lon="6.29025">
        <ele>2125.1</ele>
        <time>2022-01-06T09:15:22Z</time>
      </trkpt>
      <trkpt lat="45.82637" lon="6.29024">
        <ele>2125.1</ele>
        <time>2022-01-06T09:15:23Z</time>
      </trkpt>
      <trkpt lat="45.82636" lon="6.29024">
        <ele>2128.1</ele>
        <time>2022-01-06T09:15:24Z</time>
      </trkpt>
      <trkpt lat="45.82635" lon="6.29023">
        <ele>2128.1</ele>
        <time>2022-01-06T09:15:25Z</time>
      </trkpt>
      <trkpt lat="45.82635" lon="6.29023">
        <ele>2128.1</ele>
        <time>2022-01-06T09:15:26Z</time>
      </trkpt>
      <trkpt lat="45.82634" lon="6.29022">
        <ele>2128.1</ele>
        <time>2022-01-06T09:15:27Z</time>
      </trkpt>
      <trkpt lat="45.82633" lon="6.29022">
        <ele>2128.1</ele>
        <time>2022-01-06T09:15:28Z</time>
      </trkpt>
      <trkpt lat="45.82632" lon="6.29021">
        <ele>2128.1</ele>
        <time>2022-01-06T09:15:29Z</time>
      </trkpt>
      <trkpt lat="45.82631" lon="6.2902">
        <ele>2129.1</ele>
        <time>2022-01-06T09:15:30Z</time>
      </trkpt>
      <trkpt lat="45.82631" lon="6.2902">
        <ele>2129.1</ele>
        <time>2022-01-06T09:15:31Z</time>
      </trkpt>
      <trkpt lat="45.8263" lon="6.29019">
        <ele>2129.1</ele>
        <time>2022-01-06T09:15:32Z</time>
      </trkpt>
      <trkpt lat="45.82629" lon="6.29019">
        <ele>2129.1</ele>
        <time>2022-01-06T09:15:33Z</time>
      </trkpt>
      <trkpt lat="45.82629" lon="6.29019">
        <ele>2129.1</ele>
        <time>2022-01-06T09:15:34Z</time>
      </trkpt>
      <trkpt lat="45.82628" lon="6.2902">
        <ele>2129.1</ele>
        <time>2022-01-06T09:15:35Z</time>
      </trkpt>
      <trkpt lat="45.82627" lon="6.2902">
        <ele>2129.1</ele>
        <time>2022-01-06T09:15:36Z</time>
      </trkpt>
      <trkpt lat="45.82626" lon="6.29021">
        <ele>2129.1</ele>
        <time>2022-01-06T09:15:37Z</time>
      </trkpt>
      <trkpt lat="45.82625" lon="6.29021">
        <ele>2129.1</ele>
        <time>2022-01-06T09:15:38Z</time>
      </trkpt>
      <trkpt lat="45.82624" lon="6.2902">
        <ele>2129.1</ele>
        <time>2022-01-06T09:15:39Z</time>
      </trkpt>
      <trkpt lat="45.82623" lon="6.2902">
        <ele>2129.1</ele>
        <time>2022-01-06T09:15:40Z</time>
      </trkpt>
      <trkpt lat="45.82622" lon="6.2902">
        <ele>2129.1</ele>
        <time>2022-01-06T09:15:41Z</time>
      </trkpt>
      <trkpt lat="45.82621" lon="6.29019">
        <ele>2130.1</ele>
        <time>2022-01-06T09:15:42Z</time>
      </trkpt>
      <trkpt lat="45.82619" lon="6.29018">
        <ele>2130.1</ele>
        <time>2022-01-06T09:15:43Z</time>
      </trkpt>
      <trkpt lat="45.82618" lon="6.29017">
        <ele>2130.1</ele>
        <time>2022-01-06T09:15:44Z</time>
      </trkpt>
      <trkpt lat="45.82616" lon="6.29014">
        <ele>2130.1</ele>
        <time>2022-01-06T09:15:45Z</time>
      </trkpt>
      <trkpt lat="45.82615" lon="6.29013">
        <ele>2129.1</ele>
        <time>2022-01-06T09:15:46Z</time>
      </trkpt>
      <trkpt lat="45.82613" lon="6.29011">
        <ele>2129.1</ele>
        <time>2022-01-06T09:15:47Z</time>
      </trkpt>
      <trkpt lat="45.82612" lon="6.29009">
        <ele>2129.1</ele>
        <time>2022-01-06T09:15:48Z</time>
      </trkpt>
      <trkpt lat="45.82612" lon="6.29008">
        <ele>2129.1</ele>
        <time>2022-01-06T09:15:49Z</time>
      </trkpt>
      <trkpt lat="45.82611" lon="6.29007">
        <ele>2128.1</ele>
        <time>2022-01-06T09:15:50Z</time>
      </trkpt>
      <trkpt lat="45.82609" lon="6.29005">
        <ele>2128.1</ele>
        <time>2022-01-06T09:15:51Z</time>
      </trkpt>
      <trkpt lat="45.82607" lon="6.29004">
        <ele>2128.1</ele>
        <time>2022-01-06T09:15:52Z</time>
      </trkpt>
      <trkpt lat="45.82606" lon="6.29002">
        <ele>2128.1</ele>
        <time>2022-01-06T09:15:53Z</time>
      </trkpt>
      <trkpt lat="45.82605" lon="6.29">
        <ele>2128.1</ele>
        <time>2022-01-06T09:15:54Z</time>
      </trkpt>
      <trkpt lat="45.82604" lon="6.28999">
        <ele>2128.1</ele>
        <time>2022-01-06T09:15:55Z</time>
      </trkpt>
      <trkpt lat="45.82603" lon="6.28999">
        <ele>2128.1</ele>
        <time>2022-01-06T09:15:56Z</time>
      </trkpt>
      <trkpt lat="45.82602" lon="6.28998">
        <ele>2128.1</ele>
        <time>2022-01-06T09:15:57Z</time>
      </trkpt>
      <trkpt lat="45.82601" lon="6.28998">
        <ele>2128.1</ele>
        <time>2022-01-06T09:15:58Z</time>
      </trkpt>
      <trkpt lat="45.826" lon="6.28997">
        <ele>2128.1</ele>
        <time>2022-01-06T09:15:59Z</time>
      </trkpt>
      <trkpt lat="45.82598" lon="6.28996">
        <ele>2128.1</ele>
        <time>2022-01-06T09:16:00Z</time>
      </trkpt>
      <trkpt lat="45.82598" lon="6.28996">
        <ele>2128.1</ele>
        <time>2022-01-06T09:16:01Z</time>
      </trkpt>
      <trkpt lat="45.82597" lon="6.28996">
        <ele>2128.1</ele>
        <time>2022-01-06T09:16:02Z</time>
      </trkpt>
      <trkpt lat="45.82596" lon="6.28995">
        <ele>2128.1</ele>
        <time>2022-01-06T09:16:03Z</time>
      </trkpt>
      <trkpt lat="45.82594" lon="6.28995">
        <ele>2128.1</ele>
        <time>2022-01-06T09:16:04Z</time>
      </trkpt>
      <trkpt lat="45.82593" lon="6.28995">
        <ele>2128.1</ele>
        <time>2022-01-06T09:16:05Z</time>
      </trkpt>
      <trkpt lat="45.82592" lon="6.28994">
        <ele>2129.1</ele>
        <time>2022-01-06T09:16:06Z</time>
      </trkpt>
      <trkpt lat="45.82592" lon="6.28995">
        <ele>2129.1</ele>
        <time>2022-01-06T09:16:07Z</time>
      </trkpt>
      <trkpt lat="45.82591" lon="6.28994">
        <ele>2129.1</ele>
        <time>2022-01-06T09:16:08Z</time>
      </trkpt>
      <trkpt lat="45.82591" lon="6.28994">
        <ele>2129.1</ele>
        <time>2022-01-06T09:16:09Z</time>
      </trkpt>
      <trkpt lat="45.8259" lon="6.28995">
        <ele>2130.1</ele>
        <time>2022-01-06T09:16:10Z</time>
      </trkpt>
      <trkpt lat="45.82589" lon="6.28995">
        <ele>2130.1</ele>
        <time>2022-01-06T09:16:11Z</time>
      </trkpt>
      <trkpt lat="45.82588" lon="6.28995">
        <ele>2130.1</ele>
        <time>2022-01-06T09:16:12Z</time>
      </trkpt>
      <trkpt lat="45.82587" lon="6.28995">
        <ele>2130.1</ele>
        <time>2022-01-06T09:16:13Z</time>
      </trkpt>
      <trkpt lat="45.82586" lon="6.28995">
        <ele>2131</ele>
        <time>2022-01-06T09:16:14Z</time>
      </trkpt>
      <trkpt lat="45.82585" lon="6.28995">
        <ele>2131</ele>
        <time>2022-01-06T09:16:15Z</time>
      </trkpt>
      <trkpt lat="45.82584" lon="6.28995">
        <ele>2131</ele>
        <time>2022-01-06T09:16:16Z</time>
      </trkpt>
      <trkpt lat="45.82583" lon="6.28995">
        <ele>2131</ele>
        <time>2022-01-06T09:16:17Z</time>
      </trkpt>
      <trkpt lat="45.82582" lon="6.28996">
        <ele>2132.1</ele>
        <time>2022-01-06T09:16:18Z</time>
      </trkpt>
      <trkpt lat="45.82581" lon="6.28996">
        <ele>2132.1</ele>
        <time>2022-01-06T09:16:19Z</time>
      </trkpt>
      <trkpt lat="45.8258" lon="6.28995">
        <ele>2132.1</ele>
        <time>2022-01-06T09:16:20Z</time>
      </trkpt>
      <trkpt lat="45.82579" lon="6.28995">
        <ele>2132.1</ele>
        <time>2022-01-06T09:16:21Z</time>
      </trkpt>
      <trkpt lat="45.82578" lon="6.28994">
        <ele>2132.1</ele>
        <time>2022-01-06T09:16:22Z</time>
      </trkpt>
      <trkpt lat="45.82577" lon="6.28993">
        <ele>2132.1</ele>
        <time>2022-01-06T09:16:23Z</time>
      </trkpt>
      <trkpt lat="45.82576" lon="6.28992">
        <ele>2132.1</ele>
        <time>2022-01-06T09:16:24Z</time>
      </trkpt>
      <trkpt lat="45.82575" lon="6.2899">
        <ele>2132.1</ele>
        <time>2022-01-06T09:16:25Z</time>
      </trkpt>
      <trkpt lat="45.82574" lon="6.28989">
        <ele>2132.1</ele>
        <time>2022-01-06T09:16:26Z</time>
      </trkpt>
      <trkpt lat="45.82573" lon="6.28989">
        <ele>2132.1</ele>
        <time>2022-01-06T09:16:27Z</time>
      </trkpt>
      <trkpt lat="45.82574" lon="6.28988">
        <ele>2132.1</ele>
        <time>2022-01-06T09:16:28Z</time>
      </trkpt>
      <trkpt lat="45.82573" lon="6.28987">
        <ele>2132.1</ele>
        <time>2022-01-06T09:16:29Z</time>
      </trkpt>
      <trkpt lat="45.82573" lon="6.28986">
        <ele>2133.2</ele>
        <time>2022-01-06T09:16:30Z</time>
      </trkpt>
      <trkpt lat="45.82573" lon="6.28985">
        <ele>2133.2</ele>
        <time>2022-01-06T09:16:31Z</time>
      </trkpt>
      <trkpt lat="45.82572" lon="6.28984">
        <ele>2133.2</ele>
        <time>2022-01-06T09:16:32Z</time>
      </trkpt>
      <trkpt lat="45.82571" lon="6.28984">
        <ele>2133.2</ele>
        <time>2022-01-06T09:16:33Z</time>
      </trkpt>
      <trkpt lat="45.8257" lon="6.28982">
        <ele>2133.2</ele>
        <time>2022-01-06T09:16:34Z</time>
      </trkpt>
      <trkpt lat="45.82569" lon="6.28982">
        <ele>2133.2</ele>
        <time>2022-01-06T09:16:35Z</time>
      </trkpt>
      <trkpt lat="45.82569" lon="6.28981">
        <ele>2133.2</ele>
        <time>2022-01-06T09:16:36Z</time>
      </trkpt>
      <trkpt lat="45.82569" lon="6.2898">
        <ele>2133.2</ele>
        <time>2022-01-06T09:16:37Z</time>
      </trkpt>
      <trkpt lat="45.82569" lon="6.28979">
        <ele>2134.1</ele>
        <time>2022-01-06T09:16:38Z</time>
      </trkpt>
      <trkpt lat="45.82569" lon="6.28978">
        <ele>2134.1</ele>
        <time>2022-01-06T09:16:39Z</time>
      </trkpt>
      <trkpt lat="45.82568" lon="6.28978">
        <ele>2134.1</ele>
        <time>2022-01-06T09:16:40Z</time>
      </trkpt>
      <trkpt lat="45.82567" lon="6.28977">
        <ele>2134.1</ele>
        <time>2022-01-06T09:16:41Z</time>
      </trkpt>
      <trkpt lat="45.82567" lon="6.28977">
        <ele>2134.1</ele>
        <time>2022-01-06T09:16:42Z</time>
      </trkpt>
      <trkpt lat="45.82565" lon="6.28977">
        <ele>2134.1</ele>
        <time>2022-01-06T09:16:43Z</time>
      </trkpt>
      <trkpt lat="45.82564" lon="6.28977">
        <ele>2135.2</ele>
        <time>2022-01-06T09:16:44Z</time>
      </trkpt>
      <trkpt lat="45.82563" lon="6.28977">
        <ele>2135.2</ele>
        <time>2022-01-06T09:16:45Z</time>
      </trkpt>
      <trkpt lat="45.82562" lon="6.28977">
        <ele>2135.2</ele>
        <time>2022-01-06T09:16:46Z</time>
      </trkpt>
      <trkpt lat="45.82561" lon="6.28978">
        <ele>2135.2</ele>
        <time>2022-01-06T09:16:47Z</time>
      </trkpt>
      <trkpt lat="45.82561" lon="6.28978">
        <ele>2136.1</ele>
        <time>2022-01-06T09:16:48Z</time>
      </trkpt>
      <trkpt lat="45.8256" lon="6.28978">
        <ele>2136.1</ele>
        <time>2022-01-06T09:16:49Z</time>
      </trkpt>
      <trkpt lat="45.8256" lon="6.28978">
        <ele>2136.1</ele>
        <time>2022-01-06T09:16:50Z</time>
      </trkpt>
      <trkpt lat="45.82559" lon="6.28978">
        <ele>2136.1</ele>
        <time>2022-01-06T09:16:51Z</time>
      </trkpt>
      <trkpt lat="45.82558" lon="6.28978">
        <ele>2137.1</ele>
        <time>2022-01-06T09:16:52Z</time>
      </trkpt>
      <trkpt lat="45.82558" lon="6.28978">
        <ele>2137.1</ele>
        <time>2022-01-06T09:16:53Z</time>
      </trkpt>
      <trkpt lat="45.82557" lon="6.28978">
        <ele>2137.1</ele>
        <time>2022-01-06T09:16:54Z</time>
      </trkpt>
      <trkpt lat="45.82556" lon="6.28978">
        <ele>2137.1</ele>
        <time>2022-01-06T09:16:55Z</time>
      </trkpt>
      <trkpt lat="45.82555" lon="6.28978">
        <ele>2138</ele>
        <time>2022-01-06T09:16:56Z</time>
      </trkpt>
      <trkpt lat="45.82554" lon="6.28978">
        <ele>2138</ele>
        <time>2022-01-06T09:16:57Z</time>
      </trkpt>
      <trkpt lat="45.82554" lon="6.28978">
        <ele>2138</ele>
        <time>2022-01-06T09:16:58Z</time>
      </trkpt>
      <trkpt lat="45.82553" lon="6.28979">
        <ele>2138</ele>
        <time>2022-01-06T09:16:59Z</time>
      </trkpt>
      <trkpt lat="45.82552" lon="6.28979">
        <ele>2139.1</ele>
        <time>2022-01-06T09:17:00Z</time>
      </trkpt>
      <trkpt lat="45.8255" lon="6.28979">
        <ele>2139.1</ele>
        <time>2022-01-06T09:17:01Z</time>
      </trkpt>
      <trkpt lat="45.8255" lon="6.28979">
        <ele>2139.1</ele>
        <time>2022-01-06T09:17:02Z</time>
      </trkpt>
      <trkpt lat="45.82549" lon="6.28979">
        <ele>2139.1</ele>
        <time>2022-01-06T09:17:03Z</time>
      </trkpt>
      <trkpt lat="45.82548" lon="6.28979">
        <ele>2140</ele>
        <time>2022-01-06T09:17:04Z</time>
      </trkpt>
      <trkpt lat="45.82548" lon="6.2898">
        <ele>2140</ele>
        <time>2022-01-06T09:17:05Z</time>
      </trkpt>
      <trkpt lat="45.82547" lon="6.2898">
        <ele>2140</ele>
        <time>2022-01-06T09:17:06Z</time>
      </trkpt>
      <trkpt lat="45.82547" lon="6.28981">
        <ele>2140</ele>
        <time>2022-01-06T09:17:07Z</time>
      </trkpt>
      <trkpt lat="45.82546" lon="6.28981">
        <ele>2140</ele>
        <time>2022-01-06T09:17:08Z</time>
      </trkpt>
      <trkpt lat="45.82546" lon="6.28982">
        <ele>2140</ele>
        <time>2022-01-06T09:17:09Z</time>
      </trkpt>
      <trkpt lat="45.82546" lon="6.28983">
        <ele>2141.1</ele>
        <time>2022-01-06T09:17:10Z</time>
      </trkpt>
      <trkpt lat="45.82546" lon="6.28983">
        <ele>2141.1</ele>
        <time>2022-01-06T09:17:11Z</time>
      </trkpt>
      <trkpt lat="45.82545" lon="6.28984">
        <ele>2141.1</ele>
        <time>2022-01-06T09:17:12Z</time>
      </trkpt>
      <trkpt lat="45.82544" lon="6.28985">
        <ele>2141.1</ele>
        <time>2022-01-06T09:17:13Z</time>
      </trkpt>
      <trkpt lat="45.82543" lon="6.28985">
        <ele>2142.2</ele>
        <time>2022-01-06T09:17:14Z</time>
      </trkpt>
      <trkpt lat="45.82542" lon="6.28986">
        <ele>2142.2</ele>
        <time>2022-01-06T09:17:15Z</time>
      </trkpt>
      <trkpt lat="45.82542" lon="6.28986">
        <ele>2142.2</ele>
        <time>2022-01-06T09:17:16Z</time>
      </trkpt>
      <trkpt lat="45.82543" lon="6.28987">
        <ele>2142.2</ele>
        <time>2022-01-06T09:17:17Z</time>
      </trkpt>
      <trkpt lat="45.82542" lon="6.28986">
        <ele>2143.1</ele>
        <time>2022-01-06T09:17:18Z</time>
      </trkpt>
      <trkpt lat="45.82542" lon="6.28986">
        <ele>2143.1</ele>
        <time>2022-01-06T09:17:19Z</time>
      </trkpt>
      <trkpt lat="45.82541" lon="6.28986">
        <ele>2143.1</ele>
        <time>2022-01-06T09:17:20Z</time>
      </trkpt>
      <trkpt lat="45.8254" lon="6.28986">
        <ele>2143.1</ele>
        <time>2022-01-06T09:17:21Z</time>
      </trkpt>
      <trkpt lat="45.82539" lon="6.28986">
        <ele>2144.1</ele>
        <time>2022-01-06T09:17:22Z</time>
      </trkpt>
      <trkpt lat="45.82538" lon="6.28986">
        <ele>2144.1</ele>
        <time>2022-01-06T09:17:23Z</time>
      </trkpt>
      <trkpt lat="45.82537" lon="6.28985">
        <ele>2145.1</ele>
        <time>2022-01-06T09:17:24Z</time>
      </trkpt>
      <trkpt lat="45.82537" lon="6.28984">
        <ele>2145.1</ele>
        <time>2022-01-06T09:17:25Z</time>
      </trkpt>
      <trkpt lat="45.82537" lon="6.28983">
        <ele>2146.1</ele>
        <time>2022-01-06T09:17:26Z</time>
      </trkpt>
      <trkpt lat="45.82536" lon="6.28982">
        <ele>2146.1</ele>
        <time>2022-01-06T09:17:27Z</time>
      </trkpt>
      <trkpt lat="45.82536" lon="6.28982">
        <ele>2146.1</ele>
        <time>2022-01-06T09:17:28Z</time>
      </trkpt>
      <trkpt lat="45.82536" lon="6.28981">
        <ele>2146.1</ele>
        <time>2022-01-06T09:17:29Z</time>
      </trkpt>
      <trkpt lat="45.82536" lon="6.2898">
        <ele>2147</ele>
        <time>2022-01-06T09:17:30Z</time>
      </trkpt>
      <trkpt lat="45.82535" lon="6.2898">
        <ele>2147</ele>
        <time>2022-01-06T09:17:31Z</time>
      </trkpt>
      <trkpt lat="45.82535" lon="6.28979">
        <ele>2147</ele>
        <time>2022-01-06T09:17:32Z</time>
      </trkpt>
      <trkpt lat="45.82535" lon="6.28978">
        <ele>2147</ele>
        <time>2022-01-06T09:17:33Z</time>
      </trkpt>
      <trkpt lat="45.82534" lon="6.28978">
        <ele>2148.1</ele>
        <time>2022-01-06T09:17:34Z</time>
      </trkpt>
      <trkpt lat="45.82534" lon="6.28978">
        <ele>2148.1</ele>
        <time>2022-01-06T09:17:35Z</time>
      </trkpt>
      <trkpt lat="45.82534" lon="6.28976">
        <ele>2148.1</ele>
        <time>2022-01-06T09:17:36Z</time>
      </trkpt>
      <trkpt lat="45.82535" lon="6.28975">
        <ele>2148.1</ele>
        <time>2022-01-06T09:17:37Z</time>
      </trkpt>
      <trkpt lat="45.82535" lon="6.28975">
        <ele>2149</ele>
        <time>2022-01-06T09:17:38Z</time>
      </trkpt>
      <trkpt lat="45.82535" lon="6.28974">
        <ele>2149</ele>
        <time>2022-01-06T09:17:39Z</time>
      </trkpt>
      <trkpt lat="45.82534" lon="6.28973">
        <ele>2149</ele>
        <time>2022-01-06T09:17:40Z</time>
      </trkpt>
      <trkpt lat="45.82534" lon="6.28973">
        <ele>2149</ele>
        <time>2022-01-06T09:17:41Z</time>
      </trkpt>
      <trkpt lat="45.82533" lon="6.28972">
        <ele>2150.1</ele>
        <time>2022-01-06T09:17:42Z</time>
      </trkpt>
      <trkpt lat="45.82533" lon="6.28971">
        <ele>2150.1</ele>
        <time>2022-01-06T09:17:43Z</time>
      </trkpt>
      <trkpt lat="45.82532" lon="6.28971">
        <ele>2150.1</ele>
        <time>2022-01-06T09:17:44Z</time>
      </trkpt>
      <trkpt lat="45.82532" lon="6.2897">
        <ele>2150.1</ele>
        <time>2022-01-06T09:17:45Z</time>
      </trkpt>
      <trkpt lat="45.82532" lon="6.28969">
        <ele>2151.2</ele>
        <time>2022-01-06T09:17:46Z</time>
      </trkpt>
      <trkpt lat="45.82532" lon="6.28969">
        <ele>2151.2</ele>
        <time>2022-01-06T09:17:47Z</time>
      </trkpt>
      <trkpt lat="45.82532" lon="6.28968">
        <ele>2151.2</ele>
        <time>2022-01-06T09:17:48Z</time>
      </trkpt>
      <trkpt lat="45.82532" lon="6.28967">
        <ele>2151.2</ele>
        <time>2022-01-06T09:17:49Z</time>
      </trkpt>
      <trkpt lat="45.82532" lon="6.28966">
        <ele>2152.1</ele>
        <time>2022-01-06T09:17:50Z</time>
      </trkpt>
      <trkpt lat="45.82532" lon="6.28965">
        <ele>2152.1</ele>
        <time>2022-01-06T09:17:51Z</time>
      </trkpt>
      <trkpt lat="45.82532" lon="6.28965">
        <ele>2152.1</ele>
        <time>2022-01-06T09:17:52Z</time>
      </trkpt>
      <trkpt lat="45.82532" lon="6.28964">
        <ele>2152.1</ele>
        <time>2022-01-06T09:17:53Z</time>
      </trkpt>
      <trkpt lat="45.82532" lon="6.28963">
        <ele>2153.1</ele>
        <time>2022-01-06T09:17:54Z</time>
      </trkpt>
      <trkpt lat="45.82532" lon="6.28962">
        <ele>2153.1</ele>
        <time>2022-01-06T09:17:55Z</time>
      </trkpt>
      <trkpt lat="45.82531" lon="6.28962">
        <ele>2153.1</ele>
        <time>2022-01-06T09:17:56Z</time>
      </trkpt>
      <trkpt lat="45.82531" lon="6.28961">
        <ele>2153.1</ele>
        <time>2022-01-06T09:17:57Z</time>
      </trkpt>
      <trkpt lat="45.8253" lon="6.2896">
        <ele>2154</ele>
        <time>2022-01-06T09:17:58Z</time>
      </trkpt>
      <trkpt lat="45.8253" lon="6.28959">
        <ele>2154</ele>
        <time>2022-01-06T09:17:59Z</time>
      </trkpt>
      <trkpt lat="45.8253" lon="6.28959">
        <ele>2154</ele>
        <time>2022-01-06T09:18:00Z</time>
      </trkpt>
      <trkpt lat="45.82531" lon="6.28959">
        <ele>2154</ele>
        <time>2022-01-06T09:18:01Z</time>
      </trkpt>
      <trkpt lat="45.82531" lon="6.28959">
        <ele>2154</ele>
        <time>2022-01-06T09:18:02Z</time>
      </trkpt>
      <trkpt lat="45.8253" lon="6.2896">
        <ele>2154</ele>
        <time>2022-01-06T09:18:03Z</time>
      </trkpt>
      <trkpt lat="45.8253" lon="6.2896">
        <ele>2154</ele>
        <time>2022-01-06T09:18:04Z</time>
      </trkpt>
      <trkpt lat="45.82529" lon="6.28961">
        <ele>2154</ele>
        <time>2022-01-06T09:18:05Z</time>
      </trkpt>
      <trkpt lat="45.82528" lon="6.28962">
        <ele>2154</ele>
        <time>2022-01-06T09:18:06Z</time>
      </trkpt>
      <trkpt lat="45.82528" lon="6.28963">
        <ele>2154</ele>
        <time>2022-01-06T09:18:07Z</time>
      </trkpt>
      <trkpt lat="45.82527" lon="6.28963">
        <ele>2154</ele>
        <time>2022-01-06T09:18:08Z</time>
      </trkpt>
      <trkpt lat="45.82527" lon="6.28964">
        <ele>2154</ele>
        <time>2022-01-06T09:18:09Z</time>
      </trkpt>
      <trkpt lat="45.82526" lon="6.28964">
        <ele>2155.1</ele>
        <time>2022-01-06T09:18:10Z</time>
      </trkpt>
      <trkpt lat="45.82524" lon="6.28965">
        <ele>2155.1</ele>
        <time>2022-01-06T09:18:11Z</time>
      </trkpt>
      <trkpt lat="45.82524" lon="6.28966">
        <ele>2155.1</ele>
        <time>2022-01-06T09:18:12Z</time>
      </trkpt>
      <trkpt lat="45.82523" lon="6.28966">
        <ele>2155.1</ele>
        <time>2022-01-06T09:18:13Z</time>
      </trkpt>
      <trkpt lat="45.82522" lon="6.28967">
        <ele>2156</ele>
        <time>2022-01-06T09:18:14Z</time>
      </trkpt>
      <trkpt lat="45.82522" lon="6.28967">
        <ele>2156</ele>
        <time>2022-01-06T09:18:15Z</time>
      </trkpt>
      <trkpt lat="45.82522" lon="6.28967">
        <ele>2156</ele>
        <time>2022-01-06T09:18:16Z</time>
      </trkpt>
      <trkpt lat="45.82523" lon="6.28968">
        <ele>2156</ele>
        <time>2022-01-06T09:18:17Z</time>
      </trkpt>
      <trkpt lat="45.82523" lon="6.28968">
        <ele>2157.1</ele>
        <time>2022-01-06T09:18:18Z</time>
      </trkpt>
      <trkpt lat="45.82522" lon="6.28968">
        <ele>2157.1</ele>
        <time>2022-01-06T09:18:19Z</time>
      </trkpt>
      <trkpt lat="45.82521" lon="6.28969">
        <ele>2157.1</ele>
        <time>2022-01-06T09:18:20Z</time>
      </trkpt>
      <trkpt lat="45.82521" lon="6.28969">
        <ele>2157.1</ele>
        <time>2022-01-06T09:18:21Z</time>
      </trkpt>
      <trkpt lat="45.8252" lon="6.28969">
        <ele>2158.2</ele>
        <time>2022-01-06T09:18:22Z</time>
      </trkpt>
      <trkpt lat="45.82519" lon="6.28969">
        <ele>2158.2</ele>
        <time>2022-01-06T09:18:23Z</time>
      </trkpt>
      <trkpt lat="45.82519" lon="6.28969">
        <ele>2158.2</ele>
        <time>2022-01-06T09:18:24Z</time>
      </trkpt>
      <trkpt lat="45.82518" lon="6.28969">
        <ele>2158.2</ele>
        <time>2022-01-06T09:18:25Z</time>
      </trkpt>
      <trkpt lat="45.82517" lon="6.2897">
        <ele>2158.2</ele>
        <time>2022-01-06T09:18:26Z</time>
      </trkpt>
      <trkpt lat="45.82517" lon="6.2897">
        <ele>2158.2</ele>
        <time>2022-01-06T09:18:27Z</time>
      </trkpt>
      <trkpt lat="45.82517" lon="6.28971">
        <ele>2159.1</ele>
        <time>2022-01-06T09:18:28Z</time>
      </trkpt>
      <trkpt lat="45.82515" lon="6.28972">
        <ele>2159.1</ele>
        <time>2022-01-06T09:18:29Z</time>
      </trkpt>
      <trkpt lat="45.82513" lon="6.28973">
        <ele>2159.1</ele>
        <time>2022-01-06T09:18:30Z</time>
      </trkpt>
      <trkpt lat="45.82513" lon="6.28973">
        <ele>2159.1</ele>
        <time>2022-01-06T09:18:31Z</time>
      </trkpt>
      <trkpt lat="45.82512" lon="6.28974">
        <ele>2160.1</ele>
        <time>2022-01-06T09:18:32Z</time>
      </trkpt>
      <trkpt lat="45.82511" lon="6.28975">
        <ele>2160.1</ele>
        <time>2022-01-06T09:18:33Z</time>
      </trkpt>
      <trkpt lat="45.8251" lon="6.28976">
        <ele>2160.1</ele>
        <time>2022-01-06T09:18:34Z</time>
      </trkpt>
      <trkpt lat="45.8251" lon="6.28976">
        <ele>2160.1</ele>
        <time>2022-01-06T09:18:35Z</time>
      </trkpt>
      <trkpt lat="45.8251" lon="6.28976">
        <ele>2161.1</ele>
        <time>2022-01-06T09:18:36Z</time>
      </trkpt>
      <trkpt lat="45.82509" lon="6.28975">
        <ele>2161.1</ele>
        <time>2022-01-06T09:18:37Z</time>
      </trkpt>
      <trkpt lat="45.82509" lon="6.28975">
        <ele>2161.1</ele>
        <time>2022-01-06T09:18:38Z</time>
      </trkpt>
      <trkpt lat="45.82509" lon="6.28974">
        <ele>2161.1</ele>
        <time>2022-01-06T09:18:39Z</time>
      </trkpt>
      <trkpt lat="45.82508" lon="6.28973">
        <ele>2161.1</ele>
        <time>2022-01-06T09:18:40Z</time>
      </trkpt>
      <trkpt lat="45.82508" lon="6.28972">
        <ele>2161.1</ele>
        <time>2022-01-06T09:18:41Z</time>
      </trkpt>
      <trkpt lat="45.82508" lon="6.28971">
        <ele>2161.1</ele>
        <time>2022-01-06T09:18:42Z</time>
      </trkpt>
      <trkpt lat="45.82508" lon="6.2897">
        <ele>2161.1</ele>
        <time>2022-01-06T09:18:43Z</time>
      </trkpt>
      <trkpt lat="45.82508" lon="6.28969">
        <ele>2164.1</ele>
        <time>2022-01-06T09:18:44Z</time>
      </trkpt>
      <trkpt lat="45.82507" lon="6.28968">
        <ele>2164.1</ele>
        <time>2022-01-06T09:18:45Z</time>
      </trkpt>
      <trkpt lat="45.82507" lon="6.28967">
        <ele>2164.1</ele>
        <time>2022-01-06T09:18:46Z</time>
      </trkpt>
      <trkpt lat="45.82507" lon="6.28967">
        <ele>2164.1</ele>
        <time>2022-01-06T09:18:47Z</time>
      </trkpt>
      <trkpt lat="45.82507" lon="6.28966">
        <ele>2164.1</ele>
        <time>2022-01-06T09:18:48Z</time>
      </trkpt>
      <trkpt lat="45.82507" lon="6.28965">
        <ele>2164.1</ele>
        <time>2022-01-06T09:18:49Z</time>
      </trkpt>
      <trkpt lat="45.82507" lon="6.28964">
        <ele>2164.1</ele>
        <time>2022-01-06T09:18:50Z</time>
      </trkpt>
      <trkpt lat="45.82507" lon="6.28963">
        <ele>2164.1</ele>
        <time>2022-01-06T09:18:51Z</time>
      </trkpt>
      <trkpt lat="45.82507" lon="6.28962">
        <ele>2164.1</ele>
        <time>2022-01-06T09:18:52Z</time>
      </trkpt>
      <trkpt lat="45.82506" lon="6.28961">
        <ele>2164.1</ele>
        <time>2022-01-06T09:18:53Z</time>
      </trkpt>
      <trkpt lat="45.82507" lon="6.2896">
        <ele>2164.1</ele>
        <time>2022-01-06T09:18:54Z</time>
      </trkpt>
      <trkpt lat="45.82506" lon="6.28958">
        <ele>2164.1</ele>
        <time>2022-01-06T09:18:55Z</time>
      </trkpt>
      <trkpt lat="45.82506" lon="6.28957">
        <ele>2165</ele>
        <time>2022-01-06T09:18:56Z</time>
      </trkpt>
      <trkpt lat="45.82505" lon="6.28957">
        <ele>2165</ele>
        <time>2022-01-06T09:18:57Z</time>
      </trkpt>
      <trkpt lat="45.82505" lon="6.28956">
        <ele>2165</ele>
        <time>2022-01-06T09:18:58Z</time>
      </trkpt>
      <trkpt lat="45.82505" lon="6.28956">
        <ele>2165</ele>
        <time>2022-01-06T09:18:59Z</time>
      </trkpt>
      <trkpt lat="45.82505" lon="6.28955">
        <ele>2165</ele>
        <time>2022-01-06T09:19:00Z</time>
      </trkpt>
      <trkpt lat="45.82505" lon="6.28954">
        <ele>2165</ele>
        <time>2022-01-06T09:19:01Z</time>
      </trkpt>
      <trkpt lat="45.82505" lon="6.28954">
        <ele>2165</ele>
        <time>2022-01-06T09:19:02Z</time>
      </trkpt>
      <trkpt lat="45.82505" lon="6.28953">
        <ele>2165</ele>
        <time>2022-01-06T09:19:03Z</time>
      </trkpt>
      <trkpt lat="45.82505" lon="6.28952">
        <ele>2168.1</ele>
        <time>2022-01-06T09:19:04Z</time>
      </trkpt>
      <trkpt lat="45.82505" lon="6.28952">
        <ele>2168.1</ele>
        <time>2022-01-06T09:19:05Z</time>
      </trkpt>
      <trkpt lat="45.82505" lon="6.28951">
        <ele>2169.1</ele>
        <time>2022-01-06T09:19:06Z</time>
      </trkpt>
      <trkpt lat="45.82505" lon="6.28951">
        <ele>2169.1</ele>
        <time>2022-01-06T09:19:07Z</time>
      </trkpt>
      <trkpt lat="45.82504" lon="6.2895">
        <ele>2169.1</ele>
        <time>2022-01-06T09:19:08Z</time>
      </trkpt>
      <trkpt lat="45.82504" lon="6.28949">
        <ele>2169.1</ele>
        <time>2022-01-06T09:19:09Z</time>
      </trkpt>
      <trkpt lat="45.82503" lon="6.28949">
        <ele>2170.1</ele>
        <time>2022-01-06T09:19:10Z</time>
      </trkpt>
      <trkpt lat="45.82503" lon="6.28948">
        <ele>2170.1</ele>
        <time>2022-01-06T09:19:11Z</time>
      </trkpt>
      <trkpt lat="45.82503" lon="6.28948">
        <ele>2170.1</ele>
        <time>2022-01-06T09:19:12Z</time>
      </trkpt>
      <trkpt lat="45.82503" lon="6.28947">
        <ele>2170.1</ele>
        <time>2022-01-06T09:19:13Z</time>
      </trkpt>
      <trkpt lat="45.82503" lon="6.28946">
        <ele>2171.1</ele>
        <time>2022-01-06T09:19:14Z</time>
      </trkpt>
      <trkpt lat="45.82503" lon="6.28945">
        <ele>2171.1</ele>
        <time>2022-01-06T09:19:15Z</time>
      </trkpt>
      <trkpt lat="45.82502" lon="6.28945">
        <ele>2171.1</ele>
        <time>2022-01-06T09:19:16Z</time>
      </trkpt>
      <trkpt lat="45.82502" lon="6.28945">
        <ele>2171.1</ele>
        <time>2022-01-06T09:19:17Z</time>
      </trkpt>
      <trkpt lat="45.82502" lon="6.28943">
        <ele>2172</ele>
        <time>2022-01-06T09:19:18Z</time>
      </trkpt>
      <trkpt lat="45.82502" lon="6.28943">
        <ele>2172</ele>
        <time>2022-01-06T09:19:19Z</time>
      </trkpt>
      <trkpt lat="45.82502" lon="6.28942">
        <ele>2173.1</ele>
        <time>2022-01-06T09:19:20Z</time>
      </trkpt>
      <trkpt lat="45.82502" lon="6.28942">
        <ele>2173.1</ele>
        <time>2022-01-06T09:19:21Z</time>
      </trkpt>
      <trkpt lat="45.82502" lon="6.28941">
        <ele>2173.1</ele>
        <time>2022-01-06T09:19:22Z</time>
      </trkpt>
      <trkpt lat="45.82502" lon="6.28941">
        <ele>2173.1</ele>
        <time>2022-01-06T09:19:23Z</time>
      </trkpt>
      <trkpt lat="45.82502" lon="6.2894">
        <ele>2173.1</ele>
        <time>2022-01-06T09:19:24Z</time>
      </trkpt>
      <trkpt lat="45.82502" lon="6.2894">
        <ele>2173.1</ele>
        <time>2022-01-06T09:19:25Z</time>
      </trkpt>
      <trkpt lat="45.82502" lon="6.28939">
        <ele>2173.1</ele>
        <time>2022-01-06T09:19:26Z</time>
      </trkpt>
      <trkpt lat="45.82501" lon="6.28938">
        <ele>2173.1</ele>
        <time>2022-01-06T09:19:27Z</time>
      </trkpt>
      <trkpt lat="45.82501" lon="6.28937">
        <ele>2173.1</ele>
        <time>2022-01-06T09:19:28Z</time>
      </trkpt>
      <trkpt lat="45.82501" lon="6.28937">
        <ele>2173.1</ele>
        <time>2022-01-06T09:19:29Z</time>
      </trkpt>
      <trkpt lat="45.82501" lon="6.28936">
        <ele>2174.2</ele>
        <time>2022-01-06T09:19:30Z</time>
      </trkpt>
      <trkpt lat="45.82501" lon="6.28935">
        <ele>2174.2</ele>
        <time>2022-01-06T09:19:31Z</time>
      </trkpt>
      <trkpt lat="45.82501" lon="6.28935">
        <ele>2174.2</ele>
        <time>2022-01-06T09:19:32Z</time>
      </trkpt>
      <trkpt lat="45.82501" lon="6.28934">
        <ele>2174.2</ele>
        <time>2022-01-06T09:19:33Z</time>
      </trkpt>
      <trkpt lat="45.82501" lon="6.28933">
        <ele>2175.1</ele>
        <time>2022-01-06T09:19:34Z</time>
      </trkpt>
      <trkpt lat="45.825" lon="6.28933">
        <ele>2175.1</ele>
        <time>2022-01-06T09:19:35Z</time>
      </trkpt>
      <trkpt lat="45.825" lon="6.28931">
        <ele>2175.1</ele>
        <time>2022-01-06T09:19:36Z</time>
      </trkpt>
      <trkpt lat="45.82501" lon="6.2893">
        <ele>2175.1</ele>
        <time>2022-01-06T09:19:37Z</time>
      </trkpt>
      <trkpt lat="45.825" lon="6.28929">
        <ele>2176.1</ele>
        <time>2022-01-06T09:19:38Z</time>
      </trkpt>
      <trkpt lat="45.825" lon="6.28928">
        <ele>2176.1</ele>
        <time>2022-01-06T09:19:39Z</time>
      </trkpt>
      <trkpt lat="45.82499" lon="6.28927">
        <ele>2176.1</ele>
        <time>2022-01-06T09:19:40Z</time>
      </trkpt>
      <trkpt lat="45.82499" lon="6.28925">
        <ele>2176.1</ele>
        <time>2022-01-06T09:19:41Z</time>
      </trkpt>
      <trkpt lat="45.82499" lon="6.28924">
        <ele>2177.1</ele>
        <time>2022-01-06T09:19:42Z</time>
      </trkpt>
      <trkpt lat="45.82499" lon="6.28924">
        <ele>2177.1</ele>
        <time>2022-01-06T09:19:43Z</time>
      </trkpt>
      <trkpt lat="45.825" lon="6.28924">
        <ele>2177.1</ele>
        <time>2022-01-06T09:19:44Z</time>
      </trkpt>
      <trkpt lat="45.825" lon="6.28924">
        <ele>2177.1</ele>
        <time>2022-01-06T09:19:45Z</time>
      </trkpt>
      <trkpt lat="45.825" lon="6.28925">
        <ele>2177.1</ele>
        <time>2022-01-06T09:19:46Z</time>
      </trkpt>
      <trkpt lat="45.825" lon="6.28925">
        <ele>2177.1</ele>
        <time>2022-01-06T09:19:47Z</time>
      </trkpt>
      <trkpt lat="45.825" lon="6.28925">
        <ele>2177.1</ele>
        <time>2022-01-06T09:19:48Z</time>
      </trkpt>
      <trkpt lat="45.825" lon="6.28926">
        <ele>2177.1</ele>
        <time>2022-01-06T09:19:49Z</time>
      </trkpt>
      <trkpt lat="45.825" lon="6.28926">
        <ele>2177.1</ele>
        <time>2022-01-06T09:19:50Z</time>
      </trkpt>
      <trkpt lat="45.825" lon="6.28927">
        <ele>2177.1</ele>
        <time>2022-01-06T09:19:51Z</time>
      </trkpt>
      <trkpt lat="45.825" lon="6.28926">
        <ele>2177.1</ele>
        <time>2022-01-06T09:19:52Z</time>
      </trkpt>
      <trkpt lat="45.825" lon="6.28926">
        <ele>2177.1</ele>
        <time>2022-01-06T09:19:53Z</time>
      </trkpt>
      <trkpt lat="45.825" lon="6.28926">
        <ele>2177.1</ele>
        <time>2022-01-06T09:19:54Z</time>
      </trkpt>
      <trkpt lat="45.825" lon="6.28926">
        <ele>2177.1</ele>
        <time>2022-01-06T09:19:55Z</time>
      </trkpt>
      <trkpt lat="45.825" lon="6.28927">
        <ele>2177.1</ele>
        <time>2022-01-06T09:19:56Z</time>
      </trkpt>
      <trkpt lat="45.82499" lon="6.28928">
        <ele>2177.1</ele>
        <time>2022-01-06T09:19:57Z</time>
      </trkpt>
      <trkpt lat="45.82499" lon="6.28929">
        <ele>2176.1</ele>
        <time>2022-01-06T09:19:58Z</time>
      </trkpt>
      <trkpt lat="45.82499" lon="6.28929">
        <ele>2176.1</ele>
        <time>2022-01-06T09:19:59Z</time>
      </trkpt>
      <trkpt lat="45.82498" lon="6.2893">
        <ele>2177.1</ele>
        <time>2022-01-06T09:20:00Z</time>
      </trkpt>
      <trkpt lat="45.82498" lon="6.2893">
        <ele>2177.1</ele>
        <time>2022-01-06T09:20:01Z</time>
      </trkpt>
      <trkpt lat="45.82498" lon="6.2893">
        <ele>2177.1</ele>
        <time>2022-01-06T09:20:02Z</time>
      </trkpt>
      <trkpt lat="45.82498" lon="6.2893">
        <ele>2177.1</ele>
        <time>2022-01-06T09:20:03Z</time>
      </trkpt>
      <trkpt lat="45.82498" lon="6.28929">
        <ele>2177.1</ele>
        <time>2022-01-06T09:20:04Z</time>
      </trkpt>
      <trkpt lat="45.82498" lon="6.28929">
        <ele>2177.1</ele>
        <time>2022-01-06T09:20:05Z</time>
      </trkpt>
      <trkpt lat="45.82498" lon="6.28929">
        <ele>2177.1</ele>
        <time>2022-01-06T09:20:06Z</time>
      </trkpt>
      <trkpt lat="45.82498" lon="6.28929">
        <ele>2177.1</ele>
        <time>2022-01-06T09:20:07Z</time>
      </trkpt>
      <trkpt lat="45.82498" lon="6.28929">
        <ele>2177.1</ele>
        <time>2022-01-06T09:20:08Z</time>
      </trkpt>
      <trkpt lat="45.82498" lon="6.28929">
        <ele>2177.1</ele>
        <time>2022-01-06T09:20:09Z</time>
      </trkpt>
      <trkpt lat="45.82498" lon="6.28929">
        <ele>2178.1</ele>
        <time>2022-01-06T09:20:10Z</time>
      </trkpt>
      <trkpt lat="45.82498" lon="6.28929">
        <ele>2178.1</ele>
        <time>2022-01-06T09:20:11Z</time>
      </trkpt>
      <trkpt lat="45.82498" lon="6.28929">
        <ele>2178.1</ele>
        <time>2022-01-06T09:20:12Z</time>
      </trkpt>
      <trkpt lat="45.82498" lon="6.28929">
        <ele>2178.1</ele>
        <time>2022-01-06T09:20:13Z</time>
      </trkpt>
      <trkpt lat="45.82498" lon="6.28929">
        <ele>2178.1</ele>
        <time>2022-01-06T09:20:14Z</time>
      </trkpt>
      <trkpt lat="45.82498" lon="6.28929">
        <ele>2178.1</ele>
        <time>2022-01-06T09:20:15Z</time>
      </trkpt>
      <trkpt lat="45.82498" lon="6.28929">
        <ele>2178.1</ele>
        <time>2022-01-06T09:20:16Z</time>
      </trkpt>
      <trkpt lat="45.82498" lon="6.2893">
        <ele>2178.1</ele>
        <time>2022-01-06T09:20:17Z</time>
      </trkpt>
      <trkpt lat="45.82498" lon="6.2893">
        <ele>2179</ele>
        <time>2022-01-06T09:20:18Z</time>
      </trkpt>
      <trkpt lat="45.82498" lon="6.2893">
        <ele>2179</ele>
        <time>2022-01-06T09:20:19Z</time>
      </trkpt>
      <trkpt lat="45.82498" lon="6.2893">
        <ele>2179</ele>
        <time>2022-01-06T09:20:20Z</time>
      </trkpt>
      <trkpt lat="45.82497" lon="6.2893">
        <ele>2179</ele>
        <time>2022-01-06T09:20:21Z</time>
      </trkpt>
      <trkpt lat="45.82496" lon="6.28931">
        <ele>2180.1</ele>
        <time>2022-01-06T09:20:22Z</time>
      </trkpt>
      <trkpt lat="45.82495" lon="6.28932">
        <ele>2180.1</ele>
        <time>2022-01-06T09:20:23Z</time>
      </trkpt>
      <trkpt lat="45.82493" lon="6.28934">
        <ele>2180.1</ele>
        <time>2022-01-06T09:20:24Z</time>
      </trkpt>
      <trkpt lat="45.82492" lon="6.28936">
        <ele>2180.1</ele>
        <time>2022-01-06T09:20:25Z</time>
      </trkpt>
      <trkpt lat="45.82491" lon="6.28937">
        <ele>2181</ele>
        <time>2022-01-06T09:20:26Z</time>
      </trkpt>
      <trkpt lat="45.8249" lon="6.28938">
        <ele>2181</ele>
        <time>2022-01-06T09:20:27Z</time>
      </trkpt>
      <trkpt lat="45.82489" lon="6.28939">
        <ele>2181</ele>
        <time>2022-01-06T09:20:28Z</time>
      </trkpt>
      <trkpt lat="45.82488" lon="6.2894">
        <ele>2181</ele>
        <time>2022-01-06T09:20:29Z</time>
      </trkpt>
      <trkpt lat="45.82487" lon="6.28941">
        <ele>2181</ele>
        <time>2022-01-06T09:20:30Z</time>
      </trkpt>
      <trkpt lat="45.82487" lon="6.28942">
        <ele>2181</ele>
        <time>2022-01-06T09:20:31Z</time>
      </trkpt>
      <trkpt lat="45.82486" lon="6.28942">
        <ele>2182.1</ele>
        <time>2022-01-06T09:20:32Z</time>
      </trkpt>
      <trkpt lat="45.82486" lon="6.28942">
        <ele>2182.1</ele>
        <time>2022-01-06T09:20:33Z</time>
      </trkpt>
      <trkpt lat="45.82486" lon="6.28941">
        <ele>2182.1</ele>
        <time>2022-01-06T09:20:34Z</time>
      </trkpt>
      <trkpt lat="45.82485" lon="6.2894">
        <ele>2182.1</ele>
        <time>2022-01-06T09:20:35Z</time>
      </trkpt>
      <trkpt lat="45.82485" lon="6.2894">
        <ele>2183.2</ele>
        <time>2022-01-06T09:20:36Z</time>
      </trkpt>
      <trkpt lat="45.82485" lon="6.28939">
        <ele>2183.2</ele>
        <time>2022-01-06T09:20:37Z</time>
      </trkpt>
      <trkpt lat="45.82484" lon="6.28938">
        <ele>2183.2</ele>
        <time>2022-01-06T09:20:38Z</time>
      </trkpt>
      <trkpt lat="45.82484" lon="6.28938">
        <ele>2183.2</ele>
        <time>2022-01-06T09:20:39Z</time>
      </trkpt>
      <trkpt lat="45.82483" lon="6.28938">
        <ele>2184.1</ele>
        <time>2022-01-06T09:20:40Z</time>
      </trkpt>
      <trkpt lat="45.82483" lon="6.28937">
        <ele>2184.1</ele>
        <time>2022-01-06T09:20:41Z</time>
      </trkpt>
      <trkpt lat="45.82483" lon="6.28935">
        <ele>2184.1</ele>
        <time>2022-01-06T09:20:42Z</time>
      </trkpt>
      <trkpt lat="45.82483" lon="6.28934">
        <ele>2184.1</ele>
        <time>2022-01-06T09:20:43Z</time>
      </trkpt>
      <trkpt lat="45.82483" lon="6.28933">
        <ele>2185.1</ele>
        <time>2022-01-06T09:20:44Z</time>
      </trkpt>
      <trkpt lat="45.82483" lon="6.28932">
        <ele>2185.1</ele>
        <time>2022-01-06T09:20:45Z</time>
      </trkpt>
      <trkpt lat="45.82483" lon="6.28931">
        <ele>2185.1</ele>
        <time>2022-01-06T09:20:46Z</time>
      </trkpt>
      <trkpt lat="45.82483" lon="6.2893">
        <ele>2185.1</ele>
        <time>2022-01-06T09:20:47Z</time>
      </trkpt>
      <trkpt lat="45.82482" lon="6.28929">
        <ele>2185.1</ele>
        <time>2022-01-06T09:20:48Z</time>
      </trkpt>
      <trkpt lat="45.82482" lon="6.28928">
        <ele>2185.1</ele>
        <time>2022-01-06T09:20:49Z</time>
      </trkpt>
      <trkpt lat="45.82482" lon="6.28927">
        <ele>2185.1</ele>
        <time>2022-01-06T09:20:50Z</time>
      </trkpt>
      <trkpt lat="45.82482" lon="6.28926">
        <ele>2185.1</ele>
        <time>2022-01-06T09:20:51Z</time>
      </trkpt>
      <trkpt lat="45.82482" lon="6.28925">
        <ele>2186.1</ele>
        <time>2022-01-06T09:20:52Z</time>
      </trkpt>
      <trkpt lat="45.82482" lon="6.28924">
        <ele>2186.1</ele>
        <time>2022-01-06T09:20:53Z</time>
      </trkpt>
      <trkpt lat="45.82482" lon="6.28923">
        <ele>2186.1</ele>
        <time>2022-01-06T09:20:54Z</time>
      </trkpt>
      <trkpt lat="45.82482" lon="6.28922">
        <ele>2186.1</ele>
        <time>2022-01-06T09:20:55Z</time>
      </trkpt>
      <trkpt lat="45.82481" lon="6.28921">
        <ele>2186.1</ele>
        <time>2022-01-06T09:20:56Z</time>
      </trkpt>
      <trkpt lat="45.82482" lon="6.2892">
        <ele>2186.1</ele>
        <time>2022-01-06T09:20:57Z</time>
      </trkpt>
      <trkpt lat="45.82482" lon="6.2892">
        <ele>2186.1</ele>
        <time>2022-01-06T09:20:58Z</time>
      </trkpt>
      <trkpt lat="45.82482" lon="6.28921">
        <ele>2186.1</ele>
        <time>2022-01-06T09:20:59Z</time>
      </trkpt>
      <trkpt lat="45.82482" lon="6.28921">
        <ele>2186.1</ele>
        <time>2022-01-06T09:21:00Z</time>
      </trkpt>
      <trkpt lat="45.82481" lon="6.28922">
        <ele>2186.1</ele>
        <time>2022-01-06T09:21:01Z</time>
      </trkpt>
      <trkpt lat="45.82481" lon="6.28922">
        <ele>2188</ele>
        <time>2022-01-06T09:21:02Z</time>
      </trkpt>
      <trkpt lat="45.82481" lon="6.28923">
        <ele>2188</ele>
        <time>2022-01-06T09:21:03Z</time>
      </trkpt>
      <trkpt lat="45.82481" lon="6.28924">
        <ele>2188</ele>
        <time>2022-01-06T09:21:04Z</time>
      </trkpt>
      <trkpt lat="45.8248" lon="6.28925">
        <ele>2188</ele>
        <time>2022-01-06T09:21:05Z</time>
      </trkpt>
      <trkpt lat="45.82478" lon="6.28926">
        <ele>2188</ele>
        <time>2022-01-06T09:21:06Z</time>
      </trkpt>
      <trkpt lat="45.82478" lon="6.28926">
        <ele>2188</ele>
        <time>2022-01-06T09:21:07Z</time>
      </trkpt>
      <trkpt lat="45.82477" lon="6.28927">
        <ele>2188</ele>
        <time>2022-01-06T09:21:08Z</time>
      </trkpt>
      <trkpt lat="45.82476" lon="6.28928">
        <ele>2188</ele>
        <time>2022-01-06T09:21:09Z</time>
      </trkpt>
      <trkpt lat="45.82476" lon="6.28928">
        <ele>2188</ele>
        <time>2022-01-06T09:21:10Z</time>
      </trkpt>
      <trkpt lat="45.82475" lon="6.28928">
        <ele>2188</ele>
        <time>2022-01-06T09:21:11Z</time>
      </trkpt>
      <trkpt lat="45.82475" lon="6.28929">
        <ele>2188</ele>
        <time>2022-01-06T09:21:12Z</time>
      </trkpt>
      <trkpt lat="45.82474" lon="6.2893">
        <ele>2188</ele>
        <time>2022-01-06T09:21:13Z</time>
      </trkpt>
      <trkpt lat="45.82474" lon="6.28931">
        <ele>2189.1</ele>
        <time>2022-01-06T09:21:14Z</time>
      </trkpt>
      <trkpt lat="45.82474" lon="6.28931">
        <ele>2189.1</ele>
        <time>2022-01-06T09:21:15Z</time>
      </trkpt>
      <trkpt lat="45.82473" lon="6.28932">
        <ele>2189.1</ele>
        <time>2022-01-06T09:21:16Z</time>
      </trkpt>
      <trkpt lat="45.82472" lon="6.28934">
        <ele>2189.1</ele>
        <time>2022-01-06T09:21:17Z</time>
      </trkpt>
      <trkpt lat="45.82472" lon="6.28935">
        <ele>2190.2</ele>
        <time>2022-01-06T09:21:18Z</time>
      </trkpt>
      <trkpt lat="45.82472" lon="6.28936">
        <ele>2190.2</ele>
        <time>2022-01-06T09:21:19Z</time>
      </trkpt>
      <trkpt lat="45.82471" lon="6.28936">
        <ele>2190.2</ele>
        <time>2022-01-06T09:21:20Z</time>
      </trkpt>
      <trkpt lat="45.82471" lon="6.28937">
        <ele>2190.2</ele>
        <time>2022-01-06T09:21:21Z</time>
      </trkpt>
      <trkpt lat="45.82471" lon="6.28938">
        <ele>2191.1</ele>
        <time>2022-01-06T09:21:22Z</time>
      </trkpt>
      <trkpt lat="45.82471" lon="6.28939">
        <ele>2191.1</ele>
        <time>2022-01-06T09:21:23Z</time>
      </trkpt>
      <trkpt lat="45.8247" lon="6.2894">
        <ele>2191.1</ele>
        <time>2022-01-06T09:21:24Z</time>
      </trkpt>
      <trkpt lat="45.8247" lon="6.28941">
        <ele>2191.1</ele>
        <time>2022-01-06T09:21:25Z</time>
      </trkpt>
      <trkpt lat="45.8247" lon="6.28942">
        <ele>2191.1</ele>
        <time>2022-01-06T09:21:26Z</time>
      </trkpt>
      <trkpt lat="45.8247" lon="6.28942">
        <ele>2191.1</ele>
        <time>2022-01-06T09:21:27Z</time>
      </trkpt>
      <trkpt lat="45.8247" lon="6.28942">
        <ele>2192.1</ele>
        <time>2022-01-06T09:21:28Z</time>
      </trkpt>
      <trkpt lat="45.8247" lon="6.28943">
        <ele>2192.1</ele>
        <time>2022-01-06T09:21:29Z</time>
      </trkpt>
      <trkpt lat="45.8247" lon="6.28944">
        <ele>2192.1</ele>
        <time>2022-01-06T09:21:30Z</time>
      </trkpt>
      <trkpt lat="45.82469" lon="6.28945">
        <ele>2192.1</ele>
        <time>2022-01-06T09:21:31Z</time>
      </trkpt>
      <trkpt lat="45.82469" lon="6.28946">
        <ele>2193.1</ele>
        <time>2022-01-06T09:21:32Z</time>
      </trkpt>
      <trkpt lat="45.82469" lon="6.28947">
        <ele>2193.1</ele>
        <time>2022-01-06T09:21:33Z</time>
      </trkpt>
      <trkpt lat="45.82468" lon="6.28947">
        <ele>2193.1</ele>
        <time>2022-01-06T09:21:34Z</time>
      </trkpt>
      <trkpt lat="45.82468" lon="6.28948">
        <ele>2193.1</ele>
        <time>2022-01-06T09:21:35Z</time>
      </trkpt>
      <trkpt lat="45.82468" lon="6.28949">
        <ele>2194.1</ele>
        <time>2022-01-06T09:21:36Z</time>
      </trkpt>
      <trkpt lat="45.82467" lon="6.2895">
        <ele>2194.1</ele>
        <time>2022-01-06T09:21:37Z</time>
      </trkpt>
      <trkpt lat="45.82467" lon="6.2895">
        <ele>2194.1</ele>
        <time>2022-01-06T09:21:38Z</time>
      </trkpt>
      <trkpt lat="45.82467" lon="6.2895">
        <ele>2194.1</ele>
        <time>2022-01-06T09:21:39Z</time>
      </trkpt>
      <trkpt lat="45.82466" lon="6.2895">
        <ele>2194.1</ele>
        <time>2022-01-06T09:21:40Z</time>
      </trkpt>
      <trkpt lat="45.82466" lon="6.2895">
        <ele>2194.1</ele>
        <time>2022-01-06T09:21:41Z</time>
      </trkpt>
      <trkpt lat="45.82467" lon="6.28948">
        <ele>2194.1</ele>
        <time>2022-01-06T09:21:42Z</time>
      </trkpt>
      <trkpt lat="45.82467" lon="6.28947">
        <ele>2194.1</ele>
        <time>2022-01-06T09:21:43Z</time>
      </trkpt>
      <trkpt lat="45.82467" lon="6.28947">
        <ele>2196.1</ele>
        <time>2022-01-06T09:21:44Z</time>
      </trkpt>
      <trkpt lat="45.82466" lon="6.28946">
        <ele>2196.1</ele>
        <time>2022-01-06T09:21:45Z</time>
      </trkpt>
      <trkpt lat="45.82466" lon="6.28945">
        <ele>2198.1</ele>
        <time>2022-01-06T09:21:46Z</time>
      </trkpt>
      <trkpt lat="45.82465" lon="6.28944">
        <ele>2198.1</ele>
        <time>2022-01-06T09:21:47Z</time>
      </trkpt>
      <trkpt lat="45.82466" lon="6.28943">
        <ele>2198.1</ele>
        <time>2022-01-06T09:21:48Z</time>
      </trkpt>
      <trkpt lat="45.82466" lon="6.28941">
        <ele>2198.1</ele>
        <time>2022-01-06T09:21:49Z</time>
      </trkpt>
      <trkpt lat="45.82466" lon="6.28941">
        <ele>2199.2</ele>
        <time>2022-01-06T09:21:50Z</time>
      </trkpt>
      <trkpt lat="45.82466" lon="6.28941">
        <ele>2199.2</ele>
        <time>2022-01-06T09:21:51Z</time>
      </trkpt>
      <trkpt lat="45.82466" lon="6.2894">
        <ele>2200.1</ele>
        <time>2022-01-06T09:21:52Z</time>
      </trkpt>
      <trkpt lat="45.82465" lon="6.28939">
        <ele>2200.1</ele>
        <time>2022-01-06T09:21:53Z</time>
      </trkpt>
      <trkpt lat="45.82465" lon="6.28938">
        <ele>2200.1</ele>
        <time>2022-01-06T09:21:54Z</time>
      </trkpt>
      <trkpt lat="45.82465" lon="6.28937">
        <ele>2200.1</ele>
        <time>2022-01-06T09:21:55Z</time>
      </trkpt>
      <trkpt lat="45.82465" lon="6.28936">
        <ele>2201.1</ele>
        <time>2022-01-06T09:21:56Z</time>
      </trkpt>
      <trkpt lat="45.82465" lon="6.28935">
        <ele>2201.1</ele>
        <time>2022-01-06T09:21:57Z</time>
      </trkpt>
      <trkpt lat="45.82465" lon="6.28934">
        <ele>2201.1</ele>
        <time>2022-01-06T09:21:58Z</time>
      </trkpt>
      <trkpt lat="45.82464" lon="6.28933">
        <ele>2201.1</ele>
        <time>2022-01-06T09:21:59Z</time>
      </trkpt>
      <trkpt lat="45.82464" lon="6.28933">
        <ele>2201.1</ele>
        <time>2022-01-06T09:22:00Z</time>
      </trkpt>
      <trkpt lat="45.82464" lon="6.28932">
        <ele>2201.1</ele>
        <time>2022-01-06T09:22:01Z</time>
      </trkpt>
      <trkpt lat="45.82464" lon="6.28931">
        <ele>2202.1</ele>
        <time>2022-01-06T09:22:02Z</time>
      </trkpt>
      <trkpt lat="45.82464" lon="6.2893">
        <ele>2202.1</ele>
        <time>2022-01-06T09:22:03Z</time>
      </trkpt>
      <trkpt lat="45.82463" lon="6.28929">
        <ele>2202.1</ele>
        <time>2022-01-06T09:22:04Z</time>
      </trkpt>
      <trkpt lat="45.82463" lon="6.28928">
        <ele>2202.1</ele>
        <time>2022-01-06T09:22:05Z</time>
      </trkpt>
      <trkpt lat="45.82463" lon="6.28927">
        <ele>2202.1</ele>
        <time>2022-01-06T09:22:06Z</time>
      </trkpt>
      <trkpt lat="45.82463" lon="6.28926">
        <ele>2202.1</ele>
        <time>2022-01-06T09:22:07Z</time>
      </trkpt>
      <trkpt lat="45.82462" lon="6.28926">
        <ele>2202.1</ele>
        <time>2022-01-06T09:22:08Z</time>
      </trkpt>
      <trkpt lat="45.82462" lon="6.28925">
        <ele>2202.1</ele>
        <time>2022-01-06T09:22:09Z</time>
      </trkpt>
      <trkpt lat="45.82462" lon="6.28925">
        <ele>2203.1</ele>
        <time>2022-01-06T09:22:10Z</time>
      </trkpt>
      <trkpt lat="45.82462" lon="6.28924">
        <ele>2203.1</ele>
        <time>2022-01-06T09:22:11Z</time>
      </trkpt>
      <trkpt lat="45.82461" lon="6.28924">
        <ele>2203.1</ele>
        <time>2022-01-06T09:22:12Z</time>
      </trkpt>
      <trkpt lat="45.82461" lon="6.28923">
        <ele>2203.1</ele>
        <time>2022-01-06T09:22:13Z</time>
      </trkpt>
      <trkpt lat="45.82461" lon="6.28922">
        <ele>2204</ele>
        <time>2022-01-06T09:22:14Z</time>
      </trkpt>
      <trkpt lat="45.82461" lon="6.28921">
        <ele>2204</ele>
        <time>2022-01-06T09:22:15Z</time>
      </trkpt>
      <trkpt lat="45.8246" lon="6.2892">
        <ele>2205.1</ele>
        <time>2022-01-06T09:22:16Z</time>
      </trkpt>
      <trkpt lat="45.82458" lon="6.2892">
        <ele>2205.1</ele>
        <time>2022-01-06T09:22:17Z</time>
      </trkpt>
      <trkpt lat="45.82458" lon="6.28919">
        <ele>2205.1</ele>
        <time>2022-01-06T09:22:18Z</time>
      </trkpt>
      <trkpt lat="45.82458" lon="6.28918">
        <ele>2205.1</ele>
        <time>2022-01-06T09:22:19Z</time>
      </trkpt>
      <trkpt lat="45.82457" lon="6.28916">
        <ele>2206.2</ele>
        <time>2022-01-06T09:22:20Z</time>
      </trkpt>
      <trkpt lat="45.82457" lon="6.28916">
        <ele>2206.2</ele>
        <time>2022-01-06T09:22:21Z</time>
      </trkpt>
      <trkpt lat="45.82456" lon="6.28915">
        <ele>2206.2</ele>
        <time>2022-01-06T09:22:22Z</time>
      </trkpt>
      <trkpt lat="45.82456" lon="6.28916">
        <ele>2206.2</ele>
        <time>2022-01-06T09:22:23Z</time>
      </trkpt>
      <trkpt lat="45.82456" lon="6.28915">
        <ele>2206.2</ele>
        <time>2022-01-06T09:22:24Z</time>
      </trkpt>
      <trkpt lat="45.82456" lon="6.28915">
        <ele>2206.2</ele>
        <time>2022-01-06T09:22:25Z</time>
      </trkpt>
      <trkpt lat="45.82455" lon="6.28914">
        <ele>2207.1</ele>
        <time>2022-01-06T09:22:26Z</time>
      </trkpt>
      <trkpt lat="45.82455" lon="6.28913">
        <ele>2207.1</ele>
        <time>2022-01-06T09:22:27Z</time>
      </trkpt>
      <trkpt lat="45.82454" lon="6.28913">
        <ele>2207.1</ele>
        <time>2022-01-06T09:22:28Z</time>
      </trkpt>
      <trkpt lat="45.82454" lon="6.28912">
        <ele>2207.1</ele>
        <time>2022-01-06T09:22:29Z</time>
      </trkpt>
      <trkpt lat="45.82453" lon="6.28911">
        <ele>2208.2</ele>
        <time>2022-01-06T09:22:30Z</time>
      </trkpt>
      <trkpt lat="45.82453" lon="6.2891">
        <ele>2208.2</ele>
        <time>2022-01-06T09:22:31Z</time>
      </trkpt>
      <trkpt lat="45.82453" lon="6.2891">
        <ele>2208.2</ele>
        <time>2022-01-06T09:22:32Z</time>
      </trkpt>
      <trkpt lat="45.82453" lon="6.28909">
        <ele>2208.2</ele>
        <time>2022-01-06T09:22:33Z</time>
      </trkpt>
      <trkpt lat="45.82452" lon="6.28908">
        <ele>2209.1</ele>
        <time>2022-01-06T09:22:34Z</time>
      </trkpt>
      <trkpt lat="45.82452" lon="6.28907">
        <ele>2209.1</ele>
        <time>2022-01-06T09:22:35Z</time>
      </trkpt>
      <trkpt lat="45.82452" lon="6.28906">
        <ele>2209.1</ele>
        <time>2022-01-06T09:22:36Z</time>
      </trkpt>
      <trkpt lat="45.82451" lon="6.28905">
        <ele>2209.1</ele>
        <time>2022-01-06T09:22:37Z</time>
      </trkpt>
      <trkpt lat="45.82451" lon="6.28905">
        <ele>2210.1</ele>
        <time>2022-01-06T09:22:38Z</time>
      </trkpt>
      <trkpt lat="45.82451" lon="6.28904">
        <ele>2210.1</ele>
        <time>2022-01-06T09:22:39Z</time>
      </trkpt>
      <trkpt lat="45.82451" lon="6.28904">
        <ele>2210.1</ele>
        <time>2022-01-06T09:22:40Z</time>
      </trkpt>
      <trkpt lat="45.82451" lon="6.28904">
        <ele>2210.1</ele>
        <time>2022-01-06T09:22:41Z</time>
      </trkpt>
      <trkpt lat="45.8245" lon="6.28903">
        <ele>2211</ele>
        <time>2022-01-06T09:22:42Z</time>
      </trkpt>
      <trkpt lat="45.8245" lon="6.28902">
        <ele>2211</ele>
        <time>2022-01-06T09:22:43Z</time>
      </trkpt>
      <trkpt lat="45.8245" lon="6.28901">
        <ele>2211</ele>
        <time>2022-01-06T09:22:44Z</time>
      </trkpt>
      <trkpt lat="45.8245" lon="6.28899">
        <ele>2211</ele>
        <time>2022-01-06T09:22:45Z</time>
      </trkpt>
      <trkpt lat="45.8245" lon="6.28899">
        <ele>2212.1</ele>
        <time>2022-01-06T09:22:46Z</time>
      </trkpt>
      <trkpt lat="45.82449" lon="6.28898">
        <ele>2212.1</ele>
        <time>2022-01-06T09:22:47Z</time>
      </trkpt>
      <trkpt lat="45.82449" lon="6.28898">
        <ele>2212.1</ele>
        <time>2022-01-06T09:22:48Z</time>
      </trkpt>
      <trkpt lat="45.82449" lon="6.28897">
        <ele>2212.1</ele>
        <time>2022-01-06T09:22:49Z</time>
      </trkpt>
      <trkpt lat="45.8245" lon="6.28897">
        <ele>2213</ele>
        <time>2022-01-06T09:22:50Z</time>
      </trkpt>
      <trkpt lat="45.8245" lon="6.28897">
        <ele>2213</ele>
        <time>2022-01-06T09:22:51Z</time>
      </trkpt>
      <trkpt lat="45.8245" lon="6.28897">
        <ele>2213</ele>
        <time>2022-01-06T09:22:52Z</time>
      </trkpt>
      <trkpt lat="45.8245" lon="6.28897">
        <ele>2213</ele>
        <time>2022-01-06T09:22:53Z</time>
      </trkpt>
      <trkpt lat="45.8245" lon="6.28897">
        <ele>2213</ele>
        <time>2022-01-06T09:22:54Z</time>
      </trkpt>
      <trkpt lat="45.8245" lon="6.28898">
        <ele>2213</ele>
        <time>2022-01-06T09:22:55Z</time>
      </trkpt>
      <trkpt lat="45.82449" lon="6.28899">
        <ele>2213</ele>
        <time>2022-01-06T09:22:56Z</time>
      </trkpt>
      <trkpt lat="45.82449" lon="6.28901">
        <ele>2213</ele>
        <time>2022-01-06T09:22:57Z</time>
      </trkpt>
      <trkpt lat="45.82449" lon="6.28902">
        <ele>2213</ele>
        <time>2022-01-06T09:22:58Z</time>
      </trkpt>
      <trkpt lat="45.8245" lon="6.28903">
        <ele>2213</ele>
        <time>2022-01-06T09:22:59Z</time>
      </trkpt>
      <trkpt lat="45.82449" lon="6.28903">
        <ele>2213</ele>
        <time>2022-01-06T09:23:00Z</time>
      </trkpt>
      <trkpt lat="45.82449" lon="6.28904">
        <ele>2213</ele>
        <time>2022-01-06T09:23:01Z</time>
      </trkpt>
      <trkpt lat="45.82449" lon="6.28904">
        <ele>2213</ele>
        <time>2022-01-06T09:23:02Z</time>
      </trkpt>
      <trkpt lat="45.8245" lon="6.28905">
        <ele>2213</ele>
        <time>2022-01-06T09:23:03Z</time>
      </trkpt>
      <trkpt lat="45.82449" lon="6.28907">
        <ele>2213</ele>
        <time>2022-01-06T09:23:04Z</time>
      </trkpt>
      <trkpt lat="45.82448" lon="6.28908">
        <ele>2213</ele>
        <time>2022-01-06T09:23:05Z</time>
      </trkpt>
      <trkpt lat="45.82447" lon="6.28909">
        <ele>2213</ele>
        <time>2022-01-06T09:23:06Z</time>
      </trkpt>
      <trkpt lat="45.82447" lon="6.2891">
        <ele>2213</ele>
        <time>2022-01-06T09:23:07Z</time>
      </trkpt>
      <trkpt lat="45.82447" lon="6.2891">
        <ele>2214.1</ele>
        <time>2022-01-06T09:23:08Z</time>
      </trkpt>
      <trkpt lat="45.82447" lon="6.28911">
        <ele>2214.1</ele>
        <time>2022-01-06T09:23:09Z</time>
      </trkpt>
      <trkpt lat="45.82447" lon="6.28912">
        <ele>2214.1</ele>
        <time>2022-01-06T09:23:10Z</time>
      </trkpt>
      <trkpt lat="45.82447" lon="6.28913">
        <ele>2214.1</ele>
        <time>2022-01-06T09:23:11Z</time>
      </trkpt>
      <trkpt lat="45.82447" lon="6.28914">
        <ele>2214.1</ele>
        <time>2022-01-06T09:23:12Z</time>
      </trkpt>
      <trkpt lat="45.82446" lon="6.28915">
        <ele>2214.1</ele>
        <time>2022-01-06T09:23:13Z</time>
      </trkpt>
      <trkpt lat="45.82445" lon="6.28917">
        <ele>2215.2</ele>
        <time>2022-01-06T09:23:14Z</time>
      </trkpt>
      <trkpt lat="45.82444" lon="6.28918">
        <ele>2215.2</ele>
        <time>2022-01-06T09:23:15Z</time>
      </trkpt>
      <trkpt lat="45.82444" lon="6.2892">
        <ele>2215.2</ele>
        <time>2022-01-06T09:23:16Z</time>
      </trkpt>
      <trkpt lat="45.82444" lon="6.28921">
        <ele>2215.2</ele>
        <time>2022-01-06T09:23:17Z</time>
      </trkpt>
      <trkpt lat="45.82443" lon="6.28923">
        <ele>2215.2</ele>
        <time>2022-01-06T09:23:18Z</time>
      </trkpt>
      <trkpt lat="45.82443" lon="6.28923">
        <ele>2215.2</ele>
        <time>2022-01-06T09:23:19Z</time>
      </trkpt>
      <trkpt lat="45.82443" lon="6.28925">
        <ele>2215.2</ele>
        <time>2022-01-06T09:23:20Z</time>
      </trkpt>
      <trkpt lat="45.82442" lon="6.28926">
        <ele>2215.2</ele>
        <time>2022-01-06T09:23:21Z</time>
      </trkpt>
      <trkpt lat="45.82442" lon="6.28926">
        <ele>2215.2</ele>
        <time>2022-01-06T09:23:22Z</time>
      </trkpt>
      <trkpt lat="45.82442" lon="6.28927">
        <ele>2215.2</ele>
        <time>2022-01-06T09:23:23Z</time>
      </trkpt>
      <trkpt lat="45.82442" lon="6.28928">
        <ele>2216.1</ele>
        <time>2022-01-06T09:23:24Z</time>
      </trkpt>
      <trkpt lat="45.82441" lon="6.28929">
        <ele>2216.1</ele>
        <time>2022-01-06T09:23:25Z</time>
      </trkpt>
      <trkpt lat="45.82441" lon="6.2893">
        <ele>2216.1</ele>
        <time>2022-01-06T09:23:26Z</time>
      </trkpt>
      <trkpt lat="45.82441" lon="6.2893">
        <ele>2216.1</ele>
        <time>2022-01-06T09:23:27Z</time>
      </trkpt>
      <trkpt lat="45.8244" lon="6.28931">
        <ele>2216.1</ele>
        <time>2022-01-06T09:23:28Z</time>
      </trkpt>
      <trkpt lat="45.8244" lon="6.28933">
        <ele>2216.1</ele>
        <time>2022-01-06T09:23:29Z</time>
      </trkpt>
      <trkpt lat="45.8244" lon="6.28934">
        <ele>2217.1</ele>
        <time>2022-01-06T09:23:30Z</time>
      </trkpt>
      <trkpt lat="45.8244" lon="6.28936">
        <ele>2217.1</ele>
        <time>2022-01-06T09:23:31Z</time>
      </trkpt>
      <trkpt lat="45.8244" lon="6.28937">
        <ele>2217.1</ele>
        <time>2022-01-06T09:23:32Z</time>
      </trkpt>
      <trkpt lat="45.82439" lon="6.28939">
        <ele>2217.1</ele>
        <time>2022-01-06T09:23:33Z</time>
      </trkpt>
      <trkpt lat="45.82439" lon="6.2894">
        <ele>2218.1</ele>
        <time>2022-01-06T09:23:34Z</time>
      </trkpt>
      <trkpt lat="45.82438" lon="6.2894">
        <ele>2218.1</ele>
        <time>2022-01-06T09:23:35Z</time>
      </trkpt>
      <trkpt lat="45.82439" lon="6.28941">
        <ele>2218.1</ele>
        <time>2022-01-06T09:23:36Z</time>
      </trkpt>
      <trkpt lat="45.82438" lon="6.28942">
        <ele>2218.1</ele>
        <time>2022-01-06T09:23:37Z</time>
      </trkpt>
      <trkpt lat="45.82438" lon="6.28942">
        <ele>2219.1</ele>
        <time>2022-01-06T09:23:38Z</time>
      </trkpt>
      <trkpt lat="45.82437" lon="6.28942">
        <ele>2219.1</ele>
        <time>2022-01-06T09:23:39Z</time>
      </trkpt>
      <trkpt lat="45.82437" lon="6.28942">
        <ele>2220</ele>
        <time>2022-01-06T09:23:40Z</time>
      </trkpt>
      <trkpt lat="45.82437" lon="6.28942">
        <ele>2220</ele>
        <time>2022-01-06T09:23:41Z</time>
      </trkpt>
      <trkpt lat="45.82436" lon="6.28941">
        <ele>2221.1</ele>
        <time>2022-01-06T09:23:42Z</time>
      </trkpt>
      <trkpt lat="45.82436" lon="6.2894">
        <ele>2221.1</ele>
        <time>2022-01-06T09:23:43Z</time>
      </trkpt>
      <trkpt lat="45.82435" lon="6.2894">
        <ele>2221.1</ele>
        <time>2022-01-06T09:23:44Z</time>
      </trkpt>
      <trkpt lat="45.82434" lon="6.28939">
        <ele>2221.1</ele>
        <time>2022-01-06T09:23:45Z</time>
      </trkpt>
      <trkpt lat="45.82434" lon="6.28938">
        <ele>2222</ele>
        <time>2022-01-06T09:23:46Z</time>
      </trkpt>
      <trkpt lat="45.82433" lon="6.28936">
        <ele>2222</ele>
        <time>2022-01-06T09:23:47Z</time>
      </trkpt>
      <trkpt lat="45.82433" lon="6.28935">
        <ele>2222</ele>
        <time>2022-01-06T09:23:48Z</time>
      </trkpt>
      <trkpt lat="45.82433" lon="6.28934">
        <ele>2222</ele>
        <time>2022-01-06T09:23:49Z</time>
      </trkpt>
      <trkpt lat="45.82433" lon="6.28933">
        <ele>2223.1</ele>
        <time>2022-01-06T09:23:50Z</time>
      </trkpt>
      <trkpt lat="45.82433" lon="6.28933">
        <ele>2223.1</ele>
        <time>2022-01-06T09:23:51Z</time>
      </trkpt>
      <trkpt lat="45.82432" lon="6.28932">
        <ele>2223.1</ele>
        <time>2022-01-06T09:23:52Z</time>
      </trkpt>
      <trkpt lat="45.8243" lon="6.28931">
        <ele>2223.1</ele>
        <time>2022-01-06T09:23:53Z</time>
      </trkpt>
      <trkpt lat="45.8243" lon="6.2893">
        <ele>2223.1</ele>
        <time>2022-01-06T09:23:54Z</time>
      </trkpt>
      <trkpt lat="45.8243" lon="6.2893">
        <ele>2223.1</ele>
        <time>2022-01-06T09:23:55Z</time>
      </trkpt>
      <trkpt lat="45.82432" lon="6.28929">
        <ele>2224.2</ele>
        <time>2022-01-06T09:23:56Z</time>
      </trkpt>
      <trkpt lat="45.82432" lon="6.28928">
        <ele>2224.2</ele>
        <time>2022-01-06T09:23:57Z</time>
      </trkpt>
      <trkpt lat="45.82432" lon="6.28927">
        <ele>2224.2</ele>
        <time>2022-01-06T09:23:58Z</time>
      </trkpt>
      <trkpt lat="45.82432" lon="6.28926">
        <ele>2224.2</ele>
        <time>2022-01-06T09:23:59Z</time>
      </trkpt>
      <trkpt lat="45.82431" lon="6.28925">
        <ele>2224.2</ele>
        <time>2022-01-06T09:24:00Z</time>
      </trkpt>
      <trkpt lat="45.82432" lon="6.28924">
        <ele>2224.2</ele>
        <time>2022-01-06T09:24:01Z</time>
      </trkpt>
      <trkpt lat="45.82431" lon="6.28923">
        <ele>2224.2</ele>
        <time>2022-01-06T09:24:02Z</time>
      </trkpt>
      <trkpt lat="45.82431" lon="6.28922">
        <ele>2224.2</ele>
        <time>2022-01-06T09:24:03Z</time>
      </trkpt>
      <trkpt lat="45.82431" lon="6.28922">
        <ele>2226.1</ele>
        <time>2022-01-06T09:24:04Z</time>
      </trkpt>
      <trkpt lat="45.82431" lon="6.28921">
        <ele>2226.1</ele>
        <time>2022-01-06T09:24:05Z</time>
      </trkpt>
      <trkpt lat="45.82431" lon="6.28919">
        <ele>2227</ele>
        <time>2022-01-06T09:24:06Z</time>
      </trkpt>
      <trkpt lat="45.82431" lon="6.28918">
        <ele>2227</ele>
        <time>2022-01-06T09:24:07Z</time>
      </trkpt>
      <trkpt lat="45.8243" lon="6.28918">
        <ele>2227</ele>
        <time>2022-01-06T09:24:08Z</time>
      </trkpt>
      <trkpt lat="45.82429" lon="6.28917">
        <ele>2227</ele>
        <time>2022-01-06T09:24:09Z</time>
      </trkpt>
      <trkpt lat="45.82429" lon="6.28916">
        <ele>2228.1</ele>
        <time>2022-01-06T09:24:10Z</time>
      </trkpt>
      <trkpt lat="45.82428" lon="6.28915">
        <ele>2228.1</ele>
        <time>2022-01-06T09:24:11Z</time>
      </trkpt>
      <trkpt lat="45.82428" lon="6.28914">
        <ele>2228.1</ele>
        <time>2022-01-06T09:24:12Z</time>
      </trkpt>
      <trkpt lat="45.82428" lon="6.28913">
        <ele>2228.1</ele>
        <time>2022-01-06T09:24:13Z</time>
      </trkpt>
      <trkpt lat="45.82427" lon="6.28913">
        <ele>2229</ele>
        <time>2022-01-06T09:24:14Z</time>
      </trkpt>
      <trkpt lat="45.82427" lon="6.28912">
        <ele>2229</ele>
        <time>2022-01-06T09:24:15Z</time>
      </trkpt>
      <trkpt lat="45.82426" lon="6.2891">
        <ele>2229</ele>
        <time>2022-01-06T09:24:16Z</time>
      </trkpt>
      <trkpt lat="45.82426" lon="6.28909">
        <ele>2229</ele>
        <time>2022-01-06T09:24:17Z</time>
      </trkpt>
      <trkpt lat="45.82424" lon="6.28907">
        <ele>2230.1</ele>
        <time>2022-01-06T09:24:18Z</time>
      </trkpt>
      <trkpt lat="45.82424" lon="6.28907">
        <ele>2230.1</ele>
        <time>2022-01-06T09:24:19Z</time>
      </trkpt>
      <trkpt lat="45.82423" lon="6.28907">
        <ele>2231.2</ele>
        <time>2022-01-06T09:24:20Z</time>
      </trkpt>
      <trkpt lat="45.82423" lon="6.28906">
        <ele>2231.2</ele>
        <time>2022-01-06T09:24:21Z</time>
      </trkpt>
      <trkpt lat="45.82423" lon="6.28905">
        <ele>2231.2</ele>
        <time>2022-01-06T09:24:22Z</time>
      </trkpt>
      <trkpt lat="45.82423" lon="6.28905">
        <ele>2231.2</ele>
        <time>2022-01-06T09:24:23Z</time>
      </trkpt>
      <trkpt lat="45.82424" lon="6.28903">
        <ele>2232.1</ele>
        <time>2022-01-06T09:24:24Z</time>
      </trkpt>
      <trkpt lat="45.82424" lon="6.28903">
        <ele>2232.1</ele>
        <time>2022-01-06T09:24:25Z</time>
      </trkpt>
      <trkpt lat="45.82424" lon="6.28902">
        <ele>2232.1</ele>
        <time>2022-01-06T09:24:26Z</time>
      </trkpt>
      <trkpt lat="45.82424" lon="6.28902">
        <ele>2232.1</ele>
        <time>2022-01-06T09:24:27Z</time>
      </trkpt>
      <trkpt lat="45.82424" lon="6.28901">
        <ele>2233.1</ele>
        <time>2022-01-06T09:24:28Z</time>
      </trkpt>
      <trkpt lat="45.82423" lon="6.28901">
        <ele>2233.1</ele>
        <time>2022-01-06T09:24:29Z</time>
      </trkpt>
      <trkpt lat="45.82424" lon="6.289">
        <ele>2233.1</ele>
        <time>2022-01-06T09:24:30Z</time>
      </trkpt>
      <trkpt lat="45.82424" lon="6.28899">
        <ele>2233.1</ele>
        <time>2022-01-06T09:24:31Z</time>
      </trkpt>
      <trkpt lat="45.82424" lon="6.28899">
        <ele>2233.1</ele>
        <time>2022-01-06T09:24:32Z</time>
      </trkpt>
      <trkpt lat="45.82424" lon="6.28898">
        <ele>2233.1</ele>
        <time>2022-01-06T09:24:33Z</time>
      </trkpt>
      <trkpt lat="45.82424" lon="6.28897">
        <ele>2234.1</ele>
        <time>2022-01-06T09:24:34Z</time>
      </trkpt>
      <trkpt lat="45.82424" lon="6.28896">
        <ele>2234.1</ele>
        <time>2022-01-06T09:24:35Z</time>
      </trkpt>
      <trkpt lat="45.82424" lon="6.28896">
        <ele>2234.1</ele>
        <time>2022-01-06T09:24:36Z</time>
      </trkpt>
      <trkpt lat="45.82424" lon="6.28896">
        <ele>2234.1</ele>
        <time>2022-01-06T09:24:37Z</time>
      </trkpt>
      <trkpt lat="45.82424" lon="6.28897">
        <ele>2234.1</ele>
        <time>2022-01-06T09:24:38Z</time>
      </trkpt>
      <trkpt lat="45.82424" lon="6.28897">
        <ele>2234.1</ele>
        <time>2022-01-06T09:24:39Z</time>
      </trkpt>
      <trkpt lat="45.82424" lon="6.28897">
        <ele>2234.1</ele>
        <time>2022-01-06T09:24:40Z</time>
      </trkpt>
      <trkpt lat="45.82424" lon="6.28898">
        <ele>2234.1</ele>
        <time>2022-01-06T09:24:41Z</time>
      </trkpt>
      <trkpt lat="45.82424" lon="6.28899">
        <ele>2233.1</ele>
        <time>2022-01-06T09:24:42Z</time>
      </trkpt>
      <trkpt lat="45.82424" lon="6.28899">
        <ele>2233.1</ele>
        <time>2022-01-06T09:24:43Z</time>
      </trkpt>
      <trkpt lat="45.82423" lon="6.289">
        <ele>2233.1</ele>
        <time>2022-01-06T09:24:44Z</time>
      </trkpt>
      <trkpt lat="45.82423" lon="6.28901">
        <ele>2233.1</ele>
        <time>2022-01-06T09:24:45Z</time>
      </trkpt>
      <trkpt lat="45.82422" lon="6.28902">
        <ele>2233.1</ele>
        <time>2022-01-06T09:24:46Z</time>
      </trkpt>
      <trkpt lat="45.82422" lon="6.28902">
        <ele>2233.1</ele>
        <time>2022-01-06T09:24:47Z</time>
      </trkpt>
      <trkpt lat="45.82421" lon="6.28903">
        <ele>2233.1</ele>
        <time>2022-01-06T09:24:48Z</time>
      </trkpt>
      <trkpt lat="45.82421" lon="6.28904">
        <ele>2233.1</ele>
        <time>2022-01-06T09:24:49Z</time>
      </trkpt>
      <trkpt lat="45.82421" lon="6.28904">
        <ele>2234.1</ele>
        <time>2022-01-06T09:24:50Z</time>
      </trkpt>
      <trkpt lat="45.8242" lon="6.28905">
        <ele>2234.1</ele>
        <time>2022-01-06T09:24:51Z</time>
      </trkpt>
      <trkpt lat="45.8242" lon="6.28906">
        <ele>2234.1</ele>
        <time>2022-01-06T09:24:52Z</time>
      </trkpt>
      <trkpt lat="45.8242" lon="6.28907">
        <ele>2234.1</ele>
        <time>2022-01-06T09:24:53Z</time>
      </trkpt>
      <trkpt lat="45.8242" lon="6.28907">
        <ele>2234.1</ele>
        <time>2022-01-06T09:24:54Z</time>
      </trkpt>
      <trkpt lat="45.8242" lon="6.28908">
        <ele>2234.1</ele>
        <time>2022-01-06T09:24:55Z</time>
      </trkpt>
      <trkpt lat="45.8242" lon="6.28908">
        <ele>2235.1</ele>
        <time>2022-01-06T09:24:56Z</time>
      </trkpt>
      <trkpt lat="45.8242" lon="6.28908">
        <ele>2235.1</ele>
        <time>2022-01-06T09:24:57Z</time>
      </trkpt>
      <trkpt lat="45.82419" lon="6.28909">
        <ele>2235.1</ele>
        <time>2022-01-06T09:24:58Z</time>
      </trkpt>
      <trkpt lat="45.82419" lon="6.2891">
        <ele>2235.1</ele>
        <time>2022-01-06T09:24:59Z</time>
      </trkpt>
      <trkpt lat="45.82418" lon="6.28911">
        <ele>2236</ele>
        <time>2022-01-06T09:25:00Z</time>
      </trkpt>
      <trkpt lat="45.82418" lon="6.28911">
        <ele>2236</ele>
        <time>2022-01-06T09:25:01Z</time>
      </trkpt>
      <trkpt lat="45.82418" lon="6.28912">
        <ele>2236</ele>
        <time>2022-01-06T09:25:02Z</time>
      </trkpt>
      <trkpt lat="45.82418" lon="6.28913">
        <ele>2236</ele>
        <time>2022-01-06T09:25:03Z</time>
      </trkpt>
      <trkpt lat="45.82418" lon="6.28915">
        <ele>2237.1</ele>
        <time>2022-01-06T09:25:04Z</time>
      </trkpt>
      <trkpt lat="45.82417" lon="6.28915">
        <ele>2237.1</ele>
        <time>2022-01-06T09:25:05Z</time>
      </trkpt>
      <trkpt lat="45.82418" lon="6.28916">
        <ele>2238</ele>
        <time>2022-01-06T09:25:06Z</time>
      </trkpt>
      <trkpt lat="45.82418" lon="6.28916">
        <ele>2238</ele>
        <time>2022-01-06T09:25:07Z</time>
      </trkpt>
      <trkpt lat="45.82418" lon="6.28917">
        <ele>2238</ele>
        <time>2022-01-06T09:25:08Z</time>
      </trkpt>
      <trkpt lat="45.82418" lon="6.28917">
        <ele>2238</ele>
        <time>2022-01-06T09:25:09Z</time>
      </trkpt>
      <trkpt lat="45.82417" lon="6.28917">
        <ele>2239.1</ele>
        <time>2022-01-06T09:25:10Z</time>
      </trkpt>
      <trkpt lat="45.82417" lon="6.28917">
        <ele>2239.1</ele>
        <time>2022-01-06T09:25:11Z</time>
      </trkpt>
      <trkpt lat="45.82417" lon="6.28917">
        <ele>2240.2</ele>
        <time>2022-01-06T09:25:12Z</time>
      </trkpt>
      <trkpt lat="45.82417" lon="6.28916">
        <ele>2240.2</ele>
        <time>2022-01-06T09:25:13Z</time>
      </trkpt>
      <trkpt lat="45.82418" lon="6.28915">
        <ele>2240.2</ele>
        <time>2022-01-06T09:25:14Z</time>
      </trkpt>
      <trkpt lat="45.82418" lon="6.28914">
        <ele>2240.2</ele>
        <time>2022-01-06T09:25:15Z</time>
      </trkpt>
      <trkpt lat="45.82418" lon="6.28914">
        <ele>2240.2</ele>
        <time>2022-01-06T09:25:16Z</time>
      </trkpt>
      <trkpt lat="45.82418" lon="6.28914">
        <ele>2240.2</ele>
        <time>2022-01-06T09:25:17Z</time>
      </trkpt>
      <trkpt lat="45.82418" lon="6.28913">
        <ele>2240.2</ele>
        <time>2022-01-06T09:25:18Z</time>
      </trkpt>
      <trkpt lat="45.82418" lon="6.28911">
        <ele>2240.2</ele>
        <time>2022-01-06T09:25:19Z</time>
      </trkpt>
      <trkpt lat="45.82418" lon="6.2891">
        <ele>2240.2</ele>
        <time>2022-01-06T09:25:20Z</time>
      </trkpt>
      <trkpt lat="45.82418" lon="6.28909">
        <ele>2240.2</ele>
        <time>2022-01-06T09:25:21Z</time>
      </trkpt>
      <trkpt lat="45.82418" lon="6.28908">
        <ele>2242.1</ele>
        <time>2022-01-06T09:25:22Z</time>
      </trkpt>
      <trkpt lat="45.82417" lon="6.28906">
        <ele>2242.1</ele>
        <time>2022-01-06T09:25:23Z</time>
      </trkpt>
      <trkpt lat="45.82417" lon="6.28906">
        <ele>2242.1</ele>
        <time>2022-01-06T09:25:24Z</time>
      </trkpt>
      <trkpt lat="45.82416" lon="6.28905">
        <ele>2242.1</ele>
        <time>2022-01-06T09:25:25Z</time>
      </trkpt>
      <trkpt lat="45.82415" lon="6.28905">
        <ele>2242.1</ele>
        <time>2022-01-06T09:25:26Z</time>
      </trkpt>
      <trkpt lat="45.82415" lon="6.28904">
        <ele>2242.1</ele>
        <time>2022-01-06T09:25:27Z</time>
      </trkpt>
      <trkpt lat="45.82415" lon="6.28904">
        <ele>2242.1</ele>
        <time>2022-01-06T09:25:28Z</time>
      </trkpt>
      <trkpt lat="45.82416" lon="6.28902">
        <ele>2242.1</ele>
        <time>2022-01-06T09:25:29Z</time>
      </trkpt>
      <trkpt lat="45.82416" lon="6.28902">
        <ele>2242.1</ele>
        <time>2022-01-06T09:25:30Z</time>
      </trkpt>
      <trkpt lat="45.82415" lon="6.28901">
        <ele>2242.1</ele>
        <time>2022-01-06T09:25:31Z</time>
      </trkpt>
      <trkpt lat="45.82415" lon="6.28899">
        <ele>2242.1</ele>
        <time>2022-01-06T09:25:32Z</time>
      </trkpt>
      <trkpt lat="45.82415" lon="6.28898">
        <ele>2242.1</ele>
        <time>2022-01-06T09:25:33Z</time>
      </trkpt>
      <trkpt lat="45.82414" lon="6.28897">
        <ele>2242.1</ele>
        <time>2022-01-06T09:25:34Z</time>
      </trkpt>
      <trkpt lat="45.82414" lon="6.28896">
        <ele>2242.1</ele>
        <time>2022-01-06T09:25:35Z</time>
      </trkpt>
      <trkpt lat="45.82414" lon="6.28895">
        <ele>2244.1</ele>
        <time>2022-01-06T09:25:36Z</time>
      </trkpt>
      <trkpt lat="45.82413" lon="6.28894">
        <ele>2244.1</ele>
        <time>2022-01-06T09:25:37Z</time>
      </trkpt>
      <trkpt lat="45.82413" lon="6.28894">
        <ele>2244.1</ele>
        <time>2022-01-06T09:25:38Z</time>
      </trkpt>
      <trkpt lat="45.82413" lon="6.28894">
        <ele>2244.1</ele>
        <time>2022-01-06T09:25:39Z</time>
      </trkpt>
      <trkpt lat="45.82414" lon="6.28893">
        <ele>2244.1</ele>
        <time>2022-01-06T09:25:40Z</time>
      </trkpt>
      <trkpt lat="45.82413" lon="6.28894">
        <ele>2244.1</ele>
        <time>2022-01-06T09:25:41Z</time>
      </trkpt>
      <trkpt lat="45.82414" lon="6.28894">
        <ele>2244.1</ele>
        <time>2022-01-06T09:25:42Z</time>
      </trkpt>
      <trkpt lat="45.82414" lon="6.28894">
        <ele>2244.1</ele>
        <time>2022-01-06T09:25:43Z</time>
      </trkpt>
      <trkpt lat="45.82414" lon="6.28895">
        <ele>2244.1</ele>
        <time>2022-01-06T09:25:44Z</time>
      </trkpt>
      <trkpt lat="45.82414" lon="6.28895">
        <ele>2244.1</ele>
        <time>2022-01-06T09:25:45Z</time>
      </trkpt>
      <trkpt lat="45.82414" lon="6.28896">
        <ele>2244.1</ele>
        <time>2022-01-06T09:25:46Z</time>
      </trkpt>
      <trkpt lat="45.82414" lon="6.28897">
        <ele>2244.1</ele>
        <time>2022-01-06T09:25:47Z</time>
      </trkpt>
      <trkpt lat="45.82413" lon="6.28898">
        <ele>2244.1</ele>
        <time>2022-01-06T09:25:48Z</time>
      </trkpt>
      <trkpt lat="45.82413" lon="6.28899">
        <ele>2244.1</ele>
        <time>2022-01-06T09:25:49Z</time>
      </trkpt>
      <trkpt lat="45.82413" lon="6.289">
        <ele>2244.1</ele>
        <time>2022-01-06T09:25:50Z</time>
      </trkpt>
      <trkpt lat="45.82412" lon="6.289">
        <ele>2244.1</ele>
        <time>2022-01-06T09:25:51Z</time>
      </trkpt>
      <trkpt lat="45.82412" lon="6.28901">
        <ele>2245</ele>
        <time>2022-01-06T09:25:52Z</time>
      </trkpt>
      <trkpt lat="45.82411" lon="6.28902">
        <ele>2245</ele>
        <time>2022-01-06T09:25:53Z</time>
      </trkpt>
      <trkpt lat="45.82411" lon="6.28902">
        <ele>2245</ele>
        <time>2022-01-06T09:25:54Z</time>
      </trkpt>
      <trkpt lat="45.8241" lon="6.28903">
        <ele>2245</ele>
        <time>2022-01-06T09:25:55Z</time>
      </trkpt>
      <trkpt lat="45.8241" lon="6.28905">
        <ele>2246.1</ele>
        <time>2022-01-06T09:25:56Z</time>
      </trkpt>
      <trkpt lat="45.8241" lon="6.28906">
        <ele>2246.1</ele>
        <time>2022-01-06T09:25:57Z</time>
      </trkpt>
      <trkpt lat="45.8241" lon="6.28907">
        <ele>2246.1</ele>
        <time>2022-01-06T09:25:58Z</time>
      </trkpt>
      <trkpt lat="45.8241" lon="6.28908">
        <ele>2246.1</ele>
        <time>2022-01-06T09:25:59Z</time>
      </trkpt>
      <trkpt lat="45.82409" lon="6.28909">
        <ele>2247.2</ele>
        <time>2022-01-06T09:26:00Z</time>
      </trkpt>
      <trkpt lat="45.82409" lon="6.2891">
        <ele>2247.2</ele>
        <time>2022-01-06T09:26:01Z</time>
      </trkpt>
      <trkpt lat="45.82408" lon="6.28911">
        <ele>2247.2</ele>
        <time>2022-01-06T09:26:02Z</time>
      </trkpt>
      <trkpt lat="45.82408" lon="6.28912">
        <ele>2247.2</ele>
        <time>2022-01-06T09:26:03Z</time>
      </trkpt>
      <trkpt lat="45.82408" lon="6.28912">
        <ele>2248.1</ele>
        <time>2022-01-06T09:26:04Z</time>
      </trkpt>
      <trkpt lat="45.82407" lon="6.28913">
        <ele>2248.1</ele>
        <time>2022-01-06T09:26:05Z</time>
      </trkpt>
      <trkpt lat="45.82407" lon="6.28914">
        <ele>2248.1</ele>
        <time>2022-01-06T09:26:06Z</time>
      </trkpt>
      <trkpt lat="45.82406" lon="6.28914">
        <ele>2248.1</ele>
        <time>2022-01-06T09:26:07Z</time>
      </trkpt>
      <trkpt lat="45.82405" lon="6.28914">
        <ele>2249.1</ele>
        <time>2022-01-06T09:26:08Z</time>
      </trkpt>
      <trkpt lat="45.82405" lon="6.28914">
        <ele>2249.1</ele>
        <time>2022-01-06T09:26:09Z</time>
      </trkpt>
      <trkpt lat="45.82404" lon="6.28914">
        <ele>2249.1</ele>
        <time>2022-01-06T09:26:10Z</time>
      </trkpt>
      <trkpt lat="45.82404" lon="6.28913">
        <ele>2249.1</ele>
        <time>2022-01-06T09:26:11Z</time>
      </trkpt>
      <trkpt lat="45.82404" lon="6.28913">
        <ele>2251.1</ele>
        <time>2022-01-06T09:26:12Z</time>
      </trkpt>
      <trkpt lat="45.82404" lon="6.28912">
        <ele>2251.1</ele>
        <time>2022-01-06T09:26:13Z</time>
      </trkpt>
      <trkpt lat="45.82403" lon="6.28911">
        <ele>2251.1</ele>
        <time>2022-01-06T09:26:14Z</time>
      </trkpt>
      <trkpt lat="45.82403" lon="6.2891">
        <ele>2251.1</ele>
        <time>2022-01-06T09:26:15Z</time>
      </trkpt>
      <trkpt lat="45.82402" lon="6.28909">
        <ele>2251.1</ele>
        <time>2022-01-06T09:26:16Z</time>
      </trkpt>
      <trkpt lat="45.82402" lon="6.28907">
        <ele>2251.1</ele>
        <time>2022-01-06T09:26:17Z</time>
      </trkpt>
      <trkpt lat="45.82402" lon="6.28906">
        <ele>2251.1</ele>
        <time>2022-01-06T09:26:18Z</time>
      </trkpt>
      <trkpt lat="45.82402" lon="6.28905">
        <ele>2251.1</ele>
        <time>2022-01-06T09:26:19Z</time>
      </trkpt>
      <trkpt lat="45.82402" lon="6.28904">
        <ele>2252</ele>
        <time>2022-01-06T09:26:20Z</time>
      </trkpt>
      <trkpt lat="45.82402" lon="6.28902">
        <ele>2252</ele>
        <time>2022-01-06T09:26:21Z</time>
      </trkpt>
      <trkpt lat="45.82402" lon="6.28902">
        <ele>2252</ele>
        <time>2022-01-06T09:26:22Z</time>
      </trkpt>
      <trkpt lat="45.82402" lon="6.289">
        <ele>2252</ele>
        <time>2022-01-06T09:26:23Z</time>
      </trkpt>
      <trkpt lat="45.82402" lon="6.289">
        <ele>2253.1</ele>
        <time>2022-01-06T09:26:24Z</time>
      </trkpt>
      <trkpt lat="45.82402" lon="6.28899">
        <ele>2253.1</ele>
        <time>2022-01-06T09:26:25Z</time>
      </trkpt>
      <trkpt lat="45.82402" lon="6.28899">
        <ele>2253.1</ele>
        <time>2022-01-06T09:26:26Z</time>
      </trkpt>
      <trkpt lat="45.82402" lon="6.28897">
        <ele>2253.1</ele>
        <time>2022-01-06T09:26:27Z</time>
      </trkpt>
      <trkpt lat="45.82402" lon="6.28896">
        <ele>2253.1</ele>
        <time>2022-01-06T09:26:28Z</time>
      </trkpt>
      <trkpt lat="45.82402" lon="6.28896">
        <ele>2253.1</ele>
        <time>2022-01-06T09:26:29Z</time>
      </trkpt>
      <trkpt lat="45.82402" lon="6.28894">
        <ele>2254</ele>
        <time>2022-01-06T09:26:30Z</time>
      </trkpt>
      <trkpt lat="45.82402" lon="6.28894">
        <ele>2254</ele>
        <time>2022-01-06T09:26:31Z</time>
      </trkpt>
      <trkpt lat="45.82402" lon="6.28893">
        <ele>2254</ele>
        <time>2022-01-06T09:26:32Z</time>
      </trkpt>
      <trkpt lat="45.82402" lon="6.28891">
        <ele>2254</ele>
        <time>2022-01-06T09:26:33Z</time>
      </trkpt>
      <trkpt lat="45.82402" lon="6.2889">
        <ele>2254</ele>
        <time>2022-01-06T09:26:34Z</time>
      </trkpt>
      <trkpt lat="45.82401" lon="6.2889">
        <ele>2254</ele>
        <time>2022-01-06T09:26:35Z</time>
      </trkpt>
      <trkpt lat="45.82401" lon="6.28889">
        <ele>2255.1</ele>
        <time>2022-01-06T09:26:36Z</time>
      </trkpt>
      <trkpt lat="45.824" lon="6.28888">
        <ele>2255.1</ele>
        <time>2022-01-06T09:26:37Z</time>
      </trkpt>
      <trkpt lat="45.824" lon="6.28887">
        <ele>2255.1</ele>
        <time>2022-01-06T09:26:38Z</time>
      </trkpt>
      <trkpt lat="45.82399" lon="6.28887">
        <ele>2255.1</ele>
        <time>2022-01-06T09:26:39Z</time>
      </trkpt>
      <trkpt lat="45.82399" lon="6.28886">
        <ele>2256.2</ele>
        <time>2022-01-06T09:26:40Z</time>
      </trkpt>
      <trkpt lat="45.82399" lon="6.28885">
        <ele>2256.2</ele>
        <time>2022-01-06T09:26:41Z</time>
      </trkpt>
      <trkpt lat="45.82398" lon="6.28884">
        <ele>2256.2</ele>
        <time>2022-01-06T09:26:42Z</time>
      </trkpt>
      <trkpt lat="45.82398" lon="6.28883">
        <ele>2256.2</ele>
        <time>2022-01-06T09:26:43Z</time>
      </trkpt>
      <trkpt lat="45.82398" lon="6.28882">
        <ele>2257.1</ele>
        <time>2022-01-06T09:26:44Z</time>
      </trkpt>
      <trkpt lat="45.82397" lon="6.28882">
        <ele>2257.1</ele>
        <time>2022-01-06T09:26:45Z</time>
      </trkpt>
      <trkpt lat="45.82398" lon="6.2888">
        <ele>2257.1</ele>
        <time>2022-01-06T09:26:46Z</time>
      </trkpt>
      <trkpt lat="45.82398" lon="6.28879">
        <ele>2257.1</ele>
        <time>2022-01-06T09:26:47Z</time>
      </trkpt>
      <trkpt lat="45.82399" lon="6.28878">
        <ele>2258.1</ele>
        <time>2022-01-06T09:26:48Z</time>
      </trkpt>
      <trkpt lat="45.82399" lon="6.28877">
        <ele>2258.1</ele>
        <time>2022-01-06T09:26:49Z</time>
      </trkpt>
      <trkpt lat="45.82398" lon="6.28877">
        <ele>2258.1</ele>
        <time>2022-01-06T09:26:50Z</time>
      </trkpt>
      <trkpt lat="45.82398" lon="6.28876">
        <ele>2258.1</ele>
        <time>2022-01-06T09:26:51Z</time>
      </trkpt>
      <trkpt lat="45.82398" lon="6.28875">
        <ele>2258.1</ele>
        <time>2022-01-06T09:26:52Z</time>
      </trkpt>
      <trkpt lat="45.82398" lon="6.28875">
        <ele>2258.1</ele>
        <time>2022-01-06T09:26:53Z</time>
      </trkpt>
      <trkpt lat="45.82397" lon="6.28874">
        <ele>2259.1</ele>
        <time>2022-01-06T09:26:54Z</time>
      </trkpt>
      <trkpt lat="45.82397" lon="6.28873">
        <ele>2259.1</ele>
        <time>2022-01-06T09:26:55Z</time>
      </trkpt>
      <trkpt lat="45.82397" lon="6.28873">
        <ele>2259.1</ele>
        <time>2022-01-06T09:26:56Z</time>
      </trkpt>
      <trkpt lat="45.82396" lon="6.28872">
        <ele>2259.1</ele>
        <time>2022-01-06T09:26:57Z</time>
      </trkpt>
      <trkpt lat="45.82396" lon="6.2887">
        <ele>2260.1</ele>
        <time>2022-01-06T09:26:58Z</time>
      </trkpt>
      <trkpt lat="45.82396" lon="6.2887">
        <ele>2260.1</ele>
        <time>2022-01-06T09:26:59Z</time>
      </trkpt>
      <trkpt lat="45.82395" lon="6.28869">
        <ele>2260.1</ele>
        <time>2022-01-06T09:27:00Z</time>
      </trkpt>
      <trkpt lat="45.82395" lon="6.28868">
        <ele>2260.1</ele>
        <time>2022-01-06T09:27:01Z</time>
      </trkpt>
      <trkpt lat="45.82395" lon="6.28867">
        <ele>2260.1</ele>
        <time>2022-01-06T09:27:02Z</time>
      </trkpt>
      <trkpt lat="45.82395" lon="6.28867">
        <ele>2260.1</ele>
        <time>2022-01-06T09:27:03Z</time>
      </trkpt>
      <trkpt lat="45.82394" lon="6.28866">
        <ele>2260.1</ele>
        <time>2022-01-06T09:27:04Z</time>
      </trkpt>
      <trkpt lat="45.82394" lon="6.28866">
        <ele>2260.1</ele>
        <time>2022-01-06T09:27:05Z</time>
      </trkpt>
      <trkpt lat="45.82395" lon="6.28864">
        <ele>2261</ele>
        <time>2022-01-06T09:27:06Z</time>
      </trkpt>
      <trkpt lat="45.82395" lon="6.28863">
        <ele>2261</ele>
        <time>2022-01-06T09:27:07Z</time>
      </trkpt>
      <trkpt lat="45.82396" lon="6.28862">
        <ele>2261</ele>
        <time>2022-01-06T09:27:08Z</time>
      </trkpt>
      <trkpt lat="45.82396" lon="6.2886">
        <ele>2261</ele>
        <time>2022-01-06T09:27:09Z</time>
      </trkpt>
      <trkpt lat="45.82395" lon="6.2886">
        <ele>2262.1</ele>
        <time>2022-01-06T09:27:10Z</time>
      </trkpt>
      <trkpt lat="45.82395" lon="6.28859">
        <ele>2262.1</ele>
        <time>2022-01-06T09:27:11Z</time>
      </trkpt>
      <trkpt lat="45.82394" lon="6.28858">
        <ele>2262.1</ele>
        <time>2022-01-06T09:27:12Z</time>
      </trkpt>
      <trkpt lat="45.82394" lon="6.28857">
        <ele>2262.1</ele>
        <time>2022-01-06T09:27:13Z</time>
      </trkpt>
      <trkpt lat="45.82394" lon="6.28856">
        <ele>2263.2</ele>
        <time>2022-01-06T09:27:14Z</time>
      </trkpt>
      <trkpt lat="45.82394" lon="6.28855">
        <ele>2263.2</ele>
        <time>2022-01-06T09:27:15Z</time>
      </trkpt>
      <trkpt lat="45.82394" lon="6.28854">
        <ele>2263.2</ele>
        <time>2022-01-06T09:27:16Z</time>
      </trkpt>
      <trkpt lat="45.82393" lon="6.28852">
        <ele>2263.2</ele>
        <time>2022-01-06T09:27:17Z</time>
      </trkpt>
      <trkpt lat="45.82393" lon="6.2885">
        <ele>2264.1</ele>
        <time>2022-01-06T09:27:18Z</time>
      </trkpt>
      <trkpt lat="45.82393" lon="6.2885">
        <ele>2264.1</ele>
        <time>2022-01-06T09:27:19Z</time>
      </trkpt>
      <trkpt lat="45.82394" lon="6.28849">
        <ele>2264.1</ele>
        <time>2022-01-06T09:27:20Z</time>
      </trkpt>
      <trkpt lat="45.82394" lon="6.28849">
        <ele>2264.1</ele>
        <time>2022-01-06T09:27:21Z</time>
      </trkpt>
      <trkpt lat="45.82394" lon="6.28848">
        <ele>2265.1</ele>
        <time>2022-01-06T09:27:22Z</time>
      </trkpt>
      <trkpt lat="45.82395" lon="6.28848">
        <ele>2265.1</ele>
        <time>2022-01-06T09:27:23Z</time>
      </trkpt>
      <trkpt lat="45.82395" lon="6.28847">
        <ele>2265.1</ele>
        <time>2022-01-06T09:27:24Z</time>
      </trkpt>
      <trkpt lat="45.82395" lon="6.28847">
        <ele>2265.1</ele>
        <time>2022-01-06T09:27:25Z</time>
      </trkpt>
      <trkpt lat="45.82396" lon="6.28846">
        <ele>2266.1</ele>
        <time>2022-01-06T09:27:26Z</time>
      </trkpt>
      <trkpt lat="45.82396" lon="6.28845">
        <ele>2266.1</ele>
        <time>2022-01-06T09:27:27Z</time>
      </trkpt>
      <trkpt lat="45.82396" lon="6.28845">
        <ele>2266.1</ele>
        <time>2022-01-06T09:27:28Z</time>
      </trkpt>
      <trkpt lat="45.82397" lon="6.28844">
        <ele>2266.1</ele>
        <time>2022-01-06T09:27:29Z</time>
      </trkpt>
      <trkpt lat="45.82397" lon="6.28844">
        <ele>2267.1</ele>
        <time>2022-01-06T09:27:30Z</time>
      </trkpt>
      <trkpt lat="45.82397" lon="6.28843">
        <ele>2267.1</ele>
        <time>2022-01-06T09:27:31Z</time>
      </trkpt>
      <trkpt lat="45.82397" lon="6.28842">
        <ele>2267.1</ele>
        <time>2022-01-06T09:27:32Z</time>
      </trkpt>
      <trkpt lat="45.82396" lon="6.28841">
        <ele>2267.1</ele>
        <time>2022-01-06T09:27:33Z</time>
      </trkpt>
      <trkpt lat="45.82397" lon="6.2884">
        <ele>2268</ele>
        <time>2022-01-06T09:27:34Z</time>
      </trkpt>
      <trkpt lat="45.82396" lon="6.28839">
        <ele>2268</ele>
        <time>2022-01-06T09:27:35Z</time>
      </trkpt>
      <trkpt lat="45.82396" lon="6.28838">
        <ele>2268</ele>
        <time>2022-01-06T09:27:36Z</time>
      </trkpt>
      <trkpt lat="45.82396" lon="6.28838">
        <ele>2268</ele>
        <time>2022-01-06T09:27:37Z</time>
      </trkpt>
      <trkpt lat="45.82396" lon="6.28837">
        <ele>2269.1</ele>
        <time>2022-01-06T09:27:38Z</time>
      </trkpt>
      <trkpt lat="45.82396" lon="6.28836">
        <ele>2269.1</ele>
        <time>2022-01-06T09:27:39Z</time>
      </trkpt>
      <trkpt lat="45.82396" lon="6.28835">
        <ele>2269.1</ele>
        <time>2022-01-06T09:27:40Z</time>
      </trkpt>
      <trkpt lat="45.82397" lon="6.28834">
        <ele>2269.1</ele>
        <time>2022-01-06T09:27:41Z</time>
      </trkpt>
      <trkpt lat="45.82397" lon="6.28833">
        <ele>2269.1</ele>
        <time>2022-01-06T09:27:42Z</time>
      </trkpt>
      <trkpt lat="45.82397" lon="6.28831">
        <ele>2269.1</ele>
        <time>2022-01-06T09:27:43Z</time>
      </trkpt>
      <trkpt lat="45.82398" lon="6.28831">
        <ele>2269.1</ele>
        <time>2022-01-06T09:27:44Z</time>
      </trkpt>
      <trkpt lat="45.82398" lon="6.2883">
        <ele>2269.1</ele>
        <time>2022-01-06T09:27:45Z</time>
      </trkpt>
      <trkpt lat="45.82399" lon="6.28829">
        <ele>2269.1</ele>
        <time>2022-01-06T09:27:46Z</time>
      </trkpt>
      <trkpt lat="45.824" lon="6.28828">
        <ele>2269.1</ele>
        <time>2022-01-06T09:27:47Z</time>
      </trkpt>
      <trkpt lat="45.824" lon="6.28827">
        <ele>2269.1</ele>
        <time>2022-01-06T09:27:48Z</time>
      </trkpt>
      <trkpt lat="45.82401" lon="6.28826">
        <ele>2269.1</ele>
        <time>2022-01-06T09:27:49Z</time>
      </trkpt>
      <trkpt lat="45.82401" lon="6.28825">
        <ele>2269.1</ele>
        <time>2022-01-06T09:27:50Z</time>
      </trkpt>
      <trkpt lat="45.82401" lon="6.28823">
        <ele>2269.1</ele>
        <time>2022-01-06T09:27:51Z</time>
      </trkpt>
      <trkpt lat="45.82401" lon="6.28821">
        <ele>2271.1</ele>
        <time>2022-01-06T09:27:52Z</time>
      </trkpt>
      <trkpt lat="45.82402" lon="6.28821">
        <ele>2271.1</ele>
        <time>2022-01-06T09:27:53Z</time>
      </trkpt>
      <trkpt lat="45.82402" lon="6.2882">
        <ele>2271.1</ele>
        <time>2022-01-06T09:27:54Z</time>
      </trkpt>
      <trkpt lat="45.82403" lon="6.28819">
        <ele>2271.1</ele>
        <time>2022-01-06T09:27:55Z</time>
      </trkpt>
      <trkpt lat="45.82404" lon="6.28818">
        <ele>2271.1</ele>
        <time>2022-01-06T09:27:56Z</time>
      </trkpt>
      <trkpt lat="45.82404" lon="6.28818">
        <ele>2271.1</ele>
        <time>2022-01-06T09:27:57Z</time>
      </trkpt>
      <trkpt lat="45.82404" lon="6.28816">
        <ele>2272.2</ele>
        <time>2022-01-06T09:27:58Z</time>
      </trkpt>
      <trkpt lat="45.82405" lon="6.28815">
        <ele>2272.2</ele>
        <time>2022-01-06T09:27:59Z</time>
      </trkpt>
      <trkpt lat="45.82405" lon="6.28815">
        <ele>2272.2</ele>
        <time>2022-01-06T09:28:00Z</time>
      </trkpt>
      <trkpt lat="45.82405" lon="6.28814">
        <ele>2272.2</ele>
        <time>2022-01-06T09:28:01Z</time>
      </trkpt>
      <trkpt lat="45.82406" lon="6.28814">
        <ele>2273.1</ele>
        <time>2022-01-06T09:28:02Z</time>
      </trkpt>
      <trkpt lat="45.82406" lon="6.28813">
        <ele>2273.1</ele>
        <time>2022-01-06T09:28:03Z</time>
      </trkpt>
      <trkpt lat="45.82406" lon="6.28812">
        <ele>2273.1</ele>
        <time>2022-01-06T09:28:04Z</time>
      </trkpt>
      <trkpt lat="45.82407" lon="6.28811">
        <ele>2273.1</ele>
        <time>2022-01-06T09:28:05Z</time>
      </trkpt>
      <trkpt lat="45.82407" lon="6.28811">
        <ele>2274.1</ele>
        <time>2022-01-06T09:28:06Z</time>
      </trkpt>
      <trkpt lat="45.82407" lon="6.2881">
        <ele>2274.1</ele>
        <time>2022-01-06T09:28:07Z</time>
      </trkpt>
      <trkpt lat="45.82408" lon="6.28809">
        <ele>2274.1</ele>
        <time>2022-01-06T09:28:08Z</time>
      </trkpt>
      <trkpt lat="45.82409" lon="6.28808">
        <ele>2274.1</ele>
        <time>2022-01-06T09:28:09Z</time>
      </trkpt>
      <trkpt lat="45.8241" lon="6.28807">
        <ele>2274.1</ele>
        <time>2022-01-06T09:28:10Z</time>
      </trkpt>
      <trkpt lat="45.8241" lon="6.28807">
        <ele>2274.1</ele>
        <time>2022-01-06T09:28:11Z</time>
      </trkpt>
      <trkpt lat="45.82411" lon="6.28805">
        <ele>2274.1</ele>
        <time>2022-01-06T09:28:12Z</time>
      </trkpt>
      <trkpt lat="45.82412" lon="6.28804">
        <ele>2274.1</ele>
        <time>2022-01-06T09:28:13Z</time>
      </trkpt>
      <trkpt lat="45.82412" lon="6.28803">
        <ele>2274.1</ele>
        <time>2022-01-06T09:28:14Z</time>
      </trkpt>
      <trkpt lat="45.82412" lon="6.28802">
        <ele>2274.1</ele>
        <time>2022-01-06T09:28:15Z</time>
      </trkpt>
      <trkpt lat="45.82413" lon="6.28802">
        <ele>2277</ele>
        <time>2022-01-06T09:28:16Z</time>
      </trkpt>
      <trkpt lat="45.82413" lon="6.28801">
        <ele>2277</ele>
        <time>2022-01-06T09:28:17Z</time>
      </trkpt>
      <trkpt lat="45.82414" lon="6.288">
        <ele>2277</ele>
        <time>2022-01-06T09:28:18Z</time>
      </trkpt>
      <trkpt lat="45.82414" lon="6.28799">
        <ele>2277</ele>
        <time>2022-01-06T09:28:19Z</time>
      </trkpt>
      <trkpt lat="45.82415" lon="6.28798">
        <ele>2278.1</ele>
        <time>2022-01-06T09:28:20Z</time>
      </trkpt>
      <trkpt lat="45.82415" lon="6.28797">
        <ele>2278.1</ele>
        <time>2022-01-06T09:28:21Z</time>
      </trkpt>
      <trkpt lat="45.82415" lon="6.28796">
        <ele>2278.1</ele>
        <time>2022-01-06T09:28:22Z</time>
      </trkpt>
      <trkpt lat="45.82416" lon="6.28795">
        <ele>2278.1</ele>
        <time>2022-01-06T09:28:23Z</time>
      </trkpt>
      <trkpt lat="45.82416" lon="6.28795">
        <ele>2278.1</ele>
        <time>2022-01-06T09:28:24Z</time>
      </trkpt>
      <trkpt lat="45.82417" lon="6.28794">
        <ele>2278.1</ele>
        <time>2022-01-06T09:28:25Z</time>
      </trkpt>
      <trkpt lat="45.82417" lon="6.28793">
        <ele>2278.1</ele>
        <time>2022-01-06T09:28:26Z</time>
      </trkpt>
      <trkpt lat="45.82417" lon="6.28792">
        <ele>2278.1</ele>
        <time>2022-01-06T09:28:27Z</time>
      </trkpt>
      <trkpt lat="45.82418" lon="6.28791">
        <ele>2279.2</ele>
        <time>2022-01-06T09:28:28Z</time>
      </trkpt>
      <trkpt lat="45.82418" lon="6.2879">
        <ele>2279.2</ele>
        <time>2022-01-06T09:28:29Z</time>
      </trkpt>
      <trkpt lat="45.82419" lon="6.28789">
        <ele>2279.2</ele>
        <time>2022-01-06T09:28:30Z</time>
      </trkpt>
      <trkpt lat="45.82419" lon="6.28788">
        <ele>2279.2</ele>
        <time>2022-01-06T09:28:31Z</time>
      </trkpt>
      <trkpt lat="45.82419" lon="6.28787">
        <ele>2280.1</ele>
        <time>2022-01-06T09:28:32Z</time>
      </trkpt>
      <trkpt lat="45.8242" lon="6.28786">
        <ele>2280.1</ele>
        <time>2022-01-06T09:28:33Z</time>
      </trkpt>
      <trkpt lat="45.8242" lon="6.28785">
        <ele>2280.1</ele>
        <time>2022-01-06T09:28:34Z</time>
      </trkpt>
      <trkpt lat="45.8242" lon="6.28784">
        <ele>2280.1</ele>
        <time>2022-01-06T09:28:35Z</time>
      </trkpt>
      <trkpt lat="45.82421" lon="6.28783">
        <ele>2280.1</ele>
        <time>2022-01-06T09:28:36Z</time>
      </trkpt>
      <trkpt lat="45.82421" lon="6.28782">
        <ele>2280.1</ele>
        <time>2022-01-06T09:28:37Z</time>
      </trkpt>
      <trkpt lat="45.82421" lon="6.28782">
        <ele>2281.2</ele>
        <time>2022-01-06T09:28:38Z</time>
      </trkpt>
      <trkpt lat="45.82422" lon="6.28781">
        <ele>2281.2</ele>
        <time>2022-01-06T09:28:39Z</time>
      </trkpt>
      <trkpt lat="45.82423" lon="6.2878">
        <ele>2281.2</ele>
        <time>2022-01-06T09:28:40Z</time>
      </trkpt>
      <trkpt lat="45.82423" lon="6.28779">
        <ele>2281.2</ele>
        <time>2022-01-06T09:28:41Z</time>
      </trkpt>
      <trkpt lat="45.82423" lon="6.28778">
        <ele>2282.1</ele>
        <time>2022-01-06T09:28:42Z</time>
      </trkpt>
      <trkpt lat="45.82424" lon="6.28777">
        <ele>2282.1</ele>
        <time>2022-01-06T09:28:43Z</time>
      </trkpt>
      <trkpt lat="45.82424" lon="6.28776">
        <ele>2282.1</ele>
        <time>2022-01-06T09:28:44Z</time>
      </trkpt>
      <trkpt lat="45.82424" lon="6.28776">
        <ele>2282.1</ele>
        <time>2022-01-06T09:28:45Z</time>
      </trkpt>
      <trkpt lat="45.82424" lon="6.28775">
        <ele>2282.1</ele>
        <time>2022-01-06T09:28:46Z</time>
      </trkpt>
      <trkpt lat="45.82425" lon="6.28774">
        <ele>2282.1</ele>
        <time>2022-01-06T09:28:47Z</time>
      </trkpt>
      <trkpt lat="45.82425" lon="6.28773">
        <ele>2283.1</ele>
        <time>2022-01-06T09:28:48Z</time>
      </trkpt>
      <trkpt lat="45.82425" lon="6.28773">
        <ele>2283.1</ele>
        <time>2022-01-06T09:28:49Z</time>
      </trkpt>
      <trkpt lat="45.82425" lon="6.28772">
        <ele>2283.1</ele>
        <time>2022-01-06T09:28:50Z</time>
      </trkpt>
      <trkpt lat="45.82425" lon="6.28771">
        <ele>2283.1</ele>
        <time>2022-01-06T09:28:51Z</time>
      </trkpt>
      <trkpt lat="45.82425" lon="6.2877">
        <ele>2283.1</ele>
        <time>2022-01-06T09:28:52Z</time>
      </trkpt>
      <trkpt lat="45.82426" lon="6.28769">
        <ele>2283.1</ele>
        <time>2022-01-06T09:28:53Z</time>
      </trkpt>
      <trkpt lat="45.82426" lon="6.28769">
        <ele>2283.1</ele>
        <time>2022-01-06T09:28:54Z</time>
      </trkpt>
      <trkpt lat="45.82426" lon="6.28768">
        <ele>2283.1</ele>
        <time>2022-01-06T09:28:55Z</time>
      </trkpt>
      <trkpt lat="45.82426" lon="6.28767">
        <ele>2284</ele>
        <time>2022-01-06T09:28:56Z</time>
      </trkpt>
      <trkpt lat="45.82426" lon="6.28766">
        <ele>2284</ele>
        <time>2022-01-06T09:28:57Z</time>
      </trkpt>
      <trkpt lat="45.82426" lon="6.28766">
        <ele>2284</ele>
        <time>2022-01-06T09:28:58Z</time>
      </trkpt>
      <trkpt lat="45.82426" lon="6.28765">
        <ele>2284</ele>
        <time>2022-01-06T09:28:59Z</time>
      </trkpt>
      <trkpt lat="45.82426" lon="6.28764">
        <ele>2284</ele>
        <time>2022-01-06T09:29:00Z</time>
      </trkpt>
      <trkpt lat="45.82426" lon="6.28763">
        <ele>2285.1</ele>
        <time>2022-01-06T09:29:01Z</time>
      </trkpt>
      <trkpt lat="45.82426" lon="6.28762">
        <ele>2285.1</ele>
        <time>2022-01-06T09:29:02Z</time>
      </trkpt>
      <trkpt lat="45.82426" lon="6.28761">
        <ele>2285.1</ele>
        <time>2022-01-06T09:29:03Z</time>
      </trkpt>
      <trkpt lat="45.82427" lon="6.28761">
        <ele>2285.1</ele>
        <time>2022-01-06T09:29:04Z</time>
      </trkpt>
      <trkpt lat="45.82427" lon="6.2876">
        <ele>2285.1</ele>
        <time>2022-01-06T09:29:05Z</time>
      </trkpt>
      <trkpt lat="45.82427" lon="6.28759">
        <ele>2285.1</ele>
        <time>2022-01-06T09:29:06Z</time>
      </trkpt>
      <trkpt lat="45.82428" lon="6.28758">
        <ele>2286</ele>
        <time>2022-01-06T09:29:07Z</time>
      </trkpt>
      <trkpt lat="45.82428" lon="6.28758">
        <ele>2286</ele>
        <time>2022-01-06T09:29:08Z</time>
      </trkpt>
      <trkpt lat="45.82429" lon="6.28757">
        <ele>2286</ele>
        <time>2022-01-06T09:29:09Z</time>
      </trkpt>
      <trkpt lat="45.8243" lon="6.28756">
        <ele>2286</ele>
        <time>2022-01-06T09:29:10Z</time>
      </trkpt>
      <trkpt lat="45.8243" lon="6.28755">
        <ele>2287.1</ele>
        <time>2022-01-06T09:29:11Z</time>
      </trkpt>
      <trkpt lat="45.82431" lon="6.28754">
        <ele>2287.1</ele>
        <time>2022-01-06T09:29:12Z</time>
      </trkpt>
      <trkpt lat="45.82431" lon="6.28753">
        <ele>2287.1</ele>
        <time>2022-01-06T09:29:13Z</time>
      </trkpt>
      <trkpt lat="45.82432" lon="6.28752">
        <ele>2287.1</ele>
        <time>2022-01-06T09:29:14Z</time>
      </trkpt>
      <trkpt lat="45.82432" lon="6.28752">
        <ele>2287.1</ele>
        <time>2022-01-06T09:29:15Z</time>
      </trkpt>
      <trkpt lat="45.82433" lon="6.28751">
        <ele>2287.1</ele>
        <time>2022-01-06T09:29:16Z</time>
      </trkpt>
      <trkpt lat="45.82433" lon="6.2875">
        <ele>2288.2</ele>
        <time>2022-01-06T09:29:17Z</time>
      </trkpt>
      <trkpt lat="45.82434" lon="6.2875">
        <ele>2288.2</ele>
        <time>2022-01-06T09:29:18Z</time>
      </trkpt>
      <trkpt lat="45.82435" lon="6.2875">
        <ele>2288.2</ele>
        <time>2022-01-06T09:29:19Z</time>
      </trkpt>
      <trkpt lat="45.82436" lon="6.2875">
        <ele>2288.2</ele>
        <time>2022-01-06T09:29:20Z</time>
      </trkpt>
      <trkpt lat="45.82437" lon="6.2875">
        <ele>2289.1</ele>
        <time>2022-01-06T09:29:21Z</time>
      </trkpt>
      <trkpt lat="45.82437" lon="6.28749">
        <ele>2289.1</ele>
        <time>2022-01-06T09:29:22Z</time>
      </trkpt>
      <trkpt lat="45.82438" lon="6.28749">
        <ele>2289.1</ele>
        <time>2022-01-06T09:29:23Z</time>
      </trkpt>
      <trkpt lat="45.82439" lon="6.28749">
        <ele>2289.1</ele>
        <time>2022-01-06T09:29:24Z</time>
      </trkpt>
      <trkpt lat="45.8244" lon="6.28749">
        <ele>2290.1</ele>
        <time>2022-01-06T09:29:25Z</time>
      </trkpt>
      <trkpt lat="45.82441" lon="6.28749">
        <ele>2290.1</ele>
        <time>2022-01-06T09:29:26Z</time>
      </trkpt>
      <trkpt lat="45.82442" lon="6.28749">
        <ele>2291.1</ele>
        <time>2022-01-06T09:29:27Z</time>
      </trkpt>
      <trkpt lat="45.82442" lon="6.28749">
        <ele>2291.1</ele>
        <time>2022-01-06T09:29:28Z</time>
      </trkpt>
      <trkpt lat="45.82443" lon="6.28749">
        <ele>2291.1</ele>
        <time>2022-01-06T09:29:29Z</time>
      </trkpt>
      <trkpt lat="45.82444" lon="6.28749">
        <ele>2291.1</ele>
        <time>2022-01-06T09:29:30Z</time>
      </trkpt>
      <trkpt lat="45.82445" lon="6.28749">
        <ele>2291.1</ele>
        <time>2022-01-06T09:29:31Z</time>
      </trkpt>
      <trkpt lat="45.82446" lon="6.28749">
        <ele>2291.1</ele>
        <time>2022-01-06T09:29:32Z</time>
      </trkpt>
      <trkpt lat="45.82446" lon="6.28749">
        <ele>2292.1</ele>
        <time>2022-01-06T09:29:33Z</time>
      </trkpt>
      <trkpt lat="45.82446" lon="6.28749">
        <ele>2292.1</ele>
        <time>2022-01-06T09:29:34Z</time>
      </trkpt>
      <trkpt lat="45.82446" lon="6.28749">
        <ele>2292.1</ele>
        <time>2022-01-06T09:29:35Z</time>
      </trkpt>
      <trkpt lat="45.82447" lon="6.28749">
        <ele>2292.1</ele>
        <time>2022-01-06T09:29:36Z</time>
      </trkpt>
      <trkpt lat="45.82447" lon="6.28748">
        <ele>2292.1</ele>
        <time>2022-01-06T09:29:37Z</time>
      </trkpt>
      <trkpt lat="45.82448" lon="6.28748">
        <ele>2292.1</ele>
        <time>2022-01-06T09:29:38Z</time>
      </trkpt>
      <trkpt lat="45.82448" lon="6.28747">
        <ele>2292.1</ele>
        <time>2022-01-06T09:29:39Z</time>
      </trkpt>
      <trkpt lat="45.82449" lon="6.28747">
        <ele>2292.1</ele>
        <time>2022-01-06T09:29:40Z</time>
      </trkpt>
      <trkpt lat="45.82449" lon="6.28746">
        <ele>2293</ele>
        <time>2022-01-06T09:29:41Z</time>
      </trkpt>
      <trkpt lat="45.8245" lon="6.28746">
        <ele>2293</ele>
        <time>2022-01-06T09:29:42Z</time>
      </trkpt>
      <trkpt lat="45.8245" lon="6.28746">
        <ele>2293</ele>
        <time>2022-01-06T09:29:43Z</time>
      </trkpt>
      <trkpt lat="45.82451" lon="6.28746">
        <ele>2293</ele>
        <time>2022-01-06T09:29:44Z</time>
      </trkpt>
      <trkpt lat="45.82451" lon="6.28745">
        <ele>2293</ele>
        <time>2022-01-06T09:29:45Z</time>
      </trkpt>
      <trkpt lat="45.82451" lon="6.28744">
        <ele>2293</ele>
        <time>2022-01-06T09:29:46Z</time>
      </trkpt>
      <trkpt lat="45.82452" lon="6.28744">
        <ele>2294.1</ele>
        <time>2022-01-06T09:29:47Z</time>
      </trkpt>
      <trkpt lat="45.82452" lon="6.28743">
        <ele>2294.1</ele>
        <time>2022-01-06T09:29:48Z</time>
      </trkpt>
      <trkpt lat="45.82452" lon="6.28742">
        <ele>2294.1</ele>
        <time>2022-01-06T09:29:49Z</time>
      </trkpt>
      <trkpt lat="45.82452" lon="6.28741">
        <ele>2294.1</ele>
        <time>2022-01-06T09:29:50Z</time>
      </trkpt>
      <trkpt lat="45.82453" lon="6.28741">
        <ele>2295.2</ele>
        <time>2022-01-06T09:29:51Z</time>
      </trkpt>
      <trkpt lat="45.82454" lon="6.2874">
        <ele>2295.2</ele>
        <time>2022-01-06T09:29:52Z</time>
      </trkpt>
      <trkpt lat="45.82454" lon="6.28739">
        <ele>2295.2</ele>
        <time>2022-01-06T09:29:53Z</time>
      </trkpt>
      <trkpt lat="45.82455" lon="6.28738">
        <ele>2295.2</ele>
        <time>2022-01-06T09:29:54Z</time>
      </trkpt>
      <trkpt lat="45.82455" lon="6.28737">
        <ele>2295.2</ele>
        <time>2022-01-06T09:29:55Z</time>
      </trkpt>
      <trkpt lat="45.82456" lon="6.28736">
        <ele>2295.2</ele>
        <time>2022-01-06T09:29:56Z</time>
      </trkpt>
      <trkpt lat="45.82456" lon="6.28736">
        <ele>2296.1</ele>
        <time>2022-01-06T09:29:57Z</time>
      </trkpt>
      <trkpt lat="45.82456" lon="6.28735">
        <ele>2296.1</ele>
        <time>2022-01-06T09:29:58Z</time>
      </trkpt>
      <trkpt lat="45.82457" lon="6.28734">
        <ele>2297.2</ele>
        <time>2022-01-06T09:29:59Z</time>
      </trkpt>
      <trkpt lat="45.82457" lon="6.28734">
        <ele>2297.2</ele>
        <time>2022-01-06T09:30:00Z</time>
      </trkpt>
      <trkpt lat="45.82458" lon="6.28733">
        <ele>2297.2</ele>
        <time>2022-01-06T09:30:01Z</time>
      </trkpt>
      <trkpt lat="45.82458" lon="6.28732">
        <ele>2297.2</ele>
        <time>2022-01-06T09:30:02Z</time>
      </trkpt>
      <trkpt lat="45.82459" lon="6.28732">
        <ele>2297.2</ele>
        <time>2022-01-06T09:30:03Z</time>
      </trkpt>
      <trkpt lat="45.8246" lon="6.28731">
        <ele>2297.2</ele>
        <time>2022-01-06T09:30:04Z</time>
      </trkpt>
      <trkpt lat="45.8246" lon="6.2873">
        <ele>2298.1</ele>
        <time>2022-01-06T09:30:05Z</time>
      </trkpt>
      <trkpt lat="45.82461" lon="6.2873">
        <ele>2298.1</ele>
        <time>2022-01-06T09:30:06Z</time>
      </trkpt>
      <trkpt lat="45.82462" lon="6.2873">
        <ele>2298.1</ele>
        <time>2022-01-06T09:30:07Z</time>
      </trkpt>
      <trkpt lat="45.82463" lon="6.28729">
        <ele>2298.1</ele>
        <time>2022-01-06T09:30:08Z</time>
      </trkpt>
      <trkpt lat="45.82464" lon="6.28728">
        <ele>2298.1</ele>
        <time>2022-01-06T09:30:09Z</time>
      </trkpt>
      <trkpt lat="45.82465" lon="6.28728">
        <ele>2298.1</ele>
        <time>2022-01-06T09:30:10Z</time>
      </trkpt>
      <trkpt lat="45.82466" lon="6.28727">
        <ele>2298.1</ele>
        <time>2022-01-06T09:30:11Z</time>
      </trkpt>
      <trkpt lat="45.82467" lon="6.28726">
        <ele>2298.1</ele>
        <time>2022-01-06T09:30:12Z</time>
      </trkpt>
      <trkpt lat="45.82468" lon="6.28726">
        <ele>2298.1</ele>
        <time>2022-01-06T09:30:13Z</time>
      </trkpt>
      <trkpt lat="45.82469" lon="6.28725">
        <ele>2298.1</ele>
        <time>2022-01-06T09:30:14Z</time>
      </trkpt>
      <trkpt lat="45.82471" lon="6.28725">
        <ele>2299.1</ele>
        <time>2022-01-06T09:30:15Z</time>
      </trkpt>
      <trkpt lat="45.82471" lon="6.28724">
        <ele>2299.1</ele>
        <time>2022-01-06T09:30:16Z</time>
      </trkpt>
      <trkpt lat="45.82472" lon="6.28723">
        <ele>2299.1</ele>
        <time>2022-01-06T09:30:17Z</time>
      </trkpt>
      <trkpt lat="45.82474" lon="6.28723">
        <ele>2299.1</ele>
        <time>2022-01-06T09:30:18Z</time>
      </trkpt>
      <trkpt lat="45.82475" lon="6.28723">
        <ele>2299.1</ele>
        <time>2022-01-06T09:30:19Z</time>
      </trkpt>
      <trkpt lat="45.82476" lon="6.28722">
        <ele>2299.1</ele>
        <time>2022-01-06T09:30:20Z</time>
      </trkpt>
      <trkpt lat="45.82477" lon="6.28722">
        <ele>2299.1</ele>
        <time>2022-01-06T09:30:21Z</time>
      </trkpt>
      <trkpt lat="45.82479" lon="6.28722">
        <ele>2299.1</ele>
        <time>2022-01-06T09:30:22Z</time>
      </trkpt>
      <trkpt lat="45.8248" lon="6.28721">
        <ele>2299.1</ele>
        <time>2022-01-06T09:30:23Z</time>
      </trkpt>
      <trkpt lat="45.82481" lon="6.28721">
        <ele>2299.1</ele>
        <time>2022-01-06T09:30:24Z</time>
      </trkpt>
      <trkpt lat="45.82482" lon="6.28721">
        <ele>2299.1</ele>
        <time>2022-01-06T09:30:25Z</time>
      </trkpt>
      <trkpt lat="45.82483" lon="6.2872">
        <ele>2299.1</ele>
        <time>2022-01-06T09:30:26Z</time>
      </trkpt>
      <trkpt lat="45.82484" lon="6.2872">
        <ele>2299.1</ele>
        <time>2022-01-06T09:30:27Z</time>
      </trkpt>
      <trkpt lat="45.82485" lon="6.28719">
        <ele>2299.1</ele>
        <time>2022-01-06T09:30:28Z</time>
      </trkpt>
      <trkpt lat="45.82486" lon="6.28719">
        <ele>2300</ele>
        <time>2022-01-06T09:30:29Z</time>
      </trkpt>
      <trkpt lat="45.82487" lon="6.28719">
        <ele>2300</ele>
        <time>2022-01-06T09:30:30Z</time>
      </trkpt>
      <trkpt lat="45.82488" lon="6.28719">
        <ele>2300</ele>
        <time>2022-01-06T09:30:31Z</time>
      </trkpt>
      <trkpt lat="45.82489" lon="6.28718">
        <ele>2300</ele>
        <time>2022-01-06T09:30:32Z</time>
      </trkpt>
      <trkpt lat="45.8249" lon="6.28718">
        <ele>2300</ele>
        <time>2022-01-06T09:30:33Z</time>
      </trkpt>
      <trkpt lat="45.82491" lon="6.28718">
        <ele>2300</ele>
        <time>2022-01-06T09:30:34Z</time>
      </trkpt>
      <trkpt lat="45.82491" lon="6.28717">
        <ele>2301.1</ele>
        <time>2022-01-06T09:30:35Z</time>
      </trkpt>
      <trkpt lat="45.82492" lon="6.28717">
        <ele>2301.1</ele>
        <time>2022-01-06T09:30:36Z</time>
      </trkpt>
      <trkpt lat="45.82493" lon="6.28717">
        <ele>2301.1</ele>
        <time>2022-01-06T09:30:37Z</time>
      </trkpt>
      <trkpt lat="45.82493" lon="6.28716">
        <ele>2301.1</ele>
        <time>2022-01-06T09:30:38Z</time>
      </trkpt>
      <trkpt lat="45.82494" lon="6.28716">
        <ele>2302</ele>
        <time>2022-01-06T09:30:39Z</time>
      </trkpt>
      <trkpt lat="45.82495" lon="6.28715">
        <ele>2302</ele>
        <time>2022-01-06T09:30:40Z</time>
      </trkpt>
      <trkpt lat="45.82496" lon="6.28716">
        <ele>2302</ele>
        <time>2022-01-06T09:30:41Z</time>
      </trkpt>
      <trkpt lat="45.82497" lon="6.28716">
        <ele>2302</ele>
        <time>2022-01-06T09:30:42Z</time>
      </trkpt>
      <trkpt lat="45.82498" lon="6.28715">
        <ele>2302</ele>
        <time>2022-01-06T09:30:43Z</time>
      </trkpt>
      <trkpt lat="45.82499" lon="6.28715">
        <ele>2302</ele>
        <time>2022-01-06T09:30:44Z</time>
      </trkpt>
      <trkpt lat="45.825" lon="6.28715">
        <ele>2302</ele>
        <time>2022-01-06T09:30:45Z</time>
      </trkpt>
      <trkpt lat="45.82501" lon="6.28714">
        <ele>2302</ele>
        <time>2022-01-06T09:30:46Z</time>
      </trkpt>
      <trkpt lat="45.82501" lon="6.28714">
        <ele>2302</ele>
        <time>2022-01-06T09:30:47Z</time>
      </trkpt>
      <trkpt lat="45.82502" lon="6.28714">
        <ele>2302</ele>
        <time>2022-01-06T09:30:48Z</time>
      </trkpt>
      <trkpt lat="45.82503" lon="6.28713">
        <ele>2302</ele>
        <time>2022-01-06T09:30:49Z</time>
      </trkpt>
      <trkpt lat="45.82504" lon="6.28713">
        <ele>2302</ele>
        <time>2022-01-06T09:30:50Z</time>
      </trkpt>
      <trkpt lat="45.82505" lon="6.28714">
        <ele>2303.1</ele>
        <time>2022-01-06T09:30:51Z</time>
      </trkpt>
      <trkpt lat="45.82506" lon="6.28714">
        <ele>2303.1</ele>
        <time>2022-01-06T09:30:52Z</time>
      </trkpt>
      <trkpt lat="45.82507" lon="6.28714">
        <ele>2303.1</ele>
        <time>2022-01-06T09:30:53Z</time>
      </trkpt>
      <trkpt lat="45.82508" lon="6.28714">
        <ele>2303.1</ele>
        <time>2022-01-06T09:30:54Z</time>
      </trkpt>
      <trkpt lat="45.82509" lon="6.28714">
        <ele>2304.2</ele>
        <time>2022-01-06T09:30:55Z</time>
      </trkpt>
      <trkpt lat="45.8251" lon="6.28714">
        <ele>2304.2</ele>
        <time>2022-01-06T09:30:56Z</time>
      </trkpt>
      <trkpt lat="45.82511" lon="6.28715">
        <ele>2304.2</ele>
        <time>2022-01-06T09:30:57Z</time>
      </trkpt>
      <trkpt lat="45.82512" lon="6.28715">
        <ele>2304.2</ele>
        <time>2022-01-06T09:30:58Z</time>
      </trkpt>
      <trkpt lat="45.82513" lon="6.28715">
        <ele>2304.2</ele>
        <time>2022-01-06T09:30:59Z</time>
      </trkpt>
      <trkpt lat="45.82513" lon="6.28714">
        <ele>2304.2</ele>
        <time>2022-01-06T09:31:00Z</time>
      </trkpt>
      <trkpt lat="45.82514" lon="6.28714">
        <ele>2305.1</ele>
        <time>2022-01-06T09:31:01Z</time>
      </trkpt>
      <trkpt lat="45.82515" lon="6.28714">
        <ele>2305.1</ele>
        <time>2022-01-06T09:31:02Z</time>
      </trkpt>
      <trkpt lat="45.82516" lon="6.28714">
        <ele>2305.1</ele>
        <time>2022-01-06T09:31:03Z</time>
      </trkpt>
      <trkpt lat="45.82517" lon="6.28715">
        <ele>2305.1</ele>
        <time>2022-01-06T09:31:04Z</time>
      </trkpt>
      <trkpt lat="45.82518" lon="6.28715">
        <ele>2305.1</ele>
        <time>2022-01-06T09:31:05Z</time>
      </trkpt>
      <trkpt lat="45.82519" lon="6.28715">
        <ele>2305.1</ele>
        <time>2022-01-06T09:31:06Z</time>
      </trkpt>
      <trkpt lat="45.8252" lon="6.28714">
        <ele>2305.1</ele>
        <time>2022-01-06T09:31:07Z</time>
      </trkpt>
      <trkpt lat="45.8252" lon="6.28714">
        <ele>2305.1</ele>
        <time>2022-01-06T09:31:08Z</time>
      </trkpt>
      <trkpt lat="45.82521" lon="6.28714">
        <ele>2305.1</ele>
        <time>2022-01-06T09:31:09Z</time>
      </trkpt>
      <trkpt lat="45.82522" lon="6.28713">
        <ele>2305.1</ele>
        <time>2022-01-06T09:31:10Z</time>
      </trkpt>
      <trkpt lat="45.82523" lon="6.28713">
        <ele>2306.1</ele>
        <time>2022-01-06T09:31:11Z</time>
      </trkpt>
      <trkpt lat="45.82523" lon="6.28712">
        <ele>2306.1</ele>
        <time>2022-01-06T09:31:12Z</time>
      </trkpt>
      <trkpt lat="45.82524" lon="6.28711">
        <ele>2306.1</ele>
        <time>2022-01-06T09:31:13Z</time>
      </trkpt>
      <trkpt lat="45.82524" lon="6.2871">
        <ele>2306.1</ele>
        <time>2022-01-06T09:31:14Z</time>
      </trkpt>
      <trkpt lat="45.82525" lon="6.28711">
        <ele>2306.1</ele>
        <time>2022-01-06T09:31:15Z</time>
      </trkpt>
      <trkpt lat="45.82526" lon="6.28711">
        <ele>2306.1</ele>
        <time>2022-01-06T09:31:16Z</time>
      </trkpt>
      <trkpt lat="45.82527" lon="6.28711">
        <ele>2307.1</ele>
        <time>2022-01-06T09:31:17Z</time>
      </trkpt>
      <trkpt lat="45.82528" lon="6.28711">
        <ele>2307.1</ele>
        <time>2022-01-06T09:31:18Z</time>
      </trkpt>
      <trkpt lat="45.82529" lon="6.2871">
        <ele>2307.1</ele>
        <time>2022-01-06T09:31:19Z</time>
      </trkpt>
      <trkpt lat="45.8253" lon="6.2871">
        <ele>2307.1</ele>
        <time>2022-01-06T09:31:20Z</time>
      </trkpt>
      <trkpt lat="45.82531" lon="6.2871">
        <ele>2307.1</ele>
        <time>2022-01-06T09:31:21Z</time>
      </trkpt>
      <trkpt lat="45.82532" lon="6.2871">
        <ele>2307.1</ele>
        <time>2022-01-06T09:31:22Z</time>
      </trkpt>
      <trkpt lat="45.82533" lon="6.2871">
        <ele>2307.1</ele>
        <time>2022-01-06T09:31:23Z</time>
      </trkpt>
      <trkpt lat="45.82534" lon="6.2871">
        <ele>2307.1</ele>
        <time>2022-01-06T09:31:24Z</time>
      </trkpt>
      <trkpt lat="45.82534" lon="6.28709">
        <ele>2308.1</ele>
        <time>2022-01-06T09:31:25Z</time>
      </trkpt>
      <trkpt lat="45.82535" lon="6.28709">
        <ele>2308.1</ele>
        <time>2022-01-06T09:31:26Z</time>
      </trkpt>
      <trkpt lat="45.82536" lon="6.28709">
        <ele>2308.1</ele>
        <time>2022-01-06T09:31:27Z</time>
      </trkpt>
      <trkpt lat="45.82537" lon="6.28709">
        <ele>2308.1</ele>
        <time>2022-01-06T09:31:28Z</time>
      </trkpt>
      <trkpt lat="45.82538" lon="6.28709">
        <ele>2308.1</ele>
        <time>2022-01-06T09:31:29Z</time>
      </trkpt>
      <trkpt lat="45.82539" lon="6.28709">
        <ele>2308.1</ele>
        <time>2022-01-06T09:31:30Z</time>
      </trkpt>
      <trkpt lat="45.8254" lon="6.28708">
        <ele>2309</ele>
        <time>2022-01-06T09:31:31Z</time>
      </trkpt>
      <trkpt lat="45.8254" lon="6.28708">
        <ele>2309</ele>
        <time>2022-01-06T09:31:32Z</time>
      </trkpt>
      <trkpt lat="45.82541" lon="6.28708">
        <ele>2309</ele>
        <time>2022-01-06T09:31:33Z</time>
      </trkpt>
      <trkpt lat="45.82542" lon="6.28708">
        <ele>2309</ele>
        <time>2022-01-06T09:31:34Z</time>
      </trkpt>
      <trkpt lat="45.82543" lon="6.28707">
        <ele>2309</ele>
        <time>2022-01-06T09:31:35Z</time>
      </trkpt>
      <trkpt lat="45.82543" lon="6.28707">
        <ele>2309</ele>
        <time>2022-01-06T09:31:36Z</time>
      </trkpt>
      <trkpt lat="45.82544" lon="6.28707">
        <ele>2309</ele>
        <time>2022-01-06T09:31:37Z</time>
      </trkpt>
      <trkpt lat="45.82545" lon="6.28706">
        <ele>2309</ele>
        <time>2022-01-06T09:31:38Z</time>
      </trkpt>
      <trkpt lat="45.82545" lon="6.28706">
        <ele>2309</ele>
        <time>2022-01-06T09:31:39Z</time>
      </trkpt>
      <trkpt lat="45.82546" lon="6.28705">
        <ele>2309</ele>
        <time>2022-01-06T09:31:40Z</time>
      </trkpt>
      <trkpt lat="45.82547" lon="6.28705">
        <ele>2311</ele>
        <time>2022-01-06T09:31:41Z</time>
      </trkpt>
      <trkpt lat="45.82548" lon="6.28704">
        <ele>2311</ele>
        <time>2022-01-06T09:31:42Z</time>
      </trkpt>
      <trkpt lat="45.82549" lon="6.28703">
        <ele>2311</ele>
        <time>2022-01-06T09:31:43Z</time>
      </trkpt>
      <trkpt lat="45.82549" lon="6.28702">
        <ele>2311</ele>
        <time>2022-01-06T09:31:44Z</time>
      </trkpt>
      <trkpt lat="45.8255" lon="6.28702">
        <ele>2311</ele>
        <time>2022-01-06T09:31:45Z</time>
      </trkpt>
      <trkpt lat="45.82551" lon="6.28701">
        <ele>2311</ele>
        <time>2022-01-06T09:31:46Z</time>
      </trkpt>
      <trkpt lat="45.82552" lon="6.28701">
        <ele>2311</ele>
        <time>2022-01-06T09:31:47Z</time>
      </trkpt>
      <trkpt lat="45.82553" lon="6.287">
        <ele>2311</ele>
        <time>2022-01-06T09:31:48Z</time>
      </trkpt>
      <trkpt lat="45.82554" lon="6.28699">
        <ele>2311</ele>
        <time>2022-01-06T09:31:49Z</time>
      </trkpt>
      <trkpt lat="45.82555" lon="6.28699">
        <ele>2311</ele>
        <time>2022-01-06T09:31:50Z</time>
      </trkpt>
      <trkpt lat="45.82556" lon="6.28698">
        <ele>2311</ele>
        <time>2022-01-06T09:31:51Z</time>
      </trkpt>
      <trkpt lat="45.82557" lon="6.28698">
        <ele>2311</ele>
        <time>2022-01-06T09:31:52Z</time>
      </trkpt>
      <trkpt lat="45.82558" lon="6.28698">
        <ele>2311</ele>
        <time>2022-01-06T09:31:53Z</time>
      </trkpt>
      <trkpt lat="45.82559" lon="6.28697">
        <ele>2311</ele>
        <time>2022-01-06T09:31:54Z</time>
      </trkpt>
      <trkpt lat="45.82559" lon="6.28697">
        <ele>2311</ele>
        <time>2022-01-06T09:31:55Z</time>
      </trkpt>
      <trkpt lat="45.8256" lon="6.28696">
        <ele>2311</ele>
        <time>2022-01-06T09:31:56Z</time>
      </trkpt>
      <trkpt lat="45.82561" lon="6.28696">
        <ele>2311</ele>
        <time>2022-01-06T09:31:57Z</time>
      </trkpt>
      <trkpt lat="45.82562" lon="6.28696">
        <ele>2311</ele>
        <time>2022-01-06T09:31:58Z</time>
      </trkpt>
      <trkpt lat="45.82563" lon="6.28695">
        <ele>2311</ele>
        <time>2022-01-06T09:31:59Z</time>
      </trkpt>
      <trkpt lat="45.82564" lon="6.28695">
        <ele>2311</ele>
        <time>2022-01-06T09:32:00Z</time>
      </trkpt>
      <trkpt lat="45.82565" lon="6.28694">
        <ele>2311</ele>
        <time>2022-01-06T09:32:01Z</time>
      </trkpt>
      <trkpt lat="45.82565" lon="6.28694">
        <ele>2311</ele>
        <time>2022-01-06T09:32:02Z</time>
      </trkpt>
      <trkpt lat="45.82566" lon="6.28694">
        <ele>2312.1</ele>
        <time>2022-01-06T09:32:03Z</time>
      </trkpt>
      <trkpt lat="45.82567" lon="6.28693">
        <ele>2312.1</ele>
        <time>2022-01-06T09:32:04Z</time>
      </trkpt>
      <trkpt lat="45.82567" lon="6.28693">
        <ele>2312.1</ele>
        <time>2022-01-06T09:32:05Z</time>
      </trkpt>
      <trkpt lat="45.82568" lon="6.28692">
        <ele>2312.1</ele>
        <time>2022-01-06T09:32:06Z</time>
      </trkpt>
      <trkpt lat="45.82569" lon="6.28692">
        <ele>2313.2</ele>
        <time>2022-01-06T09:32:07Z</time>
      </trkpt>
      <trkpt lat="45.8257" lon="6.28692">
        <ele>2313.2</ele>
        <time>2022-01-06T09:32:08Z</time>
      </trkpt>
      <trkpt lat="45.8257" lon="6.28691">
        <ele>2313.2</ele>
        <time>2022-01-06T09:32:09Z</time>
      </trkpt>
      <trkpt lat="45.82571" lon="6.28691">
        <ele>2313.2</ele>
        <time>2022-01-06T09:32:10Z</time>
      </trkpt>
      <trkpt lat="45.82572" lon="6.2869">
        <ele>2313.2</ele>
        <time>2022-01-06T09:32:11Z</time>
      </trkpt>
      <trkpt lat="45.82572" lon="6.2869">
        <ele>2313.2</ele>
        <time>2022-01-06T09:32:12Z</time>
      </trkpt>
      <trkpt lat="45.82573" lon="6.2869">
        <ele>2313.2</ele>
        <time>2022-01-06T09:32:13Z</time>
      </trkpt>
      <trkpt lat="45.82574" lon="6.2869">
        <ele>2313.2</ele>
        <time>2022-01-06T09:32:14Z</time>
      </trkpt>
      <trkpt lat="45.82574" lon="6.2869">
        <ele>2313.2</ele>
        <time>2022-01-06T09:32:15Z</time>
      </trkpt>
      <trkpt lat="45.82575" lon="6.28689">
        <ele>2313.2</ele>
        <time>2022-01-06T09:32:16Z</time>
      </trkpt>
      <trkpt lat="45.82576" lon="6.28689">
        <ele>2313.2</ele>
        <time>2022-01-06T09:32:17Z</time>
      </trkpt>
      <trkpt lat="45.82576" lon="6.28689">
        <ele>2313.2</ele>
        <time>2022-01-06T09:32:18Z</time>
      </trkpt>
      <trkpt lat="45.82577" lon="6.28689">
        <ele>2314.1</ele>
        <time>2022-01-06T09:32:19Z</time>
      </trkpt>
      <trkpt lat="45.82578" lon="6.28689">
        <ele>2314.1</ele>
        <time>2022-01-06T09:32:20Z</time>
      </trkpt>
      <trkpt lat="45.82578" lon="6.28689">
        <ele>2314.1</ele>
        <time>2022-01-06T09:32:21Z</time>
      </trkpt>
      <trkpt lat="45.82579" lon="6.28689">
        <ele>2314.1</ele>
        <time>2022-01-06T09:32:22Z</time>
      </trkpt>
      <trkpt lat="45.82579" lon="6.28689">
        <ele>2314.1</ele>
        <time>2022-01-06T09:32:23Z</time>
      </trkpt>
      <trkpt lat="45.8258" lon="6.28688">
        <ele>2314.1</ele>
        <time>2022-01-06T09:32:24Z</time>
      </trkpt>
      <trkpt lat="45.82581" lon="6.28688">
        <ele>2315.1</ele>
        <time>2022-01-06T09:32:25Z</time>
      </trkpt>
      <trkpt lat="45.82581" lon="6.28688">
        <ele>2315.1</ele>
        <time>2022-01-06T09:32:26Z</time>
      </trkpt>
      <trkpt lat="45.82582" lon="6.28688">
        <ele>2315.1</ele>
        <time>2022-01-06T09:32:27Z</time>
      </trkpt>
      <trkpt lat="45.82583" lon="6.28688">
        <ele>2315.1</ele>
        <time>2022-01-06T09:32:28Z</time>
      </trkpt>
      <trkpt lat="45.82584" lon="6.2869">
        <ele>2315.1</ele>
        <time>2022-01-06T09:32:29Z</time>
      </trkpt>
      <trkpt lat="45.82584" lon="6.28691">
        <ele>2315.1</ele>
        <time>2022-01-06T09:32:30Z</time>
      </trkpt>
      <trkpt lat="45.82585" lon="6.28691">
        <ele>2315.1</ele>
        <time>2022-01-06T09:32:31Z</time>
      </trkpt>
      <trkpt lat="45.82585" lon="6.28692">
        <ele>2315.1</ele>
        <time>2022-01-06T09:32:32Z</time>
      </trkpt>
      <trkpt lat="45.82586" lon="6.28692">
        <ele>2315.1</ele>
        <time>2022-01-06T09:32:33Z</time>
      </trkpt>
      <trkpt lat="45.82585" lon="6.28692">
        <ele>2315.1</ele>
        <time>2022-01-06T09:32:34Z</time>
      </trkpt>
      <trkpt lat="45.82586" lon="6.28692">
        <ele>2317.1</ele>
        <time>2022-01-06T09:32:35Z</time>
      </trkpt>
      <trkpt lat="45.82586" lon="6.28691">
        <ele>2317.1</ele>
        <time>2022-01-06T09:32:36Z</time>
      </trkpt>
      <trkpt lat="45.82588" lon="6.28691">
        <ele>2317.1</ele>
        <time>2022-01-06T09:32:37Z</time>
      </trkpt>
      <trkpt lat="45.82589" lon="6.28691">
        <ele>2317.1</ele>
        <time>2022-01-06T09:32:38Z</time>
      </trkpt>
      <trkpt lat="45.8259" lon="6.2869">
        <ele>2317.1</ele>
        <time>2022-01-06T09:32:39Z</time>
      </trkpt>
      <trkpt lat="45.8259" lon="6.2869">
        <ele>2317.1</ele>
        <time>2022-01-06T09:32:40Z</time>
      </trkpt>
      <trkpt lat="45.8259" lon="6.2869">
        <ele>2317.1</ele>
        <time>2022-01-06T09:32:41Z</time>
      </trkpt>
      <trkpt lat="45.82591" lon="6.2869">
        <ele>2317.1</ele>
        <time>2022-01-06T09:32:42Z</time>
      </trkpt>
      <trkpt lat="45.82591" lon="6.2869">
        <ele>2320.2</ele>
        <time>2022-01-06T09:32:43Z</time>
      </trkpt>
      <trkpt lat="45.82592" lon="6.2869">
        <ele>2320.2</ele>
        <time>2022-01-06T09:32:44Z</time>
      </trkpt>
      <trkpt lat="45.82593" lon="6.2869">
        <ele>2320.2</ele>
        <time>2022-01-06T09:32:45Z</time>
      </trkpt>
      <trkpt lat="45.82593" lon="6.2869">
        <ele>2320.2</ele>
        <time>2022-01-06T09:32:46Z</time>
      </trkpt>
      <trkpt lat="45.82594" lon="6.2869">
        <ele>2321.1</ele>
        <time>2022-01-06T09:32:47Z</time>
      </trkpt>
      <trkpt lat="45.82594" lon="6.2869">
        <ele>2321.1</ele>
        <time>2022-01-06T09:32:48Z</time>
      </trkpt>
      <trkpt lat="45.82595" lon="6.2869">
        <ele>2322.1</ele>
        <time>2022-01-06T09:32:49Z</time>
      </trkpt>
      <trkpt lat="45.82596" lon="6.2869">
        <ele>2322.1</ele>
        <time>2022-01-06T09:32:50Z</time>
      </trkpt>
      <trkpt lat="45.82596" lon="6.2869">
        <ele>2322.1</ele>
        <time>2022-01-06T09:32:51Z</time>
      </trkpt>
      <trkpt lat="45.82597" lon="6.2869">
        <ele>2322.1</ele>
        <time>2022-01-06T09:32:52Z</time>
      </trkpt>
      <trkpt lat="45.82597" lon="6.2869">
        <ele>2322.1</ele>
        <time>2022-01-06T09:32:53Z</time>
      </trkpt>
      <trkpt lat="45.82598" lon="6.2869">
        <ele>2322.1</ele>
        <time>2022-01-06T09:32:54Z</time>
      </trkpt>
      <trkpt lat="45.82598" lon="6.2869">
        <ele>2323.1</ele>
        <time>2022-01-06T09:32:55Z</time>
      </trkpt>
      <trkpt lat="45.82599" lon="6.2869">
        <ele>2323.1</ele>
        <time>2022-01-06T09:32:56Z</time>
      </trkpt>
      <trkpt lat="45.82599" lon="6.28689">
        <ele>2323.1</ele>
        <time>2022-01-06T09:32:57Z</time>
      </trkpt>
      <trkpt lat="45.826" lon="6.28689">
        <ele>2323.1</ele>
        <time>2022-01-06T09:32:58Z</time>
      </trkpt>
      <trkpt lat="45.82601" lon="6.28688">
        <ele>2323.1</ele>
        <time>2022-01-06T09:32:59Z</time>
      </trkpt>
      <trkpt lat="45.82601" lon="6.28688">
        <ele>2323.1</ele>
        <time>2022-01-06T09:33:00Z</time>
      </trkpt>
      <trkpt lat="45.82601" lon="6.28687">
        <ele>2323.1</ele>
        <time>2022-01-06T09:33:01Z</time>
      </trkpt>
      <trkpt lat="45.82602" lon="6.28687">
        <ele>2323.1</ele>
        <time>2022-01-06T09:33:02Z</time>
      </trkpt>
      <trkpt lat="45.82602" lon="6.28687">
        <ele>2323.1</ele>
        <time>2022-01-06T09:33:03Z</time>
      </trkpt>
      <trkpt lat="45.82603" lon="6.28687">
        <ele>2323.1</ele>
        <time>2022-01-06T09:33:04Z</time>
      </trkpt>
      <trkpt lat="45.82604" lon="6.28687">
        <ele>2324.1</ele>
        <time>2022-01-06T09:33:05Z</time>
      </trkpt>
      <trkpt lat="45.82604" lon="6.28687">
        <ele>2324.1</ele>
        <time>2022-01-06T09:33:06Z</time>
      </trkpt>
      <trkpt lat="45.82605" lon="6.28686">
        <ele>2324.1</ele>
        <time>2022-01-06T09:33:07Z</time>
      </trkpt>
      <trkpt lat="45.82605" lon="6.28686">
        <ele>2324.1</ele>
        <time>2022-01-06T09:33:08Z</time>
      </trkpt>
      <trkpt lat="45.82605" lon="6.28686">
        <ele>2324.1</ele>
        <time>2022-01-06T09:33:09Z</time>
      </trkpt>
      <trkpt lat="45.82606" lon="6.28685">
        <ele>2324.1</ele>
        <time>2022-01-06T09:33:10Z</time>
      </trkpt>
      <trkpt lat="45.82607" lon="6.28685">
        <ele>2324.1</ele>
        <time>2022-01-06T09:33:11Z</time>
      </trkpt>
      <trkpt lat="45.82607" lon="6.28684">
        <ele>2324.1</ele>
        <time>2022-01-06T09:33:12Z</time>
      </trkpt>
      <trkpt lat="45.82608" lon="6.28685">
        <ele>2324.1</ele>
        <time>2022-01-06T09:33:13Z</time>
      </trkpt>
      <trkpt lat="45.82609" lon="6.28685">
        <ele>2324.1</ele>
        <time>2022-01-06T09:33:14Z</time>
      </trkpt>
      <trkpt lat="45.8261" lon="6.28685">
        <ele>2325</ele>
        <time>2022-01-06T09:33:15Z</time>
      </trkpt>
      <trkpt lat="45.8261" lon="6.28685">
        <ele>2325</ele>
        <time>2022-01-06T09:33:16Z</time>
      </trkpt>
      <trkpt lat="45.82611" lon="6.28685">
        <ele>2325</ele>
        <time>2022-01-06T09:33:17Z</time>
      </trkpt>
      <trkpt lat="45.82612" lon="6.28685">
        <ele>2325</ele>
        <time>2022-01-06T09:33:18Z</time>
      </trkpt>
      <trkpt lat="45.82613" lon="6.28685">
        <ele>2325</ele>
        <time>2022-01-06T09:33:19Z</time>
      </trkpt>
      <trkpt lat="45.82614" lon="6.28684">
        <ele>2325</ele>
        <time>2022-01-06T09:33:20Z</time>
      </trkpt>
      <trkpt lat="45.82615" lon="6.28684">
        <ele>2326.1</ele>
        <time>2022-01-06T09:33:21Z</time>
      </trkpt>
      <trkpt lat="45.82616" lon="6.28684">
        <ele>2326.1</ele>
        <time>2022-01-06T09:33:22Z</time>
      </trkpt>
      <trkpt lat="45.82617" lon="6.28683">
        <ele>2326.1</ele>
        <time>2022-01-06T09:33:23Z</time>
      </trkpt>
      <trkpt lat="45.82617" lon="6.28683">
        <ele>2326.1</ele>
        <time>2022-01-06T09:33:24Z</time>
      </trkpt>
      <trkpt lat="45.82618" lon="6.28684">
        <ele>2327</ele>
        <time>2022-01-06T09:33:25Z</time>
      </trkpt>
      <trkpt lat="45.82618" lon="6.28684">
        <ele>2327</ele>
        <time>2022-01-06T09:33:26Z</time>
      </trkpt>
      <trkpt lat="45.82619" lon="6.28684">
        <ele>2327</ele>
        <time>2022-01-06T09:33:27Z</time>
      </trkpt>
      <trkpt lat="45.82619" lon="6.28684">
        <ele>2327</ele>
        <time>2022-01-06T09:33:28Z</time>
      </trkpt>
      <trkpt lat="45.8262" lon="6.28684">
        <ele>2327</ele>
        <time>2022-01-06T09:33:29Z</time>
      </trkpt>
      <trkpt lat="45.82621" lon="6.28684">
        <ele>2327</ele>
        <time>2022-01-06T09:33:30Z</time>
      </trkpt>
      <trkpt lat="45.82622" lon="6.28684">
        <ele>2328.1</ele>
        <time>2022-01-06T09:33:31Z</time>
      </trkpt>
      <trkpt lat="45.82622" lon="6.28683">
        <ele>2328.1</ele>
        <time>2022-01-06T09:33:32Z</time>
      </trkpt>
      <trkpt lat="45.82623" lon="6.28682">
        <ele>2328.1</ele>
        <time>2022-01-06T09:33:33Z</time>
      </trkpt>
      <trkpt lat="45.82624" lon="6.28682">
        <ele>2328.1</ele>
        <time>2022-01-06T09:33:34Z</time>
      </trkpt>
      <trkpt lat="45.82624" lon="6.28682">
        <ele>2329.2</ele>
        <time>2022-01-06T09:33:35Z</time>
      </trkpt>
      <trkpt lat="45.82625" lon="6.28681">
        <ele>2329.2</ele>
        <time>2022-01-06T09:33:36Z</time>
      </trkpt>
      <trkpt lat="45.82627" lon="6.28682">
        <ele>2329.2</ele>
        <time>2022-01-06T09:33:37Z</time>
      </trkpt>
      <trkpt lat="45.82627" lon="6.28683">
        <ele>2329.2</ele>
        <time>2022-01-06T09:33:38Z</time>
      </trkpt>
      <trkpt lat="45.82627" lon="6.28683">
        <ele>2330.1</ele>
        <time>2022-01-06T09:33:39Z</time>
      </trkpt>
      <trkpt lat="45.82628" lon="6.28684">
        <ele>2330.1</ele>
        <time>2022-01-06T09:33:40Z</time>
      </trkpt>
      <trkpt lat="45.82628" lon="6.28684">
        <ele>2330.1</ele>
        <time>2022-01-06T09:33:41Z</time>
      </trkpt>
      <trkpt lat="45.82629" lon="6.28684">
        <ele>2330.1</ele>
        <time>2022-01-06T09:33:42Z</time>
      </trkpt>
      <trkpt lat="45.82629" lon="6.28683">
        <ele>2330.1</ele>
        <time>2022-01-06T09:33:43Z</time>
      </trkpt>
      <trkpt lat="45.8263" lon="6.28684">
        <ele>2330.1</ele>
        <time>2022-01-06T09:33:44Z</time>
      </trkpt>
      <trkpt lat="45.82631" lon="6.28685">
        <ele>2330.1</ele>
        <time>2022-01-06T09:33:45Z</time>
      </trkpt>
      <trkpt lat="45.82631" lon="6.28686">
        <ele>2330.1</ele>
        <time>2022-01-06T09:33:46Z</time>
      </trkpt>
      <trkpt lat="45.82632" lon="6.28686">
        <ele>2331.1</ele>
        <time>2022-01-06T09:33:47Z</time>
      </trkpt>
      <trkpt lat="45.82633" lon="6.28686">
        <ele>2331.1</ele>
        <time>2022-01-06T09:33:48Z</time>
      </trkpt>
      <trkpt lat="45.82634" lon="6.28686">
        <ele>2331.1</ele>
        <time>2022-01-06T09:33:49Z</time>
      </trkpt>
      <trkpt lat="45.82634" lon="6.28685">
        <ele>2331.1</ele>
        <time>2022-01-06T09:33:50Z</time>
      </trkpt>
      <trkpt lat="45.82635" lon="6.28685">
        <ele>2331.1</ele>
        <time>2022-01-06T09:33:51Z</time>
      </trkpt>
      <trkpt lat="45.82636" lon="6.28685">
        <ele>2331.1</ele>
        <time>2022-01-06T09:33:52Z</time>
      </trkpt>
      <trkpt lat="45.82636" lon="6.28686">
        <ele>2332.1</ele>
        <time>2022-01-06T09:33:53Z</time>
      </trkpt>
      <trkpt lat="45.82637" lon="6.28686">
        <ele>2332.1</ele>
        <time>2022-01-06T09:33:54Z</time>
      </trkpt>
      <trkpt lat="45.82638" lon="6.28686">
        <ele>2332.1</ele>
        <time>2022-01-06T09:33:55Z</time>
      </trkpt>
      <trkpt lat="45.82638" lon="6.28686">
        <ele>2332.1</ele>
        <time>2022-01-06T09:33:56Z</time>
      </trkpt>
      <trkpt lat="45.82639" lon="6.28686">
        <ele>2332.1</ele>
        <time>2022-01-06T09:33:57Z</time>
      </trkpt>
      <trkpt lat="45.82639" lon="6.28686">
        <ele>2332.1</ele>
        <time>2022-01-06T09:33:58Z</time>
      </trkpt>
      <trkpt lat="45.82641" lon="6.28686">
        <ele>2333.1</ele>
        <time>2022-01-06T09:33:59Z</time>
      </trkpt>
      <trkpt lat="45.82641" lon="6.28686">
        <ele>2333.1</ele>
        <time>2022-01-06T09:34:00Z</time>
      </trkpt>
      <trkpt lat="45.82642" lon="6.28686">
        <ele>2333.1</ele>
        <time>2022-01-06T09:34:01Z</time>
      </trkpt>
      <trkpt lat="45.82643" lon="6.28686">
        <ele>2333.1</ele>
        <time>2022-01-06T09:34:02Z</time>
      </trkpt>
      <trkpt lat="45.82643" lon="6.28686">
        <ele>2333.1</ele>
        <time>2022-01-06T09:34:03Z</time>
      </trkpt>
      <trkpt lat="45.82644" lon="6.28686">
        <ele>2333.1</ele>
        <time>2022-01-06T09:34:04Z</time>
      </trkpt>
      <trkpt lat="45.82645" lon="6.28686">
        <ele>2334</ele>
        <time>2022-01-06T09:34:05Z</time>
      </trkpt>
      <trkpt lat="45.82646" lon="6.28685">
        <ele>2334</ele>
        <time>2022-01-06T09:34:06Z</time>
      </trkpt>
      <trkpt lat="45.82646" lon="6.28685">
        <ele>2334</ele>
        <time>2022-01-06T09:34:07Z</time>
      </trkpt>
      <trkpt lat="45.82647" lon="6.28685">
        <ele>2334</ele>
        <time>2022-01-06T09:34:08Z</time>
      </trkpt>
      <trkpt lat="45.82648" lon="6.28685">
        <ele>2335.1</ele>
        <time>2022-01-06T09:34:09Z</time>
      </trkpt>
      <trkpt lat="45.82648" lon="6.28685">
        <ele>2335.1</ele>
        <time>2022-01-06T09:34:10Z</time>
      </trkpt>
      <trkpt lat="45.82648" lon="6.28685">
        <ele>2335.1</ele>
        <time>2022-01-06T09:34:11Z</time>
      </trkpt>
      <trkpt lat="45.82648" lon="6.28685">
        <ele>2335.1</ele>
        <time>2022-01-06T09:34:12Z</time>
      </trkpt>
      <trkpt lat="45.82648" lon="6.28685">
        <ele>2335.1</ele>
        <time>2022-01-06T09:34:13Z</time>
      </trkpt>
      <trkpt lat="45.82648" lon="6.28685">
        <ele>2335.1</ele>
        <time>2022-01-06T09:34:14Z</time>
      </trkpt>
      <trkpt lat="45.82647" lon="6.28685">
        <ele>2335.1</ele>
        <time>2022-01-06T09:34:15Z</time>
      </trkpt>
      <trkpt lat="45.82647" lon="6.28684">
        <ele>2335.1</ele>
        <time>2022-01-06T09:34:16Z</time>
      </trkpt>
      <trkpt lat="45.82647" lon="6.28684">
        <ele>2335.1</ele>
        <time>2022-01-06T09:34:17Z</time>
      </trkpt>
      <trkpt lat="45.82647" lon="6.28684">
        <ele>2335.1</ele>
        <time>2022-01-06T09:34:18Z</time>
      </trkpt>
      <trkpt lat="45.82646" lon="6.28684">
        <ele>2335.1</ele>
        <time>2022-01-06T09:34:19Z</time>
      </trkpt>
      <trkpt lat="45.82646" lon="6.28684">
        <ele>2335.1</ele>
        <time>2022-01-06T09:34:20Z</time>
      </trkpt>
      <trkpt lat="45.82646" lon="6.28684">
        <ele>2335.1</ele>
        <time>2022-01-06T09:34:21Z</time>
      </trkpt>
      <trkpt lat="45.82646" lon="6.28683">
        <ele>2335.1</ele>
        <time>2022-01-06T09:34:22Z</time>
      </trkpt>
      <trkpt lat="45.82645" lon="6.28683">
        <ele>2335.1</ele>
        <time>2022-01-06T09:34:23Z</time>
      </trkpt>
      <trkpt lat="45.82645" lon="6.28682">
        <ele>2335.1</ele>
        <time>2022-01-06T09:34:24Z</time>
      </trkpt>
      <trkpt lat="45.82644" lon="6.28682">
        <ele>2336.2</ele>
        <time>2022-01-06T09:34:25Z</time>
      </trkpt>
      <trkpt lat="45.82644" lon="6.28682">
        <ele>2336.2</ele>
        <time>2022-01-06T09:34:26Z</time>
      </trkpt>
      <trkpt lat="45.82643" lon="6.28681">
        <ele>2336.2</ele>
        <time>2022-01-06T09:34:27Z</time>
      </trkpt>
      <trkpt lat="45.82643" lon="6.28681">
        <ele>2336.2</ele>
        <time>2022-01-06T09:34:28Z</time>
      </trkpt>
      <trkpt lat="45.82642" lon="6.2868">
        <ele>2337.1</ele>
        <time>2022-01-06T09:34:29Z</time>
      </trkpt>
      <trkpt lat="45.82642" lon="6.2868">
        <ele>2337.1</ele>
        <time>2022-01-06T09:34:30Z</time>
      </trkpt>
      <trkpt lat="45.82641" lon="6.28679">
        <ele>2337.1</ele>
        <time>2022-01-06T09:34:31Z</time>
      </trkpt>
      <trkpt lat="45.8264" lon="6.28679">
        <ele>2337.1</ele>
        <time>2022-01-06T09:34:32Z</time>
      </trkpt>
      <trkpt lat="45.8264" lon="6.28678">
        <ele>2338.1</ele>
        <time>2022-01-06T09:34:33Z</time>
      </trkpt>
      <trkpt lat="45.8264" lon="6.28677">
        <ele>2338.1</ele>
        <time>2022-01-06T09:34:34Z</time>
      </trkpt>
      <trkpt lat="45.8264" lon="6.28677">
        <ele>2338.1</ele>
        <time>2022-01-06T09:34:35Z</time>
      </trkpt>
      <trkpt lat="45.82639" lon="6.28676">
        <ele>2338.1</ele>
        <time>2022-01-06T09:34:36Z</time>
      </trkpt>
      <trkpt lat="45.82639" lon="6.28675">
        <ele>2338.1</ele>
        <time>2022-01-06T09:34:37Z</time>
      </trkpt>
      <trkpt lat="45.82639" lon="6.28675">
        <ele>2338.1</ele>
        <time>2022-01-06T09:34:38Z</time>
      </trkpt>
      <trkpt lat="45.82639" lon="6.28674">
        <ele>2338.1</ele>
        <time>2022-01-06T09:34:39Z</time>
      </trkpt>
      <trkpt lat="45.82638" lon="6.28673">
        <ele>2338.1</ele>
        <time>2022-01-06T09:34:40Z</time>
      </trkpt>
      <trkpt lat="45.82638" lon="6.28673">
        <ele>2338.1</ele>
        <time>2022-01-06T09:34:41Z</time>
      </trkpt>
      <trkpt lat="45.82637" lon="6.28672">
        <ele>2338.1</ele>
        <time>2022-01-06T09:34:42Z</time>
      </trkpt>
      <trkpt lat="45.82637" lon="6.28672">
        <ele>2338.1</ele>
        <time>2022-01-06T09:34:43Z</time>
      </trkpt>
      <trkpt lat="45.82637" lon="6.28671">
        <ele>2338.1</ele>
        <time>2022-01-06T09:34:44Z</time>
      </trkpt>
      <trkpt lat="45.82636" lon="6.2867">
        <ele>2339.1</ele>
        <time>2022-01-06T09:34:45Z</time>
      </trkpt>
      <trkpt lat="45.82636" lon="6.28669">
        <ele>2339.1</ele>
        <time>2022-01-06T09:34:46Z</time>
      </trkpt>
      <trkpt lat="45.82636" lon="6.28668">
        <ele>2339.1</ele>
        <time>2022-01-06T09:34:47Z</time>
      </trkpt>
      <trkpt lat="45.82636" lon="6.28668">
        <ele>2339.1</ele>
        <time>2022-01-06T09:34:48Z</time>
      </trkpt>
      <trkpt lat="45.82635" lon="6.28667">
        <ele>2340.1</ele>
        <time>2022-01-06T09:34:49Z</time>
      </trkpt>
      <trkpt lat="45.82635" lon="6.28667">
        <ele>2340.1</ele>
        <time>2022-01-06T09:34:50Z</time>
      </trkpt>
      <trkpt lat="45.82635" lon="6.28666">
        <ele>2340.1</ele>
        <time>2022-01-06T09:34:51Z</time>
      </trkpt>
      <trkpt lat="45.82634" lon="6.28665">
        <ele>2340.1</ele>
        <time>2022-01-06T09:34:52Z</time>
      </trkpt>
      <trkpt lat="45.82634" lon="6.28665">
        <ele>2340.1</ele>
        <time>2022-01-06T09:34:53Z</time>
      </trkpt>
      <trkpt lat="45.82634" lon="6.28665">
        <ele>2340.1</ele>
        <time>2022-01-06T09:34:54Z</time>
      </trkpt>
      <trkpt lat="45.82633" lon="6.28664">
        <ele>2340.1</ele>
        <time>2022-01-06T09:34:55Z</time>
      </trkpt>
      <trkpt lat="45.82633" lon="6.28664">
        <ele>2340.1</ele>
        <time>2022-01-06T09:34:56Z</time>
      </trkpt>
      <trkpt lat="45.82632" lon="6.28664">
        <ele>2341</ele>
        <time>2022-01-06T09:34:57Z</time>
      </trkpt>
      <trkpt lat="45.82632" lon="6.28664">
        <ele>2341</ele>
        <time>2022-01-06T09:34:58Z</time>
      </trkpt>
      <trkpt lat="45.82631" lon="6.28664">
        <ele>2341</ele>
        <time>2022-01-06T09:34:59Z</time>
      </trkpt>
      <trkpt lat="45.8263" lon="6.28664">
        <ele>2341</ele>
        <time>2022-01-06T09:35:00Z</time>
      </trkpt>
      <trkpt lat="45.8263" lon="6.28663">
        <ele>2341</ele>
        <time>2022-01-06T09:35:01Z</time>
      </trkpt>
      <trkpt lat="45.8263" lon="6.28663">
        <ele>2341</ele>
        <time>2022-01-06T09:35:02Z</time>
      </trkpt>
      <trkpt lat="45.82629" lon="6.28663">
        <ele>2342.1</ele>
        <time>2022-01-06T09:35:03Z</time>
      </trkpt>
      <trkpt lat="45.82629" lon="6.28662">
        <ele>2342.1</ele>
        <time>2022-01-06T09:35:04Z</time>
      </trkpt>
      <trkpt lat="45.8263" lon="6.28662">
        <ele>2343</ele>
        <time>2022-01-06T09:35:05Z</time>
      </trkpt>
      <trkpt lat="45.8263" lon="6.28661">
        <ele>2343</ele>
        <time>2022-01-06T09:35:06Z</time>
      </trkpt>
      <trkpt lat="45.82629" lon="6.28661">
        <ele>2343</ele>
        <time>2022-01-06T09:35:07Z</time>
      </trkpt>
      <trkpt lat="45.8263" lon="6.28661">
        <ele>2343</ele>
        <time>2022-01-06T09:35:08Z</time>
      </trkpt>
      <trkpt lat="45.8263" lon="6.28661">
        <ele>2343</ele>
        <time>2022-01-06T09:35:09Z</time>
      </trkpt>
      <trkpt lat="45.8263" lon="6.28661">
        <ele>2343</ele>
        <time>2022-01-06T09:35:10Z</time>
      </trkpt>
      <trkpt lat="45.82631" lon="6.2866">
        <ele>2343</ele>
        <time>2022-01-06T09:35:11Z</time>
      </trkpt>
      <trkpt lat="45.82631" lon="6.28659">
        <ele>2343</ele>
        <time>2022-01-06T09:35:12Z</time>
      </trkpt>
      <trkpt lat="45.82631" lon="6.28658">
        <ele>2344.1</ele>
        <time>2022-01-06T09:35:13Z</time>
      </trkpt>
      <trkpt lat="45.82631" lon="6.28658">
        <ele>2344.1</ele>
        <time>2022-01-06T09:35:14Z</time>
      </trkpt>
      <trkpt lat="45.82631" lon="6.28657">
        <ele>2344.1</ele>
        <time>2022-01-06T09:35:15Z</time>
      </trkpt>
      <trkpt lat="45.82632" lon="6.28657">
        <ele>2344.1</ele>
        <time>2022-01-06T09:35:16Z</time>
      </trkpt>
      <trkpt lat="45.82633" lon="6.28656">
        <ele>2344.1</ele>
        <time>2022-01-06T09:35:17Z</time>
      </trkpt>
      <trkpt lat="45.82634" lon="6.28655">
        <ele>2344.1</ele>
        <time>2022-01-06T09:35:18Z</time>
      </trkpt>
      <trkpt lat="45.82635" lon="6.28654">
        <ele>2344.1</ele>
        <time>2022-01-06T09:35:19Z</time>
      </trkpt>
      <trkpt lat="45.82635" lon="6.28654">
        <ele>2344.1</ele>
        <time>2022-01-06T09:35:20Z</time>
      </trkpt>
      <trkpt lat="45.82635" lon="6.28656">
        <ele>2344.1</ele>
        <time>2022-01-06T09:35:21Z</time>
      </trkpt>
      <trkpt lat="45.82635" lon="6.28657">
        <ele>2344.1</ele>
        <time>2022-01-06T09:35:22Z</time>
      </trkpt>
      <trkpt lat="45.82635" lon="6.28658">
        <ele>2344.1</ele>
        <time>2022-01-06T09:35:23Z</time>
      </trkpt>
      <trkpt lat="45.82635" lon="6.28658">
        <ele>2344.1</ele>
        <time>2022-01-06T09:35:24Z</time>
      </trkpt>
      <trkpt lat="45.82635" lon="6.28658">
        <ele>2344.1</ele>
        <time>2022-01-06T09:35:25Z</time>
      </trkpt>
      <trkpt lat="45.82635" lon="6.28658">
        <ele>2344.1</ele>
        <time>2022-01-06T09:35:26Z</time>
      </trkpt>
      <trkpt lat="45.82635" lon="6.28658">
        <ele>2344.1</ele>
        <time>2022-01-06T09:35:27Z</time>
      </trkpt>
      <trkpt lat="45.82634" lon="6.28659">
        <ele>2344.1</ele>
        <time>2022-01-06T09:35:28Z</time>
      </trkpt>
      <trkpt lat="45.82634" lon="6.28659">
        <ele>2344.1</ele>
        <time>2022-01-06T09:35:29Z</time>
      </trkpt>
      <trkpt lat="45.82634" lon="6.28658">
        <ele>2344.1</ele>
        <time>2022-01-06T09:35:30Z</time>
      </trkpt>
      <trkpt lat="45.82634" lon="6.28658">
        <ele>2344.1</ele>
        <time>2022-01-06T09:35:31Z</time>
      </trkpt>
      <trkpt lat="45.82634" lon="6.28657">
        <ele>2344.1</ele>
        <time>2022-01-06T09:35:32Z</time>
      </trkpt>
      <trkpt lat="45.82634" lon="6.28656">
        <ele>2344.1</ele>
        <time>2022-01-06T09:35:33Z</time>
      </trkpt>
      <trkpt lat="45.82634" lon="6.28656">
        <ele>2344.1</ele>
        <time>2022-01-06T09:35:34Z</time>
      </trkpt>
      <trkpt lat="45.82634" lon="6.28655">
        <ele>2344.1</ele>
        <time>2022-01-06T09:35:35Z</time>
      </trkpt>
      <trkpt lat="45.82633" lon="6.28655">
        <ele>2344.1</ele>
        <time>2022-01-06T09:35:36Z</time>
      </trkpt>
      <trkpt lat="45.82633" lon="6.28654">
        <ele>2344.1</ele>
        <time>2022-01-06T09:35:37Z</time>
      </trkpt>
      <trkpt lat="45.82633" lon="6.28654">
        <ele>2344.1</ele>
        <time>2022-01-06T09:35:38Z</time>
      </trkpt>
      <trkpt lat="45.82633" lon="6.28654">
        <ele>2344.1</ele>
        <time>2022-01-06T09:35:39Z</time>
      </trkpt>
      <trkpt lat="45.82633" lon="6.28653">
        <ele>2344.1</ele>
        <time>2022-01-06T09:35:40Z</time>
      </trkpt>
      <trkpt lat="45.82633" lon="6.28653">
        <ele>2346.1</ele>
        <time>2022-01-06T09:35:41Z</time>
      </trkpt>
      <trkpt lat="45.82633" lon="6.28653">
        <ele>2346.1</ele>
        <time>2022-01-06T09:35:42Z</time>
      </trkpt>
      <trkpt lat="45.82634" lon="6.28654">
        <ele>2346.1</ele>
        <time>2022-01-06T09:35:43Z</time>
      </trkpt>
      <trkpt lat="45.82634" lon="6.28654">
        <ele>2346.1</ele>
        <time>2022-01-06T09:35:44Z</time>
      </trkpt>
      <trkpt lat="45.82634" lon="6.28654">
        <ele>2346.1</ele>
        <time>2022-01-06T09:35:45Z</time>
      </trkpt>
      <trkpt lat="45.82635" lon="6.28654">
        <ele>2346.1</ele>
        <time>2022-01-06T09:35:46Z</time>
      </trkpt>
      <trkpt lat="45.82635" lon="6.28654">
        <ele>2346.1</ele>
        <time>2022-01-06T09:35:47Z</time>
      </trkpt>
      <trkpt lat="45.82635" lon="6.28654">
        <ele>2346.1</ele>
        <time>2022-01-06T09:35:48Z</time>
      </trkpt>
      <trkpt lat="45.82635" lon="6.28654">
        <ele>2346.1</ele>
        <time>2022-01-06T09:35:49Z</time>
      </trkpt>
      <trkpt lat="45.82636" lon="6.28654">
        <ele>2346.1</ele>
        <time>2022-01-06T09:35:50Z</time>
      </trkpt>
      <trkpt lat="45.82637" lon="6.28655">
        <ele>2346.1</ele>
        <time>2022-01-06T09:35:51Z</time>
      </trkpt>
      <trkpt lat="45.82637" lon="6.28655">
        <ele>2346.1</ele>
        <time>2022-01-06T09:35:52Z</time>
      </trkpt>
      <trkpt lat="45.82637" lon="6.28654">
        <ele>2346.1</ele>
        <time>2022-01-06T09:35:53Z</time>
      </trkpt>
      <trkpt lat="45.82637" lon="6.28654">
        <ele>2346.1</ele>
        <time>2022-01-06T09:35:54Z</time>
      </trkpt>
      <trkpt lat="45.82638" lon="6.28655">
        <ele>2346.1</ele>
        <time>2022-01-06T09:35:55Z</time>
      </trkpt>
      <trkpt lat="45.82639" lon="6.28655">
        <ele>2346.1</ele>
        <time>2022-01-06T09:35:56Z</time>
      </trkpt>
      <trkpt lat="45.82639" lon="6.28655">
        <ele>2349.1</ele>
        <time>2022-01-06T09:35:57Z</time>
      </trkpt>
      <trkpt lat="45.8264" lon="6.28655">
        <ele>2349.1</ele>
        <time>2022-01-06T09:35:58Z</time>
      </trkpt>
      <trkpt lat="45.8264" lon="6.28656">
        <ele>2349.1</ele>
        <time>2022-01-06T09:35:59Z</time>
      </trkpt>
      <trkpt lat="45.82641" lon="6.28655">
        <ele>2349.1</ele>
        <time>2022-01-06T09:36:00Z</time>
      </trkpt>
      <trkpt lat="45.82641" lon="6.28655">
        <ele>2349.1</ele>
        <time>2022-01-06T09:36:01Z</time>
      </trkpt>
      <trkpt lat="45.82642" lon="6.28654">
        <ele>2349.1</ele>
        <time>2022-01-06T09:36:02Z</time>
      </trkpt>
      <trkpt lat="45.82642" lon="6.28654">
        <ele>2349.1</ele>
        <time>2022-01-06T09:36:03Z</time>
      </trkpt>
      <trkpt lat="45.82643" lon="6.28654">
        <ele>2349.1</ele>
        <time>2022-01-06T09:36:04Z</time>
      </trkpt>
      <trkpt lat="45.82643" lon="6.28655">
        <ele>2350</ele>
        <time>2022-01-06T09:36:05Z</time>
      </trkpt>
      <trkpt lat="45.82643" lon="6.28655">
        <ele>2350</ele>
        <time>2022-01-06T09:36:06Z</time>
      </trkpt>
      <trkpt lat="45.82644" lon="6.28655">
        <ele>2350</ele>
        <time>2022-01-06T09:36:07Z</time>
      </trkpt>
      <trkpt lat="45.82644" lon="6.28655">
        <ele>2350</ele>
        <time>2022-01-06T09:36:08Z</time>
      </trkpt>
      <trkpt lat="45.82645" lon="6.28655">
        <ele>2350</ele>
        <time>2022-01-06T09:36:09Z</time>
      </trkpt>
      <trkpt lat="45.82645" lon="6.28655">
        <ele>2350</ele>
        <time>2022-01-06T09:36:10Z</time>
      </trkpt>
      <trkpt lat="45.82645" lon="6.28655">
        <ele>2351.1</ele>
        <time>2022-01-06T09:36:11Z</time>
      </trkpt>
      <trkpt lat="45.82646" lon="6.28655">
        <ele>2351.1</ele>
        <time>2022-01-06T09:36:12Z</time>
      </trkpt>
      <trkpt lat="45.82646" lon="6.28656">
        <ele>2351.1</ele>
        <time>2022-01-06T09:36:13Z</time>
      </trkpt>
      <trkpt lat="45.82647" lon="6.28656">
        <ele>2351.1</ele>
        <time>2022-01-06T09:36:14Z</time>
      </trkpt>
      <trkpt lat="45.82647" lon="6.28656">
        <ele>2352.2</ele>
        <time>2022-01-06T09:36:15Z</time>
      </trkpt>
      <trkpt lat="45.82647" lon="6.28656">
        <ele>2352.2</ele>
        <time>2022-01-06T09:36:16Z</time>
      </trkpt>
      <trkpt lat="45.82648" lon="6.28656">
        <ele>2352.2</ele>
        <time>2022-01-06T09:36:17Z</time>
      </trkpt>
      <trkpt lat="45.82648" lon="6.28657">
        <ele>2352.2</ele>
        <time>2022-01-06T09:36:18Z</time>
      </trkpt>
      <trkpt lat="45.82649" lon="6.28657">
        <ele>2352.2</ele>
        <time>2022-01-06T09:36:19Z</time>
      </trkpt>
      <trkpt lat="45.82649" lon="6.28657">
        <ele>2352.2</ele>
        <time>2022-01-06T09:36:20Z</time>
      </trkpt>
      <trkpt lat="45.8265" lon="6.28657">
        <ele>2353.1</ele>
        <time>2022-01-06T09:36:21Z</time>
      </trkpt>
      <trkpt lat="45.82651" lon="6.28657">
        <ele>2353.1</ele>
        <time>2022-01-06T09:36:22Z</time>
      </trkpt>
      <trkpt lat="45.82651" lon="6.28657">
        <ele>2353.1</ele>
        <time>2022-01-06T09:36:23Z</time>
      </trkpt>
      <trkpt lat="45.82651" lon="6.28657">
        <ele>2353.1</ele>
        <time>2022-01-06T09:36:24Z</time>
      </trkpt>
      <trkpt lat="45.82652" lon="6.28657">
        <ele>2354.2</ele>
        <time>2022-01-06T09:36:25Z</time>
      </trkpt>
      <trkpt lat="45.82652" lon="6.28657">
        <ele>2354.2</ele>
        <time>2022-01-06T09:36:26Z</time>
      </trkpt>
      <trkpt lat="45.82653" lon="6.28657">
        <ele>2355.1</ele>
        <time>2022-01-06T09:36:27Z</time>
      </trkpt>
      <trkpt lat="45.82653" lon="6.28657">
        <ele>2355.1</ele>
        <time>2022-01-06T09:36:28Z</time>
      </trkpt>
      <trkpt lat="45.82654" lon="6.28657">
        <ele>2355.1</ele>
        <time>2022-01-06T09:36:29Z</time>
      </trkpt>
      <trkpt lat="45.82655" lon="6.28656">
        <ele>2355.1</ele>
        <time>2022-01-06T09:36:30Z</time>
      </trkpt>
      <trkpt lat="45.82656" lon="6.28656">
        <ele>2355.1</ele>
        <time>2022-01-06T09:36:31Z</time>
      </trkpt>
      <trkpt lat="45.82657" lon="6.28656">
        <ele>2355.1</ele>
        <time>2022-01-06T09:36:32Z</time>
      </trkpt>
      <trkpt lat="45.82657" lon="6.28656">
        <ele>2355.1</ele>
        <time>2022-01-06T09:36:33Z</time>
      </trkpt>
      <trkpt lat="45.82658" lon="6.28656">
        <ele>2355.1</ele>
        <time>2022-01-06T09:36:34Z</time>
      </trkpt>
      <trkpt lat="45.8266" lon="6.28655">
        <ele>2355.1</ele>
        <time>2022-01-06T09:36:35Z</time>
      </trkpt>
      <trkpt lat="45.8266" lon="6.28655">
        <ele>2355.1</ele>
        <time>2022-01-06T09:36:36Z</time>
      </trkpt>
      <trkpt lat="45.82661" lon="6.28655">
        <ele>2355.1</ele>
        <time>2022-01-06T09:36:37Z</time>
      </trkpt>
      <trkpt lat="45.82661" lon="6.28654">
        <ele>2355.1</ele>
        <time>2022-01-06T09:36:38Z</time>
      </trkpt>
      <trkpt lat="45.82662" lon="6.28655">
        <ele>2356.1</ele>
        <time>2022-01-06T09:36:39Z</time>
      </trkpt>
      <trkpt lat="45.82663" lon="6.28655">
        <ele>2356.1</ele>
        <time>2022-01-06T09:36:40Z</time>
      </trkpt>
      <trkpt lat="45.82663" lon="6.28655">
        <ele>2356.1</ele>
        <time>2022-01-06T09:36:41Z</time>
      </trkpt>
      <trkpt lat="45.82664" lon="6.28655">
        <ele>2356.1</ele>
        <time>2022-01-06T09:36:42Z</time>
      </trkpt>
      <trkpt lat="45.82665" lon="6.28655">
        <ele>2357</ele>
        <time>2022-01-06T09:36:43Z</time>
      </trkpt>
      <trkpt lat="45.82665" lon="6.28655">
        <ele>2357</ele>
        <time>2022-01-06T09:36:44Z</time>
      </trkpt>
      <trkpt lat="45.82666" lon="6.28654">
        <ele>2357</ele>
        <time>2022-01-06T09:36:45Z</time>
      </trkpt>
      <trkpt lat="45.82667" lon="6.28654">
        <ele>2357</ele>
        <time>2022-01-06T09:36:46Z</time>
      </trkpt>
      <trkpt lat="45.82668" lon="6.28654">
        <ele>2357</ele>
        <time>2022-01-06T09:36:47Z</time>
      </trkpt>
      <trkpt lat="45.82669" lon="6.28653">
        <ele>2357</ele>
        <time>2022-01-06T09:36:48Z</time>
      </trkpt>
      <trkpt lat="45.82669" lon="6.28653">
        <ele>2358.1</ele>
        <time>2022-01-06T09:36:49Z</time>
      </trkpt>
      <trkpt lat="45.8267" lon="6.28653">
        <ele>2358.1</ele>
        <time>2022-01-06T09:36:50Z</time>
      </trkpt>
      <trkpt lat="45.8267" lon="6.28653">
        <ele>2358.1</ele>
        <time>2022-01-06T09:36:51Z</time>
      </trkpt>
      <trkpt lat="45.82672" lon="6.28653">
        <ele>2358.1</ele>
        <time>2022-01-06T09:36:52Z</time>
      </trkpt>
      <trkpt lat="45.82673" lon="6.28653">
        <ele>2358.1</ele>
        <time>2022-01-06T09:36:53Z</time>
      </trkpt>
      <trkpt lat="45.82673" lon="6.28653">
        <ele>2358.1</ele>
        <time>2022-01-06T09:36:54Z</time>
      </trkpt>
      <trkpt lat="45.82674" lon="6.28653">
        <ele>2359</ele>
        <time>2022-01-06T09:36:55Z</time>
      </trkpt>
      <trkpt lat="45.82674" lon="6.28653">
        <ele>2359</ele>
        <time>2022-01-06T09:36:56Z</time>
      </trkpt>
      <trkpt lat="45.82674" lon="6.28653">
        <ele>2359</ele>
        <time>2022-01-06T09:36:57Z</time>
      </trkpt>
      <trkpt lat="45.82675" lon="6.28652">
        <ele>2359</ele>
        <time>2022-01-06T09:36:58Z</time>
      </trkpt>
      <trkpt lat="45.82676" lon="6.28652">
        <ele>2359</ele>
        <time>2022-01-06T09:36:59Z</time>
      </trkpt>
      <trkpt lat="45.82676" lon="6.28652">
        <ele>2359</ele>
        <time>2022-01-06T09:37:00Z</time>
      </trkpt>
      <trkpt lat="45.82677" lon="6.28651">
        <ele>2359</ele>
        <time>2022-01-06T09:37:01Z</time>
      </trkpt>
      <trkpt lat="45.82678" lon="6.28652">
        <ele>2359</ele>
        <time>2022-01-06T09:37:02Z</time>
      </trkpt>
      <trkpt lat="45.82679" lon="6.28653">
        <ele>2360.1</ele>
        <time>2022-01-06T09:37:03Z</time>
      </trkpt>
      <trkpt lat="45.8268" lon="6.28653">
        <ele>2360.1</ele>
        <time>2022-01-06T09:37:04Z</time>
      </trkpt>
      <trkpt lat="45.8268" lon="6.28653">
        <ele>2360.1</ele>
        <time>2022-01-06T09:37:05Z</time>
      </trkpt>
      <trkpt lat="45.82681" lon="6.28653">
        <ele>2360.1</ele>
        <time>2022-01-06T09:37:06Z</time>
      </trkpt>
      <trkpt lat="45.82682" lon="6.28653">
        <ele>2361.2</ele>
        <time>2022-01-06T09:37:07Z</time>
      </trkpt>
      <trkpt lat="45.82682" lon="6.28653">
        <ele>2361.2</ele>
        <time>2022-01-06T09:37:08Z</time>
      </trkpt>
      <trkpt lat="45.82683" lon="6.28652">
        <ele>2361.2</ele>
        <time>2022-01-06T09:37:09Z</time>
      </trkpt>
      <trkpt lat="45.82683" lon="6.28652">
        <ele>2361.2</ele>
        <time>2022-01-06T09:37:10Z</time>
      </trkpt>
      <trkpt lat="45.82684" lon="6.28652">
        <ele>2362.1</ele>
        <time>2022-01-06T09:37:11Z</time>
      </trkpt>
      <trkpt lat="45.82684" lon="6.28652">
        <ele>2362.1</ele>
        <time>2022-01-06T09:37:12Z</time>
      </trkpt>
      <trkpt lat="45.82685" lon="6.28651">
        <ele>2362.1</ele>
        <time>2022-01-06T09:37:13Z</time>
      </trkpt>
      <trkpt lat="45.82686" lon="6.28651">
        <ele>2362.1</ele>
        <time>2022-01-06T09:37:14Z</time>
      </trkpt>
      <trkpt lat="45.82686" lon="6.2865">
        <ele>2363.1</ele>
        <time>2022-01-06T09:37:15Z</time>
      </trkpt>
      <trkpt lat="45.82687" lon="6.2865">
        <ele>2363.1</ele>
        <time>2022-01-06T09:37:16Z</time>
      </trkpt>
      <trkpt lat="45.82688" lon="6.2865">
        <ele>2363.1</ele>
        <time>2022-01-06T09:37:17Z</time>
      </trkpt>
      <trkpt lat="45.82689" lon="6.28649">
        <ele>2363.1</ele>
        <time>2022-01-06T09:37:18Z</time>
      </trkpt>
      <trkpt lat="45.82689" lon="6.28649">
        <ele>2363.1</ele>
        <time>2022-01-06T09:37:19Z</time>
      </trkpt>
      <trkpt lat="45.82689" lon="6.28649">
        <ele>2363.1</ele>
        <time>2022-01-06T09:37:20Z</time>
      </trkpt>
      <trkpt lat="45.8269" lon="6.28648">
        <ele>2364.1</ele>
        <time>2022-01-06T09:37:21Z</time>
      </trkpt>
      <trkpt lat="45.82691" lon="6.28648">
        <ele>2364.1</ele>
        <time>2022-01-06T09:37:22Z</time>
      </trkpt>
      <trkpt lat="45.82691" lon="6.28648">
        <ele>2364.1</ele>
        <time>2022-01-06T09:37:23Z</time>
      </trkpt>
      <trkpt lat="45.82692" lon="6.28647">
        <ele>2364.1</ele>
        <time>2022-01-06T09:37:24Z</time>
      </trkpt>
      <trkpt lat="45.82693" lon="6.28646">
        <ele>2365.1</ele>
        <time>2022-01-06T09:37:25Z</time>
      </trkpt>
      <trkpt lat="45.82693" lon="6.28646">
        <ele>2365.1</ele>
        <time>2022-01-06T09:37:26Z</time>
      </trkpt>
      <trkpt lat="45.82694" lon="6.28646">
        <ele>2365.1</ele>
        <time>2022-01-06T09:37:27Z</time>
      </trkpt>
      <trkpt lat="45.82695" lon="6.28646">
        <ele>2365.1</ele>
        <time>2022-01-06T09:37:28Z</time>
      </trkpt>
      <trkpt lat="45.82696" lon="6.28646">
        <ele>2366</ele>
        <time>2022-01-06T09:37:29Z</time>
      </trkpt>
      <trkpt lat="45.82696" lon="6.28645">
        <ele>2366</ele>
        <time>2022-01-06T09:37:30Z</time>
      </trkpt>
      <trkpt lat="45.82697" lon="6.28645">
        <ele>2366</ele>
        <time>2022-01-06T09:37:31Z</time>
      </trkpt>
      <trkpt lat="45.82698" lon="6.28644">
        <ele>2366</ele>
        <time>2022-01-06T09:37:32Z</time>
      </trkpt>
      <trkpt lat="45.82699" lon="6.28644">
        <ele>2366</ele>
        <time>2022-01-06T09:37:33Z</time>
      </trkpt>
      <trkpt lat="45.82699" lon="6.28644">
        <ele>2366</ele>
        <time>2022-01-06T09:37:34Z</time>
      </trkpt>
      <trkpt lat="45.827" lon="6.28643">
        <ele>2366</ele>
        <time>2022-01-06T09:37:35Z</time>
      </trkpt>
      <trkpt lat="45.82701" lon="6.28643">
        <ele>2366</ele>
        <time>2022-01-06T09:37:36Z</time>
      </trkpt>
      <trkpt lat="45.82701" lon="6.28643">
        <ele>2367.1</ele>
        <time>2022-01-06T09:37:37Z</time>
      </trkpt>
      <trkpt lat="45.82701" lon="6.28642">
        <ele>2367.1</ele>
        <time>2022-01-06T09:37:38Z</time>
      </trkpt>
      <trkpt lat="45.82702" lon="6.28641">
        <ele>2367.1</ele>
        <time>2022-01-06T09:37:39Z</time>
      </trkpt>
      <trkpt lat="45.82703" lon="6.28641">
        <ele>2367.1</ele>
        <time>2022-01-06T09:37:40Z</time>
      </trkpt>
      <trkpt lat="45.82703" lon="6.2864">
        <ele>2367.1</ele>
        <time>2022-01-06T09:37:41Z</time>
      </trkpt>
      <trkpt lat="45.82704" lon="6.2864">
        <ele>2367.1</ele>
        <time>2022-01-06T09:37:42Z</time>
      </trkpt>
      <trkpt lat="45.82705" lon="6.28639">
        <ele>2368.2</ele>
        <time>2022-01-06T09:37:43Z</time>
      </trkpt>
      <trkpt lat="45.82705" lon="6.28638">
        <ele>2368.2</ele>
        <time>2022-01-06T09:37:44Z</time>
      </trkpt>
      <trkpt lat="45.82706" lon="6.28637">
        <ele>2368.2</ele>
        <time>2022-01-06T09:37:45Z</time>
      </trkpt>
      <trkpt lat="45.82707" lon="6.28637">
        <ele>2368.2</ele>
        <time>2022-01-06T09:37:46Z</time>
      </trkpt>
      <trkpt lat="45.82708" lon="6.28636">
        <ele>2368.2</ele>
        <time>2022-01-06T09:37:47Z</time>
      </trkpt>
      <trkpt lat="45.82708" lon="6.28636">
        <ele>2368.2</ele>
        <time>2022-01-06T09:37:48Z</time>
      </trkpt>
      <trkpt lat="45.82708" lon="6.28635">
        <ele>2368.2</ele>
        <time>2022-01-06T09:37:49Z</time>
      </trkpt>
      <trkpt lat="45.82709" lon="6.28634">
        <ele>2368.2</ele>
        <time>2022-01-06T09:37:50Z</time>
      </trkpt>
      <trkpt lat="45.82709" lon="6.28634">
        <ele>2368.2</ele>
        <time>2022-01-06T09:37:51Z</time>
      </trkpt>
      <trkpt lat="45.82709" lon="6.28634">
        <ele>2368.2</ele>
        <time>2022-01-06T09:37:52Z</time>
      </trkpt>
      <trkpt lat="45.82709" lon="6.28634">
        <ele>2370.2</ele>
        <time>2022-01-06T09:37:53Z</time>
      </trkpt>
      <trkpt lat="45.82709" lon="6.28634">
        <ele>2370.2</ele>
        <time>2022-01-06T09:37:54Z</time>
      </trkpt>
      <trkpt lat="45.82708" lon="6.28634">
        <ele>2370.2</ele>
        <time>2022-01-06T09:37:55Z</time>
      </trkpt>
      <trkpt lat="45.82708" lon="6.28633">
        <ele>2370.2</ele>
        <time>2022-01-06T09:37:56Z</time>
      </trkpt>
      <trkpt lat="45.82708" lon="6.28632">
        <ele>2370.2</ele>
        <time>2022-01-06T09:37:57Z</time>
      </trkpt>
      <trkpt lat="45.82708" lon="6.28632">
        <ele>2370.2</ele>
        <time>2022-01-06T09:37:58Z</time>
      </trkpt>
      <trkpt lat="45.82708" lon="6.28632">
        <ele>2370.2</ele>
        <time>2022-01-06T09:37:59Z</time>
      </trkpt>
      <trkpt lat="45.82708" lon="6.28632">
        <ele>2370.2</ele>
        <time>2022-01-06T09:38:00Z</time>
      </trkpt>
      <trkpt lat="45.82708" lon="6.28633">
        <ele>2371.1</ele>
        <time>2022-01-06T09:38:01Z</time>
      </trkpt>
      <trkpt lat="45.82708" lon="6.28633">
        <ele>2371.1</ele>
        <time>2022-01-06T09:38:02Z</time>
      </trkpt>
      <trkpt lat="45.82707" lon="6.28633">
        <ele>2371.1</ele>
        <time>2022-01-06T09:38:03Z</time>
      </trkpt>
      <trkpt lat="45.82707" lon="6.28634">
        <ele>2371.1</ele>
        <time>2022-01-06T09:38:04Z</time>
      </trkpt>
      <trkpt lat="45.82707" lon="6.28634">
        <ele>2371.1</ele>
        <time>2022-01-06T09:38:05Z</time>
      </trkpt>
      <trkpt lat="45.82707" lon="6.28634">
        <ele>2371.1</ele>
        <time>2022-01-06T09:38:06Z</time>
      </trkpt>
      <trkpt lat="45.82707" lon="6.28634">
        <ele>2371.1</ele>
        <time>2022-01-06T09:38:07Z</time>
      </trkpt>
      <trkpt lat="45.82707" lon="6.28634">
        <ele>2371.1</ele>
        <time>2022-01-06T09:38:08Z</time>
      </trkpt>
      <trkpt lat="45.82707" lon="6.28634">
        <ele>2371.1</ele>
        <time>2022-01-06T09:38:09Z</time>
      </trkpt>
      <trkpt lat="45.82707" lon="6.28634">
        <ele>2371.1</ele>
        <time>2022-01-06T09:38:10Z</time>
      </trkpt>
      <trkpt lat="45.82707" lon="6.28634">
        <ele>2372.1</ele>
        <time>2022-01-06T09:38:11Z</time>
      </trkpt>
      <trkpt lat="45.82707" lon="6.28634">
        <ele>2372.1</ele>
        <time>2022-01-06T09:38:12Z</time>
      </trkpt>
      <trkpt lat="45.82707" lon="6.28634">
        <ele>2373</ele>
        <time>2022-01-06T09:38:13Z</time>
      </trkpt>
      <trkpt lat="45.82707" lon="6.28634">
        <ele>2373</ele>
        <time>2022-01-06T09:38:14Z</time>
      </trkpt>
      <trkpt lat="45.82707" lon="6.28634">
        <ele>2373</ele>
        <time>2022-01-06T09:38:15Z</time>
      </trkpt>
      <trkpt lat="45.82707" lon="6.28634">
        <ele>2373</ele>
        <time>2022-01-06T09:38:16Z</time>
      </trkpt>
      <trkpt lat="45.82707" lon="6.28634">
        <ele>2373</ele>
        <time>2022-01-06T09:38:17Z</time>
      </trkpt>
      <trkpt lat="45.82706" lon="6.28633">
        <ele>2373</ele>
        <time>2022-01-06T09:38:18Z</time>
      </trkpt>
      <trkpt lat="45.82705" lon="6.28633">
        <ele>2374.1</ele>
        <time>2022-01-06T09:38:19Z</time>
      </trkpt>
      <trkpt lat="45.82704" lon="6.28633">
        <ele>2374.1</ele>
        <time>2022-01-06T09:38:20Z</time>
      </trkpt>
      <trkpt lat="45.82702" lon="6.28633">
        <ele>2374.1</ele>
        <time>2022-01-06T09:38:21Z</time>
      </trkpt>
      <trkpt lat="45.82701" lon="6.28632">
        <ele>2374.1</ele>
        <time>2022-01-06T09:38:22Z</time>
      </trkpt>
      <trkpt lat="45.827" lon="6.28632">
        <ele>2374.1</ele>
        <time>2022-01-06T09:38:23Z</time>
      </trkpt>
      <trkpt lat="45.82699" lon="6.28631">
        <ele>2374.1</ele>
        <time>2022-01-06T09:38:24Z</time>
      </trkpt>
      <trkpt lat="45.82698" lon="6.2863">
        <ele>2374.1</ele>
        <time>2022-01-06T09:38:25Z</time>
      </trkpt>
      <trkpt lat="45.82697" lon="6.2863">
        <ele>2374.1</ele>
        <time>2022-01-06T09:38:26Z</time>
      </trkpt>
      <trkpt lat="45.82697" lon="6.28629">
        <ele>2374.1</ele>
        <time>2022-01-06T09:38:27Z</time>
      </trkpt>
      <trkpt lat="45.82697" lon="6.28629">
        <ele>2374.1</ele>
        <time>2022-01-06T09:38:28Z</time>
      </trkpt>
      <trkpt lat="45.82697" lon="6.28628">
        <ele>2374.1</ele>
        <time>2022-01-06T09:38:29Z</time>
      </trkpt>
      <trkpt lat="45.82697" lon="6.28628">
        <ele>2374.1</ele>
        <time>2022-01-06T09:38:30Z</time>
      </trkpt>
      <trkpt lat="45.82697" lon="6.28627">
        <ele>2375</ele>
        <time>2022-01-06T09:38:31Z</time>
      </trkpt>
      <trkpt lat="45.82697" lon="6.28627">
        <ele>2375</ele>
        <time>2022-01-06T09:38:32Z</time>
      </trkpt>
      <trkpt lat="45.82697" lon="6.28627">
        <ele>2375</ele>
        <time>2022-01-06T09:38:33Z</time>
      </trkpt>
      <trkpt lat="45.82697" lon="6.28628">
        <ele>2375</ele>
        <time>2022-01-06T09:38:34Z</time>
      </trkpt>
      <trkpt lat="45.82697" lon="6.28628">
        <ele>2376.1</ele>
        <time>2022-01-06T09:38:35Z</time>
      </trkpt>
      <trkpt lat="45.82697" lon="6.28628">
        <ele>2376.1</ele>
        <time>2022-01-06T09:38:36Z</time>
      </trkpt>
      <trkpt lat="45.82697" lon="6.28628">
        <ele>2376.1</ele>
        <time>2022-01-06T09:38:37Z</time>
      </trkpt>
      <trkpt lat="45.82697" lon="6.28627">
        <ele>2376.1</ele>
        <time>2022-01-06T09:38:38Z</time>
      </trkpt>
      <trkpt lat="45.82697" lon="6.28627">
        <ele>2376.1</ele>
        <time>2022-01-06T09:38:39Z</time>
      </trkpt>
      <trkpt lat="45.82697" lon="6.28627">
        <ele>2376.1</ele>
        <time>2022-01-06T09:38:40Z</time>
      </trkpt>
      <trkpt lat="45.82697" lon="6.28627">
        <ele>2376.1</ele>
        <time>2022-01-06T09:38:41Z</time>
      </trkpt>
      <trkpt lat="45.82697" lon="6.28627">
        <ele>2376.1</ele>
        <time>2022-01-06T09:38:42Z</time>
      </trkpt>
      <trkpt lat="45.82697" lon="6.28627">
        <ele>2376.1</ele>
        <time>2022-01-06T09:38:43Z</time>
      </trkpt>
      <trkpt lat="45.82697" lon="6.28627">
        <ele>2376.1</ele>
        <time>2022-01-06T09:38:44Z</time>
      </trkpt>
      <trkpt lat="45.82697" lon="6.28627">
        <ele>2376.1</ele>
        <time>2022-01-06T09:38:45Z</time>
      </trkpt>
      <trkpt lat="45.82697" lon="6.28627">
        <ele>2376.1</ele>
        <time>2022-01-06T09:38:46Z</time>
      </trkpt>
      <trkpt lat="45.82697" lon="6.28627">
        <ele>2375</ele>
        <time>2022-01-06T09:38:47Z</time>
      </trkpt>
      <trkpt lat="45.82697" lon="6.28627">
        <ele>2375</ele>
        <time>2022-01-06T09:38:48Z</time>
      </trkpt>
      <trkpt lat="45.82697" lon="6.28627">
        <ele>2376.1</ele>
        <time>2022-01-06T09:38:49Z</time>
      </trkpt>
      <trkpt lat="45.82697" lon="6.28627">
        <ele>2376.1</ele>
        <time>2022-01-06T09:38:50Z</time>
      </trkpt>
      <trkpt lat="45.82697" lon="6.28627">
        <ele>2376.1</ele>
        <time>2022-01-06T09:38:51Z</time>
      </trkpt>
      <trkpt lat="45.82697" lon="6.28627">
        <ele>2376.1</ele>
        <time>2022-01-06T09:38:52Z</time>
      </trkpt>
      <trkpt lat="45.82697" lon="6.28627">
        <ele>2376.1</ele>
        <time>2022-01-06T09:38:53Z</time>
      </trkpt>
      <trkpt lat="45.82697" lon="6.28626">
        <ele>2376.1</ele>
        <time>2022-01-06T09:38:54Z</time>
      </trkpt>
      <trkpt lat="45.82697" lon="6.28626">
        <ele>2376.1</ele>
        <time>2022-01-06T09:38:55Z</time>
      </trkpt>
      <trkpt lat="45.82697" lon="6.28626">
        <ele>2376.1</ele>
        <time>2022-01-06T09:38:56Z</time>
      </trkpt>
      <trkpt lat="45.82697" lon="6.28626">
        <ele>2376.1</ele>
        <time>2022-01-06T09:38:57Z</time>
      </trkpt>
      <trkpt lat="45.82697" lon="6.28626">
        <ele>2376.1</ele>
        <time>2022-01-06T09:38:58Z</time>
      </trkpt>
      <trkpt lat="45.82697" lon="6.28626">
        <ele>2376.1</ele>
        <time>2022-01-06T09:38:59Z</time>
      </trkpt>
      <trkpt lat="45.82697" lon="6.28625">
        <ele>2376.1</ele>
        <time>2022-01-06T09:39:00Z</time>
      </trkpt>
      <trkpt lat="45.82697" lon="6.28625">
        <ele>2376.1</ele>
        <time>2022-01-06T09:39:01Z</time>
      </trkpt>
      <trkpt lat="45.82697" lon="6.28625">
        <ele>2376.1</ele>
        <time>2022-01-06T09:39:02Z</time>
      </trkpt>
      <trkpt lat="45.82696" lon="6.28625">
        <ele>2376.1</ele>
        <time>2022-01-06T09:39:03Z</time>
      </trkpt>
      <trkpt lat="45.82696" lon="6.28625">
        <ele>2376.1</ele>
        <time>2022-01-06T09:39:04Z</time>
      </trkpt>
      <trkpt lat="45.82696" lon="6.28625">
        <ele>2376.1</ele>
        <time>2022-01-06T09:39:05Z</time>
      </trkpt>
      <trkpt lat="45.82696" lon="6.28625">
        <ele>2376.1</ele>
        <time>2022-01-06T09:39:06Z</time>
      </trkpt>
      <trkpt lat="45.82696" lon="6.28625">
        <ele>2375</ele>
        <time>2022-01-06T09:39:07Z</time>
      </trkpt>
      <trkpt lat="45.82696" lon="6.28625">
        <ele>2375</ele>
        <time>2022-01-06T09:39:08Z</time>
      </trkpt>
      <trkpt lat="45.82696" lon="6.28625">
        <ele>2375</ele>
        <time>2022-01-06T09:39:09Z</time>
      </trkpt>
      <trkpt lat="45.82696" lon="6.28625">
        <ele>2375</ele>
        <time>2022-01-06T09:39:10Z</time>
      </trkpt>
      <trkpt lat="45.82696" lon="6.28625">
        <ele>2375</ele>
        <time>2022-01-06T09:39:11Z</time>
      </trkpt>
      <trkpt lat="45.82696" lon="6.28625">
        <ele>2375</ele>
        <time>2022-01-06T09:39:12Z</time>
      </trkpt>
      <trkpt lat="45.82696" lon="6.28625">
        <ele>2375</ele>
        <time>2022-01-06T09:39:13Z</time>
      </trkpt>
      <trkpt lat="45.82696" lon="6.28625">
        <ele>2375</ele>
        <time>2022-01-06T09:39:14Z</time>
      </trkpt>
      <trkpt lat="45.82696" lon="6.28625">
        <ele>2375</ele>
        <time>2022-01-06T09:39:15Z</time>
      </trkpt>
      <trkpt lat="45.82696" lon="6.28625">
        <ele>2375</ele>
        <time>2022-01-06T09:39:16Z</time>
      </trkpt>
      <trkpt lat="45.82696" lon="6.28625">
        <ele>2375</ele>
        <time>2022-01-06T09:39:17Z</time>
      </trkpt>
      <trkpt lat="45.82696" lon="6.28625">
        <ele>2375</ele>
        <time>2022-01-06T09:39:18Z</time>
      </trkpt>
      <trkpt lat="45.82695" lon="6.28625">
        <ele>2375</ele>
        <time>2022-01-06T09:39:19Z</time>
      </trkpt>
      <trkpt lat="45.82695" lon="6.28625">
        <ele>2375</ele>
        <time>2022-01-06T09:39:20Z</time>
      </trkpt>
      <trkpt lat="45.82695" lon="6.28625">
        <ele>2375</ele>
        <time>2022-01-06T09:39:21Z</time>
      </trkpt>
      <trkpt lat="45.82695" lon="6.28626">
        <ele>2375</ele>
        <time>2022-01-06T09:39:22Z</time>
      </trkpt>
      <trkpt lat="45.82695" lon="6.28626">
        <ele>2376.1</ele>
        <time>2022-01-06T09:39:23Z</time>
      </trkpt>
      <trkpt lat="45.82695" lon="6.28626">
        <ele>2376.1</ele>
        <time>2022-01-06T09:39:24Z</time>
      </trkpt>
      <trkpt lat="45.82695" lon="6.28626">
        <ele>2376.1</ele>
        <time>2022-01-06T09:39:25Z</time>
      </trkpt>
      <trkpt lat="45.82695" lon="6.28626">
        <ele>2376.1</ele>
        <time>2022-01-06T09:39:26Z</time>
      </trkpt>
      <trkpt lat="45.82695" lon="6.28626">
        <ele>2376.1</ele>
        <time>2022-01-06T09:39:27Z</time>
      </trkpt>
      <trkpt lat="45.82695" lon="6.28626">
        <ele>2376.1</ele>
        <time>2022-01-06T09:39:28Z</time>
      </trkpt>
      <trkpt lat="45.82695" lon="6.28626">
        <ele>2376.1</ele>
        <time>2022-01-06T09:39:29Z</time>
      </trkpt>
      <trkpt lat="45.82695" lon="6.28626">
        <ele>2376.1</ele>
        <time>2022-01-06T09:39:30Z</time>
      </trkpt>
      <trkpt lat="45.82695" lon="6.28626">
        <ele>2376.1</ele>
        <time>2022-01-06T09:39:31Z</time>
      </trkpt>
      <trkpt lat="45.82695" lon="6.28626">
        <ele>2376.1</ele>
        <time>2022-01-06T09:39:32Z</time>
      </trkpt>
      <trkpt lat="45.82695" lon="6.28626">
        <ele>2376.1</ele>
        <time>2022-01-06T09:39:33Z</time>
      </trkpt>
      <trkpt lat="45.82695" lon="6.28626">
        <ele>2376.1</ele>
        <time>2022-01-06T09:39:34Z</time>
      </trkpt>
      <trkpt lat="45.82695" lon="6.28627">
        <ele>2376.1</ele>
        <time>2022-01-06T09:39:35Z</time>
      </trkpt>
      <trkpt lat="45.82695" lon="6.28627">
        <ele>2376.1</ele>
        <time>2022-01-06T09:39:36Z</time>
      </trkpt>
      <trkpt lat="45.82695" lon="6.28627">
        <ele>2376.1</ele>
        <time>2022-01-06T09:39:37Z</time>
      </trkpt>
      <trkpt lat="45.82695" lon="6.28627">
        <ele>2376.1</ele>
        <time>2022-01-06T09:39:38Z</time>
      </trkpt>
      <trkpt lat="45.82695" lon="6.28627">
        <ele>2376.1</ele>
        <time>2022-01-06T09:39:39Z</time>
      </trkpt>
      <trkpt lat="45.82695" lon="6.28627">
        <ele>2376.1</ele>
        <time>2022-01-06T09:39:40Z</time>
      </trkpt>
      <trkpt lat="45.82695" lon="6.28627">
        <ele>2376.1</ele>
        <time>2022-01-06T09:39:41Z</time>
      </trkpt>
      <trkpt lat="45.82695" lon="6.28627">
        <ele>2376.1</ele>
        <time>2022-01-06T09:39:42Z</time>
      </trkpt>
      <trkpt lat="45.82695" lon="6.28627">
        <ele>2376.1</ele>
        <time>2022-01-06T09:39:43Z</time>
      </trkpt>
      <trkpt lat="45.82695" lon="6.28627">
        <ele>2376.1</ele>
        <time>2022-01-06T09:39:44Z</time>
      </trkpt>
      <trkpt lat="45.82695" lon="6.28627">
        <ele>2376.1</ele>
        <time>2022-01-06T09:39:45Z</time>
      </trkpt>
      <trkpt lat="45.82695" lon="6.28627">
        <ele>2376.1</ele>
        <time>2022-01-06T09:39:46Z</time>
      </trkpt>
      <trkpt lat="45.82695" lon="6.28627">
        <ele>2375</ele>
        <time>2022-01-06T09:39:47Z</time>
      </trkpt>
      <trkpt lat="45.82695" lon="6.28627">
        <ele>2375</ele>
        <time>2022-01-06T09:39:48Z</time>
      </trkpt>
      <trkpt lat="45.82695" lon="6.28627">
        <ele>2375</ele>
        <time>2022-01-06T09:39:49Z</time>
      </trkpt>
      <trkpt lat="45.82694" lon="6.28627">
        <ele>2375</ele>
        <time>2022-01-06T09:39:50Z</time>
      </trkpt>
      <trkpt lat="45.82694" lon="6.28628">
        <ele>2375</ele>
        <time>2022-01-06T09:39:51Z</time>
      </trkpt>
      <trkpt lat="45.82694" lon="6.28628">
        <ele>2375</ele>
        <time>2022-01-06T09:39:52Z</time>
      </trkpt>
      <trkpt lat="45.82694" lon="6.28628">
        <ele>2375</ele>
        <time>2022-01-06T09:39:53Z</time>
      </trkpt>
      <trkpt lat="45.82694" lon="6.28628">
        <ele>2375</ele>
        <time>2022-01-06T09:39:54Z</time>
      </trkpt>
      <trkpt lat="45.82694" lon="6.28628">
        <ele>2375</ele>
        <time>2022-01-06T09:39:55Z</time>
      </trkpt>
      <trkpt lat="45.82694" lon="6.28628">
        <ele>2375</ele>
        <time>2022-01-06T09:39:56Z</time>
      </trkpt>
      <trkpt lat="45.82694" lon="6.28628">
        <ele>2375</ele>
        <time>2022-01-06T09:39:57Z</time>
      </trkpt>
      <trkpt lat="45.82694" lon="6.28628">
        <ele>2375</ele>
        <time>2022-01-06T09:39:58Z</time>
      </trkpt>
      <trkpt lat="45.82694" lon="6.28628">
        <ele>2374.1</ele>
        <time>2022-01-06T09:39:59Z</time>
      </trkpt>
      <trkpt lat="45.82694" lon="6.28628">
        <ele>2374.1</ele>
        <time>2022-01-06T09:40:00Z</time>
      </trkpt>
      <trkpt lat="45.82694" lon="6.28628">
        <ele>2374.1</ele>
        <time>2022-01-06T09:40:01Z</time>
      </trkpt>
      <trkpt lat="45.82694" lon="6.28628">
        <ele>2374.1</ele>
        <time>2022-01-06T09:40:02Z</time>
      </trkpt>
      <trkpt lat="45.82694" lon="6.28628">
        <ele>2374.1</ele>
        <time>2022-01-06T09:40:03Z</time>
      </trkpt>
      <trkpt lat="45.82694" lon="6.28628">
        <ele>2374.1</ele>
        <time>2022-01-06T09:40:04Z</time>
      </trkpt>
      <trkpt lat="45.82694" lon="6.28628">
        <ele>2374.1</ele>
        <time>2022-01-06T09:40:05Z</time>
      </trkpt>
      <trkpt lat="45.82694" lon="6.28628">
        <ele>2374.1</ele>
        <time>2022-01-06T09:40:06Z</time>
      </trkpt>
      <trkpt lat="45.82694" lon="6.28628">
        <ele>2374.1</ele>
        <time>2022-01-06T09:40:07Z</time>
      </trkpt>
      <trkpt lat="45.82694" lon="6.28628">
        <ele>2374.1</ele>
        <time>2022-01-06T09:40:08Z</time>
      </trkpt>
      <trkpt lat="45.82694" lon="6.28628">
        <ele>2374.1</ele>
        <time>2022-01-06T09:40:09Z</time>
      </trkpt>
      <trkpt lat="45.82694" lon="6.28627">
        <ele>2374.1</ele>
        <time>2022-01-06T09:40:10Z</time>
      </trkpt>
      <trkpt lat="45.82695" lon="6.28627">
        <ele>2374.1</ele>
        <time>2022-01-06T09:40:11Z</time>
      </trkpt>
      <trkpt lat="45.82695" lon="6.28626">
        <ele>2374.1</ele>
        <time>2022-01-06T09:40:12Z</time>
      </trkpt>
      <trkpt lat="45.82695" lon="6.28626">
        <ele>2374.1</ele>
        <time>2022-01-06T09:40:13Z</time>
      </trkpt>
      <trkpt lat="45.82695" lon="6.28625">
        <ele>2374.1</ele>
        <time>2022-01-06T09:40:14Z</time>
      </trkpt>
      <trkpt lat="45.82695" lon="6.28625">
        <ele>2374.1</ele>
        <time>2022-01-06T09:40:15Z</time>
      </trkpt>
      <trkpt lat="45.82695" lon="6.28624">
        <ele>2374.1</ele>
        <time>2022-01-06T09:40:16Z</time>
      </trkpt>
      <trkpt lat="45.82695" lon="6.28624">
        <ele>2374.1</ele>
        <time>2022-01-06T09:40:17Z</time>
      </trkpt>
      <trkpt lat="45.82695" lon="6.28624">
        <ele>2374.1</ele>
        <time>2022-01-06T09:40:18Z</time>
      </trkpt>
      <trkpt lat="45.82695" lon="6.28623">
        <ele>2375</ele>
        <time>2022-01-06T09:40:19Z</time>
      </trkpt>
      <trkpt lat="45.82695" lon="6.28623">
        <ele>2375</ele>
        <time>2022-01-06T09:40:20Z</time>
      </trkpt>
      <trkpt lat="45.82695" lon="6.28623">
        <ele>2375</ele>
        <time>2022-01-06T09:40:21Z</time>
      </trkpt>
      <trkpt lat="45.82695" lon="6.28623">
        <ele>2375</ele>
        <time>2022-01-06T09:40:22Z</time>
      </trkpt>
      <trkpt lat="45.82695" lon="6.28623">
        <ele>2375</ele>
        <time>2022-01-06T09:40:23Z</time>
      </trkpt>
      <trkpt lat="45.82695" lon="6.28623">
        <ele>2375</ele>
        <time>2022-01-06T09:40:24Z</time>
      </trkpt>
      <trkpt lat="45.82696" lon="6.28623">
        <ele>2375</ele>
        <time>2022-01-06T09:40:25Z</time>
      </trkpt>
      <trkpt lat="45.82696" lon="6.28623">
        <ele>2375</ele>
        <time>2022-01-06T09:40:26Z</time>
      </trkpt>
      <trkpt lat="45.82696" lon="6.28623">
        <ele>2375</ele>
        <time>2022-01-06T09:40:27Z</time>
      </trkpt>
      <trkpt lat="45.82696" lon="6.28623">
        <ele>2375</ele>
        <time>2022-01-06T09:40:28Z</time>
      </trkpt>
      <trkpt lat="45.82696" lon="6.28623">
        <ele>2375</ele>
        <time>2022-01-06T09:40:29Z</time>
      </trkpt>
      <trkpt lat="45.82696" lon="6.28623">
        <ele>2375</ele>
        <time>2022-01-06T09:40:30Z</time>
      </trkpt>
      <trkpt lat="45.82696" lon="6.28623">
        <ele>2375</ele>
        <time>2022-01-06T09:40:31Z</time>
      </trkpt>
      <trkpt lat="45.82696" lon="6.28624">
        <ele>2375</ele>
        <time>2022-01-06T09:40:32Z</time>
      </trkpt>
      <trkpt lat="45.82696" lon="6.28624">
        <ele>2375</ele>
        <time>2022-01-06T09:40:33Z</time>
      </trkpt>
      <trkpt lat="45.82696" lon="6.28625">
        <ele>2375</ele>
        <time>2022-01-06T09:40:34Z</time>
      </trkpt>
      <trkpt lat="45.82696" lon="6.28625">
        <ele>2375</ele>
        <time>2022-01-06T09:40:35Z</time>
      </trkpt>
      <trkpt lat="45.82696" lon="6.28626">
        <ele>2375</ele>
        <time>2022-01-06T09:40:36Z</time>
      </trkpt>
      <trkpt lat="45.82696" lon="6.28626">
        <ele>2375</ele>
        <time>2022-01-06T09:40:37Z</time>
      </trkpt>
      <trkpt lat="45.82696" lon="6.28627">
        <ele>2375</ele>
        <time>2022-01-06T09:40:38Z</time>
      </trkpt>
      <trkpt lat="45.82696" lon="6.28627">
        <ele>2375</ele>
        <time>2022-01-06T09:40:39Z</time>
      </trkpt>
      <trkpt lat="45.82696" lon="6.28627">
        <ele>2375</ele>
        <time>2022-01-06T09:40:40Z</time>
      </trkpt>
      <trkpt lat="45.82696" lon="6.28628">
        <ele>2373</ele>
        <time>2022-01-06T09:40:41Z</time>
      </trkpt>
      <trkpt lat="45.82696" lon="6.28628">
        <ele>2373</ele>
        <time>2022-01-06T09:40:42Z</time>
      </trkpt>
      <trkpt lat="45.82696" lon="6.28628">
        <ele>2372.1</ele>
        <time>2022-01-06T09:40:43Z</time>
      </trkpt>
      <trkpt lat="45.82696" lon="6.28628">
        <ele>2372.1</ele>
        <time>2022-01-06T09:40:44Z</time>
      </trkpt>
      <trkpt lat="45.82696" lon="6.28628">
        <ele>2372.1</ele>
        <time>2022-01-06T09:40:45Z</time>
      </trkpt>
      <trkpt lat="45.82696" lon="6.28628">
        <ele>2372.1</ele>
        <time>2022-01-06T09:40:46Z</time>
      </trkpt>
      <trkpt lat="45.82696" lon="6.28628">
        <ele>2372.1</ele>
        <time>2022-01-06T09:40:47Z</time>
      </trkpt>
      <trkpt lat="45.82696" lon="6.28628">
        <ele>2372.1</ele>
        <time>2022-01-06T09:40:48Z</time>
      </trkpt>
      <trkpt lat="45.82696" lon="6.28628">
        <ele>2373</ele>
        <time>2022-01-06T09:40:49Z</time>
      </trkpt>
      <trkpt lat="45.82696" lon="6.28628">
        <ele>2373</ele>
        <time>2022-01-06T09:40:50Z</time>
      </trkpt>
      <trkpt lat="45.82697" lon="6.28628">
        <ele>2372.1</ele>
        <time>2022-01-06T09:40:51Z</time>
      </trkpt>
      <trkpt lat="45.82697" lon="6.28628">
        <ele>2372.1</ele>
        <time>2022-01-06T09:40:52Z</time>
      </trkpt>
      <trkpt lat="45.82697" lon="6.28628">
        <ele>2372.1</ele>
        <time>2022-01-06T09:40:53Z</time>
      </trkpt>
      <trkpt lat="45.82697" lon="6.28628">
        <ele>2372.1</ele>
        <time>2022-01-06T09:40:54Z</time>
      </trkpt>
      <trkpt lat="45.82697" lon="6.28628">
        <ele>2372.1</ele>
        <time>2022-01-06T09:40:55Z</time>
      </trkpt>
      <trkpt lat="45.82697" lon="6.28628">
        <ele>2372.1</ele>
        <time>2022-01-06T09:40:56Z</time>
      </trkpt>
      <trkpt lat="45.82698" lon="6.28628">
        <ele>2372.1</ele>
        <time>2022-01-06T09:40:57Z</time>
      </trkpt>
      <trkpt lat="45.82698" lon="6.28627">
        <ele>2372.1</ele>
        <time>2022-01-06T09:40:58Z</time>
      </trkpt>
      <trkpt lat="45.82698" lon="6.28627">
        <ele>2373</ele>
        <time>2022-01-06T09:40:59Z</time>
      </trkpt>
      <trkpt lat="45.82698" lon="6.28627">
        <ele>2373</ele>
        <time>2022-01-06T09:41:00Z</time>
      </trkpt>
      <trkpt lat="45.82698" lon="6.28627">
        <ele>2373</ele>
        <time>2022-01-06T09:41:01Z</time>
      </trkpt>
      <trkpt lat="45.82698" lon="6.28627">
        <ele>2373</ele>
        <time>2022-01-06T09:41:02Z</time>
      </trkpt>
      <trkpt lat="45.82698" lon="6.28627">
        <ele>2373</ele>
        <time>2022-01-06T09:41:03Z</time>
      </trkpt>
      <trkpt lat="45.82698" lon="6.28627">
        <ele>2373</ele>
        <time>2022-01-06T09:41:04Z</time>
      </trkpt>
      <trkpt lat="45.82698" lon="6.28627">
        <ele>2373</ele>
        <time>2022-01-06T09:41:05Z</time>
      </trkpt>
      <trkpt lat="45.82698" lon="6.28626">
        <ele>2373</ele>
        <time>2022-01-06T09:41:06Z</time>
      </trkpt>
      <trkpt lat="45.82698" lon="6.28626">
        <ele>2373</ele>
        <time>2022-01-06T09:41:07Z</time>
      </trkpt>
      <trkpt lat="45.82698" lon="6.28626">
        <ele>2373</ele>
        <time>2022-01-06T09:41:08Z</time>
      </trkpt>
      <trkpt lat="45.82698" lon="6.28626">
        <ele>2374.1</ele>
        <time>2022-01-06T09:41:09Z</time>
      </trkpt>
      <trkpt lat="45.82698" lon="6.28626">
        <ele>2374.1</ele>
        <time>2022-01-06T09:41:10Z</time>
      </trkpt>
      <trkpt lat="45.82698" lon="6.28626">
        <ele>2374.1</ele>
        <time>2022-01-06T09:41:11Z</time>
      </trkpt>
      <trkpt lat="45.82698" lon="6.28626">
        <ele>2374.1</ele>
        <time>2022-01-06T09:41:12Z</time>
      </trkpt>
      <trkpt lat="45.82698" lon="6.28626">
        <ele>2374.1</ele>
        <time>2022-01-06T09:41:13Z</time>
      </trkpt>
      <trkpt lat="45.82698" lon="6.28626">
        <ele>2374.1</ele>
        <time>2022-01-06T09:41:14Z</time>
      </trkpt>
      <trkpt lat="45.82698" lon="6.28626">
        <ele>2373</ele>
        <time>2022-01-06T09:41:15Z</time>
      </trkpt>
      <trkpt lat="45.82698" lon="6.28626">
        <ele>2373</ele>
        <time>2022-01-06T09:41:16Z</time>
      </trkpt>
      <trkpt lat="45.82698" lon="6.28626">
        <ele>2373</ele>
        <time>2022-01-06T09:41:17Z</time>
      </trkpt>
      <trkpt lat="45.82698" lon="6.28626">
        <ele>2373</ele>
        <time>2022-01-06T09:41:18Z</time>
      </trkpt>
      <trkpt lat="45.82698" lon="6.28626">
        <ele>2372.1</ele>
        <time>2022-01-06T09:41:19Z</time>
      </trkpt>
      <trkpt lat="45.82698" lon="6.28626">
        <ele>2372.1</ele>
        <time>2022-01-06T09:41:20Z</time>
      </trkpt>
      <trkpt lat="45.82698" lon="6.28626">
        <ele>2372.1</ele>
        <time>2022-01-06T09:41:21Z</time>
      </trkpt>
      <trkpt lat="45.82698" lon="6.28626">
        <ele>2372.1</ele>
        <time>2022-01-06T09:41:22Z</time>
      </trkpt>
      <trkpt lat="45.82698" lon="6.28626">
        <ele>2372.1</ele>
        <time>2022-01-06T09:41:23Z</time>
      </trkpt>
      <trkpt lat="45.82698" lon="6.28625">
        <ele>2372.1</ele>
        <time>2022-01-06T09:41:24Z</time>
      </trkpt>
      <trkpt lat="45.82698" lon="6.28625">
        <ele>2372.1</ele>
        <time>2022-01-06T09:41:25Z</time>
      </trkpt>
      <trkpt lat="45.82698" lon="6.28625">
        <ele>2372.1</ele>
        <time>2022-01-06T09:41:26Z</time>
      </trkpt>
      <trkpt lat="45.82698" lon="6.28625">
        <ele>2372.1</ele>
        <time>2022-01-06T09:41:27Z</time>
      </trkpt>
      <trkpt lat="45.82698" lon="6.28625">
        <ele>2372.1</ele>
        <time>2022-01-06T09:41:28Z</time>
      </trkpt>
      <trkpt lat="45.82698" lon="6.28625">
        <ele>2372.1</ele>
        <time>2022-01-06T09:41:29Z</time>
      </trkpt>
      <trkpt lat="45.82698" lon="6.28625">
        <ele>2372.1</ele>
        <time>2022-01-06T09:41:30Z</time>
      </trkpt>
      <trkpt lat="45.82697" lon="6.28625">
        <ele>2373</ele>
        <time>2022-01-06T09:41:31Z</time>
      </trkpt>
      <trkpt lat="45.82697" lon="6.28625">
        <ele>2373</ele>
        <time>2022-01-06T09:41:32Z</time>
      </trkpt>
      <trkpt lat="45.82697" lon="6.28625">
        <ele>2373</ele>
        <time>2022-01-06T09:41:33Z</time>
      </trkpt>
      <trkpt lat="45.82697" lon="6.28625">
        <ele>2373</ele>
        <time>2022-01-06T09:41:34Z</time>
      </trkpt>
      <trkpt lat="45.82697" lon="6.28625">
        <ele>2373</ele>
        <time>2022-01-06T09:41:35Z</time>
      </trkpt>
      <trkpt lat="45.82697" lon="6.28625">
        <ele>2373</ele>
        <time>2022-01-06T09:41:36Z</time>
      </trkpt>
      <trkpt lat="45.82697" lon="6.28625">
        <ele>2373</ele>
        <time>2022-01-06T09:41:37Z</time>
      </trkpt>
      <trkpt lat="45.82697" lon="6.28625">
        <ele>2373</ele>
        <time>2022-01-06T09:41:38Z</time>
      </trkpt>
      <trkpt lat="45.82697" lon="6.28624">
        <ele>2373</ele>
        <time>2022-01-06T09:41:39Z</time>
      </trkpt>
      <trkpt lat="45.82697" lon="6.28624">
        <ele>2373</ele>
        <time>2022-01-06T09:41:40Z</time>
      </trkpt>
      <trkpt lat="45.82697" lon="6.28624">
        <ele>2373</ele>
        <time>2022-01-06T09:41:41Z</time>
      </trkpt>
      <trkpt lat="45.82697" lon="6.28624">
        <ele>2373</ele>
        <time>2022-01-06T09:41:42Z</time>
      </trkpt>
      <trkpt lat="45.82697" lon="6.28624">
        <ele>2373</ele>
        <time>2022-01-06T09:41:43Z</time>
      </trkpt>
      <trkpt lat="45.82697" lon="6.28624">
        <ele>2373</ele>
        <time>2022-01-06T09:41:44Z</time>
      </trkpt>
      <trkpt lat="45.82697" lon="6.28624">
        <ele>2374.1</ele>
        <time>2022-01-06T09:41:45Z</time>
      </trkpt>
      <trkpt lat="45.82697" lon="6.28624">
        <ele>2374.1</ele>
        <time>2022-01-06T09:41:46Z</time>
      </trkpt>
      <trkpt lat="45.82697" lon="6.28624">
        <ele>2374.1</ele>
        <time>2022-01-06T09:41:47Z</time>
      </trkpt>
      <trkpt lat="45.82697" lon="6.28624">
        <ele>2374.1</ele>
        <time>2022-01-06T09:41:48Z</time>
      </trkpt>
      <trkpt lat="45.82697" lon="6.28624">
        <ele>2374.1</ele>
        <time>2022-01-06T09:41:49Z</time>
      </trkpt>
      <trkpt lat="45.82697" lon="6.28624">
        <ele>2374.1</ele>
        <time>2022-01-06T09:41:50Z</time>
      </trkpt>
      <trkpt lat="45.82697" lon="6.28624">
        <ele>2374.1</ele>
        <time>2022-01-06T09:41:51Z</time>
      </trkpt>
      <trkpt lat="45.82697" lon="6.28624">
        <ele>2374.1</ele>
        <time>2022-01-06T09:41:52Z</time>
      </trkpt>
      <trkpt lat="45.82697" lon="6.28624">
        <ele>2374.1</ele>
        <time>2022-01-06T09:41:53Z</time>
      </trkpt>
      <trkpt lat="45.82697" lon="6.28624">
        <ele>2374.1</ele>
        <time>2022-01-06T09:41:54Z</time>
      </trkpt>
      <trkpt lat="45.82697" lon="6.28624">
        <ele>2372.1</ele>
        <time>2022-01-06T09:41:55Z</time>
      </trkpt>
      <trkpt lat="45.82697" lon="6.28624">
        <ele>2372.1</ele>
        <time>2022-01-06T09:41:56Z</time>
      </trkpt>
      <trkpt lat="45.82697" lon="6.28624">
        <ele>2372.1</ele>
        <time>2022-01-06T09:41:57Z</time>
      </trkpt>
      <trkpt lat="45.82697" lon="6.28624">
        <ele>2372.1</ele>
        <time>2022-01-06T09:41:58Z</time>
      </trkpt>
      <trkpt lat="45.82697" lon="6.28624">
        <ele>2372.1</ele>
        <time>2022-01-06T09:41:59Z</time>
      </trkpt>
      <trkpt lat="45.82697" lon="6.28624">
        <ele>2372.1</ele>
        <time>2022-01-06T09:42:00Z</time>
      </trkpt>
      <trkpt lat="45.82697" lon="6.28624">
        <ele>2372.1</ele>
        <time>2022-01-06T09:42:01Z</time>
      </trkpt>
      <trkpt lat="45.82697" lon="6.28624">
        <ele>2372.1</ele>
        <time>2022-01-06T09:42:02Z</time>
      </trkpt>
      <trkpt lat="45.82697" lon="6.28624">
        <ele>2373</ele>
        <time>2022-01-06T09:42:03Z</time>
      </trkpt>
      <trkpt lat="45.82697" lon="6.28624">
        <ele>2373</ele>
        <time>2022-01-06T09:42:04Z</time>
      </trkpt>
      <trkpt lat="45.82697" lon="6.28624">
        <ele>2373</ele>
        <time>2022-01-06T09:42:05Z</time>
      </trkpt>
      <trkpt lat="45.82697" lon="6.28624">
        <ele>2373</ele>
        <time>2022-01-06T09:42:06Z</time>
      </trkpt>
      <trkpt lat="45.82697" lon="6.28624">
        <ele>2373</ele>
        <time>2022-01-06T09:42:07Z</time>
      </trkpt>
      <trkpt lat="45.82697" lon="6.28624">
        <ele>2373</ele>
        <time>2022-01-06T09:42:08Z</time>
      </trkpt>
      <trkpt lat="45.82697" lon="6.28624">
        <ele>2373</ele>
        <time>2022-01-06T09:42:09Z</time>
      </trkpt>
      <trkpt lat="45.82697" lon="6.28624">
        <ele>2373</ele>
        <time>2022-01-06T09:42:10Z</time>
      </trkpt>
      <trkpt lat="45.82697" lon="6.28624">
        <ele>2373</ele>
        <time>2022-01-06T09:42:11Z</time>
      </trkpt>
      <trkpt lat="45.82697" lon="6.28624">
        <ele>2373</ele>
        <time>2022-01-06T09:42:12Z</time>
      </trkpt>
      <trkpt lat="45.82697" lon="6.28624">
        <ele>2373</ele>
        <time>2022-01-06T09:42:13Z</time>
      </trkpt>
      <trkpt lat="45.82697" lon="6.28624">
        <ele>2373</ele>
        <time>2022-01-06T09:42:14Z</time>
      </trkpt>
      <trkpt lat="45.82697" lon="6.28624">
        <ele>2374.1</ele>
        <time>2022-01-06T09:42:15Z</time>
      </trkpt>
      <trkpt lat="45.82697" lon="6.28624">
        <ele>2374.1</ele>
        <time>2022-01-06T09:42:16Z</time>
      </trkpt>
      <trkpt lat="45.82697" lon="6.28624">
        <ele>2374.1</ele>
        <time>2022-01-06T09:42:17Z</time>
      </trkpt>
      <trkpt lat="45.82697" lon="6.28624">
        <ele>2374.1</ele>
        <time>2022-01-06T09:42:18Z</time>
      </trkpt>
      <trkpt lat="45.82697" lon="6.28624">
        <ele>2374.1</ele>
        <time>2022-01-06T09:42:19Z</time>
      </trkpt>
      <trkpt lat="45.82697" lon="6.28624">
        <ele>2374.1</ele>
        <time>2022-01-06T09:42:20Z</time>
      </trkpt>
      <trkpt lat="45.82697" lon="6.28624">
        <ele>2374.1</ele>
        <time>2022-01-06T09:42:21Z</time>
      </trkpt>
      <trkpt lat="45.82697" lon="6.28624">
        <ele>2374.1</ele>
        <time>2022-01-06T09:42:22Z</time>
      </trkpt>
      <trkpt lat="45.82697" lon="6.28624">
        <ele>2374.1</ele>
        <time>2022-01-06T09:42:23Z</time>
      </trkpt>
      <trkpt lat="45.82697" lon="6.28624">
        <ele>2374.1</ele>
        <time>2022-01-06T09:42:24Z</time>
      </trkpt>
      <trkpt lat="45.82696" lon="6.28624">
        <ele>2374.1</ele>
        <time>2022-01-06T09:42:25Z</time>
      </trkpt>
      <trkpt lat="45.82696" lon="6.28624">
        <ele>2374.1</ele>
        <time>2022-01-06T09:42:26Z</time>
      </trkpt>
      <trkpt lat="45.82696" lon="6.28624">
        <ele>2374.1</ele>
        <time>2022-01-06T09:42:27Z</time>
      </trkpt>
      <trkpt lat="45.82696" lon="6.28624">
        <ele>2374.1</ele>
        <time>2022-01-06T09:42:28Z</time>
      </trkpt>
      <trkpt lat="45.82696" lon="6.28624">
        <ele>2374.1</ele>
        <time>2022-01-06T09:42:29Z</time>
      </trkpt>
      <trkpt lat="45.82696" lon="6.28624">
        <ele>2374.1</ele>
        <time>2022-01-06T09:42:30Z</time>
      </trkpt>
      <trkpt lat="45.82696" lon="6.28624">
        <ele>2374.1</ele>
        <time>2022-01-06T09:42:31Z</time>
      </trkpt>
      <trkpt lat="45.82696" lon="6.28624">
        <ele>2374.1</ele>
        <time>2022-01-06T09:42:32Z</time>
      </trkpt>
      <trkpt lat="45.82696" lon="6.28625">
        <ele>2374.1</ele>
        <time>2022-01-06T09:42:33Z</time>
      </trkpt>
      <trkpt lat="45.82696" lon="6.28625">
        <ele>2374.1</ele>
        <time>2022-01-06T09:42:34Z</time>
      </trkpt>
      <trkpt lat="45.82696" lon="6.28625">
        <ele>2374.1</ele>
        <time>2022-01-06T09:42:35Z</time>
      </trkpt>
      <trkpt lat="45.82696" lon="6.28625">
        <ele>2374.1</ele>
        <time>2022-01-06T09:42:36Z</time>
      </trkpt>
      <trkpt lat="45.82696" lon="6.28625">
        <ele>2374.1</ele>
        <time>2022-01-06T09:42:37Z</time>
      </trkpt>
      <trkpt lat="45.82695" lon="6.28625">
        <ele>2374.1</ele>
        <time>2022-01-06T09:42:38Z</time>
      </trkpt>
      <trkpt lat="45.82695" lon="6.28626">
        <ele>2374.1</ele>
        <time>2022-01-06T09:42:39Z</time>
      </trkpt>
      <trkpt lat="45.82695" lon="6.28626">
        <ele>2374.1</ele>
        <time>2022-01-06T09:42:40Z</time>
      </trkpt>
      <trkpt lat="45.82695" lon="6.28625">
        <ele>2374.1</ele>
        <time>2022-01-06T09:42:41Z</time>
      </trkpt>
      <trkpt lat="45.82695" lon="6.28625">
        <ele>2374.1</ele>
        <time>2022-01-06T09:42:42Z</time>
      </trkpt>
      <trkpt lat="45.82695" lon="6.28625">
        <ele>2373</ele>
        <time>2022-01-06T09:42:43Z</time>
      </trkpt>
      <trkpt lat="45.82695" lon="6.28625">
        <ele>2373</ele>
        <time>2022-01-06T09:42:44Z</time>
      </trkpt>
      <trkpt lat="45.82695" lon="6.28625">
        <ele>2373</ele>
        <time>2022-01-06T09:42:45Z</time>
      </trkpt>
      <trkpt lat="45.82695" lon="6.28625">
        <ele>2373</ele>
        <time>2022-01-06T09:42:46Z</time>
      </trkpt>
      <trkpt lat="45.82695" lon="6.28625">
        <ele>2373</ele>
        <time>2022-01-06T09:42:47Z</time>
      </trkpt>
      <trkpt lat="45.82695" lon="6.28625">
        <ele>2373</ele>
        <time>2022-01-06T09:42:48Z</time>
      </trkpt>
      <trkpt lat="45.82695" lon="6.28625">
        <ele>2372.1</ele>
        <time>2022-01-06T09:42:49Z</time>
      </trkpt>
      <trkpt lat="45.82695" lon="6.28625">
        <ele>2372.1</ele>
        <time>2022-01-06T09:42:50Z</time>
      </trkpt>
      <trkpt lat="45.82695" lon="6.28625">
        <ele>2372.1</ele>
        <time>2022-01-06T09:42:51Z</time>
      </trkpt>
      <trkpt lat="45.82695" lon="6.28625">
        <ele>2372.1</ele>
        <time>2022-01-06T09:42:52Z</time>
      </trkpt>
      <trkpt lat="45.82695" lon="6.28625">
        <ele>2372.1</ele>
        <time>2022-01-06T09:42:53Z</time>
      </trkpt>
      <trkpt lat="45.82695" lon="6.28625">
        <ele>2372.1</ele>
        <time>2022-01-06T09:42:54Z</time>
      </trkpt>
      <trkpt lat="45.82695" lon="6.28625">
        <ele>2372.1</ele>
        <time>2022-01-06T09:42:55Z</time>
      </trkpt>
      <trkpt lat="45.82695" lon="6.28625">
        <ele>2372.1</ele>
        <time>2022-01-06T09:42:56Z</time>
      </trkpt>
      <trkpt lat="45.82695" lon="6.28625">
        <ele>2372.1</ele>
        <time>2022-01-06T09:42:57Z</time>
      </trkpt>
      <trkpt lat="45.82695" lon="6.28625">
        <ele>2372.1</ele>
        <time>2022-01-06T09:42:58Z</time>
      </trkpt>
      <trkpt lat="45.82695" lon="6.28625">
        <ele>2371.1</ele>
        <time>2022-01-06T09:42:59Z</time>
      </trkpt>
      <trkpt lat="45.82695" lon="6.28625">
        <ele>2371.1</ele>
        <time>2022-01-06T09:43:00Z</time>
      </trkpt>
      <trkpt lat="45.82695" lon="6.28625">
        <ele>2371.1</ele>
        <time>2022-01-06T09:43:01Z</time>
      </trkpt>
      <trkpt lat="45.82695" lon="6.28625">
        <ele>2371.1</ele>
        <time>2022-01-06T09:43:02Z</time>
      </trkpt>
      <trkpt lat="45.82695" lon="6.28624">
        <ele>2371.1</ele>
        <time>2022-01-06T09:43:03Z</time>
      </trkpt>
      <trkpt lat="45.82695" lon="6.28624">
        <ele>2371.1</ele>
        <time>2022-01-06T09:43:04Z</time>
      </trkpt>
      <trkpt lat="45.82694" lon="6.28624">
        <ele>2371.1</ele>
        <time>2022-01-06T09:43:05Z</time>
      </trkpt>
      <trkpt lat="45.82694" lon="6.28624">
        <ele>2371.1</ele>
        <time>2022-01-06T09:43:06Z</time>
      </trkpt>
      <trkpt lat="45.82694" lon="6.28624">
        <ele>2371.1</ele>
        <time>2022-01-06T09:43:07Z</time>
      </trkpt>
      <trkpt lat="45.82694" lon="6.28624">
        <ele>2371.1</ele>
        <time>2022-01-06T09:43:08Z</time>
      </trkpt>
      <trkpt lat="45.82694" lon="6.28624">
        <ele>2372.1</ele>
        <time>2022-01-06T09:43:09Z</time>
      </trkpt>
      <trkpt lat="45.82694" lon="6.28624">
        <ele>2372.1</ele>
        <time>2022-01-06T09:43:10Z</time>
      </trkpt>
      <trkpt lat="45.82694" lon="6.28624">
        <ele>2372.1</ele>
        <time>2022-01-06T09:43:11Z</time>
      </trkpt>
      <trkpt lat="45.82694" lon="6.28624">
        <ele>2372.1</ele>
        <time>2022-01-06T09:43:12Z</time>
      </trkpt>
      <trkpt lat="45.82694" lon="6.28624">
        <ele>2372.1</ele>
        <time>2022-01-06T09:43:13Z</time>
      </trkpt>
      <trkpt lat="45.82694" lon="6.28624">
        <ele>2372.1</ele>
        <time>2022-01-06T09:43:14Z</time>
      </trkpt>
      <trkpt lat="45.82694" lon="6.28625">
        <ele>2372.1</ele>
        <time>2022-01-06T09:43:15Z</time>
      </trkpt>
      <trkpt lat="45.82693" lon="6.28625">
        <ele>2372.1</ele>
        <time>2022-01-06T09:43:16Z</time>
      </trkpt>
      <trkpt lat="45.82694" lon="6.28623">
        <ele>2372.1</ele>
        <time>2022-01-06T09:43:17Z</time>
      </trkpt>
      <trkpt lat="45.82694" lon="6.28623">
        <ele>2372.1</ele>
        <time>2022-01-06T09:43:18Z</time>
      </trkpt>
      <trkpt lat="45.82694" lon="6.28624">
        <ele>2372.1</ele>
        <time>2022-01-06T09:43:19Z</time>
      </trkpt>
      <trkpt lat="45.82694" lon="6.28624">
        <ele>2372.1</ele>
        <time>2022-01-06T09:43:20Z</time>
      </trkpt>
      <trkpt lat="45.82694" lon="6.28625">
        <ele>2372.1</ele>
        <time>2022-01-06T09:43:21Z</time>
      </trkpt>
      <trkpt lat="45.82694" lon="6.28625">
        <ele>2372.1</ele>
        <time>2022-01-06T09:43:22Z</time>
      </trkpt>
      <trkpt lat="45.82694" lon="6.28625">
        <ele>2374.1</ele>
        <time>2022-01-06T09:43:23Z</time>
      </trkpt>
      <trkpt lat="45.82694" lon="6.28625">
        <ele>2374.1</ele>
        <time>2022-01-06T09:43:24Z</time>
      </trkpt>
      <trkpt lat="45.82694" lon="6.28625">
        <ele>2374.1</ele>
        <time>2022-01-06T09:43:25Z</time>
      </trkpt>
      <trkpt lat="45.82694" lon="6.28625">
        <ele>2374.1</ele>
        <time>2022-01-06T09:43:26Z</time>
      </trkpt>
      <trkpt lat="45.82694" lon="6.28625">
        <ele>2374.1</ele>
        <time>2022-01-06T09:43:27Z</time>
      </trkpt>
      <trkpt lat="45.82694" lon="6.28625">
        <ele>2374.1</ele>
        <time>2022-01-06T09:43:28Z</time>
      </trkpt>
      <trkpt lat="45.82694" lon="6.28625">
        <ele>2374.1</ele>
        <time>2022-01-06T09:43:29Z</time>
      </trkpt>
      <trkpt lat="45.82694" lon="6.28625">
        <ele>2374.1</ele>
        <time>2022-01-06T09:43:30Z</time>
      </trkpt>
      <trkpt lat="45.82694" lon="6.28626">
        <ele>2374.1</ele>
        <time>2022-01-06T09:43:31Z</time>
      </trkpt>
      <trkpt lat="45.82694" lon="6.28626">
        <ele>2374.1</ele>
        <time>2022-01-06T09:43:32Z</time>
      </trkpt>
      <trkpt lat="45.82694" lon="6.28626">
        <ele>2374.1</ele>
        <time>2022-01-06T09:43:33Z</time>
      </trkpt>
      <trkpt lat="45.82694" lon="6.28626">
        <ele>2374.1</ele>
        <time>2022-01-06T09:43:34Z</time>
      </trkpt>
      <trkpt lat="45.82694" lon="6.28626">
        <ele>2374.1</ele>
        <time>2022-01-06T09:43:35Z</time>
      </trkpt>
      <trkpt lat="45.82694" lon="6.28626">
        <ele>2374.1</ele>
        <time>2022-01-06T09:43:36Z</time>
      </trkpt>
      <trkpt lat="45.82694" lon="6.28626">
        <ele>2374.1</ele>
        <time>2022-01-06T09:43:37Z</time>
      </trkpt>
      <trkpt lat="45.82694" lon="6.28627">
        <ele>2374.1</ele>
        <time>2022-01-06T09:43:38Z</time>
      </trkpt>
      <trkpt lat="45.82694" lon="6.28627">
        <ele>2373</ele>
        <time>2022-01-06T09:43:39Z</time>
      </trkpt>
      <trkpt lat="45.82694" lon="6.28628">
        <ele>2373</ele>
        <time>2022-01-06T09:43:40Z</time>
      </trkpt>
      <trkpt lat="45.82695" lon="6.28628">
        <ele>2373</ele>
        <time>2022-01-06T09:43:41Z</time>
      </trkpt>
      <trkpt lat="45.82695" lon="6.28628">
        <ele>2373</ele>
        <time>2022-01-06T09:43:42Z</time>
      </trkpt>
      <trkpt lat="45.82695" lon="6.28628">
        <ele>2373</ele>
        <time>2022-01-06T09:43:43Z</time>
      </trkpt>
      <trkpt lat="45.82695" lon="6.28628">
        <ele>2373</ele>
        <time>2022-01-06T09:43:44Z</time>
      </trkpt>
      <trkpt lat="45.82695" lon="6.28628">
        <ele>2373</ele>
        <time>2022-01-06T09:43:45Z</time>
      </trkpt>
      <trkpt lat="45.82695" lon="6.28628">
        <ele>2373</ele>
        <time>2022-01-06T09:43:46Z</time>
      </trkpt>
      <trkpt lat="45.82695" lon="6.28628">
        <ele>2373</ele>
        <time>2022-01-06T09:43:47Z</time>
      </trkpt>
      <trkpt lat="45.82695" lon="6.28628">
        <ele>2373</ele>
        <time>2022-01-06T09:43:48Z</time>
      </trkpt>
      <trkpt lat="45.82695" lon="6.28628">
        <ele>2373</ele>
        <time>2022-01-06T09:43:49Z</time>
      </trkpt>
      <trkpt lat="45.82695" lon="6.28628">
        <ele>2373</ele>
        <time>2022-01-06T09:43:50Z</time>
      </trkpt>
      <trkpt lat="45.82695" lon="6.28628">
        <ele>2373</ele>
        <time>2022-01-06T09:43:51Z</time>
      </trkpt>
      <trkpt lat="45.82695" lon="6.28628">
        <ele>2373</ele>
        <time>2022-01-06T09:43:52Z</time>
      </trkpt>
      <trkpt lat="45.82695" lon="6.28628">
        <ele>2373</ele>
        <time>2022-01-06T09:43:53Z</time>
      </trkpt>
      <trkpt lat="45.82695" lon="6.28628">
        <ele>2373</ele>
        <time>2022-01-06T09:43:54Z</time>
      </trkpt>
      <trkpt lat="45.82695" lon="6.28628">
        <ele>2374.1</ele>
        <time>2022-01-06T09:43:55Z</time>
      </trkpt>
      <trkpt lat="45.82695" lon="6.28628">
        <ele>2374.1</ele>
        <time>2022-01-06T09:43:56Z</time>
      </trkpt>
      <trkpt lat="45.82695" lon="6.28628">
        <ele>2374.1</ele>
        <time>2022-01-06T09:43:57Z</time>
      </trkpt>
      <trkpt lat="45.82695" lon="6.28628">
        <ele>2374.1</ele>
        <time>2022-01-06T09:43:58Z</time>
      </trkpt>
      <trkpt lat="45.82695" lon="6.28628">
        <ele>2374.1</ele>
        <time>2022-01-06T09:43:59Z</time>
      </trkpt>
      <trkpt lat="45.82695" lon="6.28627">
        <ele>2374.1</ele>
        <time>2022-01-06T09:44:00Z</time>
      </trkpt>
      <trkpt lat="45.82695" lon="6.28627">
        <ele>2374.1</ele>
        <time>2022-01-06T09:44:01Z</time>
      </trkpt>
      <trkpt lat="45.82695" lon="6.28627">
        <ele>2374.1</ele>
        <time>2022-01-06T09:44:02Z</time>
      </trkpt>
      <trkpt lat="45.82695" lon="6.28627">
        <ele>2374.1</ele>
        <time>2022-01-06T09:44:03Z</time>
      </trkpt>
      <trkpt lat="45.82695" lon="6.28627">
        <ele>2374.1</ele>
        <time>2022-01-06T09:44:04Z</time>
      </trkpt>
      <trkpt lat="45.82695" lon="6.28627">
        <ele>2374.1</ele>
        <time>2022-01-06T09:44:05Z</time>
      </trkpt>
      <trkpt lat="45.82695" lon="6.28627">
        <ele>2374.1</ele>
        <time>2022-01-06T09:44:06Z</time>
      </trkpt>
      <trkpt lat="45.82695" lon="6.28627">
        <ele>2374.1</ele>
        <time>2022-01-06T09:44:07Z</time>
      </trkpt>
      <trkpt lat="45.82695" lon="6.28627">
        <ele>2374.1</ele>
        <time>2022-01-06T09:44:08Z</time>
      </trkpt>
      <trkpt lat="45.82695" lon="6.28626">
        <ele>2372.1</ele>
        <time>2022-01-06T09:44:09Z</time>
      </trkpt>
      <trkpt lat="45.82695" lon="6.28626">
        <ele>2372.1</ele>
        <time>2022-01-06T09:44:10Z</time>
      </trkpt>
      <trkpt lat="45.82695" lon="6.28626">
        <ele>2372.1</ele>
        <time>2022-01-06T09:44:11Z</time>
      </trkpt>
      <trkpt lat="45.82695" lon="6.28626">
        <ele>2372.1</ele>
        <time>2022-01-06T09:44:12Z</time>
      </trkpt>
      <trkpt lat="45.82695" lon="6.28626">
        <ele>2372.1</ele>
        <time>2022-01-06T09:44:13Z</time>
      </trkpt>
      <trkpt lat="45.82694" lon="6.28626">
        <ele>2372.1</ele>
        <time>2022-01-06T09:44:14Z</time>
      </trkpt>
      <trkpt lat="45.82694" lon="6.28626">
        <ele>2371.1</ele>
        <time>2022-01-06T09:44:15Z</time>
      </trkpt>
      <trkpt lat="45.82694" lon="6.28626">
        <ele>2371.1</ele>
        <time>2022-01-06T09:44:16Z</time>
      </trkpt>
      <trkpt lat="45.82694" lon="6.28626">
        <ele>2371.1</ele>
        <time>2022-01-06T09:44:17Z</time>
      </trkpt>
      <trkpt lat="45.82694" lon="6.28626">
        <ele>2371.1</ele>
        <time>2022-01-06T09:44:18Z</time>
      </trkpt>
      <trkpt lat="45.82694" lon="6.28626">
        <ele>2372.1</ele>
        <time>2022-01-06T09:44:19Z</time>
      </trkpt>
      <trkpt lat="45.82694" lon="6.28626">
        <ele>2372.1</ele>
        <time>2022-01-06T09:44:20Z</time>
      </trkpt>
      <trkpt lat="45.82694" lon="6.28626">
        <ele>2372.1</ele>
        <time>2022-01-06T09:44:21Z</time>
      </trkpt>
      <trkpt lat="45.82694" lon="6.28626">
        <ele>2372.1</ele>
        <time>2022-01-06T09:44:22Z</time>
      </trkpt>
      <trkpt lat="45.82694" lon="6.28626">
        <ele>2373</ele>
        <time>2022-01-06T09:44:23Z</time>
      </trkpt>
      <trkpt lat="45.82694" lon="6.28626">
        <ele>2373</ele>
        <time>2022-01-06T09:44:24Z</time>
      </trkpt>
      <trkpt lat="45.82694" lon="6.28626">
        <ele>2373</ele>
        <time>2022-01-06T09:44:25Z</time>
      </trkpt>
      <trkpt lat="45.82694" lon="6.28626">
        <ele>2373</ele>
        <time>2022-01-06T09:44:26Z</time>
      </trkpt>
      <trkpt lat="45.82694" lon="6.28626">
        <ele>2373</ele>
        <time>2022-01-06T09:44:27Z</time>
      </trkpt>
      <trkpt lat="45.82694" lon="6.28626">
        <ele>2373</ele>
        <time>2022-01-06T09:44:28Z</time>
      </trkpt>
      <trkpt lat="45.82694" lon="6.28626">
        <ele>2373</ele>
        <time>2022-01-06T09:44:29Z</time>
      </trkpt>
      <trkpt lat="45.82694" lon="6.28626">
        <ele>2373</ele>
        <time>2022-01-06T09:44:30Z</time>
      </trkpt>
      <trkpt lat="45.82694" lon="6.28626">
        <ele>2373</ele>
        <time>2022-01-06T09:44:31Z</time>
      </trkpt>
      <trkpt lat="45.82694" lon="6.28626">
        <ele>2373</ele>
        <time>2022-01-06T09:44:32Z</time>
      </trkpt>
      <trkpt lat="45.82694" lon="6.28626">
        <ele>2374.1</ele>
        <time>2022-01-06T09:44:33Z</time>
      </trkpt>
      <trkpt lat="45.82694" lon="6.28626">
        <ele>2374.1</ele>
        <time>2022-01-06T09:44:34Z</time>
      </trkpt>
      <trkpt lat="45.82694" lon="6.28626">
        <ele>2374.1</ele>
        <time>2022-01-06T09:44:35Z</time>
      </trkpt>
      <trkpt lat="45.82694" lon="6.28626">
        <ele>2374.1</ele>
        <time>2022-01-06T09:44:36Z</time>
      </trkpt>
      <trkpt lat="45.82694" lon="6.28626">
        <ele>2374.1</ele>
        <time>2022-01-06T09:44:37Z</time>
      </trkpt>
      <trkpt lat="45.82694" lon="6.28626">
        <ele>2374.1</ele>
        <time>2022-01-06T09:44:38Z</time>
      </trkpt>
      <trkpt lat="45.82694" lon="6.28627">
        <ele>2374.1</ele>
        <time>2022-01-06T09:44:39Z</time>
      </trkpt>
      <trkpt lat="45.82694" lon="6.28627">
        <ele>2374.1</ele>
        <time>2022-01-06T09:44:40Z</time>
      </trkpt>
      <trkpt lat="45.82694" lon="6.28627">
        <ele>2373</ele>
        <time>2022-01-06T09:44:41Z</time>
      </trkpt>
      <trkpt lat="45.82694" lon="6.28628">
        <ele>2373</ele>
        <time>2022-01-06T09:44:42Z</time>
      </trkpt>
      <trkpt lat="45.82694" lon="6.28628">
        <ele>2373</ele>
        <time>2022-01-06T09:44:43Z</time>
      </trkpt>
      <trkpt lat="45.82694" lon="6.28629">
        <ele>2373</ele>
        <time>2022-01-06T09:44:44Z</time>
      </trkpt>
      <trkpt lat="45.82694" lon="6.28629">
        <ele>2373</ele>
        <time>2022-01-06T09:44:45Z</time>
      </trkpt>
      <trkpt lat="45.82695" lon="6.28629">
        <ele>2373</ele>
        <time>2022-01-06T09:44:46Z</time>
      </trkpt>
      <trkpt lat="45.82695" lon="6.2863">
        <ele>2373</ele>
        <time>2022-01-06T09:44:47Z</time>
      </trkpt>
      <trkpt lat="45.82695" lon="6.2863">
        <ele>2373</ele>
        <time>2022-01-06T09:44:48Z</time>
      </trkpt>
      <trkpt lat="45.82695" lon="6.2863">
        <ele>2373</ele>
        <time>2022-01-06T09:44:49Z</time>
      </trkpt>
      <trkpt lat="45.82695" lon="6.2863">
        <ele>2373</ele>
        <time>2022-01-06T09:44:50Z</time>
      </trkpt>
      <trkpt lat="45.82695" lon="6.2863">
        <ele>2372.1</ele>
        <time>2022-01-06T09:44:51Z</time>
      </trkpt>
      <trkpt lat="45.82695" lon="6.2863">
        <ele>2372.1</ele>
        <time>2022-01-06T09:44:52Z</time>
      </trkpt>
      <trkpt lat="45.82695" lon="6.28631">
        <ele>2372.1</ele>
        <time>2022-01-06T09:44:53Z</time>
      </trkpt>
      <trkpt lat="45.82695" lon="6.2863">
        <ele>2372.1</ele>
        <time>2022-01-06T09:44:54Z</time>
      </trkpt>
      <trkpt lat="45.82694" lon="6.28629">
        <ele>2372.1</ele>
        <time>2022-01-06T09:44:55Z</time>
      </trkpt>
      <trkpt lat="45.82694" lon="6.28628">
        <ele>2372.1</ele>
        <time>2022-01-06T09:44:56Z</time>
      </trkpt>
      <trkpt lat="45.82694" lon="6.28628">
        <ele>2372.1</ele>
        <time>2022-01-06T09:44:57Z</time>
      </trkpt>
      <trkpt lat="45.82694" lon="6.28628">
        <ele>2372.1</ele>
        <time>2022-01-06T09:44:58Z</time>
      </trkpt>
      <trkpt lat="45.82694" lon="6.28628">
        <ele>2372.1</ele>
        <time>2022-01-06T09:44:59Z</time>
      </trkpt>
      <trkpt lat="45.82694" lon="6.28628">
        <ele>2372.1</ele>
        <time>2022-01-06T09:45:00Z</time>
      </trkpt>
      <trkpt lat="45.82694" lon="6.28628">
        <ele>2372.1</ele>
        <time>2022-01-06T09:45:01Z</time>
      </trkpt>
      <trkpt lat="45.82694" lon="6.28628">
        <ele>2372.1</ele>
        <time>2022-01-06T09:45:02Z</time>
      </trkpt>
      <trkpt lat="45.82694" lon="6.28628">
        <ele>2372.1</ele>
        <time>2022-01-06T09:45:03Z</time>
      </trkpt>
      <trkpt lat="45.82694" lon="6.28628">
        <ele>2372.1</ele>
        <time>2022-01-06T09:45:04Z</time>
      </trkpt>
      <trkpt lat="45.82694" lon="6.28628">
        <ele>2372.1</ele>
        <time>2022-01-06T09:45:05Z</time>
      </trkpt>
      <trkpt lat="45.82694" lon="6.28628">
        <ele>2372.1</ele>
        <time>2022-01-06T09:45:06Z</time>
      </trkpt>
      <trkpt lat="45.82694" lon="6.28628">
        <ele>2372.1</ele>
        <time>2022-01-06T09:45:07Z</time>
      </trkpt>
      <trkpt lat="45.82693" lon="6.28628">
        <ele>2372.1</ele>
        <time>2022-01-06T09:45:08Z</time>
      </trkpt>
      <trkpt lat="45.82693" lon="6.28628">
        <ele>2372.1</ele>
        <time>2022-01-06T09:45:09Z</time>
      </trkpt>
      <trkpt lat="45.82693" lon="6.28628">
        <ele>2372.1</ele>
        <time>2022-01-06T09:45:10Z</time>
      </trkpt>
      <trkpt lat="45.82693" lon="6.28628">
        <ele>2372.1</ele>
        <time>2022-01-06T09:45:11Z</time>
      </trkpt>
      <trkpt lat="45.82693" lon="6.28628">
        <ele>2372.1</ele>
        <time>2022-01-06T09:45:12Z</time>
      </trkpt>
      <trkpt lat="45.82693" lon="6.28628">
        <ele>2372.1</ele>
        <time>2022-01-06T09:45:13Z</time>
      </trkpt>
      <trkpt lat="45.82693" lon="6.28628">
        <ele>2372.1</ele>
        <time>2022-01-06T09:45:14Z</time>
      </trkpt>
      <trkpt lat="45.82693" lon="6.28628">
        <ele>2372.1</ele>
        <time>2022-01-06T09:45:15Z</time>
      </trkpt>
      <trkpt lat="45.82693" lon="6.28629">
        <ele>2372.1</ele>
        <time>2022-01-06T09:45:16Z</time>
      </trkpt>
      <trkpt lat="45.82693" lon="6.28629">
        <ele>2372.1</ele>
        <time>2022-01-06T09:45:17Z</time>
      </trkpt>
      <trkpt lat="45.82693" lon="6.28629">
        <ele>2372.1</ele>
        <time>2022-01-06T09:45:18Z</time>
      </trkpt>
      <trkpt lat="45.82693" lon="6.28629">
        <ele>2372.1</ele>
        <time>2022-01-06T09:45:19Z</time>
      </trkpt>
      <trkpt lat="45.82693" lon="6.28629">
        <ele>2372.1</ele>
        <time>2022-01-06T09:45:20Z</time>
      </trkpt>
      <trkpt lat="45.82693" lon="6.28629">
        <ele>2372.1</ele>
        <time>2022-01-06T09:45:21Z</time>
      </trkpt>
      <trkpt lat="45.82694" lon="6.28629">
        <ele>2372.1</ele>
        <time>2022-01-06T09:45:22Z</time>
      </trkpt>
      <trkpt lat="45.82694" lon="6.28628">
        <ele>2372.1</ele>
        <time>2022-01-06T09:45:23Z</time>
      </trkpt>
      <trkpt lat="45.82694" lon="6.28628">
        <ele>2372.1</ele>
        <time>2022-01-06T09:45:24Z</time>
      </trkpt>
      <trkpt lat="45.82694" lon="6.28628">
        <ele>2372.1</ele>
        <time>2022-01-06T09:45:25Z</time>
      </trkpt>
      <trkpt lat="45.82694" lon="6.28628">
        <ele>2372.1</ele>
        <time>2022-01-06T09:45:26Z</time>
      </trkpt>
      <trkpt lat="45.82695" lon="6.28628">
        <ele>2372.1</ele>
        <time>2022-01-06T09:45:27Z</time>
      </trkpt>
      <trkpt lat="45.82695" lon="6.28628">
        <ele>2372.1</ele>
        <time>2022-01-06T09:45:28Z</time>
      </trkpt>
      <trkpt lat="45.82695" lon="6.28628">
        <ele>2372.1</ele>
        <time>2022-01-06T09:45:29Z</time>
      </trkpt>
      <trkpt lat="45.82695" lon="6.28628">
        <ele>2372.1</ele>
        <time>2022-01-06T09:45:30Z</time>
      </trkpt>
      <trkpt lat="45.82695" lon="6.28628">
        <ele>2372.1</ele>
        <time>2022-01-06T09:45:31Z</time>
      </trkpt>
      <trkpt lat="45.82695" lon="6.28628">
        <ele>2372.1</ele>
        <time>2022-01-06T09:45:32Z</time>
      </trkpt>
      <trkpt lat="45.82695" lon="6.28628">
        <ele>2372.1</ele>
        <time>2022-01-06T09:45:33Z</time>
      </trkpt>
      <trkpt lat="45.82695" lon="6.28628">
        <ele>2372.1</ele>
        <time>2022-01-06T09:45:34Z</time>
      </trkpt>
      <trkpt lat="45.82695" lon="6.28628">
        <ele>2372.1</ele>
        <time>2022-01-06T09:45:35Z</time>
      </trkpt>
      <trkpt lat="45.82695" lon="6.28628">
        <ele>2372.1</ele>
        <time>2022-01-06T09:45:36Z</time>
      </trkpt>
      <trkpt lat="45.82695" lon="6.28628">
        <ele>2372.1</ele>
        <time>2022-01-06T09:45:37Z</time>
      </trkpt>
      <trkpt lat="45.82695" lon="6.28628">
        <ele>2372.1</ele>
        <time>2022-01-06T09:45:38Z</time>
      </trkpt>
      <trkpt lat="45.82695" lon="6.28628">
        <ele>2372.1</ele>
        <time>2022-01-06T09:45:39Z</time>
      </trkpt>
      <trkpt lat="45.82695" lon="6.28628">
        <ele>2372.1</ele>
        <time>2022-01-06T09:45:40Z</time>
      </trkpt>
      <trkpt lat="45.82695" lon="6.28628">
        <ele>2371.1</ele>
        <time>2022-01-06T09:45:41Z</time>
      </trkpt>
      <trkpt lat="45.82695" lon="6.28628">
        <ele>2371.1</ele>
        <time>2022-01-06T09:45:42Z</time>
      </trkpt>
      <trkpt lat="45.82695" lon="6.28628">
        <ele>2371.1</ele>
        <time>2022-01-06T09:45:43Z</time>
      </trkpt>
      <trkpt lat="45.82695" lon="6.28628">
        <ele>2371.1</ele>
        <time>2022-01-06T09:45:44Z</time>
      </trkpt>
      <trkpt lat="45.82695" lon="6.28628">
        <ele>2372.1</ele>
        <time>2022-01-06T09:45:45Z</time>
      </trkpt>
      <trkpt lat="45.82695" lon="6.28628">
        <ele>2372.1</ele>
        <time>2022-01-06T09:45:46Z</time>
      </trkpt>
      <trkpt lat="45.82695" lon="6.28628">
        <ele>2372.1</ele>
        <time>2022-01-06T09:45:47Z</time>
      </trkpt>
      <trkpt lat="45.82695" lon="6.28628">
        <ele>2372.1</ele>
        <time>2022-01-06T09:45:48Z</time>
      </trkpt>
      <trkpt lat="45.82695" lon="6.28628">
        <ele>2372.1</ele>
        <time>2022-01-06T09:45:49Z</time>
      </trkpt>
      <trkpt lat="45.82695" lon="6.28628">
        <ele>2372.1</ele>
        <time>2022-01-06T09:45:50Z</time>
      </trkpt>
      <trkpt lat="45.82695" lon="6.28627">
        <ele>2372.1</ele>
        <time>2022-01-06T09:45:51Z</time>
      </trkpt>
      <trkpt lat="45.82695" lon="6.28627">
        <ele>2372.1</ele>
        <time>2022-01-06T09:45:52Z</time>
      </trkpt>
      <trkpt lat="45.82695" lon="6.28627">
        <ele>2372.1</ele>
        <time>2022-01-06T09:45:53Z</time>
      </trkpt>
      <trkpt lat="45.82695" lon="6.28627">
        <ele>2372.1</ele>
        <time>2022-01-06T09:45:54Z</time>
      </trkpt>
      <trkpt lat="45.82695" lon="6.28627">
        <ele>2372.1</ele>
        <time>2022-01-06T09:45:55Z</time>
      </trkpt>
      <trkpt lat="45.82695" lon="6.28627">
        <ele>2372.1</ele>
        <time>2022-01-06T09:45:56Z</time>
      </trkpt>
      <trkpt lat="45.82695" lon="6.28628">
        <ele>2372.1</ele>
        <time>2022-01-06T09:45:57Z</time>
      </trkpt>
      <trkpt lat="45.82695" lon="6.28628">
        <ele>2372.1</ele>
        <time>2022-01-06T09:45:58Z</time>
      </trkpt>
      <trkpt lat="45.82695" lon="6.28628">
        <ele>2372.1</ele>
        <time>2022-01-06T09:45:59Z</time>
      </trkpt>
      <trkpt lat="45.82695" lon="6.28628">
        <ele>2372.1</ele>
        <time>2022-01-06T09:46:00Z</time>
      </trkpt>
      <trkpt lat="45.82695" lon="6.28628">
        <ele>2372.1</ele>
        <time>2022-01-06T09:46:01Z</time>
      </trkpt>
      <trkpt lat="45.82695" lon="6.28628">
        <ele>2372.1</ele>
        <time>2022-01-06T09:46:02Z</time>
      </trkpt>
      <trkpt lat="45.82695" lon="6.28628">
        <ele>2371.1</ele>
        <time>2022-01-06T09:46:03Z</time>
      </trkpt>
      <trkpt lat="45.82695" lon="6.28628">
        <ele>2371.1</ele>
        <time>2022-01-06T09:46:04Z</time>
      </trkpt>
      <trkpt lat="45.82695" lon="6.28628">
        <ele>2371.1</ele>
        <time>2022-01-06T09:46:05Z</time>
      </trkpt>
      <trkpt lat="45.82695" lon="6.28628">
        <ele>2371.1</ele>
        <time>2022-01-06T09:46:06Z</time>
      </trkpt>
      <trkpt lat="45.82695" lon="6.28628">
        <ele>2371.1</ele>
        <time>2022-01-06T09:46:07Z</time>
      </trkpt>
      <trkpt lat="45.82695" lon="6.28628">
        <ele>2371.1</ele>
        <time>2022-01-06T09:46:08Z</time>
      </trkpt>
      <trkpt lat="45.82695" lon="6.28628">
        <ele>2371.1</ele>
        <time>2022-01-06T09:46:09Z</time>
      </trkpt>
      <trkpt lat="45.82695" lon="6.28628">
        <ele>2371.1</ele>
        <time>2022-01-06T09:46:10Z</time>
      </trkpt>
      <trkpt lat="45.82695" lon="6.28628">
        <ele>2371.1</ele>
        <time>2022-01-06T09:46:11Z</time>
      </trkpt>
      <trkpt lat="45.82695" lon="6.28628">
        <ele>2371.1</ele>
        <time>2022-01-06T09:46:12Z</time>
      </trkpt>
      <trkpt lat="45.82695" lon="6.28628">
        <ele>2371.1</ele>
        <time>2022-01-06T09:46:13Z</time>
      </trkpt>
      <trkpt lat="45.82694" lon="6.28628">
        <ele>2371.1</ele>
        <time>2022-01-06T09:46:14Z</time>
      </trkpt>
      <trkpt lat="45.82694" lon="6.28629">
        <ele>2371.1</ele>
        <time>2022-01-06T09:46:15Z</time>
      </trkpt>
      <trkpt lat="45.82694" lon="6.28629">
        <ele>2371.1</ele>
        <time>2022-01-06T09:46:16Z</time>
      </trkpt>
      <trkpt lat="45.82694" lon="6.28629">
        <ele>2371.1</ele>
        <time>2022-01-06T09:46:17Z</time>
      </trkpt>
      <trkpt lat="45.82694" lon="6.28629">
        <ele>2371.1</ele>
        <time>2022-01-06T09:46:18Z</time>
      </trkpt>
      <trkpt lat="45.82693" lon="6.28629">
        <ele>2371.1</ele>
        <time>2022-01-06T09:46:19Z</time>
      </trkpt>
      <trkpt lat="45.82693" lon="6.28629">
        <ele>2371.1</ele>
        <time>2022-01-06T09:46:20Z</time>
      </trkpt>
      <trkpt lat="45.82693" lon="6.2863">
        <ele>2371.1</ele>
        <time>2022-01-06T09:46:21Z</time>
      </trkpt>
      <trkpt lat="45.82692" lon="6.2863">
        <ele>2371.1</ele>
        <time>2022-01-06T09:46:22Z</time>
      </trkpt>
      <trkpt lat="45.82692" lon="6.28631">
        <ele>2371.1</ele>
        <time>2022-01-06T09:46:23Z</time>
      </trkpt>
      <trkpt lat="45.82692" lon="6.28631">
        <ele>2371.1</ele>
        <time>2022-01-06T09:46:24Z</time>
      </trkpt>
      <trkpt lat="45.82692" lon="6.28631">
        <ele>2371.1</ele>
        <time>2022-01-06T09:46:25Z</time>
      </trkpt>
      <trkpt lat="45.82692" lon="6.28631">
        <ele>2371.1</ele>
        <time>2022-01-06T09:46:26Z</time>
      </trkpt>
      <trkpt lat="45.82692" lon="6.28631">
        <ele>2371.1</ele>
        <time>2022-01-06T09:46:27Z</time>
      </trkpt>
      <trkpt lat="45.82692" lon="6.28631">
        <ele>2371.1</ele>
        <time>2022-01-06T09:46:28Z</time>
      </trkpt>
      <trkpt lat="45.82692" lon="6.28631">
        <ele>2370.2</ele>
        <time>2022-01-06T09:46:29Z</time>
      </trkpt>
      <trkpt lat="45.82692" lon="6.28631">
        <ele>2370.2</ele>
        <time>2022-01-06T09:46:30Z</time>
      </trkpt>
      <trkpt lat="45.82692" lon="6.28631">
        <ele>2370.2</ele>
        <time>2022-01-06T09:46:31Z</time>
      </trkpt>
      <trkpt lat="45.82692" lon="6.28631">
        <ele>2370.2</ele>
        <time>2022-01-06T09:46:32Z</time>
      </trkpt>
      <trkpt lat="45.82692" lon="6.28631">
        <ele>2371.1</ele>
        <time>2022-01-06T09:46:33Z</time>
      </trkpt>
      <trkpt lat="45.82692" lon="6.28631">
        <ele>2371.1</ele>
        <time>2022-01-06T09:46:34Z</time>
      </trkpt>
      <trkpt lat="45.82692" lon="6.28631">
        <ele>2371.1</ele>
        <time>2022-01-06T09:46:35Z</time>
      </trkpt>
      <trkpt lat="45.82692" lon="6.28631">
        <ele>2371.1</ele>
        <time>2022-01-06T09:46:36Z</time>
      </trkpt>
      <trkpt lat="45.82692" lon="6.28631">
        <ele>2371.1</ele>
        <time>2022-01-06T09:46:37Z</time>
      </trkpt>
      <trkpt lat="45.82692" lon="6.28631">
        <ele>2371.1</ele>
        <time>2022-01-06T09:46:38Z</time>
      </trkpt>
      <trkpt lat="45.82692" lon="6.28631">
        <ele>2371.1</ele>
        <time>2022-01-06T09:46:39Z</time>
      </trkpt>
      <trkpt lat="45.82692" lon="6.28631">
        <ele>2371.1</ele>
        <time>2022-01-06T09:46:40Z</time>
      </trkpt>
      <trkpt lat="45.82692" lon="6.28631">
        <ele>2371.1</ele>
        <time>2022-01-06T09:46:41Z</time>
      </trkpt>
      <trkpt lat="45.82692" lon="6.28631">
        <ele>2371.1</ele>
        <time>2022-01-06T09:46:42Z</time>
      </trkpt>
      <trkpt lat="45.82692" lon="6.2863">
        <ele>2371.1</ele>
        <time>2022-01-06T09:46:43Z</time>
      </trkpt>
      <trkpt lat="45.82692" lon="6.2863">
        <ele>2371.1</ele>
        <time>2022-01-06T09:46:44Z</time>
      </trkpt>
      <trkpt lat="45.82692" lon="6.2863">
        <ele>2371.1</ele>
        <time>2022-01-06T09:46:45Z</time>
      </trkpt>
      <trkpt lat="45.82692" lon="6.2863">
        <ele>2371.1</ele>
        <time>2022-01-06T09:46:46Z</time>
      </trkpt>
      <trkpt lat="45.82692" lon="6.2863">
        <ele>2371.1</ele>
        <time>2022-01-06T09:46:47Z</time>
      </trkpt>
      <trkpt lat="45.82692" lon="6.2863">
        <ele>2371.1</ele>
        <time>2022-01-06T09:46:48Z</time>
      </trkpt>
      <trkpt lat="45.82692" lon="6.2863">
        <ele>2371.1</ele>
        <time>2022-01-06T09:46:49Z</time>
      </trkpt>
      <trkpt lat="45.82692" lon="6.2863">
        <ele>2371.1</ele>
        <time>2022-01-06T09:46:50Z</time>
      </trkpt>
      <trkpt lat="45.82692" lon="6.2863">
        <ele>2370.2</ele>
        <time>2022-01-06T09:46:51Z</time>
      </trkpt>
      <trkpt lat="45.82692" lon="6.2863">
        <ele>2370.2</ele>
        <time>2022-01-06T09:46:52Z</time>
      </trkpt>
      <trkpt lat="45.82693" lon="6.2863">
        <ele>2370.2</ele>
        <time>2022-01-06T09:46:53Z</time>
      </trkpt>
      <trkpt lat="45.82693" lon="6.2863">
        <ele>2370.2</ele>
        <time>2022-01-06T09:46:54Z</time>
      </trkpt>
      <trkpt lat="45.82693" lon="6.2863">
        <ele>2370.2</ele>
        <time>2022-01-06T09:46:55Z</time>
      </trkpt>
      <trkpt lat="45.82693" lon="6.2863">
        <ele>2370.2</ele>
        <time>2022-01-06T09:46:56Z</time>
      </trkpt>
      <trkpt lat="45.82693" lon="6.2863">
        <ele>2370.2</ele>
        <time>2022-01-06T09:46:57Z</time>
      </trkpt>
      <trkpt lat="45.82693" lon="6.2863">
        <ele>2370.2</ele>
        <time>2022-01-06T09:46:58Z</time>
      </trkpt>
      <trkpt lat="45.82693" lon="6.2863">
        <ele>2370.2</ele>
        <time>2022-01-06T09:46:59Z</time>
      </trkpt>
      <trkpt lat="45.82693" lon="6.2863">
        <ele>2370.2</ele>
        <time>2022-01-06T09:47:00Z</time>
      </trkpt>
      <trkpt lat="45.82693" lon="6.2863">
        <ele>2370.2</ele>
        <time>2022-01-06T09:47:01Z</time>
      </trkpt>
      <trkpt lat="45.82693" lon="6.2863">
        <ele>2370.2</ele>
        <time>2022-01-06T09:47:02Z</time>
      </trkpt>
      <trkpt lat="45.82693" lon="6.2863">
        <ele>2369.1</ele>
        <time>2022-01-06T09:47:03Z</time>
      </trkpt>
      <trkpt lat="45.82693" lon="6.2863">
        <ele>2369.1</ele>
        <time>2022-01-06T09:47:04Z</time>
      </trkpt>
      <trkpt lat="45.82693" lon="6.2863">
        <ele>2369.1</ele>
        <time>2022-01-06T09:47:05Z</time>
      </trkpt>
      <trkpt lat="45.82693" lon="6.2863">
        <ele>2369.1</ele>
        <time>2022-01-06T09:47:06Z</time>
      </trkpt>
      <trkpt lat="45.82693" lon="6.2863">
        <ele>2369.1</ele>
        <time>2022-01-06T09:47:07Z</time>
      </trkpt>
      <trkpt lat="45.82693" lon="6.2863">
        <ele>2369.1</ele>
        <time>2022-01-06T09:47:08Z</time>
      </trkpt>
      <trkpt lat="45.82693" lon="6.2863">
        <ele>2369.1</ele>
        <time>2022-01-06T09:47:09Z</time>
      </trkpt>
      <trkpt lat="45.82693" lon="6.2863">
        <ele>2369.1</ele>
        <time>2022-01-06T09:47:10Z</time>
      </trkpt>
      <trkpt lat="45.82693" lon="6.2863">
        <ele>2370.2</ele>
        <time>2022-01-06T09:47:11Z</time>
      </trkpt>
      <trkpt lat="45.82693" lon="6.2863">
        <ele>2370.2</ele>
        <time>2022-01-06T09:47:12Z</time>
      </trkpt>
      <trkpt lat="45.82693" lon="6.2863">
        <ele>2370.2</ele>
        <time>2022-01-06T09:47:13Z</time>
      </trkpt>
      <trkpt lat="45.82693" lon="6.2863">
        <ele>2370.2</ele>
        <time>2022-01-06T09:47:14Z</time>
      </trkpt>
      <trkpt lat="45.82693" lon="6.2863">
        <ele>2370.2</ele>
        <time>2022-01-06T09:47:15Z</time>
      </trkpt>
      <trkpt lat="45.82693" lon="6.2863">
        <ele>2370.2</ele>
        <time>2022-01-06T09:47:16Z</time>
      </trkpt>
      <trkpt lat="45.82693" lon="6.28629">
        <ele>2370.2</ele>
        <time>2022-01-06T09:47:17Z</time>
      </trkpt>
      <trkpt lat="45.82693" lon="6.28629">
        <ele>2370.2</ele>
        <time>2022-01-06T09:47:18Z</time>
      </trkpt>
      <trkpt lat="45.82693" lon="6.28629">
        <ele>2370.2</ele>
        <time>2022-01-06T09:47:19Z</time>
      </trkpt>
      <trkpt lat="45.82693" lon="6.28629">
        <ele>2370.2</ele>
        <time>2022-01-06T09:47:20Z</time>
      </trkpt>
      <trkpt lat="45.82693" lon="6.28629">
        <ele>2370.2</ele>
        <time>2022-01-06T09:47:21Z</time>
      </trkpt>
      <trkpt lat="45.82693" lon="6.28629">
        <ele>2370.2</ele>
        <time>2022-01-06T09:47:22Z</time>
      </trkpt>
      <trkpt lat="45.82693" lon="6.28629">
        <ele>2370.2</ele>
        <time>2022-01-06T09:47:23Z</time>
      </trkpt>
      <trkpt lat="45.82693" lon="6.28629">
        <ele>2370.2</ele>
        <time>2022-01-06T09:47:24Z</time>
      </trkpt>
      <trkpt lat="45.82693" lon="6.28629">
        <ele>2370.2</ele>
        <time>2022-01-06T09:47:25Z</time>
      </trkpt>
      <trkpt lat="45.82693" lon="6.28629">
        <ele>2370.2</ele>
        <time>2022-01-06T09:47:26Z</time>
      </trkpt>
      <trkpt lat="45.82693" lon="6.28629">
        <ele>2370.2</ele>
        <time>2022-01-06T09:47:27Z</time>
      </trkpt>
      <trkpt lat="45.82693" lon="6.28629">
        <ele>2370.2</ele>
        <time>2022-01-06T09:47:28Z</time>
      </trkpt>
      <trkpt lat="45.82693" lon="6.28629">
        <ele>2370.2</ele>
        <time>2022-01-06T09:47:29Z</time>
      </trkpt>
      <trkpt lat="45.82693" lon="6.28629">
        <ele>2370.2</ele>
        <time>2022-01-06T09:47:30Z</time>
      </trkpt>
      <trkpt lat="45.82693" lon="6.28629">
        <ele>2370.2</ele>
        <time>2022-01-06T09:47:31Z</time>
      </trkpt>
      <trkpt lat="45.82693" lon="6.28629">
        <ele>2370.2</ele>
        <time>2022-01-06T09:47:32Z</time>
      </trkpt>
      <trkpt lat="45.82693" lon="6.28629">
        <ele>2370.2</ele>
        <time>2022-01-06T09:47:33Z</time>
      </trkpt>
      <trkpt lat="45.82693" lon="6.28629">
        <ele>2370.2</ele>
        <time>2022-01-06T09:47:34Z</time>
      </trkpt>
      <trkpt lat="45.82693" lon="6.28629">
        <ele>2370.2</ele>
        <time>2022-01-06T09:47:35Z</time>
      </trkpt>
      <trkpt lat="45.82693" lon="6.28629">
        <ele>2370.2</ele>
        <time>2022-01-06T09:47:36Z</time>
      </trkpt>
      <trkpt lat="45.82693" lon="6.28629">
        <ele>2370.2</ele>
        <time>2022-01-06T09:47:37Z</time>
      </trkpt>
      <trkpt lat="45.82693" lon="6.28629">
        <ele>2370.2</ele>
        <time>2022-01-06T09:47:38Z</time>
      </trkpt>
      <trkpt lat="45.82693" lon="6.28629">
        <ele>2369.1</ele>
        <time>2022-01-06T09:47:39Z</time>
      </trkpt>
      <trkpt lat="45.82693" lon="6.28629">
        <ele>2369.1</ele>
        <time>2022-01-06T09:47:40Z</time>
      </trkpt>
      <trkpt lat="45.82693" lon="6.28629">
        <ele>2369.1</ele>
        <time>2022-01-06T09:47:41Z</time>
      </trkpt>
      <trkpt lat="45.82693" lon="6.28629">
        <ele>2369.1</ele>
        <time>2022-01-06T09:47:42Z</time>
      </trkpt>
      <trkpt lat="45.82693" lon="6.28629">
        <ele>2369.1</ele>
        <time>2022-01-06T09:47:43Z</time>
      </trkpt>
      <trkpt lat="45.82693" lon="6.28629">
        <ele>2369.1</ele>
        <time>2022-01-06T09:47:44Z</time>
      </trkpt>
      <trkpt lat="45.82693" lon="6.28629">
        <ele>2370.2</ele>
        <time>2022-01-06T09:47:45Z</time>
      </trkpt>
      <trkpt lat="45.82693" lon="6.28629">
        <ele>2370.2</ele>
        <time>2022-01-06T09:47:46Z</time>
      </trkpt>
      <trkpt lat="45.82693" lon="6.28629">
        <ele>2370.2</ele>
        <time>2022-01-06T09:47:47Z</time>
      </trkpt>
      <trkpt lat="45.82693" lon="6.2863">
        <ele>2370.2</ele>
        <time>2022-01-06T09:47:48Z</time>
      </trkpt>
      <trkpt lat="45.82693" lon="6.2863">
        <ele>2370.2</ele>
        <time>2022-01-06T09:47:49Z</time>
      </trkpt>
      <trkpt lat="45.82693" lon="6.2863">
        <ele>2370.2</ele>
        <time>2022-01-06T09:47:50Z</time>
      </trkpt>
      <trkpt lat="45.82693" lon="6.2863">
        <ele>2370.2</ele>
        <time>2022-01-06T09:47:51Z</time>
      </trkpt>
      <trkpt lat="45.82693" lon="6.2863">
        <ele>2370.2</ele>
        <time>2022-01-06T09:47:52Z</time>
      </trkpt>
      <trkpt lat="45.82693" lon="6.2863">
        <ele>2370.2</ele>
        <time>2022-01-06T09:47:53Z</time>
      </trkpt>
      <trkpt lat="45.82693" lon="6.2863">
        <ele>2370.2</ele>
        <time>2022-01-06T09:47:54Z</time>
      </trkpt>
      <trkpt lat="45.82693" lon="6.28631">
        <ele>2370.2</ele>
        <time>2022-01-06T09:47:55Z</time>
      </trkpt>
      <trkpt lat="45.82693" lon="6.28631">
        <ele>2370.2</ele>
        <time>2022-01-06T09:47:56Z</time>
      </trkpt>
      <trkpt lat="45.82693" lon="6.28631">
        <ele>2370.2</ele>
        <time>2022-01-06T09:47:57Z</time>
      </trkpt>
      <trkpt lat="45.82693" lon="6.28631">
        <ele>2370.2</ele>
        <time>2022-01-06T09:47:58Z</time>
      </trkpt>
      <trkpt lat="45.82693" lon="6.28631">
        <ele>2370.2</ele>
        <time>2022-01-06T09:47:59Z</time>
      </trkpt>
      <trkpt lat="45.82693" lon="6.28631">
        <ele>2370.2</ele>
        <time>2022-01-06T09:48:00Z</time>
      </trkpt>
      <trkpt lat="45.82693" lon="6.28631">
        <ele>2371.1</ele>
        <time>2022-01-06T09:48:01Z</time>
      </trkpt>
      <trkpt lat="45.82693" lon="6.28631">
        <ele>2371.1</ele>
        <time>2022-01-06T09:48:02Z</time>
      </trkpt>
      <trkpt lat="45.82693" lon="6.28631">
        <ele>2371.1</ele>
        <time>2022-01-06T09:48:03Z</time>
      </trkpt>
      <trkpt lat="45.82693" lon="6.28631">
        <ele>2371.1</ele>
        <time>2022-01-06T09:48:04Z</time>
      </trkpt>
      <trkpt lat="45.82693" lon="6.28631">
        <ele>2370.2</ele>
        <time>2022-01-06T09:48:05Z</time>
      </trkpt>
      <trkpt lat="45.82693" lon="6.28631">
        <ele>2370.2</ele>
        <time>2022-01-06T09:48:06Z</time>
      </trkpt>
      <trkpt lat="45.82693" lon="6.28631">
        <ele>2370.2</ele>
        <time>2022-01-06T09:48:07Z</time>
      </trkpt>
      <trkpt lat="45.82693" lon="6.28631">
        <ele>2370.2</ele>
        <time>2022-01-06T09:48:08Z</time>
      </trkpt>
      <trkpt lat="45.82693" lon="6.28631">
        <ele>2370.2</ele>
        <time>2022-01-06T09:48:09Z</time>
      </trkpt>
      <trkpt lat="45.82693" lon="6.28632">
        <ele>2370.2</ele>
        <time>2022-01-06T09:48:10Z</time>
      </trkpt>
      <trkpt lat="45.82693" lon="6.28632">
        <ele>2370.2</ele>
        <time>2022-01-06T09:48:11Z</time>
      </trkpt>
      <trkpt lat="45.82693" lon="6.28632">
        <ele>2370.2</ele>
        <time>2022-01-06T09:48:12Z</time>
      </trkpt>
      <trkpt lat="45.82693" lon="6.28632">
        <ele>2370.2</ele>
        <time>2022-01-06T09:48:13Z</time>
      </trkpt>
      <trkpt lat="45.82693" lon="6.28632">
        <ele>2370.2</ele>
        <time>2022-01-06T09:48:14Z</time>
      </trkpt>
      <trkpt lat="45.82693" lon="6.28632">
        <ele>2370.2</ele>
        <time>2022-01-06T09:48:15Z</time>
      </trkpt>
      <trkpt lat="45.82693" lon="6.28632">
        <ele>2370.2</ele>
        <time>2022-01-06T09:48:16Z</time>
      </trkpt>
      <trkpt lat="45.82693" lon="6.28632">
        <ele>2370.2</ele>
        <time>2022-01-06T09:48:17Z</time>
      </trkpt>
      <trkpt lat="45.82693" lon="6.28632">
        <ele>2370.2</ele>
        <time>2022-01-06T09:48:18Z</time>
      </trkpt>
      <trkpt lat="45.82693" lon="6.28632">
        <ele>2370.2</ele>
        <time>2022-01-06T09:48:19Z</time>
      </trkpt>
      <trkpt lat="45.82693" lon="6.28632">
        <ele>2370.2</ele>
        <time>2022-01-06T09:48:20Z</time>
      </trkpt>
      <trkpt lat="45.82693" lon="6.28632">
        <ele>2369.1</ele>
        <time>2022-01-06T09:48:21Z</time>
      </trkpt>
      <trkpt lat="45.82693" lon="6.28632">
        <ele>2369.1</ele>
        <time>2022-01-06T09:48:22Z</time>
      </trkpt>
      <trkpt lat="45.82693" lon="6.28632">
        <ele>2369.1</ele>
        <time>2022-01-06T09:48:23Z</time>
      </trkpt>
      <trkpt lat="45.82693" lon="6.28632">
        <ele>2369.1</ele>
        <time>2022-01-06T09:48:24Z</time>
      </trkpt>
      <trkpt lat="45.82693" lon="6.28632">
        <ele>2370.2</ele>
        <time>2022-01-06T09:48:25Z</time>
      </trkpt>
      <trkpt lat="45.82693" lon="6.28632">
        <ele>2370.2</ele>
        <time>2022-01-06T09:48:26Z</time>
      </trkpt>
      <trkpt lat="45.82693" lon="6.28632">
        <ele>2370.2</ele>
        <time>2022-01-06T09:48:27Z</time>
      </trkpt>
      <trkpt lat="45.82693" lon="6.28632">
        <ele>2370.2</ele>
        <time>2022-01-06T09:48:28Z</time>
      </trkpt>
      <trkpt lat="45.82693" lon="6.28632">
        <ele>2369.1</ele>
        <time>2022-01-06T09:48:29Z</time>
      </trkpt>
      <trkpt lat="45.82693" lon="6.28632">
        <ele>2369.1</ele>
        <time>2022-01-06T09:48:30Z</time>
      </trkpt>
      <trkpt lat="45.82693" lon="6.28632">
        <ele>2369.1</ele>
        <time>2022-01-06T09:48:31Z</time>
      </trkpt>
      <trkpt lat="45.82693" lon="6.28632">
        <ele>2369.1</ele>
        <time>2022-01-06T09:48:32Z</time>
      </trkpt>
      <trkpt lat="45.82693" lon="6.28632">
        <ele>2369.1</ele>
        <time>2022-01-06T09:48:33Z</time>
      </trkpt>
      <trkpt lat="45.82693" lon="6.28632">
        <ele>2369.1</ele>
        <time>2022-01-06T09:48:34Z</time>
      </trkpt>
      <trkpt lat="45.82693" lon="6.28632">
        <ele>2369.1</ele>
        <time>2022-01-06T09:48:35Z</time>
      </trkpt>
      <trkpt lat="45.82693" lon="6.28632">
        <ele>2369.1</ele>
        <time>2022-01-06T09:48:36Z</time>
      </trkpt>
      <trkpt lat="45.82693" lon="6.28632">
        <ele>2369.1</ele>
        <time>2022-01-06T09:48:37Z</time>
      </trkpt>
      <trkpt lat="45.82693" lon="6.28632">
        <ele>2369.1</ele>
        <time>2022-01-06T09:48:38Z</time>
      </trkpt>
      <trkpt lat="45.82693" lon="6.28632">
        <ele>2368.2</ele>
        <time>2022-01-06T09:48:39Z</time>
      </trkpt>
      <trkpt lat="45.82693" lon="6.28632">
        <ele>2368.2</ele>
        <time>2022-01-06T09:48:40Z</time>
      </trkpt>
      <trkpt lat="45.82693" lon="6.28632">
        <ele>2368.2</ele>
        <time>2022-01-06T09:48:41Z</time>
      </trkpt>
      <trkpt lat="45.82693" lon="6.28632">
        <ele>2368.2</ele>
        <time>2022-01-06T09:48:42Z</time>
      </trkpt>
      <trkpt lat="45.82693" lon="6.28632">
        <ele>2368.2</ele>
        <time>2022-01-06T09:48:43Z</time>
      </trkpt>
      <trkpt lat="45.82693" lon="6.28632">
        <ele>2368.2</ele>
        <time>2022-01-06T09:48:44Z</time>
      </trkpt>
      <trkpt lat="45.82693" lon="6.28632">
        <ele>2368.2</ele>
        <time>2022-01-06T09:48:45Z</time>
      </trkpt>
      <trkpt lat="45.8269" lon="6.28633">
        <ele>2368.2</ele>
        <time>2022-01-06T09:48:46Z</time>
      </trkpt>
      <trkpt lat="45.8269" lon="6.28633">
        <ele>2368.2</ele>
        <time>2022-01-06T09:48:47Z</time>
      </trkpt>
      <trkpt lat="45.82689" lon="6.28633">
        <ele>2368.2</ele>
        <time>2022-01-06T09:48:48Z</time>
      </trkpt>
      <trkpt lat="45.82689" lon="6.28633">
        <ele>2368.2</ele>
        <time>2022-01-06T09:48:49Z</time>
      </trkpt>
      <trkpt lat="45.82689" lon="6.28633">
        <ele>2368.2</ele>
        <time>2022-01-06T09:48:50Z</time>
      </trkpt>
      <trkpt lat="45.82689" lon="6.28633">
        <ele>2369.1</ele>
        <time>2022-01-06T09:48:51Z</time>
      </trkpt>
      <trkpt lat="45.82689" lon="6.28633">
        <ele>2369.1</ele>
        <time>2022-01-06T09:48:52Z</time>
      </trkpt>
      <trkpt lat="45.82689" lon="6.28633">
        <ele>2369.1</ele>
        <time>2022-01-06T09:48:53Z</time>
      </trkpt>
      <trkpt lat="45.82689" lon="6.28633">
        <ele>2369.1</ele>
        <time>2022-01-06T09:48:54Z</time>
      </trkpt>
      <trkpt lat="45.82689" lon="6.28633">
        <ele>2369.1</ele>
        <time>2022-01-06T09:48:55Z</time>
      </trkpt>
      <trkpt lat="45.82688" lon="6.28633">
        <ele>2369.1</ele>
        <time>2022-01-06T09:48:56Z</time>
      </trkpt>
      <trkpt lat="45.82688" lon="6.28633">
        <ele>2369.1</ele>
        <time>2022-01-06T09:48:57Z</time>
      </trkpt>
      <trkpt lat="45.82688" lon="6.28633">
        <ele>2369.1</ele>
        <time>2022-01-06T09:48:58Z</time>
      </trkpt>
      <trkpt lat="45.82688" lon="6.28633">
        <ele>2369.1</ele>
        <time>2022-01-06T09:48:59Z</time>
      </trkpt>
      <trkpt lat="45.82688" lon="6.28633">
        <ele>2369.1</ele>
        <time>2022-01-06T09:49:00Z</time>
      </trkpt>
      <trkpt lat="45.82688" lon="6.28633">
        <ele>2370.2</ele>
        <time>2022-01-06T09:49:01Z</time>
      </trkpt>
      <trkpt lat="45.82688" lon="6.28633">
        <ele>2370.2</ele>
        <time>2022-01-06T09:49:02Z</time>
      </trkpt>
      <trkpt lat="45.82688" lon="6.28633">
        <ele>2370.2</ele>
        <time>2022-01-06T09:49:03Z</time>
      </trkpt>
      <trkpt lat="45.82688" lon="6.28633">
        <ele>2370.2</ele>
        <time>2022-01-06T09:49:04Z</time>
      </trkpt>
      <trkpt lat="45.82688" lon="6.28633">
        <ele>2371.1</ele>
        <time>2022-01-06T09:49:05Z</time>
      </trkpt>
      <trkpt lat="45.82688" lon="6.28633">
        <ele>2371.1</ele>
        <time>2022-01-06T09:49:06Z</time>
      </trkpt>
      <trkpt lat="45.82688" lon="6.28633">
        <ele>2371.1</ele>
        <time>2022-01-06T09:49:07Z</time>
      </trkpt>
      <trkpt lat="45.82688" lon="6.28633">
        <ele>2371.1</ele>
        <time>2022-01-06T09:49:08Z</time>
      </trkpt>
      <trkpt lat="45.82688" lon="6.28633">
        <ele>2371.1</ele>
        <time>2022-01-06T09:49:09Z</time>
      </trkpt>
      <trkpt lat="45.82688" lon="6.28632">
        <ele>2371.1</ele>
        <time>2022-01-06T09:49:10Z</time>
      </trkpt>
      <trkpt lat="45.82688" lon="6.28632">
        <ele>2371.1</ele>
        <time>2022-01-06T09:49:11Z</time>
      </trkpt>
      <trkpt lat="45.82688" lon="6.28632">
        <ele>2371.1</ele>
        <time>2022-01-06T09:49:12Z</time>
      </trkpt>
      <trkpt lat="45.82688" lon="6.28632">
        <ele>2370.2</ele>
        <time>2022-01-06T09:49:13Z</time>
      </trkpt>
      <trkpt lat="45.82688" lon="6.28632">
        <ele>2370.2</ele>
        <time>2022-01-06T09:49:14Z</time>
      </trkpt>
      <trkpt lat="45.82688" lon="6.28632">
        <ele>2370.2</ele>
        <time>2022-01-06T09:49:15Z</time>
      </trkpt>
      <trkpt lat="45.82688" lon="6.28632">
        <ele>2370.2</ele>
        <time>2022-01-06T09:49:16Z</time>
      </trkpt>
      <trkpt lat="45.82688" lon="6.28631">
        <ele>2370.2</ele>
        <time>2022-01-06T09:49:17Z</time>
      </trkpt>
      <trkpt lat="45.82688" lon="6.28631">
        <ele>2370.2</ele>
        <time>2022-01-06T09:49:18Z</time>
      </trkpt>
      <trkpt lat="45.82688" lon="6.28631">
        <ele>2370.2</ele>
        <time>2022-01-06T09:49:19Z</time>
      </trkpt>
      <trkpt lat="45.82688" lon="6.28631">
        <ele>2370.2</ele>
        <time>2022-01-06T09:49:20Z</time>
      </trkpt>
      <trkpt lat="45.82688" lon="6.28631">
        <ele>2370.2</ele>
        <time>2022-01-06T09:49:21Z</time>
      </trkpt>
      <trkpt lat="45.82688" lon="6.28631">
        <ele>2370.2</ele>
        <time>2022-01-06T09:49:22Z</time>
      </trkpt>
      <trkpt lat="45.82688" lon="6.2863">
        <ele>2370.2</ele>
        <time>2022-01-06T09:49:23Z</time>
      </trkpt>
      <trkpt lat="45.82688" lon="6.2863">
        <ele>2370.2</ele>
        <time>2022-01-06T09:49:24Z</time>
      </trkpt>
      <trkpt lat="45.82688" lon="6.2863">
        <ele>2370.2</ele>
        <time>2022-01-06T09:49:25Z</time>
      </trkpt>
      <trkpt lat="45.82688" lon="6.2863">
        <ele>2370.2</ele>
        <time>2022-01-06T09:49:26Z</time>
      </trkpt>
      <trkpt lat="45.82688" lon="6.2863">
        <ele>2370.2</ele>
        <time>2022-01-06T09:49:27Z</time>
      </trkpt>
      <trkpt lat="45.82688" lon="6.2863">
        <ele>2370.2</ele>
        <time>2022-01-06T09:49:28Z</time>
      </trkpt>
      <trkpt lat="45.82688" lon="6.2863">
        <ele>2370.2</ele>
        <time>2022-01-06T09:49:29Z</time>
      </trkpt>
      <trkpt lat="45.82688" lon="6.2863">
        <ele>2370.2</ele>
        <time>2022-01-06T09:49:30Z</time>
      </trkpt>
      <trkpt lat="45.82688" lon="6.2863">
        <ele>2370.2</ele>
        <time>2022-01-06T09:49:31Z</time>
      </trkpt>
      <trkpt lat="45.82688" lon="6.2863">
        <ele>2370.2</ele>
        <time>2022-01-06T09:49:32Z</time>
      </trkpt>
      <trkpt lat="45.82688" lon="6.2863">
        <ele>2370.2</ele>
        <time>2022-01-06T09:49:33Z</time>
      </trkpt>
      <trkpt lat="45.82688" lon="6.2863">
        <ele>2370.2</ele>
        <time>2022-01-06T09:49:34Z</time>
      </trkpt>
      <trkpt lat="45.82688" lon="6.2863">
        <ele>2370.2</ele>
        <time>2022-01-06T09:49:35Z</time>
      </trkpt>
      <trkpt lat="45.82688" lon="6.2863">
        <ele>2370.2</ele>
        <time>2022-01-06T09:49:36Z</time>
      </trkpt>
      <trkpt lat="45.82688" lon="6.28629">
        <ele>2370.2</ele>
        <time>2022-01-06T09:49:37Z</time>
      </trkpt>
      <trkpt lat="45.82688" lon="6.28629">
        <ele>2370.2</ele>
        <time>2022-01-06T09:49:38Z</time>
      </trkpt>
      <trkpt lat="45.82688" lon="6.28629">
        <ele>2370.2</ele>
        <time>2022-01-06T09:49:39Z</time>
      </trkpt>
      <trkpt lat="45.82688" lon="6.28628">
        <ele>2370.2</ele>
        <time>2022-01-06T09:49:40Z</time>
      </trkpt>
      <trkpt lat="45.82688" lon="6.28628">
        <ele>2370.2</ele>
        <time>2022-01-06T09:49:41Z</time>
      </trkpt>
      <trkpt lat="45.82688" lon="6.28628">
        <ele>2370.2</ele>
        <time>2022-01-06T09:49:42Z</time>
      </trkpt>
      <trkpt lat="45.82688" lon="6.28628">
        <ele>2370.2</ele>
        <time>2022-01-06T09:49:43Z</time>
      </trkpt>
      <trkpt lat="45.82688" lon="6.28627">
        <ele>2370.2</ele>
        <time>2022-01-06T09:49:44Z</time>
      </trkpt>
      <trkpt lat="45.82688" lon="6.28627">
        <ele>2370.2</ele>
        <time>2022-01-06T09:49:45Z</time>
      </trkpt>
      <trkpt lat="45.82688" lon="6.28627">
        <ele>2370.2</ele>
        <time>2022-01-06T09:49:46Z</time>
      </trkpt>
      <trkpt lat="45.82688" lon="6.28627">
        <ele>2371.1</ele>
        <time>2022-01-06T09:49:47Z</time>
      </trkpt>
      <trkpt lat="45.82688" lon="6.28627">
        <ele>2371.1</ele>
        <time>2022-01-06T09:49:48Z</time>
      </trkpt>
      <trkpt lat="45.82688" lon="6.28627">
        <ele>2371.1</ele>
        <time>2022-01-06T09:49:49Z</time>
      </trkpt>
      <trkpt lat="45.82688" lon="6.28627">
        <ele>2371.1</ele>
        <time>2022-01-06T09:49:50Z</time>
      </trkpt>
      <trkpt lat="45.82688" lon="6.28627">
        <ele>2371.1</ele>
        <time>2022-01-06T09:49:51Z</time>
      </trkpt>
      <trkpt lat="45.82688" lon="6.28627">
        <ele>2371.1</ele>
        <time>2022-01-06T09:49:52Z</time>
      </trkpt>
      <trkpt lat="45.82688" lon="6.28627">
        <ele>2371.1</ele>
        <time>2022-01-06T09:49:53Z</time>
      </trkpt>
      <trkpt lat="45.82688" lon="6.28627">
        <ele>2371.1</ele>
        <time>2022-01-06T09:49:54Z</time>
      </trkpt>
      <trkpt lat="45.82688" lon="6.28627">
        <ele>2371.1</ele>
        <time>2022-01-06T09:49:55Z</time>
      </trkpt>
      <trkpt lat="45.82688" lon="6.28627">
        <ele>2371.1</ele>
        <time>2022-01-06T09:49:56Z</time>
      </trkpt>
      <trkpt lat="45.82688" lon="6.28627">
        <ele>2371.1</ele>
        <time>2022-01-06T09:49:57Z</time>
      </trkpt>
      <trkpt lat="45.82687" lon="6.28627">
        <ele>2371.1</ele>
        <time>2022-01-06T09:49:58Z</time>
      </trkpt>
      <trkpt lat="45.82687" lon="6.28627">
        <ele>2371.1</ele>
        <time>2022-01-06T09:49:59Z</time>
      </trkpt>
      <trkpt lat="45.82687" lon="6.28627">
        <ele>2371.1</ele>
        <time>2022-01-06T09:50:00Z</time>
      </trkpt>
      <trkpt lat="45.82687" lon="6.28627">
        <ele>2371.1</ele>
        <time>2022-01-06T09:50:01Z</time>
      </trkpt>
      <trkpt lat="45.82687" lon="6.28627">
        <ele>2371.1</ele>
        <time>2022-01-06T09:50:02Z</time>
      </trkpt>
      <trkpt lat="45.82687" lon="6.28627">
        <ele>2369.1</ele>
        <time>2022-01-06T09:50:03Z</time>
      </trkpt>
      <trkpt lat="45.82687" lon="6.28627">
        <ele>2369.1</ele>
        <time>2022-01-06T09:50:04Z</time>
      </trkpt>
      <trkpt lat="45.82687" lon="6.28627">
        <ele>2369.1</ele>
        <time>2022-01-06T09:50:05Z</time>
      </trkpt>
      <trkpt lat="45.82687" lon="6.28627">
        <ele>2369.1</ele>
        <time>2022-01-06T09:50:06Z</time>
      </trkpt>
      <trkpt lat="45.82687" lon="6.28627">
        <ele>2369.1</ele>
        <time>2022-01-06T09:50:07Z</time>
      </trkpt>
      <trkpt lat="45.82687" lon="6.28627">
        <ele>2369.1</ele>
        <time>2022-01-06T09:50:08Z</time>
      </trkpt>
      <trkpt lat="45.82687" lon="6.28627">
        <ele>2369.1</ele>
        <time>2022-01-06T09:50:09Z</time>
      </trkpt>
      <trkpt lat="45.82687" lon="6.28627">
        <ele>2369.1</ele>
        <time>2022-01-06T09:50:10Z</time>
      </trkpt>
      <trkpt lat="45.82687" lon="6.28627">
        <ele>2369.1</ele>
        <time>2022-01-06T09:50:11Z</time>
      </trkpt>
      <trkpt lat="45.82687" lon="6.28627">
        <ele>2369.1</ele>
        <time>2022-01-06T09:50:12Z</time>
      </trkpt>
      <trkpt lat="45.82687" lon="6.28628">
        <ele>2369.1</ele>
        <time>2022-01-06T09:50:13Z</time>
      </trkpt>
      <trkpt lat="45.82687" lon="6.28628">
        <ele>2369.1</ele>
        <time>2022-01-06T09:50:14Z</time>
      </trkpt>
      <trkpt lat="45.82687" lon="6.28628">
        <ele>2369.1</ele>
        <time>2022-01-06T09:50:15Z</time>
      </trkpt>
      <trkpt lat="45.82687" lon="6.28629">
        <ele>2369.1</ele>
        <time>2022-01-06T09:50:16Z</time>
      </trkpt>
      <trkpt lat="45.82687" lon="6.2863">
        <ele>2369.1</ele>
        <time>2022-01-06T09:50:17Z</time>
      </trkpt>
      <trkpt lat="45.82687" lon="6.2863">
        <ele>2369.1</ele>
        <time>2022-01-06T09:50:18Z</time>
      </trkpt>
      <trkpt lat="45.82687" lon="6.2863">
        <ele>2368.2</ele>
        <time>2022-01-06T09:50:19Z</time>
      </trkpt>
      <trkpt lat="45.82687" lon="6.2863">
        <ele>2368.2</ele>
        <time>2022-01-06T09:50:20Z</time>
      </trkpt>
      <trkpt lat="45.82687" lon="6.2863">
        <ele>2368.2</ele>
        <time>2022-01-06T09:50:21Z</time>
      </trkpt>
      <trkpt lat="45.82687" lon="6.2863">
        <ele>2368.2</ele>
        <time>2022-01-06T09:50:22Z</time>
      </trkpt>
      <trkpt lat="45.82687" lon="6.2863">
        <ele>2368.2</ele>
        <time>2022-01-06T09:50:23Z</time>
      </trkpt>
      <trkpt lat="45.82688" lon="6.28631">
        <ele>2368.2</ele>
        <time>2022-01-06T09:50:24Z</time>
      </trkpt>
      <trkpt lat="45.82688" lon="6.28631">
        <ele>2369.1</ele>
        <time>2022-01-06T09:50:25Z</time>
      </trkpt>
      <trkpt lat="45.82688" lon="6.28631">
        <ele>2369.1</ele>
        <time>2022-01-06T09:50:26Z</time>
      </trkpt>
      <trkpt lat="45.82688" lon="6.28631">
        <ele>2369.1</ele>
        <time>2022-01-06T09:50:27Z</time>
      </trkpt>
      <trkpt lat="45.82688" lon="6.28631">
        <ele>2369.1</ele>
        <time>2022-01-06T09:50:28Z</time>
      </trkpt>
      <trkpt lat="45.82688" lon="6.28631">
        <ele>2369.1</ele>
        <time>2022-01-06T09:50:29Z</time>
      </trkpt>
      <trkpt lat="45.82689" lon="6.28631">
        <ele>2369.1</ele>
        <time>2022-01-06T09:50:30Z</time>
      </trkpt>
      <trkpt lat="45.82689" lon="6.28631">
        <ele>2369.1</ele>
        <time>2022-01-06T09:50:31Z</time>
      </trkpt>
      <trkpt lat="45.82689" lon="6.28631">
        <ele>2369.1</ele>
        <time>2022-01-06T09:50:32Z</time>
      </trkpt>
      <trkpt lat="45.82689" lon="6.28631">
        <ele>2369.1</ele>
        <time>2022-01-06T09:50:33Z</time>
      </trkpt>
      <trkpt lat="45.82689" lon="6.28631">
        <ele>2369.1</ele>
        <time>2022-01-06T09:50:34Z</time>
      </trkpt>
      <trkpt lat="45.82689" lon="6.28631">
        <ele>2369.1</ele>
        <time>2022-01-06T09:50:35Z</time>
      </trkpt>
      <trkpt lat="45.82689" lon="6.28631">
        <ele>2369.1</ele>
        <time>2022-01-06T09:50:36Z</time>
      </trkpt>
      <trkpt lat="45.82689" lon="6.28631">
        <ele>2369.1</ele>
        <time>2022-01-06T09:50:37Z</time>
      </trkpt>
      <trkpt lat="45.82689" lon="6.28631">
        <ele>2369.1</ele>
        <time>2022-01-06T09:50:38Z</time>
      </trkpt>
      <trkpt lat="45.8269" lon="6.28631">
        <ele>2368.2</ele>
        <time>2022-01-06T09:50:39Z</time>
      </trkpt>
      <trkpt lat="45.8269" lon="6.28631">
        <ele>2368.2</ele>
        <time>2022-01-06T09:50:40Z</time>
      </trkpt>
      <trkpt lat="45.8269" lon="6.28631">
        <ele>2368.2</ele>
        <time>2022-01-06T09:50:41Z</time>
      </trkpt>
      <trkpt lat="45.8269" lon="6.28631">
        <ele>2368.2</ele>
        <time>2022-01-06T09:50:42Z</time>
      </trkpt>
      <trkpt lat="45.8269" lon="6.28631">
        <ele>2368.2</ele>
        <time>2022-01-06T09:50:43Z</time>
      </trkpt>
      <trkpt lat="45.82691" lon="6.28631">
        <ele>2368.2</ele>
        <time>2022-01-06T09:50:44Z</time>
      </trkpt>
      <trkpt lat="45.82691" lon="6.28631">
        <ele>2368.2</ele>
        <time>2022-01-06T09:50:45Z</time>
      </trkpt>
      <trkpt lat="45.82691" lon="6.28631">
        <ele>2368.2</ele>
        <time>2022-01-06T09:50:46Z</time>
      </trkpt>
      <trkpt lat="45.82691" lon="6.28631">
        <ele>2368.2</ele>
        <time>2022-01-06T09:50:47Z</time>
      </trkpt>
      <trkpt lat="45.82691" lon="6.28631">
        <ele>2368.2</ele>
        <time>2022-01-06T09:50:48Z</time>
      </trkpt>
      <trkpt lat="45.82691" lon="6.28631">
        <ele>2368.2</ele>
        <time>2022-01-06T09:50:49Z</time>
      </trkpt>
      <trkpt lat="45.82691" lon="6.2863">
        <ele>2368.2</ele>
        <time>2022-01-06T09:50:50Z</time>
      </trkpt>
      <trkpt lat="45.82691" lon="6.2863">
        <ele>2368.2</ele>
        <time>2022-01-06T09:50:51Z</time>
      </trkpt>
      <trkpt lat="45.82691" lon="6.2863">
        <ele>2368.2</ele>
        <time>2022-01-06T09:50:52Z</time>
      </trkpt>
      <trkpt lat="45.82691" lon="6.2863">
        <ele>2368.2</ele>
        <time>2022-01-06T09:50:53Z</time>
      </trkpt>
      <trkpt lat="45.82691" lon="6.2863">
        <ele>2368.2</ele>
        <time>2022-01-06T09:50:54Z</time>
      </trkpt>
      <trkpt lat="45.82691" lon="6.28631">
        <ele>2368.2</ele>
        <time>2022-01-06T09:50:55Z</time>
      </trkpt>
      <trkpt lat="45.82691" lon="6.28632">
        <ele>2368.2</ele>
        <time>2022-01-06T09:50:56Z</time>
      </trkpt>
      <trkpt lat="45.82691" lon="6.28632">
        <ele>2369.1</ele>
        <time>2022-01-06T09:50:57Z</time>
      </trkpt>
      <trkpt lat="45.82691" lon="6.28633">
        <ele>2369.1</ele>
        <time>2022-01-06T09:50:58Z</time>
      </trkpt>
      <trkpt lat="45.82691" lon="6.28633">
        <ele>2369.1</ele>
        <time>2022-01-06T09:50:59Z</time>
      </trkpt>
      <trkpt lat="45.82691" lon="6.28633">
        <ele>2369.1</ele>
        <time>2022-01-06T09:51:00Z</time>
      </trkpt>
      <trkpt lat="45.82691" lon="6.28633">
        <ele>2369.1</ele>
        <time>2022-01-06T09:51:01Z</time>
      </trkpt>
      <trkpt lat="45.82691" lon="6.28634">
        <ele>2369.1</ele>
        <time>2022-01-06T09:51:02Z</time>
      </trkpt>
      <trkpt lat="45.82691" lon="6.28634">
        <ele>2369.1</ele>
        <time>2022-01-06T09:51:03Z</time>
      </trkpt>
      <trkpt lat="45.82691" lon="6.28634">
        <ele>2369.1</ele>
        <time>2022-01-06T09:51:04Z</time>
      </trkpt>
      <trkpt lat="45.82692" lon="6.28634">
        <ele>2369.1</ele>
        <time>2022-01-06T09:51:05Z</time>
      </trkpt>
      <trkpt lat="45.82692" lon="6.28634">
        <ele>2369.1</ele>
        <time>2022-01-06T09:51:06Z</time>
      </trkpt>
      <trkpt lat="45.82692" lon="6.28633">
        <ele>2369.1</ele>
        <time>2022-01-06T09:51:07Z</time>
      </trkpt>
      <trkpt lat="45.82693" lon="6.28633">
        <ele>2369.1</ele>
        <time>2022-01-06T09:51:08Z</time>
      </trkpt>
      <trkpt lat="45.82693" lon="6.28633">
        <ele>2369.1</ele>
        <time>2022-01-06T09:51:09Z</time>
      </trkpt>
      <trkpt lat="45.82693" lon="6.28633">
        <ele>2369.1</ele>
        <time>2022-01-06T09:51:10Z</time>
      </trkpt>
      <trkpt lat="45.82693" lon="6.28633">
        <ele>2369.1</ele>
        <time>2022-01-06T09:51:11Z</time>
      </trkpt>
      <trkpt lat="45.82693" lon="6.28633">
        <ele>2369.1</ele>
        <time>2022-01-06T09:51:12Z</time>
      </trkpt>
      <trkpt lat="45.82693" lon="6.28633">
        <ele>2369.1</ele>
        <time>2022-01-06T09:51:13Z</time>
      </trkpt>
      <trkpt lat="45.82693" lon="6.28633">
        <ele>2369.1</ele>
        <time>2022-01-06T09:51:14Z</time>
      </trkpt>
      <trkpt lat="45.82693" lon="6.28633">
        <ele>2369.1</ele>
        <time>2022-01-06T09:51:15Z</time>
      </trkpt>
      <trkpt lat="45.82693" lon="6.28633">
        <ele>2369.1</ele>
        <time>2022-01-06T09:51:16Z</time>
      </trkpt>
      <trkpt lat="45.82693" lon="6.28633">
        <ele>2369.1</ele>
        <time>2022-01-06T09:51:17Z</time>
      </trkpt>
      <trkpt lat="45.82692" lon="6.28633">
        <ele>2369.1</ele>
        <time>2022-01-06T09:51:18Z</time>
      </trkpt>
      <trkpt lat="45.82692" lon="6.28633">
        <ele>2369.1</ele>
        <time>2022-01-06T09:51:19Z</time>
      </trkpt>
      <trkpt lat="45.82692" lon="6.28633">
        <ele>2369.1</ele>
        <time>2022-01-06T09:51:20Z</time>
      </trkpt>
      <trkpt lat="45.82692" lon="6.28633">
        <ele>2369.1</ele>
        <time>2022-01-06T09:51:21Z</time>
      </trkpt>
      <trkpt lat="45.82692" lon="6.28633">
        <ele>2369.1</ele>
        <time>2022-01-06T09:51:22Z</time>
      </trkpt>
      <trkpt lat="45.82692" lon="6.28633">
        <ele>2368.2</ele>
        <time>2022-01-06T09:51:23Z</time>
      </trkpt>
      <trkpt lat="45.82692" lon="6.28633">
        <ele>2368.2</ele>
        <time>2022-01-06T09:51:24Z</time>
      </trkpt>
      <trkpt lat="45.82692" lon="6.28633">
        <ele>2368.2</ele>
        <time>2022-01-06T09:51:25Z</time>
      </trkpt>
      <trkpt lat="45.82692" lon="6.28633">
        <ele>2368.2</ele>
        <time>2022-01-06T09:51:26Z</time>
      </trkpt>
      <trkpt lat="45.82692" lon="6.28633">
        <ele>2367.1</ele>
        <time>2022-01-06T09:51:27Z</time>
      </trkpt>
      <trkpt lat="45.82692" lon="6.28633">
        <ele>2367.1</ele>
        <time>2022-01-06T09:51:28Z</time>
      </trkpt>
      <trkpt lat="45.82692" lon="6.28633">
        <ele>2367.1</ele>
        <time>2022-01-06T09:51:29Z</time>
      </trkpt>
      <trkpt lat="45.82692" lon="6.28633">
        <ele>2367.1</ele>
        <time>2022-01-06T09:51:30Z</time>
      </trkpt>
      <trkpt lat="45.82694" lon="6.28634">
        <ele>2367.1</ele>
        <time>2022-01-06T09:51:31Z</time>
      </trkpt>
      <trkpt lat="45.82695" lon="6.28634">
        <ele>2367.1</ele>
        <time>2022-01-06T09:51:32Z</time>
      </trkpt>
      <trkpt lat="45.82696" lon="6.28635">
        <ele>2368.2</ele>
        <time>2022-01-06T09:51:33Z</time>
      </trkpt>
      <trkpt lat="45.82698" lon="6.28636">
        <ele>2368.2</ele>
        <time>2022-01-06T09:51:34Z</time>
      </trkpt>
      <trkpt lat="45.827" lon="6.28637">
        <ele>2368.2</ele>
        <time>2022-01-06T09:51:35Z</time>
      </trkpt>
      <trkpt lat="45.82702" lon="6.28637">
        <ele>2368.2</ele>
        <time>2022-01-06T09:51:36Z</time>
      </trkpt>
      <trkpt lat="45.82703" lon="6.28638">
        <ele>2367.1</ele>
        <time>2022-01-06T09:51:37Z</time>
      </trkpt>
      <trkpt lat="45.82705" lon="6.28638">
        <ele>2367.1</ele>
        <time>2022-01-06T09:51:38Z</time>
      </trkpt>
      <trkpt lat="45.82705" lon="6.28638">
        <ele>2367.1</ele>
        <time>2022-01-06T09:51:39Z</time>
      </trkpt>
      <trkpt lat="45.82705" lon="6.28638">
        <ele>2367.1</ele>
        <time>2022-01-06T09:51:40Z</time>
      </trkpt>
      <trkpt lat="45.82705" lon="6.28639">
        <ele>2367.1</ele>
        <time>2022-01-06T09:51:41Z</time>
      </trkpt>
      <trkpt lat="45.82705" lon="6.28639">
        <ele>2367.1</ele>
        <time>2022-01-06T09:51:42Z</time>
      </trkpt>
      <trkpt lat="45.82705" lon="6.28639">
        <ele>2368.2</ele>
        <time>2022-01-06T09:51:43Z</time>
      </trkpt>
      <trkpt lat="45.82704" lon="6.28639">
        <ele>2368.2</ele>
        <time>2022-01-06T09:51:44Z</time>
      </trkpt>
      <trkpt lat="45.82704" lon="6.28639">
        <ele>2367.1</ele>
        <time>2022-01-06T09:51:45Z</time>
      </trkpt>
      <trkpt lat="45.82704" lon="6.28639">
        <ele>2367.1</ele>
        <time>2022-01-06T09:51:46Z</time>
      </trkpt>
      <trkpt lat="45.82705" lon="6.2864">
        <ele>2367.1</ele>
        <time>2022-01-06T09:51:47Z</time>
      </trkpt>
      <trkpt lat="45.82705" lon="6.28641">
        <ele>2367.1</ele>
        <time>2022-01-06T09:51:48Z</time>
      </trkpt>
      <trkpt lat="45.82705" lon="6.28641">
        <ele>2367.1</ele>
        <time>2022-01-06T09:51:49Z</time>
      </trkpt>
      <trkpt lat="45.82706" lon="6.2864">
        <ele>2367.1</ele>
        <time>2022-01-06T09:51:50Z</time>
      </trkpt>
      <trkpt lat="45.82706" lon="6.2864">
        <ele>2367.1</ele>
        <time>2022-01-06T09:51:51Z</time>
      </trkpt>
      <trkpt lat="45.82707" lon="6.2864">
        <ele>2367.1</ele>
        <time>2022-01-06T09:51:52Z</time>
      </trkpt>
      <trkpt lat="45.82707" lon="6.28641">
        <ele>2367.1</ele>
        <time>2022-01-06T09:51:53Z</time>
      </trkpt>
      <trkpt lat="45.82707" lon="6.2864">
        <ele>2367.1</ele>
        <time>2022-01-06T09:51:54Z</time>
      </trkpt>
      <trkpt lat="45.82707" lon="6.2864">
        <ele>2367.1</ele>
        <time>2022-01-06T09:51:55Z</time>
      </trkpt>
      <trkpt lat="45.82707" lon="6.2864">
        <ele>2367.1</ele>
        <time>2022-01-06T09:51:56Z</time>
      </trkpt>
      <trkpt lat="45.82707" lon="6.2864">
        <ele>2366</ele>
        <time>2022-01-06T09:51:57Z</time>
      </trkpt>
      <trkpt lat="45.82707" lon="6.28641">
        <ele>2366</ele>
        <time>2022-01-06T09:51:58Z</time>
      </trkpt>
      <trkpt lat="45.82707" lon="6.2864">
        <ele>2366</ele>
        <time>2022-01-06T09:51:59Z</time>
      </trkpt>
      <trkpt lat="45.82707" lon="6.2864">
        <ele>2366</ele>
        <time>2022-01-06T09:52:00Z</time>
      </trkpt>
      <trkpt lat="45.82707" lon="6.28641">
        <ele>2366</ele>
        <time>2022-01-06T09:52:01Z</time>
      </trkpt>
      <trkpt lat="45.82707" lon="6.28641">
        <ele>2366</ele>
        <time>2022-01-06T09:52:02Z</time>
      </trkpt>
      <trkpt lat="45.82707" lon="6.28641">
        <ele>2366</ele>
        <time>2022-01-06T09:52:03Z</time>
      </trkpt>
      <trkpt lat="45.82707" lon="6.28642">
        <ele>2366</ele>
        <time>2022-01-06T09:52:04Z</time>
      </trkpt>
      <trkpt lat="45.82707" lon="6.28642">
        <ele>2366</ele>
        <time>2022-01-06T09:52:05Z</time>
      </trkpt>
      <trkpt lat="45.82708" lon="6.28641">
        <ele>2366</ele>
        <time>2022-01-06T09:52:06Z</time>
      </trkpt>
      <trkpt lat="45.82708" lon="6.28642">
        <ele>2366</ele>
        <time>2022-01-06T09:52:07Z</time>
      </trkpt>
      <trkpt lat="45.82707" lon="6.28644">
        <ele>2366</ele>
        <time>2022-01-06T09:52:08Z</time>
      </trkpt>
      <trkpt lat="45.82706" lon="6.28646">
        <ele>2364.1</ele>
        <time>2022-01-06T09:52:09Z</time>
      </trkpt>
      <trkpt lat="45.82704" lon="6.28647">
        <ele>2364.1</ele>
        <time>2022-01-06T09:52:10Z</time>
      </trkpt>
      <trkpt lat="45.82702" lon="6.2865">
        <ele>2364.1</ele>
        <time>2022-01-06T09:52:11Z</time>
      </trkpt>
      <trkpt lat="45.82699" lon="6.28652">
        <ele>2364.1</ele>
        <time>2022-01-06T09:52:12Z</time>
      </trkpt>
      <trkpt lat="45.82696" lon="6.28654">
        <ele>2364.1</ele>
        <time>2022-01-06T09:52:13Z</time>
      </trkpt>
      <trkpt lat="45.82693" lon="6.28655">
        <ele>2364.1</ele>
        <time>2022-01-06T09:52:14Z</time>
      </trkpt>
      <trkpt lat="45.82691" lon="6.28656">
        <ele>2364.1</ele>
        <time>2022-01-06T09:52:15Z</time>
      </trkpt>
      <trkpt lat="45.82689" lon="6.28658">
        <ele>2364.1</ele>
        <time>2022-01-06T09:52:16Z</time>
      </trkpt>
      <trkpt lat="45.82686" lon="6.2866">
        <ele>2361.2</ele>
        <time>2022-01-06T09:52:17Z</time>
      </trkpt>
      <trkpt lat="45.82684" lon="6.28661">
        <ele>2361.2</ele>
        <time>2022-01-06T09:52:18Z</time>
      </trkpt>
      <trkpt lat="45.82681" lon="6.28661">
        <ele>2359</ele>
        <time>2022-01-06T09:52:19Z</time>
      </trkpt>
      <trkpt lat="45.82678" lon="6.28661">
        <ele>2359</ele>
        <time>2022-01-06T09:52:20Z</time>
      </trkpt>
      <trkpt lat="45.82676" lon="6.2866">
        <ele>2357</ele>
        <time>2022-01-06T09:52:21Z</time>
      </trkpt>
      <trkpt lat="45.82673" lon="6.2866">
        <ele>2357</ele>
        <time>2022-01-06T09:52:22Z</time>
      </trkpt>
      <trkpt lat="45.82669" lon="6.2866">
        <ele>2356.1</ele>
        <time>2022-01-06T09:52:23Z</time>
      </trkpt>
      <trkpt lat="45.82666" lon="6.28661">
        <ele>2356.1</ele>
        <time>2022-01-06T09:52:24Z</time>
      </trkpt>
      <trkpt lat="45.82663" lon="6.28661">
        <ele>2354.2</ele>
        <time>2022-01-06T09:52:25Z</time>
      </trkpt>
      <trkpt lat="45.82661" lon="6.28661">
        <ele>2354.2</ele>
        <time>2022-01-06T09:52:26Z</time>
      </trkpt>
      <trkpt lat="45.82658" lon="6.28661">
        <ele>2353.1</ele>
        <time>2022-01-06T09:52:27Z</time>
      </trkpt>
      <trkpt lat="45.82655" lon="6.28661">
        <ele>2353.1</ele>
        <time>2022-01-06T09:52:28Z</time>
      </trkpt>
      <trkpt lat="45.82653" lon="6.28661">
        <ele>2351.1</ele>
        <time>2022-01-06T09:52:29Z</time>
      </trkpt>
      <trkpt lat="45.82651" lon="6.28662">
        <ele>2351.1</ele>
        <time>2022-01-06T09:52:30Z</time>
      </trkpt>
      <trkpt lat="45.82648" lon="6.28662">
        <ele>2350</ele>
        <time>2022-01-06T09:52:31Z</time>
      </trkpt>
      <trkpt lat="45.82646" lon="6.28661">
        <ele>2350</ele>
        <time>2022-01-06T09:52:32Z</time>
      </trkpt>
      <trkpt lat="45.82643" lon="6.2866">
        <ele>2348.1</ele>
        <time>2022-01-06T09:52:33Z</time>
      </trkpt>
      <trkpt lat="45.82641" lon="6.2866">
        <ele>2348.1</ele>
        <time>2022-01-06T09:52:34Z</time>
      </trkpt>
      <trkpt lat="45.82638" lon="6.28661">
        <ele>2346.1</ele>
        <time>2022-01-06T09:52:35Z</time>
      </trkpt>
      <trkpt lat="45.82636" lon="6.28661">
        <ele>2346.1</ele>
        <time>2022-01-06T09:52:36Z</time>
      </trkpt>
      <trkpt lat="45.82632" lon="6.28661">
        <ele>2344.1</ele>
        <time>2022-01-06T09:52:37Z</time>
      </trkpt>
      <trkpt lat="45.8263" lon="6.28661">
        <ele>2344.1</ele>
        <time>2022-01-06T09:52:38Z</time>
      </trkpt>
      <trkpt lat="45.82628" lon="6.28661">
        <ele>2343</ele>
        <time>2022-01-06T09:52:39Z</time>
      </trkpt>
      <trkpt lat="45.82627" lon="6.28662">
        <ele>2343</ele>
        <time>2022-01-06T09:52:40Z</time>
      </trkpt>
      <trkpt lat="45.82627" lon="6.28663">
        <ele>2342.1</ele>
        <time>2022-01-06T09:52:41Z</time>
      </trkpt>
      <trkpt lat="45.82627" lon="6.28665">
        <ele>2342.1</ele>
        <time>2022-01-06T09:52:42Z</time>
      </trkpt>
      <trkpt lat="45.82629" lon="6.28667">
        <ele>2340.1</ele>
        <time>2022-01-06T09:52:43Z</time>
      </trkpt>
      <trkpt lat="45.82629" lon="6.2867">
        <ele>2340.1</ele>
        <time>2022-01-06T09:52:44Z</time>
      </trkpt>
      <trkpt lat="45.82626" lon="6.28673">
        <ele>2335.1</ele>
        <time>2022-01-06T09:52:45Z</time>
      </trkpt>
      <trkpt lat="45.82624" lon="6.28675">
        <ele>2335.1</ele>
        <time>2022-01-06T09:52:46Z</time>
      </trkpt>
      <trkpt lat="45.82619" lon="6.28677">
        <ele>2331.1</ele>
        <time>2022-01-06T09:52:47Z</time>
      </trkpt>
      <trkpt lat="45.82613" lon="6.28678">
        <ele>2331.1</ele>
        <time>2022-01-06T09:52:48Z</time>
      </trkpt>
      <trkpt lat="45.82609" lon="6.28679">
        <ele>2328.1</ele>
        <time>2022-01-06T09:52:49Z</time>
      </trkpt>
      <trkpt lat="45.82603" lon="6.28681">
        <ele>2328.1</ele>
        <time>2022-01-06T09:52:50Z</time>
      </trkpt>
      <trkpt lat="45.82598" lon="6.28683">
        <ele>2324.1</ele>
        <time>2022-01-06T09:52:51Z</time>
      </trkpt>
      <trkpt lat="45.82592" lon="6.28684">
        <ele>2324.1</ele>
        <time>2022-01-06T09:52:52Z</time>
      </trkpt>
      <trkpt lat="45.82587" lon="6.28686">
        <ele>2320.2</ele>
        <time>2022-01-06T09:52:53Z</time>
      </trkpt>
      <trkpt lat="45.82581" lon="6.28689">
        <ele>2320.2</ele>
        <time>2022-01-06T09:52:54Z</time>
      </trkpt>
      <trkpt lat="45.82574" lon="6.28692">
        <ele>2315.1</ele>
        <time>2022-01-06T09:52:55Z</time>
      </trkpt>
      <trkpt lat="45.82567" lon="6.28696">
        <ele>2315.1</ele>
        <time>2022-01-06T09:52:56Z</time>
      </trkpt>
      <trkpt lat="45.82561" lon="6.28699">
        <ele>2310.1</ele>
        <time>2022-01-06T09:52:57Z</time>
      </trkpt>
      <trkpt lat="45.82555" lon="6.28704">
        <ele>2310.1</ele>
        <time>2022-01-06T09:52:58Z</time>
      </trkpt>
      <trkpt lat="45.82549" lon="6.28707">
        <ele>2308.1</ele>
        <time>2022-01-06T09:52:59Z</time>
      </trkpt>
      <trkpt lat="45.82543" lon="6.2871">
        <ele>2308.1</ele>
        <time>2022-01-06T09:53:00Z</time>
      </trkpt>
      <trkpt lat="45.82539" lon="6.28712">
        <ele>2306.1</ele>
        <time>2022-01-06T09:53:01Z</time>
      </trkpt>
      <trkpt lat="45.82534" lon="6.28714">
        <ele>2306.1</ele>
        <time>2022-01-06T09:53:02Z</time>
      </trkpt>
      <trkpt lat="45.8253" lon="6.28716">
        <ele>2304.2</ele>
        <time>2022-01-06T09:53:03Z</time>
      </trkpt>
      <trkpt lat="45.82526" lon="6.28718">
        <ele>2304.2</ele>
        <time>2022-01-06T09:53:04Z</time>
      </trkpt>
      <trkpt lat="45.82521" lon="6.2872">
        <ele>2302</ele>
        <time>2022-01-06T09:53:05Z</time>
      </trkpt>
      <trkpt lat="45.82515" lon="6.28723">
        <ele>2302</ele>
        <time>2022-01-06T09:53:06Z</time>
      </trkpt>
      <trkpt lat="45.82512" lon="6.28724">
        <ele>2302</ele>
        <time>2022-01-06T09:53:07Z</time>
      </trkpt>
      <trkpt lat="45.8251" lon="6.28724">
        <ele>2302</ele>
        <time>2022-01-06T09:53:08Z</time>
      </trkpt>
      <trkpt lat="45.82509" lon="6.28724">
        <ele>2301.1</ele>
        <time>2022-01-06T09:53:09Z</time>
      </trkpt>
      <trkpt lat="45.82508" lon="6.28724">
        <ele>2301.1</ele>
        <time>2022-01-06T09:53:10Z</time>
      </trkpt>
      <trkpt lat="45.82508" lon="6.28723">
        <ele>2302</ele>
        <time>2022-01-06T09:53:11Z</time>
      </trkpt>
      <trkpt lat="45.82508" lon="6.28723">
        <ele>2302</ele>
        <time>2022-01-06T09:53:12Z</time>
      </trkpt>
      <trkpt lat="45.8251" lon="6.28724">
        <ele>2302</ele>
        <time>2022-01-06T09:53:13Z</time>
      </trkpt>
      <trkpt lat="45.8251" lon="6.28723">
        <ele>2302</ele>
        <time>2022-01-06T09:53:14Z</time>
      </trkpt>
      <trkpt lat="45.8251" lon="6.28723">
        <ele>2302</ele>
        <time>2022-01-06T09:53:15Z</time>
      </trkpt>
      <trkpt lat="45.8251" lon="6.28722">
        <ele>2302</ele>
        <time>2022-01-06T09:53:16Z</time>
      </trkpt>
      <trkpt lat="45.82511" lon="6.28723">
        <ele>2302</ele>
        <time>2022-01-06T09:53:17Z</time>
      </trkpt>
      <trkpt lat="45.8251" lon="6.28723">
        <ele>2302</ele>
        <time>2022-01-06T09:53:18Z</time>
      </trkpt>
      <trkpt lat="45.8251" lon="6.28723">
        <ele>2302</ele>
        <time>2022-01-06T09:53:19Z</time>
      </trkpt>
      <trkpt lat="45.82509" lon="6.28723">
        <ele>2302</ele>
        <time>2022-01-06T09:53:20Z</time>
      </trkpt>
      <trkpt lat="45.82509" lon="6.28722">
        <ele>2302</ele>
        <time>2022-01-06T09:53:21Z</time>
      </trkpt>
      <trkpt lat="45.82509" lon="6.28722">
        <ele>2302</ele>
        <time>2022-01-06T09:53:22Z</time>
      </trkpt>
      <trkpt lat="45.8251" lon="6.28722">
        <ele>2301.1</ele>
        <time>2022-01-06T09:53:23Z</time>
      </trkpt>
      <trkpt lat="45.8251" lon="6.28721">
        <ele>2301.1</ele>
        <time>2022-01-06T09:53:24Z</time>
      </trkpt>
      <trkpt lat="45.8251" lon="6.28721">
        <ele>2301.1</ele>
        <time>2022-01-06T09:53:25Z</time>
      </trkpt>
      <trkpt lat="45.82511" lon="6.28721">
        <ele>2301.1</ele>
        <time>2022-01-06T09:53:26Z</time>
      </trkpt>
      <trkpt lat="45.82511" lon="6.28721">
        <ele>2300</ele>
        <time>2022-01-06T09:53:27Z</time>
      </trkpt>
      <trkpt lat="45.82511" lon="6.28721">
        <ele>2300</ele>
        <time>2022-01-06T09:53:28Z</time>
      </trkpt>
      <trkpt lat="45.82511" lon="6.28721">
        <ele>2300</ele>
        <time>2022-01-06T09:53:29Z</time>
      </trkpt>
      <trkpt lat="45.82511" lon="6.28721">
        <ele>2300</ele>
        <time>2022-01-06T09:53:30Z</time>
      </trkpt>
      <trkpt lat="45.82511" lon="6.28721">
        <ele>2300</ele>
        <time>2022-01-06T09:53:31Z</time>
      </trkpt>
      <trkpt lat="45.82511" lon="6.28721">
        <ele>2300</ele>
        <time>2022-01-06T09:53:32Z</time>
      </trkpt>
      <trkpt lat="45.82511" lon="6.28721">
        <ele>2300</ele>
        <time>2022-01-06T09:53:33Z</time>
      </trkpt>
      <trkpt lat="45.82511" lon="6.28721">
        <ele>2300</ele>
        <time>2022-01-06T09:53:34Z</time>
      </trkpt>
      <trkpt lat="45.82511" lon="6.28721">
        <ele>2300</ele>
        <time>2022-01-06T09:53:35Z</time>
      </trkpt>
      <trkpt lat="45.82511" lon="6.28721">
        <ele>2300</ele>
        <time>2022-01-06T09:53:36Z</time>
      </trkpt>
      <trkpt lat="45.82511" lon="6.28721">
        <ele>2300</ele>
        <time>2022-01-06T09:53:37Z</time>
      </trkpt>
      <trkpt lat="45.82511" lon="6.28721">
        <ele>2300</ele>
        <time>2022-01-06T09:53:38Z</time>
      </trkpt>
      <trkpt lat="45.82511" lon="6.28721">
        <ele>2300</ele>
        <time>2022-01-06T09:53:39Z</time>
      </trkpt>
      <trkpt lat="45.82511" lon="6.28721">
        <ele>2301.1</ele>
        <time>2022-01-06T09:53:40Z</time>
      </trkpt>
      <trkpt lat="45.82511" lon="6.28721">
        <ele>2301.1</ele>
        <time>2022-01-06T09:53:41Z</time>
      </trkpt>
      <trkpt lat="45.82511" lon="6.28721">
        <ele>2301.1</ele>
        <time>2022-01-06T09:53:42Z</time>
      </trkpt>
      <trkpt lat="45.82511" lon="6.28721">
        <ele>2301.1</ele>
        <time>2022-01-06T09:53:43Z</time>
      </trkpt>
      <trkpt lat="45.82512" lon="6.28721">
        <ele>2301.1</ele>
        <time>2022-01-06T09:53:44Z</time>
      </trkpt>
      <trkpt lat="45.82512" lon="6.28721">
        <ele>2301.1</ele>
        <time>2022-01-06T09:53:45Z</time>
      </trkpt>
      <trkpt lat="45.82512" lon="6.28721">
        <ele>2301.1</ele>
        <time>2022-01-06T09:53:46Z</time>
      </trkpt>
      <trkpt lat="45.82512" lon="6.28721">
        <ele>2301.1</ele>
        <time>2022-01-06T09:53:47Z</time>
      </trkpt>
      <trkpt lat="45.82512" lon="6.28721">
        <ele>2300</ele>
        <time>2022-01-06T09:53:48Z</time>
      </trkpt>
      <trkpt lat="45.82512" lon="6.2872">
        <ele>2300</ele>
        <time>2022-01-06T09:53:49Z</time>
      </trkpt>
      <trkpt lat="45.82512" lon="6.2872">
        <ele>2300</ele>
        <time>2022-01-06T09:53:50Z</time>
      </trkpt>
      <trkpt lat="45.82512" lon="6.2872">
        <ele>2300</ele>
        <time>2022-01-06T09:53:51Z</time>
      </trkpt>
      <trkpt lat="45.82512" lon="6.2872">
        <ele>2300</ele>
        <time>2022-01-06T09:53:52Z</time>
      </trkpt>
      <trkpt lat="45.82512" lon="6.2872">
        <ele>2300</ele>
        <time>2022-01-06T09:53:53Z</time>
      </trkpt>
      <trkpt lat="45.82512" lon="6.2872">
        <ele>2300</ele>
        <time>2022-01-06T09:53:54Z</time>
      </trkpt>
      <trkpt lat="45.82512" lon="6.2872">
        <ele>2300</ele>
        <time>2022-01-06T09:53:55Z</time>
      </trkpt>
      <trkpt lat="45.82512" lon="6.2872">
        <ele>2300</ele>
        <time>2022-01-06T09:53:56Z</time>
      </trkpt>
      <trkpt lat="45.82512" lon="6.2872">
        <ele>2300</ele>
        <time>2022-01-06T09:53:57Z</time>
      </trkpt>
      <trkpt lat="45.82512" lon="6.2872">
        <ele>2300</ele>
        <time>2022-01-06T09:53:58Z</time>
      </trkpt>
      <trkpt lat="45.82512" lon="6.2872">
        <ele>2300</ele>
        <time>2022-01-06T09:53:59Z</time>
      </trkpt>
      <trkpt lat="45.82512" lon="6.2872">
        <ele>2300</ele>
        <time>2022-01-06T09:54:00Z</time>
      </trkpt>
      <trkpt lat="45.82512" lon="6.2872">
        <ele>2300</ele>
        <time>2022-01-06T09:54:01Z</time>
      </trkpt>
      <trkpt lat="45.82512" lon="6.2872">
        <ele>2300</ele>
        <time>2022-01-06T09:54:02Z</time>
      </trkpt>
      <trkpt lat="45.82512" lon="6.2872">
        <ele>2300</ele>
        <time>2022-01-06T09:54:03Z</time>
      </trkpt>
      <trkpt lat="45.82512" lon="6.2872">
        <ele>2300</ele>
        <time>2022-01-06T09:54:04Z</time>
      </trkpt>
      <trkpt lat="45.82512" lon="6.2872">
        <ele>2300</ele>
        <time>2022-01-06T09:54:05Z</time>
      </trkpt>
      <trkpt lat="45.82512" lon="6.2872">
        <ele>2300</ele>
        <time>2022-01-06T09:54:06Z</time>
      </trkpt>
      <trkpt lat="45.82513" lon="6.2872">
        <ele>2300</ele>
        <time>2022-01-06T09:54:07Z</time>
      </trkpt>
      <trkpt lat="45.82513" lon="6.2872">
        <ele>2299.1</ele>
        <time>2022-01-06T09:54:08Z</time>
      </trkpt>
      <trkpt lat="45.82513" lon="6.28719">
        <ele>2299.1</ele>
        <time>2022-01-06T09:54:09Z</time>
      </trkpt>
      <trkpt lat="45.82513" lon="6.28719">
        <ele>2299.1</ele>
        <time>2022-01-06T09:54:10Z</time>
      </trkpt>
      <trkpt lat="45.82513" lon="6.28719">
        <ele>2299.1</ele>
        <time>2022-01-06T09:54:11Z</time>
      </trkpt>
      <trkpt lat="45.82512" lon="6.28719">
        <ele>2299.1</ele>
        <time>2022-01-06T09:54:12Z</time>
      </trkpt>
      <trkpt lat="45.82512" lon="6.28719">
        <ele>2299.1</ele>
        <time>2022-01-06T09:54:13Z</time>
      </trkpt>
      <trkpt lat="45.82512" lon="6.2872">
        <ele>2299.1</ele>
        <time>2022-01-06T09:54:14Z</time>
      </trkpt>
      <trkpt lat="45.8251" lon="6.28721">
        <ele>2299.1</ele>
        <time>2022-01-06T09:54:15Z</time>
      </trkpt>
      <trkpt lat="45.82508" lon="6.28722">
        <ele>2298.1</ele>
        <time>2022-01-06T09:54:16Z</time>
      </trkpt>
      <trkpt lat="45.82506" lon="6.28723">
        <ele>2298.1</ele>
        <time>2022-01-06T09:54:17Z</time>
      </trkpt>
      <trkpt lat="45.82504" lon="6.28723">
        <ele>2297.2</ele>
        <time>2022-01-06T09:54:18Z</time>
      </trkpt>
      <trkpt lat="45.82502" lon="6.28724">
        <ele>2297.2</ele>
        <time>2022-01-06T09:54:19Z</time>
      </trkpt>
      <trkpt lat="45.825" lon="6.28725">
        <ele>2296.1</ele>
        <time>2022-01-06T09:54:20Z</time>
      </trkpt>
      <trkpt lat="45.82499" lon="6.28725">
        <ele>2296.1</ele>
        <time>2022-01-06T09:54:21Z</time>
      </trkpt>
      <trkpt lat="45.82497" lon="6.28726">
        <ele>2296.1</ele>
        <time>2022-01-06T09:54:22Z</time>
      </trkpt>
      <trkpt lat="45.82496" lon="6.28727">
        <ele>2296.1</ele>
        <time>2022-01-06T09:54:23Z</time>
      </trkpt>
      <trkpt lat="45.82495" lon="6.28727">
        <ele>2295.2</ele>
        <time>2022-01-06T09:54:24Z</time>
      </trkpt>
      <trkpt lat="45.82494" lon="6.28727">
        <ele>2295.2</ele>
        <time>2022-01-06T09:54:25Z</time>
      </trkpt>
      <trkpt lat="45.82494" lon="6.28727">
        <ele>2295.2</ele>
        <time>2022-01-06T09:54:26Z</time>
      </trkpt>
      <trkpt lat="45.82494" lon="6.28727">
        <ele>2295.2</ele>
        <time>2022-01-06T09:54:27Z</time>
      </trkpt>
      <trkpt lat="45.82493" lon="6.28727">
        <ele>2295.2</ele>
        <time>2022-01-06T09:54:28Z</time>
      </trkpt>
      <trkpt lat="45.82492" lon="6.28727">
        <ele>2295.2</ele>
        <time>2022-01-06T09:54:29Z</time>
      </trkpt>
      <trkpt lat="45.82491" lon="6.28727">
        <ele>2295.2</ele>
        <time>2022-01-06T09:54:30Z</time>
      </trkpt>
      <trkpt lat="45.8249" lon="6.28727">
        <ele>2295.2</ele>
        <time>2022-01-06T09:54:31Z</time>
      </trkpt>
      <trkpt lat="45.8249" lon="6.28728">
        <ele>2294.1</ele>
        <time>2022-01-06T09:54:32Z</time>
      </trkpt>
      <trkpt lat="45.82489" lon="6.28728">
        <ele>2294.1</ele>
        <time>2022-01-06T09:54:33Z</time>
      </trkpt>
      <trkpt lat="45.82488" lon="6.28728">
        <ele>2294.1</ele>
        <time>2022-01-06T09:54:34Z</time>
      </trkpt>
      <trkpt lat="45.82488" lon="6.28728">
        <ele>2294.1</ele>
        <time>2022-01-06T09:54:35Z</time>
      </trkpt>
      <trkpt lat="45.82487" lon="6.28728">
        <ele>2294.1</ele>
        <time>2022-01-06T09:54:36Z</time>
      </trkpt>
      <trkpt lat="45.82487" lon="6.28727">
        <ele>2294.1</ele>
        <time>2022-01-06T09:54:37Z</time>
      </trkpt>
      <trkpt lat="45.82486" lon="6.28727">
        <ele>2294.1</ele>
        <time>2022-01-06T09:54:38Z</time>
      </trkpt>
      <trkpt lat="45.82486" lon="6.28727">
        <ele>2294.1</ele>
        <time>2022-01-06T09:54:39Z</time>
      </trkpt>
      <trkpt lat="45.82485" lon="6.28727">
        <ele>2294.1</ele>
        <time>2022-01-06T09:54:40Z</time>
      </trkpt>
      <trkpt lat="45.82485" lon="6.28727">
        <ele>2294.1</ele>
        <time>2022-01-06T09:54:41Z</time>
      </trkpt>
      <trkpt lat="45.82484" lon="6.28727">
        <ele>2294.1</ele>
        <time>2022-01-06T09:54:42Z</time>
      </trkpt>
      <trkpt lat="45.82484" lon="6.28727">
        <ele>2294.1</ele>
        <time>2022-01-06T09:54:43Z</time>
      </trkpt>
      <trkpt lat="45.82483" lon="6.28726">
        <ele>2294.1</ele>
        <time>2022-01-06T09:54:44Z</time>
      </trkpt>
      <trkpt lat="45.82483" lon="6.28726">
        <ele>2294.1</ele>
        <time>2022-01-06T09:54:45Z</time>
      </trkpt>
      <trkpt lat="45.82482" lon="6.28726">
        <ele>2294.1</ele>
        <time>2022-01-06T09:54:46Z</time>
      </trkpt>
      <trkpt lat="45.82481" lon="6.28726">
        <ele>2294.1</ele>
        <time>2022-01-06T09:54:47Z</time>
      </trkpt>
      <trkpt lat="45.82481" lon="6.28726">
        <ele>2294.1</ele>
        <time>2022-01-06T09:54:48Z</time>
      </trkpt>
      <trkpt lat="45.8248" lon="6.28727">
        <ele>2294.1</ele>
        <time>2022-01-06T09:54:49Z</time>
      </trkpt>
      <trkpt lat="45.82479" lon="6.28727">
        <ele>2294.1</ele>
        <time>2022-01-06T09:54:50Z</time>
      </trkpt>
      <trkpt lat="45.82477" lon="6.28728">
        <ele>2294.1</ele>
        <time>2022-01-06T09:54:51Z</time>
      </trkpt>
      <trkpt lat="45.82476" lon="6.28729">
        <ele>2294.1</ele>
        <time>2022-01-06T09:54:52Z</time>
      </trkpt>
      <trkpt lat="45.82475" lon="6.28729">
        <ele>2294.1</ele>
        <time>2022-01-06T09:54:53Z</time>
      </trkpt>
      <trkpt lat="45.82474" lon="6.28729">
        <ele>2294.1</ele>
        <time>2022-01-06T09:54:54Z</time>
      </trkpt>
      <trkpt lat="45.82473" lon="6.2873">
        <ele>2294.1</ele>
        <time>2022-01-06T09:54:55Z</time>
      </trkpt>
      <trkpt lat="45.82471" lon="6.2873">
        <ele>2294.1</ele>
        <time>2022-01-06T09:54:56Z</time>
      </trkpt>
      <trkpt lat="45.8247" lon="6.28731">
        <ele>2294.1</ele>
        <time>2022-01-06T09:54:57Z</time>
      </trkpt>
      <trkpt lat="45.82469" lon="6.28732">
        <ele>2294.1</ele>
        <time>2022-01-06T09:54:58Z</time>
      </trkpt>
      <trkpt lat="45.82468" lon="6.28733">
        <ele>2294.1</ele>
        <time>2022-01-06T09:54:59Z</time>
      </trkpt>
      <trkpt lat="45.82467" lon="6.28733">
        <ele>2294.1</ele>
        <time>2022-01-06T09:55:00Z</time>
      </trkpt>
      <trkpt lat="45.82466" lon="6.28733">
        <ele>2294.1</ele>
        <time>2022-01-06T09:55:01Z</time>
      </trkpt>
      <trkpt lat="45.82465" lon="6.28734">
        <ele>2294.1</ele>
        <time>2022-01-06T09:55:02Z</time>
      </trkpt>
      <trkpt lat="45.82464" lon="6.28734">
        <ele>2294.1</ele>
        <time>2022-01-06T09:55:03Z</time>
      </trkpt>
      <trkpt lat="45.82462" lon="6.28735">
        <ele>2294.1</ele>
        <time>2022-01-06T09:55:04Z</time>
      </trkpt>
      <trkpt lat="45.82461" lon="6.28735">
        <ele>2294.1</ele>
        <time>2022-01-06T09:55:05Z</time>
      </trkpt>
      <trkpt lat="45.82459" lon="6.28736">
        <ele>2294.1</ele>
        <time>2022-01-06T09:55:06Z</time>
      </trkpt>
      <trkpt lat="45.82457" lon="6.28738">
        <ele>2294.1</ele>
        <time>2022-01-06T09:55:07Z</time>
      </trkpt>
      <trkpt lat="45.82455" lon="6.28741">
        <ele>2294.1</ele>
        <time>2022-01-06T09:55:08Z</time>
      </trkpt>
      <trkpt lat="45.82452" lon="6.28743">
        <ele>2294.1</ele>
        <time>2022-01-06T09:55:09Z</time>
      </trkpt>
      <trkpt lat="45.82449" lon="6.28748">
        <ele>2294.1</ele>
        <time>2022-01-06T09:55:10Z</time>
      </trkpt>
      <trkpt lat="45.82445" lon="6.28751">
        <ele>2294.1</ele>
        <time>2022-01-06T09:55:11Z</time>
      </trkpt>
      <trkpt lat="45.82443" lon="6.28753">
        <ele>2289.1</ele>
        <time>2022-01-06T09:55:12Z</time>
      </trkpt>
      <trkpt lat="45.8244" lon="6.28755">
        <ele>2289.1</ele>
        <time>2022-01-06T09:55:13Z</time>
      </trkpt>
      <trkpt lat="45.82437" lon="6.28756">
        <ele>2288.2</ele>
        <time>2022-01-06T09:55:14Z</time>
      </trkpt>
      <trkpt lat="45.82434" lon="6.28757">
        <ele>2288.2</ele>
        <time>2022-01-06T09:55:15Z</time>
      </trkpt>
      <trkpt lat="45.8243" lon="6.2876">
        <ele>2288.2</ele>
        <time>2022-01-06T09:55:16Z</time>
      </trkpt>
      <trkpt lat="45.82426" lon="6.28764">
        <ele>2288.2</ele>
        <time>2022-01-06T09:55:17Z</time>
      </trkpt>
      <trkpt lat="45.82423" lon="6.28768">
        <ele>2288.2</ele>
        <time>2022-01-06T09:55:18Z</time>
      </trkpt>
      <trkpt lat="45.82421" lon="6.28774">
        <ele>2288.2</ele>
        <time>2022-01-06T09:55:19Z</time>
      </trkpt>
      <trkpt lat="45.82419" lon="6.2878">
        <ele>2282.1</ele>
        <time>2022-01-06T09:55:20Z</time>
      </trkpt>
      <trkpt lat="45.82417" lon="6.28786">
        <ele>2282.1</ele>
        <time>2022-01-06T09:55:21Z</time>
      </trkpt>
      <trkpt lat="45.82416" lon="6.28793">
        <ele>2279.2</ele>
        <time>2022-01-06T09:55:22Z</time>
      </trkpt>
      <trkpt lat="45.82414" lon="6.288">
        <ele>2279.2</ele>
        <time>2022-01-06T09:55:23Z</time>
      </trkpt>
      <trkpt lat="45.82411" lon="6.28807">
        <ele>2276.1</ele>
        <time>2022-01-06T09:55:24Z</time>
      </trkpt>
      <trkpt lat="45.82408" lon="6.28814">
        <ele>2276.1</ele>
        <time>2022-01-06T09:55:25Z</time>
      </trkpt>
      <trkpt lat="45.82406" lon="6.28821">
        <ele>2273.1</ele>
        <time>2022-01-06T09:55:26Z</time>
      </trkpt>
      <trkpt lat="45.82404" lon="6.28828">
        <ele>2273.1</ele>
        <time>2022-01-06T09:55:27Z</time>
      </trkpt>
      <trkpt lat="45.82401" lon="6.28837">
        <ele>2269.1</ele>
        <time>2022-01-06T09:55:28Z</time>
      </trkpt>
      <trkpt lat="45.82399" lon="6.28844">
        <ele>2269.1</ele>
        <time>2022-01-06T09:55:29Z</time>
      </trkpt>
      <trkpt lat="45.82398" lon="6.28849">
        <ele>2267.1</ele>
        <time>2022-01-06T09:55:30Z</time>
      </trkpt>
      <trkpt lat="45.82397" lon="6.28853">
        <ele>2267.1</ele>
        <time>2022-01-06T09:55:31Z</time>
      </trkpt>
      <trkpt lat="45.82396" lon="6.28856">
        <ele>2265.1</ele>
        <time>2022-01-06T09:55:32Z</time>
      </trkpt>
      <trkpt lat="45.82396" lon="6.28858">
        <ele>2265.1</ele>
        <time>2022-01-06T09:55:33Z</time>
      </trkpt>
      <trkpt lat="45.82396" lon="6.28861">
        <ele>2263.2</ele>
        <time>2022-01-06T09:55:34Z</time>
      </trkpt>
      <trkpt lat="45.82396" lon="6.28864">
        <ele>2263.2</ele>
        <time>2022-01-06T09:55:35Z</time>
      </trkpt>
      <trkpt lat="45.82396" lon="6.28867">
        <ele>2262.1</ele>
        <time>2022-01-06T09:55:36Z</time>
      </trkpt>
      <trkpt lat="45.82396" lon="6.28871">
        <ele>2262.1</ele>
        <time>2022-01-06T09:55:37Z</time>
      </trkpt>
      <trkpt lat="45.82397" lon="6.28874">
        <ele>2260.1</ele>
        <time>2022-01-06T09:55:38Z</time>
      </trkpt>
      <trkpt lat="45.82397" lon="6.28878">
        <ele>2260.1</ele>
        <time>2022-01-06T09:55:39Z</time>
      </trkpt>
      <trkpt lat="45.82398" lon="6.2888">
        <ele>2259.1</ele>
        <time>2022-01-06T09:55:40Z</time>
      </trkpt>
      <trkpt lat="45.82399" lon="6.28884">
        <ele>2259.1</ele>
        <time>2022-01-06T09:55:41Z</time>
      </trkpt>
      <trkpt lat="45.824" lon="6.28891">
        <ele>2257.1</ele>
        <time>2022-01-06T09:55:42Z</time>
      </trkpt>
      <trkpt lat="45.82401" lon="6.28897">
        <ele>2257.1</ele>
        <time>2022-01-06T09:55:43Z</time>
      </trkpt>
      <trkpt lat="45.82403" lon="6.28902">
        <ele>2253.1</ele>
        <time>2022-01-06T09:55:44Z</time>
      </trkpt>
      <trkpt lat="45.82404" lon="6.28907">
        <ele>2253.1</ele>
        <time>2022-01-06T09:55:45Z</time>
      </trkpt>
      <trkpt lat="45.82405" lon="6.28912">
        <ele>2251.1</ele>
        <time>2022-01-06T09:55:46Z</time>
      </trkpt>
      <trkpt lat="45.82405" lon="6.28916">
        <ele>2251.1</ele>
        <time>2022-01-06T09:55:47Z</time>
      </trkpt>
      <trkpt lat="45.82406" lon="6.28917">
        <ele>2249.1</ele>
        <time>2022-01-06T09:55:48Z</time>
      </trkpt>
      <trkpt lat="45.82408" lon="6.28918">
        <ele>2249.1</ele>
        <time>2022-01-06T09:55:49Z</time>
      </trkpt>
      <trkpt lat="45.82411" lon="6.28919">
        <ele>2246.1</ele>
        <time>2022-01-06T09:55:50Z</time>
      </trkpt>
      <trkpt lat="45.82413" lon="6.28922">
        <ele>2246.1</ele>
        <time>2022-01-06T09:55:51Z</time>
      </trkpt>
      <trkpt lat="45.82415" lon="6.28925">
        <ele>2243.1</ele>
        <time>2022-01-06T09:55:52Z</time>
      </trkpt>
      <trkpt lat="45.82417" lon="6.28927">
        <ele>2243.1</ele>
        <time>2022-01-06T09:55:53Z</time>
      </trkpt>
      <trkpt lat="45.82419" lon="6.2893">
        <ele>2239.1</ele>
        <time>2022-01-06T09:55:54Z</time>
      </trkpt>
      <trkpt lat="45.82421" lon="6.28934">
        <ele>2239.1</ele>
        <time>2022-01-06T09:55:55Z</time>
      </trkpt>
      <trkpt lat="45.82425" lon="6.28937">
        <ele>2233.1</ele>
        <time>2022-01-06T09:55:56Z</time>
      </trkpt>
      <trkpt lat="45.82427" lon="6.2894">
        <ele>2233.1</ele>
        <time>2022-01-06T09:55:57Z</time>
      </trkpt>
      <trkpt lat="45.8243" lon="6.28941">
        <ele>2228.1</ele>
        <time>2022-01-06T09:55:58Z</time>
      </trkpt>
      <trkpt lat="45.82432" lon="6.28941">
        <ele>2228.1</ele>
        <time>2022-01-06T09:55:59Z</time>
      </trkpt>
      <trkpt lat="45.82433" lon="6.28942">
        <ele>2223.1</ele>
        <time>2022-01-06T09:56:00Z</time>
      </trkpt>
      <trkpt lat="45.82434" lon="6.28942">
        <ele>2223.1</ele>
        <time>2022-01-06T09:56:01Z</time>
      </trkpt>
      <trkpt lat="45.82434" lon="6.28941">
        <ele>2222</ele>
        <time>2022-01-06T09:56:02Z</time>
      </trkpt>
      <trkpt lat="45.82434" lon="6.28941">
        <ele>2222</ele>
        <time>2022-01-06T09:56:03Z</time>
      </trkpt>
      <trkpt lat="45.82435" lon="6.2894">
        <ele>2222</ele>
        <time>2022-01-06T09:56:04Z</time>
      </trkpt>
      <trkpt lat="45.82435" lon="6.28941">
        <ele>2222</ele>
        <time>2022-01-06T09:56:05Z</time>
      </trkpt>
      <trkpt lat="45.82435" lon="6.2894">
        <ele>2221.1</ele>
        <time>2022-01-06T09:56:06Z</time>
      </trkpt>
      <trkpt lat="45.82435" lon="6.28941">
        <ele>2221.1</ele>
        <time>2022-01-06T09:56:07Z</time>
      </trkpt>
      <trkpt lat="45.82434" lon="6.2894">
        <ele>2221.1</ele>
        <time>2022-01-06T09:56:08Z</time>
      </trkpt>
      <trkpt lat="45.82434" lon="6.2894">
        <ele>2221.1</ele>
        <time>2022-01-06T09:56:09Z</time>
      </trkpt>
      <trkpt lat="45.82434" lon="6.2894">
        <ele>2221.1</ele>
        <time>2022-01-06T09:56:10Z</time>
      </trkpt>
      <trkpt lat="45.82434" lon="6.28939">
        <ele>2221.1</ele>
        <time>2022-01-06T09:56:11Z</time>
      </trkpt>
      <trkpt lat="45.82434" lon="6.28938">
        <ele>2221.1</ele>
        <time>2022-01-06T09:56:12Z</time>
      </trkpt>
      <trkpt lat="45.82435" lon="6.28937">
        <ele>2221.1</ele>
        <time>2022-01-06T09:56:13Z</time>
      </trkpt>
      <trkpt lat="45.82435" lon="6.28937">
        <ele>2221.1</ele>
        <time>2022-01-06T09:56:14Z</time>
      </trkpt>
      <trkpt lat="45.82435" lon="6.28937">
        <ele>2221.1</ele>
        <time>2022-01-06T09:56:15Z</time>
      </trkpt>
      <trkpt lat="45.82435" lon="6.28937">
        <ele>2221.1</ele>
        <time>2022-01-06T09:56:16Z</time>
      </trkpt>
      <trkpt lat="45.82435" lon="6.28936">
        <ele>2221.1</ele>
        <time>2022-01-06T09:56:17Z</time>
      </trkpt>
      <trkpt lat="45.82435" lon="6.28934">
        <ele>2221.1</ele>
        <time>2022-01-06T09:56:18Z</time>
      </trkpt>
      <trkpt lat="45.82436" lon="6.28932">
        <ele>2221.1</ele>
        <time>2022-01-06T09:56:19Z</time>
      </trkpt>
      <trkpt lat="45.82436" lon="6.28931">
        <ele>2221.1</ele>
        <time>2022-01-06T09:56:20Z</time>
      </trkpt>
      <trkpt lat="45.82437" lon="6.28931">
        <ele>2221.1</ele>
        <time>2022-01-06T09:56:21Z</time>
      </trkpt>
      <trkpt lat="45.82436" lon="6.28932">
        <ele>2221.1</ele>
        <time>2022-01-06T09:56:22Z</time>
      </trkpt>
      <trkpt lat="45.82437" lon="6.28932">
        <ele>2221.1</ele>
        <time>2022-01-06T09:56:23Z</time>
      </trkpt>
      <trkpt lat="45.82437" lon="6.28932">
        <ele>2222</ele>
        <time>2022-01-06T09:56:24Z</time>
      </trkpt>
      <trkpt lat="45.82437" lon="6.28932">
        <ele>2222</ele>
        <time>2022-01-06T09:56:25Z</time>
      </trkpt>
      <trkpt lat="45.82437" lon="6.28931">
        <ele>2222</ele>
        <time>2022-01-06T09:56:26Z</time>
      </trkpt>
      <trkpt lat="45.82437" lon="6.28931">
        <ele>2222</ele>
        <time>2022-01-06T09:56:27Z</time>
      </trkpt>
      <trkpt lat="45.82438" lon="6.28931">
        <ele>2222</ele>
        <time>2022-01-06T09:56:28Z</time>
      </trkpt>
      <trkpt lat="45.8244" lon="6.28932">
        <ele>2222</ele>
        <time>2022-01-06T09:56:29Z</time>
      </trkpt>
      <trkpt lat="45.82441" lon="6.28934">
        <ele>2222</ele>
        <time>2022-01-06T09:56:30Z</time>
      </trkpt>
      <trkpt lat="45.82443" lon="6.28935">
        <ele>2222</ele>
        <time>2022-01-06T09:56:31Z</time>
      </trkpt>
      <trkpt lat="45.82445" lon="6.28937">
        <ele>2222</ele>
        <time>2022-01-06T09:56:32Z</time>
      </trkpt>
      <trkpt lat="45.82447" lon="6.28938">
        <ele>2222</ele>
        <time>2022-01-06T09:56:33Z</time>
      </trkpt>
      <trkpt lat="45.8245" lon="6.28938">
        <ele>2213</ele>
        <time>2022-01-06T09:56:34Z</time>
      </trkpt>
      <trkpt lat="45.82452" lon="6.28939">
        <ele>2213</ele>
        <time>2022-01-06T09:56:35Z</time>
      </trkpt>
      <trkpt lat="45.82454" lon="6.28939">
        <ele>2213</ele>
        <time>2022-01-06T09:56:36Z</time>
      </trkpt>
      <trkpt lat="45.82456" lon="6.28939">
        <ele>2213</ele>
        <time>2022-01-06T09:56:37Z</time>
      </trkpt>
      <trkpt lat="45.82459" lon="6.2894">
        <ele>2213</ele>
        <time>2022-01-06T09:56:38Z</time>
      </trkpt>
      <trkpt lat="45.8246" lon="6.28941">
        <ele>2213</ele>
        <time>2022-01-06T09:56:39Z</time>
      </trkpt>
      <trkpt lat="45.82462" lon="6.28941">
        <ele>2205.1</ele>
        <time>2022-01-06T09:56:40Z</time>
      </trkpt>
      <trkpt lat="45.82464" lon="6.2894">
        <ele>2205.1</ele>
        <time>2022-01-06T09:56:41Z</time>
      </trkpt>
      <trkpt lat="45.82466" lon="6.28938">
        <ele>2202.1</ele>
        <time>2022-01-06T09:56:42Z</time>
      </trkpt>
      <trkpt lat="45.82467" lon="6.28935">
        <ele>2202.1</ele>
        <time>2022-01-06T09:56:43Z</time>
      </trkpt>
      <trkpt lat="45.82469" lon="6.28933">
        <ele>2200.1</ele>
        <time>2022-01-06T09:56:44Z</time>
      </trkpt>
      <trkpt lat="45.8247" lon="6.28931">
        <ele>2200.1</ele>
        <time>2022-01-06T09:56:45Z</time>
      </trkpt>
      <trkpt lat="45.8247" lon="6.28929">
        <ele>2198.1</ele>
        <time>2022-01-06T09:56:46Z</time>
      </trkpt>
      <trkpt lat="45.82471" lon="6.28927">
        <ele>2198.1</ele>
        <time>2022-01-06T09:56:47Z</time>
      </trkpt>
      <trkpt lat="45.82472" lon="6.28925">
        <ele>2197</ele>
        <time>2022-01-06T09:56:48Z</time>
      </trkpt>
      <trkpt lat="45.82473" lon="6.28923">
        <ele>2197</ele>
        <time>2022-01-06T09:56:49Z</time>
      </trkpt>
      <trkpt lat="45.82475" lon="6.28921">
        <ele>2195</ele>
        <time>2022-01-06T09:56:50Z</time>
      </trkpt>
      <trkpt lat="45.82479" lon="6.2892">
        <ele>2195</ele>
        <time>2022-01-06T09:56:51Z</time>
      </trkpt>
      <trkpt lat="45.82482" lon="6.28921">
        <ele>2192.1</ele>
        <time>2022-01-06T09:56:52Z</time>
      </trkpt>
      <trkpt lat="45.82484" lon="6.28924">
        <ele>2192.1</ele>
        <time>2022-01-06T09:56:53Z</time>
      </trkpt>
      <trkpt lat="45.82486" lon="6.28926">
        <ele>2190.2</ele>
        <time>2022-01-06T09:56:54Z</time>
      </trkpt>
      <trkpt lat="45.8249" lon="6.28926">
        <ele>2190.2</ele>
        <time>2022-01-06T09:56:55Z</time>
      </trkpt>
      <trkpt lat="45.82493" lon="6.28924">
        <ele>2186.1</ele>
        <time>2022-01-06T09:56:56Z</time>
      </trkpt>
      <trkpt lat="45.82497" lon="6.28921">
        <ele>2186.1</ele>
        <time>2022-01-06T09:56:57Z</time>
      </trkpt>
      <trkpt lat="45.825" lon="6.28921">
        <ele>2182.1</ele>
        <time>2022-01-06T09:56:58Z</time>
      </trkpt>
      <trkpt lat="45.82502" lon="6.28924">
        <ele>2182.1</ele>
        <time>2022-01-06T09:56:59Z</time>
      </trkpt>
      <trkpt lat="45.82504" lon="6.28928">
        <ele>2179</ele>
        <time>2022-01-06T09:57:00Z</time>
      </trkpt>
      <trkpt lat="45.82506" lon="6.28933">
        <ele>2179</ele>
        <time>2022-01-06T09:57:01Z</time>
      </trkpt>
      <trkpt lat="45.82509" lon="6.28936">
        <ele>2176.1</ele>
        <time>2022-01-06T09:57:02Z</time>
      </trkpt>
      <trkpt lat="45.82512" lon="6.28938">
        <ele>2176.1</ele>
        <time>2022-01-06T09:57:03Z</time>
      </trkpt>
      <trkpt lat="45.82516" lon="6.28939">
        <ele>2172</ele>
        <time>2022-01-06T09:57:04Z</time>
      </trkpt>
      <trkpt lat="45.8252" lon="6.28939">
        <ele>2172</ele>
        <time>2022-01-06T09:57:05Z</time>
      </trkpt>
      <trkpt lat="45.82525" lon="6.2894">
        <ele>2167.2</ele>
        <time>2022-01-06T09:57:06Z</time>
      </trkpt>
      <trkpt lat="45.8253" lon="6.28941">
        <ele>2167.2</ele>
        <time>2022-01-06T09:57:07Z</time>
      </trkpt>
      <trkpt lat="45.82535" lon="6.28942">
        <ele>2163</ele>
        <time>2022-01-06T09:57:08Z</time>
      </trkpt>
      <trkpt lat="45.8254" lon="6.28943">
        <ele>2163</ele>
        <time>2022-01-06T09:57:09Z</time>
      </trkpt>
      <trkpt lat="45.82544" lon="6.28943">
        <ele>2159.1</ele>
        <time>2022-01-06T09:57:10Z</time>
      </trkpt>
      <trkpt lat="45.82548" lon="6.28944">
        <ele>2159.1</ele>
        <time>2022-01-06T09:57:11Z</time>
      </trkpt>
      <trkpt lat="45.82551" lon="6.28945">
        <ele>2155.1</ele>
        <time>2022-01-06T09:57:12Z</time>
      </trkpt>
      <trkpt lat="45.82556" lon="6.28947">
        <ele>2155.1</ele>
        <time>2022-01-06T09:57:13Z</time>
      </trkpt>
      <trkpt lat="45.8256" lon="6.2895">
        <ele>2152.1</ele>
        <time>2022-01-06T09:57:14Z</time>
      </trkpt>
      <trkpt lat="45.82563" lon="6.28954">
        <ele>2152.1</ele>
        <time>2022-01-06T09:57:15Z</time>
      </trkpt>
      <trkpt lat="45.82567" lon="6.28956">
        <ele>2149</ele>
        <time>2022-01-06T09:57:16Z</time>
      </trkpt>
      <trkpt lat="45.82569" lon="6.28957">
        <ele>2149</ele>
        <time>2022-01-06T09:57:17Z</time>
      </trkpt>
      <trkpt lat="45.82571" lon="6.28957">
        <ele>2147</ele>
        <time>2022-01-06T09:57:18Z</time>
      </trkpt>
      <trkpt lat="45.82576" lon="6.28956">
        <ele>2147</ele>
        <time>2022-01-06T09:57:19Z</time>
      </trkpt>
      <trkpt lat="45.82581" lon="6.28956">
        <ele>2144.1</ele>
        <time>2022-01-06T09:57:20Z</time>
      </trkpt>
      <trkpt lat="45.82585" lon="6.28957">
        <ele>2144.1</ele>
        <time>2022-01-06T09:57:21Z</time>
      </trkpt>
      <trkpt lat="45.8259" lon="6.28958">
        <ele>2143.1</ele>
        <time>2022-01-06T09:57:22Z</time>
      </trkpt>
      <trkpt lat="45.82595" lon="6.28959">
        <ele>2143.1</ele>
        <time>2022-01-06T09:57:23Z</time>
      </trkpt>
      <trkpt lat="45.826" lon="6.28959">
        <ele>2141.1</ele>
        <time>2022-01-06T09:57:24Z</time>
      </trkpt>
      <trkpt lat="45.82604" lon="6.2896">
        <ele>2141.1</ele>
        <time>2022-01-06T09:57:25Z</time>
      </trkpt>
      <trkpt lat="45.82607" lon="6.28962">
        <ele>2139.1</ele>
        <time>2022-01-06T09:57:26Z</time>
      </trkpt>
      <trkpt lat="45.8261" lon="6.28964">
        <ele>2139.1</ele>
        <time>2022-01-06T09:57:27Z</time>
      </trkpt>
      <trkpt lat="45.82614" lon="6.28967">
        <ele>2137.1</ele>
        <time>2022-01-06T09:57:28Z</time>
      </trkpt>
      <trkpt lat="45.82617" lon="6.2897">
        <ele>2137.1</ele>
        <time>2022-01-06T09:57:29Z</time>
      </trkpt>
      <trkpt lat="45.82621" lon="6.28974">
        <ele>2135.2</ele>
        <time>2022-01-06T09:57:30Z</time>
      </trkpt>
      <trkpt lat="45.82626" lon="6.28977">
        <ele>2135.2</ele>
        <time>2022-01-06T09:57:31Z</time>
      </trkpt>
      <trkpt lat="45.82629" lon="6.2898">
        <ele>2135.2</ele>
        <time>2022-01-06T09:57:32Z</time>
      </trkpt>
      <trkpt lat="45.82634" lon="6.28984">
        <ele>2135.2</ele>
        <time>2022-01-06T09:57:33Z</time>
      </trkpt>
      <trkpt lat="45.82638" lon="6.28986">
        <ele>2135.2</ele>
        <time>2022-01-06T09:57:34Z</time>
      </trkpt>
      <trkpt lat="45.82642" lon="6.28988">
        <ele>2135.2</ele>
        <time>2022-01-06T09:57:35Z</time>
      </trkpt>
      <trkpt lat="45.82644" lon="6.28989">
        <ele>2130.1</ele>
        <time>2022-01-06T09:57:36Z</time>
      </trkpt>
      <trkpt lat="45.82646" lon="6.28991">
        <ele>2130.1</ele>
        <time>2022-01-06T09:57:37Z</time>
      </trkpt>
      <trkpt lat="45.82649" lon="6.28992">
        <ele>2130.1</ele>
        <time>2022-01-06T09:57:38Z</time>
      </trkpt>
      <trkpt lat="45.8265" lon="6.28993">
        <ele>2130.1</ele>
        <time>2022-01-06T09:57:39Z</time>
      </trkpt>
      <trkpt lat="45.82651" lon="6.28994">
        <ele>2129.1</ele>
        <time>2022-01-06T09:57:40Z</time>
      </trkpt>
      <trkpt lat="45.82652" lon="6.28995">
        <ele>2129.1</ele>
        <time>2022-01-06T09:57:41Z</time>
      </trkpt>
      <trkpt lat="45.82652" lon="6.28994">
        <ele>2129.1</ele>
        <time>2022-01-06T09:57:42Z</time>
      </trkpt>
      <trkpt lat="45.82652" lon="6.28994">
        <ele>2129.1</ele>
        <time>2022-01-06T09:57:43Z</time>
      </trkpt>
      <trkpt lat="45.82652" lon="6.28994">
        <ele>2129.1</ele>
        <time>2022-01-06T09:57:44Z</time>
      </trkpt>
      <trkpt lat="45.82652" lon="6.28993">
        <ele>2129.1</ele>
        <time>2022-01-06T09:57:45Z</time>
      </trkpt>
      <trkpt lat="45.82651" lon="6.28992">
        <ele>2129.1</ele>
        <time>2022-01-06T09:57:46Z</time>
      </trkpt>
      <trkpt lat="45.82651" lon="6.28992">
        <ele>2129.1</ele>
        <time>2022-01-06T09:57:47Z</time>
      </trkpt>
      <trkpt lat="45.82651" lon="6.28991">
        <ele>2129.1</ele>
        <time>2022-01-06T09:57:48Z</time>
      </trkpt>
      <trkpt lat="45.82651" lon="6.28991">
        <ele>2129.1</ele>
        <time>2022-01-06T09:57:49Z</time>
      </trkpt>
      <trkpt lat="45.82652" lon="6.28992">
        <ele>2128.1</ele>
        <time>2022-01-06T09:57:50Z</time>
      </trkpt>
      <trkpt lat="45.82654" lon="6.28994">
        <ele>2128.1</ele>
        <time>2022-01-06T09:57:51Z</time>
      </trkpt>
      <trkpt lat="45.82656" lon="6.28996">
        <ele>2127.1</ele>
        <time>2022-01-06T09:57:52Z</time>
      </trkpt>
      <trkpt lat="45.82658" lon="6.28998">
        <ele>2127.1</ele>
        <time>2022-01-06T09:57:53Z</time>
      </trkpt>
      <trkpt lat="45.82661" lon="6.29">
        <ele>2127.1</ele>
        <time>2022-01-06T09:57:54Z</time>
      </trkpt>
      <trkpt lat="45.82662" lon="6.29001">
        <ele>2127.1</ele>
        <time>2022-01-06T09:57:55Z</time>
      </trkpt>
      <trkpt lat="45.82663" lon="6.29002">
        <ele>2126.2</ele>
        <time>2022-01-06T09:57:56Z</time>
      </trkpt>
      <trkpt lat="45.82664" lon="6.29003">
        <ele>2126.2</ele>
        <time>2022-01-06T09:57:57Z</time>
      </trkpt>
      <trkpt lat="45.82664" lon="6.29004">
        <ele>2126.2</ele>
        <time>2022-01-06T09:57:58Z</time>
      </trkpt>
      <trkpt lat="45.82665" lon="6.29005">
        <ele>2126.2</ele>
        <time>2022-01-06T09:57:59Z</time>
      </trkpt>
      <trkpt lat="45.82665" lon="6.29005">
        <ele>2126.2</ele>
        <time>2022-01-06T09:58:00Z</time>
      </trkpt>
      <trkpt lat="45.82667" lon="6.29006">
        <ele>2126.2</ele>
        <time>2022-01-06T09:58:01Z</time>
      </trkpt>
      <trkpt lat="45.82668" lon="6.29007">
        <ele>2125.1</ele>
        <time>2022-01-06T09:58:02Z</time>
      </trkpt>
      <trkpt lat="45.8267" lon="6.29008">
        <ele>2125.1</ele>
        <time>2022-01-06T09:58:03Z</time>
      </trkpt>
      <trkpt lat="45.82671" lon="6.29009">
        <ele>2125.1</ele>
        <time>2022-01-06T09:58:04Z</time>
      </trkpt>
      <trkpt lat="45.82673" lon="6.29009">
        <ele>2125.1</ele>
        <time>2022-01-06T09:58:05Z</time>
      </trkpt>
      <trkpt lat="45.82675" lon="6.2901">
        <ele>2124</ele>
        <time>2022-01-06T09:58:06Z</time>
      </trkpt>
      <trkpt lat="45.82677" lon="6.29012">
        <ele>2124</ele>
        <time>2022-01-06T09:58:07Z</time>
      </trkpt>
      <trkpt lat="45.82678" lon="6.29015">
        <ele>2123.1</ele>
        <time>2022-01-06T09:58:08Z</time>
      </trkpt>
      <trkpt lat="45.8268" lon="6.29017">
        <ele>2123.1</ele>
        <time>2022-01-06T09:58:09Z</time>
      </trkpt>
      <trkpt lat="45.82683" lon="6.29021">
        <ele>2123.1</ele>
        <time>2022-01-06T09:58:10Z</time>
      </trkpt>
      <trkpt lat="45.82686" lon="6.29027">
        <ele>2123.1</ele>
        <time>2022-01-06T09:58:11Z</time>
      </trkpt>
      <trkpt lat="45.82689" lon="6.29032">
        <ele>2123.1</ele>
        <time>2022-01-06T09:58:12Z</time>
      </trkpt>
      <trkpt lat="45.82692" lon="6.29038">
        <ele>2123.1</ele>
        <time>2022-01-06T09:58:13Z</time>
      </trkpt>
      <trkpt lat="45.82694" lon="6.29043">
        <ele>2119.1</ele>
        <time>2022-01-06T09:58:14Z</time>
      </trkpt>
      <trkpt lat="45.82697" lon="6.29047">
        <ele>2119.1</ele>
        <time>2022-01-06T09:58:15Z</time>
      </trkpt>
      <trkpt lat="45.82699" lon="6.2905">
        <ele>2117.2</ele>
        <time>2022-01-06T09:58:16Z</time>
      </trkpt>
      <trkpt lat="45.82701" lon="6.29053">
        <ele>2117.2</ele>
        <time>2022-01-06T09:58:17Z</time>
      </trkpt>
      <trkpt lat="45.82704" lon="6.29054">
        <ele>2117.2</ele>
        <time>2022-01-06T09:58:18Z</time>
      </trkpt>
      <trkpt lat="45.82706" lon="6.29055">
        <ele>2117.2</ele>
        <time>2022-01-06T09:58:19Z</time>
      </trkpt>
      <trkpt lat="45.82709" lon="6.29055">
        <ele>2116.1</ele>
        <time>2022-01-06T09:58:20Z</time>
      </trkpt>
      <trkpt lat="45.82712" lon="6.29056">
        <ele>2116.1</ele>
        <time>2022-01-06T09:58:21Z</time>
      </trkpt>
      <trkpt lat="45.82715" lon="6.29056">
        <ele>2114.1</ele>
        <time>2022-01-06T09:58:22Z</time>
      </trkpt>
      <trkpt lat="45.82717" lon="6.29056">
        <ele>2114.1</ele>
        <time>2022-01-06T09:58:23Z</time>
      </trkpt>
      <trkpt lat="45.82718" lon="6.29056">
        <ele>2114.1</ele>
        <time>2022-01-06T09:58:24Z</time>
      </trkpt>
      <trkpt lat="45.82719" lon="6.29056">
        <ele>2114.1</ele>
        <time>2022-01-06T09:58:25Z</time>
      </trkpt>
      <trkpt lat="45.82719" lon="6.29056">
        <ele>2114.1</ele>
        <time>2022-01-06T09:58:26Z</time>
      </trkpt>
      <trkpt lat="45.82719" lon="6.29056">
        <ele>2114.1</ele>
        <time>2022-01-06T09:58:27Z</time>
      </trkpt>
      <trkpt lat="45.82719" lon="6.29056">
        <ele>2114.1</ele>
        <time>2022-01-06T09:58:28Z</time>
      </trkpt>
      <trkpt lat="45.82719" lon="6.29056">
        <ele>2114.1</ele>
        <time>2022-01-06T09:58:29Z</time>
      </trkpt>
      <trkpt lat="45.82719" lon="6.29057">
        <ele>2114.1</ele>
        <time>2022-01-06T09:58:30Z</time>
      </trkpt>
      <trkpt lat="45.82718" lon="6.29057">
        <ele>2114.1</ele>
        <time>2022-01-06T09:58:31Z</time>
      </trkpt>
      <trkpt lat="45.82717" lon="6.29059">
        <ele>2114.1</ele>
        <time>2022-01-06T09:58:32Z</time>
      </trkpt>
      <trkpt lat="45.82717" lon="6.29059">
        <ele>2114.1</ele>
        <time>2022-01-06T09:58:33Z</time>
      </trkpt>
      <trkpt lat="45.82718" lon="6.29059">
        <ele>2114.1</ele>
        <time>2022-01-06T09:58:34Z</time>
      </trkpt>
      <trkpt lat="45.82718" lon="6.29059">
        <ele>2114.1</ele>
        <time>2022-01-06T09:58:35Z</time>
      </trkpt>
      <trkpt lat="45.82719" lon="6.29058">
        <ele>2114.1</ele>
        <time>2022-01-06T09:58:36Z</time>
      </trkpt>
      <trkpt lat="45.8272" lon="6.29058">
        <ele>2114.1</ele>
        <time>2022-01-06T09:58:37Z</time>
      </trkpt>
      <trkpt lat="45.82721" lon="6.29057">
        <ele>2114.1</ele>
        <time>2022-01-06T09:58:38Z</time>
      </trkpt>
      <trkpt lat="45.82721" lon="6.29057">
        <ele>2114.1</ele>
        <time>2022-01-06T09:58:39Z</time>
      </trkpt>
      <trkpt lat="45.82721" lon="6.29057">
        <ele>2114.1</ele>
        <time>2022-01-06T09:58:40Z</time>
      </trkpt>
      <trkpt lat="45.82721" lon="6.29057">
        <ele>2114.1</ele>
        <time>2022-01-06T09:58:41Z</time>
      </trkpt>
      <trkpt lat="45.82721" lon="6.29057">
        <ele>2114.1</ele>
        <time>2022-01-06T09:58:42Z</time>
      </trkpt>
      <trkpt lat="45.82721" lon="6.29057">
        <ele>2114.1</ele>
        <time>2022-01-06T09:58:43Z</time>
      </trkpt>
      <trkpt lat="45.82721" lon="6.29057">
        <ele>2114.1</ele>
        <time>2022-01-06T09:58:44Z</time>
      </trkpt>
      <trkpt lat="45.82721" lon="6.29057">
        <ele>2114.1</ele>
        <time>2022-01-06T09:58:45Z</time>
      </trkpt>
      <trkpt lat="45.82721" lon="6.29057">
        <ele>2114.1</ele>
        <time>2022-01-06T09:58:46Z</time>
      </trkpt>
      <trkpt lat="45.82721" lon="6.29057">
        <ele>2114.1</ele>
        <time>2022-01-06T09:58:47Z</time>
      </trkpt>
      <trkpt lat="45.82721" lon="6.29058">
        <ele>2114.1</ele>
        <time>2022-01-06T09:58:48Z</time>
      </trkpt>
      <trkpt lat="45.82721" lon="6.29058">
        <ele>2114.1</ele>
        <time>2022-01-06T09:58:49Z</time>
      </trkpt>
      <trkpt lat="45.82721" lon="6.29058">
        <ele>2114.1</ele>
        <time>2022-01-06T09:58:50Z</time>
      </trkpt>
      <trkpt lat="45.82721" lon="6.29058">
        <ele>2114.1</ele>
        <time>2022-01-06T09:58:51Z</time>
      </trkpt>
      <trkpt lat="45.82721" lon="6.29058">
        <ele>2114.1</ele>
        <time>2022-01-06T09:58:52Z</time>
      </trkpt>
      <trkpt lat="45.8272" lon="6.29058">
        <ele>2114.1</ele>
        <time>2022-01-06T09:58:53Z</time>
      </trkpt>
      <trkpt lat="45.8272" lon="6.29058">
        <ele>2114.1</ele>
        <time>2022-01-06T09:58:54Z</time>
      </trkpt>
      <trkpt lat="45.8272" lon="6.29058">
        <ele>2114.1</ele>
        <time>2022-01-06T09:58:55Z</time>
      </trkpt>
      <trkpt lat="45.8272" lon="6.29058">
        <ele>2114.1</ele>
        <time>2022-01-06T09:58:56Z</time>
      </trkpt>
      <trkpt lat="45.8272" lon="6.29058">
        <ele>2114.1</ele>
        <time>2022-01-06T09:58:57Z</time>
      </trkpt>
      <trkpt lat="45.8272" lon="6.29058">
        <ele>2114.1</ele>
        <time>2022-01-06T09:58:58Z</time>
      </trkpt>
      <trkpt lat="45.8272" lon="6.29058">
        <ele>2114.1</ele>
        <time>2022-01-06T09:58:59Z</time>
      </trkpt>
      <trkpt lat="45.8272" lon="6.29058">
        <ele>2114.1</ele>
        <time>2022-01-06T09:59:00Z</time>
      </trkpt>
      <trkpt lat="45.8272" lon="6.29058">
        <ele>2114.1</ele>
        <time>2022-01-06T09:59:01Z</time>
      </trkpt>
      <trkpt lat="45.8272" lon="6.29058">
        <ele>2114.1</ele>
        <time>2022-01-06T09:59:02Z</time>
      </trkpt>
      <trkpt lat="45.8272" lon="6.29058">
        <ele>2114.1</ele>
        <time>2022-01-06T09:59:03Z</time>
      </trkpt>
      <trkpt lat="45.8272" lon="6.29058">
        <ele>2114.1</ele>
        <time>2022-01-06T09:59:04Z</time>
      </trkpt>
      <trkpt lat="45.8272" lon="6.29058">
        <ele>2114.1</ele>
        <time>2022-01-06T09:59:05Z</time>
      </trkpt>
      <trkpt lat="45.8272" lon="6.29058">
        <ele>2114.1</ele>
        <time>2022-01-06T09:59:06Z</time>
      </trkpt>
      <trkpt lat="45.8272" lon="6.29058">
        <ele>2114.1</ele>
        <time>2022-01-06T09:59:07Z</time>
      </trkpt>
      <trkpt lat="45.8272" lon="6.29058">
        <ele>2114.1</ele>
        <time>2022-01-06T09:59:08Z</time>
      </trkpt>
      <trkpt lat="45.8272" lon="6.29058">
        <ele>2114.1</ele>
        <time>2022-01-06T09:59:09Z</time>
      </trkpt>
      <trkpt lat="45.8272" lon="6.29058">
        <ele>2114.1</ele>
        <time>2022-01-06T09:59:10Z</time>
      </trkpt>
      <trkpt lat="45.8272" lon="6.29058">
        <ele>2114.1</ele>
        <time>2022-01-06T09:59:11Z</time>
      </trkpt>
      <trkpt lat="45.8272" lon="6.29058">
        <ele>2114.1</ele>
        <time>2022-01-06T09:59:12Z</time>
      </trkpt>
      <trkpt lat="45.8272" lon="6.29058">
        <ele>2114.1</ele>
        <time>2022-01-06T09:59:13Z</time>
      </trkpt>
      <trkpt lat="45.8272" lon="6.29058">
        <ele>2114.1</ele>
        <time>2022-01-06T09:59:14Z</time>
      </trkpt>
      <trkpt lat="45.8272" lon="6.29058">
        <ele>2114.1</ele>
        <time>2022-01-06T09:59:15Z</time>
      </trkpt>
      <trkpt lat="45.8272" lon="6.29058">
        <ele>2114.1</ele>
        <time>2022-01-06T09:59:16Z</time>
      </trkpt>
      <trkpt lat="45.8272" lon="6.29058">
        <ele>2114.1</ele>
        <time>2022-01-06T09:59:17Z</time>
      </trkpt>
      <trkpt lat="45.8272" lon="6.29058">
        <ele>2114.1</ele>
        <time>2022-01-06T09:59:18Z</time>
      </trkpt>
      <trkpt lat="45.82719" lon="6.29058">
        <ele>2114.1</ele>
        <time>2022-01-06T09:59:19Z</time>
      </trkpt>
      <trkpt lat="45.82719" lon="6.29058">
        <ele>2114.1</ele>
        <time>2022-01-06T09:59:20Z</time>
      </trkpt>
      <trkpt lat="45.82719" lon="6.29057">
        <ele>2114.1</ele>
        <time>2022-01-06T09:59:21Z</time>
      </trkpt>
      <trkpt lat="45.82719" lon="6.29057">
        <ele>2114.1</ele>
        <time>2022-01-06T09:59:22Z</time>
      </trkpt>
      <trkpt lat="45.82719" lon="6.29057">
        <ele>2114.1</ele>
        <time>2022-01-06T09:59:23Z</time>
      </trkpt>
      <trkpt lat="45.82719" lon="6.29057">
        <ele>2114.1</ele>
        <time>2022-01-06T09:59:24Z</time>
      </trkpt>
      <trkpt lat="45.82719" lon="6.29057">
        <ele>2114.1</ele>
        <time>2022-01-06T09:59:25Z</time>
      </trkpt>
      <trkpt lat="45.82719" lon="6.29058">
        <ele>2114.1</ele>
        <time>2022-01-06T09:59:26Z</time>
      </trkpt>
      <trkpt lat="45.82719" lon="6.29058">
        <ele>2114.1</ele>
        <time>2022-01-06T09:59:27Z</time>
      </trkpt>
      <trkpt lat="45.82719" lon="6.29058">
        <ele>2113.1</ele>
        <time>2022-01-06T09:59:28Z</time>
      </trkpt>
      <trkpt lat="45.82719" lon="6.29058">
        <ele>2113.1</ele>
        <time>2022-01-06T09:59:29Z</time>
      </trkpt>
      <trkpt lat="45.82719" lon="6.29058">
        <ele>2113.1</ele>
        <time>2022-01-06T09:59:30Z</time>
      </trkpt>
      <trkpt lat="45.82719" lon="6.29058">
        <ele>2113.1</ele>
        <time>2022-01-06T09:59:31Z</time>
      </trkpt>
      <trkpt lat="45.82719" lon="6.29058">
        <ele>2113.1</ele>
        <time>2022-01-06T09:59:32Z</time>
      </trkpt>
      <trkpt lat="45.82719" lon="6.29058">
        <ele>2113.1</ele>
        <time>2022-01-06T09:59:33Z</time>
      </trkpt>
      <trkpt lat="45.82719" lon="6.29058">
        <ele>2113.1</ele>
        <time>2022-01-06T09:59:34Z</time>
      </trkpt>
      <trkpt lat="45.82719" lon="6.29058">
        <ele>2113.1</ele>
        <time>2022-01-06T09:59:35Z</time>
      </trkpt>
      <trkpt lat="45.82719" lon="6.29058">
        <ele>2113.1</ele>
        <time>2022-01-06T09:59:36Z</time>
      </trkpt>
      <trkpt lat="45.82719" lon="6.29058">
        <ele>2113.1</ele>
        <time>2022-01-06T09:59:37Z</time>
      </trkpt>
      <trkpt lat="45.82718" lon="6.29058">
        <ele>2113.1</ele>
        <time>2022-01-06T09:59:38Z</time>
      </trkpt>
      <trkpt lat="45.82718" lon="6.29059">
        <ele>2113.1</ele>
        <time>2022-01-06T09:59:39Z</time>
      </trkpt>
      <trkpt lat="45.82719" lon="6.29058">
        <ele>2113.1</ele>
        <time>2022-01-06T09:59:40Z</time>
      </trkpt>
      <trkpt lat="45.8272" lon="6.29053">
        <ele>2113.1</ele>
        <time>2022-01-06T09:59:41Z</time>
      </trkpt>
      <trkpt lat="45.82721" lon="6.29045">
        <ele>2112.1</ele>
        <time>2022-01-06T09:59:42Z</time>
      </trkpt>
      <trkpt lat="45.82722" lon="6.29038">
        <ele>2112.1</ele>
        <time>2022-01-06T09:59:43Z</time>
      </trkpt>
      <trkpt lat="45.82724" lon="6.29032">
        <ele>2112.1</ele>
        <time>2022-01-06T09:59:44Z</time>
      </trkpt>
      <trkpt lat="45.82726" lon="6.29027">
        <ele>2112.1</ele>
        <time>2022-01-06T09:59:45Z</time>
      </trkpt>
      <trkpt lat="45.82727" lon="6.29025">
        <ele>2112.1</ele>
        <time>2022-01-06T09:59:46Z</time>
      </trkpt>
      <trkpt lat="45.82729" lon="6.29024">
        <ele>2112.1</ele>
        <time>2022-01-06T09:59:47Z</time>
      </trkpt>
      <trkpt lat="45.8273" lon="6.29023">
        <ele>2108</ele>
        <time>2022-01-06T09:59:48Z</time>
      </trkpt>
      <trkpt lat="45.82731" lon="6.29023">
        <ele>2108</ele>
        <time>2022-01-06T09:59:49Z</time>
      </trkpt>
      <trkpt lat="45.82732" lon="6.29023">
        <ele>2107.1</ele>
        <time>2022-01-06T09:59:50Z</time>
      </trkpt>
      <trkpt lat="45.82734" lon="6.29024">
        <ele>2107.1</ele>
        <time>2022-01-06T09:59:51Z</time>
      </trkpt>
      <trkpt lat="45.82736" lon="6.29024">
        <ele>2107.1</ele>
        <time>2022-01-06T09:59:52Z</time>
      </trkpt>
      <trkpt lat="45.82739" lon="6.29025">
        <ele>2107.1</ele>
        <time>2022-01-06T09:59:53Z</time>
      </trkpt>
      <trkpt lat="45.82742" lon="6.29024">
        <ele>2106</ele>
        <time>2022-01-06T09:59:54Z</time>
      </trkpt>
      <trkpt lat="45.82745" lon="6.29025">
        <ele>2106</ele>
        <time>2022-01-06T09:59:55Z</time>
      </trkpt>
      <trkpt lat="45.82749" lon="6.29024">
        <ele>2105.1</ele>
        <time>2022-01-06T09:59:56Z</time>
      </trkpt>
      <trkpt lat="45.82753" lon="6.29024">
        <ele>2105.1</ele>
        <time>2022-01-06T09:59:57Z</time>
      </trkpt>
      <trkpt lat="45.82757" lon="6.29024">
        <ele>2105.1</ele>
        <time>2022-01-06T09:59:58Z</time>
      </trkpt>
      <trkpt lat="45.82761" lon="6.29027">
        <ele>2105.1</ele>
        <time>2022-01-06T09:59:59Z</time>
      </trkpt>
      <trkpt lat="45.82765" lon="6.29029">
        <ele>2105.1</ele>
        <time>2022-01-06T10:00:00Z</time>
      </trkpt>
      <trkpt lat="45.8277" lon="6.29032">
        <ele>2105.1</ele>
        <time>2022-01-06T10:00:01Z</time>
      </trkpt>
      <trkpt lat="45.82773" lon="6.29034">
        <ele>2098.1</ele>
        <time>2022-01-06T10:00:02Z</time>
      </trkpt>
      <trkpt lat="45.82777" lon="6.29036">
        <ele>2098.1</ele>
        <time>2022-01-06T10:00:03Z</time>
      </trkpt>
      <trkpt lat="45.82781" lon="6.29037">
        <ele>2096.1</ele>
        <time>2022-01-06T10:00:04Z</time>
      </trkpt>
      <trkpt lat="45.82784" lon="6.29039">
        <ele>2096.1</ele>
        <time>2022-01-06T10:00:05Z</time>
      </trkpt>
      <trkpt lat="45.82788" lon="6.29041">
        <ele>2094.2</ele>
        <time>2022-01-06T10:00:06Z</time>
      </trkpt>
      <trkpt lat="45.82792" lon="6.29043">
        <ele>2094.2</ele>
        <time>2022-01-06T10:00:07Z</time>
      </trkpt>
      <trkpt lat="45.82796" lon="6.29044">
        <ele>2093.1</ele>
        <time>2022-01-06T10:00:08Z</time>
      </trkpt>
      <trkpt lat="45.82801" lon="6.29046">
        <ele>2093.1</ele>
        <time>2022-01-06T10:00:09Z</time>
      </trkpt>
      <trkpt lat="45.82805" lon="6.29046">
        <ele>2091.1</ele>
        <time>2022-01-06T10:00:10Z</time>
      </trkpt>
      <trkpt lat="45.82809" lon="6.29046">
        <ele>2091.1</ele>
        <time>2022-01-06T10:00:11Z</time>
      </trkpt>
      <trkpt lat="45.82814" lon="6.29047">
        <ele>2090</ele>
        <time>2022-01-06T10:00:12Z</time>
      </trkpt>
      <trkpt lat="45.82818" lon="6.29047">
        <ele>2090</ele>
        <time>2022-01-06T10:00:13Z</time>
      </trkpt>
      <trkpt lat="45.82822" lon="6.29048">
        <ele>2090</ele>
        <time>2022-01-06T10:00:14Z</time>
      </trkpt>
      <trkpt lat="45.82825" lon="6.29048">
        <ele>2090</ele>
        <time>2022-01-06T10:00:15Z</time>
      </trkpt>
      <trkpt lat="45.82828" lon="6.29048">
        <ele>2088.1</ele>
        <time>2022-01-06T10:00:16Z</time>
      </trkpt>
      <trkpt lat="45.8283" lon="6.29047">
        <ele>2088.1</ele>
        <time>2022-01-06T10:00:17Z</time>
      </trkpt>
      <trkpt lat="45.82831" lon="6.29047">
        <ele>2088.1</ele>
        <time>2022-01-06T10:00:18Z</time>
      </trkpt>
      <trkpt lat="45.82832" lon="6.29048">
        <ele>2088.1</ele>
        <time>2022-01-06T10:00:19Z</time>
      </trkpt>
      <trkpt lat="45.82832" lon="6.29048">
        <ele>2088.1</ele>
        <time>2022-01-06T10:00:20Z</time>
      </trkpt>
      <trkpt lat="45.82833" lon="6.29049">
        <ele>2088.1</ele>
        <time>2022-01-06T10:00:21Z</time>
      </trkpt>
      <trkpt lat="45.82834" lon="6.29049">
        <ele>2088.1</ele>
        <time>2022-01-06T10:00:22Z</time>
      </trkpt>
      <trkpt lat="45.82835" lon="6.29049">
        <ele>2088.1</ele>
        <time>2022-01-06T10:00:23Z</time>
      </trkpt>
      <trkpt lat="45.82837" lon="6.29049">
        <ele>2088.1</ele>
        <time>2022-01-06T10:00:24Z</time>
      </trkpt>
      <trkpt lat="45.82839" lon="6.29048">
        <ele>2088.1</ele>
        <time>2022-01-06T10:00:25Z</time>
      </trkpt>
      <trkpt lat="45.82843" lon="6.29048">
        <ele>2086.1</ele>
        <time>2022-01-06T10:00:26Z</time>
      </trkpt>
      <trkpt lat="45.82847" lon="6.29049">
        <ele>2086.1</ele>
        <time>2022-01-06T10:00:27Z</time>
      </trkpt>
      <trkpt lat="45.82851" lon="6.29051">
        <ele>2083</ele>
        <time>2022-01-06T10:00:28Z</time>
      </trkpt>
      <trkpt lat="45.82855" lon="6.29053">
        <ele>2083</ele>
        <time>2022-01-06T10:00:29Z</time>
      </trkpt>
      <trkpt lat="45.82859" lon="6.29055">
        <ele>2080.1</ele>
        <time>2022-01-06T10:00:30Z</time>
      </trkpt>
      <trkpt lat="45.82866" lon="6.29059">
        <ele>2080.1</ele>
        <time>2022-01-06T10:00:31Z</time>
      </trkpt>
      <trkpt lat="45.82871" lon="6.29062">
        <ele>2078.2</ele>
        <time>2022-01-06T10:00:32Z</time>
      </trkpt>
      <trkpt lat="45.82877" lon="6.29066">
        <ele>2078.2</ele>
        <time>2022-01-06T10:00:33Z</time>
      </trkpt>
      <trkpt lat="45.82882" lon="6.29069">
        <ele>2075.1</ele>
        <time>2022-01-06T10:00:34Z</time>
      </trkpt>
      <trkpt lat="45.82886" lon="6.29073">
        <ele>2075.1</ele>
        <time>2022-01-06T10:00:35Z</time>
      </trkpt>
      <trkpt lat="45.82891" lon="6.29076">
        <ele>2073.1</ele>
        <time>2022-01-06T10:00:36Z</time>
      </trkpt>
      <trkpt lat="45.82896" lon="6.29079">
        <ele>2073.1</ele>
        <time>2022-01-06T10:00:37Z</time>
      </trkpt>
      <trkpt lat="45.82901" lon="6.29083">
        <ele>2070.1</ele>
        <time>2022-01-06T10:00:38Z</time>
      </trkpt>
      <trkpt lat="45.82906" lon="6.29087">
        <ele>2070.1</ele>
        <time>2022-01-06T10:00:39Z</time>
      </trkpt>
      <trkpt lat="45.8291" lon="6.2909">
        <ele>2068.1</ele>
        <time>2022-01-06T10:00:40Z</time>
      </trkpt>
      <trkpt lat="45.82915" lon="6.29093">
        <ele>2068.1</ele>
        <time>2022-01-06T10:00:41Z</time>
      </trkpt>
      <trkpt lat="45.82919" lon="6.29094">
        <ele>2065</ele>
        <time>2022-01-06T10:00:42Z</time>
      </trkpt>
      <trkpt lat="45.82924" lon="6.29095">
        <ele>2065</ele>
        <time>2022-01-06T10:00:43Z</time>
      </trkpt>
      <trkpt lat="45.82928" lon="6.29096">
        <ele>2063.1</ele>
        <time>2022-01-06T10:00:44Z</time>
      </trkpt>
      <trkpt lat="45.82932" lon="6.29095">
        <ele>2063.1</ele>
        <time>2022-01-06T10:00:45Z</time>
      </trkpt>
      <trkpt lat="45.82936" lon="6.29093">
        <ele>2063.1</ele>
        <time>2022-01-06T10:00:46Z</time>
      </trkpt>
      <trkpt lat="45.82939" lon="6.29095">
        <ele>2063.1</ele>
        <time>2022-01-06T10:00:47Z</time>
      </trkpt>
      <trkpt lat="45.82942" lon="6.29098">
        <ele>2063.1</ele>
        <time>2022-01-06T10:00:48Z</time>
      </trkpt>
      <trkpt lat="45.82944" lon="6.29102">
        <ele>2063.1</ele>
        <time>2022-01-06T10:00:49Z</time>
      </trkpt>
      <trkpt lat="45.82946" lon="6.29105">
        <ele>2053.2</ele>
        <time>2022-01-06T10:00:50Z</time>
      </trkpt>
      <trkpt lat="45.82949" lon="6.29109">
        <ele>2053.2</ele>
        <time>2022-01-06T10:00:51Z</time>
      </trkpt>
      <trkpt lat="45.82951" lon="6.29114">
        <ele>2049</ele>
        <time>2022-01-06T10:00:52Z</time>
      </trkpt>
      <trkpt lat="45.82954" lon="6.29118">
        <ele>2049</ele>
        <time>2022-01-06T10:00:53Z</time>
      </trkpt>
      <trkpt lat="45.82957" lon="6.29122">
        <ele>2044.2</ele>
        <time>2022-01-06T10:00:54Z</time>
      </trkpt>
      <trkpt lat="45.8296" lon="6.29126">
        <ele>2044.2</ele>
        <time>2022-01-06T10:00:55Z</time>
      </trkpt>
      <trkpt lat="45.82963" lon="6.29129">
        <ele>2040.1</ele>
        <time>2022-01-06T10:00:56Z</time>
      </trkpt>
      <trkpt lat="45.82967" lon="6.29132">
        <ele>2040.1</ele>
        <time>2022-01-06T10:00:57Z</time>
      </trkpt>
      <trkpt lat="45.82969" lon="6.29136">
        <ele>2035</ele>
        <time>2022-01-06T10:00:58Z</time>
      </trkpt>
      <trkpt lat="45.82972" lon="6.2914">
        <ele>2035</ele>
        <time>2022-01-06T10:00:59Z</time>
      </trkpt>
      <trkpt lat="45.82974" lon="6.29143">
        <ele>2035</ele>
        <time>2022-01-06T10:01:00Z</time>
      </trkpt>
      <trkpt lat="45.82977" lon="6.29147">
        <ele>2035</ele>
        <time>2022-01-06T10:01:01Z</time>
      </trkpt>
      <trkpt lat="45.82981" lon="6.29151">
        <ele>2026</ele>
        <time>2022-01-06T10:01:02Z</time>
      </trkpt>
      <trkpt lat="45.82985" lon="6.29154">
        <ele>2026</ele>
        <time>2022-01-06T10:01:03Z</time>
      </trkpt>
      <trkpt lat="45.82989" lon="6.29157">
        <ele>2022.1</ele>
        <time>2022-01-06T10:01:04Z</time>
      </trkpt>
      <trkpt lat="45.82994" lon="6.29159">
        <ele>2022.1</ele>
        <time>2022-01-06T10:01:05Z</time>
      </trkpt>
      <trkpt lat="45.82998" lon="6.29161">
        <ele>2018.1</ele>
        <time>2022-01-06T10:01:06Z</time>
      </trkpt>
      <trkpt lat="45.83003" lon="6.29162">
        <ele>2018.1</ele>
        <time>2022-01-06T10:01:07Z</time>
      </trkpt>
      <trkpt lat="45.83009" lon="6.29162">
        <ele>2015.1</ele>
        <time>2022-01-06T10:01:08Z</time>
      </trkpt>
      <trkpt lat="45.83015" lon="6.29162">
        <ele>2015.1</ele>
        <time>2022-01-06T10:01:09Z</time>
      </trkpt>
      <trkpt lat="45.8302" lon="6.29163">
        <ele>2012.2</ele>
        <time>2022-01-06T10:01:10Z</time>
      </trkpt>
      <trkpt lat="45.83025" lon="6.29164">
        <ele>2012.2</ele>
        <time>2022-01-06T10:01:11Z</time>
      </trkpt>
      <trkpt lat="45.83028" lon="6.29166">
        <ele>2010</ele>
        <time>2022-01-06T10:01:12Z</time>
      </trkpt>
      <trkpt lat="45.83031" lon="6.29167">
        <ele>2010</ele>
        <time>2022-01-06T10:01:13Z</time>
      </trkpt>
      <trkpt lat="45.83034" lon="6.29169">
        <ele>2009.1</ele>
        <time>2022-01-06T10:01:14Z</time>
      </trkpt>
      <trkpt lat="45.83037" lon="6.29171">
        <ele>2009.1</ele>
        <time>2022-01-06T10:01:15Z</time>
      </trkpt>
      <trkpt lat="45.83042" lon="6.29173">
        <ele>2007.1</ele>
        <time>2022-01-06T10:01:16Z</time>
      </trkpt>
      <trkpt lat="45.83047" lon="6.29176">
        <ele>2007.1</ele>
        <time>2022-01-06T10:01:17Z</time>
      </trkpt>
      <trkpt lat="45.83052" lon="6.29178">
        <ele>2005.2</ele>
        <time>2022-01-06T10:01:18Z</time>
      </trkpt>
      <trkpt lat="45.83057" lon="6.2918">
        <ele>2005.2</ele>
        <time>2022-01-06T10:01:19Z</time>
      </trkpt>
      <trkpt lat="45.83061" lon="6.29182">
        <ele>2004.1</ele>
        <time>2022-01-06T10:01:20Z</time>
      </trkpt>
      <trkpt lat="45.83065" lon="6.29182">
        <ele>2004.1</ele>
        <time>2022-01-06T10:01:21Z</time>
      </trkpt>
      <trkpt lat="45.83069" lon="6.29183">
        <ele>2002.1</ele>
        <time>2022-01-06T10:01:22Z</time>
      </trkpt>
      <trkpt lat="45.83073" lon="6.29184">
        <ele>2002.1</ele>
        <time>2022-01-06T10:01:23Z</time>
      </trkpt>
      <trkpt lat="45.83076" lon="6.29185">
        <ele>2001</ele>
        <time>2022-01-06T10:01:24Z</time>
      </trkpt>
      <trkpt lat="45.8308" lon="6.29186">
        <ele>2001</ele>
        <time>2022-01-06T10:01:25Z</time>
      </trkpt>
      <trkpt lat="45.83081" lon="6.29188">
        <ele>2000.1</ele>
        <time>2022-01-06T10:01:26Z</time>
      </trkpt>
      <trkpt lat="45.83082" lon="6.29188">
        <ele>2000.1</ele>
        <time>2022-01-06T10:01:27Z</time>
      </trkpt>
      <trkpt lat="45.83082" lon="6.29188">
        <ele>2000.1</ele>
        <time>2022-01-06T10:01:28Z</time>
      </trkpt>
      <trkpt lat="45.83083" lon="6.29188">
        <ele>2000.1</ele>
        <time>2022-01-06T10:01:29Z</time>
      </trkpt>
      <trkpt lat="45.83084" lon="6.29188">
        <ele>2000.1</ele>
        <time>2022-01-06T10:01:30Z</time>
      </trkpt>
      <trkpt lat="45.83084" lon="6.29189">
        <ele>2000.1</ele>
        <time>2022-01-06T10:01:31Z</time>
      </trkpt>
      <trkpt lat="45.83085" lon="6.29189">
        <ele>2000.1</ele>
        <time>2022-01-06T10:01:32Z</time>
      </trkpt>
      <trkpt lat="45.83086" lon="6.29189">
        <ele>2000.1</ele>
        <time>2022-01-06T10:01:33Z</time>
      </trkpt>
      <trkpt lat="45.83087" lon="6.29189">
        <ele>2000.1</ele>
        <time>2022-01-06T10:01:34Z</time>
      </trkpt>
      <trkpt lat="45.83087" lon="6.29189">
        <ele>2000.1</ele>
        <time>2022-01-06T10:01:35Z</time>
      </trkpt>
      <trkpt lat="45.83088" lon="6.29189">
        <ele>1999.1</ele>
        <time>2022-01-06T10:01:36Z</time>
      </trkpt>
      <trkpt lat="45.83089" lon="6.29189">
        <ele>1999.1</ele>
        <time>2022-01-06T10:01:37Z</time>
      </trkpt>
      <trkpt lat="45.83089" lon="6.29189">
        <ele>1999.1</ele>
        <time>2022-01-06T10:01:38Z</time>
      </trkpt>
      <trkpt lat="45.8309" lon="6.29189">
        <ele>1999.1</ele>
        <time>2022-01-06T10:01:39Z</time>
      </trkpt>
      <trkpt lat="45.83091" lon="6.29189">
        <ele>1999.1</ele>
        <time>2022-01-06T10:01:40Z</time>
      </trkpt>
      <trkpt lat="45.83092" lon="6.29189">
        <ele>1999.1</ele>
        <time>2022-01-06T10:01:41Z</time>
      </trkpt>
      <trkpt lat="45.83092" lon="6.29189">
        <ele>1999.1</ele>
        <time>2022-01-06T10:01:42Z</time>
      </trkpt>
      <trkpt lat="45.83093" lon="6.29189">
        <ele>1999.1</ele>
        <time>2022-01-06T10:01:43Z</time>
      </trkpt>
      <trkpt lat="45.83094" lon="6.29189">
        <ele>1999.1</ele>
        <time>2022-01-06T10:01:44Z</time>
      </trkpt>
      <trkpt lat="45.83094" lon="6.29189">
        <ele>1999.1</ele>
        <time>2022-01-06T10:01:45Z</time>
      </trkpt>
      <trkpt lat="45.83095" lon="6.2919">
        <ele>1999.1</ele>
        <time>2022-01-06T10:01:46Z</time>
      </trkpt>
      <trkpt lat="45.83096" lon="6.2919">
        <ele>1999.1</ele>
        <time>2022-01-06T10:01:47Z</time>
      </trkpt>
      <trkpt lat="45.83096" lon="6.2919">
        <ele>1999.1</ele>
        <time>2022-01-06T10:01:48Z</time>
      </trkpt>
      <trkpt lat="45.83097" lon="6.2919">
        <ele>1999.1</ele>
        <time>2022-01-06T10:01:49Z</time>
      </trkpt>
      <trkpt lat="45.83098" lon="6.2919">
        <ele>1998.1</ele>
        <time>2022-01-06T10:01:50Z</time>
      </trkpt>
      <trkpt lat="45.83099" lon="6.2919">
        <ele>1998.1</ele>
        <time>2022-01-06T10:01:51Z</time>
      </trkpt>
      <trkpt lat="45.83099" lon="6.2919">
        <ele>1998.1</ele>
        <time>2022-01-06T10:01:52Z</time>
      </trkpt>
      <trkpt lat="45.831" lon="6.2919">
        <ele>1998.1</ele>
        <time>2022-01-06T10:01:53Z</time>
      </trkpt>
      <trkpt lat="45.83101" lon="6.2919">
        <ele>1998.1</ele>
        <time>2022-01-06T10:01:54Z</time>
      </trkpt>
      <trkpt lat="45.83104" lon="6.29194">
        <ele>1998.1</ele>
        <time>2022-01-06T10:01:55Z</time>
      </trkpt>
      <trkpt lat="45.83108" lon="6.29198">
        <ele>1991.1</ele>
        <time>2022-01-06T10:01:56Z</time>
      </trkpt>
      <trkpt lat="45.83113" lon="6.29202">
        <ele>1991.1</ele>
        <time>2022-01-06T10:01:57Z</time>
      </trkpt>
      <trkpt lat="45.83118" lon="6.29206">
        <ele>1991.1</ele>
        <time>2022-01-06T10:01:58Z</time>
      </trkpt>
      <trkpt lat="45.83123" lon="6.29209">
        <ele>1991.1</ele>
        <time>2022-01-06T10:01:59Z</time>
      </trkpt>
      <trkpt lat="45.83128" lon="6.29212">
        <ele>1991.1</ele>
        <time>2022-01-06T10:02:00Z</time>
      </trkpt>
      <trkpt lat="45.83134" lon="6.29214">
        <ele>1991.1</ele>
        <time>2022-01-06T10:02:01Z</time>
      </trkpt>
      <trkpt lat="45.83139" lon="6.29215">
        <ele>1982.1</ele>
        <time>2022-01-06T10:02:02Z</time>
      </trkpt>
      <trkpt lat="45.83144" lon="6.29215">
        <ele>1982.1</ele>
        <time>2022-01-06T10:02:03Z</time>
      </trkpt>
      <trkpt lat="45.8315" lon="6.29215">
        <ele>1979.1</ele>
        <time>2022-01-06T10:02:04Z</time>
      </trkpt>
      <trkpt lat="45.83154" lon="6.29213">
        <ele>1979.1</ele>
        <time>2022-01-06T10:02:05Z</time>
      </trkpt>
      <trkpt lat="45.8316" lon="6.29214">
        <ele>1978</ele>
        <time>2022-01-06T10:02:06Z</time>
      </trkpt>
      <trkpt lat="45.83165" lon="6.29215">
        <ele>1978</ele>
        <time>2022-01-06T10:02:07Z</time>
      </trkpt>
      <trkpt lat="45.8317" lon="6.29217">
        <ele>1976</ele>
        <time>2022-01-06T10:02:08Z</time>
      </trkpt>
      <trkpt lat="45.83173" lon="6.29218">
        <ele>1976</ele>
        <time>2022-01-06T10:02:09Z</time>
      </trkpt>
      <trkpt lat="45.83178" lon="6.29221">
        <ele>1974.1</ele>
        <time>2022-01-06T10:02:10Z</time>
      </trkpt>
      <trkpt lat="45.83183" lon="6.29223">
        <ele>1974.1</ele>
        <time>2022-01-06T10:02:11Z</time>
      </trkpt>
      <trkpt lat="45.83188" lon="6.29226">
        <ele>1971.2</ele>
        <time>2022-01-06T10:02:12Z</time>
      </trkpt>
      <trkpt lat="45.83192" lon="6.2923">
        <ele>1971.2</ele>
        <time>2022-01-06T10:02:13Z</time>
      </trkpt>
      <trkpt lat="45.83194" lon="6.29232">
        <ele>1969</ele>
        <time>2022-01-06T10:02:14Z</time>
      </trkpt>
      <trkpt lat="45.83197" lon="6.29233">
        <ele>1969</ele>
        <time>2022-01-06T10:02:15Z</time>
      </trkpt>
      <trkpt lat="45.832" lon="6.29235">
        <ele>1965.1</ele>
        <time>2022-01-06T10:02:16Z</time>
      </trkpt>
      <trkpt lat="45.83203" lon="6.29237">
        <ele>1965.1</ele>
        <time>2022-01-06T10:02:17Z</time>
      </trkpt>
      <trkpt lat="45.83205" lon="6.29241">
        <ele>1963.1</ele>
        <time>2022-01-06T10:02:18Z</time>
      </trkpt>
      <trkpt lat="45.83207" lon="6.29244">
        <ele>1963.1</ele>
        <time>2022-01-06T10:02:19Z</time>
      </trkpt>
      <trkpt lat="45.83209" lon="6.29246">
        <ele>1961.1</ele>
        <time>2022-01-06T10:02:20Z</time>
      </trkpt>
      <trkpt lat="45.83209" lon="6.29247">
        <ele>1961.1</ele>
        <time>2022-01-06T10:02:21Z</time>
      </trkpt>
      <trkpt lat="45.83209" lon="6.29247">
        <ele>1960</ele>
        <time>2022-01-06T10:02:22Z</time>
      </trkpt>
      <trkpt lat="45.83209" lon="6.29248">
        <ele>1960</ele>
        <time>2022-01-06T10:02:23Z</time>
      </trkpt>
      <trkpt lat="45.83208" lon="6.29248">
        <ele>1960</ele>
        <time>2022-01-06T10:02:24Z</time>
      </trkpt>
      <trkpt lat="45.83206" lon="6.29249">
        <ele>1960</ele>
        <time>2022-01-06T10:02:25Z</time>
      </trkpt>
      <trkpt lat="45.83205" lon="6.2925">
        <ele>1959.1</ele>
        <time>2022-01-06T10:02:26Z</time>
      </trkpt>
      <trkpt lat="45.83204" lon="6.2925">
        <ele>1959.1</ele>
        <time>2022-01-06T10:02:27Z</time>
      </trkpt>
      <trkpt lat="45.83204" lon="6.2925">
        <ele>1959.1</ele>
        <time>2022-01-06T10:02:28Z</time>
      </trkpt>
      <trkpt lat="45.83204" lon="6.2925">
        <ele>1959.1</ele>
        <time>2022-01-06T10:02:29Z</time>
      </trkpt>
      <trkpt lat="45.83204" lon="6.2925">
        <ele>1959.1</ele>
        <time>2022-01-06T10:02:30Z</time>
      </trkpt>
      <trkpt lat="45.83205" lon="6.2925">
        <ele>1959.1</ele>
        <time>2022-01-06T10:02:31Z</time>
      </trkpt>
      <trkpt lat="45.83205" lon="6.29251">
        <ele>1959.1</ele>
        <time>2022-01-06T10:02:32Z</time>
      </trkpt>
      <trkpt lat="45.83206" lon="6.29252">
        <ele>1959.1</ele>
        <time>2022-01-06T10:02:33Z</time>
      </trkpt>
      <trkpt lat="45.83208" lon="6.29254">
        <ele>1958.1</ele>
        <time>2022-01-06T10:02:34Z</time>
      </trkpt>
      <trkpt lat="45.83211" lon="6.29257">
        <ele>1958.1</ele>
        <time>2022-01-06T10:02:35Z</time>
      </trkpt>
      <trkpt lat="45.83215" lon="6.29261">
        <ele>1955.2</ele>
        <time>2022-01-06T10:02:36Z</time>
      </trkpt>
      <trkpt lat="45.83217" lon="6.29265">
        <ele>1955.2</ele>
        <time>2022-01-06T10:02:37Z</time>
      </trkpt>
      <trkpt lat="45.83222" lon="6.29271">
        <ele>1952.1</ele>
        <time>2022-01-06T10:02:38Z</time>
      </trkpt>
      <trkpt lat="45.83225" lon="6.29276">
        <ele>1952.1</ele>
        <time>2022-01-06T10:02:39Z</time>
      </trkpt>
      <trkpt lat="45.8323" lon="6.29281">
        <ele>1949.1</ele>
        <time>2022-01-06T10:02:40Z</time>
      </trkpt>
      <trkpt lat="45.83235" lon="6.29286">
        <ele>1949.1</ele>
        <time>2022-01-06T10:02:41Z</time>
      </trkpt>
      <trkpt lat="45.8324" lon="6.29291">
        <ele>1946</ele>
        <time>2022-01-06T10:02:42Z</time>
      </trkpt>
      <trkpt lat="45.83246" lon="6.29295">
        <ele>1946</ele>
        <time>2022-01-06T10:02:43Z</time>
      </trkpt>
      <trkpt lat="45.83251" lon="6.29298">
        <ele>1944</ele>
        <time>2022-01-06T10:02:44Z</time>
      </trkpt>
      <trkpt lat="45.83255" lon="6.293">
        <ele>1944</ele>
        <time>2022-01-06T10:02:45Z</time>
      </trkpt>
      <trkpt lat="45.83258" lon="6.29302">
        <ele>1943.1</ele>
        <time>2022-01-06T10:02:46Z</time>
      </trkpt>
      <trkpt lat="45.83261" lon="6.29304">
        <ele>1943.1</ele>
        <time>2022-01-06T10:02:47Z</time>
      </trkpt>
      <trkpt lat="45.83262" lon="6.29305">
        <ele>1943.1</ele>
        <time>2022-01-06T10:02:48Z</time>
      </trkpt>
      <trkpt lat="45.83264" lon="6.29306">
        <ele>1943.1</ele>
        <time>2022-01-06T10:02:49Z</time>
      </trkpt>
      <trkpt lat="45.83266" lon="6.29306">
        <ele>1942.1</ele>
        <time>2022-01-06T10:02:50Z</time>
      </trkpt>
      <trkpt lat="45.83267" lon="6.29306">
        <ele>1942.1</ele>
        <time>2022-01-06T10:02:51Z</time>
      </trkpt>
      <trkpt lat="45.83269" lon="6.29306">
        <ele>1942.1</ele>
        <time>2022-01-06T10:02:52Z</time>
      </trkpt>
      <trkpt lat="45.8327" lon="6.29306">
        <ele>1942.1</ele>
        <time>2022-01-06T10:02:53Z</time>
      </trkpt>
      <trkpt lat="45.83272" lon="6.29306">
        <ele>1941.1</ele>
        <time>2022-01-06T10:02:54Z</time>
      </trkpt>
      <trkpt lat="45.83274" lon="6.29307">
        <ele>1941.1</ele>
        <time>2022-01-06T10:02:55Z</time>
      </trkpt>
      <trkpt lat="45.83277" lon="6.29308">
        <ele>1941.1</ele>
        <time>2022-01-06T10:02:56Z</time>
      </trkpt>
      <trkpt lat="45.83283" lon="6.29309">
        <ele>1941.1</ele>
        <time>2022-01-06T10:02:57Z</time>
      </trkpt>
      <trkpt lat="45.8329" lon="6.2931">
        <ele>1941.1</ele>
        <time>2022-01-06T10:02:58Z</time>
      </trkpt>
      <trkpt lat="45.83296" lon="6.2931">
        <ele>1941.1</ele>
        <time>2022-01-06T10:02:59Z</time>
      </trkpt>
      <trkpt lat="45.833" lon="6.2931">
        <ele>1934.1</ele>
        <time>2022-01-06T10:03:00Z</time>
      </trkpt>
      <trkpt lat="45.83306" lon="6.29312">
        <ele>1934.1</ele>
        <time>2022-01-06T10:03:01Z</time>
      </trkpt>
      <trkpt lat="45.83311" lon="6.29313">
        <ele>1934.1</ele>
        <time>2022-01-06T10:03:02Z</time>
      </trkpt>
      <trkpt lat="45.83314" lon="6.29315">
        <ele>1934.1</ele>
        <time>2022-01-06T10:03:03Z</time>
      </trkpt>
      <trkpt lat="45.83318" lon="6.29316">
        <ele>1934.1</ele>
        <time>2022-01-06T10:03:04Z</time>
      </trkpt>
      <trkpt lat="45.83321" lon="6.29317">
        <ele>1934.1</ele>
        <time>2022-01-06T10:03:05Z</time>
      </trkpt>
      <trkpt lat="45.83326" lon="6.29318">
        <ele>1928</ele>
        <time>2022-01-06T10:03:06Z</time>
      </trkpt>
      <trkpt lat="45.8333" lon="6.29316">
        <ele>1928</ele>
        <time>2022-01-06T10:03:07Z</time>
      </trkpt>
      <trkpt lat="45.83334" lon="6.29312">
        <ele>1925.1</ele>
        <time>2022-01-06T10:03:08Z</time>
      </trkpt>
      <trkpt lat="45.83338" lon="6.29311">
        <ele>1925.1</ele>
        <time>2022-01-06T10:03:09Z</time>
      </trkpt>
      <trkpt lat="45.83342" lon="6.29311">
        <ele>1923.2</ele>
        <time>2022-01-06T10:03:10Z</time>
      </trkpt>
      <trkpt lat="45.83347" lon="6.29313">
        <ele>1923.2</ele>
        <time>2022-01-06T10:03:11Z</time>
      </trkpt>
      <trkpt lat="45.83352" lon="6.29315">
        <ele>1920.1</ele>
        <time>2022-01-06T10:03:12Z</time>
      </trkpt>
      <trkpt lat="45.83357" lon="6.29317">
        <ele>1920.1</ele>
        <time>2022-01-06T10:03:13Z</time>
      </trkpt>
      <trkpt lat="45.83361" lon="6.29319">
        <ele>1917.1</ele>
        <time>2022-01-06T10:03:14Z</time>
      </trkpt>
      <trkpt lat="45.83368" lon="6.29321">
        <ele>1917.1</ele>
        <time>2022-01-06T10:03:15Z</time>
      </trkpt>
      <trkpt lat="45.83372" lon="6.29322">
        <ele>1915.1</ele>
        <time>2022-01-06T10:03:16Z</time>
      </trkpt>
      <trkpt lat="45.83377" lon="6.29324">
        <ele>1915.1</ele>
        <time>2022-01-06T10:03:17Z</time>
      </trkpt>
      <trkpt lat="45.83382" lon="6.29325">
        <ele>1913.1</ele>
        <time>2022-01-06T10:03:18Z</time>
      </trkpt>
      <trkpt lat="45.83385" lon="6.29327">
        <ele>1913.1</ele>
        <time>2022-01-06T10:03:19Z</time>
      </trkpt>
      <trkpt lat="45.83388" lon="6.29329">
        <ele>1912</ele>
        <time>2022-01-06T10:03:20Z</time>
      </trkpt>
      <trkpt lat="45.83389" lon="6.29331">
        <ele>1912</ele>
        <time>2022-01-06T10:03:21Z</time>
      </trkpt>
      <trkpt lat="45.83391" lon="6.29332">
        <ele>1912</ele>
        <time>2022-01-06T10:03:22Z</time>
      </trkpt>
      <trkpt lat="45.83392" lon="6.29333">
        <ele>1912</ele>
        <time>2022-01-06T10:03:23Z</time>
      </trkpt>
      <trkpt lat="45.83392" lon="6.29334">
        <ele>1911.1</ele>
        <time>2022-01-06T10:03:24Z</time>
      </trkpt>
      <trkpt lat="45.83393" lon="6.29335">
        <ele>1911.1</ele>
        <time>2022-01-06T10:03:25Z</time>
      </trkpt>
      <trkpt lat="45.83395" lon="6.29337">
        <ele>1910.1</ele>
        <time>2022-01-06T10:03:26Z</time>
      </trkpt>
      <trkpt lat="45.83396" lon="6.29339">
        <ele>1910.1</ele>
        <time>2022-01-06T10:03:27Z</time>
      </trkpt>
      <trkpt lat="45.83397" lon="6.29341">
        <ele>1910.1</ele>
        <time>2022-01-06T10:03:28Z</time>
      </trkpt>
      <trkpt lat="45.83398" lon="6.29342">
        <ele>1910.1</ele>
        <time>2022-01-06T10:03:29Z</time>
      </trkpt>
      <trkpt lat="45.83398" lon="6.29343">
        <ele>1909.1</ele>
        <time>2022-01-06T10:03:30Z</time>
      </trkpt>
      <trkpt lat="45.83398" lon="6.29343">
        <ele>1909.1</ele>
        <time>2022-01-06T10:03:31Z</time>
      </trkpt>
      <trkpt lat="45.83397" lon="6.29343">
        <ele>1909.1</ele>
        <time>2022-01-06T10:03:32Z</time>
      </trkpt>
      <trkpt lat="45.83397" lon="6.29343">
        <ele>1909.1</ele>
        <time>2022-01-06T10:03:33Z</time>
      </trkpt>
      <trkpt lat="45.83397" lon="6.29343">
        <ele>1909.1</ele>
        <time>2022-01-06T10:03:34Z</time>
      </trkpt>
      <trkpt lat="45.83396" lon="6.29343">
        <ele>1909.1</ele>
        <time>2022-01-06T10:03:35Z</time>
      </trkpt>
      <trkpt lat="45.83396" lon="6.29343">
        <ele>1909.1</ele>
        <time>2022-01-06T10:03:36Z</time>
      </trkpt>
      <trkpt lat="45.83396" lon="6.29343">
        <ele>1909.1</ele>
        <time>2022-01-06T10:03:37Z</time>
      </trkpt>
      <trkpt lat="45.83396" lon="6.29343">
        <ele>1908.1</ele>
        <time>2022-01-06T10:03:38Z</time>
      </trkpt>
      <trkpt lat="45.83395" lon="6.29343">
        <ele>1908.1</ele>
        <time>2022-01-06T10:03:39Z</time>
      </trkpt>
      <trkpt lat="45.83394" lon="6.29344">
        <ele>1908.1</ele>
        <time>2022-01-06T10:03:40Z</time>
      </trkpt>
      <trkpt lat="45.83394" lon="6.29343">
        <ele>1908.1</ele>
        <time>2022-01-06T10:03:41Z</time>
      </trkpt>
      <trkpt lat="45.83394" lon="6.29344">
        <ele>1908.1</ele>
        <time>2022-01-06T10:03:42Z</time>
      </trkpt>
      <trkpt lat="45.83394" lon="6.29344">
        <ele>1908.1</ele>
        <time>2022-01-06T10:03:43Z</time>
      </trkpt>
      <trkpt lat="45.83394" lon="6.29344">
        <ele>1908.1</ele>
        <time>2022-01-06T10:03:44Z</time>
      </trkpt>
      <trkpt lat="45.83394" lon="6.29344">
        <ele>1908.1</ele>
        <time>2022-01-06T10:03:45Z</time>
      </trkpt>
      <trkpt lat="45.83394" lon="6.29344">
        <ele>1908.1</ele>
        <time>2022-01-06T10:03:46Z</time>
      </trkpt>
      <trkpt lat="45.83394" lon="6.29344">
        <ele>1908.1</ele>
        <time>2022-01-06T10:03:47Z</time>
      </trkpt>
      <trkpt lat="45.83394" lon="6.29344">
        <ele>1908.1</ele>
        <time>2022-01-06T10:03:48Z</time>
      </trkpt>
      <trkpt lat="45.83394" lon="6.29344">
        <ele>1908.1</ele>
        <time>2022-01-06T10:03:49Z</time>
      </trkpt>
      <trkpt lat="45.83394" lon="6.29344">
        <ele>1908.1</ele>
        <time>2022-01-06T10:03:50Z</time>
      </trkpt>
      <trkpt lat="45.83394" lon="6.29344">
        <ele>1908.1</ele>
        <time>2022-01-06T10:03:51Z</time>
      </trkpt>
      <trkpt lat="45.83394" lon="6.29344">
        <ele>1908.1</ele>
        <time>2022-01-06T10:03:52Z</time>
      </trkpt>
      <trkpt lat="45.83394" lon="6.29344">
        <ele>1908.1</ele>
        <time>2022-01-06T10:03:53Z</time>
      </trkpt>
      <trkpt lat="45.83394" lon="6.29343">
        <ele>1908.1</ele>
        <time>2022-01-06T10:03:54Z</time>
      </trkpt>
      <trkpt lat="45.83394" lon="6.29343">
        <ele>1908.1</ele>
        <time>2022-01-06T10:03:55Z</time>
      </trkpt>
      <trkpt lat="45.83394" lon="6.29343">
        <ele>1908.1</ele>
        <time>2022-01-06T10:03:56Z</time>
      </trkpt>
      <trkpt lat="45.83394" lon="6.29343">
        <ele>1908.1</ele>
        <time>2022-01-06T10:03:57Z</time>
      </trkpt>
      <trkpt lat="45.83394" lon="6.29343">
        <ele>1908.1</ele>
        <time>2022-01-06T10:03:58Z</time>
      </trkpt>
      <trkpt lat="45.83394" lon="6.29343">
        <ele>1908.1</ele>
        <time>2022-01-06T10:03:59Z</time>
      </trkpt>
      <trkpt lat="45.83394" lon="6.29343">
        <ele>1908.1</ele>
        <time>2022-01-06T10:04:00Z</time>
      </trkpt>
      <trkpt lat="45.83394" lon="6.29343">
        <ele>1908.1</ele>
        <time>2022-01-06T10:04:01Z</time>
      </trkpt>
      <trkpt lat="45.83394" lon="6.29343">
        <ele>1908.1</ele>
        <time>2022-01-06T10:04:02Z</time>
      </trkpt>
      <trkpt lat="45.83394" lon="6.29343">
        <ele>1908.1</ele>
        <time>2022-01-06T10:04:03Z</time>
      </trkpt>
      <trkpt lat="45.83394" lon="6.29343">
        <ele>1908.1</ele>
        <time>2022-01-06T10:04:04Z</time>
      </trkpt>
      <trkpt lat="45.83394" lon="6.29343">
        <ele>1908.1</ele>
        <time>2022-01-06T10:04:05Z</time>
      </trkpt>
      <trkpt lat="45.83394" lon="6.29343">
        <ele>1907.2</ele>
        <time>2022-01-06T10:04:06Z</time>
      </trkpt>
      <trkpt lat="45.83393" lon="6.29343">
        <ele>1907.2</ele>
        <time>2022-01-06T10:04:07Z</time>
      </trkpt>
      <trkpt lat="45.83393" lon="6.29343">
        <ele>1907.2</ele>
        <time>2022-01-06T10:04:08Z</time>
      </trkpt>
      <trkpt lat="45.83393" lon="6.29343">
        <ele>1907.2</ele>
        <time>2022-01-06T10:04:09Z</time>
      </trkpt>
      <trkpt lat="45.83395" lon="6.29349">
        <ele>1907.2</ele>
        <time>2022-01-06T10:04:10Z</time>
      </trkpt>
      <trkpt lat="45.83397" lon="6.29355">
        <ele>1907.2</ele>
        <time>2022-01-06T10:04:11Z</time>
      </trkpt>
      <trkpt lat="45.83398" lon="6.29362">
        <ele>1907.2</ele>
        <time>2022-01-06T10:04:12Z</time>
      </trkpt>
      <trkpt lat="45.834" lon="6.29367">
        <ele>1907.2</ele>
        <time>2022-01-06T10:04:13Z</time>
      </trkpt>
      <trkpt lat="45.83401" lon="6.29373">
        <ele>1902.1</ele>
        <time>2022-01-06T10:04:14Z</time>
      </trkpt>
      <trkpt lat="45.83402" lon="6.29378">
        <ele>1902.1</ele>
        <time>2022-01-06T10:04:15Z</time>
      </trkpt>
      <trkpt lat="45.83402" lon="6.29382">
        <ele>1901.1</ele>
        <time>2022-01-06T10:04:16Z</time>
      </trkpt>
      <trkpt lat="45.83402" lon="6.29385">
        <ele>1901.1</ele>
        <time>2022-01-06T10:04:17Z</time>
      </trkpt>
      <trkpt lat="45.83402" lon="6.29389">
        <ele>1900.1</ele>
        <time>2022-01-06T10:04:18Z</time>
      </trkpt>
      <trkpt lat="45.83403" lon="6.29393">
        <ele>1900.1</ele>
        <time>2022-01-06T10:04:19Z</time>
      </trkpt>
      <trkpt lat="45.83403" lon="6.29396">
        <ele>1899.1</ele>
        <time>2022-01-06T10:04:20Z</time>
      </trkpt>
      <trkpt lat="45.83403" lon="6.294">
        <ele>1899.1</ele>
        <time>2022-01-06T10:04:21Z</time>
      </trkpt>
      <trkpt lat="45.83404" lon="6.29405">
        <ele>1899.1</ele>
        <time>2022-01-06T10:04:22Z</time>
      </trkpt>
      <trkpt lat="45.83404" lon="6.29412">
        <ele>1899.1</ele>
        <time>2022-01-06T10:04:23Z</time>
      </trkpt>
      <trkpt lat="45.83405" lon="6.29418">
        <ele>1899.1</ele>
        <time>2022-01-06T10:04:24Z</time>
      </trkpt>
      <trkpt lat="45.83407" lon="6.29424">
        <ele>1899.1</ele>
        <time>2022-01-06T10:04:25Z</time>
      </trkpt>
      <trkpt lat="45.83409" lon="6.29429">
        <ele>1892.1</ele>
        <time>2022-01-06T10:04:26Z</time>
      </trkpt>
      <trkpt lat="45.83412" lon="6.29433">
        <ele>1892.1</ele>
        <time>2022-01-06T10:04:27Z</time>
      </trkpt>
      <trkpt lat="45.83415" lon="6.29436">
        <ele>1891.2</ele>
        <time>2022-01-06T10:04:28Z</time>
      </trkpt>
      <trkpt lat="45.83418" lon="6.29439">
        <ele>1891.2</ele>
        <time>2022-01-06T10:04:29Z</time>
      </trkpt>
      <trkpt lat="45.83421" lon="6.29442">
        <ele>1890.1</ele>
        <time>2022-01-06T10:04:30Z</time>
      </trkpt>
      <trkpt lat="45.83423" lon="6.29444">
        <ele>1890.1</ele>
        <time>2022-01-06T10:04:31Z</time>
      </trkpt>
      <trkpt lat="45.83424" lon="6.29446">
        <ele>1890.1</ele>
        <time>2022-01-06T10:04:32Z</time>
      </trkpt>
      <trkpt lat="45.83425" lon="6.29448">
        <ele>1890.1</ele>
        <time>2022-01-06T10:04:33Z</time>
      </trkpt>
      <trkpt lat="45.83426" lon="6.2945">
        <ele>1890.1</ele>
        <time>2022-01-06T10:04:34Z</time>
      </trkpt>
      <trkpt lat="45.83427" lon="6.29452">
        <ele>1890.1</ele>
        <time>2022-01-06T10:04:35Z</time>
      </trkpt>
      <trkpt lat="45.83428" lon="6.29452">
        <ele>1890.1</ele>
        <time>2022-01-06T10:04:36Z</time>
      </trkpt>
      <trkpt lat="45.83428" lon="6.29452">
        <ele>1890.1</ele>
        <time>2022-01-06T10:04:37Z</time>
      </trkpt>
      <trkpt lat="45.83427" lon="6.29452">
        <ele>1890.1</ele>
        <time>2022-01-06T10:04:38Z</time>
      </trkpt>
      <trkpt lat="45.83427" lon="6.29453">
        <ele>1890.1</ele>
        <time>2022-01-06T10:04:39Z</time>
      </trkpt>
      <trkpt lat="45.83427" lon="6.29453">
        <ele>1890.1</ele>
        <time>2022-01-06T10:04:40Z</time>
      </trkpt>
      <trkpt lat="45.83427" lon="6.29453">
        <ele>1890.1</ele>
        <time>2022-01-06T10:04:41Z</time>
      </trkpt>
      <trkpt lat="45.83427" lon="6.29452">
        <ele>1890.1</ele>
        <time>2022-01-06T10:04:42Z</time>
      </trkpt>
      <trkpt lat="45.83427" lon="6.29452">
        <ele>1890.1</ele>
        <time>2022-01-06T10:04:43Z</time>
      </trkpt>
      <trkpt lat="45.83427" lon="6.29452">
        <ele>1889</ele>
        <time>2022-01-06T10:04:44Z</time>
      </trkpt>
      <trkpt lat="45.83428" lon="6.29452">
        <ele>1889</ele>
        <time>2022-01-06T10:04:45Z</time>
      </trkpt>
      <trkpt lat="45.8343" lon="6.29452">
        <ele>1888.1</ele>
        <time>2022-01-06T10:04:46Z</time>
      </trkpt>
      <trkpt lat="45.83431" lon="6.2945">
        <ele>1888.1</ele>
        <time>2022-01-06T10:04:47Z</time>
      </trkpt>
      <trkpt lat="45.83433" lon="6.29447">
        <ele>1886.1</ele>
        <time>2022-01-06T10:04:48Z</time>
      </trkpt>
      <trkpt lat="45.83436" lon="6.29445">
        <ele>1886.1</ele>
        <time>2022-01-06T10:04:49Z</time>
      </trkpt>
      <trkpt lat="45.8344" lon="6.29443">
        <ele>1883.1</ele>
        <time>2022-01-06T10:04:50Z</time>
      </trkpt>
      <trkpt lat="45.83444" lon="6.2944">
        <ele>1883.1</ele>
        <time>2022-01-06T10:04:51Z</time>
      </trkpt>
      <trkpt lat="45.83448" lon="6.29438">
        <ele>1881.1</ele>
        <time>2022-01-06T10:04:52Z</time>
      </trkpt>
      <trkpt lat="45.83449" lon="6.29436">
        <ele>1881.1</ele>
        <time>2022-01-06T10:04:53Z</time>
      </trkpt>
      <trkpt lat="45.83452" lon="6.29432">
        <ele>1879.1</ele>
        <time>2022-01-06T10:04:54Z</time>
      </trkpt>
      <trkpt lat="45.83453" lon="6.29429">
        <ele>1879.1</ele>
        <time>2022-01-06T10:04:55Z</time>
      </trkpt>
      <trkpt lat="45.83455" lon="6.29424">
        <ele>1877.1</ele>
        <time>2022-01-06T10:04:56Z</time>
      </trkpt>
      <trkpt lat="45.83457" lon="6.2942">
        <ele>1877.1</ele>
        <time>2022-01-06T10:04:57Z</time>
      </trkpt>
      <trkpt lat="45.8346" lon="6.29417">
        <ele>1875.2</ele>
        <time>2022-01-06T10:04:58Z</time>
      </trkpt>
      <trkpt lat="45.83463" lon="6.29415">
        <ele>1875.2</ele>
        <time>2022-01-06T10:04:59Z</time>
      </trkpt>
      <trkpt lat="45.83468" lon="6.29414">
        <ele>1872.1</ele>
        <time>2022-01-06T10:05:00Z</time>
      </trkpt>
      <trkpt lat="45.83473" lon="6.29416">
        <ele>1872.1</ele>
        <time>2022-01-06T10:05:01Z</time>
      </trkpt>
      <trkpt lat="45.83476" lon="6.29418">
        <ele>1870.1</ele>
        <time>2022-01-06T10:05:02Z</time>
      </trkpt>
      <trkpt lat="45.8348" lon="6.29421">
        <ele>1870.1</ele>
        <time>2022-01-06T10:05:03Z</time>
      </trkpt>
      <trkpt lat="45.83485" lon="6.29425">
        <ele>1867.1</ele>
        <time>2022-01-06T10:05:04Z</time>
      </trkpt>
      <trkpt lat="45.83489" lon="6.29428">
        <ele>1867.1</ele>
        <time>2022-01-06T10:05:05Z</time>
      </trkpt>
      <trkpt lat="45.83493" lon="6.29432">
        <ele>1865.1</ele>
        <time>2022-01-06T10:05:06Z</time>
      </trkpt>
      <trkpt lat="45.83497" lon="6.29435">
        <ele>1865.1</ele>
        <time>2022-01-06T10:05:07Z</time>
      </trkpt>
      <trkpt lat="45.835" lon="6.29437">
        <ele>1863.1</ele>
        <time>2022-01-06T10:05:08Z</time>
      </trkpt>
      <trkpt lat="45.83504" lon="6.29439">
        <ele>1863.1</ele>
        <time>2022-01-06T10:05:09Z</time>
      </trkpt>
      <trkpt lat="45.83508" lon="6.29442">
        <ele>1861.1</ele>
        <time>2022-01-06T10:05:10Z</time>
      </trkpt>
      <trkpt lat="45.83511" lon="6.29445">
        <ele>1861.1</ele>
        <time>2022-01-06T10:05:11Z</time>
      </trkpt>
      <trkpt lat="45.83514" lon="6.29445">
        <ele>1861.1</ele>
        <time>2022-01-06T10:05:12Z</time>
      </trkpt>
      <trkpt lat="45.83517" lon="6.29446">
        <ele>1861.1</ele>
        <time>2022-01-06T10:05:13Z</time>
      </trkpt>
      <trkpt lat="45.83521" lon="6.29447">
        <ele>1854.1</ele>
        <time>2022-01-06T10:05:14Z</time>
      </trkpt>
      <trkpt lat="45.83525" lon="6.29448">
        <ele>1854.1</ele>
        <time>2022-01-06T10:05:15Z</time>
      </trkpt>
      <trkpt lat="45.83528" lon="6.2945">
        <ele>1850.2</ele>
        <time>2022-01-06T10:05:16Z</time>
      </trkpt>
      <trkpt lat="45.83531" lon="6.29452">
        <ele>1850.2</ele>
        <time>2022-01-06T10:05:17Z</time>
      </trkpt>
      <trkpt lat="45.83534" lon="6.29454">
        <ele>1846</ele>
        <time>2022-01-06T10:05:18Z</time>
      </trkpt>
      <trkpt lat="45.83536" lon="6.29457">
        <ele>1846</ele>
        <time>2022-01-06T10:05:19Z</time>
      </trkpt>
      <trkpt lat="45.83539" lon="6.29459">
        <ele>1842.1</ele>
        <time>2022-01-06T10:05:20Z</time>
      </trkpt>
      <trkpt lat="45.83542" lon="6.29463">
        <ele>1842.1</ele>
        <time>2022-01-06T10:05:21Z</time>
      </trkpt>
      <trkpt lat="45.83545" lon="6.29466">
        <ele>1838.1</ele>
        <time>2022-01-06T10:05:22Z</time>
      </trkpt>
      <trkpt lat="45.83548" lon="6.29468">
        <ele>1838.1</ele>
        <time>2022-01-06T10:05:23Z</time>
      </trkpt>
      <trkpt lat="45.83551" lon="6.29471">
        <ele>1838.1</ele>
        <time>2022-01-06T10:05:24Z</time>
      </trkpt>
      <trkpt lat="45.83554" lon="6.29473">
        <ele>1838.1</ele>
        <time>2022-01-06T10:05:25Z</time>
      </trkpt>
      <trkpt lat="45.83557" lon="6.29475">
        <ele>1831.1</ele>
        <time>2022-01-06T10:05:26Z</time>
      </trkpt>
      <trkpt lat="45.8356" lon="6.29476">
        <ele>1831.1</ele>
        <time>2022-01-06T10:05:27Z</time>
      </trkpt>
      <trkpt lat="45.83563" lon="6.29478">
        <ele>1827.1</ele>
        <time>2022-01-06T10:05:28Z</time>
      </trkpt>
      <trkpt lat="45.83566" lon="6.2948">
        <ele>1827.1</ele>
        <time>2022-01-06T10:05:29Z</time>
      </trkpt>
      <trkpt lat="45.83569" lon="6.29481">
        <ele>1824.1</ele>
        <time>2022-01-06T10:05:30Z</time>
      </trkpt>
      <trkpt lat="45.83572" lon="6.29483">
        <ele>1824.1</ele>
        <time>2022-01-06T10:05:31Z</time>
      </trkpt>
      <trkpt lat="45.83575" lon="6.29485">
        <ele>1820.1</ele>
        <time>2022-01-06T10:05:32Z</time>
      </trkpt>
      <trkpt lat="45.83578" lon="6.29487">
        <ele>1820.1</ele>
        <time>2022-01-06T10:05:33Z</time>
      </trkpt>
      <trkpt lat="45.83582" lon="6.29487">
        <ele>1816</ele>
        <time>2022-01-06T10:05:34Z</time>
      </trkpt>
      <trkpt lat="45.83586" lon="6.29488">
        <ele>1816</ele>
        <time>2022-01-06T10:05:35Z</time>
      </trkpt>
      <trkpt lat="45.83589" lon="6.2949">
        <ele>1813.1</ele>
        <time>2022-01-06T10:05:36Z</time>
      </trkpt>
      <trkpt lat="45.83592" lon="6.29492">
        <ele>1813.1</ele>
        <time>2022-01-06T10:05:37Z</time>
      </trkpt>
      <trkpt lat="45.83596" lon="6.29493">
        <ele>1809.2</ele>
        <time>2022-01-06T10:05:38Z</time>
      </trkpt>
      <trkpt lat="45.83599" lon="6.29496">
        <ele>1809.2</ele>
        <time>2022-01-06T10:05:39Z</time>
      </trkpt>
      <trkpt lat="45.83602" lon="6.29497">
        <ele>1805</ele>
        <time>2022-01-06T10:05:40Z</time>
      </trkpt>
      <trkpt lat="45.83604" lon="6.29497">
        <ele>1805</ele>
        <time>2022-01-06T10:05:41Z</time>
      </trkpt>
      <trkpt lat="45.83607" lon="6.29497">
        <ele>1803.1</ele>
        <time>2022-01-06T10:05:42Z</time>
      </trkpt>
      <trkpt lat="45.83609" lon="6.29497">
        <ele>1803.1</ele>
        <time>2022-01-06T10:05:43Z</time>
      </trkpt>
      <trkpt lat="45.83611" lon="6.29496">
        <ele>1801.1</ele>
        <time>2022-01-06T10:05:44Z</time>
      </trkpt>
      <trkpt lat="45.83613" lon="6.29496">
        <ele>1801.1</ele>
        <time>2022-01-06T10:05:45Z</time>
      </trkpt>
      <trkpt lat="45.83615" lon="6.29495">
        <ele>1800</ele>
        <time>2022-01-06T10:05:46Z</time>
      </trkpt>
      <trkpt lat="45.83616" lon="6.29495">
        <ele>1800</ele>
        <time>2022-01-06T10:05:47Z</time>
      </trkpt>
      <trkpt lat="45.83617" lon="6.29495">
        <ele>1800</ele>
        <time>2022-01-06T10:05:48Z</time>
      </trkpt>
      <trkpt lat="45.83617" lon="6.29495">
        <ele>1800</ele>
        <time>2022-01-06T10:05:49Z</time>
      </trkpt>
      <trkpt lat="45.83617" lon="6.29495">
        <ele>1800</ele>
        <time>2022-01-06T10:05:50Z</time>
      </trkpt>
      <trkpt lat="45.83618" lon="6.29496">
        <ele>1800</ele>
        <time>2022-01-06T10:05:51Z</time>
      </trkpt>
      <trkpt lat="45.8362" lon="6.29497">
        <ele>1797.1</ele>
        <time>2022-01-06T10:05:52Z</time>
      </trkpt>
      <trkpt lat="45.83621" lon="6.29499">
        <ele>1797.1</ele>
        <time>2022-01-06T10:05:53Z</time>
      </trkpt>
      <trkpt lat="45.83622" lon="6.29502">
        <ele>1794.1</ele>
        <time>2022-01-06T10:05:54Z</time>
      </trkpt>
      <trkpt lat="45.83624" lon="6.29505">
        <ele>1794.1</ele>
        <time>2022-01-06T10:05:55Z</time>
      </trkpt>
      <trkpt lat="45.83625" lon="6.29509">
        <ele>1791</ele>
        <time>2022-01-06T10:05:56Z</time>
      </trkpt>
      <trkpt lat="45.83628" lon="6.29512">
        <ele>1791</ele>
        <time>2022-01-06T10:05:57Z</time>
      </trkpt>
      <trkpt lat="45.8363" lon="6.29516">
        <ele>1787.1</ele>
        <time>2022-01-06T10:05:58Z</time>
      </trkpt>
      <trkpt lat="45.83631" lon="6.2952">
        <ele>1787.1</ele>
        <time>2022-01-06T10:05:59Z</time>
      </trkpt>
      <trkpt lat="45.83633" lon="6.29523">
        <ele>1784</ele>
        <time>2022-01-06T10:06:00Z</time>
      </trkpt>
      <trkpt lat="45.83636" lon="6.29524">
        <ele>1784</ele>
        <time>2022-01-06T10:06:01Z</time>
      </trkpt>
      <trkpt lat="45.83639" lon="6.29526">
        <ele>1781.1</ele>
        <time>2022-01-06T10:06:02Z</time>
      </trkpt>
      <trkpt lat="45.83642" lon="6.29529">
        <ele>1781.1</ele>
        <time>2022-01-06T10:06:03Z</time>
      </trkpt>
      <trkpt lat="45.83645" lon="6.29529">
        <ele>1777.2</ele>
        <time>2022-01-06T10:06:04Z</time>
      </trkpt>
      <trkpt lat="45.83649" lon="6.29529">
        <ele>1777.2</ele>
        <time>2022-01-06T10:06:05Z</time>
      </trkpt>
      <trkpt lat="45.83651" lon="6.29527">
        <ele>1774.1</ele>
        <time>2022-01-06T10:06:06Z</time>
      </trkpt>
      <trkpt lat="45.83655" lon="6.29527">
        <ele>1774.1</ele>
        <time>2022-01-06T10:06:07Z</time>
      </trkpt>
      <trkpt lat="45.83658" lon="6.29527">
        <ele>1771.1</ele>
        <time>2022-01-06T10:06:08Z</time>
      </trkpt>
      <trkpt lat="45.83661" lon="6.29529">
        <ele>1771.1</ele>
        <time>2022-01-06T10:06:09Z</time>
      </trkpt>
      <trkpt lat="45.83664" lon="6.2953">
        <ele>1771.1</ele>
        <time>2022-01-06T10:06:10Z</time>
      </trkpt>
      <trkpt lat="45.83667" lon="6.29533">
        <ele>1771.1</ele>
        <time>2022-01-06T10:06:11Z</time>
      </trkpt>
      <trkpt lat="45.8367" lon="6.29537">
        <ele>1764.1</ele>
        <time>2022-01-06T10:06:12Z</time>
      </trkpt>
      <trkpt lat="45.83673" lon="6.2954">
        <ele>1764.1</ele>
        <time>2022-01-06T10:06:13Z</time>
      </trkpt>
      <trkpt lat="45.83676" lon="6.29544">
        <ele>1760.1</ele>
        <time>2022-01-06T10:06:14Z</time>
      </trkpt>
      <trkpt lat="45.8368" lon="6.29548">
        <ele>1760.1</ele>
        <time>2022-01-06T10:06:15Z</time>
      </trkpt>
      <trkpt lat="45.83683" lon="6.29551">
        <ele>1755.1</ele>
        <time>2022-01-06T10:06:16Z</time>
      </trkpt>
      <trkpt lat="45.83686" lon="6.29555">
        <ele>1755.1</ele>
        <time>2022-01-06T10:06:17Z</time>
      </trkpt>
      <trkpt lat="45.8369" lon="6.29559">
        <ele>1752.2</ele>
        <time>2022-01-06T10:06:18Z</time>
      </trkpt>
      <trkpt lat="45.83695" lon="6.29563">
        <ele>1752.2</ele>
        <time>2022-01-06T10:06:19Z</time>
      </trkpt>
      <trkpt lat="45.83698" lon="6.29565">
        <ele>1749.1</ele>
        <time>2022-01-06T10:06:20Z</time>
      </trkpt>
      <trkpt lat="45.83701" lon="6.29568">
        <ele>1749.1</ele>
        <time>2022-01-06T10:06:21Z</time>
      </trkpt>
      <trkpt lat="45.83704" lon="6.2957">
        <ele>1749.1</ele>
        <time>2022-01-06T10:06:22Z</time>
      </trkpt>
      <trkpt lat="45.83706" lon="6.29571">
        <ele>1749.1</ele>
        <time>2022-01-06T10:06:23Z</time>
      </trkpt>
      <trkpt lat="45.83707" lon="6.29572">
        <ele>1749.1</ele>
        <time>2022-01-06T10:06:24Z</time>
      </trkpt>
      <trkpt lat="45.83708" lon="6.29572">
        <ele>1749.1</ele>
        <time>2022-01-06T10:06:25Z</time>
      </trkpt>
      <trkpt lat="45.83708" lon="6.29572">
        <ele>1746.1</ele>
        <time>2022-01-06T10:06:26Z</time>
      </trkpt>
      <trkpt lat="45.83708" lon="6.29572">
        <ele>1746.1</ele>
        <time>2022-01-06T10:06:27Z</time>
      </trkpt>
      <trkpt lat="45.83708" lon="6.29572">
        <ele>1746.1</ele>
        <time>2022-01-06T10:06:28Z</time>
      </trkpt>
      <trkpt lat="45.83708" lon="6.29572">
        <ele>1746.1</ele>
        <time>2022-01-06T10:06:29Z</time>
      </trkpt>
      <trkpt lat="45.83708" lon="6.29571">
        <ele>1746.1</ele>
        <time>2022-01-06T10:06:30Z</time>
      </trkpt>
      <trkpt lat="45.83708" lon="6.29571">
        <ele>1746.1</ele>
        <time>2022-01-06T10:06:31Z</time>
      </trkpt>
      <trkpt lat="45.83707" lon="6.2957">
        <ele>1745.2</ele>
        <time>2022-01-06T10:06:32Z</time>
      </trkpt>
      <trkpt lat="45.83707" lon="6.2957">
        <ele>1745.2</ele>
        <time>2022-01-06T10:06:33Z</time>
      </trkpt>
      <trkpt lat="45.83706" lon="6.2957">
        <ele>1745.2</ele>
        <time>2022-01-06T10:06:34Z</time>
      </trkpt>
      <trkpt lat="45.83706" lon="6.2957">
        <ele>1745.2</ele>
        <time>2022-01-06T10:06:35Z</time>
      </trkpt>
      <trkpt lat="45.83706" lon="6.29571">
        <ele>1745.2</ele>
        <time>2022-01-06T10:06:36Z</time>
      </trkpt>
      <trkpt lat="45.83706" lon="6.29571">
        <ele>1745.2</ele>
        <time>2022-01-06T10:06:37Z</time>
      </trkpt>
      <trkpt lat="45.83706" lon="6.29571">
        <ele>1745.2</ele>
        <time>2022-01-06T10:06:38Z</time>
      </trkpt>
      <trkpt lat="45.83706" lon="6.29571">
        <ele>1745.2</ele>
        <time>2022-01-06T10:06:39Z</time>
      </trkpt>
      <trkpt lat="45.83706" lon="6.29572">
        <ele>1745.2</ele>
        <time>2022-01-06T10:06:40Z</time>
      </trkpt>
      <trkpt lat="45.83706" lon="6.29572">
        <ele>1745.2</ele>
        <time>2022-01-06T10:06:41Z</time>
      </trkpt>
      <trkpt lat="45.83706" lon="6.29572">
        <ele>1745.2</ele>
        <time>2022-01-06T10:06:42Z</time>
      </trkpt>
      <trkpt lat="45.83706" lon="6.29572">
        <ele>1745.2</ele>
        <time>2022-01-06T10:06:43Z</time>
      </trkpt>
      <trkpt lat="45.83706" lon="6.29572">
        <ele>1745.2</ele>
        <time>2022-01-06T10:06:44Z</time>
      </trkpt>
      <trkpt lat="45.83705" lon="6.29572">
        <ele>1745.2</ele>
        <time>2022-01-06T10:06:45Z</time>
      </trkpt>
      <trkpt lat="45.83705" lon="6.29572">
        <ele>1745.2</ele>
        <time>2022-01-06T10:06:46Z</time>
      </trkpt>
      <trkpt lat="45.83704" lon="6.29572">
        <ele>1745.2</ele>
        <time>2022-01-06T10:06:47Z</time>
      </trkpt>
      <trkpt lat="45.83704" lon="6.29571">
        <ele>1744.1</ele>
        <time>2022-01-06T10:06:48Z</time>
      </trkpt>
      <trkpt lat="45.83704" lon="6.29571">
        <ele>1744.1</ele>
        <time>2022-01-06T10:06:49Z</time>
      </trkpt>
      <trkpt lat="45.83704" lon="6.29571">
        <ele>1744.1</ele>
        <time>2022-01-06T10:06:50Z</time>
      </trkpt>
      <trkpt lat="45.83705" lon="6.29571">
        <ele>1744.1</ele>
        <time>2022-01-06T10:06:51Z</time>
      </trkpt>
      <trkpt lat="45.83705" lon="6.29572">
        <ele>1744.1</ele>
        <time>2022-01-06T10:06:52Z</time>
      </trkpt>
      <trkpt lat="45.83705" lon="6.29571">
        <ele>1744.1</ele>
        <time>2022-01-06T10:06:53Z</time>
      </trkpt>
      <trkpt lat="45.83705" lon="6.29572">
        <ele>1744.1</ele>
        <time>2022-01-06T10:06:54Z</time>
      </trkpt>
      <trkpt lat="45.83705" lon="6.29572">
        <ele>1744.1</ele>
        <time>2022-01-06T10:06:55Z</time>
      </trkpt>
      <trkpt lat="45.83705" lon="6.29572">
        <ele>1744.1</ele>
        <time>2022-01-06T10:06:56Z</time>
      </trkpt>
      <trkpt lat="45.83705" lon="6.29572">
        <ele>1744.1</ele>
        <time>2022-01-06T10:06:57Z</time>
      </trkpt>
      <trkpt lat="45.83705" lon="6.29572">
        <ele>1744.1</ele>
        <time>2022-01-06T10:06:58Z</time>
      </trkpt>
      <trkpt lat="45.83705" lon="6.29572">
        <ele>1744.1</ele>
        <time>2022-01-06T10:06:59Z</time>
      </trkpt>
      <trkpt lat="45.83705" lon="6.29572">
        <ele>1744.1</ele>
        <time>2022-01-06T10:07:00Z</time>
      </trkpt>
      <trkpt lat="45.83705" lon="6.29572">
        <ele>1744.1</ele>
        <time>2022-01-06T10:07:01Z</time>
      </trkpt>
      <trkpt lat="45.83705" lon="6.29572">
        <ele>1744.1</ele>
        <time>2022-01-06T10:07:02Z</time>
      </trkpt>
      <trkpt lat="45.83705" lon="6.29572">
        <ele>1744.1</ele>
        <time>2022-01-06T10:07:03Z</time>
      </trkpt>
      <trkpt lat="45.83705" lon="6.29572">
        <ele>1743</ele>
        <time>2022-01-06T10:07:04Z</time>
      </trkpt>
      <trkpt lat="45.83706" lon="6.29572">
        <ele>1743</ele>
        <time>2022-01-06T10:07:05Z</time>
      </trkpt>
      <trkpt lat="45.83709" lon="6.29572">
        <ele>1742.1</ele>
        <time>2022-01-06T10:07:06Z</time>
      </trkpt>
      <trkpt lat="45.83711" lon="6.29574">
        <ele>1742.1</ele>
        <time>2022-01-06T10:07:07Z</time>
      </trkpt>
      <trkpt lat="45.83714" lon="6.29576">
        <ele>1742.1</ele>
        <time>2022-01-06T10:07:08Z</time>
      </trkpt>
      <trkpt lat="45.83716" lon="6.29577">
        <ele>1742.1</ele>
        <time>2022-01-06T10:07:09Z</time>
      </trkpt>
      <trkpt lat="45.83719" lon="6.29579">
        <ele>1742.1</ele>
        <time>2022-01-06T10:07:10Z</time>
      </trkpt>
      <trkpt lat="45.83722" lon="6.29581">
        <ele>1742.1</ele>
        <time>2022-01-06T10:07:11Z</time>
      </trkpt>
      <trkpt lat="45.83724" lon="6.29583">
        <ele>1734</ele>
        <time>2022-01-06T10:07:12Z</time>
      </trkpt>
      <trkpt lat="45.83727" lon="6.29586">
        <ele>1734</ele>
        <time>2022-01-06T10:07:13Z</time>
      </trkpt>
      <trkpt lat="45.8373" lon="6.29588">
        <ele>1731.1</ele>
        <time>2022-01-06T10:07:14Z</time>
      </trkpt>
      <trkpt lat="45.83733" lon="6.29589">
        <ele>1731.1</ele>
        <time>2022-01-06T10:07:15Z</time>
      </trkpt>
      <trkpt lat="45.83736" lon="6.29589">
        <ele>1727</ele>
        <time>2022-01-06T10:07:16Z</time>
      </trkpt>
      <trkpt lat="45.83738" lon="6.29589">
        <ele>1727</ele>
        <time>2022-01-06T10:07:17Z</time>
      </trkpt>
      <trkpt lat="45.83741" lon="6.29591">
        <ele>1724.1</ele>
        <time>2022-01-06T10:07:18Z</time>
      </trkpt>
      <trkpt lat="45.83742" lon="6.29594">
        <ele>1724.1</ele>
        <time>2022-01-06T10:07:19Z</time>
      </trkpt>
      <trkpt lat="45.83743" lon="6.29597">
        <ele>1721.1</ele>
        <time>2022-01-06T10:07:20Z</time>
      </trkpt>
      <trkpt lat="45.83746" lon="6.29598">
        <ele>1721.1</ele>
        <time>2022-01-06T10:07:21Z</time>
      </trkpt>
      <trkpt lat="45.83748" lon="6.29601">
        <ele>1718</ele>
        <time>2022-01-06T10:07:22Z</time>
      </trkpt>
      <trkpt lat="45.83751" lon="6.29602">
        <ele>1718</ele>
        <time>2022-01-06T10:07:23Z</time>
      </trkpt>
      <trkpt lat="45.83754" lon="6.29604">
        <ele>1718</ele>
        <time>2022-01-06T10:07:24Z</time>
      </trkpt>
      <trkpt lat="45.83757" lon="6.29606">
        <ele>1718</ele>
        <time>2022-01-06T10:07:25Z</time>
      </trkpt>
      <trkpt lat="45.8376" lon="6.29609">
        <ele>1711</ele>
        <time>2022-01-06T10:07:26Z</time>
      </trkpt>
      <trkpt lat="45.83763" lon="6.29609">
        <ele>1711</ele>
        <time>2022-01-06T10:07:27Z</time>
      </trkpt>
      <trkpt lat="45.83767" lon="6.2961">
        <ele>1707.1</ele>
        <time>2022-01-06T10:07:28Z</time>
      </trkpt>
      <trkpt lat="45.8377" lon="6.29613">
        <ele>1707.1</ele>
        <time>2022-01-06T10:07:29Z</time>
      </trkpt>
      <trkpt lat="45.83774" lon="6.29615">
        <ele>1703.1</ele>
        <time>2022-01-06T10:07:30Z</time>
      </trkpt>
      <trkpt lat="45.83778" lon="6.29616">
        <ele>1703.1</ele>
        <time>2022-01-06T10:07:31Z</time>
      </trkpt>
      <trkpt lat="45.83782" lon="6.29616">
        <ele>1699.1</ele>
        <time>2022-01-06T10:07:32Z</time>
      </trkpt>
      <trkpt lat="45.83786" lon="6.29619">
        <ele>1699.1</ele>
        <time>2022-01-06T10:07:33Z</time>
      </trkpt>
      <trkpt lat="45.83789" lon="6.29621">
        <ele>1696.1</ele>
        <time>2022-01-06T10:07:34Z</time>
      </trkpt>
      <trkpt lat="45.83793" lon="6.29623">
        <ele>1696.1</ele>
        <time>2022-01-06T10:07:35Z</time>
      </trkpt>
      <trkpt lat="45.83796" lon="6.29624">
        <ele>1693</ele>
        <time>2022-01-06T10:07:36Z</time>
      </trkpt>
      <trkpt lat="45.838" lon="6.29627">
        <ele>1693</ele>
        <time>2022-01-06T10:07:37Z</time>
      </trkpt>
      <trkpt lat="45.83803" lon="6.2963">
        <ele>1690.1</ele>
        <time>2022-01-06T10:07:38Z</time>
      </trkpt>
      <trkpt lat="45.83805" lon="6.29633">
        <ele>1690.1</ele>
        <time>2022-01-06T10:07:39Z</time>
      </trkpt>
      <trkpt lat="45.83808" lon="6.29636">
        <ele>1688.2</ele>
        <time>2022-01-06T10:07:40Z</time>
      </trkpt>
      <trkpt lat="45.8381" lon="6.29638">
        <ele>1688.2</ele>
        <time>2022-01-06T10:07:41Z</time>
      </trkpt>
      <trkpt lat="45.83813" lon="6.29641">
        <ele>1686</ele>
        <time>2022-01-06T10:07:42Z</time>
      </trkpt>
      <trkpt lat="45.83816" lon="6.29644">
        <ele>1686</ele>
        <time>2022-01-06T10:07:43Z</time>
      </trkpt>
      <trkpt lat="45.83819" lon="6.29647">
        <ele>1684</ele>
        <time>2022-01-06T10:07:44Z</time>
      </trkpt>
      <trkpt lat="45.83822" lon="6.2965">
        <ele>1684</ele>
        <time>2022-01-06T10:07:45Z</time>
      </trkpt>
      <trkpt lat="45.83824" lon="6.29654">
        <ele>1682.1</ele>
        <time>2022-01-06T10:07:46Z</time>
      </trkpt>
      <trkpt lat="45.83827" lon="6.29658">
        <ele>1682.1</ele>
        <time>2022-01-06T10:07:47Z</time>
      </trkpt>
      <trkpt lat="45.83829" lon="6.29663">
        <ele>1681.1</ele>
        <time>2022-01-06T10:07:48Z</time>
      </trkpt>
      <trkpt lat="45.83832" lon="6.29667">
        <ele>1681.1</ele>
        <time>2022-01-06T10:07:49Z</time>
      </trkpt>
      <trkpt lat="45.83835" lon="6.2967">
        <ele>1678.1</ele>
        <time>2022-01-06T10:07:50Z</time>
      </trkpt>
      <trkpt lat="45.83839" lon="6.29674">
        <ele>1678.1</ele>
        <time>2022-01-06T10:07:51Z</time>
      </trkpt>
      <trkpt lat="45.83842" lon="6.29678">
        <ele>1676.1</ele>
        <time>2022-01-06T10:07:52Z</time>
      </trkpt>
      <trkpt lat="45.83845" lon="6.29681">
        <ele>1676.1</ele>
        <time>2022-01-06T10:07:53Z</time>
      </trkpt>
      <trkpt lat="45.83848" lon="6.29684">
        <ele>1675</ele>
        <time>2022-01-06T10:07:54Z</time>
      </trkpt>
      <trkpt lat="45.8385" lon="6.29686">
        <ele>1675</ele>
        <time>2022-01-06T10:07:55Z</time>
      </trkpt>
      <trkpt lat="45.83851" lon="6.29687">
        <ele>1675</ele>
        <time>2022-01-06T10:07:56Z</time>
      </trkpt>
      <trkpt lat="45.83852" lon="6.29687">
        <ele>1675</ele>
        <time>2022-01-06T10:07:57Z</time>
      </trkpt>
      <trkpt lat="45.83852" lon="6.29688">
        <ele>1675</ele>
        <time>2022-01-06T10:07:58Z</time>
      </trkpt>
      <trkpt lat="45.83852" lon="6.29689">
        <ele>1675</ele>
        <time>2022-01-06T10:07:59Z</time>
      </trkpt>
      <trkpt lat="45.83852" lon="6.29689">
        <ele>1675</ele>
        <time>2022-01-06T10:08:00Z</time>
      </trkpt>
      <trkpt lat="45.83852" lon="6.29689">
        <ele>1675</ele>
        <time>2022-01-06T10:08:01Z</time>
      </trkpt>
      <trkpt lat="45.83853" lon="6.29689">
        <ele>1675</ele>
        <time>2022-01-06T10:08:02Z</time>
      </trkpt>
      <trkpt lat="45.83853" lon="6.29689">
        <ele>1675</ele>
        <time>2022-01-06T10:08:03Z</time>
      </trkpt>
      <trkpt lat="45.83853" lon="6.29688">
        <ele>1675</ele>
        <time>2022-01-06T10:08:04Z</time>
      </trkpt>
      <trkpt lat="45.83853" lon="6.29689">
        <ele>1675</ele>
        <time>2022-01-06T10:08:05Z</time>
      </trkpt>
      <trkpt lat="45.83854" lon="6.29689">
        <ele>1674.1</ele>
        <time>2022-01-06T10:08:06Z</time>
      </trkpt>
      <trkpt lat="45.83854" lon="6.29689">
        <ele>1674.1</ele>
        <time>2022-01-06T10:08:07Z</time>
      </trkpt>
      <trkpt lat="45.83853" lon="6.29689">
        <ele>1674.1</ele>
        <time>2022-01-06T10:08:08Z</time>
      </trkpt>
      <trkpt lat="45.83853" lon="6.29689">
        <ele>1674.1</ele>
        <time>2022-01-06T10:08:09Z</time>
      </trkpt>
      <trkpt lat="45.83853" lon="6.29689">
        <ele>1674.1</ele>
        <time>2022-01-06T10:08:10Z</time>
      </trkpt>
      <trkpt lat="45.83854" lon="6.2969">
        <ele>1674.1</ele>
        <time>2022-01-06T10:08:11Z</time>
      </trkpt>
      <trkpt lat="45.83854" lon="6.2969">
        <ele>1674.1</ele>
        <time>2022-01-06T10:08:12Z</time>
      </trkpt>
      <trkpt lat="45.83855" lon="6.29691">
        <ele>1674.1</ele>
        <time>2022-01-06T10:08:13Z</time>
      </trkpt>
      <trkpt lat="45.83855" lon="6.29691">
        <ele>1674.1</ele>
        <time>2022-01-06T10:08:14Z</time>
      </trkpt>
      <trkpt lat="45.83856" lon="6.29692">
        <ele>1674.1</ele>
        <time>2022-01-06T10:08:15Z</time>
      </trkpt>
      <trkpt lat="45.83858" lon="6.29693">
        <ele>1673.1</ele>
        <time>2022-01-06T10:08:16Z</time>
      </trkpt>
      <trkpt lat="45.8386" lon="6.29694">
        <ele>1673.1</ele>
        <time>2022-01-06T10:08:17Z</time>
      </trkpt>
      <trkpt lat="45.83863" lon="6.29695">
        <ele>1673.1</ele>
        <time>2022-01-06T10:08:18Z</time>
      </trkpt>
      <trkpt lat="45.83866" lon="6.29695">
        <ele>1673.1</ele>
        <time>2022-01-06T10:08:19Z</time>
      </trkpt>
      <trkpt lat="45.83869" lon="6.29695">
        <ele>1672.2</ele>
        <time>2022-01-06T10:08:20Z</time>
      </trkpt>
      <trkpt lat="45.8387" lon="6.29695">
        <ele>1672.2</ele>
        <time>2022-01-06T10:08:21Z</time>
      </trkpt>
      <trkpt lat="45.83871" lon="6.29695">
        <ele>1672.2</ele>
        <time>2022-01-06T10:08:22Z</time>
      </trkpt>
      <trkpt lat="45.83872" lon="6.29694">
        <ele>1672.2</ele>
        <time>2022-01-06T10:08:23Z</time>
      </trkpt>
      <trkpt lat="45.83872" lon="6.29694">
        <ele>1672.2</ele>
        <time>2022-01-06T10:08:24Z</time>
      </trkpt>
      <trkpt lat="45.83873" lon="6.29694">
        <ele>1672.2</ele>
        <time>2022-01-06T10:08:25Z</time>
      </trkpt>
      <trkpt lat="45.83873" lon="6.29694">
        <ele>1672.2</ele>
        <time>2022-01-06T10:08:26Z</time>
      </trkpt>
      <trkpt lat="45.83874" lon="6.29694">
        <ele>1672.2</ele>
        <time>2022-01-06T10:08:27Z</time>
      </trkpt>
      <trkpt lat="45.83874" lon="6.29694">
        <ele>1672.2</ele>
        <time>2022-01-06T10:08:28Z</time>
      </trkpt>
      <trkpt lat="45.83875" lon="6.29694">
        <ele>1672.2</ele>
        <time>2022-01-06T10:08:29Z</time>
      </trkpt>
      <trkpt lat="45.83876" lon="6.29693">
        <ele>1672.2</ele>
        <time>2022-01-06T10:08:30Z</time>
      </trkpt>
      <trkpt lat="45.83878" lon="6.29693">
        <ele>1672.2</ele>
        <time>2022-01-06T10:08:31Z</time>
      </trkpt>
      <trkpt lat="45.83879" lon="6.29693">
        <ele>1671.1</ele>
        <time>2022-01-06T10:08:32Z</time>
      </trkpt>
      <trkpt lat="45.83881" lon="6.29694">
        <ele>1671.1</ele>
        <time>2022-01-06T10:08:33Z</time>
      </trkpt>
      <trkpt lat="45.83882" lon="6.29695">
        <ele>1671.1</ele>
        <time>2022-01-06T10:08:34Z</time>
      </trkpt>
      <trkpt lat="45.83884" lon="6.29695">
        <ele>1671.1</ele>
        <time>2022-01-06T10:08:35Z</time>
      </trkpt>
      <trkpt lat="45.83886" lon="6.29695">
        <ele>1670</ele>
        <time>2022-01-06T10:08:36Z</time>
      </trkpt>
      <trkpt lat="45.83888" lon="6.29696">
        <ele>1670</ele>
        <time>2022-01-06T10:08:37Z</time>
      </trkpt>
      <trkpt lat="45.83889" lon="6.29698">
        <ele>1670</ele>
        <time>2022-01-06T10:08:38Z</time>
      </trkpt>
      <trkpt lat="45.83891" lon="6.297">
        <ele>1670</ele>
        <time>2022-01-06T10:08:39Z</time>
      </trkpt>
      <trkpt lat="45.83893" lon="6.29704">
        <ele>1669.1</ele>
        <time>2022-01-06T10:08:40Z</time>
      </trkpt>
      <trkpt lat="45.83894" lon="6.29709">
        <ele>1669.1</ele>
        <time>2022-01-06T10:08:41Z</time>
      </trkpt>
      <trkpt lat="45.83894" lon="6.29712">
        <ele>1669.1</ele>
        <time>2022-01-06T10:08:42Z</time>
      </trkpt>
      <trkpt lat="45.83894" lon="6.29714">
        <ele>1669.1</ele>
        <time>2022-01-06T10:08:43Z</time>
      </trkpt>
      <trkpt lat="45.83894" lon="6.29715">
        <ele>1668</ele>
        <time>2022-01-06T10:08:44Z</time>
      </trkpt>
      <trkpt lat="45.83894" lon="6.29716">
        <ele>1668</ele>
        <time>2022-01-06T10:08:45Z</time>
      </trkpt>
      <trkpt lat="45.83894" lon="6.29716">
        <ele>1668</ele>
        <time>2022-01-06T10:08:46Z</time>
      </trkpt>
      <trkpt lat="45.83894" lon="6.29716">
        <ele>1668</ele>
        <time>2022-01-06T10:08:47Z</time>
      </trkpt>
      <trkpt lat="45.83894" lon="6.29716">
        <ele>1668</ele>
        <time>2022-01-06T10:08:48Z</time>
      </trkpt>
      <trkpt lat="45.83894" lon="6.29717">
        <ele>1668</ele>
        <time>2022-01-06T10:08:49Z</time>
      </trkpt>
      <trkpt lat="45.83894" lon="6.29717">
        <ele>1668</ele>
        <time>2022-01-06T10:08:50Z</time>
      </trkpt>
      <trkpt lat="45.83894" lon="6.29718">
        <ele>1668</ele>
        <time>2022-01-06T10:08:51Z</time>
      </trkpt>
      <trkpt lat="45.83894" lon="6.29718">
        <ele>1668</ele>
        <time>2022-01-06T10:08:52Z</time>
      </trkpt>
      <trkpt lat="45.83894" lon="6.29719">
        <ele>1668</ele>
        <time>2022-01-06T10:08:53Z</time>
      </trkpt>
      <trkpt lat="45.83894" lon="6.29719">
        <ele>1667.1</ele>
        <time>2022-01-06T10:08:54Z</time>
      </trkpt>
      <trkpt lat="45.83894" lon="6.29719">
        <ele>1667.1</ele>
        <time>2022-01-06T10:08:55Z</time>
      </trkpt>
      <trkpt lat="45.83894" lon="6.29719">
        <ele>1667.1</ele>
        <time>2022-01-06T10:08:56Z</time>
      </trkpt>
      <trkpt lat="45.83894" lon="6.29719">
        <ele>1667.1</ele>
        <time>2022-01-06T10:08:57Z</time>
      </trkpt>
      <trkpt lat="45.83894" lon="6.29719">
        <ele>1667.1</ele>
        <time>2022-01-06T10:08:58Z</time>
      </trkpt>
      <trkpt lat="45.83894" lon="6.29719">
        <ele>1667.1</ele>
        <time>2022-01-06T10:08:59Z</time>
      </trkpt>
      <trkpt lat="45.83895" lon="6.29719">
        <ele>1667.1</ele>
        <time>2022-01-06T10:09:00Z</time>
      </trkpt>
      <trkpt lat="45.83894" lon="6.29719">
        <ele>1667.1</ele>
        <time>2022-01-06T10:09:01Z</time>
      </trkpt>
      <trkpt lat="45.83894" lon="6.29719">
        <ele>1667.1</ele>
        <time>2022-01-06T10:09:02Z</time>
      </trkpt>
      <trkpt lat="45.83894" lon="6.29719">
        <ele>1667.1</ele>
        <time>2022-01-06T10:09:03Z</time>
      </trkpt>
      <trkpt lat="45.83894" lon="6.29719">
        <ele>1667.1</ele>
        <time>2022-01-06T10:09:04Z</time>
      </trkpt>
      <trkpt lat="45.83894" lon="6.29719">
        <ele>1667.1</ele>
        <time>2022-01-06T10:09:05Z</time>
      </trkpt>
      <trkpt lat="45.83894" lon="6.29719">
        <ele>1667.1</ele>
        <time>2022-01-06T10:09:06Z</time>
      </trkpt>
      <trkpt lat="45.83894" lon="6.29719">
        <ele>1667.1</ele>
        <time>2022-01-06T10:09:07Z</time>
      </trkpt>
      <trkpt lat="45.83894" lon="6.29719">
        <ele>1667.1</ele>
        <time>2022-01-06T10:09:08Z</time>
      </trkpt>
      <trkpt lat="45.83894" lon="6.29719">
        <ele>1667.1</ele>
        <time>2022-01-06T10:09:09Z</time>
      </trkpt>
      <trkpt lat="45.83894" lon="6.29719">
        <ele>1666.1</ele>
        <time>2022-01-06T10:09:10Z</time>
      </trkpt>
      <trkpt lat="45.83895" lon="6.29719">
        <ele>1666.1</ele>
        <time>2022-01-06T10:09:11Z</time>
      </trkpt>
      <trkpt lat="45.83898" lon="6.29718">
        <ele>1666.1</ele>
        <time>2022-01-06T10:09:12Z</time>
      </trkpt>
      <trkpt lat="45.83901" lon="6.29717">
        <ele>1666.1</ele>
        <time>2022-01-06T10:09:13Z</time>
      </trkpt>
      <trkpt lat="45.83904" lon="6.29718">
        <ele>1666.1</ele>
        <time>2022-01-06T10:09:14Z</time>
      </trkpt>
      <trkpt lat="45.83907" lon="6.2972">
        <ele>1666.1</ele>
        <time>2022-01-06T10:09:15Z</time>
      </trkpt>
      <trkpt lat="45.8391" lon="6.29722">
        <ele>1659</ele>
        <time>2022-01-06T10:09:16Z</time>
      </trkpt>
      <trkpt lat="45.83912" lon="6.29725">
        <ele>1659</ele>
        <time>2022-01-06T10:09:17Z</time>
      </trkpt>
      <trkpt lat="45.83913" lon="6.29731">
        <ele>1659</ele>
        <time>2022-01-06T10:09:18Z</time>
      </trkpt>
      <trkpt lat="45.83912" lon="6.29737">
        <ele>1659</ele>
        <time>2022-01-06T10:09:19Z</time>
      </trkpt>
      <trkpt lat="45.83911" lon="6.29744">
        <ele>1651.1</ele>
        <time>2022-01-06T10:09:20Z</time>
      </trkpt>
      <trkpt lat="45.83909" lon="6.2975">
        <ele>1651.1</ele>
        <time>2022-01-06T10:09:21Z</time>
      </trkpt>
      <trkpt lat="45.83907" lon="6.29757">
        <ele>1648.1</ele>
        <time>2022-01-06T10:09:22Z</time>
      </trkpt>
      <trkpt lat="45.83907" lon="6.29763">
        <ele>1648.1</ele>
        <time>2022-01-06T10:09:23Z</time>
      </trkpt>
      <trkpt lat="45.83905" lon="6.29769">
        <ele>1645</ele>
        <time>2022-01-06T10:09:24Z</time>
      </trkpt>
      <trkpt lat="45.83903" lon="6.29774">
        <ele>1645</ele>
        <time>2022-01-06T10:09:25Z</time>
      </trkpt>
      <trkpt lat="45.83899" lon="6.29778">
        <ele>1642.1</ele>
        <time>2022-01-06T10:09:26Z</time>
      </trkpt>
      <trkpt lat="45.83894" lon="6.29782">
        <ele>1642.1</ele>
        <time>2022-01-06T10:09:27Z</time>
      </trkpt>
      <trkpt lat="45.83889" lon="6.29787">
        <ele>1640.1</ele>
        <time>2022-01-06T10:09:28Z</time>
      </trkpt>
      <trkpt lat="45.83884" lon="6.29791">
        <ele>1640.1</ele>
        <time>2022-01-06T10:09:29Z</time>
      </trkpt>
      <trkpt lat="45.8388" lon="6.29794">
        <ele>1639.1</ele>
        <time>2022-01-06T10:09:30Z</time>
      </trkpt>
      <trkpt lat="45.83878" lon="6.29797">
        <ele>1639.1</ele>
        <time>2022-01-06T10:09:31Z</time>
      </trkpt>
      <trkpt lat="45.83876" lon="6.29799">
        <ele>1639.1</ele>
        <time>2022-01-06T10:09:32Z</time>
      </trkpt>
      <trkpt lat="45.83874" lon="6.298">
        <ele>1639.1</ele>
        <time>2022-01-06T10:09:33Z</time>
      </trkpt>
      <trkpt lat="45.83873" lon="6.29802">
        <ele>1638</ele>
        <time>2022-01-06T10:09:34Z</time>
      </trkpt>
      <trkpt lat="45.83872" lon="6.29803">
        <ele>1638</ele>
        <time>2022-01-06T10:09:35Z</time>
      </trkpt>
      <trkpt lat="45.83871" lon="6.29803">
        <ele>1638</ele>
        <time>2022-01-06T10:09:36Z</time>
      </trkpt>
      <trkpt lat="45.8387" lon="6.29804">
        <ele>1638</ele>
        <time>2022-01-06T10:09:37Z</time>
      </trkpt>
      <trkpt lat="45.8387" lon="6.29804">
        <ele>1638</ele>
        <time>2022-01-06T10:09:38Z</time>
      </trkpt>
      <trkpt lat="45.83869" lon="6.29804">
        <ele>1638</ele>
        <time>2022-01-06T10:09:39Z</time>
      </trkpt>
      <trkpt lat="45.83869" lon="6.29804">
        <ele>1638</ele>
        <time>2022-01-06T10:09:40Z</time>
      </trkpt>
      <trkpt lat="45.83869" lon="6.29805">
        <ele>1638</ele>
        <time>2022-01-06T10:09:41Z</time>
      </trkpt>
      <trkpt lat="45.83869" lon="6.29806">
        <ele>1638</ele>
        <time>2022-01-06T10:09:42Z</time>
      </trkpt>
      <trkpt lat="45.83868" lon="6.29806">
        <ele>1638</ele>
        <time>2022-01-06T10:09:43Z</time>
      </trkpt>
      <trkpt lat="45.83868" lon="6.29807">
        <ele>1638</ele>
        <time>2022-01-06T10:09:44Z</time>
      </trkpt>
      <trkpt lat="45.83867" lon="6.29807">
        <ele>1638</ele>
        <time>2022-01-06T10:09:45Z</time>
      </trkpt>
      <trkpt lat="45.83867" lon="6.29808">
        <ele>1638</ele>
        <time>2022-01-06T10:09:46Z</time>
      </trkpt>
      <trkpt lat="45.83866" lon="6.29809">
        <ele>1638</ele>
        <time>2022-01-06T10:09:47Z</time>
      </trkpt>
      <trkpt lat="45.83866" lon="6.2981">
        <ele>1638</ele>
        <time>2022-01-06T10:09:48Z</time>
      </trkpt>
      <trkpt lat="45.83865" lon="6.29811">
        <ele>1638</ele>
        <time>2022-01-06T10:09:49Z</time>
      </trkpt>
      <trkpt lat="45.83863" lon="6.29814">
        <ele>1637.1</ele>
        <time>2022-01-06T10:09:50Z</time>
      </trkpt>
      <trkpt lat="45.83861" lon="6.29819">
        <ele>1637.1</ele>
        <time>2022-01-06T10:09:51Z</time>
      </trkpt>
      <trkpt lat="45.8386" lon="6.29825">
        <ele>1635.1</ele>
        <time>2022-01-06T10:09:52Z</time>
      </trkpt>
      <trkpt lat="45.83857" lon="6.29832">
        <ele>1635.1</ele>
        <time>2022-01-06T10:09:53Z</time>
      </trkpt>
      <trkpt lat="45.83855" lon="6.2984">
        <ele>1632.1</ele>
        <time>2022-01-06T10:09:54Z</time>
      </trkpt>
      <trkpt lat="45.83852" lon="6.29847">
        <ele>1632.1</ele>
        <time>2022-01-06T10:09:55Z</time>
      </trkpt>
      <trkpt lat="45.83848" lon="6.29855">
        <ele>1629</ele>
        <time>2022-01-06T10:09:56Z</time>
      </trkpt>
      <trkpt lat="45.83844" lon="6.29862">
        <ele>1629</ele>
        <time>2022-01-06T10:09:57Z</time>
      </trkpt>
      <trkpt lat="45.8384" lon="6.29868">
        <ele>1628.1</ele>
        <time>2022-01-06T10:09:58Z</time>
      </trkpt>
      <trkpt lat="45.83838" lon="6.29874">
        <ele>1628.1</ele>
        <time>2022-01-06T10:09:59Z</time>
      </trkpt>
      <trkpt lat="45.83836" lon="6.29878">
        <ele>1627</ele>
        <time>2022-01-06T10:10:00Z</time>
      </trkpt>
      <trkpt lat="45.83835" lon="6.29881">
        <ele>1627</ele>
        <time>2022-01-06T10:10:01Z</time>
      </trkpt>
      <trkpt lat="45.83834" lon="6.29883">
        <ele>1627</ele>
        <time>2022-01-06T10:10:02Z</time>
      </trkpt>
      <trkpt lat="45.83833" lon="6.29885">
        <ele>1627</ele>
        <time>2022-01-06T10:10:03Z</time>
      </trkpt>
      <trkpt lat="45.83832" lon="6.29886">
        <ele>1626.1</ele>
        <time>2022-01-06T10:10:04Z</time>
      </trkpt>
      <trkpt lat="45.83831" lon="6.29887">
        <ele>1626.1</ele>
        <time>2022-01-06T10:10:05Z</time>
      </trkpt>
      <trkpt lat="45.8383" lon="6.29888">
        <ele>1626.1</ele>
        <time>2022-01-06T10:10:06Z</time>
      </trkpt>
      <trkpt lat="45.83829" lon="6.29888">
        <ele>1626.1</ele>
        <time>2022-01-06T10:10:07Z</time>
      </trkpt>
      <trkpt lat="45.83829" lon="6.29888">
        <ele>1626.1</ele>
        <time>2022-01-06T10:10:08Z</time>
      </trkpt>
      <trkpt lat="45.83829" lon="6.29889">
        <ele>1626.1</ele>
        <time>2022-01-06T10:10:09Z</time>
      </trkpt>
      <trkpt lat="45.83829" lon="6.29889">
        <ele>1626.1</ele>
        <time>2022-01-06T10:10:10Z</time>
      </trkpt>
      <trkpt lat="45.83829" lon="6.29889">
        <ele>1626.1</ele>
        <time>2022-01-06T10:10:11Z</time>
      </trkpt>
      <trkpt lat="45.83829" lon="6.29889">
        <ele>1625.1</ele>
        <time>2022-01-06T10:10:12Z</time>
      </trkpt>
      <trkpt lat="45.83829" lon="6.29889">
        <ele>1625.1</ele>
        <time>2022-01-06T10:10:13Z</time>
      </trkpt>
      <trkpt lat="45.83829" lon="6.29888">
        <ele>1625.1</ele>
        <time>2022-01-06T10:10:14Z</time>
      </trkpt>
      <trkpt lat="45.83829" lon="6.29888">
        <ele>1625.1</ele>
        <time>2022-01-06T10:10:15Z</time>
      </trkpt>
      <trkpt lat="45.83829" lon="6.29888">
        <ele>1625.1</ele>
        <time>2022-01-06T10:10:16Z</time>
      </trkpt>
      <trkpt lat="45.83829" lon="6.29888">
        <ele>1625.1</ele>
        <time>2022-01-06T10:10:17Z</time>
      </trkpt>
      <trkpt lat="45.83829" lon="6.29889">
        <ele>1625.1</ele>
        <time>2022-01-06T10:10:18Z</time>
      </trkpt>
      <trkpt lat="45.83829" lon="6.29888">
        <ele>1625.1</ele>
        <time>2022-01-06T10:10:19Z</time>
      </trkpt>
      <trkpt lat="45.83829" lon="6.29888">
        <ele>1625.1</ele>
        <time>2022-01-06T10:10:20Z</time>
      </trkpt>
      <trkpt lat="45.83828" lon="6.29888">
        <ele>1625.1</ele>
        <time>2022-01-06T10:10:21Z</time>
      </trkpt>
      <trkpt lat="45.83828" lon="6.29889">
        <ele>1625.1</ele>
        <time>2022-01-06T10:10:22Z</time>
      </trkpt>
      <trkpt lat="45.83827" lon="6.29889">
        <ele>1625.1</ele>
        <time>2022-01-06T10:10:23Z</time>
      </trkpt>
      <trkpt lat="45.83827" lon="6.29889">
        <ele>1625.1</ele>
        <time>2022-01-06T10:10:24Z</time>
      </trkpt>
      <trkpt lat="45.83826" lon="6.29889">
        <ele>1625.1</ele>
        <time>2022-01-06T10:10:25Z</time>
      </trkpt>
      <trkpt lat="45.83826" lon="6.29889">
        <ele>1625.1</ele>
        <time>2022-01-06T10:10:26Z</time>
      </trkpt>
      <trkpt lat="45.83825" lon="6.29889">
        <ele>1625.1</ele>
        <time>2022-01-06T10:10:27Z</time>
      </trkpt>
      <trkpt lat="45.83824" lon="6.29889">
        <ele>1625.1</ele>
        <time>2022-01-06T10:10:28Z</time>
      </trkpt>
      <trkpt lat="45.83824" lon="6.29889">
        <ele>1625.1</ele>
        <time>2022-01-06T10:10:29Z</time>
      </trkpt>
      <trkpt lat="45.83824" lon="6.2989">
        <ele>1625.1</ele>
        <time>2022-01-06T10:10:30Z</time>
      </trkpt>
      <trkpt lat="45.83824" lon="6.2989">
        <ele>1625.1</ele>
        <time>2022-01-06T10:10:31Z</time>
      </trkpt>
      <trkpt lat="45.83824" lon="6.2989">
        <ele>1625.1</ele>
        <time>2022-01-06T10:10:32Z</time>
      </trkpt>
      <trkpt lat="45.83824" lon="6.2989">
        <ele>1625.1</ele>
        <time>2022-01-06T10:10:33Z</time>
      </trkpt>
      <trkpt lat="45.83823" lon="6.2989">
        <ele>1625.1</ele>
        <time>2022-01-06T10:10:34Z</time>
      </trkpt>
      <trkpt lat="45.83823" lon="6.29891">
        <ele>1625.1</ele>
        <time>2022-01-06T10:10:35Z</time>
      </trkpt>
      <trkpt lat="45.83823" lon="6.29891">
        <ele>1625.1</ele>
        <time>2022-01-06T10:10:36Z</time>
      </trkpt>
      <trkpt lat="45.83823" lon="6.29891">
        <ele>1625.1</ele>
        <time>2022-01-06T10:10:37Z</time>
      </trkpt>
      <trkpt lat="45.83823" lon="6.29891">
        <ele>1625.1</ele>
        <time>2022-01-06T10:10:38Z</time>
      </trkpt>
      <trkpt lat="45.83823" lon="6.29892">
        <ele>1625.1</ele>
        <time>2022-01-06T10:10:39Z</time>
      </trkpt>
      <trkpt lat="45.83823" lon="6.29892">
        <ele>1625.1</ele>
        <time>2022-01-06T10:10:40Z</time>
      </trkpt>
      <trkpt lat="45.83823" lon="6.29892">
        <ele>1625.1</ele>
        <time>2022-01-06T10:10:41Z</time>
      </trkpt>
      <trkpt lat="45.83823" lon="6.29892">
        <ele>1625.1</ele>
        <time>2022-01-06T10:10:42Z</time>
      </trkpt>
      <trkpt lat="45.83823" lon="6.29892">
        <ele>1625.1</ele>
        <time>2022-01-06T10:10:43Z</time>
      </trkpt>
      <trkpt lat="45.83823" lon="6.29892">
        <ele>1625.1</ele>
        <time>2022-01-06T10:10:44Z</time>
      </trkpt>
      <trkpt lat="45.83823" lon="6.29892">
        <ele>1625.1</ele>
        <time>2022-01-06T10:10:45Z</time>
      </trkpt>
      <trkpt lat="45.83823" lon="6.29892">
        <ele>1625.1</ele>
        <time>2022-01-06T10:10:46Z</time>
      </trkpt>
      <trkpt lat="45.83823" lon="6.29892">
        <ele>1625.1</ele>
        <time>2022-01-06T10:10:47Z</time>
      </trkpt>
      <trkpt lat="45.83823" lon="6.29892">
        <ele>1623.1</ele>
        <time>2022-01-06T10:10:48Z</time>
      </trkpt>
      <trkpt lat="45.83823" lon="6.29892">
        <ele>1623.1</ele>
        <time>2022-01-06T10:10:49Z</time>
      </trkpt>
      <trkpt lat="45.83822" lon="6.29892">
        <ele>1623.1</ele>
        <time>2022-01-06T10:10:50Z</time>
      </trkpt>
      <trkpt lat="45.83822" lon="6.29892">
        <ele>1623.1</ele>
        <time>2022-01-06T10:10:51Z</time>
      </trkpt>
      <trkpt lat="45.83822" lon="6.29892">
        <ele>1622</ele>
        <time>2022-01-06T10:10:52Z</time>
      </trkpt>
      <trkpt lat="45.83823" lon="6.29893">
        <ele>1622</ele>
        <time>2022-01-06T10:10:53Z</time>
      </trkpt>
      <trkpt lat="45.83823" lon="6.29893">
        <ele>1622</ele>
        <time>2022-01-06T10:10:54Z</time>
      </trkpt>
      <trkpt lat="45.83822" lon="6.29894">
        <ele>1622</ele>
        <time>2022-01-06T10:10:55Z</time>
      </trkpt>
      <trkpt lat="45.83822" lon="6.29894">
        <ele>1622</ele>
        <time>2022-01-06T10:10:56Z</time>
      </trkpt>
      <trkpt lat="45.83822" lon="6.29894">
        <ele>1622</ele>
        <time>2022-01-06T10:10:57Z</time>
      </trkpt>
      <trkpt lat="45.83821" lon="6.29895">
        <ele>1622</ele>
        <time>2022-01-06T10:10:58Z</time>
      </trkpt>
      <trkpt lat="45.83821" lon="6.29895">
        <ele>1622</ele>
        <time>2022-01-06T10:10:59Z</time>
      </trkpt>
      <trkpt lat="45.83821" lon="6.29896">
        <ele>1622</ele>
        <time>2022-01-06T10:11:00Z</time>
      </trkpt>
      <trkpt lat="45.83821" lon="6.29896">
        <ele>1622</ele>
        <time>2022-01-06T10:11:01Z</time>
      </trkpt>
      <trkpt lat="45.83821" lon="6.29897">
        <ele>1622</ele>
        <time>2022-01-06T10:11:02Z</time>
      </trkpt>
      <trkpt lat="45.83821" lon="6.29897">
        <ele>1622</ele>
        <time>2022-01-06T10:11:03Z</time>
      </trkpt>
      <trkpt lat="45.83821" lon="6.29898">
        <ele>1622</ele>
        <time>2022-01-06T10:11:04Z</time>
      </trkpt>
      <trkpt lat="45.83821" lon="6.29898">
        <ele>1622</ele>
        <time>2022-01-06T10:11:05Z</time>
      </trkpt>
      <trkpt lat="45.83821" lon="6.29898">
        <ele>1619.1</ele>
        <time>2022-01-06T10:11:06Z</time>
      </trkpt>
      <trkpt lat="45.8382" lon="6.29899">
        <ele>1619.1</ele>
        <time>2022-01-06T10:11:07Z</time>
      </trkpt>
      <trkpt lat="45.8382" lon="6.29899">
        <ele>1619.1</ele>
        <time>2022-01-06T10:11:08Z</time>
      </trkpt>
      <trkpt lat="45.8382" lon="6.29899">
        <ele>1619.1</ele>
        <time>2022-01-06T10:11:09Z</time>
      </trkpt>
      <trkpt lat="45.8382" lon="6.29899">
        <ele>1618.1</ele>
        <time>2022-01-06T10:11:10Z</time>
      </trkpt>
      <trkpt lat="45.8382" lon="6.299">
        <ele>1618.1</ele>
        <time>2022-01-06T10:11:11Z</time>
      </trkpt>
      <trkpt lat="45.8382" lon="6.29901">
        <ele>1618.1</ele>
        <time>2022-01-06T10:11:12Z</time>
      </trkpt>
      <trkpt lat="45.8382" lon="6.29901">
        <ele>1618.1</ele>
        <time>2022-01-06T10:11:13Z</time>
      </trkpt>
      <trkpt lat="45.8382" lon="6.29902">
        <ele>1617.1</ele>
        <time>2022-01-06T10:11:14Z</time>
      </trkpt>
      <trkpt lat="45.8382" lon="6.29902">
        <ele>1617.1</ele>
        <time>2022-01-06T10:11:15Z</time>
      </trkpt>
      <trkpt lat="45.8382" lon="6.29904">
        <ele>1615.2</ele>
        <time>2022-01-06T10:11:16Z</time>
      </trkpt>
      <trkpt lat="45.8382" lon="6.29909">
        <ele>1615.2</ele>
        <time>2022-01-06T10:11:17Z</time>
      </trkpt>
      <trkpt lat="45.83818" lon="6.29916">
        <ele>1611</ele>
        <time>2022-01-06T10:11:18Z</time>
      </trkpt>
      <trkpt lat="45.83816" lon="6.29925">
        <ele>1611</ele>
        <time>2022-01-06T10:11:19Z</time>
      </trkpt>
      <trkpt lat="45.83812" lon="6.29934">
        <ele>1606.2</ele>
        <time>2022-01-06T10:11:20Z</time>
      </trkpt>
      <trkpt lat="45.83808" lon="6.29943">
        <ele>1606.2</ele>
        <time>2022-01-06T10:11:21Z</time>
      </trkpt>
      <trkpt lat="45.83805" lon="6.2995">
        <ele>1603.1</ele>
        <time>2022-01-06T10:11:22Z</time>
      </trkpt>
      <trkpt lat="45.83803" lon="6.29955">
        <ele>1603.1</ele>
        <time>2022-01-06T10:11:23Z</time>
      </trkpt>
      <trkpt lat="45.83803" lon="6.2996">
        <ele>1599.2</ele>
        <time>2022-01-06T10:11:24Z</time>
      </trkpt>
      <trkpt lat="45.83805" lon="6.29964">
        <ele>1599.2</ele>
        <time>2022-01-06T10:11:25Z</time>
      </trkpt>
      <trkpt lat="45.83808" lon="6.29968">
        <ele>1596.1</ele>
        <time>2022-01-06T10:11:26Z</time>
      </trkpt>
      <trkpt lat="45.83811" lon="6.29974">
        <ele>1596.1</ele>
        <time>2022-01-06T10:11:27Z</time>
      </trkpt>
      <trkpt lat="45.83811" lon="6.2998">
        <ele>1593.1</ele>
        <time>2022-01-06T10:11:28Z</time>
      </trkpt>
      <trkpt lat="45.8381" lon="6.29986">
        <ele>1593.1</ele>
        <time>2022-01-06T10:11:29Z</time>
      </trkpt>
      <trkpt lat="45.8381" lon="6.29992">
        <ele>1589.1</ele>
        <time>2022-01-06T10:11:30Z</time>
      </trkpt>
      <trkpt lat="45.8381" lon="6.29999">
        <ele>1589.1</ele>
        <time>2022-01-06T10:11:31Z</time>
      </trkpt>
      <trkpt lat="45.83811" lon="6.30006">
        <ele>1586</ele>
        <time>2022-01-06T10:11:32Z</time>
      </trkpt>
      <trkpt lat="45.83811" lon="6.30012">
        <ele>1586</ele>
        <time>2022-01-06T10:11:33Z</time>
      </trkpt>
      <trkpt lat="45.83812" lon="6.30019">
        <ele>1583.2</ele>
        <time>2022-01-06T10:11:34Z</time>
      </trkpt>
      <trkpt lat="45.83813" lon="6.30026">
        <ele>1583.2</ele>
        <time>2022-01-06T10:11:35Z</time>
      </trkpt>
      <trkpt lat="45.83814" lon="6.30031">
        <ele>1581</ele>
        <time>2022-01-06T10:11:36Z</time>
      </trkpt>
      <trkpt lat="45.83814" lon="6.30033">
        <ele>1581</ele>
        <time>2022-01-06T10:11:37Z</time>
      </trkpt>
      <trkpt lat="45.83813" lon="6.30034">
        <ele>1580.1</ele>
        <time>2022-01-06T10:11:38Z</time>
      </trkpt>
      <trkpt lat="45.83813" lon="6.30036">
        <ele>1580.1</ele>
        <time>2022-01-06T10:11:39Z</time>
      </trkpt>
      <trkpt lat="45.83812" lon="6.30037">
        <ele>1580.1</ele>
        <time>2022-01-06T10:11:40Z</time>
      </trkpt>
      <trkpt lat="45.83812" lon="6.30039">
        <ele>1580.1</ele>
        <time>2022-01-06T10:11:41Z</time>
      </trkpt>
      <trkpt lat="45.83811" lon="6.3004">
        <ele>1580.1</ele>
        <time>2022-01-06T10:11:42Z</time>
      </trkpt>
      <trkpt lat="45.83811" lon="6.30041">
        <ele>1580.1</ele>
        <time>2022-01-06T10:11:43Z</time>
      </trkpt>
      <trkpt lat="45.8381" lon="6.30043">
        <ele>1579</ele>
        <time>2022-01-06T10:11:44Z</time>
      </trkpt>
      <trkpt lat="45.8381" lon="6.30044">
        <ele>1579</ele>
        <time>2022-01-06T10:11:45Z</time>
      </trkpt>
      <trkpt lat="45.83809" lon="6.30046">
        <ele>1579</ele>
        <time>2022-01-06T10:11:46Z</time>
      </trkpt>
      <trkpt lat="45.83809" lon="6.30047">
        <ele>1579</ele>
        <time>2022-01-06T10:11:47Z</time>
      </trkpt>
      <trkpt lat="45.83808" lon="6.30049">
        <ele>1579</ele>
        <time>2022-01-06T10:11:48Z</time>
      </trkpt>
      <trkpt lat="45.83808" lon="6.3005">
        <ele>1579</ele>
        <time>2022-01-06T10:11:49Z</time>
      </trkpt>
      <trkpt lat="45.83807" lon="6.30052">
        <ele>1579</ele>
        <time>2022-01-06T10:11:50Z</time>
      </trkpt>
      <trkpt lat="45.83806" lon="6.30053">
        <ele>1579</ele>
        <time>2022-01-06T10:11:51Z</time>
      </trkpt>
      <trkpt lat="45.83806" lon="6.30055">
        <ele>1578.1</ele>
        <time>2022-01-06T10:11:52Z</time>
      </trkpt>
      <trkpt lat="45.83805" lon="6.30056">
        <ele>1578.1</ele>
        <time>2022-01-06T10:11:53Z</time>
      </trkpt>
      <trkpt lat="45.83805" lon="6.30058">
        <ele>1578.1</ele>
        <time>2022-01-06T10:11:54Z</time>
      </trkpt>
      <trkpt lat="45.83804" lon="6.30059">
        <ele>1578.1</ele>
        <time>2022-01-06T10:11:55Z</time>
      </trkpt>
      <trkpt lat="45.83804" lon="6.30061">
        <ele>1578.1</ele>
        <time>2022-01-06T10:11:56Z</time>
      </trkpt>
      <trkpt lat="45.83803" lon="6.30062">
        <ele>1578.1</ele>
        <time>2022-01-06T10:11:57Z</time>
      </trkpt>
      <trkpt lat="45.83803" lon="6.30064">
        <ele>1573.1</ele>
        <time>2022-01-06T10:11:58Z</time>
      </trkpt>
      <trkpt lat="45.83801" lon="6.30068">
        <ele>1573.1</ele>
        <time>2022-01-06T10:11:59Z</time>
      </trkpt>
      <trkpt lat="45.838" lon="6.30072">
        <ele>1572</ele>
        <time>2022-01-06T10:12:00Z</time>
      </trkpt>
      <trkpt lat="45.83799" lon="6.30075">
        <ele>1572</ele>
        <time>2022-01-06T10:12:01Z</time>
      </trkpt>
      <trkpt lat="45.83799" lon="6.30076">
        <ele>1571.1</ele>
        <time>2022-01-06T10:12:02Z</time>
      </trkpt>
      <trkpt lat="45.83798" lon="6.30077">
        <ele>1571.1</ele>
        <time>2022-01-06T10:12:03Z</time>
      </trkpt>
      <trkpt lat="45.83798" lon="6.30079">
        <ele>1571.1</ele>
        <time>2022-01-06T10:12:04Z</time>
      </trkpt>
      <trkpt lat="45.83797" lon="6.3008">
        <ele>1571.1</ele>
        <time>2022-01-06T10:12:05Z</time>
      </trkpt>
      <trkpt lat="45.83797" lon="6.30081">
        <ele>1571.1</ele>
        <time>2022-01-06T10:12:06Z</time>
      </trkpt>
      <trkpt lat="45.83797" lon="6.30082">
        <ele>1571.1</ele>
        <time>2022-01-06T10:12:07Z</time>
      </trkpt>
      <trkpt lat="45.83797" lon="6.30082">
        <ele>1571.1</ele>
        <time>2022-01-06T10:12:08Z</time>
      </trkpt>
      <trkpt lat="45.83796" lon="6.30083">
        <ele>1571.1</ele>
        <time>2022-01-06T10:12:09Z</time>
      </trkpt>
      <trkpt lat="45.83796" lon="6.30084">
        <ele>1571.1</ele>
        <time>2022-01-06T10:12:10Z</time>
      </trkpt>
      <trkpt lat="45.83796" lon="6.30085">
        <ele>1571.1</ele>
        <time>2022-01-06T10:12:11Z</time>
      </trkpt>
      <trkpt lat="45.83795" lon="6.30086">
        <ele>1571.1</ele>
        <time>2022-01-06T10:12:12Z</time>
      </trkpt>
      <trkpt lat="45.83795" lon="6.30087">
        <ele>1571.1</ele>
        <time>2022-01-06T10:12:13Z</time>
      </trkpt>
      <trkpt lat="45.83795" lon="6.30088">
        <ele>1571.1</ele>
        <time>2022-01-06T10:12:14Z</time>
      </trkpt>
      <trkpt lat="45.83795" lon="6.30089">
        <ele>1571.1</ele>
        <time>2022-01-06T10:12:15Z</time>
      </trkpt>
      <trkpt lat="45.83794" lon="6.3009">
        <ele>1571.1</ele>
        <time>2022-01-06T10:12:16Z</time>
      </trkpt>
      <trkpt lat="45.83794" lon="6.30091">
        <ele>1571.1</ele>
        <time>2022-01-06T10:12:17Z</time>
      </trkpt>
      <trkpt lat="45.83794" lon="6.30091">
        <ele>1571.1</ele>
        <time>2022-01-06T10:12:18Z</time>
      </trkpt>
      <trkpt lat="45.83793" lon="6.30092">
        <ele>1571.1</ele>
        <time>2022-01-06T10:12:19Z</time>
      </trkpt>
      <trkpt lat="45.83793" lon="6.30093">
        <ele>1571.1</ele>
        <time>2022-01-06T10:12:20Z</time>
      </trkpt>
      <trkpt lat="45.83793" lon="6.30094">
        <ele>1571.1</ele>
        <time>2022-01-06T10:12:21Z</time>
      </trkpt>
      <trkpt lat="45.83793" lon="6.30095">
        <ele>1571.1</ele>
        <time>2022-01-06T10:12:22Z</time>
      </trkpt>
      <trkpt lat="45.83792" lon="6.30096">
        <ele>1571.1</ele>
        <time>2022-01-06T10:12:23Z</time>
      </trkpt>
      <trkpt lat="45.83792" lon="6.30097">
        <ele>1571.1</ele>
        <time>2022-01-06T10:12:24Z</time>
      </trkpt>
      <trkpt lat="45.83792" lon="6.30098">
        <ele>1571.1</ele>
        <time>2022-01-06T10:12:25Z</time>
      </trkpt>
      <trkpt lat="45.83791" lon="6.30099">
        <ele>1570</ele>
        <time>2022-01-06T10:12:26Z</time>
      </trkpt>
      <trkpt lat="45.83791" lon="6.301">
        <ele>1570</ele>
        <time>2022-01-06T10:12:27Z</time>
      </trkpt>
      <trkpt lat="45.83791" lon="6.30101">
        <ele>1570</ele>
        <time>2022-01-06T10:12:28Z</time>
      </trkpt>
      <trkpt lat="45.83791" lon="6.30101">
        <ele>1570</ele>
        <time>2022-01-06T10:12:29Z</time>
      </trkpt>
      <trkpt lat="45.8379" lon="6.30102">
        <ele>1570</ele>
        <time>2022-01-06T10:12:30Z</time>
      </trkpt>
      <trkpt lat="45.8379" lon="6.30103">
        <ele>1570</ele>
        <time>2022-01-06T10:12:31Z</time>
      </trkpt>
      <trkpt lat="45.8379" lon="6.30104">
        <ele>1569.1</ele>
        <time>2022-01-06T10:12:32Z</time>
      </trkpt>
      <trkpt lat="45.83789" lon="6.30105">
        <ele>1569.1</ele>
        <time>2022-01-06T10:12:33Z</time>
      </trkpt>
      <trkpt lat="45.83789" lon="6.30106">
        <ele>1568.1</ele>
        <time>2022-01-06T10:12:34Z</time>
      </trkpt>
      <trkpt lat="45.83789" lon="6.30107">
        <ele>1568.1</ele>
        <time>2022-01-06T10:12:35Z</time>
      </trkpt>
      <trkpt lat="45.83789" lon="6.30108">
        <ele>1568.1</ele>
        <time>2022-01-06T10:12:36Z</time>
      </trkpt>
      <trkpt lat="45.83788" lon="6.30109">
        <ele>1568.1</ele>
        <time>2022-01-06T10:12:37Z</time>
      </trkpt>
      <trkpt lat="45.83788" lon="6.3011">
        <ele>1561.1</ele>
        <time>2022-01-06T10:12:38Z</time>
      </trkpt>
      <trkpt lat="45.83788" lon="6.30111">
        <ele>1561.1</ele>
        <time>2022-01-06T10:12:39Z</time>
      </trkpt>
      <trkpt lat="45.83785" lon="6.30117">
        <ele>1558.2</ele>
        <time>2022-01-06T10:12:40Z</time>
      </trkpt>
      <trkpt lat="45.83783" lon="6.30121">
        <ele>1558.2</ele>
        <time>2022-01-06T10:12:41Z</time>
      </trkpt>
      <trkpt lat="45.83784" lon="6.30124">
        <ele>1556</ele>
        <time>2022-01-06T10:12:42Z</time>
      </trkpt>
      <trkpt lat="45.83786" lon="6.30125">
        <ele>1556</ele>
        <time>2022-01-06T10:12:43Z</time>
      </trkpt>
      <trkpt lat="45.8379" lon="6.30127">
        <ele>1553.1</ele>
        <time>2022-01-06T10:12:44Z</time>
      </trkpt>
      <trkpt lat="45.83793" lon="6.30127">
        <ele>1553.1</ele>
        <time>2022-01-06T10:12:45Z</time>
      </trkpt>
      <trkpt lat="45.83797" lon="6.30128">
        <ele>1550.1</ele>
        <time>2022-01-06T10:12:46Z</time>
      </trkpt>
      <trkpt lat="45.83801" lon="6.30128">
        <ele>1550.1</ele>
        <time>2022-01-06T10:12:47Z</time>
      </trkpt>
      <trkpt lat="45.83805" lon="6.30127">
        <ele>1547</ele>
        <time>2022-01-06T10:12:48Z</time>
      </trkpt>
      <trkpt lat="45.83809" lon="6.30127">
        <ele>1547</ele>
        <time>2022-01-06T10:12:49Z</time>
      </trkpt>
      <trkpt lat="45.83814" lon="6.30128">
        <ele>1542.2</ele>
        <time>2022-01-06T10:12:50Z</time>
      </trkpt>
      <trkpt lat="45.83819" lon="6.3013">
        <ele>1542.2</ele>
        <time>2022-01-06T10:12:51Z</time>
      </trkpt>
      <trkpt lat="45.83825" lon="6.30133">
        <ele>1538</ele>
        <time>2022-01-06T10:12:52Z</time>
      </trkpt>
      <trkpt lat="45.8383" lon="6.30138">
        <ele>1538</ele>
        <time>2022-01-06T10:12:53Z</time>
      </trkpt>
      <trkpt lat="45.83835" lon="6.30142">
        <ele>1534.1</ele>
        <time>2022-01-06T10:12:54Z</time>
      </trkpt>
      <trkpt lat="45.8384" lon="6.30147">
        <ele>1534.1</ele>
        <time>2022-01-06T10:12:55Z</time>
      </trkpt>
      <trkpt lat="45.83844" lon="6.30151">
        <ele>1534.1</ele>
        <time>2022-01-06T10:12:56Z</time>
      </trkpt>
      <trkpt lat="45.83849" lon="6.30155">
        <ele>1534.1</ele>
        <time>2022-01-06T10:12:57Z</time>
      </trkpt>
      <trkpt lat="45.83854" lon="6.30159">
        <ele>1526.2</ele>
        <time>2022-01-06T10:12:58Z</time>
      </trkpt>
      <trkpt lat="45.83858" lon="6.30162">
        <ele>1526.2</ele>
        <time>2022-01-06T10:12:59Z</time>
      </trkpt>
      <trkpt lat="45.83862" lon="6.30164">
        <ele>1523.1</ele>
        <time>2022-01-06T10:13:00Z</time>
      </trkpt>
      <trkpt lat="45.83865" lon="6.30164">
        <ele>1523.1</ele>
        <time>2022-01-06T10:13:01Z</time>
      </trkpt>
      <trkpt lat="45.83869" lon="6.30165">
        <ele>1520.1</ele>
        <time>2022-01-06T10:13:02Z</time>
      </trkpt>
      <trkpt lat="45.83872" lon="6.30167">
        <ele>1520.1</ele>
        <time>2022-01-06T10:13:03Z</time>
      </trkpt>
      <trkpt lat="45.83875" lon="6.30169">
        <ele>1517.2</ele>
        <time>2022-01-06T10:13:04Z</time>
      </trkpt>
      <trkpt lat="45.83877" lon="6.30169">
        <ele>1517.2</ele>
        <time>2022-01-06T10:13:05Z</time>
      </trkpt>
      <trkpt lat="45.83879" lon="6.30168">
        <ele>1516.1</ele>
        <time>2022-01-06T10:13:06Z</time>
      </trkpt>
      <trkpt lat="45.83879" lon="6.30165">
        <ele>1516.1</ele>
        <time>2022-01-06T10:13:07Z</time>
      </trkpt>
      <trkpt lat="45.8388" lon="6.3016">
        <ele>1514.1</ele>
        <time>2022-01-06T10:13:08Z</time>
      </trkpt>
      <trkpt lat="45.83881" lon="6.30155">
        <ele>1514.1</ele>
        <time>2022-01-06T10:13:09Z</time>
      </trkpt>
      <trkpt lat="45.83883" lon="6.3015">
        <ele>1512.1</ele>
        <time>2022-01-06T10:13:10Z</time>
      </trkpt>
      <trkpt lat="45.83885" lon="6.30147">
        <ele>1512.1</ele>
        <time>2022-01-06T10:13:11Z</time>
      </trkpt>
      <trkpt lat="45.83887" lon="6.30144">
        <ele>1511.1</ele>
        <time>2022-01-06T10:13:12Z</time>
      </trkpt>
      <trkpt lat="45.8389" lon="6.30141">
        <ele>1511.1</ele>
        <time>2022-01-06T10:13:13Z</time>
      </trkpt>
      <trkpt lat="45.83892" lon="6.30139">
        <ele>1511.1</ele>
        <time>2022-01-06T10:13:14Z</time>
      </trkpt>
      <trkpt lat="45.83894" lon="6.30136">
        <ele>1511.1</ele>
        <time>2022-01-06T10:13:15Z</time>
      </trkpt>
      <trkpt lat="45.83896" lon="6.30134">
        <ele>1509.1</ele>
        <time>2022-01-06T10:13:16Z</time>
      </trkpt>
      <trkpt lat="45.83898" lon="6.30133">
        <ele>1509.1</ele>
        <time>2022-01-06T10:13:17Z</time>
      </trkpt>
      <trkpt lat="45.83901" lon="6.30134">
        <ele>1507.1</ele>
        <time>2022-01-06T10:13:18Z</time>
      </trkpt>
      <trkpt lat="45.83904" lon="6.30137">
        <ele>1507.1</ele>
        <time>2022-01-06T10:13:19Z</time>
      </trkpt>
      <trkpt lat="45.83907" lon="6.30141">
        <ele>1504.1</ele>
        <time>2022-01-06T10:13:20Z</time>
      </trkpt>
      <trkpt lat="45.83911" lon="6.30144">
        <ele>1504.1</ele>
        <time>2022-01-06T10:13:21Z</time>
      </trkpt>
      <trkpt lat="45.83915" lon="6.30146">
        <ele>1500.1</ele>
        <time>2022-01-06T10:13:22Z</time>
      </trkpt>
      <trkpt lat="45.83919" lon="6.30147">
        <ele>1500.1</ele>
        <time>2022-01-06T10:13:23Z</time>
      </trkpt>
      <trkpt lat="45.83922" lon="6.30149">
        <ele>1497</ele>
        <time>2022-01-06T10:13:24Z</time>
      </trkpt>
      <trkpt lat="45.83923" lon="6.30152">
        <ele>1497</ele>
        <time>2022-01-06T10:13:25Z</time>
      </trkpt>
      <trkpt lat="45.83923" lon="6.30155">
        <ele>1495.1</ele>
        <time>2022-01-06T10:13:26Z</time>
      </trkpt>
      <trkpt lat="45.83924" lon="6.30159">
        <ele>1495.1</ele>
        <time>2022-01-06T10:13:27Z</time>
      </trkpt>
      <trkpt lat="45.83926" lon="6.30162">
        <ele>1493.1</ele>
        <time>2022-01-06T10:13:28Z</time>
      </trkpt>
      <trkpt lat="45.83926" lon="6.30166">
        <ele>1493.1</ele>
        <time>2022-01-06T10:13:29Z</time>
      </trkpt>
      <trkpt lat="45.83927" lon="6.30168">
        <ele>1492</ele>
        <time>2022-01-06T10:13:30Z</time>
      </trkpt>
      <trkpt lat="45.83929" lon="6.3017">
        <ele>1492</ele>
        <time>2022-01-06T10:13:31Z</time>
      </trkpt>
      <trkpt lat="45.83931" lon="6.30172">
        <ele>1491.1</ele>
        <time>2022-01-06T10:13:32Z</time>
      </trkpt>
      <trkpt lat="45.83932" lon="6.30173">
        <ele>1491.1</ele>
        <time>2022-01-06T10:13:33Z</time>
      </trkpt>
      <trkpt lat="45.83933" lon="6.30177">
        <ele>1490</ele>
        <time>2022-01-06T10:13:34Z</time>
      </trkpt>
      <trkpt lat="45.83932" lon="6.3018">
        <ele>1490</ele>
        <time>2022-01-06T10:13:35Z</time>
      </trkpt>
      <trkpt lat="45.83933" lon="6.30183">
        <ele>1489.1</ele>
        <time>2022-01-06T10:13:36Z</time>
      </trkpt>
      <trkpt lat="45.83934" lon="6.30185">
        <ele>1489.1</ele>
        <time>2022-01-06T10:13:37Z</time>
      </trkpt>
      <trkpt lat="45.83935" lon="6.30186">
        <ele>1488.1</ele>
        <time>2022-01-06T10:13:38Z</time>
      </trkpt>
      <trkpt lat="45.83935" lon="6.30187">
        <ele>1488.1</ele>
        <time>2022-01-06T10:13:39Z</time>
      </trkpt>
      <trkpt lat="45.83934" lon="6.30187">
        <ele>1488.1</ele>
        <time>2022-01-06T10:13:40Z</time>
      </trkpt>
      <trkpt lat="45.83933" lon="6.30187">
        <ele>1488.1</ele>
        <time>2022-01-06T10:13:41Z</time>
      </trkpt>
      <trkpt lat="45.83933" lon="6.30187">
        <ele>1488.1</ele>
        <time>2022-01-06T10:13:42Z</time>
      </trkpt>
      <trkpt lat="45.83933" lon="6.30188">
        <ele>1488.1</ele>
        <time>2022-01-06T10:13:43Z</time>
      </trkpt>
      <trkpt lat="45.83932" lon="6.30188">
        <ele>1488.1</ele>
        <time>2022-01-06T10:13:44Z</time>
      </trkpt>
      <trkpt lat="45.83932" lon="6.30188">
        <ele>1488.1</ele>
        <time>2022-01-06T10:13:45Z</time>
      </trkpt>
      <trkpt lat="45.83933" lon="6.30189">
        <ele>1488.1</ele>
        <time>2022-01-06T10:13:46Z</time>
      </trkpt>
      <trkpt lat="45.83933" lon="6.30189">
        <ele>1488.1</ele>
        <time>2022-01-06T10:13:47Z</time>
      </trkpt>
      <trkpt lat="45.83932" lon="6.3019">
        <ele>1488.1</ele>
        <time>2022-01-06T10:13:48Z</time>
      </trkpt>
      <trkpt lat="45.83932" lon="6.30189">
        <ele>1488.1</ele>
        <time>2022-01-06T10:13:49Z</time>
      </trkpt>
      <trkpt lat="45.83933" lon="6.30189">
        <ele>1488.1</ele>
        <time>2022-01-06T10:13:50Z</time>
      </trkpt>
      <trkpt lat="45.83933" lon="6.30188">
        <ele>1488.1</ele>
        <time>2022-01-06T10:13:51Z</time>
      </trkpt>
      <trkpt lat="45.83933" lon="6.30188">
        <ele>1488.1</ele>
        <time>2022-01-06T10:13:52Z</time>
      </trkpt>
      <trkpt lat="45.83933" lon="6.30188">
        <ele>1488.1</ele>
        <time>2022-01-06T10:13:53Z</time>
      </trkpt>
      <trkpt lat="45.83933" lon="6.30188">
        <ele>1487.1</ele>
        <time>2022-01-06T10:13:54Z</time>
      </trkpt>
      <trkpt lat="45.83933" lon="6.30188">
        <ele>1487.1</ele>
        <time>2022-01-06T10:13:55Z</time>
      </trkpt>
      <trkpt lat="45.83933" lon="6.30188">
        <ele>1488.1</ele>
        <time>2022-01-06T10:13:56Z</time>
      </trkpt>
      <trkpt lat="45.83933" lon="6.30188">
        <ele>1488.1</ele>
        <time>2022-01-06T10:13:57Z</time>
      </trkpt>
      <trkpt lat="45.83933" lon="6.30188">
        <ele>1488.1</ele>
        <time>2022-01-06T10:13:58Z</time>
      </trkpt>
      <trkpt lat="45.83933" lon="6.30188">
        <ele>1488.1</ele>
        <time>2022-01-06T10:13:59Z</time>
      </trkpt>
      <trkpt lat="45.83933" lon="6.30188">
        <ele>1488.1</ele>
        <time>2022-01-06T10:14:00Z</time>
      </trkpt>
      <trkpt lat="45.83933" lon="6.30188">
        <ele>1488.1</ele>
        <time>2022-01-06T10:14:01Z</time>
      </trkpt>
      <trkpt lat="45.83933" lon="6.30188">
        <ele>1488.1</ele>
        <time>2022-01-06T10:14:02Z</time>
      </trkpt>
      <trkpt lat="45.83933" lon="6.30188">
        <ele>1488.1</ele>
        <time>2022-01-06T10:14:03Z</time>
      </trkpt>
      <trkpt lat="45.83933" lon="6.30189">
        <ele>1488.1</ele>
        <time>2022-01-06T10:14:04Z</time>
      </trkpt>
      <trkpt lat="45.83933" lon="6.30189">
        <ele>1488.1</ele>
        <time>2022-01-06T10:14:05Z</time>
      </trkpt>
      <trkpt lat="45.83933" lon="6.30189">
        <ele>1488.1</ele>
        <time>2022-01-06T10:14:06Z</time>
      </trkpt>
      <trkpt lat="45.83933" lon="6.30189">
        <ele>1488.1</ele>
        <time>2022-01-06T10:14:07Z</time>
      </trkpt>
      <trkpt lat="45.83933" lon="6.30189">
        <ele>1488.1</ele>
        <time>2022-01-06T10:14:08Z</time>
      </trkpt>
      <trkpt lat="45.83933" lon="6.3019">
        <ele>1488.1</ele>
        <time>2022-01-06T10:14:09Z</time>
      </trkpt>
      <trkpt lat="45.83933" lon="6.3019">
        <ele>1488.1</ele>
        <time>2022-01-06T10:14:10Z</time>
      </trkpt>
      <trkpt lat="45.83933" lon="6.3019">
        <ele>1488.1</ele>
        <time>2022-01-06T10:14:11Z</time>
      </trkpt>
      <trkpt lat="45.83934" lon="6.3019">
        <ele>1488.1</ele>
        <time>2022-01-06T10:14:12Z</time>
      </trkpt>
      <trkpt lat="45.83934" lon="6.3019">
        <ele>1488.1</ele>
        <time>2022-01-06T10:14:13Z</time>
      </trkpt>
      <trkpt lat="45.83934" lon="6.3019">
        <ele>1488.1</ele>
        <time>2022-01-06T10:14:14Z</time>
      </trkpt>
      <trkpt lat="45.83935" lon="6.3019">
        <ele>1488.1</ele>
        <time>2022-01-06T10:14:15Z</time>
      </trkpt>
      <trkpt lat="45.83935" lon="6.3019">
        <ele>1488.1</ele>
        <time>2022-01-06T10:14:16Z</time>
      </trkpt>
      <trkpt lat="45.83935" lon="6.3019">
        <ele>1488.1</ele>
        <time>2022-01-06T10:14:17Z</time>
      </trkpt>
      <trkpt lat="45.83935" lon="6.3019">
        <ele>1487.1</ele>
        <time>2022-01-06T10:14:18Z</time>
      </trkpt>
      <trkpt lat="45.83935" lon="6.30191">
        <ele>1487.1</ele>
        <time>2022-01-06T10:14:19Z</time>
      </trkpt>
      <trkpt lat="45.83935" lon="6.30191">
        <ele>1487.1</ele>
        <time>2022-01-06T10:14:20Z</time>
      </trkpt>
      <trkpt lat="45.83935" lon="6.30191">
        <ele>1487.1</ele>
        <time>2022-01-06T10:14:21Z</time>
      </trkpt>
      <trkpt lat="45.83935" lon="6.30191">
        <ele>1487.1</ele>
        <time>2022-01-06T10:14:22Z</time>
      </trkpt>
      <trkpt lat="45.83935" lon="6.30191">
        <ele>1487.1</ele>
        <time>2022-01-06T10:14:23Z</time>
      </trkpt>
      <trkpt lat="45.83935" lon="6.30191">
        <ele>1487.1</ele>
        <time>2022-01-06T10:14:24Z</time>
      </trkpt>
      <trkpt lat="45.83935" lon="6.30191">
        <ele>1487.1</ele>
        <time>2022-01-06T10:14:25Z</time>
      </trkpt>
      <trkpt lat="45.83935" lon="6.30191">
        <ele>1487.1</ele>
        <time>2022-01-06T10:14:26Z</time>
      </trkpt>
      <trkpt lat="45.83935" lon="6.30191">
        <ele>1487.1</ele>
        <time>2022-01-06T10:14:27Z</time>
      </trkpt>
      <trkpt lat="45.83935" lon="6.30191">
        <ele>1487.1</ele>
        <time>2022-01-06T10:14:28Z</time>
      </trkpt>
      <trkpt lat="45.83935" lon="6.30191">
        <ele>1487.1</ele>
        <time>2022-01-06T10:14:29Z</time>
      </trkpt>
      <trkpt lat="45.83935" lon="6.30191">
        <ele>1487.1</ele>
        <time>2022-01-06T10:14:30Z</time>
      </trkpt>
      <trkpt lat="45.83935" lon="6.30191">
        <ele>1487.1</ele>
        <time>2022-01-06T10:14:31Z</time>
      </trkpt>
      <trkpt lat="45.83935" lon="6.30191">
        <ele>1487.1</ele>
        <time>2022-01-06T10:14:32Z</time>
      </trkpt>
      <trkpt lat="45.83935" lon="6.30191">
        <ele>1487.1</ele>
        <time>2022-01-06T10:14:33Z</time>
      </trkpt>
      <trkpt lat="45.83935" lon="6.30191">
        <ele>1487.1</ele>
        <time>2022-01-06T10:14:34Z</time>
      </trkpt>
      <trkpt lat="45.83935" lon="6.30191">
        <ele>1487.1</ele>
        <time>2022-01-06T10:14:35Z</time>
      </trkpt>
      <trkpt lat="45.83935" lon="6.30191">
        <ele>1487.1</ele>
        <time>2022-01-06T10:14:36Z</time>
      </trkpt>
      <trkpt lat="45.83935" lon="6.30191">
        <ele>1487.1</ele>
        <time>2022-01-06T10:14:37Z</time>
      </trkpt>
      <trkpt lat="45.83935" lon="6.30191">
        <ele>1487.1</ele>
        <time>2022-01-06T10:14:38Z</time>
      </trkpt>
      <trkpt lat="45.83935" lon="6.30191">
        <ele>1487.1</ele>
        <time>2022-01-06T10:14:39Z</time>
      </trkpt>
      <trkpt lat="45.83935" lon="6.3019">
        <ele>1487.1</ele>
        <time>2022-01-06T10:14:40Z</time>
      </trkpt>
      <trkpt lat="45.83935" lon="6.3019">
        <ele>1487.1</ele>
        <time>2022-01-06T10:14:41Z</time>
      </trkpt>
      <trkpt lat="45.83935" lon="6.3019">
        <ele>1486.1</ele>
        <time>2022-01-06T10:14:42Z</time>
      </trkpt>
      <trkpt lat="45.83935" lon="6.3019">
        <ele>1486.1</ele>
        <time>2022-01-06T10:14:43Z</time>
      </trkpt>
      <trkpt lat="45.83935" lon="6.3019">
        <ele>1486.1</ele>
        <time>2022-01-06T10:14:44Z</time>
      </trkpt>
      <trkpt lat="45.83935" lon="6.30189">
        <ele>1486.1</ele>
        <time>2022-01-06T10:14:45Z</time>
      </trkpt>
      <trkpt lat="45.83934" lon="6.30189">
        <ele>1486.1</ele>
        <time>2022-01-06T10:14:46Z</time>
      </trkpt>
      <trkpt lat="45.83934" lon="6.30189">
        <ele>1486.1</ele>
        <time>2022-01-06T10:14:47Z</time>
      </trkpt>
      <trkpt lat="45.83934" lon="6.30189">
        <ele>1486.1</ele>
        <time>2022-01-06T10:14:48Z</time>
      </trkpt>
      <trkpt lat="45.83934" lon="6.30189">
        <ele>1486.1</ele>
        <time>2022-01-06T10:14:49Z</time>
      </trkpt>
      <trkpt lat="45.83934" lon="6.30188">
        <ele>1486.1</ele>
        <time>2022-01-06T10:14:50Z</time>
      </trkpt>
      <trkpt lat="45.83934" lon="6.30188">
        <ele>1486.1</ele>
        <time>2022-01-06T10:14:51Z</time>
      </trkpt>
      <trkpt lat="45.83934" lon="6.30188">
        <ele>1486.1</ele>
        <time>2022-01-06T10:14:52Z</time>
      </trkpt>
      <trkpt lat="45.83934" lon="6.30188">
        <ele>1486.1</ele>
        <time>2022-01-06T10:14:53Z</time>
      </trkpt>
      <trkpt lat="45.83934" lon="6.30188">
        <ele>1486.1</ele>
        <time>2022-01-06T10:14:54Z</time>
      </trkpt>
      <trkpt lat="45.83934" lon="6.30188">
        <ele>1486.1</ele>
        <time>2022-01-06T10:14:55Z</time>
      </trkpt>
      <trkpt lat="45.83934" lon="6.30188">
        <ele>1486.1</ele>
        <time>2022-01-06T10:14:56Z</time>
      </trkpt>
      <trkpt lat="45.83933" lon="6.30187">
        <ele>1486.1</ele>
        <time>2022-01-06T10:14:57Z</time>
      </trkpt>
      <trkpt lat="45.83933" lon="6.30187">
        <ele>1486.1</ele>
        <time>2022-01-06T10:14:58Z</time>
      </trkpt>
      <trkpt lat="45.83933" lon="6.30187">
        <ele>1486.1</ele>
        <time>2022-01-06T10:14:59Z</time>
      </trkpt>
      <trkpt lat="45.83933" lon="6.30187">
        <ele>1486.1</ele>
        <time>2022-01-06T10:15:00Z</time>
      </trkpt>
      <trkpt lat="45.83933" lon="6.30187">
        <ele>1486.1</ele>
        <time>2022-01-06T10:15:01Z</time>
      </trkpt>
      <trkpt lat="45.83933" lon="6.30187">
        <ele>1486.1</ele>
        <time>2022-01-06T10:15:02Z</time>
      </trkpt>
      <trkpt lat="45.83933" lon="6.30187">
        <ele>1486.1</ele>
        <time>2022-01-06T10:15:03Z</time>
      </trkpt>
      <trkpt lat="45.83933" lon="6.30187">
        <ele>1486.1</ele>
        <time>2022-01-06T10:15:04Z</time>
      </trkpt>
      <trkpt lat="45.83934" lon="6.30187">
        <ele>1486.1</ele>
        <time>2022-01-06T10:15:05Z</time>
      </trkpt>
      <trkpt lat="45.83934" lon="6.30187">
        <ele>1486.1</ele>
        <time>2022-01-06T10:15:06Z</time>
      </trkpt>
      <trkpt lat="45.83934" lon="6.30187">
        <ele>1486.1</ele>
        <time>2022-01-06T10:15:07Z</time>
      </trkpt>
      <trkpt lat="45.83934" lon="6.30187">
        <ele>1486.1</ele>
        <time>2022-01-06T10:15:08Z</time>
      </trkpt>
      <trkpt lat="45.83934" lon="6.30187">
        <ele>1486.1</ele>
        <time>2022-01-06T10:15:09Z</time>
      </trkpt>
      <trkpt lat="45.83934" lon="6.30187">
        <ele>1486.1</ele>
        <time>2022-01-06T10:15:10Z</time>
      </trkpt>
      <trkpt lat="45.83934" lon="6.30187">
        <ele>1486.1</ele>
        <time>2022-01-06T10:15:11Z</time>
      </trkpt>
      <trkpt lat="45.83934" lon="6.30187">
        <ele>1486.1</ele>
        <time>2022-01-06T10:15:12Z</time>
      </trkpt>
      <trkpt lat="45.83934" lon="6.30188">
        <ele>1486.1</ele>
        <time>2022-01-06T10:15:13Z</time>
      </trkpt>
      <trkpt lat="45.83934" lon="6.30188">
        <ele>1486.1</ele>
        <time>2022-01-06T10:15:14Z</time>
      </trkpt>
      <trkpt lat="45.83934" lon="6.30188">
        <ele>1486.1</ele>
        <time>2022-01-06T10:15:15Z</time>
      </trkpt>
      <trkpt lat="45.83934" lon="6.30188">
        <ele>1486.1</ele>
        <time>2022-01-06T10:15:16Z</time>
      </trkpt>
      <trkpt lat="45.83934" lon="6.30188">
        <ele>1486.1</ele>
        <time>2022-01-06T10:15:17Z</time>
      </trkpt>
      <trkpt lat="45.83934" lon="6.30188">
        <ele>1486.1</ele>
        <time>2022-01-06T10:15:18Z</time>
      </trkpt>
      <trkpt lat="45.83934" lon="6.30188">
        <ele>1486.1</ele>
        <time>2022-01-06T10:15:19Z</time>
      </trkpt>
      <trkpt lat="45.83934" lon="6.30188">
        <ele>1486.1</ele>
        <time>2022-01-06T10:15:20Z</time>
      </trkpt>
      <trkpt lat="45.83934" lon="6.30188">
        <ele>1486.1</ele>
        <time>2022-01-06T10:15:21Z</time>
      </trkpt>
      <trkpt lat="45.83934" lon="6.30188">
        <ele>1486.1</ele>
        <time>2022-01-06T10:15:22Z</time>
      </trkpt>
      <trkpt lat="45.83934" lon="6.30188">
        <ele>1486.1</ele>
        <time>2022-01-06T10:15:23Z</time>
      </trkpt>
      <trkpt lat="45.83934" lon="6.30188">
        <ele>1486.1</ele>
        <time>2022-01-06T10:15:24Z</time>
      </trkpt>
      <trkpt lat="45.83934" lon="6.30188">
        <ele>1486.1</ele>
        <time>2022-01-06T10:15:25Z</time>
      </trkpt>
      <trkpt lat="45.83934" lon="6.30188">
        <ele>1486.1</ele>
        <time>2022-01-06T10:15:26Z</time>
      </trkpt>
      <trkpt lat="45.83934" lon="6.30188">
        <ele>1486.1</ele>
        <time>2022-01-06T10:15:27Z</time>
      </trkpt>
      <trkpt lat="45.83934" lon="6.30188">
        <ele>1486.1</ele>
        <time>2022-01-06T10:15:28Z</time>
      </trkpt>
      <trkpt lat="45.83934" lon="6.30188">
        <ele>1486.1</ele>
        <time>2022-01-06T10:15:29Z</time>
      </trkpt>
      <trkpt lat="45.83934" lon="6.30188">
        <ele>1486.1</ele>
        <time>2022-01-06T10:15:30Z</time>
      </trkpt>
      <trkpt lat="45.83934" lon="6.30187">
        <ele>1486.1</ele>
        <time>2022-01-06T10:15:31Z</time>
      </trkpt>
      <trkpt lat="45.83934" lon="6.30187">
        <ele>1486.1</ele>
        <time>2022-01-06T10:15:32Z</time>
      </trkpt>
      <trkpt lat="45.83934" lon="6.30187">
        <ele>1486.1</ele>
        <time>2022-01-06T10:15:33Z</time>
      </trkpt>
      <trkpt lat="45.83935" lon="6.30187">
        <ele>1486.1</ele>
        <time>2022-01-06T10:15:34Z</time>
      </trkpt>
      <trkpt lat="45.83935" lon="6.30187">
        <ele>1486.1</ele>
        <time>2022-01-06T10:15:35Z</time>
      </trkpt>
      <trkpt lat="45.83935" lon="6.30187">
        <ele>1486.1</ele>
        <time>2022-01-06T10:15:36Z</time>
      </trkpt>
      <trkpt lat="45.83935" lon="6.30186">
        <ele>1486.1</ele>
        <time>2022-01-06T10:15:37Z</time>
      </trkpt>
      <trkpt lat="45.83935" lon="6.30186">
        <ele>1486.1</ele>
        <time>2022-01-06T10:15:38Z</time>
      </trkpt>
      <trkpt lat="45.83935" lon="6.30186">
        <ele>1486.1</ele>
        <time>2022-01-06T10:15:39Z</time>
      </trkpt>
      <trkpt lat="45.83935" lon="6.30185">
        <ele>1486.1</ele>
        <time>2022-01-06T10:15:40Z</time>
      </trkpt>
      <trkpt lat="45.83935" lon="6.30185">
        <ele>1486.1</ele>
        <time>2022-01-06T10:15:41Z</time>
      </trkpt>
      <trkpt lat="45.83936" lon="6.30185">
        <ele>1486.1</ele>
        <time>2022-01-06T10:15:42Z</time>
      </trkpt>
      <trkpt lat="45.83936" lon="6.30185">
        <ele>1486.1</ele>
        <time>2022-01-06T10:15:43Z</time>
      </trkpt>
      <trkpt lat="45.83936" lon="6.30185">
        <ele>1486.1</ele>
        <time>2022-01-06T10:15:44Z</time>
      </trkpt>
      <trkpt lat="45.83936" lon="6.30185">
        <ele>1486.1</ele>
        <time>2022-01-06T10:15:45Z</time>
      </trkpt>
      <trkpt lat="45.83936" lon="6.30185">
        <ele>1486.1</ele>
        <time>2022-01-06T10:15:46Z</time>
      </trkpt>
      <trkpt lat="45.83936" lon="6.30185">
        <ele>1486.1</ele>
        <time>2022-01-06T10:15:47Z</time>
      </trkpt>
      <trkpt lat="45.83936" lon="6.30185">
        <ele>1486.1</ele>
        <time>2022-01-06T10:15:48Z</time>
      </trkpt>
      <trkpt lat="45.83936" lon="6.30185">
        <ele>1486.1</ele>
        <time>2022-01-06T10:15:49Z</time>
      </trkpt>
      <trkpt lat="45.83936" lon="6.30185">
        <ele>1486.1</ele>
        <time>2022-01-06T10:15:50Z</time>
      </trkpt>
      <trkpt lat="45.83936" lon="6.30185">
        <ele>1486.1</ele>
        <time>2022-01-06T10:15:51Z</time>
      </trkpt>
      <trkpt lat="45.83936" lon="6.30185">
        <ele>1486.1</ele>
        <time>2022-01-06T10:15:52Z</time>
      </trkpt>
      <trkpt lat="45.83936" lon="6.30185">
        <ele>1486.1</ele>
        <time>2022-01-06T10:15:53Z</time>
      </trkpt>
      <trkpt lat="45.83936" lon="6.30185">
        <ele>1486.1</ele>
        <time>2022-01-06T10:15:54Z</time>
      </trkpt>
      <trkpt lat="45.83937" lon="6.30185">
        <ele>1486.1</ele>
        <time>2022-01-06T10:15:55Z</time>
      </trkpt>
      <trkpt lat="45.83937" lon="6.30185">
        <ele>1486.1</ele>
        <time>2022-01-06T10:15:56Z</time>
      </trkpt>
      <trkpt lat="45.83937" lon="6.30185">
        <ele>1486.1</ele>
        <time>2022-01-06T10:15:57Z</time>
      </trkpt>
      <trkpt lat="45.83937" lon="6.30185">
        <ele>1486.1</ele>
        <time>2022-01-06T10:15:58Z</time>
      </trkpt>
      <trkpt lat="45.83937" lon="6.30185">
        <ele>1486.1</ele>
        <time>2022-01-06T10:15:59Z</time>
      </trkpt>
      <trkpt lat="45.83937" lon="6.30185">
        <ele>1486.1</ele>
        <time>2022-01-06T10:16:00Z</time>
      </trkpt>
      <trkpt lat="45.83937" lon="6.30185">
        <ele>1486.1</ele>
        <time>2022-01-06T10:16:01Z</time>
      </trkpt>
      <trkpt lat="45.83937" lon="6.30185">
        <ele>1486.1</ele>
        <time>2022-01-06T10:16:02Z</time>
      </trkpt>
      <trkpt lat="45.83937" lon="6.30185">
        <ele>1486.1</ele>
        <time>2022-01-06T10:16:03Z</time>
      </trkpt>
      <trkpt lat="45.83937" lon="6.30185">
        <ele>1486.1</ele>
        <time>2022-01-06T10:16:04Z</time>
      </trkpt>
      <trkpt lat="45.83937" lon="6.30185">
        <ele>1486.1</ele>
        <time>2022-01-06T10:16:05Z</time>
      </trkpt>
      <trkpt lat="45.83937" lon="6.30185">
        <ele>1486.1</ele>
        <time>2022-01-06T10:16:06Z</time>
      </trkpt>
      <trkpt lat="45.83937" lon="6.30185">
        <ele>1486.1</ele>
        <time>2022-01-06T10:16:07Z</time>
      </trkpt>
      <trkpt lat="45.83937" lon="6.30185">
        <ele>1486.1</ele>
        <time>2022-01-06T10:16:08Z</time>
      </trkpt>
      <trkpt lat="45.83937" lon="6.30185">
        <ele>1486.1</ele>
        <time>2022-01-06T10:16:09Z</time>
      </trkpt>
      <trkpt lat="45.83937" lon="6.30185">
        <ele>1486.1</ele>
        <time>2022-01-06T10:16:10Z</time>
      </trkpt>
      <trkpt lat="45.83937" lon="6.30185">
        <ele>1486.1</ele>
        <time>2022-01-06T10:16:11Z</time>
      </trkpt>
      <trkpt lat="45.83937" lon="6.30186">
        <ele>1486.1</ele>
        <time>2022-01-06T10:16:12Z</time>
      </trkpt>
      <trkpt lat="45.83937" lon="6.30189">
        <ele>1486.1</ele>
        <time>2022-01-06T10:16:13Z</time>
      </trkpt>
      <trkpt lat="45.83936" lon="6.30192">
        <ele>1486.1</ele>
        <time>2022-01-06T10:16:14Z</time>
      </trkpt>
      <trkpt lat="45.83934" lon="6.30196">
        <ele>1486.1</ele>
        <time>2022-01-06T10:16:15Z</time>
      </trkpt>
      <trkpt lat="45.83931" lon="6.30201">
        <ele>1480.1</ele>
        <time>2022-01-06T10:16:16Z</time>
      </trkpt>
      <trkpt lat="45.83929" lon="6.30208">
        <ele>1480.1</ele>
        <time>2022-01-06T10:16:17Z</time>
      </trkpt>
      <trkpt lat="45.83927" lon="6.30214">
        <ele>1480.1</ele>
        <time>2022-01-06T10:16:18Z</time>
      </trkpt>
      <trkpt lat="45.83926" lon="6.30219">
        <ele>1480.1</ele>
        <time>2022-01-06T10:16:19Z</time>
      </trkpt>
      <trkpt lat="45.83926" lon="6.30227">
        <ele>1480.1</ele>
        <time>2022-01-06T10:16:20Z</time>
      </trkpt>
      <trkpt lat="45.83926" lon="6.30234">
        <ele>1480.1</ele>
        <time>2022-01-06T10:16:21Z</time>
      </trkpt>
      <trkpt lat="45.83925" lon="6.30241">
        <ele>1473.1</ele>
        <time>2022-01-06T10:16:22Z</time>
      </trkpt>
      <trkpt lat="45.83925" lon="6.30246">
        <ele>1473.1</ele>
        <time>2022-01-06T10:16:23Z</time>
      </trkpt>
      <trkpt lat="45.83924" lon="6.30253">
        <ele>1471.1</ele>
        <time>2022-01-06T10:16:24Z</time>
      </trkpt>
      <trkpt lat="45.83924" lon="6.30259">
        <ele>1471.1</ele>
        <time>2022-01-06T10:16:25Z</time>
      </trkpt>
      <trkpt lat="45.83924" lon="6.30264">
        <ele>1469.2</ele>
        <time>2022-01-06T10:16:26Z</time>
      </trkpt>
      <trkpt lat="45.83923" lon="6.30268">
        <ele>1469.2</ele>
        <time>2022-01-06T10:16:27Z</time>
      </trkpt>
      <trkpt lat="45.83922" lon="6.30273">
        <ele>1467</ele>
        <time>2022-01-06T10:16:28Z</time>
      </trkpt>
      <trkpt lat="45.8392" lon="6.30279">
        <ele>1467</ele>
        <time>2022-01-06T10:16:29Z</time>
      </trkpt>
      <trkpt lat="45.83918" lon="6.30283">
        <ele>1465</ele>
        <time>2022-01-06T10:16:30Z</time>
      </trkpt>
      <trkpt lat="45.83916" lon="6.30288">
        <ele>1465</ele>
        <time>2022-01-06T10:16:31Z</time>
      </trkpt>
      <trkpt lat="45.83914" lon="6.30293">
        <ele>1463.1</ele>
        <time>2022-01-06T10:16:32Z</time>
      </trkpt>
      <trkpt lat="45.83913" lon="6.30298">
        <ele>1463.1</ele>
        <time>2022-01-06T10:16:33Z</time>
      </trkpt>
      <trkpt lat="45.83913" lon="6.30304">
        <ele>1462.1</ele>
        <time>2022-01-06T10:16:34Z</time>
      </trkpt>
      <trkpt lat="45.83913" lon="6.30308">
        <ele>1462.1</ele>
        <time>2022-01-06T10:16:35Z</time>
      </trkpt>
      <trkpt lat="45.83914" lon="6.30311">
        <ele>1460</ele>
        <time>2022-01-06T10:16:36Z</time>
      </trkpt>
      <trkpt lat="45.83917" lon="6.30313">
        <ele>1460</ele>
        <time>2022-01-06T10:16:37Z</time>
      </trkpt>
      <trkpt lat="45.8392" lon="6.30315">
        <ele>1458</ele>
        <time>2022-01-06T10:16:38Z</time>
      </trkpt>
      <trkpt lat="45.83923" lon="6.30316">
        <ele>1458</ele>
        <time>2022-01-06T10:16:39Z</time>
      </trkpt>
      <trkpt lat="45.83926" lon="6.30317">
        <ele>1456</ele>
        <time>2022-01-06T10:16:40Z</time>
      </trkpt>
      <trkpt lat="45.83929" lon="6.30317">
        <ele>1456</ele>
        <time>2022-01-06T10:16:41Z</time>
      </trkpt>
      <trkpt lat="45.83931" lon="6.30317">
        <ele>1454.1</ele>
        <time>2022-01-06T10:16:42Z</time>
      </trkpt>
      <trkpt lat="45.83934" lon="6.30317">
        <ele>1454.1</ele>
        <time>2022-01-06T10:16:43Z</time>
      </trkpt>
      <trkpt lat="45.83937" lon="6.30316">
        <ele>1453.2</ele>
        <time>2022-01-06T10:16:44Z</time>
      </trkpt>
      <trkpt lat="45.8394" lon="6.30316">
        <ele>1453.2</ele>
        <time>2022-01-06T10:16:45Z</time>
      </trkpt>
      <trkpt lat="45.83942" lon="6.30315">
        <ele>1451</ele>
        <time>2022-01-06T10:16:46Z</time>
      </trkpt>
      <trkpt lat="45.83945" lon="6.30313">
        <ele>1451</ele>
        <time>2022-01-06T10:16:47Z</time>
      </trkpt>
      <trkpt lat="45.83948" lon="6.30311">
        <ele>1449</ele>
        <time>2022-01-06T10:16:48Z</time>
      </trkpt>
      <trkpt lat="45.8395" lon="6.30309">
        <ele>1449</ele>
        <time>2022-01-06T10:16:49Z</time>
      </trkpt>
      <trkpt lat="45.83953" lon="6.30307">
        <ele>1447.1</ele>
        <time>2022-01-06T10:16:50Z</time>
      </trkpt>
      <trkpt lat="45.83954" lon="6.30306">
        <ele>1447.1</ele>
        <time>2022-01-06T10:16:51Z</time>
      </trkpt>
      <trkpt lat="45.83955" lon="6.30305">
        <ele>1446.1</ele>
        <time>2022-01-06T10:16:52Z</time>
      </trkpt>
      <trkpt lat="45.83956" lon="6.30305">
        <ele>1446.1</ele>
        <time>2022-01-06T10:16:53Z</time>
      </trkpt>
      <trkpt lat="45.83956" lon="6.30304">
        <ele>1446.1</ele>
        <time>2022-01-06T10:16:54Z</time>
      </trkpt>
      <trkpt lat="45.83956" lon="6.30304">
        <ele>1446.1</ele>
        <time>2022-01-06T10:16:55Z</time>
      </trkpt>
      <trkpt lat="45.83956" lon="6.30304">
        <ele>1445.1</ele>
        <time>2022-01-06T10:16:56Z</time>
      </trkpt>
      <trkpt lat="45.83957" lon="6.30303">
        <ele>1445.1</ele>
        <time>2022-01-06T10:16:57Z</time>
      </trkpt>
      <trkpt lat="45.83958" lon="6.30302">
        <ele>1444.2</ele>
        <time>2022-01-06T10:16:58Z</time>
      </trkpt>
      <trkpt lat="45.83959" lon="6.30301">
        <ele>1444.2</ele>
        <time>2022-01-06T10:16:59Z</time>
      </trkpt>
      <trkpt lat="45.83962" lon="6.303">
        <ele>1442</ele>
        <time>2022-01-06T10:17:00Z</time>
      </trkpt>
      <trkpt lat="45.83965" lon="6.30299">
        <ele>1442</ele>
        <time>2022-01-06T10:17:01Z</time>
      </trkpt>
      <trkpt lat="45.83968" lon="6.30298">
        <ele>1440</ele>
        <time>2022-01-06T10:17:02Z</time>
      </trkpt>
      <trkpt lat="45.83972" lon="6.30297">
        <ele>1440</ele>
        <time>2022-01-06T10:17:03Z</time>
      </trkpt>
      <trkpt lat="45.83974" lon="6.30295">
        <ele>1438.1</ele>
        <time>2022-01-06T10:17:04Z</time>
      </trkpt>
      <trkpt lat="45.83978" lon="6.30293">
        <ele>1438.1</ele>
        <time>2022-01-06T10:17:05Z</time>
      </trkpt>
      <trkpt lat="45.83981" lon="6.30291">
        <ele>1437.1</ele>
        <time>2022-01-06T10:17:06Z</time>
      </trkpt>
      <trkpt lat="45.83983" lon="6.30288">
        <ele>1437.1</ele>
        <time>2022-01-06T10:17:07Z</time>
      </trkpt>
      <trkpt lat="45.83985" lon="6.30285">
        <ele>1435</ele>
        <time>2022-01-06T10:17:08Z</time>
      </trkpt>
      <trkpt lat="45.83987" lon="6.30283">
        <ele>1435</ele>
        <time>2022-01-06T10:17:09Z</time>
      </trkpt>
      <trkpt lat="45.83989" lon="6.3028">
        <ele>1433</ele>
        <time>2022-01-06T10:17:10Z</time>
      </trkpt>
      <trkpt lat="45.83992" lon="6.30277">
        <ele>1433</ele>
        <time>2022-01-06T10:17:11Z</time>
      </trkpt>
      <trkpt lat="45.83995" lon="6.30276">
        <ele>1431.1</ele>
        <time>2022-01-06T10:17:12Z</time>
      </trkpt>
      <trkpt lat="45.83997" lon="6.30276">
        <ele>1431.1</ele>
        <time>2022-01-06T10:17:13Z</time>
      </trkpt>
      <trkpt lat="45.83999" lon="6.30279">
        <ele>1431.1</ele>
        <time>2022-01-06T10:17:14Z</time>
      </trkpt>
      <trkpt lat="45.84" lon="6.30284">
        <ele>1431.1</ele>
        <time>2022-01-06T10:17:15Z</time>
      </trkpt>
      <trkpt lat="45.84001" lon="6.3029">
        <ele>1431.1</ele>
        <time>2022-01-06T10:17:16Z</time>
      </trkpt>
      <trkpt lat="45.84002" lon="6.30295">
        <ele>1431.1</ele>
        <time>2022-01-06T10:17:17Z</time>
      </trkpt>
      <trkpt lat="45.84003" lon="6.303">
        <ele>1425.1</ele>
        <time>2022-01-06T10:17:18Z</time>
      </trkpt>
      <trkpt lat="45.84004" lon="6.30304">
        <ele>1425.1</ele>
        <time>2022-01-06T10:17:19Z</time>
      </trkpt>
      <trkpt lat="45.84006" lon="6.30308">
        <ele>1424</ele>
        <time>2022-01-06T10:17:20Z</time>
      </trkpt>
      <trkpt lat="45.84007" lon="6.30309">
        <ele>1424</ele>
        <time>2022-01-06T10:17:21Z</time>
      </trkpt>
      <trkpt lat="45.84009" lon="6.3031">
        <ele>1424</ele>
        <time>2022-01-06T10:17:22Z</time>
      </trkpt>
      <trkpt lat="45.8401" lon="6.30312">
        <ele>1424</ele>
        <time>2022-01-06T10:17:23Z</time>
      </trkpt>
      <trkpt lat="45.8401" lon="6.30313">
        <ele>1424</ele>
        <time>2022-01-06T10:17:24Z</time>
      </trkpt>
      <trkpt lat="45.84011" lon="6.30315">
        <ele>1424</ele>
        <time>2022-01-06T10:17:25Z</time>
      </trkpt>
      <trkpt lat="45.84011" lon="6.30316">
        <ele>1420.1</ele>
        <time>2022-01-06T10:17:26Z</time>
      </trkpt>
      <trkpt lat="45.84011" lon="6.30316">
        <ele>1420.1</ele>
        <time>2022-01-06T10:17:27Z</time>
      </trkpt>
      <trkpt lat="45.84012" lon="6.30315">
        <ele>1420.1</ele>
        <time>2022-01-06T10:17:28Z</time>
      </trkpt>
      <trkpt lat="45.84012" lon="6.30315">
        <ele>1420.1</ele>
        <time>2022-01-06T10:17:29Z</time>
      </trkpt>
      <trkpt lat="45.84011" lon="6.30315">
        <ele>1419</ele>
        <time>2022-01-06T10:17:30Z</time>
      </trkpt>
      <trkpt lat="45.84011" lon="6.30315">
        <ele>1419</ele>
        <time>2022-01-06T10:17:31Z</time>
      </trkpt>
      <trkpt lat="45.84012" lon="6.30315">
        <ele>1419</ele>
        <time>2022-01-06T10:17:32Z</time>
      </trkpt>
      <trkpt lat="45.84012" lon="6.30315">
        <ele>1419</ele>
        <time>2022-01-06T10:17:33Z</time>
      </trkpt>
      <trkpt lat="45.84012" lon="6.30315">
        <ele>1419</ele>
        <time>2022-01-06T10:17:34Z</time>
      </trkpt>
      <trkpt lat="45.84012" lon="6.30315">
        <ele>1419</ele>
        <time>2022-01-06T10:17:35Z</time>
      </trkpt>
      <trkpt lat="45.84012" lon="6.30315">
        <ele>1419</ele>
        <time>2022-01-06T10:17:36Z</time>
      </trkpt>
      <trkpt lat="45.84012" lon="6.30315">
        <ele>1419</ele>
        <time>2022-01-06T10:17:37Z</time>
      </trkpt>
      <trkpt lat="45.84012" lon="6.30315">
        <ele>1419</ele>
        <time>2022-01-06T10:17:38Z</time>
      </trkpt>
      <trkpt lat="45.84012" lon="6.30315">
        <ele>1419</ele>
        <time>2022-01-06T10:17:39Z</time>
      </trkpt>
      <trkpt lat="45.84012" lon="6.30315">
        <ele>1419</ele>
        <time>2022-01-06T10:17:40Z</time>
      </trkpt>
      <trkpt lat="45.84012" lon="6.30315">
        <ele>1419</ele>
        <time>2022-01-06T10:17:41Z</time>
      </trkpt>
      <trkpt lat="45.84012" lon="6.30315">
        <ele>1419</ele>
        <time>2022-01-06T10:17:42Z</time>
      </trkpt>
      <trkpt lat="45.84012" lon="6.30315">
        <ele>1419</ele>
        <time>2022-01-06T10:17:43Z</time>
      </trkpt>
      <trkpt lat="45.84012" lon="6.30315">
        <ele>1418.1</ele>
        <time>2022-01-06T10:17:44Z</time>
      </trkpt>
      <trkpt lat="45.84012" lon="6.30315">
        <ele>1418.1</ele>
        <time>2022-01-06T10:17:45Z</time>
      </trkpt>
      <trkpt lat="45.84012" lon="6.30315">
        <ele>1416.1</ele>
        <time>2022-01-06T10:17:46Z</time>
      </trkpt>
      <trkpt lat="45.8401" lon="6.30318">
        <ele>1416.1</ele>
        <time>2022-01-06T10:17:47Z</time>
      </trkpt>
      <trkpt lat="45.8401" lon="6.3032">
        <ele>1416.1</ele>
        <time>2022-01-06T10:17:48Z</time>
      </trkpt>
      <trkpt lat="45.84009" lon="6.30321">
        <ele>1416.1</ele>
        <time>2022-01-06T10:17:49Z</time>
      </trkpt>
      <trkpt lat="45.8401" lon="6.30321">
        <ele>1416.1</ele>
        <time>2022-01-06T10:17:50Z</time>
      </trkpt>
      <trkpt lat="45.84009" lon="6.30322">
        <ele>1416.1</ele>
        <time>2022-01-06T10:17:51Z</time>
      </trkpt>
      <trkpt lat="45.84009" lon="6.30322">
        <ele>1416.1</ele>
        <time>2022-01-06T10:17:52Z</time>
      </trkpt>
      <trkpt lat="45.84009" lon="6.30322">
        <ele>1416.1</ele>
        <time>2022-01-06T10:17:53Z</time>
      </trkpt>
      <trkpt lat="45.84008" lon="6.30323">
        <ele>1416.1</ele>
        <time>2022-01-06T10:17:54Z</time>
      </trkpt>
      <trkpt lat="45.84008" lon="6.30323">
        <ele>1416.1</ele>
        <time>2022-01-06T10:17:55Z</time>
      </trkpt>
      <trkpt lat="45.84009" lon="6.30323">
        <ele>1416.1</ele>
        <time>2022-01-06T10:17:56Z</time>
      </trkpt>
      <trkpt lat="45.84009" lon="6.30323">
        <ele>1416.1</ele>
        <time>2022-01-06T10:17:57Z</time>
      </trkpt>
      <trkpt lat="45.84009" lon="6.30325">
        <ele>1415.1</ele>
        <time>2022-01-06T10:17:58Z</time>
      </trkpt>
      <trkpt lat="45.84009" lon="6.30327">
        <ele>1415.1</ele>
        <time>2022-01-06T10:17:59Z</time>
      </trkpt>
      <trkpt lat="45.84007" lon="6.3033">
        <ele>1413.1</ele>
        <time>2022-01-06T10:18:00Z</time>
      </trkpt>
      <trkpt lat="45.84006" lon="6.30332">
        <ele>1413.1</ele>
        <time>2022-01-06T10:18:01Z</time>
      </trkpt>
      <trkpt lat="45.84005" lon="6.30334">
        <ele>1412.2</ele>
        <time>2022-01-06T10:18:02Z</time>
      </trkpt>
      <trkpt lat="45.84003" lon="6.30336">
        <ele>1412.2</ele>
        <time>2022-01-06T10:18:03Z</time>
      </trkpt>
      <trkpt lat="45.84003" lon="6.30337">
        <ele>1411.1</ele>
        <time>2022-01-06T10:18:04Z</time>
      </trkpt>
      <trkpt lat="45.84002" lon="6.30339">
        <ele>1411.1</ele>
        <time>2022-01-06T10:18:05Z</time>
      </trkpt>
      <trkpt lat="45.84002" lon="6.30342">
        <ele>1410</ele>
        <time>2022-01-06T10:18:06Z</time>
      </trkpt>
      <trkpt lat="45.84002" lon="6.30345">
        <ele>1410</ele>
        <time>2022-01-06T10:18:07Z</time>
      </trkpt>
      <trkpt lat="45.84001" lon="6.30349">
        <ele>1409.1</ele>
        <time>2022-01-06T10:18:08Z</time>
      </trkpt>
      <trkpt lat="45.84001" lon="6.30353">
        <ele>1409.1</ele>
        <time>2022-01-06T10:18:09Z</time>
      </trkpt>
      <trkpt lat="45.84" lon="6.30357">
        <ele>1407.1</ele>
        <time>2022-01-06T10:18:10Z</time>
      </trkpt>
      <trkpt lat="45.83999" lon="6.30361">
        <ele>1407.1</ele>
        <time>2022-01-06T10:18:11Z</time>
      </trkpt>
      <trkpt lat="45.83997" lon="6.30365">
        <ele>1405.1</ele>
        <time>2022-01-06T10:18:12Z</time>
      </trkpt>
      <trkpt lat="45.83995" lon="6.30369">
        <ele>1405.1</ele>
        <time>2022-01-06T10:18:13Z</time>
      </trkpt>
      <trkpt lat="45.83994" lon="6.30372">
        <ele>1404.1</ele>
        <time>2022-01-06T10:18:14Z</time>
      </trkpt>
      <trkpt lat="45.83993" lon="6.30375">
        <ele>1404.1</ele>
        <time>2022-01-06T10:18:15Z</time>
      </trkpt>
      <trkpt lat="45.83992" lon="6.30375">
        <ele>1403</ele>
        <time>2022-01-06T10:18:16Z</time>
      </trkpt>
      <trkpt lat="45.83992" lon="6.30376">
        <ele>1403</ele>
        <time>2022-01-06T10:18:17Z</time>
      </trkpt>
      <trkpt lat="45.83992" lon="6.30376">
        <ele>1403</ele>
        <time>2022-01-06T10:18:18Z</time>
      </trkpt>
      <trkpt lat="45.83992" lon="6.30376">
        <ele>1403</ele>
        <time>2022-01-06T10:18:19Z</time>
      </trkpt>
      <trkpt lat="45.83992" lon="6.30375">
        <ele>1403</ele>
        <time>2022-01-06T10:18:20Z</time>
      </trkpt>
      <trkpt lat="45.83992" lon="6.30376">
        <ele>1403</ele>
        <time>2022-01-06T10:18:21Z</time>
      </trkpt>
      <trkpt lat="45.83992" lon="6.30376">
        <ele>1402.1</ele>
        <time>2022-01-06T10:18:22Z</time>
      </trkpt>
      <trkpt lat="45.83992" lon="6.30377">
        <ele>1402.1</ele>
        <time>2022-01-06T10:18:23Z</time>
      </trkpt>
      <trkpt lat="45.83991" lon="6.3038">
        <ele>1401</ele>
        <time>2022-01-06T10:18:24Z</time>
      </trkpt>
      <trkpt lat="45.8399" lon="6.30383">
        <ele>1401</ele>
        <time>2022-01-06T10:18:25Z</time>
      </trkpt>
      <trkpt lat="45.83989" lon="6.30386">
        <ele>1400.1</ele>
        <time>2022-01-06T10:18:26Z</time>
      </trkpt>
      <trkpt lat="45.83989" lon="6.30389">
        <ele>1400.1</ele>
        <time>2022-01-06T10:18:27Z</time>
      </trkpt>
      <trkpt lat="45.83988" lon="6.30394">
        <ele>1400.1</ele>
        <time>2022-01-06T10:18:28Z</time>
      </trkpt>
      <trkpt lat="45.83988" lon="6.304">
        <ele>1400.1</ele>
        <time>2022-01-06T10:18:29Z</time>
      </trkpt>
      <trkpt lat="45.83987" lon="6.30403">
        <ele>1400.1</ele>
        <time>2022-01-06T10:18:30Z</time>
      </trkpt>
      <trkpt lat="45.83987" lon="6.30405">
        <ele>1400.1</ele>
        <time>2022-01-06T10:18:31Z</time>
      </trkpt>
      <trkpt lat="45.83987" lon="6.30407">
        <ele>1397.1</ele>
        <time>2022-01-06T10:18:32Z</time>
      </trkpt>
      <trkpt lat="45.83987" lon="6.30407">
        <ele>1397.1</ele>
        <time>2022-01-06T10:18:33Z</time>
      </trkpt>
      <trkpt lat="45.83987" lon="6.30407">
        <ele>1397.1</ele>
        <time>2022-01-06T10:18:34Z</time>
      </trkpt>
      <trkpt lat="45.83987" lon="6.30407">
        <ele>1397.1</ele>
        <time>2022-01-06T10:18:35Z</time>
      </trkpt>
      <trkpt lat="45.83987" lon="6.30407">
        <ele>1397.1</ele>
        <time>2022-01-06T10:18:36Z</time>
      </trkpt>
      <trkpt lat="45.83987" lon="6.30406">
        <ele>1397.1</ele>
        <time>2022-01-06T10:18:37Z</time>
      </trkpt>
      <trkpt lat="45.83986" lon="6.30407">
        <ele>1397.1</ele>
        <time>2022-01-06T10:18:38Z</time>
      </trkpt>
      <trkpt lat="45.83987" lon="6.30408">
        <ele>1397.1</ele>
        <time>2022-01-06T10:18:39Z</time>
      </trkpt>
      <trkpt lat="45.83987" lon="6.30409">
        <ele>1397.1</ele>
        <time>2022-01-06T10:18:40Z</time>
      </trkpt>
      <trkpt lat="45.83987" lon="6.30409">
        <ele>1397.1</ele>
        <time>2022-01-06T10:18:41Z</time>
      </trkpt>
      <trkpt lat="45.83987" lon="6.30409">
        <ele>1397.1</ele>
        <time>2022-01-06T10:18:42Z</time>
      </trkpt>
      <trkpt lat="45.83987" lon="6.30409">
        <ele>1397.1</ele>
        <time>2022-01-06T10:18:43Z</time>
      </trkpt>
      <trkpt lat="45.83986" lon="6.30409">
        <ele>1397.1</ele>
        <time>2022-01-06T10:18:44Z</time>
      </trkpt>
      <trkpt lat="45.83986" lon="6.3041">
        <ele>1397.1</ele>
        <time>2022-01-06T10:18:45Z</time>
      </trkpt>
      <trkpt lat="45.83986" lon="6.3041">
        <ele>1397.1</ele>
        <time>2022-01-06T10:18:46Z</time>
      </trkpt>
      <trkpt lat="45.83987" lon="6.30409">
        <ele>1397.1</ele>
        <time>2022-01-06T10:18:47Z</time>
      </trkpt>
      <trkpt lat="45.83988" lon="6.30408">
        <ele>1397.1</ele>
        <time>2022-01-06T10:18:48Z</time>
      </trkpt>
      <trkpt lat="45.83989" lon="6.30408">
        <ele>1397.1</ele>
        <time>2022-01-06T10:18:49Z</time>
      </trkpt>
      <trkpt lat="45.83989" lon="6.30409">
        <ele>1397.1</ele>
        <time>2022-01-06T10:18:50Z</time>
      </trkpt>
      <trkpt lat="45.83988" lon="6.30409">
        <ele>1397.1</ele>
        <time>2022-01-06T10:18:51Z</time>
      </trkpt>
      <trkpt lat="45.83988" lon="6.30409">
        <ele>1397.1</ele>
        <time>2022-01-06T10:18:52Z</time>
      </trkpt>
      <trkpt lat="45.83987" lon="6.30409">
        <ele>1397.1</ele>
        <time>2022-01-06T10:18:53Z</time>
      </trkpt>
      <trkpt lat="45.83987" lon="6.30407">
        <ele>1397.1</ele>
        <time>2022-01-06T10:18:54Z</time>
      </trkpt>
      <trkpt lat="45.83987" lon="6.30406">
        <ele>1397.1</ele>
        <time>2022-01-06T10:18:55Z</time>
      </trkpt>
      <trkpt lat="45.83987" lon="6.30407">
        <ele>1396.2</ele>
        <time>2022-01-06T10:18:56Z</time>
      </trkpt>
      <trkpt lat="45.83987" lon="6.30407">
        <ele>1396.2</ele>
        <time>2022-01-06T10:18:57Z</time>
      </trkpt>
      <trkpt lat="45.83988" lon="6.30407">
        <ele>1396.2</ele>
        <time>2022-01-06T10:18:58Z</time>
      </trkpt>
      <trkpt lat="45.83988" lon="6.30407">
        <ele>1396.2</ele>
        <time>2022-01-06T10:18:59Z</time>
      </trkpt>
      <trkpt lat="45.83988" lon="6.30408">
        <ele>1396.2</ele>
        <time>2022-01-06T10:19:00Z</time>
      </trkpt>
      <trkpt lat="45.83988" lon="6.30408">
        <ele>1396.2</ele>
        <time>2022-01-06T10:19:01Z</time>
      </trkpt>
      <trkpt lat="45.83988" lon="6.30408">
        <ele>1396.2</ele>
        <time>2022-01-06T10:19:02Z</time>
      </trkpt>
      <trkpt lat="45.83988" lon="6.30408">
        <ele>1396.2</ele>
        <time>2022-01-06T10:19:03Z</time>
      </trkpt>
      <trkpt lat="45.83988" lon="6.30408">
        <ele>1396.2</ele>
        <time>2022-01-06T10:19:04Z</time>
      </trkpt>
      <trkpt lat="45.83988" lon="6.30408">
        <ele>1396.2</ele>
        <time>2022-01-06T10:19:05Z</time>
      </trkpt>
      <trkpt lat="45.83988" lon="6.30408">
        <ele>1396.2</ele>
        <time>2022-01-06T10:19:06Z</time>
      </trkpt>
      <trkpt lat="45.83988" lon="6.30408">
        <ele>1396.2</ele>
        <time>2022-01-06T10:19:07Z</time>
      </trkpt>
      <trkpt lat="45.83988" lon="6.30408">
        <ele>1396.2</ele>
        <time>2022-01-06T10:19:08Z</time>
      </trkpt>
      <trkpt lat="45.83988" lon="6.30408">
        <ele>1396.2</ele>
        <time>2022-01-06T10:19:09Z</time>
      </trkpt>
      <trkpt lat="45.83988" lon="6.30408">
        <ele>1396.2</ele>
        <time>2022-01-06T10:19:10Z</time>
      </trkpt>
      <trkpt lat="45.83988" lon="6.30408">
        <ele>1396.2</ele>
        <time>2022-01-06T10:19:11Z</time>
      </trkpt>
      <trkpt lat="45.83988" lon="6.30408">
        <ele>1396.2</ele>
        <time>2022-01-06T10:19:12Z</time>
      </trkpt>
      <trkpt lat="45.83988" lon="6.30408">
        <ele>1396.2</ele>
        <time>2022-01-06T10:19:13Z</time>
      </trkpt>
      <trkpt lat="45.83988" lon="6.30407">
        <ele>1396.2</ele>
        <time>2022-01-06T10:19:14Z</time>
      </trkpt>
      <trkpt lat="45.83988" lon="6.30407">
        <ele>1396.2</ele>
        <time>2022-01-06T10:19:15Z</time>
      </trkpt>
      <trkpt lat="45.83988" lon="6.30407">
        <ele>1396.2</ele>
        <time>2022-01-06T10:19:16Z</time>
      </trkpt>
      <trkpt lat="45.83988" lon="6.30407">
        <ele>1395.1</ele>
        <time>2022-01-06T10:19:17Z</time>
      </trkpt>
      <trkpt lat="45.83989" lon="6.30409">
        <ele>1395.1</ele>
        <time>2022-01-06T10:19:18Z</time>
      </trkpt>
      <trkpt lat="45.8399" lon="6.30411">
        <ele>1394</ele>
        <time>2022-01-06T10:19:19Z</time>
      </trkpt>
      <trkpt lat="45.83991" lon="6.30412">
        <ele>1394</ele>
        <time>2022-01-06T10:19:20Z</time>
      </trkpt>
      <trkpt lat="45.83991" lon="6.30414">
        <ele>1393.1</ele>
        <time>2022-01-06T10:19:21Z</time>
      </trkpt>
      <trkpt lat="45.83991" lon="6.30417">
        <ele>1393.1</ele>
        <time>2022-01-06T10:19:22Z</time>
      </trkpt>
      <trkpt lat="45.8399" lon="6.30419">
        <ele>1392</ele>
        <time>2022-01-06T10:19:23Z</time>
      </trkpt>
      <trkpt lat="45.83989" lon="6.30421">
        <ele>1392</ele>
        <time>2022-01-06T10:19:24Z</time>
      </trkpt>
      <trkpt lat="45.83988" lon="6.30423">
        <ele>1391.1</ele>
        <time>2022-01-06T10:19:25Z</time>
      </trkpt>
      <trkpt lat="45.83986" lon="6.30426">
        <ele>1391.1</ele>
        <time>2022-01-06T10:19:26Z</time>
      </trkpt>
      <trkpt lat="45.83984" lon="6.30428">
        <ele>1391.1</ele>
        <time>2022-01-06T10:19:27Z</time>
      </trkpt>
      <trkpt lat="45.83981" lon="6.30432">
        <ele>1391.1</ele>
        <time>2022-01-06T10:19:28Z</time>
      </trkpt>
      <trkpt lat="45.83979" lon="6.30436">
        <ele>1391.1</ele>
        <time>2022-01-06T10:19:29Z</time>
      </trkpt>
      <trkpt lat="45.83977" lon="6.30439">
        <ele>1391.1</ele>
        <time>2022-01-06T10:19:30Z</time>
      </trkpt>
      <trkpt lat="45.83974" lon="6.30442">
        <ele>1385</ele>
        <time>2022-01-06T10:19:31Z</time>
      </trkpt>
      <trkpt lat="45.83972" lon="6.30445">
        <ele>1385</ele>
        <time>2022-01-06T10:19:32Z</time>
      </trkpt>
      <trkpt lat="45.83971" lon="6.30448">
        <ele>1383</ele>
        <time>2022-01-06T10:19:33Z</time>
      </trkpt>
      <trkpt lat="45.83969" lon="6.30451">
        <ele>1383</ele>
        <time>2022-01-06T10:19:34Z</time>
      </trkpt>
      <trkpt lat="45.83968" lon="6.30455">
        <ele>1383</ele>
        <time>2022-01-06T10:19:35Z</time>
      </trkpt>
      <trkpt lat="45.83967" lon="6.30459">
        <ele>1383</ele>
        <time>2022-01-06T10:19:36Z</time>
      </trkpt>
      <trkpt lat="45.83965" lon="6.30462">
        <ele>1383</ele>
        <time>2022-01-06T10:19:37Z</time>
      </trkpt>
      <trkpt lat="45.83963" lon="6.30466">
        <ele>1383</ele>
        <time>2022-01-06T10:19:38Z</time>
      </trkpt>
      <trkpt lat="45.83961" lon="6.3047">
        <ele>1378</ele>
        <time>2022-01-06T10:19:39Z</time>
      </trkpt>
      <trkpt lat="45.83958" lon="6.30474">
        <ele>1378</ele>
        <time>2022-01-06T10:19:40Z</time>
      </trkpt>
      <trkpt lat="45.83956" lon="6.30478">
        <ele>1376</ele>
        <time>2022-01-06T10:19:41Z</time>
      </trkpt>
      <trkpt lat="45.83954" lon="6.30482">
        <ele>1376</ele>
        <time>2022-01-06T10:19:42Z</time>
      </trkpt>
      <trkpt lat="45.83953" lon="6.30485">
        <ele>1374.1</ele>
        <time>2022-01-06T10:19:43Z</time>
      </trkpt>
      <trkpt lat="45.83952" lon="6.30487">
        <ele>1374.1</ele>
        <time>2022-01-06T10:19:44Z</time>
      </trkpt>
      <trkpt lat="45.83952" lon="6.30489">
        <ele>1373.1</ele>
        <time>2022-01-06T10:19:45Z</time>
      </trkpt>
      <trkpt lat="45.83951" lon="6.30491">
        <ele>1373.1</ele>
        <time>2022-01-06T10:19:46Z</time>
      </trkpt>
      <trkpt lat="45.83951" lon="6.30493">
        <ele>1372.1</ele>
        <time>2022-01-06T10:19:47Z</time>
      </trkpt>
      <trkpt lat="45.8395" lon="6.30495">
        <ele>1372.1</ele>
        <time>2022-01-06T10:19:48Z</time>
      </trkpt>
      <trkpt lat="45.8395" lon="6.30498">
        <ele>1371.2</ele>
        <time>2022-01-06T10:19:49Z</time>
      </trkpt>
      <trkpt lat="45.8395" lon="6.30501">
        <ele>1371.2</ele>
        <time>2022-01-06T10:19:50Z</time>
      </trkpt>
      <trkpt lat="45.8395" lon="6.30503">
        <ele>1371.2</ele>
        <time>2022-01-06T10:19:51Z</time>
      </trkpt>
      <trkpt lat="45.83949" lon="6.30504">
        <ele>1371.2</ele>
        <time>2022-01-06T10:19:52Z</time>
      </trkpt>
      <trkpt lat="45.83949" lon="6.30506">
        <ele>1369</ele>
        <time>2022-01-06T10:19:53Z</time>
      </trkpt>
      <trkpt lat="45.83949" lon="6.30509">
        <ele>1369</ele>
        <time>2022-01-06T10:19:54Z</time>
      </trkpt>
      <trkpt lat="45.83948" lon="6.30513">
        <ele>1368.1</ele>
        <time>2022-01-06T10:19:55Z</time>
      </trkpt>
      <trkpt lat="45.83947" lon="6.30516">
        <ele>1368.1</ele>
        <time>2022-01-06T10:19:56Z</time>
      </trkpt>
      <trkpt lat="45.83945" lon="6.30519">
        <ele>1367</ele>
        <time>2022-01-06T10:19:57Z</time>
      </trkpt>
      <trkpt lat="45.83943" lon="6.30522">
        <ele>1367</ele>
        <time>2022-01-06T10:19:58Z</time>
      </trkpt>
      <trkpt lat="45.83941" lon="6.30523">
        <ele>1366.1</ele>
        <time>2022-01-06T10:19:59Z</time>
      </trkpt>
      <trkpt lat="45.83939" lon="6.30524">
        <ele>1366.1</ele>
        <time>2022-01-06T10:20:00Z</time>
      </trkpt>
      <trkpt lat="45.83938" lon="6.30525">
        <ele>1365.1</ele>
        <time>2022-01-06T10:20:01Z</time>
      </trkpt>
      <trkpt lat="45.83937" lon="6.30526">
        <ele>1365.1</ele>
        <time>2022-01-06T10:20:02Z</time>
      </trkpt>
      <trkpt lat="45.83936" lon="6.30528">
        <ele>1364.1</ele>
        <time>2022-01-06T10:20:03Z</time>
      </trkpt>
      <trkpt lat="45.83935" lon="6.30529">
        <ele>1364.1</ele>
        <time>2022-01-06T10:20:04Z</time>
      </trkpt>
      <trkpt lat="45.83933" lon="6.3053">
        <ele>1362</ele>
        <time>2022-01-06T10:20:05Z</time>
      </trkpt>
      <trkpt lat="45.83931" lon="6.30532">
        <ele>1362</ele>
        <time>2022-01-06T10:20:06Z</time>
      </trkpt>
      <trkpt lat="45.83929" lon="6.30534">
        <ele>1361.1</ele>
        <time>2022-01-06T10:20:07Z</time>
      </trkpt>
      <trkpt lat="45.83927" lon="6.30536">
        <ele>1361.1</ele>
        <time>2022-01-06T10:20:08Z</time>
      </trkpt>
      <trkpt lat="45.83926" lon="6.30538">
        <ele>1359.1</ele>
        <time>2022-01-06T10:20:09Z</time>
      </trkpt>
      <trkpt lat="45.83925" lon="6.30539">
        <ele>1359.1</ele>
        <time>2022-01-06T10:20:10Z</time>
      </trkpt>
      <trkpt lat="45.83924" lon="6.30542">
        <ele>1358.1</ele>
        <time>2022-01-06T10:20:11Z</time>
      </trkpt>
      <trkpt lat="45.83923" lon="6.30544">
        <ele>1358.1</ele>
        <time>2022-01-06T10:20:12Z</time>
      </trkpt>
      <trkpt lat="45.83921" lon="6.30546">
        <ele>1356.1</ele>
        <time>2022-01-06T10:20:13Z</time>
      </trkpt>
      <trkpt lat="45.83921" lon="6.30547">
        <ele>1356.1</ele>
        <time>2022-01-06T10:20:14Z</time>
      </trkpt>
      <trkpt lat="45.8392" lon="6.30549">
        <ele>1355.2</ele>
        <time>2022-01-06T10:20:15Z</time>
      </trkpt>
      <trkpt lat="45.83919" lon="6.30551">
        <ele>1355.2</ele>
        <time>2022-01-06T10:20:16Z</time>
      </trkpt>
      <trkpt lat="45.83918" lon="6.30552">
        <ele>1354.1</ele>
        <time>2022-01-06T10:20:17Z</time>
      </trkpt>
      <trkpt lat="45.83917" lon="6.30554">
        <ele>1354.1</ele>
        <time>2022-01-06T10:20:18Z</time>
      </trkpt>
      <trkpt lat="45.83916" lon="6.30555">
        <ele>1352.1</ele>
        <time>2022-01-06T10:20:19Z</time>
      </trkpt>
      <trkpt lat="45.83915" lon="6.30556">
        <ele>1352.1</ele>
        <time>2022-01-06T10:20:20Z</time>
      </trkpt>
      <trkpt lat="45.83915" lon="6.30557">
        <ele>1351</ele>
        <time>2022-01-06T10:20:21Z</time>
      </trkpt>
      <trkpt lat="45.83914" lon="6.30558">
        <ele>1351</ele>
        <time>2022-01-06T10:20:22Z</time>
      </trkpt>
      <trkpt lat="45.83913" lon="6.3056">
        <ele>1350.1</ele>
        <time>2022-01-06T10:20:23Z</time>
      </trkpt>
      <trkpt lat="45.83913" lon="6.3056">
        <ele>1350.1</ele>
        <time>2022-01-06T10:20:24Z</time>
      </trkpt>
      <trkpt lat="45.83913" lon="6.3056">
        <ele>1349.1</ele>
        <time>2022-01-06T10:20:25Z</time>
      </trkpt>
      <trkpt lat="45.83912" lon="6.30561">
        <ele>1349.1</ele>
        <time>2022-01-06T10:20:26Z</time>
      </trkpt>
      <trkpt lat="45.83912" lon="6.30561">
        <ele>1348.1</ele>
        <time>2022-01-06T10:20:27Z</time>
      </trkpt>
      <trkpt lat="45.83911" lon="6.30562">
        <ele>1348.1</ele>
        <time>2022-01-06T10:20:28Z</time>
      </trkpt>
      <trkpt lat="45.8391" lon="6.30562">
        <ele>1347.1</ele>
        <time>2022-01-06T10:20:29Z</time>
      </trkpt>
      <trkpt lat="45.8391" lon="6.30563">
        <ele>1347.1</ele>
        <time>2022-01-06T10:20:30Z</time>
      </trkpt>
      <trkpt lat="45.8391" lon="6.30564">
        <ele>1347.1</ele>
        <time>2022-01-06T10:20:31Z</time>
      </trkpt>
      <trkpt lat="45.8391" lon="6.30565">
        <ele>1347.1</ele>
        <time>2022-01-06T10:20:32Z</time>
      </trkpt>
      <trkpt lat="45.8391" lon="6.30566">
        <ele>1346</ele>
        <time>2022-01-06T10:20:33Z</time>
      </trkpt>
      <trkpt lat="45.8391" lon="6.30567">
        <ele>1346</ele>
        <time>2022-01-06T10:20:34Z</time>
      </trkpt>
      <trkpt lat="45.83909" lon="6.30568">
        <ele>1345.1</ele>
        <time>2022-01-06T10:20:35Z</time>
      </trkpt>
      <trkpt lat="45.83908" lon="6.30569">
        <ele>1345.1</ele>
        <time>2022-01-06T10:20:36Z</time>
      </trkpt>
      <trkpt lat="45.83907" lon="6.3057">
        <ele>1344</ele>
        <time>2022-01-06T10:20:37Z</time>
      </trkpt>
      <trkpt lat="45.83907" lon="6.30572">
        <ele>1344</ele>
        <time>2022-01-06T10:20:38Z</time>
      </trkpt>
      <trkpt lat="45.83907" lon="6.30574">
        <ele>1343.1</ele>
        <time>2022-01-06T10:20:39Z</time>
      </trkpt>
      <trkpt lat="45.83907" lon="6.30576">
        <ele>1343.1</ele>
        <time>2022-01-06T10:20:40Z</time>
      </trkpt>
      <trkpt lat="45.83906" lon="6.30579">
        <ele>1342.1</ele>
        <time>2022-01-06T10:20:41Z</time>
      </trkpt>
      <trkpt lat="45.83906" lon="6.30583">
        <ele>1342.1</ele>
        <time>2022-01-06T10:20:42Z</time>
      </trkpt>
      <trkpt lat="45.83907" lon="6.30585">
        <ele>1341.1</ele>
        <time>2022-01-06T10:20:43Z</time>
      </trkpt>
      <trkpt lat="45.83907" lon="6.30589">
        <ele>1341.1</ele>
        <time>2022-01-06T10:20:44Z</time>
      </trkpt>
      <trkpt lat="45.83908" lon="6.30592">
        <ele>1341.1</ele>
        <time>2022-01-06T10:20:45Z</time>
      </trkpt>
      <trkpt lat="45.83908" lon="6.30594">
        <ele>1341.1</ele>
        <time>2022-01-06T10:20:46Z</time>
      </trkpt>
      <trkpt lat="45.83908" lon="6.30595">
        <ele>1341.1</ele>
        <time>2022-01-06T10:20:47Z</time>
      </trkpt>
      <trkpt lat="45.83908" lon="6.30597">
        <ele>1341.1</ele>
        <time>2022-01-06T10:20:48Z</time>
      </trkpt>
      <trkpt lat="45.83908" lon="6.30599">
        <ele>1337</ele>
        <time>2022-01-06T10:20:49Z</time>
      </trkpt>
      <trkpt lat="45.83907" lon="6.30604">
        <ele>1337</ele>
        <time>2022-01-06T10:20:50Z</time>
      </trkpt>
      <trkpt lat="45.83906" lon="6.30608">
        <ele>1336.1</ele>
        <time>2022-01-06T10:20:51Z</time>
      </trkpt>
      <trkpt lat="45.83904" lon="6.30612">
        <ele>1336.1</ele>
        <time>2022-01-06T10:20:52Z</time>
      </trkpt>
      <trkpt lat="45.83902" lon="6.30616">
        <ele>1336.1</ele>
        <time>2022-01-06T10:20:53Z</time>
      </trkpt>
      <trkpt lat="45.83899" lon="6.3062">
        <ele>1336.1</ele>
        <time>2022-01-06T10:20:54Z</time>
      </trkpt>
      <trkpt lat="45.83897" lon="6.30623">
        <ele>1336.1</ele>
        <time>2022-01-06T10:20:55Z</time>
      </trkpt>
      <trkpt lat="45.83894" lon="6.30628">
        <ele>1336.1</ele>
        <time>2022-01-06T10:20:56Z</time>
      </trkpt>
      <trkpt lat="45.83892" lon="6.30632">
        <ele>1332.1</ele>
        <time>2022-01-06T10:20:57Z</time>
      </trkpt>
      <trkpt lat="45.83889" lon="6.30639">
        <ele>1332.1</ele>
        <time>2022-01-06T10:20:58Z</time>
      </trkpt>
      <trkpt lat="45.83889" lon="6.30644">
        <ele>1330</ele>
        <time>2022-01-06T10:20:59Z</time>
      </trkpt>
      <trkpt lat="45.83888" lon="6.30649">
        <ele>1330</ele>
        <time>2022-01-06T10:21:00Z</time>
      </trkpt>
      <trkpt lat="45.83887" lon="6.30651">
        <ele>1330</ele>
        <time>2022-01-06T10:21:01Z</time>
      </trkpt>
      <trkpt lat="45.83887" lon="6.30653">
        <ele>1330</ele>
        <time>2022-01-06T10:21:02Z</time>
      </trkpt>
      <trkpt lat="45.83887" lon="6.30654">
        <ele>1329.1</ele>
        <time>2022-01-06T10:21:03Z</time>
      </trkpt>
      <trkpt lat="45.83887" lon="6.30654">
        <ele>1329.1</ele>
        <time>2022-01-06T10:21:04Z</time>
      </trkpt>
      <trkpt lat="45.83888" lon="6.30654">
        <ele>1329.1</ele>
        <time>2022-01-06T10:21:05Z</time>
      </trkpt>
      <trkpt lat="45.83887" lon="6.30654">
        <ele>1329.1</ele>
        <time>2022-01-06T10:21:06Z</time>
      </trkpt>
      <trkpt lat="45.83887" lon="6.30654">
        <ele>1329.1</ele>
        <time>2022-01-06T10:21:07Z</time>
      </trkpt>
      <trkpt lat="45.83887" lon="6.30654">
        <ele>1329.1</ele>
        <time>2022-01-06T10:21:08Z</time>
      </trkpt>
      <trkpt lat="45.83888" lon="6.30654">
        <ele>1329.1</ele>
        <time>2022-01-06T10:21:09Z</time>
      </trkpt>
      <trkpt lat="45.83888" lon="6.30654">
        <ele>1329.1</ele>
        <time>2022-01-06T10:21:10Z</time>
      </trkpt>
      <trkpt lat="45.83889" lon="6.30656">
        <ele>1329.1</ele>
        <time>2022-01-06T10:21:11Z</time>
      </trkpt>
      <trkpt lat="45.83889" lon="6.30657">
        <ele>1329.1</ele>
        <time>2022-01-06T10:21:12Z</time>
      </trkpt>
      <trkpt lat="45.83889" lon="6.30657">
        <ele>1329.1</ele>
        <time>2022-01-06T10:21:13Z</time>
      </trkpt>
      <trkpt lat="45.8389" lon="6.30658">
        <ele>1329.1</ele>
        <time>2022-01-06T10:21:14Z</time>
      </trkpt>
      <trkpt lat="45.83889" lon="6.30658">
        <ele>1329.1</ele>
        <time>2022-01-06T10:21:15Z</time>
      </trkpt>
      <trkpt lat="45.83889" lon="6.3066">
        <ele>1329.1</ele>
        <time>2022-01-06T10:21:16Z</time>
      </trkpt>
      <trkpt lat="45.83889" lon="6.3066">
        <ele>1328</ele>
        <time>2022-01-06T10:21:17Z</time>
      </trkpt>
      <trkpt lat="45.83888" lon="6.30661">
        <ele>1328</ele>
        <time>2022-01-06T10:21:18Z</time>
      </trkpt>
      <trkpt lat="45.83888" lon="6.30662">
        <ele>1328</ele>
        <time>2022-01-06T10:21:19Z</time>
      </trkpt>
      <trkpt lat="45.83887" lon="6.30662">
        <ele>1328</ele>
        <time>2022-01-06T10:21:20Z</time>
      </trkpt>
      <trkpt lat="45.83887" lon="6.30664">
        <ele>1327.1</ele>
        <time>2022-01-06T10:21:21Z</time>
      </trkpt>
      <trkpt lat="45.83889" lon="6.30667">
        <ele>1327.1</ele>
        <time>2022-01-06T10:21:22Z</time>
      </trkpt>
      <trkpt lat="45.83889" lon="6.30672">
        <ele>1325.1</ele>
        <time>2022-01-06T10:21:23Z</time>
      </trkpt>
      <trkpt lat="45.83888" lon="6.30676">
        <ele>1325.1</ele>
        <time>2022-01-06T10:21:24Z</time>
      </trkpt>
      <trkpt lat="45.83886" lon="6.30679">
        <ele>1323.2</ele>
        <time>2022-01-06T10:21:25Z</time>
      </trkpt>
      <trkpt lat="45.83884" lon="6.30683">
        <ele>1323.2</ele>
        <time>2022-01-06T10:21:26Z</time>
      </trkpt>
      <trkpt lat="45.83882" lon="6.30686">
        <ele>1322.1</ele>
        <time>2022-01-06T10:21:27Z</time>
      </trkpt>
      <trkpt lat="45.83881" lon="6.30689">
        <ele>1322.1</ele>
        <time>2022-01-06T10:21:28Z</time>
      </trkpt>
      <trkpt lat="45.83881" lon="6.30693">
        <ele>1319</ele>
        <time>2022-01-06T10:21:29Z</time>
      </trkpt>
      <trkpt lat="45.8388" lon="6.30698">
        <ele>1319</ele>
        <time>2022-01-06T10:21:30Z</time>
      </trkpt>
      <trkpt lat="45.8388" lon="6.30702">
        <ele>1317.1</ele>
        <time>2022-01-06T10:21:31Z</time>
      </trkpt>
      <trkpt lat="45.83879" lon="6.30707">
        <ele>1317.1</ele>
        <time>2022-01-06T10:21:32Z</time>
      </trkpt>
      <trkpt lat="45.83878" lon="6.30713">
        <ele>1314</ele>
        <time>2022-01-06T10:21:33Z</time>
      </trkpt>
      <trkpt lat="45.83877" lon="6.30719">
        <ele>1314</ele>
        <time>2022-01-06T10:21:34Z</time>
      </trkpt>
      <trkpt lat="45.83875" lon="6.30723">
        <ele>1312</ele>
        <time>2022-01-06T10:21:35Z</time>
      </trkpt>
      <trkpt lat="45.83874" lon="6.30725">
        <ele>1312</ele>
        <time>2022-01-06T10:21:36Z</time>
      </trkpt>
      <trkpt lat="45.83874" lon="6.30726">
        <ele>1311.1</ele>
        <time>2022-01-06T10:21:37Z</time>
      </trkpt>
      <trkpt lat="45.83875" lon="6.30727">
        <ele>1311.1</ele>
        <time>2022-01-06T10:21:38Z</time>
      </trkpt>
      <trkpt lat="45.83877" lon="6.30729">
        <ele>1309.1</ele>
        <time>2022-01-06T10:21:39Z</time>
      </trkpt>
      <trkpt lat="45.83878" lon="6.30732">
        <ele>1309.1</ele>
        <time>2022-01-06T10:21:40Z</time>
      </trkpt>
      <trkpt lat="45.83879" lon="6.30736">
        <ele>1308.1</ele>
        <time>2022-01-06T10:21:41Z</time>
      </trkpt>
      <trkpt lat="45.8388" lon="6.30742">
        <ele>1308.1</ele>
        <time>2022-01-06T10:21:42Z</time>
      </trkpt>
      <trkpt lat="45.8388" lon="6.30747">
        <ele>1306.1</ele>
        <time>2022-01-06T10:21:43Z</time>
      </trkpt>
      <trkpt lat="45.83879" lon="6.30752">
        <ele>1306.1</ele>
        <time>2022-01-06T10:21:44Z</time>
      </trkpt>
      <trkpt lat="45.83878" lon="6.30756">
        <ele>1305</ele>
        <time>2022-01-06T10:21:45Z</time>
      </trkpt>
      <trkpt lat="45.83878" lon="6.30759">
        <ele>1305</ele>
        <time>2022-01-06T10:21:46Z</time>
      </trkpt>
      <trkpt lat="45.83878" lon="6.3076">
        <ele>1305</ele>
        <time>2022-01-06T10:21:47Z</time>
      </trkpt>
      <trkpt lat="45.83878" lon="6.30762">
        <ele>1305</ele>
        <time>2022-01-06T10:21:48Z</time>
      </trkpt>
      <trkpt lat="45.83877" lon="6.30763">
        <ele>1304.1</ele>
        <time>2022-01-06T10:21:49Z</time>
      </trkpt>
      <trkpt lat="45.83876" lon="6.30765">
        <ele>1304.1</ele>
        <time>2022-01-06T10:21:50Z</time>
      </trkpt>
      <trkpt lat="45.83875" lon="6.30767">
        <ele>1303</ele>
        <time>2022-01-06T10:21:51Z</time>
      </trkpt>
      <trkpt lat="45.83874" lon="6.3077">
        <ele>1303</ele>
        <time>2022-01-06T10:21:52Z</time>
      </trkpt>
      <trkpt lat="45.83874" lon="6.30772">
        <ele>1303</ele>
        <time>2022-01-06T10:21:53Z</time>
      </trkpt>
      <trkpt lat="45.83873" lon="6.30774">
        <ele>1303</ele>
        <time>2022-01-06T10:21:54Z</time>
      </trkpt>
      <trkpt lat="45.83874" lon="6.30775">
        <ele>1302.1</ele>
        <time>2022-01-06T10:21:55Z</time>
      </trkpt>
      <trkpt lat="45.83874" lon="6.30775">
        <ele>1302.1</ele>
        <time>2022-01-06T10:21:56Z</time>
      </trkpt>
      <trkpt lat="45.83874" lon="6.30776">
        <ele>1302.1</ele>
        <time>2022-01-06T10:21:57Z</time>
      </trkpt>
      <trkpt lat="45.83874" lon="6.30776">
        <ele>1302.1</ele>
        <time>2022-01-06T10:21:58Z</time>
      </trkpt>
      <trkpt lat="45.83874" lon="6.30777">
        <ele>1302.1</ele>
        <time>2022-01-06T10:21:59Z</time>
      </trkpt>
      <trkpt lat="45.83874" lon="6.30777">
        <ele>1302.1</ele>
        <time>2022-01-06T10:22:00Z</time>
      </trkpt>
      <trkpt lat="45.83874" lon="6.30778">
        <ele>1301.1</ele>
        <time>2022-01-06T10:22:01Z</time>
      </trkpt>
      <trkpt lat="45.83874" lon="6.30778">
        <ele>1301.1</ele>
        <time>2022-01-06T10:22:02Z</time>
      </trkpt>
      <trkpt lat="45.83875" lon="6.30777">
        <ele>1301.1</ele>
        <time>2022-01-06T10:22:03Z</time>
      </trkpt>
      <trkpt lat="45.83875" lon="6.30778">
        <ele>1301.1</ele>
        <time>2022-01-06T10:22:04Z</time>
      </trkpt>
      <trkpt lat="45.83875" lon="6.30778">
        <ele>1301.1</ele>
        <time>2022-01-06T10:22:05Z</time>
      </trkpt>
      <trkpt lat="45.83875" lon="6.30778">
        <ele>1301.1</ele>
        <time>2022-01-06T10:22:06Z</time>
      </trkpt>
      <trkpt lat="45.83875" lon="6.30779">
        <ele>1300.1</ele>
        <time>2022-01-06T10:22:07Z</time>
      </trkpt>
      <trkpt lat="45.83875" lon="6.30779">
        <ele>1300.1</ele>
        <time>2022-01-06T10:22:08Z</time>
      </trkpt>
      <trkpt lat="45.83875" lon="6.3078">
        <ele>1300.1</ele>
        <time>2022-01-06T10:22:09Z</time>
      </trkpt>
      <trkpt lat="45.83876" lon="6.3078">
        <ele>1300.1</ele>
        <time>2022-01-06T10:22:10Z</time>
      </trkpt>
      <trkpt lat="45.83876" lon="6.3078">
        <ele>1300.1</ele>
        <time>2022-01-06T10:22:11Z</time>
      </trkpt>
      <trkpt lat="45.83876" lon="6.3078">
        <ele>1300.1</ele>
        <time>2022-01-06T10:22:12Z</time>
      </trkpt>
      <trkpt lat="45.83876" lon="6.30781">
        <ele>1299.1</ele>
        <time>2022-01-06T10:22:13Z</time>
      </trkpt>
      <trkpt lat="45.83876" lon="6.30781">
        <ele>1299.1</ele>
        <time>2022-01-06T10:22:14Z</time>
      </trkpt>
      <trkpt lat="45.83876" lon="6.30781">
        <ele>1299.1</ele>
        <time>2022-01-06T10:22:15Z</time>
      </trkpt>
      <trkpt lat="45.83877" lon="6.3078">
        <ele>1299.1</ele>
        <time>2022-01-06T10:22:16Z</time>
      </trkpt>
      <trkpt lat="45.83878" lon="6.3078">
        <ele>1298.2</ele>
        <time>2022-01-06T10:22:17Z</time>
      </trkpt>
      <trkpt lat="45.83879" lon="6.3078">
        <ele>1298.2</ele>
        <time>2022-01-06T10:22:18Z</time>
      </trkpt>
      <trkpt lat="45.83879" lon="6.3078">
        <ele>1298.2</ele>
        <time>2022-01-06T10:22:19Z</time>
      </trkpt>
      <trkpt lat="45.83879" lon="6.3078">
        <ele>1298.2</ele>
        <time>2022-01-06T10:22:20Z</time>
      </trkpt>
      <trkpt lat="45.8388" lon="6.3078">
        <ele>1298.2</ele>
        <time>2022-01-06T10:22:21Z</time>
      </trkpt>
      <trkpt lat="45.8388" lon="6.3078">
        <ele>1298.2</ele>
        <time>2022-01-06T10:22:22Z</time>
      </trkpt>
      <trkpt lat="45.8388" lon="6.3078">
        <ele>1298.2</ele>
        <time>2022-01-06T10:22:23Z</time>
      </trkpt>
      <trkpt lat="45.83881" lon="6.30779">
        <ele>1298.2</ele>
        <time>2022-01-06T10:22:24Z</time>
      </trkpt>
      <trkpt lat="45.83881" lon="6.30778">
        <ele>1298.2</ele>
        <time>2022-01-06T10:22:25Z</time>
      </trkpt>
      <trkpt lat="45.83881" lon="6.30778">
        <ele>1298.2</ele>
        <time>2022-01-06T10:22:26Z</time>
      </trkpt>
      <trkpt lat="45.83881" lon="6.30778">
        <ele>1298.2</ele>
        <time>2022-01-06T10:22:27Z</time>
      </trkpt>
      <trkpt lat="45.83881" lon="6.30777">
        <ele>1298.2</ele>
        <time>2022-01-06T10:22:28Z</time>
      </trkpt>
      <trkpt lat="45.8388" lon="6.30778">
        <ele>1298.2</ele>
        <time>2022-01-06T10:22:29Z</time>
      </trkpt>
      <trkpt lat="45.83881" lon="6.30777">
        <ele>1298.2</ele>
        <time>2022-01-06T10:22:30Z</time>
      </trkpt>
      <trkpt lat="45.83882" lon="6.30776">
        <ele>1298.2</ele>
        <time>2022-01-06T10:22:31Z</time>
      </trkpt>
      <trkpt lat="45.83883" lon="6.30775">
        <ele>1298.2</ele>
        <time>2022-01-06T10:22:32Z</time>
      </trkpt>
      <trkpt lat="45.83884" lon="6.30775">
        <ele>1298.2</ele>
        <time>2022-01-06T10:22:33Z</time>
      </trkpt>
      <trkpt lat="45.83885" lon="6.30775">
        <ele>1298.2</ele>
        <time>2022-01-06T10:22:34Z</time>
      </trkpt>
      <trkpt lat="45.83886" lon="6.30776">
        <ele>1298.2</ele>
        <time>2022-01-06T10:22:35Z</time>
      </trkpt>
      <trkpt lat="45.83886" lon="6.30776">
        <ele>1298.2</ele>
        <time>2022-01-06T10:22:36Z</time>
      </trkpt>
      <trkpt lat="45.83886" lon="6.30776">
        <ele>1298.2</ele>
        <time>2022-01-06T10:22:37Z</time>
      </trkpt>
      <trkpt lat="45.83887" lon="6.30776">
        <ele>1298.2</ele>
        <time>2022-01-06T10:22:38Z</time>
      </trkpt>
      <trkpt lat="45.83888" lon="6.30776">
        <ele>1298.2</ele>
        <time>2022-01-06T10:22:39Z</time>
      </trkpt>
      <trkpt lat="45.8389" lon="6.30775">
        <ele>1298.2</ele>
        <time>2022-01-06T10:22:40Z</time>
      </trkpt>
      <trkpt lat="45.8389" lon="6.30775">
        <ele>1295.1</ele>
        <time>2022-01-06T10:22:41Z</time>
      </trkpt>
      <trkpt lat="45.83891" lon="6.30775">
        <ele>1295.1</ele>
        <time>2022-01-06T10:22:42Z</time>
      </trkpt>
      <trkpt lat="45.83891" lon="6.30776">
        <ele>1294</ele>
        <time>2022-01-06T10:22:43Z</time>
      </trkpt>
      <trkpt lat="45.83892" lon="6.30776">
        <ele>1294</ele>
        <time>2022-01-06T10:22:44Z</time>
      </trkpt>
      <trkpt lat="45.83893" lon="6.30777">
        <ele>1293.1</ele>
        <time>2022-01-06T10:22:45Z</time>
      </trkpt>
      <trkpt lat="45.83894" lon="6.3078">
        <ele>1293.1</ele>
        <time>2022-01-06T10:22:46Z</time>
      </trkpt>
      <trkpt lat="45.83894" lon="6.30783">
        <ele>1292.1</ele>
        <time>2022-01-06T10:22:47Z</time>
      </trkpt>
      <trkpt lat="45.83894" lon="6.30784">
        <ele>1292.1</ele>
        <time>2022-01-06T10:22:48Z</time>
      </trkpt>
      <trkpt lat="45.83894" lon="6.30785">
        <ele>1292.1</ele>
        <time>2022-01-06T10:22:49Z</time>
      </trkpt>
      <trkpt lat="45.83894" lon="6.30786">
        <ele>1292.1</ele>
        <time>2022-01-06T10:22:50Z</time>
      </trkpt>
      <trkpt lat="45.83894" lon="6.30786">
        <ele>1291.1</ele>
        <time>2022-01-06T10:22:51Z</time>
      </trkpt>
      <trkpt lat="45.83895" lon="6.30786">
        <ele>1291.1</ele>
        <time>2022-01-06T10:22:52Z</time>
      </trkpt>
      <trkpt lat="45.83895" lon="6.30787">
        <ele>1291.1</ele>
        <time>2022-01-06T10:22:53Z</time>
      </trkpt>
      <trkpt lat="45.83895" lon="6.30789">
        <ele>1291.1</ele>
        <time>2022-01-06T10:22:54Z</time>
      </trkpt>
      <trkpt lat="45.83896" lon="6.30789">
        <ele>1290.1</ele>
        <time>2022-01-06T10:22:55Z</time>
      </trkpt>
      <trkpt lat="45.83896" lon="6.30789">
        <ele>1290.1</ele>
        <time>2022-01-06T10:22:56Z</time>
      </trkpt>
      <trkpt lat="45.83896" lon="6.30789">
        <ele>1290.1</ele>
        <time>2022-01-06T10:22:57Z</time>
      </trkpt>
      <trkpt lat="45.83896" lon="6.30788">
        <ele>1290.1</ele>
        <time>2022-01-06T10:22:58Z</time>
      </trkpt>
      <trkpt lat="45.83896" lon="6.30788">
        <ele>1290.1</ele>
        <time>2022-01-06T10:22:59Z</time>
      </trkpt>
      <trkpt lat="45.83897" lon="6.30788">
        <ele>1290.1</ele>
        <time>2022-01-06T10:23:00Z</time>
      </trkpt>
      <trkpt lat="45.83897" lon="6.30787">
        <ele>1289</ele>
        <time>2022-01-06T10:23:01Z</time>
      </trkpt>
      <trkpt lat="45.83897" lon="6.30788">
        <ele>1289</ele>
        <time>2022-01-06T10:23:02Z</time>
      </trkpt>
      <trkpt lat="45.83897" lon="6.30788">
        <ele>1289</ele>
        <time>2022-01-06T10:23:03Z</time>
      </trkpt>
      <trkpt lat="45.83898" lon="6.30788">
        <ele>1289</ele>
        <time>2022-01-06T10:23:04Z</time>
      </trkpt>
      <trkpt lat="45.83898" lon="6.30788">
        <ele>1289</ele>
        <time>2022-01-06T10:23:05Z</time>
      </trkpt>
      <trkpt lat="45.83898" lon="6.30787">
        <ele>1289</ele>
        <time>2022-01-06T10:23:06Z</time>
      </trkpt>
      <trkpt lat="45.83899" lon="6.30787">
        <ele>1289</ele>
        <time>2022-01-06T10:23:07Z</time>
      </trkpt>
      <trkpt lat="45.83899" lon="6.30787">
        <ele>1289</ele>
        <time>2022-01-06T10:23:08Z</time>
      </trkpt>
      <trkpt lat="45.839" lon="6.30787">
        <ele>1289</ele>
        <time>2022-01-06T10:23:09Z</time>
      </trkpt>
      <trkpt lat="45.839" lon="6.30788">
        <ele>1289</ele>
        <time>2022-01-06T10:23:10Z</time>
      </trkpt>
      <trkpt lat="45.839" lon="6.30788">
        <ele>1288.1</ele>
        <time>2022-01-06T10:23:11Z</time>
      </trkpt>
      <trkpt lat="45.839" lon="6.30788">
        <ele>1288.1</ele>
        <time>2022-01-06T10:23:12Z</time>
      </trkpt>
      <trkpt lat="45.83901" lon="6.30789">
        <ele>1288.1</ele>
        <time>2022-01-06T10:23:13Z</time>
      </trkpt>
      <trkpt lat="45.83901" lon="6.30789">
        <ele>1288.1</ele>
        <time>2022-01-06T10:23:14Z</time>
      </trkpt>
      <trkpt lat="45.83901" lon="6.30789">
        <ele>1288.1</ele>
        <time>2022-01-06T10:23:15Z</time>
      </trkpt>
      <trkpt lat="45.83901" lon="6.30789">
        <ele>1288.1</ele>
        <time>2022-01-06T10:23:16Z</time>
      </trkpt>
      <trkpt lat="45.83901" lon="6.3079">
        <ele>1287</ele>
        <time>2022-01-06T10:23:17Z</time>
      </trkpt>
      <trkpt lat="45.83902" lon="6.3079">
        <ele>1287</ele>
        <time>2022-01-06T10:23:18Z</time>
      </trkpt>
      <trkpt lat="45.83902" lon="6.30791">
        <ele>1287</ele>
        <time>2022-01-06T10:23:19Z</time>
      </trkpt>
      <trkpt lat="45.83902" lon="6.30791">
        <ele>1287</ele>
        <time>2022-01-06T10:23:20Z</time>
      </trkpt>
      <trkpt lat="45.83902" lon="6.30792">
        <ele>1287</ele>
        <time>2022-01-06T10:23:21Z</time>
      </trkpt>
      <trkpt lat="45.83902" lon="6.30792">
        <ele>1287</ele>
        <time>2022-01-06T10:23:22Z</time>
      </trkpt>
      <trkpt lat="45.83904" lon="6.30794">
        <ele>1287</ele>
        <time>2022-01-06T10:23:23Z</time>
      </trkpt>
      <trkpt lat="45.83904" lon="6.30795">
        <ele>1287</ele>
        <time>2022-01-06T10:23:24Z</time>
      </trkpt>
      <trkpt lat="45.83904" lon="6.30797">
        <ele>1286.1</ele>
        <time>2022-01-06T10:23:25Z</time>
      </trkpt>
      <trkpt lat="45.83904" lon="6.30799">
        <ele>1286.1</ele>
        <time>2022-01-06T10:23:26Z</time>
      </trkpt>
      <trkpt lat="45.83904" lon="6.30802">
        <ele>1286.1</ele>
        <time>2022-01-06T10:23:27Z</time>
      </trkpt>
      <trkpt lat="45.83903" lon="6.30803">
        <ele>1286.1</ele>
        <time>2022-01-06T10:23:28Z</time>
      </trkpt>
      <trkpt lat="45.83903" lon="6.30805">
        <ele>1285.1</ele>
        <time>2022-01-06T10:23:29Z</time>
      </trkpt>
      <trkpt lat="45.83904" lon="6.30806">
        <ele>1285.1</ele>
        <time>2022-01-06T10:23:30Z</time>
      </trkpt>
      <trkpt lat="45.83905" lon="6.30807">
        <ele>1285.1</ele>
        <time>2022-01-06T10:23:31Z</time>
      </trkpt>
      <trkpt lat="45.83906" lon="6.3081">
        <ele>1285.1</ele>
        <time>2022-01-06T10:23:32Z</time>
      </trkpt>
      <trkpt lat="45.83907" lon="6.30812">
        <ele>1284.1</ele>
        <time>2022-01-06T10:23:33Z</time>
      </trkpt>
      <trkpt lat="45.83908" lon="6.30813">
        <ele>1284.1</ele>
        <time>2022-01-06T10:23:34Z</time>
      </trkpt>
      <trkpt lat="45.83908" lon="6.30812">
        <ele>1283.1</ele>
        <time>2022-01-06T10:23:35Z</time>
      </trkpt>
      <trkpt lat="45.83909" lon="6.30813">
        <ele>1283.1</ele>
        <time>2022-01-06T10:23:36Z</time>
      </trkpt>
      <trkpt lat="45.8391" lon="6.30814">
        <ele>1282.2</ele>
        <time>2022-01-06T10:23:37Z</time>
      </trkpt>
      <trkpt lat="45.83911" lon="6.30816">
        <ele>1282.2</ele>
        <time>2022-01-06T10:23:38Z</time>
      </trkpt>
      <trkpt lat="45.83912" lon="6.30817">
        <ele>1282.2</ele>
        <time>2022-01-06T10:23:39Z</time>
      </trkpt>
      <trkpt lat="45.83913" lon="6.30818">
        <ele>1282.2</ele>
        <time>2022-01-06T10:23:40Z</time>
      </trkpt>
      <trkpt lat="45.83914" lon="6.30818">
        <ele>1281.1</ele>
        <time>2022-01-06T10:23:41Z</time>
      </trkpt>
      <trkpt lat="45.83914" lon="6.30818">
        <ele>1281.1</ele>
        <time>2022-01-06T10:23:42Z</time>
      </trkpt>
      <trkpt lat="45.83915" lon="6.30817">
        <ele>1281.1</ele>
        <time>2022-01-06T10:23:43Z</time>
      </trkpt>
      <trkpt lat="45.83915" lon="6.30816">
        <ele>1281.1</ele>
        <time>2022-01-06T10:23:44Z</time>
      </trkpt>
      <trkpt lat="45.83915" lon="6.30814">
        <ele>1280</ele>
        <time>2022-01-06T10:23:45Z</time>
      </trkpt>
      <trkpt lat="45.83915" lon="6.30813">
        <ele>1280</ele>
        <time>2022-01-06T10:23:46Z</time>
      </trkpt>
      <trkpt lat="45.83915" lon="6.30811">
        <ele>1279.1</ele>
        <time>2022-01-06T10:23:47Z</time>
      </trkpt>
      <trkpt lat="45.83916" lon="6.30809">
        <ele>1279.1</ele>
        <time>2022-01-06T10:23:48Z</time>
      </trkpt>
      <trkpt lat="45.83916" lon="6.30808">
        <ele>1278</ele>
        <time>2022-01-06T10:23:49Z</time>
      </trkpt>
      <trkpt lat="45.83917" lon="6.30806">
        <ele>1278</ele>
        <time>2022-01-06T10:23:50Z</time>
      </trkpt>
      <trkpt lat="45.83919" lon="6.30806">
        <ele>1277.1</ele>
        <time>2022-01-06T10:23:51Z</time>
      </trkpt>
      <trkpt lat="45.8392" lon="6.30806">
        <ele>1277.1</ele>
        <time>2022-01-06T10:23:52Z</time>
      </trkpt>
      <trkpt lat="45.83921" lon="6.30805">
        <ele>1276.1</ele>
        <time>2022-01-06T10:23:53Z</time>
      </trkpt>
      <trkpt lat="45.83922" lon="6.30804">
        <ele>1276.1</ele>
        <time>2022-01-06T10:23:54Z</time>
      </trkpt>
      <trkpt lat="45.83923" lon="6.30803">
        <ele>1276.1</ele>
        <time>2022-01-06T10:23:55Z</time>
      </trkpt>
      <trkpt lat="45.83924" lon="6.30801">
        <ele>1276.1</ele>
        <time>2022-01-06T10:23:56Z</time>
      </trkpt>
      <trkpt lat="45.83926" lon="6.30801">
        <ele>1276.1</ele>
        <time>2022-01-06T10:23:57Z</time>
      </trkpt>
      <trkpt lat="45.83928" lon="6.30802">
        <ele>1276.1</ele>
        <time>2022-01-06T10:23:58Z</time>
      </trkpt>
      <trkpt lat="45.83929" lon="6.30803">
        <ele>1272.1</ele>
        <time>2022-01-06T10:23:59Z</time>
      </trkpt>
      <trkpt lat="45.8393" lon="6.30803">
        <ele>1272.1</ele>
        <time>2022-01-06T10:24:00Z</time>
      </trkpt>
      <trkpt lat="45.83931" lon="6.30803">
        <ele>1271</ele>
        <time>2022-01-06T10:24:01Z</time>
      </trkpt>
      <trkpt lat="45.83931" lon="6.30802">
        <ele>1271</ele>
        <time>2022-01-06T10:24:02Z</time>
      </trkpt>
      <trkpt lat="45.83933" lon="6.308">
        <ele>1271</ele>
        <time>2022-01-06T10:24:03Z</time>
      </trkpt>
      <trkpt lat="45.83934" lon="6.30799">
        <ele>1271</ele>
        <time>2022-01-06T10:24:04Z</time>
      </trkpt>
      <trkpt lat="45.83936" lon="6.308">
        <ele>1271</ele>
        <time>2022-01-06T10:24:05Z</time>
      </trkpt>
      <trkpt lat="45.83937" lon="6.308">
        <ele>1271</ele>
        <time>2022-01-06T10:24:06Z</time>
      </trkpt>
      <trkpt lat="45.83938" lon="6.30801">
        <ele>1271</ele>
        <time>2022-01-06T10:24:07Z</time>
      </trkpt>
      <trkpt lat="45.83938" lon="6.30801">
        <ele>1271</ele>
        <time>2022-01-06T10:24:08Z</time>
      </trkpt>
      <trkpt lat="45.83938" lon="6.30801">
        <ele>1268.1</ele>
        <time>2022-01-06T10:24:09Z</time>
      </trkpt>
      <trkpt lat="45.83939" lon="6.308">
        <ele>1268.1</ele>
        <time>2022-01-06T10:24:10Z</time>
      </trkpt>
      <trkpt lat="45.83939" lon="6.30799">
        <ele>1267.1</ele>
        <time>2022-01-06T10:24:11Z</time>
      </trkpt>
      <trkpt lat="45.8394" lon="6.30798">
        <ele>1267.1</ele>
        <time>2022-01-06T10:24:12Z</time>
      </trkpt>
      <trkpt lat="45.83941" lon="6.30796">
        <ele>1267.1</ele>
        <time>2022-01-06T10:24:13Z</time>
      </trkpt>
      <trkpt lat="45.83942" lon="6.30796">
        <ele>1267.1</ele>
        <time>2022-01-06T10:24:14Z</time>
      </trkpt>
      <trkpt lat="45.83944" lon="6.30796">
        <ele>1265.1</ele>
        <time>2022-01-06T10:24:15Z</time>
      </trkpt>
      <trkpt lat="45.83945" lon="6.30797">
        <ele>1265.1</ele>
        <time>2022-01-06T10:24:16Z</time>
      </trkpt>
      <trkpt lat="45.83946" lon="6.30798">
        <ele>1265.1</ele>
        <time>2022-01-06T10:24:17Z</time>
      </trkpt>
      <trkpt lat="45.83947" lon="6.30799">
        <ele>1265.1</ele>
        <time>2022-01-06T10:24:18Z</time>
      </trkpt>
      <trkpt lat="45.83947" lon="6.30799">
        <ele>1265.1</ele>
        <time>2022-01-06T10:24:19Z</time>
      </trkpt>
      <trkpt lat="45.83948" lon="6.30798">
        <ele>1265.1</ele>
        <time>2022-01-06T10:24:20Z</time>
      </trkpt>
      <trkpt lat="45.83948" lon="6.30798">
        <ele>1264</ele>
        <time>2022-01-06T10:24:21Z</time>
      </trkpt>
      <trkpt lat="45.83949" lon="6.30797">
        <ele>1264</ele>
        <time>2022-01-06T10:24:22Z</time>
      </trkpt>
      <trkpt lat="45.8395" lon="6.30797">
        <ele>1264</ele>
        <time>2022-01-06T10:24:23Z</time>
      </trkpt>
      <trkpt lat="45.83951" lon="6.30796">
        <ele>1264</ele>
        <time>2022-01-06T10:24:24Z</time>
      </trkpt>
      <trkpt lat="45.83952" lon="6.30796">
        <ele>1263.1</ele>
        <time>2022-01-06T10:24:25Z</time>
      </trkpt>
      <trkpt lat="45.83953" lon="6.30795">
        <ele>1263.1</ele>
        <time>2022-01-06T10:24:26Z</time>
      </trkpt>
      <trkpt lat="45.83954" lon="6.30796">
        <ele>1262</ele>
        <time>2022-01-06T10:24:27Z</time>
      </trkpt>
      <trkpt lat="45.83955" lon="6.30797">
        <ele>1262</ele>
        <time>2022-01-06T10:24:28Z</time>
      </trkpt>
      <trkpt lat="45.83955" lon="6.30798">
        <ele>1261.1</ele>
        <time>2022-01-06T10:24:29Z</time>
      </trkpt>
      <trkpt lat="45.83955" lon="6.308">
        <ele>1261.1</ele>
        <time>2022-01-06T10:24:30Z</time>
      </trkpt>
      <trkpt lat="45.83954" lon="6.30802">
        <ele>1259.1</ele>
        <time>2022-01-06T10:24:31Z</time>
      </trkpt>
      <trkpt lat="45.83954" lon="6.30805">
        <ele>1259.1</ele>
        <time>2022-01-06T10:24:32Z</time>
      </trkpt>
      <trkpt lat="45.83953" lon="6.30807">
        <ele>1258.1</ele>
        <time>2022-01-06T10:24:33Z</time>
      </trkpt>
      <trkpt lat="45.83953" lon="6.30808">
        <ele>1258.1</ele>
        <time>2022-01-06T10:24:34Z</time>
      </trkpt>
      <trkpt lat="45.83953" lon="6.3081">
        <ele>1258.1</ele>
        <time>2022-01-06T10:24:35Z</time>
      </trkpt>
      <trkpt lat="45.83953" lon="6.30811">
        <ele>1258.1</ele>
        <time>2022-01-06T10:24:36Z</time>
      </trkpt>
      <trkpt lat="45.83954" lon="6.30812">
        <ele>1257</ele>
        <time>2022-01-06T10:24:37Z</time>
      </trkpt>
      <trkpt lat="45.83955" lon="6.30813">
        <ele>1257</ele>
        <time>2022-01-06T10:24:38Z</time>
      </trkpt>
      <trkpt lat="45.83955" lon="6.30813">
        <ele>1257</ele>
        <time>2022-01-06T10:24:39Z</time>
      </trkpt>
      <trkpt lat="45.83955" lon="6.30813">
        <ele>1257</ele>
        <time>2022-01-06T10:24:40Z</time>
      </trkpt>
      <trkpt lat="45.83956" lon="6.30814">
        <ele>1256.1</ele>
        <time>2022-01-06T10:24:41Z</time>
      </trkpt>
      <trkpt lat="45.83956" lon="6.30815">
        <ele>1256.1</ele>
        <time>2022-01-06T10:24:42Z</time>
      </trkpt>
      <trkpt lat="45.83956" lon="6.30816">
        <ele>1255</ele>
        <time>2022-01-06T10:24:43Z</time>
      </trkpt>
      <trkpt lat="45.83956" lon="6.30816">
        <ele>1255</ele>
        <time>2022-01-06T10:24:44Z</time>
      </trkpt>
      <trkpt lat="45.83957" lon="6.30817">
        <ele>1255</ele>
        <time>2022-01-06T10:24:45Z</time>
      </trkpt>
      <trkpt lat="45.83957" lon="6.30817">
        <ele>1255</ele>
        <time>2022-01-06T10:24:46Z</time>
      </trkpt>
      <trkpt lat="45.83958" lon="6.30818">
        <ele>1254.1</ele>
        <time>2022-01-06T10:24:47Z</time>
      </trkpt>
      <trkpt lat="45.83958" lon="6.30818">
        <ele>1254.1</ele>
        <time>2022-01-06T10:24:48Z</time>
      </trkpt>
      <trkpt lat="45.83958" lon="6.30819">
        <ele>1254.1</ele>
        <time>2022-01-06T10:24:49Z</time>
      </trkpt>
      <trkpt lat="45.83958" lon="6.30819">
        <ele>1254.1</ele>
        <time>2022-01-06T10:24:50Z</time>
      </trkpt>
      <trkpt lat="45.83957" lon="6.30819">
        <ele>1254.1</ele>
        <time>2022-01-06T10:24:51Z</time>
      </trkpt>
      <trkpt lat="45.83957" lon="6.3082">
        <ele>1254.1</ele>
        <time>2022-01-06T10:24:52Z</time>
      </trkpt>
      <trkpt lat="45.83957" lon="6.30821">
        <ele>1254.1</ele>
        <time>2022-01-06T10:24:53Z</time>
      </trkpt>
      <trkpt lat="45.83957" lon="6.30822">
        <ele>1254.1</ele>
        <time>2022-01-06T10:24:54Z</time>
      </trkpt>
      <trkpt lat="45.83957" lon="6.30822">
        <ele>1254.1</ele>
        <time>2022-01-06T10:24:55Z</time>
      </trkpt>
      <trkpt lat="45.83957" lon="6.30823">
        <ele>1254.1</ele>
        <time>2022-01-06T10:24:56Z</time>
      </trkpt>
      <trkpt lat="45.83957" lon="6.30824">
        <ele>1254.1</ele>
        <time>2022-01-06T10:24:57Z</time>
      </trkpt>
      <trkpt lat="45.83957" lon="6.30824">
        <ele>1254.1</ele>
        <time>2022-01-06T10:24:58Z</time>
      </trkpt>
      <trkpt lat="45.83957" lon="6.30824">
        <ele>1254.1</ele>
        <time>2022-01-06T10:24:59Z</time>
      </trkpt>
      <trkpt lat="45.83957" lon="6.30825">
        <ele>1254.1</ele>
        <time>2022-01-06T10:25:00Z</time>
      </trkpt>
      <trkpt lat="45.83958" lon="6.30827">
        <ele>1254.1</ele>
        <time>2022-01-06T10:25:01Z</time>
      </trkpt>
      <trkpt lat="45.83959" lon="6.30828">
        <ele>1254.1</ele>
        <time>2022-01-06T10:25:02Z</time>
      </trkpt>
      <trkpt lat="45.83959" lon="6.30828">
        <ele>1254.1</ele>
        <time>2022-01-06T10:25:03Z</time>
      </trkpt>
      <trkpt lat="45.83959" lon="6.30828">
        <ele>1254.1</ele>
        <time>2022-01-06T10:25:04Z</time>
      </trkpt>
      <trkpt lat="45.8396" lon="6.30828">
        <ele>1252.1</ele>
        <time>2022-01-06T10:25:05Z</time>
      </trkpt>
      <trkpt lat="45.8396" lon="6.30828">
        <ele>1252.1</ele>
        <time>2022-01-06T10:25:06Z</time>
      </trkpt>
      <trkpt lat="45.8396" lon="6.30828">
        <ele>1252.1</ele>
        <time>2022-01-06T10:25:07Z</time>
      </trkpt>
      <trkpt lat="45.8396" lon="6.30828">
        <ele>1252.1</ele>
        <time>2022-01-06T10:25:08Z</time>
      </trkpt>
      <trkpt lat="45.83961" lon="6.30828">
        <ele>1252.1</ele>
        <time>2022-01-06T10:25:09Z</time>
      </trkpt>
      <trkpt lat="45.83961" lon="6.30827">
        <ele>1252.1</ele>
        <time>2022-01-06T10:25:10Z</time>
      </trkpt>
      <trkpt lat="45.83962" lon="6.30827">
        <ele>1252.1</ele>
        <time>2022-01-06T10:25:11Z</time>
      </trkpt>
      <trkpt lat="45.83962" lon="6.30827">
        <ele>1252.1</ele>
        <time>2022-01-06T10:25:12Z</time>
      </trkpt>
      <trkpt lat="45.83962" lon="6.30827">
        <ele>1252.1</ele>
        <time>2022-01-06T10:25:13Z</time>
      </trkpt>
      <trkpt lat="45.83962" lon="6.30827">
        <ele>1252.1</ele>
        <time>2022-01-06T10:25:14Z</time>
      </trkpt>
      <trkpt lat="45.83962" lon="6.30828">
        <ele>1252.1</ele>
        <time>2022-01-06T10:25:15Z</time>
      </trkpt>
      <trkpt lat="45.83962" lon="6.30828">
        <ele>1252.1</ele>
        <time>2022-01-06T10:25:16Z</time>
      </trkpt>
      <trkpt lat="45.83962" lon="6.30829">
        <ele>1251.1</ele>
        <time>2022-01-06T10:25:17Z</time>
      </trkpt>
      <trkpt lat="45.83962" lon="6.30829">
        <ele>1251.1</ele>
        <time>2022-01-06T10:25:18Z</time>
      </trkpt>
      <trkpt lat="45.83962" lon="6.3083">
        <ele>1251.1</ele>
        <time>2022-01-06T10:25:19Z</time>
      </trkpt>
      <trkpt lat="45.83962" lon="6.3083">
        <ele>1251.1</ele>
        <time>2022-01-06T10:25:20Z</time>
      </trkpt>
      <trkpt lat="45.83963" lon="6.30831">
        <ele>1251.1</ele>
        <time>2022-01-06T10:25:21Z</time>
      </trkpt>
      <trkpt lat="45.83963" lon="6.30832">
        <ele>1251.1</ele>
        <time>2022-01-06T10:25:22Z</time>
      </trkpt>
      <trkpt lat="45.83963" lon="6.30832">
        <ele>1250.2</ele>
        <time>2022-01-06T10:25:23Z</time>
      </trkpt>
      <trkpt lat="45.83963" lon="6.30832">
        <ele>1250.2</ele>
        <time>2022-01-06T10:25:24Z</time>
      </trkpt>
      <trkpt lat="45.83963" lon="6.30832">
        <ele>1250.2</ele>
        <time>2022-01-06T10:25:25Z</time>
      </trkpt>
      <trkpt lat="45.83963" lon="6.30832">
        <ele>1250.2</ele>
        <time>2022-01-06T10:25:26Z</time>
      </trkpt>
      <trkpt lat="45.83964" lon="6.30832">
        <ele>1249.1</ele>
        <time>2022-01-06T10:25:27Z</time>
      </trkpt>
      <trkpt lat="45.83964" lon="6.30833">
        <ele>1249.1</ele>
        <time>2022-01-06T10:25:28Z</time>
      </trkpt>
      <trkpt lat="45.83964" lon="6.30833">
        <ele>1249.1</ele>
        <time>2022-01-06T10:25:29Z</time>
      </trkpt>
      <trkpt lat="45.83964" lon="6.30833">
        <ele>1249.1</ele>
        <time>2022-01-06T10:25:30Z</time>
      </trkpt>
      <trkpt lat="45.83964" lon="6.30833">
        <ele>1248</ele>
        <time>2022-01-06T10:25:31Z</time>
      </trkpt>
      <trkpt lat="45.83964" lon="6.30834">
        <ele>1248</ele>
        <time>2022-01-06T10:25:32Z</time>
      </trkpt>
      <trkpt lat="45.83965" lon="6.30834">
        <ele>1248</ele>
        <time>2022-01-06T10:25:33Z</time>
      </trkpt>
      <trkpt lat="45.83965" lon="6.30835">
        <ele>1248</ele>
        <time>2022-01-06T10:25:34Z</time>
      </trkpt>
      <trkpt lat="45.83966" lon="6.30836">
        <ele>1247.1</ele>
        <time>2022-01-06T10:25:35Z</time>
      </trkpt>
      <trkpt lat="45.83967" lon="6.30838">
        <ele>1247.1</ele>
        <time>2022-01-06T10:25:36Z</time>
      </trkpt>
      <trkpt lat="45.83968" lon="6.30839">
        <ele>1246</ele>
        <time>2022-01-06T10:25:37Z</time>
      </trkpt>
      <trkpt lat="45.83969" lon="6.30839">
        <ele>1246</ele>
        <time>2022-01-06T10:25:38Z</time>
      </trkpt>
      <trkpt lat="45.8397" lon="6.30839">
        <ele>1246</ele>
        <time>2022-01-06T10:25:39Z</time>
      </trkpt>
      <trkpt lat="45.8397" lon="6.30838">
        <ele>1246</ele>
        <time>2022-01-06T10:25:40Z</time>
      </trkpt>
      <trkpt lat="45.83971" lon="6.30838">
        <ele>1245.1</ele>
        <time>2022-01-06T10:25:41Z</time>
      </trkpt>
      <trkpt lat="45.83972" lon="6.30838">
        <ele>1245.1</ele>
        <time>2022-01-06T10:25:42Z</time>
      </trkpt>
      <trkpt lat="45.83973" lon="6.3084">
        <ele>1244.1</ele>
        <time>2022-01-06T10:25:43Z</time>
      </trkpt>
      <trkpt lat="45.83974" lon="6.30841">
        <ele>1244.1</ele>
        <time>2022-01-06T10:25:44Z</time>
      </trkpt>
      <trkpt lat="45.83975" lon="6.30843">
        <ele>1243.1</ele>
        <time>2022-01-06T10:25:45Z</time>
      </trkpt>
      <trkpt lat="45.83976" lon="6.30845">
        <ele>1243.1</ele>
        <time>2022-01-06T10:25:46Z</time>
      </trkpt>
      <trkpt lat="45.83977" lon="6.30848">
        <ele>1243.1</ele>
        <time>2022-01-06T10:25:47Z</time>
      </trkpt>
      <trkpt lat="45.83977" lon="6.3085">
        <ele>1243.1</ele>
        <time>2022-01-06T10:25:48Z</time>
      </trkpt>
      <trkpt lat="45.83978" lon="6.30853">
        <ele>1243.1</ele>
        <time>2022-01-06T10:25:49Z</time>
      </trkpt>
      <trkpt lat="45.83978" lon="6.30855">
        <ele>1243.1</ele>
        <time>2022-01-06T10:25:50Z</time>
      </trkpt>
      <trkpt lat="45.83978" lon="6.30856">
        <ele>1240.1</ele>
        <time>2022-01-06T10:25:51Z</time>
      </trkpt>
      <trkpt lat="45.8398" lon="6.30857">
        <ele>1240.1</ele>
        <time>2022-01-06T10:25:52Z</time>
      </trkpt>
      <trkpt lat="45.8398" lon="6.30857">
        <ele>1240.1</ele>
        <time>2022-01-06T10:25:53Z</time>
      </trkpt>
      <trkpt lat="45.8398" lon="6.30857">
        <ele>1240.1</ele>
        <time>2022-01-06T10:25:54Z</time>
      </trkpt>
      <trkpt lat="45.8398" lon="6.30857">
        <ele>1239</ele>
        <time>2022-01-06T10:25:55Z</time>
      </trkpt>
      <trkpt lat="45.8398" lon="6.30857">
        <ele>1239</ele>
        <time>2022-01-06T10:25:56Z</time>
      </trkpt>
      <trkpt lat="45.83981" lon="6.30857">
        <ele>1239</ele>
        <time>2022-01-06T10:25:57Z</time>
      </trkpt>
      <trkpt lat="45.83981" lon="6.30857">
        <ele>1239</ele>
        <time>2022-01-06T10:25:58Z</time>
      </trkpt>
      <trkpt lat="45.83981" lon="6.30857">
        <ele>1239</ele>
        <time>2022-01-06T10:25:59Z</time>
      </trkpt>
      <trkpt lat="45.83981" lon="6.30856">
        <ele>1239</ele>
        <time>2022-01-06T10:26:00Z</time>
      </trkpt>
      <trkpt lat="45.83981" lon="6.30856">
        <ele>1239</ele>
        <time>2022-01-06T10:26:01Z</time>
      </trkpt>
      <trkpt lat="45.83981" lon="6.30857">
        <ele>1239</ele>
        <time>2022-01-06T10:26:02Z</time>
      </trkpt>
      <trkpt lat="45.83982" lon="6.30856">
        <ele>1239</ele>
        <time>2022-01-06T10:26:03Z</time>
      </trkpt>
      <trkpt lat="45.83982" lon="6.30856">
        <ele>1239</ele>
        <time>2022-01-06T10:26:04Z</time>
      </trkpt>
      <trkpt lat="45.83982" lon="6.30857">
        <ele>1238.1</ele>
        <time>2022-01-06T10:26:05Z</time>
      </trkpt>
      <trkpt lat="45.83983" lon="6.30857">
        <ele>1238.1</ele>
        <time>2022-01-06T10:26:06Z</time>
      </trkpt>
      <trkpt lat="45.83984" lon="6.30858">
        <ele>1238.1</ele>
        <time>2022-01-06T10:26:07Z</time>
      </trkpt>
      <trkpt lat="45.83984" lon="6.30858">
        <ele>1238.1</ele>
        <time>2022-01-06T10:26:08Z</time>
      </trkpt>
      <trkpt lat="45.83984" lon="6.30859">
        <ele>1237</ele>
        <time>2022-01-06T10:26:09Z</time>
      </trkpt>
      <trkpt lat="45.83985" lon="6.30859">
        <ele>1237</ele>
        <time>2022-01-06T10:26:10Z</time>
      </trkpt>
      <trkpt lat="45.83985" lon="6.30859">
        <ele>1237</ele>
        <time>2022-01-06T10:26:11Z</time>
      </trkpt>
      <trkpt lat="45.83985" lon="6.3086">
        <ele>1237</ele>
        <time>2022-01-06T10:26:12Z</time>
      </trkpt>
      <trkpt lat="45.83986" lon="6.3086">
        <ele>1236.1</ele>
        <time>2022-01-06T10:26:13Z</time>
      </trkpt>
      <trkpt lat="45.83987" lon="6.30862">
        <ele>1236.1</ele>
        <time>2022-01-06T10:26:14Z</time>
      </trkpt>
      <trkpt lat="45.83988" lon="6.30864">
        <ele>1235.1</ele>
        <time>2022-01-06T10:26:15Z</time>
      </trkpt>
      <trkpt lat="45.83988" lon="6.30869">
        <ele>1235.1</ele>
        <time>2022-01-06T10:26:16Z</time>
      </trkpt>
      <trkpt lat="45.83989" lon="6.30872">
        <ele>1235.1</ele>
        <time>2022-01-06T10:26:17Z</time>
      </trkpt>
      <trkpt lat="45.83989" lon="6.30874">
        <ele>1235.1</ele>
        <time>2022-01-06T10:26:18Z</time>
      </trkpt>
      <trkpt lat="45.83989" lon="6.30875">
        <ele>1235.1</ele>
        <time>2022-01-06T10:26:19Z</time>
      </trkpt>
      <trkpt lat="45.83989" lon="6.30876">
        <ele>1235.1</ele>
        <time>2022-01-06T10:26:20Z</time>
      </trkpt>
      <trkpt lat="45.83988" lon="6.30876">
        <ele>1233.1</ele>
        <time>2022-01-06T10:26:21Z</time>
      </trkpt>
      <trkpt lat="45.83988" lon="6.30878">
        <ele>1233.1</ele>
        <time>2022-01-06T10:26:22Z</time>
      </trkpt>
      <trkpt lat="45.83987" lon="6.30878">
        <ele>1233.1</ele>
        <time>2022-01-06T10:26:23Z</time>
      </trkpt>
      <trkpt lat="45.83987" lon="6.30879">
        <ele>1233.1</ele>
        <time>2022-01-06T10:26:24Z</time>
      </trkpt>
      <trkpt lat="45.83988" lon="6.3088">
        <ele>1233.1</ele>
        <time>2022-01-06T10:26:25Z</time>
      </trkpt>
      <trkpt lat="45.83988" lon="6.30881">
        <ele>1233.1</ele>
        <time>2022-01-06T10:26:26Z</time>
      </trkpt>
      <trkpt lat="45.83989" lon="6.30882">
        <ele>1231.1</ele>
        <time>2022-01-06T10:26:27Z</time>
      </trkpt>
      <trkpt lat="45.83989" lon="6.30884">
        <ele>1231.1</ele>
        <time>2022-01-06T10:26:28Z</time>
      </trkpt>
      <trkpt lat="45.83989" lon="6.30886">
        <ele>1231.1</ele>
        <time>2022-01-06T10:26:29Z</time>
      </trkpt>
      <trkpt lat="45.8399" lon="6.30887">
        <ele>1231.1</ele>
        <time>2022-01-06T10:26:30Z</time>
      </trkpt>
      <trkpt lat="45.8399" lon="6.30887">
        <ele>1230</ele>
        <time>2022-01-06T10:26:31Z</time>
      </trkpt>
      <trkpt lat="45.83991" lon="6.30887">
        <ele>1230</ele>
        <time>2022-01-06T10:26:32Z</time>
      </trkpt>
      <trkpt lat="45.83992" lon="6.30888">
        <ele>1229.1</ele>
        <time>2022-01-06T10:26:33Z</time>
      </trkpt>
      <trkpt lat="45.83993" lon="6.30888">
        <ele>1229.1</ele>
        <time>2022-01-06T10:26:34Z</time>
      </trkpt>
      <trkpt lat="45.83993" lon="6.30888">
        <ele>1229.1</ele>
        <time>2022-01-06T10:26:35Z</time>
      </trkpt>
      <trkpt lat="45.83993" lon="6.30889">
        <ele>1229.1</ele>
        <time>2022-01-06T10:26:36Z</time>
      </trkpt>
      <trkpt lat="45.83993" lon="6.30888">
        <ele>1228.1</ele>
        <time>2022-01-06T10:26:37Z</time>
      </trkpt>
      <trkpt lat="45.83994" lon="6.30887">
        <ele>1228.1</ele>
        <time>2022-01-06T10:26:38Z</time>
      </trkpt>
      <trkpt lat="45.83995" lon="6.30888">
        <ele>1228.1</ele>
        <time>2022-01-06T10:26:39Z</time>
      </trkpt>
      <trkpt lat="45.83995" lon="6.30887">
        <ele>1228.1</ele>
        <time>2022-01-06T10:26:40Z</time>
      </trkpt>
      <trkpt lat="45.83996" lon="6.30887">
        <ele>1227.1</ele>
        <time>2022-01-06T10:26:41Z</time>
      </trkpt>
      <trkpt lat="45.83997" lon="6.30886">
        <ele>1227.1</ele>
        <time>2022-01-06T10:26:42Z</time>
      </trkpt>
      <trkpt lat="45.83997" lon="6.30886">
        <ele>1227.1</ele>
        <time>2022-01-06T10:26:43Z</time>
      </trkpt>
      <trkpt lat="45.83997" lon="6.30886">
        <ele>1227.1</ele>
        <time>2022-01-06T10:26:44Z</time>
      </trkpt>
      <trkpt lat="45.83998" lon="6.30885">
        <ele>1227.1</ele>
        <time>2022-01-06T10:26:45Z</time>
      </trkpt>
      <trkpt lat="45.83998" lon="6.30884">
        <ele>1227.1</ele>
        <time>2022-01-06T10:26:46Z</time>
      </trkpt>
      <trkpt lat="45.83999" lon="6.30885">
        <ele>1227.1</ele>
        <time>2022-01-06T10:26:47Z</time>
      </trkpt>
      <trkpt lat="45.83999" lon="6.30885">
        <ele>1227.1</ele>
        <time>2022-01-06T10:26:48Z</time>
      </trkpt>
      <trkpt lat="45.83999" lon="6.30885">
        <ele>1226.1</ele>
        <time>2022-01-06T10:26:49Z</time>
      </trkpt>
      <trkpt lat="45.83999" lon="6.30885">
        <ele>1226.1</ele>
        <time>2022-01-06T10:26:50Z</time>
      </trkpt>
      <trkpt lat="45.83999" lon="6.30886">
        <ele>1226.1</ele>
        <time>2022-01-06T10:26:51Z</time>
      </trkpt>
      <trkpt lat="45.83999" lon="6.30887">
        <ele>1226.1</ele>
        <time>2022-01-06T10:26:52Z</time>
      </trkpt>
      <trkpt lat="45.83999" lon="6.30887">
        <ele>1225.2</ele>
        <time>2022-01-06T10:26:53Z</time>
      </trkpt>
      <trkpt lat="45.84" lon="6.30886">
        <ele>1225.2</ele>
        <time>2022-01-06T10:26:54Z</time>
      </trkpt>
      <trkpt lat="45.84" lon="6.30886">
        <ele>1225.2</ele>
        <time>2022-01-06T10:26:55Z</time>
      </trkpt>
      <trkpt lat="45.83999" lon="6.30886">
        <ele>1225.2</ele>
        <time>2022-01-06T10:26:56Z</time>
      </trkpt>
      <trkpt lat="45.83999" lon="6.30886">
        <ele>1225.2</ele>
        <time>2022-01-06T10:26:57Z</time>
      </trkpt>
      <trkpt lat="45.84" lon="6.30886">
        <ele>1225.2</ele>
        <time>2022-01-06T10:26:58Z</time>
      </trkpt>
      <trkpt lat="45.83999" lon="6.30887">
        <ele>1225.2</ele>
        <time>2022-01-06T10:26:59Z</time>
      </trkpt>
      <trkpt lat="45.83999" lon="6.30887">
        <ele>1225.2</ele>
        <time>2022-01-06T10:27:00Z</time>
      </trkpt>
      <trkpt lat="45.83999" lon="6.30887">
        <ele>1225.2</ele>
        <time>2022-01-06T10:27:01Z</time>
      </trkpt>
      <trkpt lat="45.84" lon="6.30888">
        <ele>1225.2</ele>
        <time>2022-01-06T10:27:02Z</time>
      </trkpt>
      <trkpt lat="45.84" lon="6.30889">
        <ele>1225.2</ele>
        <time>2022-01-06T10:27:03Z</time>
      </trkpt>
      <trkpt lat="45.84" lon="6.30889">
        <ele>1225.2</ele>
        <time>2022-01-06T10:27:04Z</time>
      </trkpt>
      <trkpt lat="45.84" lon="6.3089">
        <ele>1225.2</ele>
        <time>2022-01-06T10:27:05Z</time>
      </trkpt>
      <trkpt lat="45.84" lon="6.3089">
        <ele>1225.2</ele>
        <time>2022-01-06T10:27:06Z</time>
      </trkpt>
      <trkpt lat="45.84" lon="6.30891">
        <ele>1225.2</ele>
        <time>2022-01-06T10:27:07Z</time>
      </trkpt>
      <trkpt lat="45.84001" lon="6.30891">
        <ele>1225.2</ele>
        <time>2022-01-06T10:27:08Z</time>
      </trkpt>
      <trkpt lat="45.84002" lon="6.30892">
        <ele>1224.1</ele>
        <time>2022-01-06T10:27:09Z</time>
      </trkpt>
      <trkpt lat="45.84003" lon="6.30893">
        <ele>1224.1</ele>
        <time>2022-01-06T10:27:10Z</time>
      </trkpt>
      <trkpt lat="45.84004" lon="6.30894">
        <ele>1223</ele>
        <time>2022-01-06T10:27:11Z</time>
      </trkpt>
      <trkpt lat="45.84005" lon="6.30895">
        <ele>1223</ele>
        <time>2022-01-06T10:27:12Z</time>
      </trkpt>
      <trkpt lat="45.84006" lon="6.30896">
        <ele>1223</ele>
        <time>2022-01-06T10:27:13Z</time>
      </trkpt>
      <trkpt lat="45.84007" lon="6.30896">
        <ele>1223</ele>
        <time>2022-01-06T10:27:14Z</time>
      </trkpt>
      <trkpt lat="45.84007" lon="6.30896">
        <ele>1222.1</ele>
        <time>2022-01-06T10:27:15Z</time>
      </trkpt>
      <trkpt lat="45.84008" lon="6.30896">
        <ele>1222.1</ele>
        <time>2022-01-06T10:27:16Z</time>
      </trkpt>
      <trkpt lat="45.84008" lon="6.30897">
        <ele>1222.1</ele>
        <time>2022-01-06T10:27:17Z</time>
      </trkpt>
      <trkpt lat="45.84009" lon="6.30897">
        <ele>1222.1</ele>
        <time>2022-01-06T10:27:18Z</time>
      </trkpt>
      <trkpt lat="45.84009" lon="6.30898">
        <ele>1222.1</ele>
        <time>2022-01-06T10:27:19Z</time>
      </trkpt>
      <trkpt lat="45.8401" lon="6.30898">
        <ele>1222.1</ele>
        <time>2022-01-06T10:27:20Z</time>
      </trkpt>
      <trkpt lat="45.8401" lon="6.30898">
        <ele>1222.1</ele>
        <time>2022-01-06T10:27:21Z</time>
      </trkpt>
      <trkpt lat="45.84011" lon="6.30898">
        <ele>1222.1</ele>
        <time>2022-01-06T10:27:22Z</time>
      </trkpt>
      <trkpt lat="45.84012" lon="6.30897">
        <ele>1219.1</ele>
        <time>2022-01-06T10:27:23Z</time>
      </trkpt>
      <trkpt lat="45.84013" lon="6.30897">
        <ele>1219.1</ele>
        <time>2022-01-06T10:27:24Z</time>
      </trkpt>
      <trkpt lat="45.84014" lon="6.30897">
        <ele>1219.1</ele>
        <time>2022-01-06T10:27:25Z</time>
      </trkpt>
      <trkpt lat="45.84014" lon="6.30897">
        <ele>1219.1</ele>
        <time>2022-01-06T10:27:26Z</time>
      </trkpt>
      <trkpt lat="45.84014" lon="6.30896">
        <ele>1218.1</ele>
        <time>2022-01-06T10:27:27Z</time>
      </trkpt>
      <trkpt lat="45.84015" lon="6.30895">
        <ele>1218.1</ele>
        <time>2022-01-06T10:27:28Z</time>
      </trkpt>
      <trkpt lat="45.84015" lon="6.30895">
        <ele>1218.1</ele>
        <time>2022-01-06T10:27:29Z</time>
      </trkpt>
      <trkpt lat="45.84014" lon="6.30895">
        <ele>1218.1</ele>
        <time>2022-01-06T10:27:30Z</time>
      </trkpt>
      <trkpt lat="45.84015" lon="6.30896">
        <ele>1217.1</ele>
        <time>2022-01-06T10:27:31Z</time>
      </trkpt>
      <trkpt lat="45.84015" lon="6.30896">
        <ele>1217.1</ele>
        <time>2022-01-06T10:27:32Z</time>
      </trkpt>
      <trkpt lat="45.84016" lon="6.30897">
        <ele>1217.1</ele>
        <time>2022-01-06T10:27:33Z</time>
      </trkpt>
      <trkpt lat="45.84018" lon="6.30898">
        <ele>1217.1</ele>
        <time>2022-01-06T10:27:34Z</time>
      </trkpt>
      <trkpt lat="45.8402" lon="6.309">
        <ele>1217.1</ele>
        <time>2022-01-06T10:27:35Z</time>
      </trkpt>
      <trkpt lat="45.84023" lon="6.30902">
        <ele>1217.1</ele>
        <time>2022-01-06T10:27:36Z</time>
      </trkpt>
      <trkpt lat="45.84026" lon="6.30904">
        <ele>1217.1</ele>
        <time>2022-01-06T10:27:37Z</time>
      </trkpt>
      <trkpt lat="45.8403" lon="6.30906">
        <ele>1217.1</ele>
        <time>2022-01-06T10:27:38Z</time>
      </trkpt>
      <trkpt lat="45.84032" lon="6.30908">
        <ele>1211.1</ele>
        <time>2022-01-06T10:27:39Z</time>
      </trkpt>
      <trkpt lat="45.84034" lon="6.30909">
        <ele>1211.1</ele>
        <time>2022-01-06T10:27:40Z</time>
      </trkpt>
      <trkpt lat="45.84037" lon="6.3091">
        <ele>1209.2</ele>
        <time>2022-01-06T10:27:41Z</time>
      </trkpt>
      <trkpt lat="45.84039" lon="6.30911">
        <ele>1209.2</ele>
        <time>2022-01-06T10:27:42Z</time>
      </trkpt>
      <trkpt lat="45.84041" lon="6.30913">
        <ele>1207</ele>
        <time>2022-01-06T10:27:43Z</time>
      </trkpt>
      <trkpt lat="45.84043" lon="6.30913">
        <ele>1207</ele>
        <time>2022-01-06T10:27:44Z</time>
      </trkpt>
      <trkpt lat="45.84046" lon="6.30914">
        <ele>1205</ele>
        <time>2022-01-06T10:27:45Z</time>
      </trkpt>
      <trkpt lat="45.84049" lon="6.30913">
        <ele>1205</ele>
        <time>2022-01-06T10:27:46Z</time>
      </trkpt>
      <trkpt lat="45.84052" lon="6.30911">
        <ele>1204.1</ele>
        <time>2022-01-06T10:27:47Z</time>
      </trkpt>
      <trkpt lat="45.84054" lon="6.30908">
        <ele>1204.1</ele>
        <time>2022-01-06T10:27:48Z</time>
      </trkpt>
      <trkpt lat="45.84055" lon="6.30904">
        <ele>1202.1</ele>
        <time>2022-01-06T10:27:49Z</time>
      </trkpt>
      <trkpt lat="45.84056" lon="6.30899">
        <ele>1202.1</ele>
        <time>2022-01-06T10:27:50Z</time>
      </trkpt>
      <trkpt lat="45.84057" lon="6.30895">
        <ele>1200</ele>
        <time>2022-01-06T10:27:51Z</time>
      </trkpt>
      <trkpt lat="45.84058" lon="6.3089">
        <ele>1200</ele>
        <time>2022-01-06T10:27:52Z</time>
      </trkpt>
      <trkpt lat="45.84058" lon="6.30885">
        <ele>1199.1</ele>
        <time>2022-01-06T10:27:53Z</time>
      </trkpt>
      <trkpt lat="45.84058" lon="6.30881">
        <ele>1199.1</ele>
        <time>2022-01-06T10:27:54Z</time>
      </trkpt>
      <trkpt lat="45.8406" lon="6.30878">
        <ele>1197.1</ele>
        <time>2022-01-06T10:27:55Z</time>
      </trkpt>
      <trkpt lat="45.84061" lon="6.30875">
        <ele>1197.1</ele>
        <time>2022-01-06T10:27:56Z</time>
      </trkpt>
      <trkpt lat="45.84063" lon="6.30872">
        <ele>1195.1</ele>
        <time>2022-01-06T10:27:57Z</time>
      </trkpt>
      <trkpt lat="45.84066" lon="6.30872">
        <ele>1195.1</ele>
        <time>2022-01-06T10:27:58Z</time>
      </trkpt>
      <trkpt lat="45.84068" lon="6.30872">
        <ele>1193.2</ele>
        <time>2022-01-06T10:27:59Z</time>
      </trkpt>
      <trkpt lat="45.84072" lon="6.30874">
        <ele>1193.2</ele>
        <time>2022-01-06T10:28:00Z</time>
      </trkpt>
      <trkpt lat="45.84075" lon="6.30876">
        <ele>1191</ele>
        <time>2022-01-06T10:28:01Z</time>
      </trkpt>
      <trkpt lat="45.84079" lon="6.30879">
        <ele>1191</ele>
        <time>2022-01-06T10:28:02Z</time>
      </trkpt>
      <trkpt lat="45.84082" lon="6.30882">
        <ele>1189</ele>
        <time>2022-01-06T10:28:03Z</time>
      </trkpt>
      <trkpt lat="45.84086" lon="6.30884">
        <ele>1189</ele>
        <time>2022-01-06T10:28:04Z</time>
      </trkpt>
      <trkpt lat="45.8409" lon="6.30886">
        <ele>1188.1</ele>
        <time>2022-01-06T10:28:05Z</time>
      </trkpt>
      <trkpt lat="45.84094" lon="6.3089">
        <ele>1188.1</ele>
        <time>2022-01-06T10:28:06Z</time>
      </trkpt>
      <trkpt lat="45.84097" lon="6.30893">
        <ele>1186.1</ele>
        <time>2022-01-06T10:28:07Z</time>
      </trkpt>
      <trkpt lat="45.841" lon="6.30894">
        <ele>1186.1</ele>
        <time>2022-01-06T10:28:08Z</time>
      </trkpt>
      <trkpt lat="45.84102" lon="6.30894">
        <ele>1185.1</ele>
        <time>2022-01-06T10:28:09Z</time>
      </trkpt>
      <trkpt lat="45.84103" lon="6.30894">
        <ele>1185.1</ele>
        <time>2022-01-06T10:28:10Z</time>
      </trkpt>
      <trkpt lat="45.84104" lon="6.30893">
        <ele>1184</ele>
        <time>2022-01-06T10:28:11Z</time>
      </trkpt>
      <trkpt lat="45.84103" lon="6.30893">
        <ele>1184</ele>
        <time>2022-01-06T10:28:12Z</time>
      </trkpt>
      <trkpt lat="45.84103" lon="6.30893">
        <ele>1184</ele>
        <time>2022-01-06T10:28:13Z</time>
      </trkpt>
      <trkpt lat="45.84102" lon="6.30893">
        <ele>1184</ele>
        <time>2022-01-06T10:28:14Z</time>
      </trkpt>
      <trkpt lat="45.84102" lon="6.30893">
        <ele>1184</ele>
        <time>2022-01-06T10:28:15Z</time>
      </trkpt>
      <trkpt lat="45.84102" lon="6.30892">
        <ele>1184</ele>
        <time>2022-01-06T10:28:16Z</time>
      </trkpt>
      <trkpt lat="45.84102" lon="6.30892">
        <ele>1184</ele>
        <time>2022-01-06T10:28:17Z</time>
      </trkpt>
      <trkpt lat="45.84102" lon="6.30892">
        <ele>1184</ele>
        <time>2022-01-06T10:28:18Z</time>
      </trkpt>
      <trkpt lat="45.84102" lon="6.30892">
        <ele>1184</ele>
        <time>2022-01-06T10:28:19Z</time>
      </trkpt>
      <trkpt lat="45.84102" lon="6.30891">
        <ele>1184</ele>
        <time>2022-01-06T10:28:20Z</time>
      </trkpt>
      <trkpt lat="45.84102" lon="6.30891">
        <ele>1184</ele>
        <time>2022-01-06T10:28:21Z</time>
      </trkpt>
      <trkpt lat="45.84102" lon="6.30891">
        <ele>1184</ele>
        <time>2022-01-06T10:28:22Z</time>
      </trkpt>
      <trkpt lat="45.84102" lon="6.30891">
        <ele>1184</ele>
        <time>2022-01-06T10:28:23Z</time>
      </trkpt>
      <trkpt lat="45.84102" lon="6.30891">
        <ele>1184</ele>
        <time>2022-01-06T10:28:24Z</time>
      </trkpt>
      <trkpt lat="45.84102" lon="6.3089">
        <ele>1184</ele>
        <time>2022-01-06T10:28:25Z</time>
      </trkpt>
      <trkpt lat="45.84103" lon="6.3089">
        <ele>1184</ele>
        <time>2022-01-06T10:28:26Z</time>
      </trkpt>
      <trkpt lat="45.84103" lon="6.30889">
        <ele>1184</ele>
        <time>2022-01-06T10:28:27Z</time>
      </trkpt>
      <trkpt lat="45.84103" lon="6.30889">
        <ele>1184</ele>
        <time>2022-01-06T10:28:28Z</time>
      </trkpt>
      <trkpt lat="45.84103" lon="6.30889">
        <ele>1184</ele>
        <time>2022-01-06T10:28:29Z</time>
      </trkpt>
      <trkpt lat="45.84103" lon="6.30888">
        <ele>1184</ele>
        <time>2022-01-06T10:28:30Z</time>
      </trkpt>
      <trkpt lat="45.84103" lon="6.30887">
        <ele>1184</ele>
        <time>2022-01-06T10:28:31Z</time>
      </trkpt>
      <trkpt lat="45.84103" lon="6.30885">
        <ele>1184</ele>
        <time>2022-01-06T10:28:32Z</time>
      </trkpt>
      <trkpt lat="45.84103" lon="6.30882">
        <ele>1183.1</ele>
        <time>2022-01-06T10:28:33Z</time>
      </trkpt>
      <trkpt lat="45.84103" lon="6.3088">
        <ele>1183.1</ele>
        <time>2022-01-06T10:28:34Z</time>
      </trkpt>
      <trkpt lat="45.84104" lon="6.30877">
        <ele>1183.1</ele>
        <time>2022-01-06T10:28:35Z</time>
      </trkpt>
      <trkpt lat="45.84104" lon="6.30874">
        <ele>1183.1</ele>
        <time>2022-01-06T10:28:36Z</time>
      </trkpt>
      <trkpt lat="45.84105" lon="6.3087">
        <ele>1183.1</ele>
        <time>2022-01-06T10:28:37Z</time>
      </trkpt>
      <trkpt lat="45.84106" lon="6.30866">
        <ele>1183.1</ele>
        <time>2022-01-06T10:28:38Z</time>
      </trkpt>
      <trkpt lat="45.84107" lon="6.30862">
        <ele>1178.1</ele>
        <time>2022-01-06T10:28:39Z</time>
      </trkpt>
      <trkpt lat="45.84108" lon="6.30858">
        <ele>1178.1</ele>
        <time>2022-01-06T10:28:40Z</time>
      </trkpt>
      <trkpt lat="45.84109" lon="6.30853">
        <ele>1178.1</ele>
        <time>2022-01-06T10:28:41Z</time>
      </trkpt>
      <trkpt lat="45.8411" lon="6.3085">
        <ele>1178.1</ele>
        <time>2022-01-06T10:28:42Z</time>
      </trkpt>
      <trkpt lat="45.84112" lon="6.30849">
        <ele>1178.1</ele>
        <time>2022-01-06T10:28:43Z</time>
      </trkpt>
      <trkpt lat="45.84113" lon="6.30848">
        <ele>1178.1</ele>
        <time>2022-01-06T10:28:44Z</time>
      </trkpt>
      <trkpt lat="45.84114" lon="6.30847">
        <ele>1172.1</ele>
        <time>2022-01-06T10:28:45Z</time>
      </trkpt>
      <trkpt lat="45.84116" lon="6.30845">
        <ele>1172.1</ele>
        <time>2022-01-06T10:28:46Z</time>
      </trkpt>
      <trkpt lat="45.84118" lon="6.30844">
        <ele>1171.1</ele>
        <time>2022-01-06T10:28:47Z</time>
      </trkpt>
      <trkpt lat="45.84119" lon="6.30845">
        <ele>1171.1</ele>
        <time>2022-01-06T10:28:48Z</time>
      </trkpt>
      <trkpt lat="45.8412" lon="6.30846">
        <ele>1169.1</ele>
        <time>2022-01-06T10:28:49Z</time>
      </trkpt>
      <trkpt lat="45.84121" lon="6.30848">
        <ele>1169.1</ele>
        <time>2022-01-06T10:28:50Z</time>
      </trkpt>
      <trkpt lat="45.84122" lon="6.30849">
        <ele>1168</ele>
        <time>2022-01-06T10:28:51Z</time>
      </trkpt>
      <trkpt lat="45.84123" lon="6.30849">
        <ele>1168</ele>
        <time>2022-01-06T10:28:52Z</time>
      </trkpt>
      <trkpt lat="45.84124" lon="6.30848">
        <ele>1167.1</ele>
        <time>2022-01-06T10:28:53Z</time>
      </trkpt>
      <trkpt lat="45.84126" lon="6.30846">
        <ele>1167.1</ele>
        <time>2022-01-06T10:28:54Z</time>
      </trkpt>
      <trkpt lat="45.84127" lon="6.30844">
        <ele>1165.1</ele>
        <time>2022-01-06T10:28:55Z</time>
      </trkpt>
      <trkpt lat="45.84129" lon="6.30842">
        <ele>1165.1</ele>
        <time>2022-01-06T10:28:56Z</time>
      </trkpt>
      <trkpt lat="45.8413" lon="6.3084">
        <ele>1164</ele>
        <time>2022-01-06T10:28:57Z</time>
      </trkpt>
      <trkpt lat="45.84132" lon="6.30841">
        <ele>1164</ele>
        <time>2022-01-06T10:28:58Z</time>
      </trkpt>
      <trkpt lat="45.84134" lon="6.30842">
        <ele>1162.1</ele>
        <time>2022-01-06T10:28:59Z</time>
      </trkpt>
      <trkpt lat="45.84135" lon="6.30845">
        <ele>1162.1</ele>
        <time>2022-01-06T10:29:00Z</time>
      </trkpt>
      <trkpt lat="45.84137" lon="6.30847">
        <ele>1161.2</ele>
        <time>2022-01-06T10:29:01Z</time>
      </trkpt>
      <trkpt lat="45.84139" lon="6.30847">
        <ele>1161.2</ele>
        <time>2022-01-06T10:29:02Z</time>
      </trkpt>
      <trkpt lat="45.8414" lon="6.30845">
        <ele>1159</ele>
        <time>2022-01-06T10:29:03Z</time>
      </trkpt>
      <trkpt lat="45.84142" lon="6.30844">
        <ele>1159</ele>
        <time>2022-01-06T10:29:04Z</time>
      </trkpt>
      <trkpt lat="45.84143" lon="6.30842">
        <ele>1158.1</ele>
        <time>2022-01-06T10:29:05Z</time>
      </trkpt>
      <trkpt lat="45.84144" lon="6.30841">
        <ele>1158.1</ele>
        <time>2022-01-06T10:29:06Z</time>
      </trkpt>
      <trkpt lat="45.84145" lon="6.30842">
        <ele>1158.1</ele>
        <time>2022-01-06T10:29:07Z</time>
      </trkpt>
      <trkpt lat="45.84146" lon="6.30842">
        <ele>1158.1</ele>
        <time>2022-01-06T10:29:08Z</time>
      </trkpt>
      <trkpt lat="45.84147" lon="6.30843">
        <ele>1156.1</ele>
        <time>2022-01-06T10:29:09Z</time>
      </trkpt>
      <trkpt lat="45.84147" lon="6.30843">
        <ele>1156.1</ele>
        <time>2022-01-06T10:29:10Z</time>
      </trkpt>
      <trkpt lat="45.84148" lon="6.30844">
        <ele>1155.1</ele>
        <time>2022-01-06T10:29:11Z</time>
      </trkpt>
      <trkpt lat="45.84149" lon="6.30843">
        <ele>1155.1</ele>
        <time>2022-01-06T10:29:12Z</time>
      </trkpt>
      <trkpt lat="45.8415" lon="6.30843">
        <ele>1154.1</ele>
        <time>2022-01-06T10:29:13Z</time>
      </trkpt>
      <trkpt lat="45.84151" lon="6.30843">
        <ele>1154.1</ele>
        <time>2022-01-06T10:29:14Z</time>
      </trkpt>
      <trkpt lat="45.84153" lon="6.30843">
        <ele>1153.1</ele>
        <time>2022-01-06T10:29:15Z</time>
      </trkpt>
      <trkpt lat="45.84155" lon="6.30843">
        <ele>1153.1</ele>
        <time>2022-01-06T10:29:16Z</time>
      </trkpt>
      <trkpt lat="45.84156" lon="6.30843">
        <ele>1151.1</ele>
        <time>2022-01-06T10:29:17Z</time>
      </trkpt>
      <trkpt lat="45.84158" lon="6.30842">
        <ele>1151.1</ele>
        <time>2022-01-06T10:29:18Z</time>
      </trkpt>
      <trkpt lat="45.84159" lon="6.30841">
        <ele>1150</ele>
        <time>2022-01-06T10:29:19Z</time>
      </trkpt>
      <trkpt lat="45.8416" lon="6.3084">
        <ele>1150</ele>
        <time>2022-01-06T10:29:20Z</time>
      </trkpt>
      <trkpt lat="45.84162" lon="6.30839">
        <ele>1149.1</ele>
        <time>2022-01-06T10:29:21Z</time>
      </trkpt>
      <trkpt lat="45.84164" lon="6.3084">
        <ele>1149.1</ele>
        <time>2022-01-06T10:29:22Z</time>
      </trkpt>
      <trkpt lat="45.84166" lon="6.3084">
        <ele>1148</ele>
        <time>2022-01-06T10:29:23Z</time>
      </trkpt>
      <trkpt lat="45.84168" lon="6.30839">
        <ele>1148</ele>
        <time>2022-01-06T10:29:24Z</time>
      </trkpt>
      <trkpt lat="45.8417" lon="6.3084">
        <ele>1146.1</ele>
        <time>2022-01-06T10:29:25Z</time>
      </trkpt>
      <trkpt lat="45.84172" lon="6.30841">
        <ele>1146.1</ele>
        <time>2022-01-06T10:29:26Z</time>
      </trkpt>
      <trkpt lat="45.84173" lon="6.30843">
        <ele>1144.1</ele>
        <time>2022-01-06T10:29:27Z</time>
      </trkpt>
      <trkpt lat="45.84174" lon="6.30843">
        <ele>1144.1</ele>
        <time>2022-01-06T10:29:28Z</time>
      </trkpt>
      <trkpt lat="45.84176" lon="6.30842">
        <ele>1143</ele>
        <time>2022-01-06T10:29:29Z</time>
      </trkpt>
      <trkpt lat="45.84177" lon="6.30841">
        <ele>1143</ele>
        <time>2022-01-06T10:29:30Z</time>
      </trkpt>
      <trkpt lat="45.84177" lon="6.30841">
        <ele>1142.1</ele>
        <time>2022-01-06T10:29:31Z</time>
      </trkpt>
      <trkpt lat="45.84178" lon="6.3084">
        <ele>1142.1</ele>
        <time>2022-01-06T10:29:32Z</time>
      </trkpt>
      <trkpt lat="45.84178" lon="6.3084">
        <ele>1142.1</ele>
        <time>2022-01-06T10:29:33Z</time>
      </trkpt>
      <trkpt lat="45.84178" lon="6.3084">
        <ele>1142.1</ele>
        <time>2022-01-06T10:29:34Z</time>
      </trkpt>
      <trkpt lat="45.84178" lon="6.3084">
        <ele>1142.1</ele>
        <time>2022-01-06T10:29:35Z</time>
      </trkpt>
      <trkpt lat="45.84179" lon="6.30841">
        <ele>1142.1</ele>
        <time>2022-01-06T10:29:36Z</time>
      </trkpt>
      <trkpt lat="45.8418" lon="6.30844">
        <ele>1141</ele>
        <time>2022-01-06T10:29:37Z</time>
      </trkpt>
      <trkpt lat="45.84181" lon="6.30847">
        <ele>1141</ele>
        <time>2022-01-06T10:29:38Z</time>
      </trkpt>
      <trkpt lat="45.84183" lon="6.30849">
        <ele>1140.1</ele>
        <time>2022-01-06T10:29:39Z</time>
      </trkpt>
      <trkpt lat="45.84185" lon="6.30849">
        <ele>1140.1</ele>
        <time>2022-01-06T10:29:40Z</time>
      </trkpt>
      <trkpt lat="45.84187" lon="6.30849">
        <ele>1140.1</ele>
        <time>2022-01-06T10:29:41Z</time>
      </trkpt>
      <trkpt lat="45.84188" lon="6.30849">
        <ele>1140.1</ele>
        <time>2022-01-06T10:29:42Z</time>
      </trkpt>
      <trkpt lat="45.84188" lon="6.30849">
        <ele>1140.1</ele>
        <time>2022-01-06T10:29:43Z</time>
      </trkpt>
      <trkpt lat="45.84189" lon="6.30849">
        <ele>1140.1</ele>
        <time>2022-01-06T10:29:44Z</time>
      </trkpt>
      <trkpt lat="45.84189" lon="6.30849">
        <ele>1137.1</ele>
        <time>2022-01-06T10:29:45Z</time>
      </trkpt>
      <trkpt lat="45.84188" lon="6.30849">
        <ele>1137.1</ele>
        <time>2022-01-06T10:29:46Z</time>
      </trkpt>
      <trkpt lat="45.84188" lon="6.3085">
        <ele>1137.1</ele>
        <time>2022-01-06T10:29:47Z</time>
      </trkpt>
      <trkpt lat="45.84188" lon="6.3085">
        <ele>1137.1</ele>
        <time>2022-01-06T10:29:48Z</time>
      </trkpt>
      <trkpt lat="45.84188" lon="6.30851">
        <ele>1137.1</ele>
        <time>2022-01-06T10:29:49Z</time>
      </trkpt>
      <trkpt lat="45.84188" lon="6.30851">
        <ele>1137.1</ele>
        <time>2022-01-06T10:29:50Z</time>
      </trkpt>
      <trkpt lat="45.84188" lon="6.30851">
        <ele>1137.1</ele>
        <time>2022-01-06T10:29:51Z</time>
      </trkpt>
      <trkpt lat="45.84188" lon="6.30852">
        <ele>1137.1</ele>
        <time>2022-01-06T10:29:52Z</time>
      </trkpt>
      <trkpt lat="45.84188" lon="6.30852">
        <ele>1137.1</ele>
        <time>2022-01-06T10:29:53Z</time>
      </trkpt>
      <trkpt lat="45.84188" lon="6.30853">
        <ele>1137.1</ele>
        <time>2022-01-06T10:29:54Z</time>
      </trkpt>
      <trkpt lat="45.84188" lon="6.30853">
        <ele>1137.1</ele>
        <time>2022-01-06T10:29:55Z</time>
      </trkpt>
      <trkpt lat="45.8419" lon="6.30853">
        <ele>1137.1</ele>
        <time>2022-01-06T10:29:56Z</time>
      </trkpt>
      <trkpt lat="45.84193" lon="6.30853">
        <ele>1137.1</ele>
        <time>2022-01-06T10:29:57Z</time>
      </trkpt>
      <trkpt lat="45.84196" lon="6.30854">
        <ele>1137.1</ele>
        <time>2022-01-06T10:29:58Z</time>
      </trkpt>
      <trkpt lat="45.84199" lon="6.30856">
        <ele>1137.1</ele>
        <time>2022-01-06T10:29:59Z</time>
      </trkpt>
      <trkpt lat="45.84202" lon="6.30859">
        <ele>1137.1</ele>
        <time>2022-01-06T10:30:00Z</time>
      </trkpt>
      <trkpt lat="45.84204" lon="6.30862">
        <ele>1131.1</ele>
        <time>2022-01-06T10:30:01Z</time>
      </trkpt>
      <trkpt lat="45.84206" lon="6.30864">
        <ele>1131.1</ele>
        <time>2022-01-06T10:30:02Z</time>
      </trkpt>
      <trkpt lat="45.84207" lon="6.30865">
        <ele>1130.1</ele>
        <time>2022-01-06T10:30:03Z</time>
      </trkpt>
      <trkpt lat="45.84208" lon="6.30866">
        <ele>1130.1</ele>
        <time>2022-01-06T10:30:04Z</time>
      </trkpt>
      <trkpt lat="45.84209" lon="6.30867">
        <ele>1130.1</ele>
        <time>2022-01-06T10:30:05Z</time>
      </trkpt>
      <trkpt lat="45.84209" lon="6.30867">
        <ele>1130.1</ele>
        <time>2022-01-06T10:30:06Z</time>
      </trkpt>
      <trkpt lat="45.8421" lon="6.30867">
        <ele>1130.1</ele>
        <time>2022-01-06T10:30:07Z</time>
      </trkpt>
      <trkpt lat="45.84211" lon="6.30868">
        <ele>1130.1</ele>
        <time>2022-01-06T10:30:08Z</time>
      </trkpt>
      <trkpt lat="45.84212" lon="6.30868">
        <ele>1128.1</ele>
        <time>2022-01-06T10:30:09Z</time>
      </trkpt>
      <trkpt lat="45.84213" lon="6.30869">
        <ele>1128.1</ele>
        <time>2022-01-06T10:30:10Z</time>
      </trkpt>
      <trkpt lat="45.84215" lon="6.30871">
        <ele>1127</ele>
        <time>2022-01-06T10:30:11Z</time>
      </trkpt>
      <trkpt lat="45.84217" lon="6.30873">
        <ele>1127</ele>
        <time>2022-01-06T10:30:12Z</time>
      </trkpt>
      <trkpt lat="45.84218" lon="6.30875">
        <ele>1126.1</ele>
        <time>2022-01-06T10:30:13Z</time>
      </trkpt>
      <trkpt lat="45.84219" lon="6.30877">
        <ele>1126.1</ele>
        <time>2022-01-06T10:30:14Z</time>
      </trkpt>
      <trkpt lat="45.8422" lon="6.30879">
        <ele>1125</ele>
        <time>2022-01-06T10:30:15Z</time>
      </trkpt>
      <trkpt lat="45.84222" lon="6.3088">
        <ele>1125</ele>
        <time>2022-01-06T10:30:16Z</time>
      </trkpt>
      <trkpt lat="45.84224" lon="6.30881">
        <ele>1123</ele>
        <time>2022-01-06T10:30:17Z</time>
      </trkpt>
      <trkpt lat="45.84226" lon="6.30881">
        <ele>1123</ele>
        <time>2022-01-06T10:30:18Z</time>
      </trkpt>
      <trkpt lat="45.84228" lon="6.30881">
        <ele>1122.1</ele>
        <time>2022-01-06T10:30:19Z</time>
      </trkpt>
      <trkpt lat="45.84231" lon="6.30881">
        <ele>1122.1</ele>
        <time>2022-01-06T10:30:20Z</time>
      </trkpt>
      <trkpt lat="45.84234" lon="6.3088">
        <ele>1120.2</ele>
        <time>2022-01-06T10:30:21Z</time>
      </trkpt>
      <trkpt lat="45.84237" lon="6.3088">
        <ele>1120.2</ele>
        <time>2022-01-06T10:30:22Z</time>
      </trkpt>
      <trkpt lat="45.8424" lon="6.30881">
        <ele>1118</ele>
        <time>2022-01-06T10:30:23Z</time>
      </trkpt>
      <trkpt lat="45.84243" lon="6.30884">
        <ele>1118</ele>
        <time>2022-01-06T10:30:24Z</time>
      </trkpt>
      <trkpt lat="45.84244" lon="6.30885">
        <ele>1117.1</ele>
        <time>2022-01-06T10:30:25Z</time>
      </trkpt>
      <trkpt lat="45.84245" lon="6.30886">
        <ele>1117.1</ele>
        <time>2022-01-06T10:30:26Z</time>
      </trkpt>
      <trkpt lat="45.84246" lon="6.30886">
        <ele>1116</ele>
        <time>2022-01-06T10:30:27Z</time>
      </trkpt>
      <trkpt lat="45.84246" lon="6.30886">
        <ele>1116</ele>
        <time>2022-01-06T10:30:28Z</time>
      </trkpt>
      <trkpt lat="45.84247" lon="6.30887">
        <ele>1116</ele>
        <time>2022-01-06T10:30:29Z</time>
      </trkpt>
      <trkpt lat="45.84249" lon="6.30888">
        <ele>1116</ele>
        <time>2022-01-06T10:30:30Z</time>
      </trkpt>
      <trkpt lat="45.8425" lon="6.30889">
        <ele>1114.1</ele>
        <time>2022-01-06T10:30:31Z</time>
      </trkpt>
      <trkpt lat="45.84252" lon="6.30891">
        <ele>1114.1</ele>
        <time>2022-01-06T10:30:32Z</time>
      </trkpt>
      <trkpt lat="45.84253" lon="6.30894">
        <ele>1113.1</ele>
        <time>2022-01-06T10:30:33Z</time>
      </trkpt>
      <trkpt lat="45.84253" lon="6.30895">
        <ele>1113.1</ele>
        <time>2022-01-06T10:30:34Z</time>
      </trkpt>
      <trkpt lat="45.84253" lon="6.30896">
        <ele>1112.1</ele>
        <time>2022-01-06T10:30:35Z</time>
      </trkpt>
      <trkpt lat="45.84254" lon="6.30897">
        <ele>1112.1</ele>
        <time>2022-01-06T10:30:36Z</time>
      </trkpt>
      <trkpt lat="45.84255" lon="6.30897">
        <ele>1111</ele>
        <time>2022-01-06T10:30:37Z</time>
      </trkpt>
      <trkpt lat="45.84256" lon="6.30898">
        <ele>1111</ele>
        <time>2022-01-06T10:30:38Z</time>
      </trkpt>
      <trkpt lat="45.84257" lon="6.30899">
        <ele>1110.1</ele>
        <time>2022-01-06T10:30:39Z</time>
      </trkpt>
      <trkpt lat="45.84257" lon="6.30899">
        <ele>1110.1</ele>
        <time>2022-01-06T10:30:40Z</time>
      </trkpt>
      <trkpt lat="45.84258" lon="6.30898">
        <ele>1110.1</ele>
        <time>2022-01-06T10:30:41Z</time>
      </trkpt>
      <trkpt lat="45.84259" lon="6.30897">
        <ele>1110.1</ele>
        <time>2022-01-06T10:30:42Z</time>
      </trkpt>
      <trkpt lat="45.84259" lon="6.30896">
        <ele>1110.1</ele>
        <time>2022-01-06T10:30:43Z</time>
      </trkpt>
      <trkpt lat="45.84259" lon="6.30894">
        <ele>1110.1</ele>
        <time>2022-01-06T10:30:44Z</time>
      </trkpt>
      <trkpt lat="45.84259" lon="6.30894">
        <ele>1110.1</ele>
        <time>2022-01-06T10:30:45Z</time>
      </trkpt>
      <trkpt lat="45.84259" lon="6.30893">
        <ele>1110.1</ele>
        <time>2022-01-06T10:30:46Z</time>
      </trkpt>
      <trkpt lat="45.8426" lon="6.30893">
        <ele>1110.1</ele>
        <time>2022-01-06T10:30:47Z</time>
      </trkpt>
      <trkpt lat="45.8426" lon="6.30892">
        <ele>1110.1</ele>
        <time>2022-01-06T10:30:48Z</time>
      </trkpt>
      <trkpt lat="45.84261" lon="6.30891">
        <ele>1110.1</ele>
        <time>2022-01-06T10:30:49Z</time>
      </trkpt>
      <trkpt lat="45.84262" lon="6.30889">
        <ele>1110.1</ele>
        <time>2022-01-06T10:30:50Z</time>
      </trkpt>
      <trkpt lat="45.84263" lon="6.30886">
        <ele>1110.1</ele>
        <time>2022-01-06T10:30:51Z</time>
      </trkpt>
      <trkpt lat="45.84264" lon="6.30883">
        <ele>1110.1</ele>
        <time>2022-01-06T10:30:52Z</time>
      </trkpt>
      <trkpt lat="45.84266" lon="6.30883">
        <ele>1110.1</ele>
        <time>2022-01-06T10:30:53Z</time>
      </trkpt>
      <trkpt lat="45.84268" lon="6.30884">
        <ele>1110.1</ele>
        <time>2022-01-06T10:30:54Z</time>
      </trkpt>
      <trkpt lat="45.84271" lon="6.30886">
        <ele>1105.1</ele>
        <time>2022-01-06T10:30:55Z</time>
      </trkpt>
      <trkpt lat="45.84273" lon="6.30888">
        <ele>1105.1</ele>
        <time>2022-01-06T10:30:56Z</time>
      </trkpt>
      <trkpt lat="45.84275" lon="6.3089">
        <ele>1104.2</ele>
        <time>2022-01-06T10:30:57Z</time>
      </trkpt>
      <trkpt lat="45.84277" lon="6.30891">
        <ele>1104.2</ele>
        <time>2022-01-06T10:30:58Z</time>
      </trkpt>
      <trkpt lat="45.84279" lon="6.30892">
        <ele>1103.1</ele>
        <time>2022-01-06T10:30:59Z</time>
      </trkpt>
      <trkpt lat="45.84281" lon="6.30894">
        <ele>1103.1</ele>
        <time>2022-01-06T10:31:00Z</time>
      </trkpt>
      <trkpt lat="45.84283" lon="6.30897">
        <ele>1102</ele>
        <time>2022-01-06T10:31:01Z</time>
      </trkpt>
      <trkpt lat="45.84284" lon="6.309">
        <ele>1102</ele>
        <time>2022-01-06T10:31:02Z</time>
      </trkpt>
      <trkpt lat="45.84286" lon="6.30903">
        <ele>1102</ele>
        <time>2022-01-06T10:31:03Z</time>
      </trkpt>
      <trkpt lat="45.84287" lon="6.30906">
        <ele>1102</ele>
        <time>2022-01-06T10:31:04Z</time>
      </trkpt>
      <trkpt lat="45.84288" lon="6.30908">
        <ele>1102</ele>
        <time>2022-01-06T10:31:05Z</time>
      </trkpt>
      <trkpt lat="45.8429" lon="6.3091">
        <ele>1102</ele>
        <time>2022-01-06T10:31:06Z</time>
      </trkpt>
      <trkpt lat="45.84292" lon="6.30911">
        <ele>1097.1</ele>
        <time>2022-01-06T10:31:07Z</time>
      </trkpt>
      <trkpt lat="45.84294" lon="6.30912">
        <ele>1097.1</ele>
        <time>2022-01-06T10:31:08Z</time>
      </trkpt>
      <trkpt lat="45.84296" lon="6.30914">
        <ele>1096.1</ele>
        <time>2022-01-06T10:31:09Z</time>
      </trkpt>
      <trkpt lat="45.84298" lon="6.30916">
        <ele>1096.1</ele>
        <time>2022-01-06T10:31:10Z</time>
      </trkpt>
      <trkpt lat="45.843" lon="6.30917">
        <ele>1095</ele>
        <time>2022-01-06T10:31:11Z</time>
      </trkpt>
      <trkpt lat="45.84301" lon="6.30918">
        <ele>1095</ele>
        <time>2022-01-06T10:31:12Z</time>
      </trkpt>
      <trkpt lat="45.84302" lon="6.30919">
        <ele>1095</ele>
        <time>2022-01-06T10:31:13Z</time>
      </trkpt>
      <trkpt lat="45.84303" lon="6.30919">
        <ele>1095</ele>
        <time>2022-01-06T10:31:14Z</time>
      </trkpt>
      <trkpt lat="45.84304" lon="6.3092">
        <ele>1094.1</ele>
        <time>2022-01-06T10:31:15Z</time>
      </trkpt>
      <trkpt lat="45.84305" lon="6.3092">
        <ele>1094.1</ele>
        <time>2022-01-06T10:31:16Z</time>
      </trkpt>
      <trkpt lat="45.84306" lon="6.30921">
        <ele>1094.1</ele>
        <time>2022-01-06T10:31:17Z</time>
      </trkpt>
      <trkpt lat="45.84307" lon="6.30921">
        <ele>1094.1</ele>
        <time>2022-01-06T10:31:18Z</time>
      </trkpt>
      <trkpt lat="45.84307" lon="6.30921">
        <ele>1093</ele>
        <time>2022-01-06T10:31:19Z</time>
      </trkpt>
      <trkpt lat="45.84308" lon="6.30921">
        <ele>1093</ele>
        <time>2022-01-06T10:31:20Z</time>
      </trkpt>
      <trkpt lat="45.84309" lon="6.30921">
        <ele>1092.1</ele>
        <time>2022-01-06T10:31:21Z</time>
      </trkpt>
      <trkpt lat="45.8431" lon="6.30922">
        <ele>1092.1</ele>
        <time>2022-01-06T10:31:22Z</time>
      </trkpt>
      <trkpt lat="45.8431" lon="6.30924">
        <ele>1091</ele>
        <time>2022-01-06T10:31:23Z</time>
      </trkpt>
      <trkpt lat="45.84311" lon="6.30926">
        <ele>1091</ele>
        <time>2022-01-06T10:31:24Z</time>
      </trkpt>
      <trkpt lat="45.84311" lon="6.30927">
        <ele>1091</ele>
        <time>2022-01-06T10:31:25Z</time>
      </trkpt>
      <trkpt lat="45.84311" lon="6.30927">
        <ele>1091</ele>
        <time>2022-01-06T10:31:26Z</time>
      </trkpt>
      <trkpt lat="45.84312" lon="6.30928">
        <ele>1090.1</ele>
        <time>2022-01-06T10:31:27Z</time>
      </trkpt>
      <trkpt lat="45.84312" lon="6.30928">
        <ele>1090.1</ele>
        <time>2022-01-06T10:31:28Z</time>
      </trkpt>
      <trkpt lat="45.84313" lon="6.30927">
        <ele>1089.1</ele>
        <time>2022-01-06T10:31:29Z</time>
      </trkpt>
      <trkpt lat="45.84314" lon="6.30927">
        <ele>1089.1</ele>
        <time>2022-01-06T10:31:30Z</time>
      </trkpt>
      <trkpt lat="45.84315" lon="6.30927">
        <ele>1088.1</ele>
        <time>2022-01-06T10:31:31Z</time>
      </trkpt>
      <trkpt lat="45.84316" lon="6.30927">
        <ele>1088.1</ele>
        <time>2022-01-06T10:31:32Z</time>
      </trkpt>
      <trkpt lat="45.84316" lon="6.30926">
        <ele>1088.1</ele>
        <time>2022-01-06T10:31:33Z</time>
      </trkpt>
      <trkpt lat="45.84317" lon="6.30926">
        <ele>1088.1</ele>
        <time>2022-01-06T10:31:34Z</time>
      </trkpt>
      <trkpt lat="45.84317" lon="6.30926">
        <ele>1087.1</ele>
        <time>2022-01-06T10:31:35Z</time>
      </trkpt>
      <trkpt lat="45.84318" lon="6.30925">
        <ele>1087.1</ele>
        <time>2022-01-06T10:31:36Z</time>
      </trkpt>
      <trkpt lat="45.84319" lon="6.30926">
        <ele>1087.1</ele>
        <time>2022-01-06T10:31:37Z</time>
      </trkpt>
      <trkpt lat="45.8432" lon="6.30927">
        <ele>1087.1</ele>
        <time>2022-01-06T10:31:38Z</time>
      </trkpt>
      <trkpt lat="45.84321" lon="6.30928">
        <ele>1086</ele>
        <time>2022-01-06T10:31:39Z</time>
      </trkpt>
      <trkpt lat="45.84322" lon="6.3093">
        <ele>1086</ele>
        <time>2022-01-06T10:31:40Z</time>
      </trkpt>
      <trkpt lat="45.84322" lon="6.30932">
        <ele>1085.1</ele>
        <time>2022-01-06T10:31:41Z</time>
      </trkpt>
      <trkpt lat="45.84323" lon="6.30934">
        <ele>1085.1</ele>
        <time>2022-01-06T10:31:42Z</time>
      </trkpt>
      <trkpt lat="45.84322" lon="6.30936">
        <ele>1085.1</ele>
        <time>2022-01-06T10:31:43Z</time>
      </trkpt>
      <trkpt lat="45.84322" lon="6.30937">
        <ele>1085.1</ele>
        <time>2022-01-06T10:31:44Z</time>
      </trkpt>
      <trkpt lat="45.84322" lon="6.30938">
        <ele>1085.1</ele>
        <time>2022-01-06T10:31:45Z</time>
      </trkpt>
      <trkpt lat="45.84323" lon="6.30939">
        <ele>1085.1</ele>
        <time>2022-01-06T10:31:46Z</time>
      </trkpt>
      <trkpt lat="45.84323" lon="6.30939">
        <ele>1085.1</ele>
        <time>2022-01-06T10:31:47Z</time>
      </trkpt>
      <trkpt lat="45.84323" lon="6.30939">
        <ele>1085.1</ele>
        <time>2022-01-06T10:31:48Z</time>
      </trkpt>
      <trkpt lat="45.84323" lon="6.30939">
        <ele>1085.1</ele>
        <time>2022-01-06T10:31:49Z</time>
      </trkpt>
      <trkpt lat="45.84323" lon="6.30939">
        <ele>1085.1</ele>
        <time>2022-01-06T10:31:50Z</time>
      </trkpt>
      <trkpt lat="45.84324" lon="6.30939">
        <ele>1084</ele>
        <time>2022-01-06T10:31:51Z</time>
      </trkpt>
      <trkpt lat="45.84324" lon="6.3094">
        <ele>1084</ele>
        <time>2022-01-06T10:31:52Z</time>
      </trkpt>
      <trkpt lat="45.84325" lon="6.3094">
        <ele>1083.1</ele>
        <time>2022-01-06T10:31:53Z</time>
      </trkpt>
      <trkpt lat="45.84327" lon="6.3094">
        <ele>1083.1</ele>
        <time>2022-01-06T10:31:54Z</time>
      </trkpt>
      <trkpt lat="45.84329" lon="6.30941">
        <ele>1082.1</ele>
        <time>2022-01-06T10:31:55Z</time>
      </trkpt>
      <trkpt lat="45.8433" lon="6.30943">
        <ele>1082.1</ele>
        <time>2022-01-06T10:31:56Z</time>
      </trkpt>
      <trkpt lat="45.84331" lon="6.30946">
        <ele>1081.1</ele>
        <time>2022-01-06T10:31:57Z</time>
      </trkpt>
      <trkpt lat="45.84331" lon="6.30948">
        <ele>1081.1</ele>
        <time>2022-01-06T10:31:58Z</time>
      </trkpt>
      <trkpt lat="45.84333" lon="6.3095">
        <ele>1080.1</ele>
        <time>2022-01-06T10:31:59Z</time>
      </trkpt>
      <trkpt lat="45.84335" lon="6.30953">
        <ele>1080.1</ele>
        <time>2022-01-06T10:32:00Z</time>
      </trkpt>
      <trkpt lat="45.84335" lon="6.30957">
        <ele>1080.1</ele>
        <time>2022-01-06T10:32:01Z</time>
      </trkpt>
      <trkpt lat="45.84335" lon="6.30959">
        <ele>1080.1</ele>
        <time>2022-01-06T10:32:02Z</time>
      </trkpt>
      <trkpt lat="45.84334" lon="6.30961">
        <ele>1080.1</ele>
        <time>2022-01-06T10:32:03Z</time>
      </trkpt>
      <trkpt lat="45.84334" lon="6.30962">
        <ele>1080.1</ele>
        <time>2022-01-06T10:32:04Z</time>
      </trkpt>
      <trkpt lat="45.84334" lon="6.30964">
        <ele>1077</ele>
        <time>2022-01-06T10:32:05Z</time>
      </trkpt>
      <trkpt lat="45.84333" lon="6.30964">
        <ele>1077</ele>
        <time>2022-01-06T10:32:06Z</time>
      </trkpt>
      <trkpt lat="45.84333" lon="6.30965">
        <ele>1077</ele>
        <time>2022-01-06T10:32:07Z</time>
      </trkpt>
      <trkpt lat="45.84334" lon="6.30965">
        <ele>1077</ele>
        <time>2022-01-06T10:32:08Z</time>
      </trkpt>
      <trkpt lat="45.84335" lon="6.30965">
        <ele>1077</ele>
        <time>2022-01-06T10:32:09Z</time>
      </trkpt>
      <trkpt lat="45.84334" lon="6.30967">
        <ele>1077</ele>
        <time>2022-01-06T10:32:10Z</time>
      </trkpt>
      <trkpt lat="45.84334" lon="6.30968">
        <ele>1077</ele>
        <time>2022-01-06T10:32:11Z</time>
      </trkpt>
      <trkpt lat="45.84335" lon="6.30967">
        <ele>1077</ele>
        <time>2022-01-06T10:32:12Z</time>
      </trkpt>
      <trkpt lat="45.84335" lon="6.30967">
        <ele>1076.1</ele>
        <time>2022-01-06T10:32:13Z</time>
      </trkpt>
      <trkpt lat="45.84335" lon="6.30969">
        <ele>1076.1</ele>
        <time>2022-01-06T10:32:14Z</time>
      </trkpt>
      <trkpt lat="45.84334" lon="6.30971">
        <ele>1076.1</ele>
        <time>2022-01-06T10:32:15Z</time>
      </trkpt>
      <trkpt lat="45.84333" lon="6.30973">
        <ele>1076.1</ele>
        <time>2022-01-06T10:32:16Z</time>
      </trkpt>
      <trkpt lat="45.84332" lon="6.30975">
        <ele>1075</ele>
        <time>2022-01-06T10:32:17Z</time>
      </trkpt>
      <trkpt lat="45.84332" lon="6.30978">
        <ele>1075</ele>
        <time>2022-01-06T10:32:18Z</time>
      </trkpt>
      <trkpt lat="45.8433" lon="6.3098">
        <ele>1074.1</ele>
        <time>2022-01-06T10:32:19Z</time>
      </trkpt>
      <trkpt lat="45.84329" lon="6.30983">
        <ele>1074.1</ele>
        <time>2022-01-06T10:32:20Z</time>
      </trkpt>
      <trkpt lat="45.84326" lon="6.30986">
        <ele>1073.1</ele>
        <time>2022-01-06T10:32:21Z</time>
      </trkpt>
      <trkpt lat="45.84324" lon="6.30988">
        <ele>1073.1</ele>
        <time>2022-01-06T10:32:22Z</time>
      </trkpt>
      <trkpt lat="45.84322" lon="6.3099">
        <ele>1072.1</ele>
        <time>2022-01-06T10:32:23Z</time>
      </trkpt>
      <trkpt lat="45.84321" lon="6.30991">
        <ele>1072.1</ele>
        <time>2022-01-06T10:32:24Z</time>
      </trkpt>
      <trkpt lat="45.84318" lon="6.30994">
        <ele>1071.1</ele>
        <time>2022-01-06T10:32:25Z</time>
      </trkpt>
      <trkpt lat="45.84315" lon="6.30999">
        <ele>1071.1</ele>
        <time>2022-01-06T10:32:26Z</time>
      </trkpt>
      <trkpt lat="45.84314" lon="6.31004">
        <ele>1070</ele>
        <time>2022-01-06T10:32:27Z</time>
      </trkpt>
      <trkpt lat="45.84313" lon="6.31009">
        <ele>1070</ele>
        <time>2022-01-06T10:32:28Z</time>
      </trkpt>
      <trkpt lat="45.84313" lon="6.31015">
        <ele>1069.1</ele>
        <time>2022-01-06T10:32:29Z</time>
      </trkpt>
      <trkpt lat="45.84314" lon="6.31021">
        <ele>1069.1</ele>
        <time>2022-01-06T10:32:30Z</time>
      </trkpt>
      <trkpt lat="45.84316" lon="6.31026">
        <ele>1069.1</ele>
        <time>2022-01-06T10:32:31Z</time>
      </trkpt>
      <trkpt lat="45.84318" lon="6.31032">
        <ele>1069.1</ele>
        <time>2022-01-06T10:32:32Z</time>
      </trkpt>
      <trkpt lat="45.84321" lon="6.31038">
        <ele>1069.1</ele>
        <time>2022-01-06T10:32:33Z</time>
      </trkpt>
      <trkpt lat="45.84324" lon="6.31044">
        <ele>1069.1</ele>
        <time>2022-01-06T10:32:34Z</time>
      </trkpt>
      <trkpt lat="45.84327" lon="6.3105">
        <ele>1064.1</ele>
        <time>2022-01-06T10:32:35Z</time>
      </trkpt>
      <trkpt lat="45.8433" lon="6.31056">
        <ele>1064.1</ele>
        <time>2022-01-06T10:32:36Z</time>
      </trkpt>
      <trkpt lat="45.84332" lon="6.31062">
        <ele>1062.1</ele>
        <time>2022-01-06T10:32:37Z</time>
      </trkpt>
      <trkpt lat="45.84335" lon="6.31067">
        <ele>1062.1</ele>
        <time>2022-01-06T10:32:38Z</time>
      </trkpt>
      <trkpt lat="45.84338" lon="6.31073">
        <ele>1061</ele>
        <time>2022-01-06T10:32:39Z</time>
      </trkpt>
      <trkpt lat="45.84341" lon="6.31079">
        <ele>1061</ele>
        <time>2022-01-06T10:32:40Z</time>
      </trkpt>
      <trkpt lat="45.84344" lon="6.31085">
        <ele>1059</ele>
        <time>2022-01-06T10:32:41Z</time>
      </trkpt>
      <trkpt lat="45.84346" lon="6.3109">
        <ele>1059</ele>
        <time>2022-01-06T10:32:42Z</time>
      </trkpt>
      <trkpt lat="45.84349" lon="6.31095">
        <ele>1059</ele>
        <time>2022-01-06T10:32:43Z</time>
      </trkpt>
      <trkpt lat="45.84351" lon="6.31101">
        <ele>1059</ele>
        <time>2022-01-06T10:32:44Z</time>
      </trkpt>
      <trkpt lat="45.84353" lon="6.31108">
        <ele>1058.1</ele>
        <time>2022-01-06T10:32:45Z</time>
      </trkpt>
      <trkpt lat="45.84356" lon="6.31114">
        <ele>1058.1</ele>
        <time>2022-01-06T10:32:46Z</time>
      </trkpt>
      <trkpt lat="45.84359" lon="6.31119">
        <ele>1057.1</ele>
        <time>2022-01-06T10:32:47Z</time>
      </trkpt>
      <trkpt lat="45.84364" lon="6.31123">
        <ele>1057.1</ele>
        <time>2022-01-06T10:32:48Z</time>
      </trkpt>
      <trkpt lat="45.84369" lon="6.31124">
        <ele>1055.1</ele>
        <time>2022-01-06T10:32:49Z</time>
      </trkpt>
      <trkpt lat="45.84372" lon="6.31124">
        <ele>1055.1</ele>
        <time>2022-01-06T10:32:50Z</time>
      </trkpt>
      <trkpt lat="45.84376" lon="6.31123">
        <ele>1053.1</ele>
        <time>2022-01-06T10:32:51Z</time>
      </trkpt>
      <trkpt lat="45.8438" lon="6.31119">
        <ele>1053.1</ele>
        <time>2022-01-06T10:32:52Z</time>
      </trkpt>
      <trkpt lat="45.84384" lon="6.31114">
        <ele>1052</ele>
        <time>2022-01-06T10:32:53Z</time>
      </trkpt>
      <trkpt lat="45.84388" lon="6.3111">
        <ele>1052</ele>
        <time>2022-01-06T10:32:54Z</time>
      </trkpt>
      <trkpt lat="45.84392" lon="6.31106">
        <ele>1050</ele>
        <time>2022-01-06T10:32:55Z</time>
      </trkpt>
      <trkpt lat="45.84395" lon="6.31103">
        <ele>1050</ele>
        <time>2022-01-06T10:32:56Z</time>
      </trkpt>
      <trkpt lat="45.84399" lon="6.31099">
        <ele>1048.1</ele>
        <time>2022-01-06T10:32:57Z</time>
      </trkpt>
      <trkpt lat="45.84404" lon="6.31095">
        <ele>1048.1</ele>
        <time>2022-01-06T10:32:58Z</time>
      </trkpt>
      <trkpt lat="45.84407" lon="6.31093">
        <ele>1047.2</ele>
        <time>2022-01-06T10:32:59Z</time>
      </trkpt>
      <trkpt lat="45.84412" lon="6.31092">
        <ele>1047.2</ele>
        <time>2022-01-06T10:33:00Z</time>
      </trkpt>
      <trkpt lat="45.84418" lon="6.31091">
        <ele>1045</ele>
        <time>2022-01-06T10:33:01Z</time>
      </trkpt>
      <trkpt lat="45.84423" lon="6.3109">
        <ele>1045</ele>
        <time>2022-01-06T10:33:02Z</time>
      </trkpt>
      <trkpt lat="45.84428" lon="6.3109">
        <ele>1044.1</ele>
        <time>2022-01-06T10:33:03Z</time>
      </trkpt>
      <trkpt lat="45.84432" lon="6.3109">
        <ele>1044.1</ele>
        <time>2022-01-06T10:33:04Z</time>
      </trkpt>
      <trkpt lat="45.84437" lon="6.31091">
        <ele>1044.1</ele>
        <time>2022-01-06T10:33:05Z</time>
      </trkpt>
      <trkpt lat="45.8444" lon="6.31091">
        <ele>1044.1</ele>
        <time>2022-01-06T10:33:06Z</time>
      </trkpt>
      <trkpt lat="45.84447" lon="6.31091">
        <ele>1044.1</ele>
        <time>2022-01-06T10:33:07Z</time>
      </trkpt>
      <trkpt lat="45.84452" lon="6.31091">
        <ele>1044.1</ele>
        <time>2022-01-06T10:33:08Z</time>
      </trkpt>
      <trkpt lat="45.84457" lon="6.31092">
        <ele>1039.1</ele>
        <time>2022-01-06T10:33:09Z</time>
      </trkpt>
      <trkpt lat="45.84461" lon="6.31095">
        <ele>1039.1</ele>
        <time>2022-01-06T10:33:10Z</time>
      </trkpt>
      <trkpt lat="45.84464" lon="6.311">
        <ele>1038</ele>
        <time>2022-01-06T10:33:11Z</time>
      </trkpt>
      <trkpt lat="45.84469" lon="6.31107">
        <ele>1038</ele>
        <time>2022-01-06T10:33:12Z</time>
      </trkpt>
      <trkpt lat="45.84473" lon="6.31113">
        <ele>1037.1</ele>
        <time>2022-01-06T10:33:13Z</time>
      </trkpt>
      <trkpt lat="45.84475" lon="6.31119">
        <ele>1037.1</ele>
        <time>2022-01-06T10:33:14Z</time>
      </trkpt>
      <trkpt lat="45.84478" lon="6.31122">
        <ele>1035.1</ele>
        <time>2022-01-06T10:33:15Z</time>
      </trkpt>
      <trkpt lat="45.84482" lon="6.31127">
        <ele>1035.1</ele>
        <time>2022-01-06T10:33:16Z</time>
      </trkpt>
      <trkpt lat="45.84486" lon="6.31132">
        <ele>1034</ele>
        <time>2022-01-06T10:33:17Z</time>
      </trkpt>
      <trkpt lat="45.8449" lon="6.31136">
        <ele>1034</ele>
        <time>2022-01-06T10:33:18Z</time>
      </trkpt>
      <trkpt lat="45.84493" lon="6.3114">
        <ele>1033.1</ele>
        <time>2022-01-06T10:33:19Z</time>
      </trkpt>
      <trkpt lat="45.84496" lon="6.31144">
        <ele>1033.1</ele>
        <time>2022-01-06T10:33:20Z</time>
      </trkpt>
      <trkpt lat="45.84498" lon="6.31148">
        <ele>1033.1</ele>
        <time>2022-01-06T10:33:21Z</time>
      </trkpt>
      <trkpt lat="45.845" lon="6.31152">
        <ele>1033.1</ele>
        <time>2022-01-06T10:33:22Z</time>
      </trkpt>
      <trkpt lat="45.84501" lon="6.31155">
        <ele>1033.1</ele>
        <time>2022-01-06T10:33:23Z</time>
      </trkpt>
      <trkpt lat="45.84502" lon="6.31156">
        <ele>1033.1</ele>
        <time>2022-01-06T10:33:24Z</time>
      </trkpt>
      <trkpt lat="45.84503" lon="6.31157">
        <ele>1033.1</ele>
        <time>2022-01-06T10:33:25Z</time>
      </trkpt>
      <trkpt lat="45.84503" lon="6.31156">
        <ele>1033.1</ele>
        <time>2022-01-06T10:33:26Z</time>
      </trkpt>
      <trkpt lat="45.84502" lon="6.31155">
        <ele>1033.1</ele>
        <time>2022-01-06T10:33:27Z</time>
      </trkpt>
      <trkpt lat="45.84503" lon="6.31156">
        <ele>1033.1</ele>
        <time>2022-01-06T10:33:28Z</time>
      </trkpt>
      <trkpt lat="45.84503" lon="6.31155">
        <ele>1033.1</ele>
        <time>2022-01-06T10:33:29Z</time>
      </trkpt>
      <trkpt lat="45.84503" lon="6.31155">
        <ele>1033.1</ele>
        <time>2022-01-06T10:33:30Z</time>
      </trkpt>
      <trkpt lat="45.84502" lon="6.31154">
        <ele>1033.1</ele>
        <time>2022-01-06T10:33:31Z</time>
      </trkpt>
      <trkpt lat="45.84503" lon="6.31153">
        <ele>1033.1</ele>
        <time>2022-01-06T10:33:32Z</time>
      </trkpt>
      <trkpt lat="45.84505" lon="6.31152">
        <ele>1032.1</ele>
        <time>2022-01-06T10:33:33Z</time>
      </trkpt>
      <trkpt lat="45.84507" lon="6.31153">
        <ele>1032.1</ele>
        <time>2022-01-06T10:33:34Z</time>
      </trkpt>
      <trkpt lat="45.8451" lon="6.31155">
        <ele>1032.1</ele>
        <time>2022-01-06T10:33:35Z</time>
      </trkpt>
      <trkpt lat="45.84513" lon="6.31156">
        <ele>1032.1</ele>
        <time>2022-01-06T10:33:36Z</time>
      </trkpt>
      <trkpt lat="45.84516" lon="6.31157">
        <ele>1032.1</ele>
        <time>2022-01-06T10:33:37Z</time>
      </trkpt>
      <trkpt lat="45.84519" lon="6.31158">
        <ele>1032.1</ele>
        <time>2022-01-06T10:33:38Z</time>
      </trkpt>
      <trkpt lat="45.84522" lon="6.31159">
        <ele>1032.1</ele>
        <time>2022-01-06T10:33:39Z</time>
      </trkpt>
      <trkpt lat="45.84525" lon="6.31159">
        <ele>1032.1</ele>
        <time>2022-01-06T10:33:40Z</time>
      </trkpt>
      <trkpt lat="45.84527" lon="6.3116">
        <ele>1029</ele>
        <time>2022-01-06T10:33:41Z</time>
      </trkpt>
      <trkpt lat="45.8453" lon="6.3116">
        <ele>1029</ele>
        <time>2022-01-06T10:33:42Z</time>
      </trkpt>
      <trkpt lat="45.84532" lon="6.31159">
        <ele>1028.1</ele>
        <time>2022-01-06T10:33:43Z</time>
      </trkpt>
      <trkpt lat="45.84535" lon="6.31158">
        <ele>1028.1</ele>
        <time>2022-01-06T10:33:44Z</time>
      </trkpt>
      <trkpt lat="45.84538" lon="6.31157">
        <ele>1027</ele>
        <time>2022-01-06T10:33:45Z</time>
      </trkpt>
      <trkpt lat="45.84541" lon="6.31155">
        <ele>1027</ele>
        <time>2022-01-06T10:33:46Z</time>
      </trkpt>
      <trkpt lat="45.84545" lon="6.31151">
        <ele>1026.1</ele>
        <time>2022-01-06T10:33:47Z</time>
      </trkpt>
      <trkpt lat="45.84549" lon="6.31147">
        <ele>1026.1</ele>
        <time>2022-01-06T10:33:48Z</time>
      </trkpt>
      <trkpt lat="45.84554" lon="6.31142">
        <ele>1024.1</ele>
        <time>2022-01-06T10:33:49Z</time>
      </trkpt>
      <trkpt lat="45.84559" lon="6.3114">
        <ele>1024.1</ele>
        <time>2022-01-06T10:33:50Z</time>
      </trkpt>
      <trkpt lat="45.84562" lon="6.31139">
        <ele>1023.1</ele>
        <time>2022-01-06T10:33:51Z</time>
      </trkpt>
      <trkpt lat="45.84567" lon="6.31138">
        <ele>1023.1</ele>
        <time>2022-01-06T10:33:52Z</time>
      </trkpt>
      <trkpt lat="45.84572" lon="6.31138">
        <ele>1022</ele>
        <time>2022-01-06T10:33:53Z</time>
      </trkpt>
      <trkpt lat="45.84577" lon="6.31139">
        <ele>1022</ele>
        <time>2022-01-06T10:33:54Z</time>
      </trkpt>
      <trkpt lat="45.84582" lon="6.3114">
        <ele>1020</ele>
        <time>2022-01-06T10:33:55Z</time>
      </trkpt>
      <trkpt lat="45.84586" lon="6.31141">
        <ele>1020</ele>
        <time>2022-01-06T10:33:56Z</time>
      </trkpt>
      <trkpt lat="45.8459" lon="6.31143">
        <ele>1019.1</ele>
        <time>2022-01-06T10:33:57Z</time>
      </trkpt>
      <trkpt lat="45.84594" lon="6.31145">
        <ele>1019.1</ele>
        <time>2022-01-06T10:33:58Z</time>
      </trkpt>
      <trkpt lat="45.84598" lon="6.31146">
        <ele>1018</ele>
        <time>2022-01-06T10:33:59Z</time>
      </trkpt>
      <trkpt lat="45.84602" lon="6.31147">
        <ele>1018</ele>
        <time>2022-01-06T10:34:00Z</time>
      </trkpt>
      <trkpt lat="45.84605" lon="6.31148">
        <ele>1016.1</ele>
        <time>2022-01-06T10:34:01Z</time>
      </trkpt>
      <trkpt lat="45.8461" lon="6.3115">
        <ele>1016.1</ele>
        <time>2022-01-06T10:34:02Z</time>
      </trkpt>
      <trkpt lat="45.84613" lon="6.31153">
        <ele>1015.1</ele>
        <time>2022-01-06T10:34:03Z</time>
      </trkpt>
      <trkpt lat="45.84617" lon="6.31156">
        <ele>1015.1</ele>
        <time>2022-01-06T10:34:04Z</time>
      </trkpt>
      <trkpt lat="45.84621" lon="6.31158">
        <ele>1013</ele>
        <time>2022-01-06T10:34:05Z</time>
      </trkpt>
      <trkpt lat="45.84624" lon="6.31162">
        <ele>1013</ele>
        <time>2022-01-06T10:34:06Z</time>
      </trkpt>
      <trkpt lat="45.84627" lon="6.31166">
        <ele>1012.1</ele>
        <time>2022-01-06T10:34:07Z</time>
      </trkpt>
      <trkpt lat="45.84631" lon="6.31171">
        <ele>1012.1</ele>
        <time>2022-01-06T10:34:08Z</time>
      </trkpt>
      <trkpt lat="45.84634" lon="6.31176">
        <ele>1011</ele>
        <time>2022-01-06T10:34:09Z</time>
      </trkpt>
      <trkpt lat="45.84638" lon="6.31181">
        <ele>1011</ele>
        <time>2022-01-06T10:34:10Z</time>
      </trkpt>
      <trkpt lat="45.84641" lon="6.31187">
        <ele>1010.1</ele>
        <time>2022-01-06T10:34:11Z</time>
      </trkpt>
      <trkpt lat="45.84645" lon="6.31196">
        <ele>1010.1</ele>
        <time>2022-01-06T10:34:12Z</time>
      </trkpt>
      <trkpt lat="45.84646" lon="6.31202">
        <ele>1010.1</ele>
        <time>2022-01-06T10:34:13Z</time>
      </trkpt>
      <trkpt lat="45.84648" lon="6.31209">
        <ele>1010.1</ele>
        <time>2022-01-06T10:34:14Z</time>
      </trkpt>
      <trkpt lat="45.8465" lon="6.31214">
        <ele>1010.1</ele>
        <time>2022-01-06T10:34:15Z</time>
      </trkpt>
      <trkpt lat="45.84652" lon="6.31221">
        <ele>1010.1</ele>
        <time>2022-01-06T10:34:16Z</time>
      </trkpt>
      <trkpt lat="45.84654" lon="6.31226">
        <ele>1005.1</ele>
        <time>2022-01-06T10:34:17Z</time>
      </trkpt>
      <trkpt lat="45.84656" lon="6.31231">
        <ele>1005.1</ele>
        <time>2022-01-06T10:34:18Z</time>
      </trkpt>
      <trkpt lat="45.84658" lon="6.31236">
        <ele>1004</ele>
        <time>2022-01-06T10:34:19Z</time>
      </trkpt>
      <trkpt lat="45.84659" lon="6.31239">
        <ele>1004</ele>
        <time>2022-01-06T10:34:20Z</time>
      </trkpt>
      <trkpt lat="45.84662" lon="6.31245">
        <ele>1003.1</ele>
        <time>2022-01-06T10:34:21Z</time>
      </trkpt>
      <trkpt lat="45.84665" lon="6.3125">
        <ele>1003.1</ele>
        <time>2022-01-06T10:34:22Z</time>
      </trkpt>
      <trkpt lat="45.84667" lon="6.31255">
        <ele>1002</ele>
        <time>2022-01-06T10:34:23Z</time>
      </trkpt>
      <trkpt lat="45.84668" lon="6.31261">
        <ele>1002</ele>
        <time>2022-01-06T10:34:24Z</time>
      </trkpt>
      <trkpt lat="45.84668" lon="6.31266">
        <ele>1000.1</ele>
        <time>2022-01-06T10:34:25Z</time>
      </trkpt>
      <trkpt lat="45.84665" lon="6.31272">
        <ele>1000.1</ele>
        <time>2022-01-06T10:34:26Z</time>
      </trkpt>
      <trkpt lat="45.84662" lon="6.31275">
        <ele>998.1</ele>
        <time>2022-01-06T10:34:27Z</time>
      </trkpt>
      <trkpt lat="45.84659" lon="6.31275">
        <ele>998.1</ele>
        <time>2022-01-06T10:34:28Z</time>
      </trkpt>
      <trkpt lat="45.84656" lon="6.31275">
        <ele>997</ele>
        <time>2022-01-06T10:34:29Z</time>
      </trkpt>
      <trkpt lat="45.84651" lon="6.31272">
        <ele>997</ele>
        <time>2022-01-06T10:34:30Z</time>
      </trkpt>
      <trkpt lat="45.84647" lon="6.3127">
        <ele>996.1</ele>
        <time>2022-01-06T10:34:31Z</time>
      </trkpt>
      <trkpt lat="45.84644" lon="6.31268">
        <ele>996.1</ele>
        <time>2022-01-06T10:34:32Z</time>
      </trkpt>
      <trkpt lat="45.84641" lon="6.31266">
        <ele>996.1</ele>
        <time>2022-01-06T10:34:33Z</time>
      </trkpt>
      <trkpt lat="45.84637" lon="6.31264">
        <ele>996.1</ele>
        <time>2022-01-06T10:34:34Z</time>
      </trkpt>
      <trkpt lat="45.84635" lon="6.31262">
        <ele>995</ele>
        <time>2022-01-06T10:34:35Z</time>
      </trkpt>
      <trkpt lat="45.84631" lon="6.31261">
        <ele>995</ele>
        <time>2022-01-06T10:34:36Z</time>
      </trkpt>
      <trkpt lat="45.84628" lon="6.3126">
        <ele>994.1</ele>
        <time>2022-01-06T10:34:37Z</time>
      </trkpt>
      <trkpt lat="45.84625" lon="6.31257">
        <ele>994.1</ele>
        <time>2022-01-06T10:34:38Z</time>
      </trkpt>
      <trkpt lat="45.84622" lon="6.31255">
        <ele>994.1</ele>
        <time>2022-01-06T10:34:39Z</time>
      </trkpt>
      <trkpt lat="45.84619" lon="6.31253">
        <ele>994.1</ele>
        <time>2022-01-06T10:34:40Z</time>
      </trkpt>
      <trkpt lat="45.84617" lon="6.31252">
        <ele>993.1</ele>
        <time>2022-01-06T10:34:41Z</time>
      </trkpt>
      <trkpt lat="45.84615" lon="6.31252">
        <ele>993.1</ele>
        <time>2022-01-06T10:34:42Z</time>
      </trkpt>
      <trkpt lat="45.84614" lon="6.31252">
        <ele>993.1</ele>
        <time>2022-01-06T10:34:43Z</time>
      </trkpt>
      <trkpt lat="45.84614" lon="6.31254">
        <ele>993.1</ele>
        <time>2022-01-06T10:34:44Z</time>
      </trkpt>
      <trkpt lat="45.84613" lon="6.31256">
        <ele>992.1</ele>
        <time>2022-01-06T10:34:45Z</time>
      </trkpt>
      <trkpt lat="45.84613" lon="6.31257">
        <ele>992.1</ele>
        <time>2022-01-06T10:34:46Z</time>
      </trkpt>
      <trkpt lat="45.84613" lon="6.31258">
        <ele>992.1</ele>
        <time>2022-01-06T10:34:47Z</time>
      </trkpt>
      <trkpt lat="45.84612" lon="6.31258">
        <ele>992.1</ele>
        <time>2022-01-06T10:34:48Z</time>
      </trkpt>
      <trkpt lat="45.84612" lon="6.31258">
        <ele>991.1</ele>
        <time>2022-01-06T10:34:49Z</time>
      </trkpt>
      <trkpt lat="45.84611" lon="6.31257">
        <ele>991.1</ele>
        <time>2022-01-06T10:34:50Z</time>
      </trkpt>
      <trkpt lat="45.84611" lon="6.31257">
        <ele>991.1</ele>
        <time>2022-01-06T10:34:51Z</time>
      </trkpt>
      <trkpt lat="45.8461" lon="6.31257">
        <ele>991.1</ele>
        <time>2022-01-06T10:34:52Z</time>
      </trkpt>
      <trkpt lat="45.8461" lon="6.31257">
        <ele>991.1</ele>
        <time>2022-01-06T10:34:53Z</time>
      </trkpt>
      <trkpt lat="45.84611" lon="6.31258">
        <ele>991.1</ele>
        <time>2022-01-06T10:34:54Z</time>
      </trkpt>
      <trkpt lat="45.84611" lon="6.31258">
        <ele>991.1</ele>
        <time>2022-01-06T10:34:55Z</time>
      </trkpt>
      <trkpt lat="45.84611" lon="6.31257">
        <ele>991.1</ele>
        <time>2022-01-06T10:34:56Z</time>
      </trkpt>
      <trkpt lat="45.84611" lon="6.31257">
        <ele>991.1</ele>
        <time>2022-01-06T10:34:57Z</time>
      </trkpt>
      <trkpt lat="45.84611" lon="6.31257">
        <ele>991.1</ele>
        <time>2022-01-06T10:34:58Z</time>
      </trkpt>
      <trkpt lat="45.84611" lon="6.31257">
        <ele>991.1</ele>
        <time>2022-01-06T10:34:59Z</time>
      </trkpt>
      <trkpt lat="45.84611" lon="6.31258">
        <ele>991.1</ele>
        <time>2022-01-06T10:35:00Z</time>
      </trkpt>
      <trkpt lat="45.84611" lon="6.31258">
        <ele>991.1</ele>
        <time>2022-01-06T10:35:01Z</time>
      </trkpt>
      <trkpt lat="45.84611" lon="6.31258">
        <ele>991.1</ele>
        <time>2022-01-06T10:35:02Z</time>
      </trkpt>
      <trkpt lat="45.84611" lon="6.31258">
        <ele>991.1</ele>
        <time>2022-01-06T10:35:03Z</time>
      </trkpt>
      <trkpt lat="45.84611" lon="6.31258">
        <ele>991.1</ele>
        <time>2022-01-06T10:35:04Z</time>
      </trkpt>
      <trkpt lat="45.84611" lon="6.31258">
        <ele>991.1</ele>
        <time>2022-01-06T10:35:05Z</time>
      </trkpt>
      <trkpt lat="45.84611" lon="6.31258">
        <ele>991.1</ele>
        <time>2022-01-06T10:35:06Z</time>
      </trkpt>
      <trkpt lat="45.84611" lon="6.31258">
        <ele>991.1</ele>
        <time>2022-01-06T10:35:07Z</time>
      </trkpt>
      <trkpt lat="45.84611" lon="6.31258">
        <ele>991.1</ele>
        <time>2022-01-06T10:35:08Z</time>
      </trkpt>
      <trkpt lat="45.84611" lon="6.31258">
        <ele>991.1</ele>
        <time>2022-01-06T10:35:09Z</time>
      </trkpt>
      <trkpt lat="45.84611" lon="6.31258">
        <ele>991.1</ele>
        <time>2022-01-06T10:35:10Z</time>
      </trkpt>
      <trkpt lat="45.84611" lon="6.31258">
        <ele>991.1</ele>
        <time>2022-01-06T10:35:11Z</time>
      </trkpt>
      <trkpt lat="45.84611" lon="6.31257">
        <ele>991.1</ele>
        <time>2022-01-06T10:35:12Z</time>
      </trkpt>
      <trkpt lat="45.84611" lon="6.31257">
        <ele>991.1</ele>
        <time>2022-01-06T10:35:13Z</time>
      </trkpt>
      <trkpt lat="45.84611" lon="6.31257">
        <ele>991.1</ele>
        <time>2022-01-06T10:35:14Z</time>
      </trkpt>
      <trkpt lat="45.8461" lon="6.31258">
        <ele>990.2</ele>
        <time>2022-01-06T10:35:15Z</time>
      </trkpt>
      <trkpt lat="45.84607" lon="6.31261">
        <ele>990.2</ele>
        <time>2022-01-06T10:35:16Z</time>
      </trkpt>
      <trkpt lat="45.84604" lon="6.31264">
        <ele>990.2</ele>
        <time>2022-01-06T10:35:17Z</time>
      </trkpt>
      <trkpt lat="45.84602" lon="6.31266">
        <ele>990.2</ele>
        <time>2022-01-06T10:35:18Z</time>
      </trkpt>
      <trkpt lat="45.846" lon="6.31269">
        <ele>989.1</ele>
        <time>2022-01-06T10:35:19Z</time>
      </trkpt>
      <trkpt lat="45.84597" lon="6.31272">
        <ele>989.1</ele>
        <time>2022-01-06T10:35:20Z</time>
      </trkpt>
      <trkpt lat="45.84594" lon="6.31275">
        <ele>989.1</ele>
        <time>2022-01-06T10:35:21Z</time>
      </trkpt>
      <trkpt lat="45.84591" lon="6.31278">
        <ele>989.1</ele>
        <time>2022-01-06T10:35:22Z</time>
      </trkpt>
      <trkpt lat="45.84588" lon="6.31282">
        <ele>989.1</ele>
        <time>2022-01-06T10:35:23Z</time>
      </trkpt>
      <trkpt lat="45.84585" lon="6.31285">
        <ele>989.1</ele>
        <time>2022-01-06T10:35:24Z</time>
      </trkpt>
      <trkpt lat="45.84582" lon="6.3129">
        <ele>989.1</ele>
        <time>2022-01-06T10:35:25Z</time>
      </trkpt>
      <trkpt lat="45.84579" lon="6.31294">
        <ele>989.1</ele>
        <time>2022-01-06T10:35:26Z</time>
      </trkpt>
      <trkpt lat="45.84576" lon="6.31299">
        <ele>989.1</ele>
        <time>2022-01-06T10:35:27Z</time>
      </trkpt>
      <trkpt lat="45.84574" lon="6.31303">
        <ele>989.1</ele>
        <time>2022-01-06T10:35:28Z</time>
      </trkpt>
      <trkpt lat="45.84572" lon="6.31306">
        <ele>985.1</ele>
        <time>2022-01-06T10:35:29Z</time>
      </trkpt>
      <trkpt lat="45.8457" lon="6.31309">
        <ele>985.1</ele>
        <time>2022-01-06T10:35:30Z</time>
      </trkpt>
      <trkpt lat="45.84567" lon="6.31312">
        <ele>984.1</ele>
        <time>2022-01-06T10:35:31Z</time>
      </trkpt>
      <trkpt lat="45.84564" lon="6.31314">
        <ele>984.1</ele>
        <time>2022-01-06T10:35:32Z</time>
      </trkpt>
      <trkpt lat="45.84562" lon="6.31316">
        <ele>983.1</ele>
        <time>2022-01-06T10:35:33Z</time>
      </trkpt>
      <trkpt lat="45.84559" lon="6.31318">
        <ele>983.1</ele>
        <time>2022-01-06T10:35:34Z</time>
      </trkpt>
      <trkpt lat="45.84556" lon="6.31319">
        <ele>983.1</ele>
        <time>2022-01-06T10:35:35Z</time>
      </trkpt>
      <trkpt lat="45.84553" lon="6.31321">
        <ele>983.1</ele>
        <time>2022-01-06T10:35:36Z</time>
      </trkpt>
      <trkpt lat="45.8455" lon="6.31323">
        <ele>983.1</ele>
        <time>2022-01-06T10:35:37Z</time>
      </trkpt>
      <trkpt lat="45.84547" lon="6.31324">
        <ele>983.1</ele>
        <time>2022-01-06T10:35:38Z</time>
      </trkpt>
      <trkpt lat="45.84544" lon="6.31326">
        <ele>983.1</ele>
        <time>2022-01-06T10:35:39Z</time>
      </trkpt>
      <trkpt lat="45.84542" lon="6.31328">
        <ele>983.1</ele>
        <time>2022-01-06T10:35:40Z</time>
      </trkpt>
      <trkpt lat="45.8454" lon="6.31329">
        <ele>980.1</ele>
        <time>2022-01-06T10:35:41Z</time>
      </trkpt>
      <trkpt lat="45.84538" lon="6.31331">
        <ele>980.1</ele>
        <time>2022-01-06T10:35:42Z</time>
      </trkpt>
      <trkpt lat="45.84536" lon="6.31332">
        <ele>979</ele>
        <time>2022-01-06T10:35:43Z</time>
      </trkpt>
      <trkpt lat="45.84534" lon="6.31333">
        <ele>979</ele>
        <time>2022-01-06T10:35:44Z</time>
      </trkpt>
      <trkpt lat="45.84532" lon="6.31333">
        <ele>979</ele>
        <time>2022-01-06T10:35:45Z</time>
      </trkpt>
      <trkpt lat="45.8453" lon="6.31334">
        <ele>979</ele>
        <time>2022-01-06T10:35:46Z</time>
      </trkpt>
      <trkpt lat="45.84529" lon="6.31334">
        <ele>977</ele>
        <time>2022-01-06T10:35:47Z</time>
      </trkpt>
      <trkpt lat="45.84527" lon="6.31335">
        <ele>977</ele>
        <time>2022-01-06T10:35:48Z</time>
      </trkpt>
      <trkpt lat="45.84526" lon="6.31335">
        <ele>977</ele>
        <time>2022-01-06T10:35:49Z</time>
      </trkpt>
      <trkpt lat="45.84524" lon="6.31336">
        <ele>977</ele>
        <time>2022-01-06T10:35:50Z</time>
      </trkpt>
      <trkpt lat="45.84522" lon="6.31337">
        <ele>976.1</ele>
        <time>2022-01-06T10:35:51Z</time>
      </trkpt>
      <trkpt lat="45.84521" lon="6.31337">
        <ele>976.1</ele>
        <time>2022-01-06T10:35:52Z</time>
      </trkpt>
      <trkpt lat="45.84519" lon="6.31338">
        <ele>976.1</ele>
        <time>2022-01-06T10:35:53Z</time>
      </trkpt>
      <trkpt lat="45.84517" lon="6.31338">
        <ele>976.1</ele>
        <time>2022-01-06T10:35:54Z</time>
      </trkpt>
      <trkpt lat="45.84516" lon="6.31338">
        <ele>976.1</ele>
        <time>2022-01-06T10:35:55Z</time>
      </trkpt>
      <trkpt lat="45.84515" lon="6.31338">
        <ele>976.1</ele>
        <time>2022-01-06T10:35:56Z</time>
      </trkpt>
      <trkpt lat="45.84513" lon="6.31338">
        <ele>976.1</ele>
        <time>2022-01-06T10:35:57Z</time>
      </trkpt>
      <trkpt lat="45.84512" lon="6.31339">
        <ele>976.1</ele>
        <time>2022-01-06T10:35:58Z</time>
      </trkpt>
      <trkpt lat="45.84511" lon="6.3134">
        <ele>976.1</ele>
        <time>2022-01-06T10:35:59Z</time>
      </trkpt>
      <trkpt lat="45.8451" lon="6.3134">
        <ele>976.1</ele>
        <time>2022-01-06T10:36:00Z</time>
      </trkpt>
      <trkpt lat="45.8451" lon="6.3134">
        <ele>976.1</ele>
        <time>2022-01-06T10:36:01Z</time>
      </trkpt>
      <trkpt lat="45.8451" lon="6.31341">
        <ele>976.1</ele>
        <time>2022-01-06T10:36:02Z</time>
      </trkpt>
      <trkpt lat="45.8451" lon="6.31341">
        <ele>975.1</ele>
        <time>2022-01-06T10:36:03Z</time>
      </trkpt>
      <trkpt lat="45.8451" lon="6.31342">
        <ele>975.1</ele>
        <time>2022-01-06T10:36:04Z</time>
      </trkpt>
      <trkpt lat="45.8451" lon="6.31343">
        <ele>975.1</ele>
        <time>2022-01-06T10:36:05Z</time>
      </trkpt>
      <trkpt lat="45.8451" lon="6.31344">
        <ele>975.1</ele>
        <time>2022-01-06T10:36:06Z</time>
      </trkpt>
      <trkpt lat="45.8451" lon="6.31344">
        <ele>975.1</ele>
        <time>2022-01-06T10:36:07Z</time>
      </trkpt>
      <trkpt lat="45.8451" lon="6.31346">
        <ele>975.1</ele>
        <time>2022-01-06T10:36:08Z</time>
      </trkpt>
      <trkpt lat="45.8451" lon="6.31347">
        <ele>975.1</ele>
        <time>2022-01-06T10:36:09Z</time>
      </trkpt>
      <trkpt lat="45.8451" lon="6.31349">
        <ele>975.1</ele>
        <time>2022-01-06T10:36:10Z</time>
      </trkpt>
      <trkpt lat="45.8451" lon="6.31349">
        <ele>975.1</ele>
        <time>2022-01-06T10:36:11Z</time>
      </trkpt>
      <trkpt lat="45.84511" lon="6.31351">
        <ele>975.1</ele>
        <time>2022-01-06T10:36:12Z</time>
      </trkpt>
      <trkpt lat="45.84511" lon="6.31352">
        <ele>975.1</ele>
        <time>2022-01-06T10:36:13Z</time>
      </trkpt>
      <trkpt lat="45.84511" lon="6.31353">
        <ele>975.1</ele>
        <time>2022-01-06T10:36:14Z</time>
      </trkpt>
      <trkpt lat="45.84512" lon="6.31354">
        <ele>975.1</ele>
        <time>2022-01-06T10:36:15Z</time>
      </trkpt>
      <trkpt lat="45.84512" lon="6.31354">
        <ele>975.1</ele>
        <time>2022-01-06T10:36:16Z</time>
      </trkpt>
      <trkpt lat="45.84513" lon="6.31352">
        <ele>975.1</ele>
        <time>2022-01-06T10:36:17Z</time>
      </trkpt>
      <trkpt lat="45.84513" lon="6.31351">
        <ele>975.1</ele>
        <time>2022-01-06T10:36:18Z</time>
      </trkpt>
      <trkpt lat="45.84512" lon="6.3135">
        <ele>975.1</ele>
        <time>2022-01-06T10:36:19Z</time>
      </trkpt>
      <trkpt lat="45.84512" lon="6.3135">
        <ele>975.1</ele>
        <time>2022-01-06T10:36:20Z</time>
      </trkpt>
      <trkpt lat="45.84512" lon="6.3135">
        <ele>976.1</ele>
        <time>2022-01-06T10:36:21Z</time>
      </trkpt>
      <trkpt lat="45.84512" lon="6.31351">
        <ele>976.1</ele>
        <time>2022-01-06T10:36:22Z</time>
      </trkpt>
      <trkpt lat="45.84511" lon="6.31352">
        <ele>976.1</ele>
        <time>2022-01-06T10:36:23Z</time>
      </trkpt>
      <trkpt lat="45.84511" lon="6.31353">
        <ele>976.1</ele>
        <time>2022-01-06T10:36:24Z</time>
      </trkpt>
      <trkpt lat="45.8451" lon="6.31354">
        <ele>976.1</ele>
        <time>2022-01-06T10:36:25Z</time>
      </trkpt>
      <trkpt lat="45.8451" lon="6.31354">
        <ele>976.1</ele>
        <time>2022-01-06T10:36:26Z</time>
      </trkpt>
      <trkpt lat="45.8451" lon="6.31354">
        <ele>976.1</ele>
        <time>2022-01-06T10:36:27Z</time>
      </trkpt>
      <trkpt lat="45.8451" lon="6.31355">
        <ele>976.1</ele>
        <time>2022-01-06T10:36:28Z</time>
      </trkpt>
      <trkpt lat="45.8451" lon="6.31355">
        <ele>976.1</ele>
        <time>2022-01-06T10:36:29Z</time>
      </trkpt>
      <trkpt lat="45.8451" lon="6.31355">
        <ele>976.1</ele>
        <time>2022-01-06T10:36:30Z</time>
      </trkpt>
      <trkpt lat="45.8451" lon="6.31355">
        <ele>976.1</ele>
        <time>2022-01-06T10:36:31Z</time>
      </trkpt>
      <trkpt lat="45.8451" lon="6.31355">
        <ele>976.1</ele>
        <time>2022-01-06T10:36:32Z</time>
      </trkpt>
      <trkpt lat="45.8451" lon="6.31355">
        <ele>976.1</ele>
        <time>2022-01-06T10:36:33Z</time>
      </trkpt>
      <trkpt lat="45.8451" lon="6.31355">
        <ele>976.1</ele>
        <time>2022-01-06T10:36:34Z</time>
      </trkpt>
      <trkpt lat="45.8451" lon="6.31355">
        <ele>976.1</ele>
        <time>2022-01-06T10:36:35Z</time>
      </trkpt>
      <trkpt lat="45.8451" lon="6.31355">
        <ele>976.1</ele>
        <time>2022-01-06T10:36:36Z</time>
      </trkpt>
      <trkpt lat="45.8451" lon="6.31355">
        <ele>976.1</ele>
        <time>2022-01-06T10:36:37Z</time>
      </trkpt>
      <trkpt lat="45.8451" lon="6.31355">
        <ele>976.1</ele>
        <time>2022-01-06T10:36:38Z</time>
      </trkpt>
      <trkpt lat="45.8451" lon="6.31355">
        <ele>975.1</ele>
        <time>2022-01-06T10:36:39Z</time>
      </trkpt>
      <trkpt lat="45.8451" lon="6.31355">
        <ele>975.1</ele>
        <time>2022-01-06T10:36:40Z</time>
      </trkpt>
      <trkpt lat="45.8451" lon="6.31355">
        <ele>975.1</ele>
        <time>2022-01-06T10:36:41Z</time>
      </trkpt>
      <trkpt lat="45.8451" lon="6.31355">
        <ele>975.1</ele>
        <time>2022-01-06T10:36:42Z</time>
      </trkpt>
      <trkpt lat="45.8451" lon="6.31355">
        <ele>975.1</ele>
        <time>2022-01-06T10:36:43Z</time>
      </trkpt>
      <trkpt lat="45.8451" lon="6.31355">
        <ele>975.1</ele>
        <time>2022-01-06T10:36:44Z</time>
      </trkpt>
      <trkpt lat="45.8451" lon="6.31355">
        <ele>975.1</ele>
        <time>2022-01-06T10:36:45Z</time>
      </trkpt>
      <trkpt lat="45.8451" lon="6.31355">
        <ele>975.1</ele>
        <time>2022-01-06T10:36:46Z</time>
      </trkpt>
      <trkpt lat="45.8451" lon="6.31355">
        <ele>975.1</ele>
        <time>2022-01-06T10:36:47Z</time>
      </trkpt>
      <trkpt lat="45.8451" lon="6.31355">
        <ele>975.1</ele>
        <time>2022-01-06T10:36:48Z</time>
      </trkpt>
      <trkpt lat="45.8451" lon="6.31355">
        <ele>975.1</ele>
        <time>2022-01-06T10:36:49Z</time>
      </trkpt>
      <trkpt lat="45.84509" lon="6.31355">
        <ele>975.1</ele>
        <time>2022-01-06T10:36:50Z</time>
      </trkpt>
      <trkpt lat="45.84509" lon="6.31355">
        <ele>975.1</ele>
        <time>2022-01-06T10:36:51Z</time>
      </trkpt>
      <trkpt lat="45.84509" lon="6.31354">
        <ele>975.1</ele>
        <time>2022-01-06T10:36:52Z</time>
      </trkpt>
      <trkpt lat="45.84509" lon="6.31354">
        <ele>975.1</ele>
        <time>2022-01-06T10:36:53Z</time>
      </trkpt>
      <trkpt lat="45.84509" lon="6.31354">
        <ele>975.1</ele>
        <time>2022-01-06T10:36:54Z</time>
      </trkpt>
      <trkpt lat="45.84509" lon="6.31354">
        <ele>975.1</ele>
        <time>2022-01-06T10:36:55Z</time>
      </trkpt>
      <trkpt lat="45.84509" lon="6.31354">
        <ele>975.1</ele>
        <time>2022-01-06T10:36:56Z</time>
      </trkpt>
      <trkpt lat="45.84509" lon="6.31354">
        <ele>975.1</ele>
        <time>2022-01-06T10:36:57Z</time>
      </trkpt>
      <trkpt lat="45.84509" lon="6.31354">
        <ele>975.1</ele>
        <time>2022-01-06T10:36:58Z</time>
      </trkpt>
      <trkpt lat="45.84509" lon="6.31354">
        <ele>975.1</ele>
        <time>2022-01-06T10:36:59Z</time>
      </trkpt>
      <trkpt lat="45.84509" lon="6.31354">
        <ele>975.1</ele>
        <time>2022-01-06T10:37:00Z</time>
      </trkpt>
      <trkpt lat="45.84508" lon="6.31354">
        <ele>975.1</ele>
        <time>2022-01-06T10:37:01Z</time>
      </trkpt>
      <trkpt lat="45.84508" lon="6.31354">
        <ele>975.1</ele>
        <time>2022-01-06T10:37:02Z</time>
      </trkpt>
      <trkpt lat="45.84508" lon="6.31354">
        <ele>975.1</ele>
        <time>2022-01-06T10:37:03Z</time>
      </trkpt>
      <trkpt lat="45.84508" lon="6.31354">
        <ele>975.1</ele>
        <time>2022-01-06T10:37:04Z</time>
      </trkpt>
      <trkpt lat="45.84508" lon="6.31354">
        <ele>975.1</ele>
        <time>2022-01-06T10:37:05Z</time>
      </trkpt>
      <trkpt lat="45.84508" lon="6.31354">
        <ele>975.1</ele>
        <time>2022-01-06T10:37:06Z</time>
      </trkpt>
      <trkpt lat="45.84508" lon="6.31354">
        <ele>975.1</ele>
        <time>2022-01-06T10:37:07Z</time>
      </trkpt>
      <trkpt lat="45.84508" lon="6.31354">
        <ele>975.1</ele>
        <time>2022-01-06T10:37:08Z</time>
      </trkpt>
      <trkpt lat="45.84508" lon="6.31354">
        <ele>975.1</ele>
        <time>2022-01-06T10:37:09Z</time>
      </trkpt>
      <trkpt lat="45.84508" lon="6.31354">
        <ele>975.1</ele>
        <time>2022-01-06T10:37:10Z</time>
      </trkpt>
      <trkpt lat="45.84508" lon="6.31353">
        <ele>975.1</ele>
        <time>2022-01-06T10:37:11Z</time>
      </trkpt>
      <trkpt lat="45.84509" lon="6.31353">
        <ele>975.1</ele>
        <time>2022-01-06T10:37:12Z</time>
      </trkpt>
      <trkpt lat="45.84509" lon="6.31353">
        <ele>975.1</ele>
        <time>2022-01-06T10:37:13Z</time>
      </trkpt>
      <trkpt lat="45.84509" lon="6.31353">
        <ele>975.1</ele>
        <time>2022-01-06T10:37:14Z</time>
      </trkpt>
      <trkpt lat="45.84509" lon="6.31353">
        <ele>975.1</ele>
        <time>2022-01-06T10:37:15Z</time>
      </trkpt>
      <trkpt lat="45.84509" lon="6.31353">
        <ele>975.1</ele>
        <time>2022-01-06T10:37:16Z</time>
      </trkpt>
      <trkpt lat="45.84509" lon="6.31353">
        <ele>975.1</ele>
        <time>2022-01-06T10:37:17Z</time>
      </trkpt>
      <trkpt lat="45.84509" lon="6.31353">
        <ele>975.1</ele>
        <time>2022-01-06T10:37:18Z</time>
      </trkpt>
      <trkpt lat="45.84509" lon="6.31353">
        <ele>975.1</ele>
        <time>2022-01-06T10:37:19Z</time>
      </trkpt>
      <trkpt lat="45.84509" lon="6.31353">
        <ele>975.1</ele>
        <time>2022-01-06T10:37:20Z</time>
      </trkpt>
      <trkpt lat="45.84509" lon="6.31353">
        <ele>975.1</ele>
        <time>2022-01-06T10:37:21Z</time>
      </trkpt>
      <trkpt lat="45.84509" lon="6.31353">
        <ele>975.1</ele>
        <time>2022-01-06T10:37:22Z</time>
      </trkpt>
      <trkpt lat="45.84509" lon="6.31353">
        <ele>974.2</ele>
        <time>2022-01-06T10:37:23Z</time>
      </trkpt>
      <trkpt lat="45.84508" lon="6.31352">
        <ele>974.2</ele>
        <time>2022-01-06T10:37:24Z</time>
      </trkpt>
      <trkpt lat="45.84507" lon="6.31352">
        <ele>974.2</ele>
        <time>2022-01-06T10:37:25Z</time>
      </trkpt>
      <trkpt lat="45.84506" lon="6.31352">
        <ele>974.2</ele>
        <time>2022-01-06T10:37:26Z</time>
      </trkpt>
      <trkpt lat="45.84505" lon="6.31352">
        <ele>974.2</ele>
        <time>2022-01-06T10:37:27Z</time>
      </trkpt>
      <trkpt lat="45.84504" lon="6.31353">
        <ele>974.2</ele>
        <time>2022-01-06T10:37:28Z</time>
      </trkpt>
      <trkpt lat="45.84503" lon="6.31354">
        <ele>974.2</ele>
        <time>2022-01-06T10:37:29Z</time>
      </trkpt>
      <trkpt lat="45.84501" lon="6.31355">
        <ele>974.2</ele>
        <time>2022-01-06T10:37:30Z</time>
      </trkpt>
      <trkpt lat="45.845" lon="6.31356">
        <ele>973.1</ele>
        <time>2022-01-06T10:37:31Z</time>
      </trkpt>
      <trkpt lat="45.84499" lon="6.31357">
        <ele>973.1</ele>
        <time>2022-01-06T10:37:32Z</time>
      </trkpt>
      <trkpt lat="45.84498" lon="6.31358">
        <ele>973.1</ele>
        <time>2022-01-06T10:37:33Z</time>
      </trkpt>
      <trkpt lat="45.84497" lon="6.31359">
        <ele>973.1</ele>
        <time>2022-01-06T10:37:34Z</time>
      </trkpt>
      <trkpt lat="45.84496" lon="6.31361">
        <ele>973.1</ele>
        <time>2022-01-06T10:37:35Z</time>
      </trkpt>
      <trkpt lat="45.84495" lon="6.31363">
        <ele>973.1</ele>
        <time>2022-01-06T10:37:36Z</time>
      </trkpt>
      <trkpt lat="45.84495" lon="6.31364">
        <ele>972</ele>
        <time>2022-01-06T10:37:37Z</time>
      </trkpt>
      <trkpt lat="45.84495" lon="6.31365">
        <ele>972</ele>
        <time>2022-01-06T10:37:38Z</time>
      </trkpt>
      <trkpt lat="45.84495" lon="6.31366">
        <ele>972</ele>
        <time>2022-01-06T10:37:39Z</time>
      </trkpt>
      <trkpt lat="45.84495" lon="6.31368">
        <ele>972</ele>
        <time>2022-01-06T10:37:40Z</time>
      </trkpt>
      <trkpt lat="45.84495" lon="6.31369">
        <ele>971.1</ele>
        <time>2022-01-06T10:37:41Z</time>
      </trkpt>
      <trkpt lat="45.84496" lon="6.3137">
        <ele>971.1</ele>
        <time>2022-01-06T10:37:42Z</time>
      </trkpt>
      <trkpt lat="45.84497" lon="6.31372">
        <ele>971.1</ele>
        <time>2022-01-06T10:37:43Z</time>
      </trkpt>
      <trkpt lat="45.84498" lon="6.31374">
        <ele>971.1</ele>
        <time>2022-01-06T10:37:44Z</time>
      </trkpt>
      <trkpt lat="45.84498" lon="6.31375">
        <ele>971.1</ele>
        <time>2022-01-06T10:37:45Z</time>
      </trkpt>
      <trkpt lat="45.84498" lon="6.31375">
        <ele>971.1</ele>
        <time>2022-01-06T10:37:46Z</time>
      </trkpt>
      <trkpt lat="45.84499" lon="6.31375">
        <ele>970</ele>
        <time>2022-01-06T10:37:47Z</time>
      </trkpt>
      <trkpt lat="45.845" lon="6.31375">
        <ele>970</ele>
        <time>2022-01-06T10:37:48Z</time>
      </trkpt>
      <trkpt lat="45.84501" lon="6.31374">
        <ele>970</ele>
        <time>2022-01-06T10:37:49Z</time>
      </trkpt>
      <trkpt lat="45.84502" lon="6.31373">
        <ele>970</ele>
        <time>2022-01-06T10:37:50Z</time>
      </trkpt>
      <trkpt lat="45.84502" lon="6.3137">
        <ele>970</ele>
        <time>2022-01-06T10:37:51Z</time>
      </trkpt>
      <trkpt lat="45.84502" lon="6.31368">
        <ele>970</ele>
        <time>2022-01-06T10:37:52Z</time>
      </trkpt>
      <trkpt lat="45.84502" lon="6.31365">
        <ele>969.1</ele>
        <time>2022-01-06T10:37:53Z</time>
      </trkpt>
      <trkpt lat="45.84503" lon="6.31364">
        <ele>969.1</ele>
        <time>2022-01-06T10:37:54Z</time>
      </trkpt>
      <trkpt lat="45.84504" lon="6.31364">
        <ele>969.1</ele>
        <time>2022-01-06T10:37:55Z</time>
      </trkpt>
      <trkpt lat="45.84505" lon="6.31364">
        <ele>969.1</ele>
        <time>2022-01-06T10:37:56Z</time>
      </trkpt>
      <trkpt lat="45.84507" lon="6.31364">
        <ele>968.1</ele>
        <time>2022-01-06T10:37:57Z</time>
      </trkpt>
      <trkpt lat="45.84508" lon="6.31364">
        <ele>968.1</ele>
        <time>2022-01-06T10:37:58Z</time>
      </trkpt>
      <trkpt lat="45.84509" lon="6.31364">
        <ele>968.1</ele>
        <time>2022-01-06T10:37:59Z</time>
      </trkpt>
      <trkpt lat="45.8451" lon="6.31364">
        <ele>968.1</ele>
        <time>2022-01-06T10:38:00Z</time>
      </trkpt>
      <trkpt lat="45.84511" lon="6.31364">
        <ele>968.1</ele>
        <time>2022-01-06T10:38:01Z</time>
      </trkpt>
      <trkpt lat="45.84512" lon="6.31364">
        <ele>968.1</ele>
        <time>2022-01-06T10:38:02Z</time>
      </trkpt>
      <trkpt lat="45.84513" lon="6.31364">
        <ele>968.1</ele>
        <time>2022-01-06T10:38:03Z</time>
      </trkpt>
      <trkpt lat="45.84514" lon="6.31364">
        <ele>968.1</ele>
        <time>2022-01-06T10:38:04Z</time>
      </trkpt>
      <trkpt lat="45.84516" lon="6.31364">
        <ele>968.1</ele>
        <time>2022-01-06T10:38:05Z</time>
      </trkpt>
      <trkpt lat="45.84517" lon="6.31365">
        <ele>968.1</ele>
        <time>2022-01-06T10:38:06Z</time>
      </trkpt>
      <trkpt lat="45.84518" lon="6.31365">
        <ele>967.1</ele>
        <time>2022-01-06T10:38:07Z</time>
      </trkpt>
      <trkpt lat="45.84519" lon="6.31365">
        <ele>967.1</ele>
        <time>2022-01-06T10:38:08Z</time>
      </trkpt>
      <trkpt lat="45.8452" lon="6.31365">
        <ele>967.1</ele>
        <time>2022-01-06T10:38:09Z</time>
      </trkpt>
      <trkpt lat="45.84521" lon="6.31366">
        <ele>967.1</ele>
        <time>2022-01-06T10:38:10Z</time>
      </trkpt>
      <trkpt lat="45.84522" lon="6.31366">
        <ele>966.1</ele>
        <time>2022-01-06T10:38:11Z</time>
      </trkpt>
      <trkpt lat="45.84523" lon="6.31367">
        <ele>966.1</ele>
        <time>2022-01-06T10:38:12Z</time>
      </trkpt>
      <trkpt lat="45.84525" lon="6.31368">
        <ele>966.1</ele>
        <time>2022-01-06T10:38:13Z</time>
      </trkpt>
      <trkpt lat="45.84526" lon="6.31368">
        <ele>966.1</ele>
        <time>2022-01-06T10:38:14Z</time>
      </trkpt>
      <trkpt lat="45.84527" lon="6.31368">
        <ele>966.1</ele>
        <time>2022-01-06T10:38:15Z</time>
      </trkpt>
      <trkpt lat="45.84527" lon="6.31368">
        <ele>966.1</ele>
        <time>2022-01-06T10:38:16Z</time>
      </trkpt>
      <trkpt lat="45.84528" lon="6.31369">
        <ele>966.1</ele>
        <time>2022-01-06T10:38:17Z</time>
      </trkpt>
      <trkpt lat="45.84529" lon="6.31369">
        <ele>966.1</ele>
        <time>2022-01-06T10:38:18Z</time>
      </trkpt>
      <trkpt lat="45.8453" lon="6.31369">
        <ele>966.1</ele>
        <time>2022-01-06T10:38:19Z</time>
      </trkpt>
      <trkpt lat="45.84532" lon="6.31369">
        <ele>966.1</ele>
        <time>2022-01-06T10:38:20Z</time>
      </trkpt>
      <trkpt lat="45.84533" lon="6.31369">
        <ele>965</ele>
        <time>2022-01-06T10:38:21Z</time>
      </trkpt>
      <trkpt lat="45.84534" lon="6.31369">
        <ele>965</ele>
        <time>2022-01-06T10:38:22Z</time>
      </trkpt>
      <trkpt lat="45.84535" lon="6.31369">
        <ele>965</ele>
        <time>2022-01-06T10:38:23Z</time>
      </trkpt>
      <trkpt lat="45.84537" lon="6.31368">
        <ele>965</ele>
        <time>2022-01-06T10:38:24Z</time>
      </trkpt>
      <trkpt lat="45.84538" lon="6.31368">
        <ele>964.1</ele>
        <time>2022-01-06T10:38:25Z</time>
      </trkpt>
      <trkpt lat="45.84539" lon="6.31368">
        <ele>964.1</ele>
        <time>2022-01-06T10:38:26Z</time>
      </trkpt>
      <trkpt lat="45.84541" lon="6.31368">
        <ele>964.1</ele>
        <time>2022-01-06T10:38:27Z</time>
      </trkpt>
      <trkpt lat="45.84543" lon="6.31368">
        <ele>964.1</ele>
        <time>2022-01-06T10:38:28Z</time>
      </trkpt>
      <trkpt lat="45.84544" lon="6.31368">
        <ele>964.1</ele>
        <time>2022-01-06T10:38:29Z</time>
      </trkpt>
      <trkpt lat="45.84545" lon="6.31368">
        <ele>964.1</ele>
        <time>2022-01-06T10:38:30Z</time>
      </trkpt>
      <trkpt lat="45.84547" lon="6.31368">
        <ele>963</ele>
        <time>2022-01-06T10:38:31Z</time>
      </trkpt>
      <trkpt lat="45.84548" lon="6.31368">
        <ele>963</ele>
        <time>2022-01-06T10:38:32Z</time>
      </trkpt>
      <trkpt lat="45.84549" lon="6.31368">
        <ele>963</ele>
        <time>2022-01-06T10:38:33Z</time>
      </trkpt>
      <trkpt lat="45.84551" lon="6.31368">
        <ele>963</ele>
        <time>2022-01-06T10:38:34Z</time>
      </trkpt>
      <trkpt lat="45.84552" lon="6.31368">
        <ele>963</ele>
        <time>2022-01-06T10:38:35Z</time>
      </trkpt>
      <trkpt lat="45.84554" lon="6.31369">
        <ele>963</ele>
        <time>2022-01-06T10:38:36Z</time>
      </trkpt>
      <trkpt lat="45.84555" lon="6.3137">
        <ele>963</ele>
        <time>2022-01-06T10:38:37Z</time>
      </trkpt>
      <trkpt lat="45.84556" lon="6.3137">
        <ele>963</ele>
        <time>2022-01-06T10:38:38Z</time>
      </trkpt>
      <trkpt lat="45.84557" lon="6.31371">
        <ele>962.1</ele>
        <time>2022-01-06T10:38:39Z</time>
      </trkpt>
      <trkpt lat="45.84558" lon="6.31371">
        <ele>962.1</ele>
        <time>2022-01-06T10:38:40Z</time>
      </trkpt>
      <trkpt lat="45.8456" lon="6.31371">
        <ele>962.1</ele>
        <time>2022-01-06T10:38:41Z</time>
      </trkpt>
      <trkpt lat="45.84562" lon="6.31371">
        <ele>962.1</ele>
        <time>2022-01-06T10:38:42Z</time>
      </trkpt>
      <trkpt lat="45.84563" lon="6.31371">
        <ele>961</ele>
        <time>2022-01-06T10:38:43Z</time>
      </trkpt>
      <trkpt lat="45.84565" lon="6.31372">
        <ele>961</ele>
        <time>2022-01-06T10:38:44Z</time>
      </trkpt>
      <trkpt lat="45.84566" lon="6.31372">
        <ele>961</ele>
        <time>2022-01-06T10:38:45Z</time>
      </trkpt>
      <trkpt lat="45.84568" lon="6.31372">
        <ele>961</ele>
        <time>2022-01-06T10:38:46Z</time>
      </trkpt>
      <trkpt lat="45.84569" lon="6.31371">
        <ele>960.1</ele>
        <time>2022-01-06T10:38:47Z</time>
      </trkpt>
      <trkpt lat="45.8457" lon="6.31371">
        <ele>960.1</ele>
        <time>2022-01-06T10:38:48Z</time>
      </trkpt>
      <trkpt lat="45.84572" lon="6.31371">
        <ele>960.1</ele>
        <time>2022-01-06T10:38:49Z</time>
      </trkpt>
      <trkpt lat="45.84573" lon="6.31372">
        <ele>960.1</ele>
        <time>2022-01-06T10:38:50Z</time>
      </trkpt>
      <trkpt lat="45.84574" lon="6.31373">
        <ele>959.1</ele>
        <time>2022-01-06T10:38:51Z</time>
      </trkpt>
      <trkpt lat="45.84576" lon="6.31375">
        <ele>959.1</ele>
        <time>2022-01-06T10:38:52Z</time>
      </trkpt>
      <trkpt lat="45.84577" lon="6.31376">
        <ele>959.1</ele>
        <time>2022-01-06T10:38:53Z</time>
      </trkpt>
      <trkpt lat="45.84579" lon="6.31377">
        <ele>959.1</ele>
        <time>2022-01-06T10:38:54Z</time>
      </trkpt>
      <trkpt lat="45.8458" lon="6.31378">
        <ele>958.2</ele>
        <time>2022-01-06T10:38:55Z</time>
      </trkpt>
      <trkpt lat="45.84581" lon="6.3138">
        <ele>958.2</ele>
        <time>2022-01-06T10:38:56Z</time>
      </trkpt>
      <trkpt lat="45.84583" lon="6.31381">
        <ele>958.2</ele>
        <time>2022-01-06T10:38:57Z</time>
      </trkpt>
      <trkpt lat="45.84584" lon="6.31383">
        <ele>958.2</ele>
        <time>2022-01-06T10:38:58Z</time>
      </trkpt>
      <trkpt lat="45.84585" lon="6.31385">
        <ele>958.2</ele>
        <time>2022-01-06T10:38:59Z</time>
      </trkpt>
      <trkpt lat="45.84586" lon="6.31388">
        <ele>958.2</ele>
        <time>2022-01-06T10:39:00Z</time>
      </trkpt>
      <trkpt lat="45.84588" lon="6.3139">
        <ele>957.1</ele>
        <time>2022-01-06T10:39:01Z</time>
      </trkpt>
      <trkpt lat="45.84589" lon="6.31393">
        <ele>957.1</ele>
        <time>2022-01-06T10:39:02Z</time>
      </trkpt>
      <trkpt lat="45.8459" lon="6.31396">
        <ele>957.1</ele>
        <time>2022-01-06T10:39:03Z</time>
      </trkpt>
      <trkpt lat="45.84591" lon="6.31397">
        <ele>957.1</ele>
        <time>2022-01-06T10:39:04Z</time>
      </trkpt>
      <trkpt lat="45.84592" lon="6.31399">
        <ele>956</ele>
        <time>2022-01-06T10:39:05Z</time>
      </trkpt>
      <trkpt lat="45.84593" lon="6.314">
        <ele>956</ele>
        <time>2022-01-06T10:39:06Z</time>
      </trkpt>
      <trkpt lat="45.84594" lon="6.31402">
        <ele>956</ele>
        <time>2022-01-06T10:39:07Z</time>
      </trkpt>
      <trkpt lat="45.84595" lon="6.31404">
        <ele>956</ele>
        <time>2022-01-06T10:39:08Z</time>
      </trkpt>
      <trkpt lat="45.84596" lon="6.31406">
        <ele>955.1</ele>
        <time>2022-01-06T10:39:09Z</time>
      </trkpt>
      <trkpt lat="45.84597" lon="6.31407">
        <ele>955.1</ele>
        <time>2022-01-06T10:39:10Z</time>
      </trkpt>
      <trkpt lat="45.84597" lon="6.31409">
        <ele>955.1</ele>
        <time>2022-01-06T10:39:11Z</time>
      </trkpt>
      <trkpt lat="45.84598" lon="6.31412">
        <ele>955.1</ele>
        <time>2022-01-06T10:39:12Z</time>
      </trkpt>
      <trkpt lat="45.84598" lon="6.31414">
        <ele>954</ele>
        <time>2022-01-06T10:39:13Z</time>
      </trkpt>
      <trkpt lat="45.84599" lon="6.31417">
        <ele>954</ele>
        <time>2022-01-06T10:39:14Z</time>
      </trkpt>
      <trkpt lat="45.846" lon="6.31418">
        <ele>954</ele>
        <time>2022-01-06T10:39:15Z</time>
      </trkpt>
      <trkpt lat="45.84601" lon="6.3142">
        <ele>954</ele>
        <time>2022-01-06T10:39:16Z</time>
      </trkpt>
      <trkpt lat="45.84602" lon="6.31421">
        <ele>954</ele>
        <time>2022-01-06T10:39:17Z</time>
      </trkpt>
      <trkpt lat="45.84603" lon="6.31423">
        <ele>954</ele>
        <time>2022-01-06T10:39:18Z</time>
      </trkpt>
      <trkpt lat="45.84604" lon="6.31424">
        <ele>953.1</ele>
        <time>2022-01-06T10:39:19Z</time>
      </trkpt>
      <trkpt lat="45.84605" lon="6.31426">
        <ele>953.1</ele>
        <time>2022-01-06T10:39:20Z</time>
      </trkpt>
      <trkpt lat="45.84605" lon="6.31427">
        <ele>953.1</ele>
        <time>2022-01-06T10:39:21Z</time>
      </trkpt>
      <trkpt lat="45.84606" lon="6.31429">
        <ele>953.1</ele>
        <time>2022-01-06T10:39:22Z</time>
      </trkpt>
      <trkpt lat="45.84607" lon="6.31431">
        <ele>952.1</ele>
        <time>2022-01-06T10:39:23Z</time>
      </trkpt>
      <trkpt lat="45.84607" lon="6.31432">
        <ele>952.1</ele>
        <time>2022-01-06T10:39:24Z</time>
      </trkpt>
      <trkpt lat="45.84608" lon="6.31434">
        <ele>952.1</ele>
        <time>2022-01-06T10:39:25Z</time>
      </trkpt>
      <trkpt lat="45.84609" lon="6.31436">
        <ele>952.1</ele>
        <time>2022-01-06T10:39:26Z</time>
      </trkpt>
      <trkpt lat="45.8461" lon="6.31437">
        <ele>951.1</ele>
        <time>2022-01-06T10:39:27Z</time>
      </trkpt>
      <trkpt lat="45.84611" lon="6.31439">
        <ele>951.1</ele>
        <time>2022-01-06T10:39:28Z</time>
      </trkpt>
      <trkpt lat="45.84613" lon="6.31442">
        <ele>951.1</ele>
        <time>2022-01-06T10:39:29Z</time>
      </trkpt>
      <trkpt lat="45.84615" lon="6.31443">
        <ele>951.1</ele>
        <time>2022-01-06T10:39:30Z</time>
      </trkpt>
      <trkpt lat="45.84616" lon="6.31445">
        <ele>951.1</ele>
        <time>2022-01-06T10:39:31Z</time>
      </trkpt>
      <trkpt lat="45.84616" lon="6.31446">
        <ele>951.1</ele>
        <time>2022-01-06T10:39:32Z</time>
      </trkpt>
      <trkpt lat="45.84617" lon="6.31447">
        <ele>951.1</ele>
        <time>2022-01-06T10:39:33Z</time>
      </trkpt>
      <trkpt lat="45.84618" lon="6.31449">
        <ele>951.1</ele>
        <time>2022-01-06T10:39:34Z</time>
      </trkpt>
      <trkpt lat="45.84618" lon="6.3145">
        <ele>951.1</ele>
        <time>2022-01-06T10:39:35Z</time>
      </trkpt>
      <trkpt lat="45.84619" lon="6.31452">
        <ele>951.1</ele>
        <time>2022-01-06T10:39:36Z</time>
      </trkpt>
      <trkpt lat="45.8462" lon="6.31453">
        <ele>950.1</ele>
        <time>2022-01-06T10:39:37Z</time>
      </trkpt>
      <trkpt lat="45.84621" lon="6.31455">
        <ele>950.1</ele>
        <time>2022-01-06T10:39:38Z</time>
      </trkpt>
      <trkpt lat="45.84622" lon="6.31456">
        <ele>950.1</ele>
        <time>2022-01-06T10:39:39Z</time>
      </trkpt>
      <trkpt lat="45.84623" lon="6.31457">
        <ele>950.1</ele>
        <time>2022-01-06T10:39:40Z</time>
      </trkpt>
      <trkpt lat="45.84624" lon="6.31458">
        <ele>949</ele>
        <time>2022-01-06T10:39:41Z</time>
      </trkpt>
      <trkpt lat="45.84625" lon="6.3146">
        <ele>949</ele>
        <time>2022-01-06T10:39:42Z</time>
      </trkpt>
      <trkpt lat="45.84625" lon="6.31461">
        <ele>949</ele>
        <time>2022-01-06T10:39:43Z</time>
      </trkpt>
      <trkpt lat="45.84627" lon="6.31462">
        <ele>949</ele>
        <time>2022-01-06T10:39:44Z</time>
      </trkpt>
      <trkpt lat="45.84628" lon="6.31463">
        <ele>948.1</ele>
        <time>2022-01-06T10:39:45Z</time>
      </trkpt>
      <trkpt lat="45.84629" lon="6.31463">
        <ele>948.1</ele>
        <time>2022-01-06T10:39:46Z</time>
      </trkpt>
      <trkpt lat="45.8463" lon="6.31464">
        <ele>948.1</ele>
        <time>2022-01-06T10:39:47Z</time>
      </trkpt>
      <trkpt lat="45.84631" lon="6.31465">
        <ele>948.1</ele>
        <time>2022-01-06T10:39:48Z</time>
      </trkpt>
      <trkpt lat="45.84632" lon="6.31466">
        <ele>947</ele>
        <time>2022-01-06T10:39:49Z</time>
      </trkpt>
      <trkpt lat="45.84633" lon="6.31467">
        <ele>947</ele>
        <time>2022-01-06T10:39:50Z</time>
      </trkpt>
      <trkpt lat="45.84634" lon="6.31468">
        <ele>947</ele>
        <time>2022-01-06T10:39:51Z</time>
      </trkpt>
      <trkpt lat="45.84635" lon="6.31469">
        <ele>947</ele>
        <time>2022-01-06T10:39:52Z</time>
      </trkpt>
      <trkpt lat="45.84636" lon="6.3147">
        <ele>946.1</ele>
        <time>2022-01-06T10:39:53Z</time>
      </trkpt>
      <trkpt lat="45.84637" lon="6.31471">
        <ele>946.1</ele>
        <time>2022-01-06T10:39:54Z</time>
      </trkpt>
      <trkpt lat="45.84638" lon="6.31472">
        <ele>946.1</ele>
        <time>2022-01-06T10:39:55Z</time>
      </trkpt>
      <trkpt lat="45.84639" lon="6.31473">
        <ele>946.1</ele>
        <time>2022-01-06T10:39:56Z</time>
      </trkpt>
      <trkpt lat="45.8464" lon="6.31474">
        <ele>946.1</ele>
        <time>2022-01-06T10:39:57Z</time>
      </trkpt>
      <trkpt lat="45.84641" lon="6.31475">
        <ele>946.1</ele>
        <time>2022-01-06T10:39:58Z</time>
      </trkpt>
      <trkpt lat="45.84641" lon="6.31476">
        <ele>945</ele>
        <time>2022-01-06T10:39:59Z</time>
      </trkpt>
      <trkpt lat="45.84642" lon="6.31477">
        <ele>945</ele>
        <time>2022-01-06T10:40:00Z</time>
      </trkpt>
      <trkpt lat="45.84643" lon="6.31478">
        <ele>945</ele>
        <time>2022-01-06T10:40:01Z</time>
      </trkpt>
      <trkpt lat="45.84644" lon="6.31478">
        <ele>945</ele>
        <time>2022-01-06T10:40:02Z</time>
      </trkpt>
      <trkpt lat="45.84645" lon="6.31479">
        <ele>945</ele>
        <time>2022-01-06T10:40:03Z</time>
      </trkpt>
      <trkpt lat="45.84646" lon="6.3148">
        <ele>945</ele>
        <time>2022-01-06T10:40:04Z</time>
      </trkpt>
      <trkpt lat="45.84646" lon="6.31481">
        <ele>945</ele>
        <time>2022-01-06T10:40:05Z</time>
      </trkpt>
      <trkpt lat="45.84647" lon="6.31481">
        <ele>945</ele>
        <time>2022-01-06T10:40:06Z</time>
      </trkpt>
      <trkpt lat="45.84647" lon="6.31482">
        <ele>945</ele>
        <time>2022-01-06T10:40:07Z</time>
      </trkpt>
      <trkpt lat="45.84647" lon="6.31482">
        <ele>945</ele>
        <time>2022-01-06T10:40:08Z</time>
      </trkpt>
      <trkpt lat="45.84648" lon="6.31483">
        <ele>945</ele>
        <time>2022-01-06T10:40:09Z</time>
      </trkpt>
      <trkpt lat="45.84648" lon="6.31484">
        <ele>945</ele>
        <time>2022-01-06T10:40:10Z</time>
      </trkpt>
      <trkpt lat="45.84649" lon="6.31484">
        <ele>945</ele>
        <time>2022-01-06T10:40:11Z</time>
      </trkpt>
      <trkpt lat="45.84649" lon="6.31485">
        <ele>945</ele>
        <time>2022-01-06T10:40:12Z</time>
      </trkpt>
      <trkpt lat="45.8465" lon="6.31485">
        <ele>944.1</ele>
        <time>2022-01-06T10:40:13Z</time>
      </trkpt>
      <trkpt lat="45.84651" lon="6.31486">
        <ele>944.1</ele>
        <time>2022-01-06T10:40:14Z</time>
      </trkpt>
      <trkpt lat="45.84651" lon="6.31487">
        <ele>944.1</ele>
        <time>2022-01-06T10:40:15Z</time>
      </trkpt>
      <trkpt lat="45.84652" lon="6.31488">
        <ele>944.1</ele>
        <time>2022-01-06T10:40:16Z</time>
      </trkpt>
      <trkpt lat="45.84653" lon="6.31488">
        <ele>944.1</ele>
        <time>2022-01-06T10:40:17Z</time>
      </trkpt>
      <trkpt lat="45.84653" lon="6.31489">
        <ele>944.1</ele>
        <time>2022-01-06T10:40:18Z</time>
      </trkpt>
      <trkpt lat="45.84653" lon="6.31489">
        <ele>943.1</ele>
        <time>2022-01-06T10:40:19Z</time>
      </trkpt>
      <trkpt lat="45.84654" lon="6.3149">
        <ele>943.1</ele>
        <time>2022-01-06T10:40:20Z</time>
      </trkpt>
      <trkpt lat="45.84655" lon="6.3149">
        <ele>943.1</ele>
        <time>2022-01-06T10:40:21Z</time>
      </trkpt>
      <trkpt lat="45.84656" lon="6.3149">
        <ele>943.1</ele>
        <time>2022-01-06T10:40:22Z</time>
      </trkpt>
      <trkpt lat="45.84657" lon="6.31491">
        <ele>943.1</ele>
        <time>2022-01-06T10:40:23Z</time>
      </trkpt>
      <trkpt lat="45.84658" lon="6.31492">
        <ele>943.1</ele>
        <time>2022-01-06T10:40:24Z</time>
      </trkpt>
      <trkpt lat="45.84658" lon="6.31493">
        <ele>943.1</ele>
        <time>2022-01-06T10:40:25Z</time>
      </trkpt>
      <trkpt lat="45.84659" lon="6.31493">
        <ele>943.1</ele>
        <time>2022-01-06T10:40:26Z</time>
      </trkpt>
      <trkpt lat="45.84659" lon="6.31493">
        <ele>942.1</ele>
        <time>2022-01-06T10:40:27Z</time>
      </trkpt>
      <trkpt lat="45.84659" lon="6.31494">
        <ele>942.1</ele>
        <time>2022-01-06T10:40:28Z</time>
      </trkpt>
      <trkpt lat="45.84659" lon="6.31494">
        <ele>942.1</ele>
        <time>2022-01-06T10:40:29Z</time>
      </trkpt>
      <trkpt lat="45.84659" lon="6.31494">
        <ele>942.1</ele>
        <time>2022-01-06T10:40:30Z</time>
      </trkpt>
      <trkpt lat="45.84659" lon="6.31494">
        <ele>942.1</ele>
        <time>2022-01-06T10:40:31Z</time>
      </trkpt>
      <trkpt lat="45.84659" lon="6.31493">
        <ele>942.1</ele>
        <time>2022-01-06T10:40:32Z</time>
      </trkpt>
      <trkpt lat="45.84658" lon="6.31492">
        <ele>943.1</ele>
        <time>2022-01-06T10:40:33Z</time>
      </trkpt>
      <trkpt lat="45.84658" lon="6.31491">
        <ele>943.1</ele>
        <time>2022-01-06T10:40:34Z</time>
      </trkpt>
      <trkpt lat="45.84658" lon="6.31491">
        <ele>943.1</ele>
        <time>2022-01-06T10:40:35Z</time>
      </trkpt>
      <trkpt lat="45.84658" lon="6.3149">
        <ele>943.1</ele>
        <time>2022-01-06T10:40:36Z</time>
      </trkpt>
      <trkpt lat="45.84658" lon="6.3149">
        <ele>943.1</ele>
        <time>2022-01-06T10:40:37Z</time>
      </trkpt>
      <trkpt lat="45.84658" lon="6.3149">
        <ele>943.1</ele>
        <time>2022-01-06T10:40:38Z</time>
      </trkpt>
      <trkpt lat="45.84658" lon="6.31491">
        <ele>942.1</ele>
        <time>2022-01-06T10:40:39Z</time>
      </trkpt>
      <trkpt lat="45.84659" lon="6.31492">
        <ele>942.1</ele>
        <time>2022-01-06T10:40:40Z</time>
      </trkpt>
      <trkpt lat="45.84659" lon="6.31492">
        <ele>942.1</ele>
        <time>2022-01-06T10:40:41Z</time>
      </trkpt>
      <trkpt lat="45.84659" lon="6.31493">
        <ele>942.1</ele>
        <time>2022-01-06T10:40:42Z</time>
      </trkpt>
      <trkpt lat="45.84659" lon="6.31493">
        <ele>942.1</ele>
        <time>2022-01-06T10:40:43Z</time>
      </trkpt>
      <trkpt lat="45.84659" lon="6.31493">
        <ele>942.1</ele>
        <time>2022-01-06T10:40:44Z</time>
      </trkpt>
      <trkpt lat="45.84659" lon="6.31494">
        <ele>942.1</ele>
        <time>2022-01-06T10:40:45Z</time>
      </trkpt>
      <trkpt lat="45.84659" lon="6.31494">
        <ele>942.1</ele>
        <time>2022-01-06T10:40:46Z</time>
      </trkpt>
      <trkpt lat="45.84659" lon="6.31494">
        <ele>942.1</ele>
        <time>2022-01-06T10:40:47Z</time>
      </trkpt>
      <trkpt lat="45.84659" lon="6.31494">
        <ele>942.1</ele>
        <time>2022-01-06T10:40:48Z</time>
      </trkpt>
      <trkpt lat="45.84659" lon="6.31494">
        <ele>942.1</ele>
        <time>2022-01-06T10:40:49Z</time>
      </trkpt>
      <trkpt lat="45.84659" lon="6.31494">
        <ele>942.1</ele>
        <time>2022-01-06T10:40:50Z</time>
      </trkpt>
      <trkpt lat="45.84659" lon="6.31494">
        <ele>942.1</ele>
        <time>2022-01-06T10:40:51Z</time>
      </trkpt>
      <trkpt lat="45.84659" lon="6.31494">
        <ele>942.1</ele>
        <time>2022-01-06T10:40:52Z</time>
      </trkpt>
      <trkpt lat="45.84659" lon="6.31494">
        <ele>942.1</ele>
        <time>2022-01-06T10:40:53Z</time>
      </trkpt>
      <trkpt lat="45.84659" lon="6.31494">
        <ele>942.1</ele>
        <time>2022-01-06T10:40:54Z</time>
      </trkpt>
      <trkpt lat="45.84659" lon="6.31494">
        <ele>942.1</ele>
        <time>2022-01-06T10:40:55Z</time>
      </trkpt>
      <trkpt lat="45.84659" lon="6.31493">
        <ele>942.1</ele>
        <time>2022-01-06T10:40:56Z</time>
      </trkpt>
      <trkpt lat="45.84659" lon="6.31493">
        <ele>942.1</ele>
        <time>2022-01-06T10:40:57Z</time>
      </trkpt>
      <trkpt lat="45.84659" lon="6.31493">
        <ele>942.1</ele>
        <time>2022-01-06T10:40:58Z</time>
      </trkpt>
      <trkpt lat="45.84659" lon="6.31493">
        <ele>942.1</ele>
        <time>2022-01-06T10:40:59Z</time>
      </trkpt>
      <trkpt lat="45.84659" lon="6.31493">
        <ele>942.1</ele>
        <time>2022-01-06T10:41:00Z</time>
      </trkpt>
      <trkpt lat="45.84659" lon="6.31493">
        <ele>942.1</ele>
        <time>2022-01-06T10:41:01Z</time>
      </trkpt>
      <trkpt lat="45.84659" lon="6.31493">
        <ele>942.1</ele>
        <time>2022-01-06T10:41:02Z</time>
      </trkpt>
      <trkpt lat="45.84659" lon="6.31493">
        <ele>942.1</ele>
        <time>2022-01-06T10:41:03Z</time>
      </trkpt>
      <trkpt lat="45.84659" lon="6.31493">
        <ele>942.1</ele>
        <time>2022-01-06T10:41:04Z</time>
      </trkpt>
      <trkpt lat="45.84659" lon="6.31492">
        <ele>942.1</ele>
        <time>2022-01-06T10:41:05Z</time>
      </trkpt>
      <trkpt lat="45.84659" lon="6.31492">
        <ele>942.1</ele>
        <time>2022-01-06T10:41:06Z</time>
      </trkpt>
      <trkpt lat="45.84659" lon="6.31492">
        <ele>942.1</ele>
        <time>2022-01-06T10:41:07Z</time>
      </trkpt>
      <trkpt lat="45.84659" lon="6.31492">
        <ele>942.1</ele>
        <time>2022-01-06T10:41:08Z</time>
      </trkpt>
      <trkpt lat="45.84659" lon="6.31492">
        <ele>942.1</ele>
        <time>2022-01-06T10:41:09Z</time>
      </trkpt>
      <trkpt lat="45.84659" lon="6.31492">
        <ele>942.1</ele>
        <time>2022-01-06T10:41:10Z</time>
      </trkpt>
      <trkpt lat="45.84659" lon="6.31492">
        <ele>942.1</ele>
        <time>2022-01-06T10:41:11Z</time>
      </trkpt>
      <trkpt lat="45.84659" lon="6.31492">
        <ele>942.1</ele>
        <time>2022-01-06T10:41:12Z</time>
      </trkpt>
      <trkpt lat="45.84659" lon="6.31492">
        <ele>942.1</ele>
        <time>2022-01-06T10:41:13Z</time>
      </trkpt>
      <trkpt lat="45.84659" lon="6.31492">
        <ele>942.1</ele>
        <time>2022-01-06T10:41:14Z</time>
      </trkpt>
      <trkpt lat="45.84659" lon="6.31492">
        <ele>942.1</ele>
        <time>2022-01-06T10:41:15Z</time>
      </trkpt>
      <trkpt lat="45.84659" lon="6.31492">
        <ele>942.1</ele>
        <time>2022-01-06T10:41:16Z</time>
      </trkpt>
      <trkpt lat="45.84659" lon="6.31492">
        <ele>942.1</ele>
        <time>2022-01-06T10:41:17Z</time>
      </trkpt>
      <trkpt lat="45.84659" lon="6.31492">
        <ele>942.1</ele>
        <time>2022-01-06T10:41:18Z</time>
      </trkpt>
      <trkpt lat="45.84659" lon="6.31492">
        <ele>942.1</ele>
        <time>2022-01-06T10:41:19Z</time>
      </trkpt>
      <trkpt lat="45.84659" lon="6.31492">
        <ele>942.1</ele>
        <time>2022-01-06T10:41:20Z</time>
      </trkpt>
      <trkpt lat="45.84659" lon="6.31492">
        <ele>942.1</ele>
        <time>2022-01-06T10:41:21Z</time>
      </trkpt>
      <trkpt lat="45.84659" lon="6.31492">
        <ele>942.1</ele>
        <time>2022-01-06T10:41:22Z</time>
      </trkpt>
      <trkpt lat="45.84659" lon="6.31492">
        <ele>942.1</ele>
        <time>2022-01-06T10:41:23Z</time>
      </trkpt>
      <trkpt lat="45.84659" lon="6.31492">
        <ele>942.1</ele>
        <time>2022-01-06T10:41:24Z</time>
      </trkpt>
      <trkpt lat="45.84659" lon="6.31492">
        <ele>942.1</ele>
        <time>2022-01-06T10:41:25Z</time>
      </trkpt>
      <trkpt lat="45.84659" lon="6.31492">
        <ele>942.1</ele>
        <time>2022-01-06T10:41:26Z</time>
      </trkpt>
      <trkpt lat="45.84659" lon="6.31492">
        <ele>942.1</ele>
        <time>2022-01-06T10:41:27Z</time>
      </trkpt>
      <trkpt lat="45.84659" lon="6.31492">
        <ele>942.1</ele>
        <time>2022-01-06T10:41:28Z</time>
      </trkpt>
      <trkpt lat="45.84659" lon="6.31492">
        <ele>942.1</ele>
        <time>2022-01-06T10:41:29Z</time>
      </trkpt>
      <trkpt lat="45.8466" lon="6.31492">
        <ele>942.1</ele>
        <time>2022-01-06T10:41:30Z</time>
      </trkpt>
      <trkpt lat="45.8466" lon="6.31492">
        <ele>942.1</ele>
        <time>2022-01-06T10:41:31Z</time>
      </trkpt>
      <trkpt lat="45.8466" lon="6.31491">
        <ele>942.1</ele>
        <time>2022-01-06T10:41:32Z</time>
      </trkpt>
      <trkpt lat="45.8466" lon="6.31491">
        <ele>942.1</ele>
        <time>2022-01-06T10:41:33Z</time>
      </trkpt>
      <trkpt lat="45.8466" lon="6.31491">
        <ele>942.1</ele>
        <time>2022-01-06T10:41:34Z</time>
      </trkpt>
      <trkpt lat="45.8466" lon="6.31491">
        <ele>942.1</ele>
        <time>2022-01-06T10:41:35Z</time>
      </trkpt>
      <trkpt lat="45.8466" lon="6.31491">
        <ele>942.1</ele>
        <time>2022-01-06T10:41:36Z</time>
      </trkpt>
      <trkpt lat="45.8466" lon="6.31491">
        <ele>942.1</ele>
        <time>2022-01-06T10:41:37Z</time>
      </trkpt>
      <trkpt lat="45.8466" lon="6.31491">
        <ele>942.1</ele>
        <time>2022-01-06T10:41:38Z</time>
      </trkpt>
      <trkpt lat="45.8466" lon="6.31491">
        <ele>942.1</ele>
        <time>2022-01-06T10:41:39Z</time>
      </trkpt>
      <trkpt lat="45.8466" lon="6.31491">
        <ele>942.1</ele>
        <time>2022-01-06T10:41:40Z</time>
      </trkpt>
      <trkpt lat="45.8466" lon="6.31491">
        <ele>942.1</ele>
        <time>2022-01-06T10:41:41Z</time>
      </trkpt>
      <trkpt lat="45.8466" lon="6.31491">
        <ele>942.1</ele>
        <time>2022-01-06T10:41:42Z</time>
      </trkpt>
      <trkpt lat="45.8466" lon="6.31491">
        <ele>942.1</ele>
        <time>2022-01-06T10:41:43Z</time>
      </trkpt>
      <trkpt lat="45.8466" lon="6.31491">
        <ele>942.1</ele>
        <time>2022-01-06T10:41:44Z</time>
      </trkpt>
      <trkpt lat="45.8466" lon="6.31491">
        <ele>943.1</ele>
        <time>2022-01-06T10:41:45Z</time>
      </trkpt>
      <trkpt lat="45.8466" lon="6.31491">
        <ele>943.1</ele>
        <time>2022-01-06T10:41:46Z</time>
      </trkpt>
      <trkpt lat="45.8466" lon="6.31491">
        <ele>943.1</ele>
        <time>2022-01-06T10:41:47Z</time>
      </trkpt>
      <trkpt lat="45.8466" lon="6.31491">
        <ele>943.1</ele>
        <time>2022-01-06T10:41:48Z</time>
      </trkpt>
      <trkpt lat="45.8466" lon="6.31491">
        <ele>943.1</ele>
        <time>2022-01-06T10:41:49Z</time>
      </trkpt>
      <trkpt lat="45.8466" lon="6.31491">
        <ele>943.1</ele>
        <time>2022-01-06T10:41:50Z</time>
      </trkpt>
      <trkpt lat="45.8466" lon="6.31491">
        <ele>943.1</ele>
        <time>2022-01-06T10:41:51Z</time>
      </trkpt>
      <trkpt lat="45.8466" lon="6.31491">
        <ele>943.1</ele>
        <time>2022-01-06T10:41:52Z</time>
      </trkpt>
      <trkpt lat="45.8466" lon="6.31492">
        <ele>943.1</ele>
        <time>2022-01-06T10:41:53Z</time>
      </trkpt>
      <trkpt lat="45.8466" lon="6.31492">
        <ele>943.1</ele>
        <time>2022-01-06T10:41:54Z</time>
      </trkpt>
      <trkpt lat="45.8466" lon="6.31492">
        <ele>942.1</ele>
        <time>2022-01-06T10:41:55Z</time>
      </trkpt>
      <trkpt lat="45.8466" lon="6.31492">
        <ele>942.1</ele>
        <time>2022-01-06T10:41:56Z</time>
      </trkpt>
      <trkpt lat="45.8466" lon="6.31492">
        <ele>942.1</ele>
        <time>2022-01-06T10:41:57Z</time>
      </trkpt>
      <trkpt lat="45.8466" lon="6.31493">
        <ele>942.1</ele>
        <time>2022-01-06T10:41:58Z</time>
      </trkpt>
      <trkpt lat="45.8466" lon="6.31493">
        <ele>943.1</ele>
        <time>2022-01-06T10:41:59Z</time>
      </trkpt>
      <trkpt lat="45.84661" lon="6.31494">
        <ele>943.1</ele>
        <time>2022-01-06T10:42:00Z</time>
      </trkpt>
      <trkpt lat="45.84661" lon="6.31494">
        <ele>943.1</ele>
        <time>2022-01-06T10:42:01Z</time>
      </trkpt>
      <trkpt lat="45.84661" lon="6.31495">
        <ele>943.1</ele>
        <time>2022-01-06T10:42:02Z</time>
      </trkpt>
      <trkpt lat="45.84661" lon="6.31495">
        <ele>943.1</ele>
        <time>2022-01-06T10:42:03Z</time>
      </trkpt>
      <trkpt lat="45.84661" lon="6.31495">
        <ele>943.1</ele>
        <time>2022-01-06T10:42:04Z</time>
      </trkpt>
      <trkpt lat="45.84661" lon="6.31495">
        <ele>943.1</ele>
        <time>2022-01-06T10:42:05Z</time>
      </trkpt>
      <trkpt lat="45.84661" lon="6.31495">
        <ele>943.1</ele>
        <time>2022-01-06T10:42:06Z</time>
      </trkpt>
      <trkpt lat="45.84661" lon="6.31495">
        <ele>943.1</ele>
        <time>2022-01-06T10:42:07Z</time>
      </trkpt>
      <trkpt lat="45.84661" lon="6.31495">
        <ele>943.1</ele>
        <time>2022-01-06T10:42:08Z</time>
      </trkpt>
      <trkpt lat="45.84661" lon="6.31495">
        <ele>943.1</ele>
        <time>2022-01-06T10:42:09Z</time>
      </trkpt>
      <trkpt lat="45.84661" lon="6.31495">
        <ele>943.1</ele>
        <time>2022-01-06T10:42:10Z</time>
      </trkpt>
      <trkpt lat="45.84661" lon="6.31495">
        <ele>943.1</ele>
        <time>2022-01-06T10:42:11Z</time>
      </trkpt>
      <trkpt lat="45.84661" lon="6.31495">
        <ele>943.1</ele>
        <time>2022-01-06T10:42:12Z</time>
      </trkpt>
      <trkpt lat="45.8466" lon="6.31495">
        <ele>943.1</ele>
        <time>2022-01-06T10:42:13Z</time>
      </trkpt>
      <trkpt lat="45.8466" lon="6.31495">
        <ele>943.1</ele>
        <time>2022-01-06T10:42:14Z</time>
      </trkpt>
      <trkpt lat="45.8466" lon="6.31495">
        <ele>943.1</ele>
        <time>2022-01-06T10:42:15Z</time>
      </trkpt>
      <trkpt lat="45.8466" lon="6.31495">
        <ele>943.1</ele>
        <time>2022-01-06T10:42:16Z</time>
      </trkpt>
      <trkpt lat="45.8466" lon="6.31495">
        <ele>943.1</ele>
        <time>2022-01-06T10:42:17Z</time>
      </trkpt>
      <trkpt lat="45.8466" lon="6.31495">
        <ele>943.1</ele>
        <time>2022-01-06T10:42:18Z</time>
      </trkpt>
      <trkpt lat="45.8466" lon="6.31495">
        <ele>943.1</ele>
        <time>2022-01-06T10:42:19Z</time>
      </trkpt>
      <trkpt lat="45.8466" lon="6.31495">
        <ele>943.1</ele>
        <time>2022-01-06T10:42:20Z</time>
      </trkpt>
      <trkpt lat="45.8466" lon="6.31495">
        <ele>943.1</ele>
        <time>2022-01-06T10:42:21Z</time>
      </trkpt>
      <trkpt lat="45.8466" lon="6.31495">
        <ele>943.1</ele>
        <time>2022-01-06T10:42:22Z</time>
      </trkpt>
      <trkpt lat="45.8466" lon="6.31495">
        <ele>943.1</ele>
        <time>2022-01-06T10:42:23Z</time>
      </trkpt>
      <trkpt lat="45.8466" lon="6.31495">
        <ele>943.1</ele>
        <time>2022-01-06T10:42:24Z</time>
      </trkpt>
      <trkpt lat="45.8466" lon="6.31495">
        <ele>943.1</ele>
        <time>2022-01-06T10:42:25Z</time>
      </trkpt>
      <trkpt lat="45.8466" lon="6.31495">
        <ele>943.1</ele>
        <time>2022-01-06T10:42:26Z</time>
      </trkpt>
      <trkpt lat="45.8466" lon="6.31495">
        <ele>943.1</ele>
        <time>2022-01-06T10:42:27Z</time>
      </trkpt>
      <trkpt lat="45.8466" lon="6.31495">
        <ele>943.1</ele>
        <time>2022-01-06T10:42:28Z</time>
      </trkpt>
      <trkpt lat="45.8466" lon="6.31495">
        <ele>943.1</ele>
        <time>2022-01-06T10:42:29Z</time>
      </trkpt>
      <trkpt lat="45.8466" lon="6.31495">
        <ele>943.1</ele>
        <time>2022-01-06T10:42:30Z</time>
      </trkpt>
      <trkpt lat="45.8466" lon="6.31495">
        <ele>943.1</ele>
        <time>2022-01-06T10:42:31Z</time>
      </trkpt>
      <trkpt lat="45.8466" lon="6.31495">
        <ele>943.1</ele>
        <time>2022-01-06T10:42:32Z</time>
      </trkpt>
      <trkpt lat="45.8466" lon="6.31494">
        <ele>943.1</ele>
        <time>2022-01-06T10:42:33Z</time>
      </trkpt>
      <trkpt lat="45.8466" lon="6.31494">
        <ele>943.1</ele>
        <time>2022-01-06T10:42:34Z</time>
      </trkpt>
      <trkpt lat="45.8466" lon="6.31494">
        <ele>943.1</ele>
        <time>2022-01-06T10:42:35Z</time>
      </trkpt>
      <trkpt lat="45.8466" lon="6.31494">
        <ele>943.1</ele>
        <time>2022-01-06T10:42:36Z</time>
      </trkpt>
      <trkpt lat="45.8466" lon="6.31494">
        <ele>943.1</ele>
        <time>2022-01-06T10:42:37Z</time>
      </trkpt>
      <trkpt lat="45.8466" lon="6.31494">
        <ele>943.1</ele>
        <time>2022-01-06T10:42:38Z</time>
      </trkpt>
      <trkpt lat="45.8466" lon="6.31494">
        <ele>942.1</ele>
        <time>2022-01-06T10:42:39Z</time>
      </trkpt>
      <trkpt lat="45.8466" lon="6.31493">
        <ele>942.1</ele>
        <time>2022-01-06T10:42:40Z</time>
      </trkpt>
      <trkpt lat="45.8466" lon="6.31493">
        <ele>942.1</ele>
        <time>2022-01-06T10:42:41Z</time>
      </trkpt>
      <trkpt lat="45.8466" lon="6.31493">
        <ele>942.1</ele>
        <time>2022-01-06T10:42:42Z</time>
      </trkpt>
      <trkpt lat="45.8466" lon="6.31493">
        <ele>942.1</ele>
        <time>2022-01-06T10:42:43Z</time>
      </trkpt>
      <trkpt lat="45.8466" lon="6.31493">
        <ele>942.1</ele>
        <time>2022-01-06T10:42:44Z</time>
      </trkpt>
      <trkpt lat="45.84659" lon="6.31493">
        <ele>942.1</ele>
        <time>2022-01-06T10:42:45Z</time>
      </trkpt>
      <trkpt lat="45.84659" lon="6.31493">
        <ele>942.1</ele>
        <time>2022-01-06T10:42:46Z</time>
      </trkpt>
      <trkpt lat="45.84659" lon="6.31493">
        <ele>942.1</ele>
        <time>2022-01-06T10:42:47Z</time>
      </trkpt>
      <trkpt lat="45.84659" lon="6.31493">
        <ele>942.1</ele>
        <time>2022-01-06T10:42:48Z</time>
      </trkpt>
      <trkpt lat="45.84659" lon="6.31493">
        <ele>942.1</ele>
        <time>2022-01-06T10:42:49Z</time>
      </trkpt>
      <trkpt lat="45.84659" lon="6.31493">
        <ele>942.1</ele>
        <time>2022-01-06T10:42:50Z</time>
      </trkpt>
      <trkpt lat="45.84659" lon="6.31493">
        <ele>943.1</ele>
        <time>2022-01-06T10:42:51Z</time>
      </trkpt>
      <trkpt lat="45.84659" lon="6.31493">
        <ele>943.1</ele>
        <time>2022-01-06T10:42:52Z</time>
      </trkpt>
      <trkpt lat="45.84659" lon="6.31493">
        <ele>943.1</ele>
        <time>2022-01-06T10:42:53Z</time>
      </trkpt>
      <trkpt lat="45.84659" lon="6.31493">
        <ele>943.1</ele>
        <time>2022-01-06T10:42:54Z</time>
      </trkpt>
      <trkpt lat="45.84659" lon="6.31493">
        <ele>943.1</ele>
        <time>2022-01-06T10:42:55Z</time>
      </trkpt>
      <trkpt lat="45.84659" lon="6.31493">
        <ele>943.1</ele>
        <time>2022-01-06T10:42:56Z</time>
      </trkpt>
      <trkpt lat="45.84658" lon="6.31493">
        <ele>943.1</ele>
        <time>2022-01-06T10:42:57Z</time>
      </trkpt>
      <trkpt lat="45.84658" lon="6.31493">
        <ele>943.1</ele>
        <time>2022-01-06T10:42:58Z</time>
      </trkpt>
      <trkpt lat="45.84658" lon="6.31493">
        <ele>943.1</ele>
        <time>2022-01-06T10:42:59Z</time>
      </trkpt>
      <trkpt lat="45.84658" lon="6.31494">
        <ele>943.1</ele>
        <time>2022-01-06T10:43:00Z</time>
      </trkpt>
      <trkpt lat="45.84658" lon="6.31494">
        <ele>943.1</ele>
        <time>2022-01-06T10:43:01Z</time>
      </trkpt>
      <trkpt lat="45.84658" lon="6.31494">
        <ele>943.1</ele>
        <time>2022-01-06T10:43:02Z</time>
      </trkpt>
      <trkpt lat="45.84658" lon="6.31494">
        <ele>943.1</ele>
        <time>2022-01-06T10:43:03Z</time>
      </trkpt>
      <trkpt lat="45.84658" lon="6.31494">
        <ele>943.1</ele>
        <time>2022-01-06T10:43:04Z</time>
      </trkpt>
      <trkpt lat="45.84658" lon="6.31494">
        <ele>943.1</ele>
        <time>2022-01-06T10:43:05Z</time>
      </trkpt>
      <trkpt lat="45.84658" lon="6.31494">
        <ele>943.1</ele>
        <time>2022-01-06T10:43:06Z</time>
      </trkpt>
      <trkpt lat="45.84658" lon="6.31494">
        <ele>943.1</ele>
        <time>2022-01-06T10:43:07Z</time>
      </trkpt>
      <trkpt lat="45.84658" lon="6.31494">
        <ele>943.1</ele>
        <time>2022-01-06T10:43:08Z</time>
      </trkpt>
      <trkpt lat="45.84658" lon="6.31494">
        <ele>943.1</ele>
        <time>2022-01-06T10:43:09Z</time>
      </trkpt>
      <trkpt lat="45.84658" lon="6.31494">
        <ele>943.1</ele>
        <time>2022-01-06T10:43:10Z</time>
      </trkpt>
      <trkpt lat="45.84658" lon="6.31494">
        <ele>943.1</ele>
        <time>2022-01-06T10:43:11Z</time>
      </trkpt>
      <trkpt lat="45.84658" lon="6.31494">
        <ele>943.1</ele>
        <time>2022-01-06T10:43:12Z</time>
      </trkpt>
      <trkpt lat="45.84658" lon="6.31494">
        <ele>943.1</ele>
        <time>2022-01-06T10:43:13Z</time>
      </trkpt>
      <trkpt lat="45.84658" lon="6.31494">
        <ele>943.1</ele>
        <time>2022-01-06T10:43:14Z</time>
      </trkpt>
      <trkpt lat="45.84658" lon="6.31494">
        <ele>943.1</ele>
        <time>2022-01-06T10:43:15Z</time>
      </trkpt>
      <trkpt lat="45.84658" lon="6.31494">
        <ele>943.1</ele>
        <time>2022-01-06T10:43:16Z</time>
      </trkpt>
      <trkpt lat="45.84658" lon="6.31494">
        <ele>942.1</ele>
        <time>2022-01-06T10:43:17Z</time>
      </trkpt>
      <trkpt lat="45.84658" lon="6.31494">
        <ele>942.1</ele>
        <time>2022-01-06T10:43:18Z</time>
      </trkpt>
      <trkpt lat="45.84658" lon="6.31494">
        <ele>942.1</ele>
        <time>2022-01-06T10:43:19Z</time>
      </trkpt>
      <trkpt lat="45.84658" lon="6.31494">
        <ele>942.1</ele>
        <time>2022-01-06T10:43:20Z</time>
      </trkpt>
      <trkpt lat="45.84658" lon="6.31494">
        <ele>942.1</ele>
        <time>2022-01-06T10:43:21Z</time>
      </trkpt>
      <trkpt lat="45.84658" lon="6.31494">
        <ele>942.1</ele>
        <time>2022-01-06T10:43:22Z</time>
      </trkpt>
      <trkpt lat="45.84658" lon="6.31494">
        <ele>942.1</ele>
        <time>2022-01-06T10:43:23Z</time>
      </trkpt>
      <trkpt lat="45.84659" lon="6.31494">
        <ele>942.1</ele>
        <time>2022-01-06T10:43:24Z</time>
      </trkpt>
      <trkpt lat="45.84659" lon="6.31494">
        <ele>942.1</ele>
        <time>2022-01-06T10:43:25Z</time>
      </trkpt>
      <trkpt lat="45.84659" lon="6.31494">
        <ele>942.1</ele>
        <time>2022-01-06T10:43:26Z</time>
      </trkpt>
      <trkpt lat="45.84659" lon="6.31494">
        <ele>942.1</ele>
        <time>2022-01-06T10:43:27Z</time>
      </trkpt>
      <trkpt lat="45.84659" lon="6.31494">
        <ele>942.1</ele>
        <time>2022-01-06T10:43:28Z</time>
      </trkpt>
      <trkpt lat="45.84659" lon="6.31494">
        <ele>942.1</ele>
        <time>2022-01-06T10:43:29Z</time>
      </trkpt>
      <trkpt lat="45.84659" lon="6.31493">
        <ele>942.1</ele>
        <time>2022-01-06T10:43:30Z</time>
      </trkpt>
      <trkpt lat="45.84659" lon="6.31493">
        <ele>942.1</ele>
        <time>2022-01-06T10:43:31Z</time>
      </trkpt>
      <trkpt lat="45.84659" lon="6.31493">
        <ele>942.1</ele>
        <time>2022-01-06T10:43:32Z</time>
      </trkpt>
      <trkpt lat="45.8466" lon="6.31492">
        <ele>942.1</ele>
        <time>2022-01-06T10:43:33Z</time>
      </trkpt>
      <trkpt lat="45.8466" lon="6.31492">
        <ele>942.1</ele>
        <time>2022-01-06T10:43:34Z</time>
      </trkpt>
      <trkpt lat="45.8466" lon="6.31492">
        <ele>942.1</ele>
        <time>2022-01-06T10:43:35Z</time>
      </trkpt>
      <trkpt lat="45.8466" lon="6.31492">
        <ele>942.1</ele>
        <time>2022-01-06T10:43:36Z</time>
      </trkpt>
      <trkpt lat="45.8466" lon="6.31492">
        <ele>942.1</ele>
        <time>2022-01-06T10:43:37Z</time>
      </trkpt>
      <trkpt lat="45.8466" lon="6.31491">
        <ele>942.1</ele>
        <time>2022-01-06T10:43:38Z</time>
      </trkpt>
      <trkpt lat="45.8466" lon="6.31491">
        <ele>942.1</ele>
        <time>2022-01-06T10:43:39Z</time>
      </trkpt>
      <trkpt lat="45.8466" lon="6.31491">
        <ele>942.1</ele>
        <time>2022-01-06T10:43:40Z</time>
      </trkpt>
      <trkpt lat="45.8466" lon="6.31491">
        <ele>942.1</ele>
        <time>2022-01-06T10:43:41Z</time>
      </trkpt>
      <trkpt lat="45.8466" lon="6.31491">
        <ele>942.1</ele>
        <time>2022-01-06T10:43:42Z</time>
      </trkpt>
      <trkpt lat="45.8466" lon="6.31491">
        <ele>942.1</ele>
        <time>2022-01-06T10:43:43Z</time>
      </trkpt>
      <trkpt lat="45.8466" lon="6.31491">
        <ele>942.1</ele>
        <time>2022-01-06T10:43:44Z</time>
      </trkpt>
      <trkpt lat="45.8466" lon="6.31491">
        <ele>942.1</ele>
        <time>2022-01-06T10:43:45Z</time>
      </trkpt>
      <trkpt lat="45.8466" lon="6.31491">
        <ele>942.1</ele>
        <time>2022-01-06T10:43:46Z</time>
      </trkpt>
      <trkpt lat="45.8466" lon="6.31491">
        <ele>942.1</ele>
        <time>2022-01-06T10:43:47Z</time>
      </trkpt>
      <trkpt lat="45.8466" lon="6.31491">
        <ele>942.1</ele>
        <time>2022-01-06T10:43:48Z</time>
      </trkpt>
      <trkpt lat="45.8466" lon="6.31491">
        <ele>942.1</ele>
        <time>2022-01-06T10:43:49Z</time>
      </trkpt>
      <trkpt lat="45.84659" lon="6.31491">
        <ele>942.1</ele>
        <time>2022-01-06T10:43:50Z</time>
      </trkpt>
      <trkpt lat="45.84659" lon="6.31491">
        <ele>942.1</ele>
        <time>2022-01-06T10:43:51Z</time>
      </trkpt>
      <trkpt lat="45.84659" lon="6.31491">
        <ele>942.1</ele>
        <time>2022-01-06T10:43:52Z</time>
      </trkpt>
      <trkpt lat="45.84659" lon="6.31491">
        <ele>942.1</ele>
        <time>2022-01-06T10:43:53Z</time>
      </trkpt>
      <trkpt lat="45.84659" lon="6.31491">
        <ele>942.1</ele>
        <time>2022-01-06T10:43:54Z</time>
      </trkpt>
      <trkpt lat="45.84659" lon="6.31491">
        <ele>942.1</ele>
        <time>2022-01-06T10:43:55Z</time>
      </trkpt>
      <trkpt lat="45.84659" lon="6.31491">
        <ele>942.1</ele>
        <time>2022-01-06T10:43:56Z</time>
      </trkpt>
      <trkpt lat="45.84659" lon="6.31491">
        <ele>942.1</ele>
        <time>2022-01-06T10:43:57Z</time>
      </trkpt>
      <trkpt lat="45.84659" lon="6.3149">
        <ele>942.1</ele>
        <time>2022-01-06T10:43:58Z</time>
      </trkpt>
      <trkpt lat="45.84659" lon="6.3149">
        <ele>942.1</ele>
        <time>2022-01-06T10:43:59Z</time>
      </trkpt>
      <trkpt lat="45.84659" lon="6.3149">
        <ele>942.1</ele>
        <time>2022-01-06T10:44:00Z</time>
      </trkpt>
      <trkpt lat="45.84659" lon="6.3149">
        <ele>942.1</ele>
        <time>2022-01-06T10:44:01Z</time>
      </trkpt>
      <trkpt lat="45.84659" lon="6.3149">
        <ele>942.1</ele>
        <time>2022-01-06T10:44:02Z</time>
      </trkpt>
      <trkpt lat="45.84659" lon="6.3149">
        <ele>942.1</ele>
        <time>2022-01-06T10:44:03Z</time>
      </trkpt>
      <trkpt lat="45.84659" lon="6.3149">
        <ele>942.1</ele>
        <time>2022-01-06T10:44:04Z</time>
      </trkpt>
      <trkpt lat="45.84659" lon="6.3149">
        <ele>942.1</ele>
        <time>2022-01-06T10:44:05Z</time>
      </trkpt>
      <trkpt lat="45.84659" lon="6.3149">
        <ele>942.1</ele>
        <time>2022-01-06T10:44:06Z</time>
      </trkpt>
      <trkpt lat="45.84659" lon="6.3149">
        <ele>942.1</ele>
        <time>2022-01-06T10:44:07Z</time>
      </trkpt>
      <trkpt lat="45.84659" lon="6.3149">
        <ele>942.1</ele>
        <time>2022-01-06T10:44:08Z</time>
      </trkpt>
      <trkpt lat="45.84659" lon="6.3149">
        <ele>942.1</ele>
        <time>2022-01-06T10:44:09Z</time>
      </trkpt>
      <trkpt lat="45.84659" lon="6.3149">
        <ele>942.1</ele>
        <time>2022-01-06T10:44:10Z</time>
      </trkpt>
      <trkpt lat="45.84659" lon="6.3149">
        <ele>942.1</ele>
        <time>2022-01-06T10:44:11Z</time>
      </trkpt>
      <trkpt lat="45.84659" lon="6.3149">
        <ele>942.1</ele>
        <time>2022-01-06T10:44:12Z</time>
      </trkpt>
      <trkpt lat="45.84659" lon="6.3149">
        <ele>942.1</ele>
        <time>2022-01-06T10:44:13Z</time>
      </trkpt>
      <trkpt lat="45.84659" lon="6.3149">
        <ele>942.1</ele>
        <time>2022-01-06T10:44:14Z</time>
      </trkpt>
      <trkpt lat="45.84659" lon="6.3149">
        <ele>942.1</ele>
        <time>2022-01-06T10:44:15Z</time>
      </trkpt>
      <trkpt lat="45.84659" lon="6.3149">
        <ele>942.1</ele>
        <time>2022-01-06T10:44:16Z</time>
      </trkpt>
      <trkpt lat="45.84659" lon="6.3149">
        <ele>942.1</ele>
        <time>2022-01-06T10:44:17Z</time>
      </trkpt>
      <trkpt lat="45.84659" lon="6.3149">
        <ele>942.1</ele>
        <time>2022-01-06T10:44:18Z</time>
      </trkpt>
      <trkpt lat="45.84659" lon="6.3149">
        <ele>942.1</ele>
        <time>2022-01-06T10:44:19Z</time>
      </trkpt>
      <trkpt lat="45.84659" lon="6.3149">
        <ele>942.1</ele>
        <time>2022-01-06T10:44:20Z</time>
      </trkpt>
      <trkpt lat="45.84659" lon="6.3149">
        <ele>941.1</ele>
        <time>2022-01-06T10:44:21Z</time>
      </trkpt>
      <trkpt lat="45.84659" lon="6.3149">
        <ele>941.1</ele>
        <time>2022-01-06T10:44:22Z</time>
      </trkpt>
      <trkpt lat="45.84659" lon="6.3149">
        <ele>941.1</ele>
        <time>2022-01-06T10:44:23Z</time>
      </trkpt>
      <trkpt lat="45.84659" lon="6.3149">
        <ele>941.1</ele>
        <time>2022-01-06T10:44:24Z</time>
      </trkpt>
      <trkpt lat="45.84659" lon="6.3149">
        <ele>941.1</ele>
        <time>2022-01-06T10:44:25Z</time>
      </trkpt>
      <trkpt lat="45.84659" lon="6.3149">
        <ele>941.1</ele>
        <time>2022-01-06T10:44:26Z</time>
      </trkpt>
      <trkpt lat="45.84659" lon="6.3149">
        <ele>941.1</ele>
        <time>2022-01-06T10:44:27Z</time>
      </trkpt>
      <trkpt lat="45.84659" lon="6.3149">
        <ele>941.1</ele>
        <time>2022-01-06T10:44:28Z</time>
      </trkpt>
      <trkpt lat="45.84659" lon="6.3149">
        <ele>941.1</ele>
        <time>2022-01-06T10:44:29Z</time>
      </trkpt>
      <trkpt lat="45.84659" lon="6.3149">
        <ele>941.1</ele>
        <time>2022-01-06T10:44:30Z</time>
      </trkpt>
      <trkpt lat="45.84659" lon="6.3149">
        <ele>941.1</ele>
        <time>2022-01-06T10:44:31Z</time>
      </trkpt>
      <trkpt lat="45.84659" lon="6.3149">
        <ele>941.1</ele>
        <time>2022-01-06T10:44:32Z</time>
      </trkpt>
      <trkpt lat="45.84659" lon="6.3149">
        <ele>941.1</ele>
        <time>2022-01-06T10:44:33Z</time>
      </trkpt>
      <trkpt lat="45.84659" lon="6.3149">
        <ele>941.1</ele>
        <time>2022-01-06T10:44:34Z</time>
      </trkpt>
      <trkpt lat="45.84659" lon="6.3149">
        <ele>941.1</ele>
        <time>2022-01-06T10:44:35Z</time>
      </trkpt>
      <trkpt lat="45.84659" lon="6.3149">
        <ele>941.1</ele>
        <time>2022-01-06T10:44:36Z</time>
      </trkpt>
      <trkpt lat="45.84659" lon="6.3149">
        <ele>941.1</ele>
        <time>2022-01-06T10:44:37Z</time>
      </trkpt>
      <trkpt lat="45.84659" lon="6.3149">
        <ele>941.1</ele>
        <time>2022-01-06T10:44:38Z</time>
      </trkpt>
      <trkpt lat="45.84659" lon="6.3149">
        <ele>941.1</ele>
        <time>2022-01-06T10:44:39Z</time>
      </trkpt>
      <trkpt lat="45.84659" lon="6.3149">
        <ele>941.1</ele>
        <time>2022-01-06T10:44:40Z</time>
      </trkpt>
      <trkpt lat="45.84659" lon="6.3149">
        <ele>941.1</ele>
        <time>2022-01-06T10:44:41Z</time>
      </trkpt>
      <trkpt lat="45.84659" lon="6.3149">
        <ele>941.1</ele>
        <time>2022-01-06T10:44:42Z</time>
      </trkpt>
      <trkpt lat="45.84659" lon="6.3149">
        <ele>941.1</ele>
        <time>2022-01-06T10:44:43Z</time>
      </trkpt>
      <trkpt lat="45.84659" lon="6.3149">
        <ele>941.1</ele>
        <time>2022-01-06T10:44:44Z</time>
      </trkpt>
      <trkpt lat="45.84659" lon="6.3149">
        <ele>941.1</ele>
        <time>2022-01-06T10:44:45Z</time>
      </trkpt>
      <trkpt lat="45.84659" lon="6.3149">
        <ele>941.1</ele>
        <time>2022-01-06T10:44:46Z</time>
      </trkpt>
      <trkpt lat="45.84659" lon="6.3149">
        <ele>941.1</ele>
        <time>2022-01-06T10:44:47Z</time>
      </trkpt>
      <trkpt lat="45.84659" lon="6.3149">
        <ele>941.1</ele>
        <time>2022-01-06T10:44:48Z</time>
      </trkpt>
      <trkpt lat="45.84659" lon="6.3149">
        <ele>941.1</ele>
        <time>2022-01-06T10:44:49Z</time>
      </trkpt>
      <trkpt lat="45.84659" lon="6.3149">
        <ele>941.1</ele>
        <time>2022-01-06T10:44:50Z</time>
      </trkpt>
      <trkpt lat="45.84659" lon="6.3149">
        <ele>941.1</ele>
        <time>2022-01-06T10:44:51Z</time>
      </trkpt>
      <trkpt lat="45.84659" lon="6.3149">
        <ele>941.1</ele>
        <time>2022-01-06T10:44:52Z</time>
      </trkpt>
      <trkpt lat="45.84659" lon="6.3149">
        <ele>941.1</ele>
        <time>2022-01-06T10:44:53Z</time>
      </trkpt>
      <trkpt lat="45.84659" lon="6.3149">
        <ele>941.1</ele>
        <time>2022-01-06T10:44:54Z</time>
      </trkpt>
      <trkpt lat="45.84659" lon="6.3149">
        <ele>941.1</ele>
        <time>2022-01-06T10:44:55Z</time>
      </trkpt>
      <trkpt lat="45.84659" lon="6.3149">
        <ele>942.1</ele>
        <time>2022-01-06T10:44:56Z</time>
      </trkpt>
      <trkpt lat="45.84659" lon="6.3149">
        <ele>942.1</ele>
        <time>2022-01-06T10:44:57Z</time>
      </trkpt>
    </trkseg>
  </trk>
</gpx>